<?xml version='1.0' encoding='UTF-8'?><gpx version="1.1" creator="JPX - https://github.com/jenetics/jpx" xmlns="http://www.topografix.com/GPX/1/1"><trk><trkseg><trkpt lat="45.6399516" lon="13.7886256"><ele>49.0</ele><time>2026-04-26T10:58:21.451Z</time></trkpt><trkpt lat="45.6398545" lon="13.7886677"><ele>49.0</ele><time>2026-04-26T10:58:24.451Z</time></trkpt><trkpt lat="45.6398039" lon="13.7887822"><ele>49.0</ele><time>2026-04-26T10:58:26.452Z</time></trkpt><trkpt lat="45.639767" lon="13.788882"><ele>49.0</ele><time>2026-04-26T10:58:28.451Z</time></trkpt><trkpt lat="45.639731" lon="13.7889943"><ele>49.0</ele><time>2026-04-26T10:58:30.451Z</time></trkpt><trkpt lat="45.6397227" lon="13.7891697"><ele>48.99999999999999</ele><time>2026-04-26T10:58:32.451Z</time></trkpt><trkpt lat="45.6397351" lon="13.7892636"><ele>49.0</ele><time>2026-04-26T10:58:33.451Z</time></trkpt><trkpt lat="45.6397767" lon="13.7893546"><ele>49.0</ele><time>2026-04-26T10:58:34.451Z</time></trkpt><trkpt lat="45.6398363" lon="13.7894275"><ele>49.0</ele><time>2026-04-26T10:58:35.451Z</time></trkpt><trkpt lat="45.6399134" lon="13.7894838"><ele>48.99999999999999</ele><time>2026-04-26T10:58:36.452Z</time></trkpt><trkpt lat="45.6399987" lon="13.789513"><ele>49.0</ele><time>2026-04-26T10:58:37.451Z</time></trkpt><trkpt lat="45.64009" lon="13.7895598"><ele>50.0</ele><time>2026-04-26T10:58:38.451Z</time></trkpt><trkpt lat="45.6401927" lon="13.7895965"><ele>51.0</ele><time>2026-04-26T10:58:39.452Z</time></trkpt><trkpt lat="45.6403075" lon="13.7896256"><ele>52.00000000000001</ele><time>2026-04-26T10:58:40.451Z</time></trkpt><trkpt lat="45.6404215" lon="13.7896611"><ele>53.0</ele><time>2026-04-26T10:58:41.451Z</time></trkpt><trkpt lat="45.6405263" lon="13.7897079"><ele>54.0</ele><time>2026-04-26T10:58:42.452Z</time></trkpt><trkpt lat="45.6406249" lon="13.7897521"><ele>54.0</ele><time>2026-04-26T10:58:43.451Z</time></trkpt><trkpt lat="45.6407237" lon="13.7898108"><ele>54.0</ele><time>2026-04-26T10:58:44.452Z</time></trkpt><trkpt lat="45.6408317" lon="13.7898911"><ele>54.0</ele><time>2026-04-26T10:58:45.452Z</time></trkpt><trkpt lat="45.6409425" lon="13.7899735"><ele>54.0</ele><time>2026-04-26T10:58:46.451Z</time></trkpt><trkpt lat="45.6410476" lon="13.7900576"><ele>55.0</ele><time>2026-04-26T10:58:47.451Z</time></trkpt><trkpt lat="45.6411543" lon="13.7901249"><ele>56.00000000000001</ele><time>2026-04-26T10:58:48.451Z</time></trkpt><trkpt lat="45.6412494" lon="13.7901938"><ele>57.00000000000001</ele><time>2026-04-26T10:58:49.451Z</time></trkpt><trkpt lat="45.6413474" lon="13.7902699"><ele>58.0</ele><time>2026-04-26T10:58:50.452Z</time></trkpt><trkpt lat="45.6414385" lon="13.790324"><ele>59.0</ele><time>2026-04-26T10:58:51.451Z</time></trkpt><trkpt lat="45.6415125" lon="13.7903693"><ele>59.833333333333336</ele><time>2026-04-26T10:58:52.451Z</time></trkpt><trkpt lat="45.6415818" lon="13.7904145"><ele>60.66666666666667</ele><time>2026-04-26T10:58:53.451Z</time></trkpt><trkpt lat="45.6416781" lon="13.7905136"><ele>61.5</ele><time>2026-04-26T10:58:55.452Z</time></trkpt><trkpt lat="45.641737" lon="13.7905513"><ele>62.33333333333333</ele><time>2026-04-26T10:58:56.451Z</time></trkpt><trkpt lat="45.6417998" lon="13.7905947"><ele>63.166666666666664</ele><time>2026-04-26T10:58:57.451Z</time></trkpt><trkpt lat="45.6418654" lon="13.790634"><ele>64.0</ele><time>2026-04-26T10:58:58.451Z</time></trkpt><trkpt lat="45.6419682" lon="13.7906696"><ele>64.57142857142857</ele><time>2026-04-26T10:59:00.451Z</time></trkpt><trkpt lat="45.6420418" lon="13.7906899"><ele>65.14285714285714</ele><time>2026-04-26T10:59:02.451Z</time></trkpt><trkpt lat="45.642104" lon="13.7907095"><ele>65.71428571428571</ele><time>2026-04-26T10:59:04.451Z</time></trkpt><trkpt lat="45.6421633" lon="13.7907556"><ele>66.28571428571428</ele><time>2026-04-26T10:59:07.451Z</time></trkpt><trkpt lat="45.6422136" lon="13.7908139"><ele>66.85714285714286</ele><time>2026-04-26T10:59:11.451Z</time></trkpt><trkpt lat="45.642243" lon="13.7908936"><ele>67.42857142857142</ele><time>2026-04-26T10:59:31.451Z</time></trkpt><trkpt lat="45.6422612" lon="13.7910286"><ele>68.0</ele><time>2026-04-26T10:59:33.451Z</time></trkpt><trkpt lat="45.6422585" lon="13.7911406"><ele>68.4</ele><time>2026-04-26T10:59:34.452Z</time></trkpt><trkpt lat="45.6422427" lon="13.7912566"><ele>68.8</ele><time>2026-04-26T10:59:35.451Z</time></trkpt><trkpt lat="45.6422318" lon="13.7913868"><ele>69.2</ele><time>2026-04-26T10:59:36.451Z</time></trkpt><trkpt lat="45.6422186" lon="13.7915243"><ele>69.6</ele><time>2026-04-26T10:59:37.451Z</time></trkpt><trkpt lat="45.6422029" lon="13.7916689"><ele>70.0</ele><time>2026-04-26T10:59:38.451Z</time></trkpt><trkpt lat="45.6421882" lon="13.7918058"><ele>70.33333333333333</ele><time>2026-04-26T10:59:39.451Z</time></trkpt><trkpt lat="45.6421675" lon="13.7919425"><ele>70.66666666666666</ele><time>2026-04-26T10:59:40.451Z</time></trkpt><trkpt lat="45.6421516" lon="13.7920583"><ele>71.0</ele><time>2026-04-26T10:59:41.451Z</time></trkpt><trkpt lat="45.6421425" lon="13.7921612"><ele>71.33333333333333</ele><time>2026-04-26T10:59:42.451Z</time></trkpt><trkpt lat="45.6421184" lon="13.7922876"><ele>71.66666666666667</ele><time>2026-04-26T10:59:44.452Z</time></trkpt><trkpt lat="45.6421018" lon="13.7924189"><ele>72.0</ele><time>2026-04-26T10:59:55.451Z</time></trkpt><trkpt lat="45.6420789" lon="13.7925347"><ele>73.0</ele><time>2026-04-26T10:59:56.452Z</time></trkpt><trkpt lat="45.6420434" lon="13.7926762"><ele>74.0</ele><time>2026-04-26T10:59:57.451Z</time></trkpt><trkpt lat="45.6420107" lon="13.792834"><ele>75.0</ele><time>2026-04-26T10:59:58.451Z</time></trkpt><trkpt lat="45.6419805" lon="13.7930135"><ele>76.0</ele><time>2026-04-26T10:59:59.451Z</time></trkpt><trkpt lat="45.6419605" lon="13.7931908"><ele>74.75</ele><time>2026-04-26T11:00:00.451Z</time></trkpt><trkpt lat="45.6419426" lon="13.7933749"><ele>73.5</ele><time>2026-04-26T11:00:01.451Z</time></trkpt><trkpt lat="45.6419223" lon="13.7935736"><ele>72.25</ele><time>2026-04-26T11:00:02.451Z</time></trkpt><trkpt lat="45.641906" lon="13.7937831"><ele>71.0</ele><time>2026-04-26T11:00:03.451Z</time></trkpt><trkpt lat="45.6418991" lon="13.7940099"><ele>71.0</ele><time>2026-04-26T11:00:04.452Z</time></trkpt><trkpt lat="45.6419134" lon="13.7942379"><ele>71.0</ele><time>2026-04-26T11:00:05.451Z</time></trkpt><trkpt lat="45.6419396" lon="13.7944628"><ele>71.0</ele><time>2026-04-26T11:00:06.451Z</time></trkpt><trkpt lat="45.6419656" lon="13.7946902"><ele>74.0</ele><time>2026-04-26T11:00:07.451Z</time></trkpt><trkpt lat="45.6419908" lon="13.7949347"><ele>77.0</ele><time>2026-04-26T11:00:08.452Z</time></trkpt><trkpt lat="45.6420208" lon="13.7951812"><ele>80.0</ele><time>2026-04-26T11:00:09.451Z</time></trkpt><trkpt lat="45.6420459" lon="13.7954361"><ele>81.66666666666667</ele><time>2026-04-26T11:00:10.452Z</time></trkpt><trkpt lat="45.6420703" lon="13.795695"><ele>83.33333333333333</ele><time>2026-04-26T11:00:11.451Z</time></trkpt><trkpt lat="45.6420859" lon="13.7959651"><ele>85.0</ele><time>2026-04-26T11:00:12.451Z</time></trkpt><trkpt lat="45.6421101" lon="13.7962232"><ele>85.66666666666666</ele><time>2026-04-26T11:00:13.451Z</time></trkpt><trkpt lat="45.6421434" lon="13.7964742"><ele>86.33333333333333</ele><time>2026-04-26T11:00:14.451Z</time></trkpt><trkpt lat="45.6421633" lon="13.7967294"><ele>87.0</ele><time>2026-04-26T11:00:15.451Z</time></trkpt><trkpt lat="45.6421814" lon="13.7969823"><ele>87.66666666666667</ele><time>2026-04-26T11:00:16.451Z</time></trkpt><trkpt lat="45.6422062" lon="13.7972329"><ele>88.33333333333334</ele><time>2026-04-26T11:00:17.451Z</time></trkpt><trkpt lat="45.6422215" lon="13.797493"><ele>89.0</ele><time>2026-04-26T11:00:18.451Z</time></trkpt><trkpt lat="45.6422332" lon="13.797756"><ele>91.0</ele><time>2026-04-26T11:00:19.451Z</time></trkpt><trkpt lat="45.6422492" lon="13.7980133"><ele>93.0</ele><time>2026-04-26T11:00:20.451Z</time></trkpt><trkpt lat="45.6422659" lon="13.798266"><ele>95.0</ele><time>2026-04-26T11:00:21.451Z</time></trkpt><trkpt lat="45.6422777" lon="13.7985079"><ele>95.66666666666667</ele><time>2026-04-26T11:00:22.451Z</time></trkpt><trkpt lat="45.6422854" lon="13.798741"><ele>96.33333333333334</ele><time>2026-04-26T11:00:23.451Z</time></trkpt><trkpt lat="45.6422821" lon="13.7989712"><ele>97.0</ele><time>2026-04-26T11:00:24.451Z</time></trkpt><trkpt lat="45.6422661" lon="13.7991835"><ele>97.5</ele><time>2026-04-26T11:00:25.451Z</time></trkpt><trkpt lat="45.6422296" lon="13.7993695"><ele>98.0</ele><time>2026-04-26T11:00:26.452Z</time></trkpt><trkpt lat="45.6421828" lon="13.7995372"><ele>98.5</ele><time>2026-04-26T11:00:27.451Z</time></trkpt><trkpt lat="45.6421347" lon="13.7996736"><ele>99.0</ele><time>2026-04-26T11:00:28.451Z</time></trkpt><trkpt lat="45.6420922" lon="13.7997994"><ele>99.0</ele><time>2026-04-26T11:00:29.451Z</time></trkpt><trkpt lat="45.6420544" lon="13.7999327"><ele>99.0</ele><time>2026-04-26T11:00:30.451Z</time></trkpt><trkpt lat="45.6420275" lon="13.8000652"><ele>99.0</ele><time>2026-04-26T11:00:31.451Z</time></trkpt><trkpt lat="45.6419996" lon="13.8002224"><ele>99.0</ele><time>2026-04-26T11:00:32.451Z</time></trkpt><trkpt lat="45.6419823" lon="13.8003965"><ele>99.0</ele><time>2026-04-26T11:00:33.451Z</time></trkpt><trkpt lat="45.6419636" lon="13.8005762"><ele>97.5</ele><time>2026-04-26T11:00:34.451Z</time></trkpt><trkpt lat="45.6419529" lon="13.8007489"><ele>96.0</ele><time>2026-04-26T11:00:35.451Z</time></trkpt><trkpt lat="45.6419483" lon="13.8009213"><ele>94.5</ele><time>2026-04-26T11:00:36.451Z</time></trkpt><trkpt lat="45.6419513" lon="13.8011011"><ele>93.0</ele><time>2026-04-26T11:00:37.451Z</time></trkpt><trkpt lat="45.6419463" lon="13.801283"><ele>93.0</ele><time>2026-04-26T11:00:38.451Z</time></trkpt><trkpt lat="45.6419453" lon="13.8014652"><ele>93.0</ele><time>2026-04-26T11:00:39.451Z</time></trkpt><trkpt lat="45.6419434" lon="13.8016455"><ele>93.0</ele><time>2026-04-26T11:00:40.451Z</time></trkpt><trkpt lat="45.6419396" lon="13.8018199"><ele>93.0</ele><time>2026-04-26T11:00:41.451Z</time></trkpt><trkpt lat="45.6419409" lon="13.8019878"><ele>93.60000000000001</ele><time>2026-04-26T11:00:42.451Z</time></trkpt><trkpt lat="45.641938" lon="13.8021463"><ele>94.2</ele><time>2026-04-26T11:00:43.452Z</time></trkpt><trkpt lat="45.6419384" lon="13.8022978"><ele>94.8</ele><time>2026-04-26T11:00:44.451Z</time></trkpt><trkpt lat="45.6419382" lon="13.8024462"><ele>95.4</ele><time>2026-04-26T11:00:45.451Z</time></trkpt><trkpt lat="45.6419356" lon="13.8025857"><ele>96.0</ele><time>2026-04-26T11:00:46.451Z</time></trkpt><trkpt lat="45.6419298" lon="13.8027226"><ele>97.19999999999999</ele><time>2026-04-26T11:00:47.451Z</time></trkpt><trkpt lat="45.6419236" lon="13.8028575"><ele>98.39999999999999</ele><time>2026-04-26T11:00:48.451Z</time></trkpt><trkpt lat="45.6419206" lon="13.8029923"><ele>99.6</ele><time>2026-04-26T11:00:49.451Z</time></trkpt><trkpt lat="45.641917" lon="13.8031202"><ele>100.8</ele><time>2026-04-26T11:00:50.451Z</time></trkpt><trkpt lat="45.6419144" lon="13.8032646"><ele>102.0</ele><time>2026-04-26T11:00:51.451Z</time></trkpt><trkpt lat="45.6419143" lon="13.8034119"><ele>102.39999999999999</ele><time>2026-04-26T11:00:52.451Z</time></trkpt><trkpt lat="45.6419072" lon="13.8035684"><ele>102.8</ele><time>2026-04-26T11:00:53.452Z</time></trkpt><trkpt lat="45.641897" lon="13.803717"><ele>103.2</ele><time>2026-04-26T11:00:54.451Z</time></trkpt><trkpt lat="45.641884" lon="13.8038621"><ele>103.6</ele><time>2026-04-26T11:00:55.452Z</time></trkpt><trkpt lat="45.6418669" lon="13.804009"><ele>104.0</ele><time>2026-04-26T11:00:56.451Z</time></trkpt><trkpt lat="45.6418563" lon="13.8041473"><ele>104.0</ele><time>2026-04-26T11:00:57.451Z</time></trkpt><trkpt lat="45.6418513" lon="13.8042851"><ele>104.0</ele><time>2026-04-26T11:00:58.451Z</time></trkpt><trkpt lat="45.6418441" lon="13.8044225"><ele>104.0</ele><time>2026-04-26T11:00:59.452Z</time></trkpt><trkpt lat="45.6418428" lon="13.8045541"><ele>104.0</ele><time>2026-04-26T11:01:00.451Z</time></trkpt><trkpt lat="45.6418412" lon="13.8046887"><ele>104.0</ele><time>2026-04-26T11:01:01.451Z</time></trkpt><trkpt lat="45.6418516" lon="13.8048372"><ele>104.5</ele><time>2026-04-26T11:01:02.451Z</time></trkpt><trkpt lat="45.6418684" lon="13.8049789"><ele>105.0</ele><time>2026-04-26T11:01:03.451Z</time></trkpt><trkpt lat="45.6418839" lon="13.8051746"><ele>105.5</ele><time>2026-04-26T11:01:04.451Z</time></trkpt><trkpt lat="45.6418933" lon="13.805416"><ele>106.0</ele><time>2026-04-26T11:01:05.452Z</time></trkpt><trkpt lat="45.6419017" lon="13.805653"><ele>106.66666666666667</ele><time>2026-04-26T11:01:06.451Z</time></trkpt><trkpt lat="45.6419102" lon="13.8058772"><ele>107.33333333333334</ele><time>2026-04-26T11:01:07.452Z</time></trkpt><trkpt lat="45.6419357" lon="13.8061012"><ele>108.0</ele><time>2026-04-26T11:01:08.451Z</time></trkpt><trkpt lat="45.6419618" lon="13.8063012"><ele>112.2</ele><time>2026-04-26T11:01:09.451Z</time></trkpt><trkpt lat="45.6419932" lon="13.8064914"><ele>116.4</ele><time>2026-04-26T11:01:10.451Z</time></trkpt><trkpt lat="45.6420193" lon="13.8066393"><ele>120.60000000000001</ele><time>2026-04-26T11:01:11.451Z</time></trkpt><trkpt lat="45.6420452" lon="13.8067582"><ele>124.80000000000001</ele><time>2026-04-26T11:01:12.451Z</time></trkpt><trkpt lat="45.6420624" lon="13.8068689"><ele>129.0</ele><time>2026-04-26T11:01:13.451Z</time></trkpt><trkpt lat="45.6420837" lon="13.8069932"><ele>129.4</ele><time>2026-04-26T11:01:14.451Z</time></trkpt><trkpt lat="45.6421054" lon="13.8071189"><ele>129.8</ele><time>2026-04-26T11:01:15.451Z</time></trkpt><trkpt lat="45.6421276" lon="13.8072561"><ele>130.2</ele><time>2026-04-26T11:01:16.451Z</time></trkpt><trkpt lat="45.6421592" lon="13.807397"><ele>130.6</ele><time>2026-04-26T11:01:17.451Z</time></trkpt><trkpt lat="45.6421848" lon="13.8075342"><ele>131.0</ele><time>2026-04-26T11:01:18.451Z</time></trkpt><trkpt lat="45.6422107" lon="13.8076794"><ele>131.2</ele><time>2026-04-26T11:01:19.451Z</time></trkpt><trkpt lat="45.6422368" lon="13.8078168"><ele>131.39999999999998</ele><time>2026-04-26T11:01:20.451Z</time></trkpt><trkpt lat="45.6422676" lon="13.8079555"><ele>131.6</ele><time>2026-04-26T11:01:21.451Z</time></trkpt><trkpt lat="45.6423011" lon="13.808093"><ele>131.79999999999998</ele><time>2026-04-26T11:01:22.452Z</time></trkpt><trkpt lat="45.6423387" lon="13.8082319"><ele>132.0</ele><time>2026-04-26T11:01:23.451Z</time></trkpt><trkpt lat="45.6423729" lon="13.8083634"><ele>132.6</ele><time>2026-04-26T11:01:24.452Z</time></trkpt><trkpt lat="45.642401" lon="13.8085009"><ele>133.2</ele><time>2026-04-26T11:01:25.451Z</time></trkpt><trkpt lat="45.6424268" lon="13.8086403"><ele>133.8</ele><time>2026-04-26T11:01:26.451Z</time></trkpt><trkpt lat="45.642437" lon="13.8087845"><ele>134.4</ele><time>2026-04-26T11:01:27.451Z</time></trkpt><trkpt lat="45.6424449" lon="13.8089263"><ele>135.0</ele><time>2026-04-26T11:01:28.451Z</time></trkpt><trkpt lat="45.6424464" lon="13.8090726"><ele>135.0</ele><time>2026-04-26T11:01:29.451Z</time></trkpt><trkpt lat="45.6424374" lon="13.8092425"><ele>135.0</ele><time>2026-04-26T11:01:30.451Z</time></trkpt><trkpt lat="45.6424115" lon="13.8094597"><ele>135.0</ele><time>2026-04-26T11:01:31.452Z</time></trkpt><trkpt lat="45.64238" lon="13.8097297"><ele>136.66666666666666</ele><time>2026-04-26T11:01:32.451Z</time></trkpt><trkpt lat="45.6423289" lon="13.8099869"><ele>138.33333333333331</ele><time>2026-04-26T11:01:33.451Z</time></trkpt><trkpt lat="45.6422744" lon="13.8102258"><ele>140.0</ele><time>2026-04-26T11:01:34.451Z</time></trkpt><trkpt lat="45.6422264" lon="13.8104588"><ele>142.0</ele><time>2026-04-26T11:01:35.451Z</time></trkpt><trkpt lat="45.642157" lon="13.8106585"><ele>144.0</ele><time>2026-04-26T11:01:36.451Z</time></trkpt><trkpt lat="45.642062" lon="13.8108345"><ele>146.0</ele><time>2026-04-26T11:01:37.451Z</time></trkpt><trkpt lat="45.6419457" lon="13.8109761"><ele>143.0</ele><time>2026-04-26T11:01:38.451Z</time></trkpt><trkpt lat="45.6418224" lon="13.8110924"><ele>140.0</ele><time>2026-04-26T11:01:39.451Z</time></trkpt><trkpt lat="45.641731" lon="13.8112244"><ele>137.0</ele><time>2026-04-26T11:01:40.451Z</time></trkpt><trkpt lat="45.6416795" lon="13.8113907"><ele>134.0</ele><time>2026-04-26T11:01:41.451Z</time></trkpt><trkpt lat="45.6416547" lon="13.8115682"><ele>134.0</ele><time>2026-04-26T11:01:42.452Z</time></trkpt><trkpt lat="45.6416483" lon="13.811753"><ele>134.0</ele><time>2026-04-26T11:01:43.452Z</time></trkpt><trkpt lat="45.641649" lon="13.8119458"><ele>134.0</ele><time>2026-04-26T11:01:44.451Z</time></trkpt><trkpt lat="45.6416557" lon="13.812144"><ele>134.0</ele><time>2026-04-26T11:01:45.451Z</time></trkpt><trkpt lat="45.6416604" lon="13.8123365"><ele>135.6</ele><time>2026-04-26T11:01:46.451Z</time></trkpt><trkpt lat="45.6416691" lon="13.8125157"><ele>137.2</ele><time>2026-04-26T11:01:47.451Z</time></trkpt><trkpt lat="45.6416721" lon="13.8126655"><ele>138.79999999999998</ele><time>2026-04-26T11:01:48.451Z</time></trkpt><trkpt lat="45.64168" lon="13.8128106"><ele>140.4</ele><time>2026-04-26T11:01:49.452Z</time></trkpt><trkpt lat="45.6416775" lon="13.8129434"><ele>142.0</ele><time>2026-04-26T11:01:50.451Z</time></trkpt><trkpt lat="45.6416771" lon="13.8130754"><ele>143.5</ele><time>2026-04-26T11:01:51.451Z</time></trkpt><trkpt lat="45.6416656" lon="13.8132056"><ele>145.0</ele><time>2026-04-26T11:01:52.451Z</time></trkpt><trkpt lat="45.6416353" lon="13.8133328"><ele>146.5</ele><time>2026-04-26T11:01:53.451Z</time></trkpt><trkpt lat="45.6415854" lon="13.8134452"><ele>148.0</ele><time>2026-04-26T11:01:54.451Z</time></trkpt><trkpt lat="45.6415285" lon="13.8135349"><ele>149.5</ele><time>2026-04-26T11:01:55.451Z</time></trkpt><trkpt lat="45.6414785" lon="13.8136115"><ele>151.0</ele><time>2026-04-26T11:01:56.452Z</time></trkpt><trkpt lat="45.6414369" lon="13.8136902"><ele>152.4</ele><time>2026-04-26T11:01:57.451Z</time></trkpt><trkpt lat="45.6413967" lon="13.8137685"><ele>153.8</ele><time>2026-04-26T11:01:58.451Z</time></trkpt><trkpt lat="45.6413439" lon="13.8138441"><ele>155.20000000000002</ele><time>2026-04-26T11:01:59.451Z</time></trkpt><trkpt lat="45.6412685" lon="13.8139264"><ele>156.6</ele><time>2026-04-26T11:02:00.451Z</time></trkpt><trkpt lat="45.6411859" lon="13.8140443"><ele>158.0</ele><time>2026-04-26T11:02:01.451Z</time></trkpt><trkpt lat="45.6411228" lon="13.8142223"><ele>155.5</ele><time>2026-04-26T11:02:02.452Z</time></trkpt><trkpt lat="45.6410721" lon="13.814422"><ele>153.0</ele><time>2026-04-26T11:02:03.452Z</time></trkpt><trkpt lat="45.6410349" lon="13.8146298"><ele>150.5</ele><time>2026-04-26T11:02:04.451Z</time></trkpt><trkpt lat="45.6410109" lon="13.8148412"><ele>148.0</ele><time>2026-04-26T11:02:05.451Z</time></trkpt><trkpt lat="45.6410076" lon="13.8150718"><ele>149.66666666666669</ele><time>2026-04-26T11:02:06.451Z</time></trkpt><trkpt lat="45.6410516" lon="13.8152989"><ele>151.33333333333334</ele><time>2026-04-26T11:02:07.451Z</time></trkpt><trkpt lat="45.6411285" lon="13.8154903"><ele>153.0</ele><time>2026-04-26T11:02:08.451Z</time></trkpt><trkpt lat="45.641225" lon="13.8156727"><ele>156.5</ele><time>2026-04-26T11:02:09.452Z</time></trkpt><trkpt lat="45.6413078" lon="13.8158586"><ele>160.0</ele><time>2026-04-26T11:02:10.451Z</time></trkpt><trkpt lat="45.6413593" lon="13.8160475"><ele>163.5</ele><time>2026-04-26T11:02:11.451Z</time></trkpt><trkpt lat="45.6413672" lon="13.81625"><ele>167.0</ele><time>2026-04-26T11:02:12.451Z</time></trkpt><trkpt lat="45.6413437" lon="13.8164518"><ele>167.75</ele><time>2026-04-26T11:02:13.451Z</time></trkpt><trkpt lat="45.6412938" lon="13.8166434"><ele>168.5</ele><time>2026-04-26T11:02:14.451Z</time></trkpt><trkpt lat="45.6412241" lon="13.816818"><ele>169.25</ele><time>2026-04-26T11:02:15.451Z</time></trkpt><trkpt lat="45.6411281" lon="13.8169746"><ele>170.0</ele><time>2026-04-26T11:02:16.452Z</time></trkpt><trkpt lat="45.6410414" lon="13.8171055"><ele>170.0</ele><time>2026-04-26T11:02:17.451Z</time></trkpt><trkpt lat="45.6409226" lon="13.8172686"><ele>170.0</ele><time>2026-04-26T11:02:18.452Z</time></trkpt><trkpt lat="45.6408037" lon="13.817452"><ele>170.0</ele><time>2026-04-26T11:02:19.451Z</time></trkpt><trkpt lat="45.6407022" lon="13.8176548"><ele>174.0</ele><time>2026-04-26T11:02:20.451Z</time></trkpt><trkpt lat="45.6406287" lon="13.8178763"><ele>178.0</ele><time>2026-04-26T11:02:21.451Z</time></trkpt><trkpt lat="45.6405822" lon="13.8181233"><ele>182.0</ele><time>2026-04-26T11:02:22.452Z</time></trkpt><trkpt lat="45.6405602" lon="13.8183878"><ele>185.33333333333331</ele><time>2026-04-26T11:02:23.451Z</time></trkpt><trkpt lat="45.6405468" lon="13.8186518"><ele>188.66666666666666</ele><time>2026-04-26T11:02:24.451Z</time></trkpt><trkpt lat="45.6405413" lon="13.8189366"><ele>192.0</ele><time>2026-04-26T11:02:25.451Z</time></trkpt><trkpt lat="45.6405343" lon="13.8192236"><ele>193.0</ele><time>2026-04-26T11:02:26.451Z</time></trkpt><trkpt lat="45.6405278" lon="13.819506"><ele>194.0</ele><time>2026-04-26T11:02:27.451Z</time></trkpt><trkpt lat="45.6405225" lon="13.8197812"><ele>195.0</ele><time>2026-04-26T11:02:28.451Z</time></trkpt><trkpt lat="45.6405251" lon="13.8200503"><ele>195.0</ele><time>2026-04-26T11:02:29.451Z</time></trkpt><trkpt lat="45.6405445" lon="13.8203197"><ele>195.0</ele><time>2026-04-26T11:02:30.451Z</time></trkpt><trkpt lat="45.6405723" lon="13.8205871"><ele>195.0</ele><time>2026-04-26T11:02:31.451Z</time></trkpt><trkpt lat="45.6406045" lon="13.8208455"><ele>196.0</ele><time>2026-04-26T11:02:32.452Z</time></trkpt><trkpt lat="45.6406336" lon="13.8210867"><ele>197.0</ele><time>2026-04-26T11:02:33.451Z</time></trkpt><trkpt lat="45.6406592" lon="13.8213059"><ele>198.0</ele><time>2026-04-26T11:02:34.451Z</time></trkpt><trkpt lat="45.6406823" lon="13.8215056"><ele>198.0</ele><time>2026-04-26T11:02:35.451Z</time></trkpt><trkpt lat="45.6407021" lon="13.8216824"><ele>198.0</ele><time>2026-04-26T11:02:36.451Z</time></trkpt><trkpt lat="45.6407177" lon="13.821853"><ele>198.0</ele><time>2026-04-26T11:02:37.45Z</time></trkpt><trkpt lat="45.6407301" lon="13.8220406"><ele>198.0</ele><time>2026-04-26T11:02:38.45Z</time></trkpt><trkpt lat="45.6407317" lon="13.8222505"><ele>200.33333333333331</ele><time>2026-04-26T11:02:39.45Z</time></trkpt><trkpt lat="45.6407007" lon="13.8224905"><ele>202.66666666666666</ele><time>2026-04-26T11:02:40.45Z</time></trkpt><trkpt lat="45.6406349" lon="13.8227045"><ele>205.0</ele><time>2026-04-26T11:02:41.45Z</time></trkpt><trkpt lat="45.6405181" lon="13.8228701"><ele>205.66666666666666</ele><time>2026-04-26T11:02:42.45Z</time></trkpt><trkpt lat="45.6403633" lon="13.8229722"><ele>206.33333333333331</ele><time>2026-04-26T11:02:43.45Z</time></trkpt><trkpt lat="45.6401928" lon="13.8230227"><ele>207.0</ele><time>2026-04-26T11:02:44.45Z</time></trkpt><trkpt lat="45.6400154" lon="13.8230204"><ele>210.33333333333331</ele><time>2026-04-26T11:02:45.45Z</time></trkpt><trkpt lat="45.6398338" lon="13.8229891"><ele>213.66666666666666</ele><time>2026-04-26T11:02:46.45Z</time></trkpt><trkpt lat="45.6396462" lon="13.8229813"><ele>217.0</ele><time>2026-04-26T11:02:47.45Z</time></trkpt><trkpt lat="45.6394683" lon="13.8230325"><ele>219.66666666666666</ele><time>2026-04-26T11:02:48.45Z</time></trkpt><trkpt lat="45.6393" lon="13.8231292"><ele>222.33333333333331</ele><time>2026-04-26T11:02:49.45Z</time></trkpt><trkpt lat="45.6391501" lon="13.8232774"><ele>225.0</ele><time>2026-04-26T11:02:50.45Z</time></trkpt><trkpt lat="45.6390164" lon="13.8234625"><ele>229.0</ele><time>2026-04-26T11:02:51.451Z</time></trkpt><trkpt lat="45.6388933" lon="13.8236651"><ele>233.0</ele><time>2026-04-26T11:02:52.45Z</time></trkpt><trkpt lat="45.6387657" lon="13.8238669"><ele>237.0</ele><time>2026-04-26T11:02:53.45Z</time></trkpt><trkpt lat="45.6386506" lon="13.824074"><ele>236.66666666666669</ele><time>2026-04-26T11:02:54.45Z</time></trkpt><trkpt lat="45.638539" lon="13.824289"><ele>236.33333333333334</ele><time>2026-04-26T11:02:55.45Z</time></trkpt><trkpt lat="45.6384323" lon="13.8244896"><ele>236.0</ele><time>2026-04-26T11:02:56.45Z</time></trkpt><trkpt lat="45.6383324" lon="13.824671"><ele>236.0</ele><time>2026-04-26T11:02:57.451Z</time></trkpt><trkpt lat="45.638237" lon="13.8248383"><ele>236.0</ele><time>2026-04-26T11:02:58.45Z</time></trkpt><trkpt lat="45.6381481" lon="13.8250062"><ele>236.0</ele><time>2026-04-26T11:02:59.451Z</time></trkpt><trkpt lat="45.6380696" lon="13.8251941"><ele>237.66666666666669</ele><time>2026-04-26T11:03:00.45Z</time></trkpt><trkpt lat="45.6380007" lon="13.8253962"><ele>239.33333333333331</ele><time>2026-04-26T11:03:01.45Z</time></trkpt><trkpt lat="45.6379388" lon="13.8256002"><ele>241.0</ele><time>2026-04-26T11:03:02.45Z</time></trkpt><trkpt lat="45.637884" lon="13.8257899"><ele>241.0</ele><time>2026-04-26T11:03:03.45Z</time></trkpt><trkpt lat="45.6378383" lon="13.8259629"><ele>241.0</ele><time>2026-04-26T11:03:04.45Z</time></trkpt><trkpt lat="45.6377943" lon="13.8261266"><ele>241.0</ele><time>2026-04-26T11:03:05.45Z</time></trkpt><trkpt lat="45.6377488" lon="13.8262899"><ele>241.0</ele><time>2026-04-26T11:03:06.45Z</time></trkpt><trkpt lat="45.6377017" lon="13.8264539"><ele>239.25</ele><time>2026-04-26T11:03:07.451Z</time></trkpt><trkpt lat="45.6376549" lon="13.826621"><ele>237.5</ele><time>2026-04-26T11:03:08.45Z</time></trkpt><trkpt lat="45.6376115" lon="13.8267985"><ele>235.75</ele><time>2026-04-26T11:03:09.45Z</time></trkpt><trkpt lat="45.6375701" lon="13.826986"><ele>234.0</ele><time>2026-04-26T11:03:10.45Z</time></trkpt><trkpt lat="45.637526" lon="13.8271777"><ele>234.0</ele><time>2026-04-26T11:03:11.45Z</time></trkpt><trkpt lat="45.6374805" lon="13.8273717"><ele>234.0</ele><time>2026-04-26T11:03:12.45Z</time></trkpt><trkpt lat="45.6374315" lon="13.8275637"><ele>234.0</ele><time>2026-04-26T11:03:13.45Z</time></trkpt><trkpt lat="45.6373834" lon="13.8277689"><ele>234.0</ele><time>2026-04-26T11:03:14.45Z</time></trkpt><trkpt lat="45.6373315" lon="13.827977"><ele>236.75</ele><time>2026-04-26T11:03:15.45Z</time></trkpt><trkpt lat="45.6372776" lon="13.8281638"><ele>239.5</ele><time>2026-04-26T11:03:16.45Z</time></trkpt><trkpt lat="45.6372238" lon="13.8283711"><ele>242.25</ele><time>2026-04-26T11:03:17.45Z</time></trkpt><trkpt lat="45.6371735" lon="13.8285746"><ele>245.0</ele><time>2026-04-26T11:03:18.45Z</time></trkpt><trkpt lat="45.6371241" lon="13.8287766"><ele>246.25</ele><time>2026-04-26T11:03:19.45Z</time></trkpt><trkpt lat="45.637073" lon="13.828969"><ele>247.5</ele><time>2026-04-26T11:03:20.45Z</time></trkpt><trkpt lat="45.6370243" lon="13.8291575"><ele>248.75</ele><time>2026-04-26T11:03:21.451Z</time></trkpt><trkpt lat="45.6369807" lon="13.8293371"><ele>250.0</ele><time>2026-04-26T11:03:22.45Z</time></trkpt><trkpt lat="45.6369402" lon="13.8295097"><ele>249.99999999999997</ele><time>2026-04-26T11:03:23.45Z</time></trkpt><trkpt lat="45.6369026" lon="13.829661"><ele>250.0</ele><time>2026-04-26T11:03:24.45Z</time></trkpt><trkpt lat="45.6368688" lon="13.8297966"><ele>250.0</ele><time>2026-04-26T11:03:25.45Z</time></trkpt><trkpt lat="45.6368373" lon="13.8299148"><ele>250.0</ele><time>2026-04-26T11:03:26.45Z</time></trkpt><trkpt lat="45.6368153" lon="13.8300203"><ele>249.99999999999997</ele><time>2026-04-26T11:03:27.45Z</time></trkpt><trkpt lat="45.6368047" lon="13.830118"><ele>250.0</ele><time>2026-04-26T11:03:28.45Z</time></trkpt><trkpt lat="45.6368" lon="13.830208"><ele>250.83333333333331</ele><time>2026-04-26T11:03:29.45Z</time></trkpt><trkpt lat="45.6367655" lon="13.8303638"><ele>251.66666666666666</ele><time>2026-04-26T11:03:31.45Z</time></trkpt><trkpt lat="45.6367274" lon="13.830452"><ele>252.5</ele><time>2026-04-26T11:03:32.45Z</time></trkpt><trkpt lat="45.636709" lon="13.8305556"><ele>253.33333333333331</ele><time>2026-04-26T11:03:33.45Z</time></trkpt><trkpt lat="45.636712" lon="13.8306751"><ele>254.16666666666666</ele><time>2026-04-26T11:03:34.45Z</time></trkpt><trkpt lat="45.636704" lon="13.8308079"><ele>255.0</ele><time>2026-04-26T11:03:35.45Z</time></trkpt><trkpt lat="45.6366756" lon="13.8309321"><ele>254.5</ele><time>2026-04-26T11:03:36.45Z</time></trkpt><trkpt lat="45.6366193" lon="13.831052"><ele>254.0</ele><time>2026-04-26T11:03:37.45Z</time></trkpt><trkpt lat="45.6365273" lon="13.8311611"><ele>253.5</ele><time>2026-04-26T11:03:38.45Z</time></trkpt><trkpt lat="45.6364435" lon="13.8312824"><ele>253.0</ele><time>2026-04-26T11:03:39.45Z</time></trkpt><trkpt lat="45.6363695" lon="13.8314041"><ele>253.0</ele><time>2026-04-26T11:03:40.45Z</time></trkpt><trkpt lat="45.6363053" lon="13.8315408"><ele>253.0</ele><time>2026-04-26T11:03:41.45Z</time></trkpt><trkpt lat="45.6362508" lon="13.8316825"><ele>253.0</ele><time>2026-04-26T11:03:42.45Z</time></trkpt><trkpt lat="45.6362007" lon="13.8318304"><ele>253.0</ele><time>2026-04-26T11:03:43.45Z</time></trkpt><trkpt lat="45.6361451" lon="13.8319801"><ele>255.25</ele><time>2026-04-26T11:03:44.45Z</time></trkpt><trkpt lat="45.6360896" lon="13.8321283"><ele>257.5</ele><time>2026-04-26T11:03:45.45Z</time></trkpt><trkpt lat="45.6360329" lon="13.83228"><ele>259.75</ele><time>2026-04-26T11:03:46.45Z</time></trkpt><trkpt lat="45.6359728" lon="13.8324328"><ele>262.0</ele><time>2026-04-26T11:03:47.45Z</time></trkpt><trkpt lat="45.6359116" lon="13.8325831"><ele>259.25</ele><time>2026-04-26T11:03:48.45Z</time></trkpt><trkpt lat="45.6358454" lon="13.8327287"><ele>256.5</ele><time>2026-04-26T11:03:49.45Z</time></trkpt><trkpt lat="45.6357745" lon="13.832877"><ele>253.75</ele><time>2026-04-26T11:03:50.451Z</time></trkpt><trkpt lat="45.6356993" lon="13.8330207"><ele>251.0</ele><time>2026-04-26T11:03:51.45Z</time></trkpt><trkpt lat="45.6356229" lon="13.8331528"><ele>251.0</ele><time>2026-04-26T11:03:52.45Z</time></trkpt><trkpt lat="45.6355467" lon="13.8332929"><ele>251.0</ele><time>2026-04-26T11:03:53.45Z</time></trkpt><trkpt lat="45.6354659" lon="13.8334338"><ele>251.0</ele><time>2026-04-26T11:03:54.45Z</time></trkpt><trkpt lat="45.6353833" lon="13.8335733"><ele>251.0</ele><time>2026-04-26T11:03:55.45Z</time></trkpt><trkpt lat="45.6353047" lon="13.8337136"><ele>252.75</ele><time>2026-04-26T11:03:56.451Z</time></trkpt><trkpt lat="45.6352262" lon="13.8338495"><ele>254.5</ele><time>2026-04-26T11:03:57.45Z</time></trkpt><trkpt lat="45.6351482" lon="13.8339763"><ele>256.25</ele><time>2026-04-26T11:03:58.45Z</time></trkpt><trkpt lat="45.6350659" lon="13.8340923"><ele>258.0</ele><time>2026-04-26T11:03:59.45Z</time></trkpt><trkpt lat="45.6349627" lon="13.8342151"><ele>254.33333333333331</ele><time>2026-04-26T11:04:00.45Z</time></trkpt><trkpt lat="45.6348292" lon="13.8343371"><ele>250.66666666666666</ele><time>2026-04-26T11:04:01.45Z</time></trkpt><trkpt lat="45.6346752" lon="13.8344464"><ele>247.0</ele><time>2026-04-26T11:04:02.45Z</time></trkpt><trkpt lat="45.6345215" lon="13.8345489"><ele>249.66666666666666</ele><time>2026-04-26T11:04:03.45Z</time></trkpt><trkpt lat="45.6343653" lon="13.8346368"><ele>252.33333333333331</ele><time>2026-04-26T11:04:04.45Z</time></trkpt><trkpt lat="45.6342115" lon="13.8347489"><ele>255.0</ele><time>2026-04-26T11:04:05.45Z</time></trkpt><trkpt lat="45.6340708" lon="13.8348826"><ele>255.0</ele><time>2026-04-26T11:04:06.45Z</time></trkpt><trkpt lat="45.63395" lon="13.8350238"><ele>255.0</ele><time>2026-04-26T11:04:07.45Z</time></trkpt><trkpt lat="45.6338449" lon="13.835155"><ele>255.0</ele><time>2026-04-26T11:04:08.45Z</time></trkpt><trkpt lat="45.6337509" lon="13.8352687"><ele>255.0</ele><time>2026-04-26T11:04:09.45Z</time></trkpt><trkpt lat="45.6336633" lon="13.8353787"><ele>255.0</ele><time>2026-04-26T11:04:10.45Z</time></trkpt><trkpt lat="45.6335785" lon="13.8354864"><ele>255.0</ele><time>2026-04-26T11:04:11.45Z</time></trkpt><trkpt lat="45.6334984" lon="13.8355877"><ele>255.0</ele><time>2026-04-26T11:04:12.45Z</time></trkpt><trkpt lat="45.6334253" lon="13.8356866"><ele>255.0</ele><time>2026-04-26T11:04:13.45Z</time></trkpt><trkpt lat="45.6333553" lon="13.8357772"><ele>255.0</ele><time>2026-04-26T11:04:14.45Z</time></trkpt><trkpt lat="45.6332908" lon="13.8358647"><ele>255.0</ele><time>2026-04-26T11:04:15.45Z</time></trkpt><trkpt lat="45.6332353" lon="13.8359488"><ele>255.0</ele><time>2026-04-26T11:04:16.45Z</time></trkpt><trkpt lat="45.6331889" lon="13.8360207"><ele>255.0</ele><time>2026-04-26T11:04:22.45Z</time></trkpt><trkpt lat="45.6331476" lon="13.8361076"><ele>255.0</ele><time>2026-04-26T11:04:23.45Z</time></trkpt><trkpt lat="45.6331121" lon="13.8362169"><ele>255.0</ele><time>2026-04-26T11:04:24.451Z</time></trkpt><trkpt lat="45.6330842" lon="13.8363372"><ele>255.0</ele><time>2026-04-26T11:04:25.45Z</time></trkpt><trkpt lat="45.6330851" lon="13.8364713"><ele>258.0</ele><time>2026-04-26T11:04:26.45Z</time></trkpt><trkpt lat="45.6331101" lon="13.8366244"><ele>261.0</ele><time>2026-04-26T11:04:27.45Z</time></trkpt><trkpt lat="45.6331388" lon="13.8367873"><ele>264.0</ele><time>2026-04-26T11:04:28.451Z</time></trkpt><trkpt lat="45.6331713" lon="13.8369807"><ele>267.0</ele><time>2026-04-26T11:04:29.45Z</time></trkpt><trkpt lat="45.6332036" lon="13.8371302"><ele>269.3333333333333</ele><time>2026-04-26T11:04:30.45Z</time></trkpt><trkpt lat="45.6332482" lon="13.8373332"><ele>271.66666666666663</ele><time>2026-04-26T11:04:31.45Z</time></trkpt><trkpt lat="45.6333129" lon="13.8375511"><ele>274.0</ele><time>2026-04-26T11:04:32.45Z</time></trkpt><trkpt lat="45.6333257" lon="13.8378145"><ele>274.66666666666663</ele><time>2026-04-26T11:04:33.45Z</time></trkpt><trkpt lat="45.6333755" lon="13.8381009"><ele>275.3333333333333</ele><time>2026-04-26T11:04:34.45Z</time></trkpt><trkpt lat="45.6333864" lon="13.8383724"><ele>276.0</ele><time>2026-04-26T11:04:35.45Z</time></trkpt><trkpt lat="45.6333668" lon="13.8386037"><ele>276.0</ele><time>2026-04-26T11:04:36.451Z</time></trkpt><trkpt lat="45.6333289" lon="13.8388472"><ele>276.0</ele><time>2026-04-26T11:04:37.45Z</time></trkpt><trkpt lat="45.6332974" lon="13.8390787"><ele>276.0</ele><time>2026-04-26T11:04:38.45Z</time></trkpt><trkpt lat="45.6332541" lon="13.839312"><ele>276.0</ele><time>2026-04-26T11:04:39.45Z</time></trkpt><trkpt lat="45.6332084" lon="13.8395459"><ele>276.0</ele><time>2026-04-26T11:04:40.45Z</time></trkpt><trkpt lat="45.6331683" lon="13.8397769"><ele>276.0</ele><time>2026-04-26T11:04:41.45Z</time></trkpt><trkpt lat="45.6331355" lon="13.8399842"><ele>278.8</ele><time>2026-04-26T11:04:42.45Z</time></trkpt><trkpt lat="45.6331104" lon="13.8401522"><ele>281.6</ele><time>2026-04-26T11:04:43.45Z</time></trkpt><trkpt lat="45.633104" lon="13.8402807"><ele>284.4</ele><time>2026-04-26T11:04:44.45Z</time></trkpt><trkpt lat="45.6331026" lon="13.840374"><ele>287.2</ele><time>2026-04-26T11:04:45.45Z</time></trkpt><trkpt lat="45.6331121" lon="13.8404682"><ele>290.0</ele><time>2026-04-26T11:04:51.45Z</time></trkpt><trkpt lat="45.6332195" lon="13.8405049"><ele>290.0</ele><time>2026-04-26T11:04:53.45Z</time></trkpt><trkpt lat="45.6333048" lon="13.8404861"><ele>290.0</ele><time>2026-04-26T11:04:54.45Z</time></trkpt><trkpt lat="45.6333998" lon="13.8404466"><ele>290.0</ele><time>2026-04-26T11:04:55.451Z</time></trkpt><trkpt lat="45.6335026" lon="13.8403924"><ele>290.0</ele><time>2026-04-26T11:04:56.451Z</time></trkpt><trkpt lat="45.6336137" lon="13.8403202"><ele>290.0</ele><time>2026-04-26T11:04:57.451Z</time></trkpt><trkpt lat="45.6337141" lon="13.8402098"><ele>293.6666666666667</ele><time>2026-04-26T11:04:58.451Z</time></trkpt><trkpt lat="45.6338248" lon="13.8400451"><ele>297.3333333333333</ele><time>2026-04-26T11:04:59.451Z</time></trkpt><trkpt lat="45.6339366" lon="13.839866"><ele>301.0</ele><time>2026-04-26T11:05:00.45Z</time></trkpt><trkpt lat="45.6340434" lon="13.8396687"><ele>301.0</ele><time>2026-04-26T11:05:01.451Z</time></trkpt><trkpt lat="45.6341436" lon="13.8394421"><ele>301.0</ele><time>2026-04-26T11:05:02.451Z</time></trkpt><trkpt lat="45.6342523" lon="13.8392029"><ele>301.0</ele><time>2026-04-26T11:05:03.45Z</time></trkpt><trkpt lat="45.6343815" lon="13.8389852"><ele>298.0</ele><time>2026-04-26T11:05:04.45Z</time></trkpt><trkpt lat="45.6345264" lon="13.8387873"><ele>295.0</ele><time>2026-04-26T11:05:05.451Z</time></trkpt><trkpt lat="45.6346935" lon="13.8386148"><ele>292.0</ele><time>2026-04-26T11:05:06.45Z</time></trkpt><trkpt lat="45.6348739" lon="13.8384538"><ele>292.0</ele><time>2026-04-26T11:05:07.45Z</time></trkpt><trkpt lat="45.6350636" lon="13.8382934"><ele>292.0</ele><time>2026-04-26T11:05:08.45Z</time></trkpt><trkpt lat="45.6352644" lon="13.8381395"><ele>292.0</ele><time>2026-04-26T11:05:09.45Z</time></trkpt><trkpt lat="45.6354682" lon="13.8379986"><ele>291.66666666666663</ele><time>2026-04-26T11:05:10.45Z</time></trkpt><trkpt lat="45.6356661" lon="13.8378719"><ele>291.3333333333333</ele><time>2026-04-26T11:05:11.45Z</time></trkpt><trkpt lat="45.6358632" lon="13.8377425"><ele>291.0</ele><time>2026-04-26T11:05:12.45Z</time></trkpt><trkpt lat="45.636062" lon="13.8376156"><ele>298.6666666666667</ele><time>2026-04-26T11:05:13.45Z</time></trkpt><trkpt lat="45.6362587" lon="13.8374798"><ele>306.33333333333337</ele><time>2026-04-26T11:05:14.45Z</time></trkpt><trkpt lat="45.636454" lon="13.8373411"><ele>314.0</ele><time>2026-04-26T11:05:15.45Z</time></trkpt><trkpt lat="45.6366465" lon="13.8371981"><ele>314.0</ele><time>2026-04-26T11:05:16.45Z</time></trkpt><trkpt lat="45.636834" lon="13.8370539"><ele>314.0</ele><time>2026-04-26T11:05:17.45Z</time></trkpt><trkpt lat="45.6370137" lon="13.8369194"><ele>314.0</ele><time>2026-04-26T11:05:18.45Z</time></trkpt><trkpt lat="45.6371906" lon="13.836815"><ele>312.33333333333337</ele><time>2026-04-26T11:05:19.45Z</time></trkpt><trkpt lat="45.637349" lon="13.8367222"><ele>310.6666666666667</ele><time>2026-04-26T11:05:20.451Z</time></trkpt><trkpt lat="45.6374944" lon="13.8366279"><ele>309.0</ele><time>2026-04-26T11:05:21.45Z</time></trkpt><trkpt lat="45.637605" lon="13.8365086"><ele>309.0</ele><time>2026-04-26T11:05:22.45Z</time></trkpt><trkpt lat="45.637698" lon="13.836395"><ele>309.0</ele><time>2026-04-26T11:05:23.45Z</time></trkpt><trkpt lat="45.6377646" lon="13.8363142"><ele>309.0</ele><time>2026-04-26T11:05:24.451Z</time></trkpt><trkpt lat="45.6378332" lon="13.8362505"><ele>309.0</ele><time>2026-04-26T11:05:26.45Z</time></trkpt><trkpt lat="45.6378297" lon="13.8363956"><ele>309.0</ele><time>2026-04-26T11:05:32.45Z</time></trkpt><trkpt lat="45.637754" lon="13.836546"><ele>309.0</ele><time>2026-04-26T11:05:34.45Z</time></trkpt><trkpt lat="45.6376934" lon="13.8366396"><ele>309.0</ele><time>2026-04-26T11:05:35.45Z</time></trkpt><trkpt lat="45.6376373" lon="13.8367245"><ele>309.0</ele><time>2026-04-26T11:05:36.45Z</time></trkpt><trkpt lat="45.6375874" lon="13.8368028"><ele>309.0</ele><time>2026-04-26T11:05:37.451Z</time></trkpt><trkpt lat="45.6375276" lon="13.8368976"><ele>309.0</ele><time>2026-04-26T11:05:38.45Z</time></trkpt><trkpt lat="45.6374486" lon="13.8370157"><ele>309.0</ele><time>2026-04-26T11:05:39.451Z</time></trkpt><trkpt lat="45.6373546" lon="13.8371485"><ele>314.3333333333333</ele><time>2026-04-26T11:05:40.45Z</time></trkpt><trkpt lat="45.6372587" lon="13.8372799"><ele>319.66666666666663</ele><time>2026-04-26T11:05:41.45Z</time></trkpt><trkpt lat="45.6371513" lon="13.8374327"><ele>325.0</ele><time>2026-04-26T11:05:42.45Z</time></trkpt><trkpt lat="45.6370298" lon="13.837616"><ele>326.66666666666663</ele><time>2026-04-26T11:05:43.45Z</time></trkpt><trkpt lat="45.6368919" lon="13.8378399"><ele>328.3333333333333</ele><time>2026-04-26T11:05:44.45Z</time></trkpt><trkpt lat="45.6367344" lon="13.8380813"><ele>330.0</ele><time>2026-04-26T11:05:45.45Z</time></trkpt><trkpt lat="45.6365591" lon="13.8383252"><ele>334.0</ele><time>2026-04-26T11:05:46.45Z</time></trkpt><trkpt lat="45.6363819" lon="13.8385635"><ele>338.0</ele><time>2026-04-26T11:05:47.45Z</time></trkpt><trkpt lat="45.6362228" lon="13.8388157"><ele>336.5</ele><time>2026-04-26T11:05:48.45Z</time></trkpt><trkpt lat="45.6360938" lon="13.8390995"><ele>335.0</ele><time>2026-04-26T11:05:49.45Z</time></trkpt><trkpt lat="45.6360033" lon="13.8394216"><ele>335.0</ele><time>2026-04-26T11:05:50.45Z</time></trkpt><trkpt lat="45.6359456" lon="13.8397441"><ele>335.0</ele><time>2026-04-26T11:05:51.45Z</time></trkpt><trkpt lat="45.6359206" lon="13.8400711"><ele>336.5</ele><time>2026-04-26T11:05:52.45Z</time></trkpt><trkpt lat="45.6359403" lon="13.8404157"><ele>338.0</ele><time>2026-04-26T11:05:53.45Z</time></trkpt><trkpt lat="45.6359739" lon="13.8407616"><ele>340.0</ele><time>2026-04-26T11:05:54.45Z</time></trkpt><trkpt lat="45.6360063" lon="13.841097"><ele>342.0</ele><time>2026-04-26T11:05:55.45Z</time></trkpt><trkpt lat="45.636025" lon="13.8414188"><ele>342.0</ele><time>2026-04-26T11:05:56.45Z</time></trkpt><trkpt lat="45.6360033" lon="13.8417304"><ele>342.0</ele><time>2026-04-26T11:05:57.451Z</time></trkpt><trkpt lat="45.6359324" lon="13.8420271"><ele>342.0</ele><time>2026-04-26T11:05:58.45Z</time></trkpt><trkpt lat="45.6358716" lon="13.8423162"><ele>344.0</ele><time>2026-04-26T11:05:59.45Z</time></trkpt><trkpt lat="45.6357841" lon="13.8425868"><ele>346.0</ele><time>2026-04-26T11:06:00.45Z</time></trkpt><trkpt lat="45.6356827" lon="13.8428148"><ele>348.0</ele><time>2026-04-26T11:06:01.45Z</time></trkpt><trkpt lat="45.6355334" lon="13.8429686"><ele>349.6666666666667</ele><time>2026-04-26T11:06:02.45Z</time></trkpt><trkpt lat="45.6353729" lon="13.8431129"><ele>351.33333333333337</ele><time>2026-04-26T11:06:03.451Z</time></trkpt><trkpt lat="45.6352318" lon="13.8432486"><ele>353.0</ele><time>2026-04-26T11:06:04.45Z</time></trkpt><trkpt lat="45.6351187" lon="13.8433995"><ele>354.5</ele><time>2026-04-26T11:06:05.451Z</time></trkpt><trkpt lat="45.6350817" lon="13.8435691"><ele>356.0</ele><time>2026-04-26T11:06:06.451Z</time></trkpt><trkpt lat="45.6351213" lon="13.8437604"><ele>357.5</ele><time>2026-04-26T11:06:07.45Z</time></trkpt><trkpt lat="45.6352055" lon="13.8438968"><ele>359.0</ele><time>2026-04-26T11:06:08.45Z</time></trkpt><trkpt lat="45.6353314" lon="13.8439705"><ele>360.33333333333337</ele><time>2026-04-26T11:06:09.45Z</time></trkpt><trkpt lat="45.6354979" lon="13.8439757"><ele>361.6666666666667</ele><time>2026-04-26T11:06:10.45Z</time></trkpt><trkpt lat="45.6356854" lon="13.8439351"><ele>363.0</ele><time>2026-04-26T11:06:11.45Z</time></trkpt><trkpt lat="45.6358826" lon="13.8438899"><ele>363.0</ele><time>2026-04-26T11:06:12.45Z</time></trkpt><trkpt lat="45.6360777" lon="13.8438492"><ele>363.0</ele><time>2026-04-26T11:06:13.45Z</time></trkpt><trkpt lat="45.6362705" lon="13.8438127"><ele>363.0</ele><time>2026-04-26T11:06:14.45Z</time></trkpt><trkpt lat="45.6364593" lon="13.8437999"><ele>364.0</ele><time>2026-04-26T11:06:15.45Z</time></trkpt><trkpt lat="45.6366504" lon="13.8437937"><ele>365.0</ele><time>2026-04-26T11:06:16.45Z</time></trkpt><trkpt lat="45.6368262" lon="13.8438264"><ele>366.0</ele><time>2026-04-26T11:06:17.45Z</time></trkpt><trkpt lat="45.6369996" lon="13.8439434"><ele>366.6666666666667</ele><time>2026-04-26T11:06:18.45Z</time></trkpt><trkpt lat="45.637144" lon="13.8441123"><ele>367.33333333333337</ele><time>2026-04-26T11:06:19.45Z</time></trkpt><trkpt lat="45.6372588" lon="13.8443139"><ele>368.0</ele><time>2026-04-26T11:06:20.45Z</time></trkpt><trkpt lat="45.6373401" lon="13.8445231"><ele>368.6666666666667</ele><time>2026-04-26T11:06:21.45Z</time></trkpt><trkpt lat="45.6374092" lon="13.8447484"><ele>369.3333333333333</ele><time>2026-04-26T11:06:22.451Z</time></trkpt><trkpt lat="45.6374773" lon="13.8449765"><ele>370.0</ele><time>2026-04-26T11:06:23.45Z</time></trkpt><trkpt lat="45.6375439" lon="13.8452522"><ele>370.0</ele><time>2026-04-26T11:06:24.45Z</time></trkpt><trkpt lat="45.6376139" lon="13.8455608"><ele>370.0</ele><time>2026-04-26T11:06:25.45Z</time></trkpt><trkpt lat="45.6376973" lon="13.8458914"><ele>369.5</ele><time>2026-04-26T11:06:26.45Z</time></trkpt><trkpt lat="45.6377812" lon="13.8462456"><ele>369.0</ele><time>2026-04-26T11:06:27.45Z</time></trkpt><trkpt lat="45.6378736" lon="13.8466025"><ele>371.0</ele><time>2026-04-26T11:06:28.45Z</time></trkpt><trkpt lat="45.637955" lon="13.8469558"><ele>373.0</ele><time>2026-04-26T11:06:29.451Z</time></trkpt><trkpt lat="45.6380285" lon="13.8473174"><ele>372.5</ele><time>2026-04-26T11:06:30.45Z</time></trkpt><trkpt lat="45.6381014" lon="13.8476899"><ele>372.0</ele><time>2026-04-26T11:06:31.45Z</time></trkpt><trkpt lat="45.6381701" lon="13.8480518"><ele>372.0</ele><time>2026-04-26T11:06:32.45Z</time></trkpt><trkpt lat="45.6382431" lon="13.8484014"><ele>372.0</ele><time>2026-04-26T11:06:33.45Z</time></trkpt><trkpt lat="45.6383198" lon="13.8487486"><ele>371.0</ele><time>2026-04-26T11:06:34.451Z</time></trkpt><trkpt lat="45.6383966" lon="13.8490868"><ele>370.0</ele><time>2026-04-26T11:06:35.45Z</time></trkpt><trkpt lat="45.6384759" lon="13.8494205"><ele>369.5</ele><time>2026-04-26T11:06:36.45Z</time></trkpt><trkpt lat="45.6385501" lon="13.8497577"><ele>369.0</ele><time>2026-04-26T11:06:37.45Z</time></trkpt><trkpt lat="45.6386266" lon="13.8500874"><ele>369.0</ele><time>2026-04-26T11:06:38.45Z</time></trkpt><trkpt lat="45.6386988" lon="13.8504206"><ele>369.0</ele><time>2026-04-26T11:06:39.45Z</time></trkpt><trkpt lat="45.6387764" lon="13.8507476"><ele>368.0</ele><time>2026-04-26T11:06:40.45Z</time></trkpt><trkpt lat="45.6388519" lon="13.8510749"><ele>367.0</ele><time>2026-04-26T11:06:41.45Z</time></trkpt><trkpt lat="45.6389252" lon="13.8514022"><ele>367.0</ele><time>2026-04-26T11:06:42.451Z</time></trkpt><trkpt lat="45.6389952" lon="13.8517274"><ele>367.0</ele><time>2026-04-26T11:06:43.45Z</time></trkpt><trkpt lat="45.6390674" lon="13.8520499"><ele>365.5</ele><time>2026-04-26T11:06:44.45Z</time></trkpt><trkpt lat="45.6391396" lon="13.8523771"><ele>364.0</ele><time>2026-04-26T11:06:45.45Z</time></trkpt><trkpt lat="45.6392068" lon="13.8527007"><ele>363.5</ele><time>2026-04-26T11:06:46.45Z</time></trkpt><trkpt lat="45.639276" lon="13.8530222"><ele>363.0</ele><time>2026-04-26T11:06:47.45Z</time></trkpt><trkpt lat="45.6393468" lon="13.8533428"><ele>362.5</ele><time>2026-04-26T11:06:48.45Z</time></trkpt><trkpt lat="45.6394166" lon="13.853659"><ele>362.0</ele><time>2026-04-26T11:06:49.45Z</time></trkpt><trkpt lat="45.6394896" lon="13.8539692"><ele>362.0</ele><time>2026-04-26T11:06:50.45Z</time></trkpt><trkpt lat="45.6395546" lon="13.8542764"><ele>362.0</ele><time>2026-04-26T11:06:51.45Z</time></trkpt><trkpt lat="45.63962" lon="13.8545808"><ele>362.0</ele><time>2026-04-26T11:06:52.45Z</time></trkpt><trkpt lat="45.6396815" lon="13.8548761"><ele>362.6666666666667</ele><time>2026-04-26T11:06:53.451Z</time></trkpt><trkpt lat="45.6397434" lon="13.8551679"><ele>363.3333333333333</ele><time>2026-04-26T11:06:54.45Z</time></trkpt><trkpt lat="45.6398081" lon="13.8554612"><ele>364.0</ele><time>2026-04-26T11:06:55.451Z</time></trkpt><trkpt lat="45.6398765" lon="13.8557463"><ele>364.66666666666663</ele><time>2026-04-26T11:06:56.45Z</time></trkpt><trkpt lat="45.6399435" lon="13.8560309"><ele>365.3333333333333</ele><time>2026-04-26T11:06:57.45Z</time></trkpt><trkpt lat="45.6400072" lon="13.856321"><ele>366.0</ele><time>2026-04-26T11:06:58.45Z</time></trkpt><trkpt lat="45.640071" lon="13.8566053"><ele>367.3333333333333</ele><time>2026-04-26T11:06:59.451Z</time></trkpt><trkpt lat="45.6401375" lon="13.856881"><ele>368.66666666666663</ele><time>2026-04-26T11:07:00.45Z</time></trkpt><trkpt lat="45.6402033" lon="13.857154"><ele>370.0</ele><time>2026-04-26T11:07:01.45Z</time></trkpt><trkpt lat="45.6402626" lon="13.857395"><ele>370.3333333333333</ele><time>2026-04-26T11:07:02.45Z</time></trkpt><trkpt lat="45.6403148" lon="13.8576202"><ele>370.6666666666667</ele><time>2026-04-26T11:07:03.45Z</time></trkpt><trkpt lat="45.6403637" lon="13.857832"><ele>371.0</ele><time>2026-04-26T11:07:04.451Z</time></trkpt><trkpt lat="45.6404084" lon="13.8580275"><ele>371.0</ele><time>2026-04-26T11:07:05.45Z</time></trkpt><trkpt lat="45.6404522" lon="13.8582125"><ele>371.0</ele><time>2026-04-26T11:07:06.45Z</time></trkpt><trkpt lat="45.6404773" lon="13.8583662"><ele>371.0</ele><time>2026-04-26T11:07:07.45Z</time></trkpt><trkpt lat="45.6404872" lon="13.8584726"><ele>371.0</ele><time>2026-04-26T11:07:08.45Z</time></trkpt><trkpt lat="45.6404731" lon="13.8585747"><ele>371.0</ele><time>2026-04-26T11:07:10.45Z</time></trkpt><trkpt lat="45.6405165" lon="13.8587081"><ele>371.4</ele><time>2026-04-26T11:07:14.45Z</time></trkpt><trkpt lat="45.6405478" lon="13.8588058"><ele>371.8</ele><time>2026-04-26T11:07:15.45Z</time></trkpt><trkpt lat="45.6405888" lon="13.8589103"><ele>372.2</ele><time>2026-04-26T11:07:16.45Z</time></trkpt><trkpt lat="45.640625" lon="13.8590265"><ele>372.59999999999997</ele><time>2026-04-26T11:07:17.45Z</time></trkpt><trkpt lat="45.6406558" lon="13.8591584"><ele>373.0</ele><time>2026-04-26T11:07:18.45Z</time></trkpt><trkpt lat="45.6406962" lon="13.859305"><ele>374.0</ele><time>2026-04-26T11:07:19.45Z</time></trkpt><trkpt lat="45.6407354" lon="13.8594694"><ele>375.0</ele><time>2026-04-26T11:07:20.45Z</time></trkpt><trkpt lat="45.6407753" lon="13.8596445"><ele>376.0</ele><time>2026-04-26T11:07:21.45Z</time></trkpt><trkpt lat="45.6408185" lon="13.8598402"><ele>377.0</ele><time>2026-04-26T11:07:22.45Z</time></trkpt><trkpt lat="45.6408559" lon="13.8600272"><ele>377.5</ele><time>2026-04-26T11:07:23.451Z</time></trkpt><trkpt lat="45.6408993" lon="13.8602146"><ele>378.0</ele><time>2026-04-26T11:07:24.45Z</time></trkpt><trkpt lat="45.6409413" lon="13.8604173"><ele>378.5</ele><time>2026-04-26T11:07:25.45Z</time></trkpt><trkpt lat="45.6409859" lon="13.8606095"><ele>379.0</ele><time>2026-04-26T11:07:26.45Z</time></trkpt><trkpt lat="45.6410341" lon="13.8608047"><ele>379.0</ele><time>2026-04-26T11:07:27.45Z</time></trkpt><trkpt lat="45.6410764" lon="13.8610006"><ele>379.0</ele><time>2026-04-26T11:07:28.451Z</time></trkpt><trkpt lat="45.6411203" lon="13.8611975"><ele>379.0</ele><time>2026-04-26T11:07:29.45Z</time></trkpt><trkpt lat="45.6411684" lon="13.8613845"><ele>379.0</ele><time>2026-04-26T11:07:30.451Z</time></trkpt><trkpt lat="45.6412062" lon="13.8615739"><ele>378.75</ele><time>2026-04-26T11:07:31.45Z</time></trkpt><trkpt lat="45.6412365" lon="13.8617643"><ele>378.5</ele><time>2026-04-26T11:07:32.45Z</time></trkpt><trkpt lat="45.6412631" lon="13.8619547"><ele>378.25</ele><time>2026-04-26T11:07:33.45Z</time></trkpt><trkpt lat="45.6412978" lon="13.862141"><ele>378.0</ele><time>2026-04-26T11:07:34.451Z</time></trkpt><trkpt lat="45.6413383" lon="13.8623109"><ele>378.0</ele><time>2026-04-26T11:07:35.45Z</time></trkpt><trkpt lat="45.6413792" lon="13.8624617"><ele>378.0</ele><time>2026-04-26T11:07:36.45Z</time></trkpt><trkpt lat="45.6414254" lon="13.8626056"><ele>378.0</ele><time>2026-04-26T11:07:37.451Z</time></trkpt><trkpt lat="45.641474" lon="13.862754"><ele>378.0</ele><time>2026-04-26T11:07:38.45Z</time></trkpt><trkpt lat="45.6415242" lon="13.8629116"><ele>378.5</ele><time>2026-04-26T11:07:39.45Z</time></trkpt><trkpt lat="45.6415708" lon="13.8630716"><ele>379.0</ele><time>2026-04-26T11:07:40.45Z</time></trkpt><trkpt lat="45.6416123" lon="13.8632337"><ele>379.5</ele><time>2026-04-26T11:07:41.45Z</time></trkpt><trkpt lat="45.6416484" lon="13.8633931"><ele>380.0</ele><time>2026-04-26T11:07:42.45Z</time></trkpt><trkpt lat="45.6416765" lon="13.8635368"><ele>380.2</ele><time>2026-04-26T11:07:43.451Z</time></trkpt><trkpt lat="45.6417092" lon="13.86367"><ele>380.4</ele><time>2026-04-26T11:07:44.45Z</time></trkpt><trkpt lat="45.6417435" lon="13.8637946"><ele>380.6</ele><time>2026-04-26T11:07:45.45Z</time></trkpt><trkpt lat="45.6417719" lon="13.863918"><ele>380.8</ele><time>2026-04-26T11:07:46.45Z</time></trkpt><trkpt lat="45.6417987" lon="13.8640411"><ele>381.0</ele><time>2026-04-26T11:07:47.45Z</time></trkpt><trkpt lat="45.6418258" lon="13.8641655"><ele>381.0</ele><time>2026-04-26T11:07:48.45Z</time></trkpt><trkpt lat="45.6418557" lon="13.8642898"><ele>381.0</ele><time>2026-04-26T11:07:49.45Z</time></trkpt><trkpt lat="45.6418862" lon="13.8644067"><ele>381.0</ele><time>2026-04-26T11:07:50.45Z</time></trkpt><trkpt lat="45.6419159" lon="13.8645069"><ele>381.0</ele><time>2026-04-26T11:07:51.45Z</time></trkpt><trkpt lat="45.6419527" lon="13.8645977"><ele>381.0</ele><time>2026-04-26T11:07:52.45Z</time></trkpt><trkpt lat="45.6419895" lon="13.8646971"><ele>381.0</ele><time>2026-04-26T11:07:53.45Z</time></trkpt><trkpt lat="45.6420336" lon="13.8648"><ele>381.0</ele><time>2026-04-26T11:07:54.45Z</time></trkpt><trkpt lat="45.6420831" lon="13.8649029"><ele>381.0</ele><time>2026-04-26T11:07:55.45Z</time></trkpt><trkpt lat="45.6421309" lon="13.8650072"><ele>381.0</ele><time>2026-04-26T11:07:56.45Z</time></trkpt><trkpt lat="45.6421719" lon="13.8650947"><ele>381.0</ele><time>2026-04-26T11:07:57.45Z</time></trkpt><trkpt lat="45.6422091" lon="13.8651718"><ele>381.0</ele><time>2026-04-26T11:07:58.45Z</time></trkpt><trkpt lat="45.6422726" lon="13.8652959"><ele>381.0</ele><time>2026-04-26T11:08:00.45Z</time></trkpt><trkpt lat="45.642318" lon="13.8653725"><ele>381.20000000000005</ele><time>2026-04-26T11:08:02.45Z</time></trkpt><trkpt lat="45.6423906" lon="13.8654953"><ele>381.40000000000003</ele><time>2026-04-26T11:08:04.45Z</time></trkpt><trkpt lat="45.6424294" lon="13.8655835"><ele>381.6</ele><time>2026-04-26T11:08:05.45Z</time></trkpt><trkpt lat="45.6424843" lon="13.8656907"><ele>381.8</ele><time>2026-04-26T11:08:06.451Z</time></trkpt><trkpt lat="45.6425453" lon="13.8658014"><ele>382.0</ele><time>2026-04-26T11:08:07.45Z</time></trkpt><trkpt lat="45.6426034" lon="13.8659377"><ele>382.25</ele><time>2026-04-26T11:08:08.45Z</time></trkpt><trkpt lat="45.6426684" lon="13.8660668"><ele>382.5</ele><time>2026-04-26T11:08:09.45Z</time></trkpt><trkpt lat="45.6427424" lon="13.8662096"><ele>382.75</ele><time>2026-04-26T11:08:10.45Z</time></trkpt><trkpt lat="45.642829" lon="13.8663744"><ele>383.0</ele><time>2026-04-26T11:08:11.451Z</time></trkpt><trkpt lat="45.6429343" lon="13.86659"><ele>383.33333333333337</ele><time>2026-04-26T11:08:12.45Z</time></trkpt><trkpt lat="45.6430391" lon="13.8667953"><ele>383.6666666666667</ele><time>2026-04-26T11:08:13.45Z</time></trkpt><trkpt lat="45.64315" lon="13.867016"><ele>384.0</ele><time>2026-04-26T11:08:14.45Z</time></trkpt><trkpt lat="45.6432719" lon="13.8672435"><ele>384.0</ele><time>2026-04-26T11:08:15.45Z</time></trkpt><trkpt lat="45.6433939" lon="13.8674903"><ele>384.0</ele><time>2026-04-26T11:08:16.451Z</time></trkpt><trkpt lat="45.6435232" lon="13.8677479"><ele>384.0</ele><time>2026-04-26T11:08:17.45Z</time></trkpt><trkpt lat="45.6436616" lon="13.8680102"><ele>384.0</ele><time>2026-04-26T11:08:18.45Z</time></trkpt><trkpt lat="45.6437919" lon="13.8682657"><ele>384.0</ele><time>2026-04-26T11:08:19.45Z</time></trkpt><trkpt lat="45.6439283" lon="13.8685267"><ele>384.0</ele><time>2026-04-26T11:08:20.45Z</time></trkpt><trkpt lat="45.6440637" lon="13.868792"><ele>384.66666666666663</ele><time>2026-04-26T11:08:21.45Z</time></trkpt><trkpt lat="45.6442001" lon="13.8690531"><ele>385.3333333333333</ele><time>2026-04-26T11:08:22.45Z</time></trkpt><trkpt lat="45.6443336" lon="13.869304"><ele>386.0</ele><time>2026-04-26T11:08:23.45Z</time></trkpt><trkpt lat="45.6444736" lon="13.8695606"><ele>386.0</ele><time>2026-04-26T11:08:24.451Z</time></trkpt><trkpt lat="45.6446062" lon="13.8698016"><ele>386.0</ele><time>2026-04-26T11:08:25.45Z</time></trkpt><trkpt lat="45.6447336" lon="13.8700523"><ele>386.0</ele><time>2026-04-26T11:08:26.45Z</time></trkpt><trkpt lat="45.6448603" lon="13.8703012"><ele>386.3333333333333</ele><time>2026-04-26T11:08:27.45Z</time></trkpt><trkpt lat="45.6449867" lon="13.8705368"><ele>386.66666666666663</ele><time>2026-04-26T11:08:28.45Z</time></trkpt><trkpt lat="45.6451135" lon="13.8707764"><ele>387.0</ele><time>2026-04-26T11:08:29.45Z</time></trkpt><trkpt lat="45.6452355" lon="13.8710202"><ele>386.66666666666663</ele><time>2026-04-26T11:08:30.45Z</time></trkpt><trkpt lat="45.6453607" lon="13.871261"><ele>386.3333333333333</ele><time>2026-04-26T11:08:31.451Z</time></trkpt><trkpt lat="45.6454798" lon="13.8714956"><ele>386.0</ele><time>2026-04-26T11:08:32.45Z</time></trkpt><trkpt lat="45.6456026" lon="13.8717298"><ele>387.0</ele><time>2026-04-26T11:08:33.45Z</time></trkpt><trkpt lat="45.6457213" lon="13.8719559"><ele>388.0</ele><time>2026-04-26T11:08:34.45Z</time></trkpt><trkpt lat="45.6458339" lon="13.8721708"><ele>389.0</ele><time>2026-04-26T11:08:35.45Z</time></trkpt><trkpt lat="45.6459476" lon="13.8723613"><ele>389.0</ele><time>2026-04-26T11:08:36.45Z</time></trkpt><trkpt lat="45.6460663" lon="13.8725317"><ele>389.0</ele><time>2026-04-26T11:08:37.45Z</time></trkpt><trkpt lat="45.6461945" lon="13.8726907"><ele>389.0</ele><time>2026-04-26T11:08:38.45Z</time></trkpt><trkpt lat="45.6463449" lon="13.8728376"><ele>388.66666666666663</ele><time>2026-04-26T11:08:39.451Z</time></trkpt><trkpt lat="45.6465021" lon="13.872992"><ele>388.33333333333337</ele><time>2026-04-26T11:08:40.45Z</time></trkpt><trkpt lat="45.6466644" lon="13.8731712"><ele>388.0</ele><time>2026-04-26T11:08:41.451Z</time></trkpt><trkpt lat="45.6468301" lon="13.8733688"><ele>388.6666666666667</ele><time>2026-04-26T11:08:42.45Z</time></trkpt><trkpt lat="45.6469949" lon="13.8735722"><ele>389.33333333333337</ele><time>2026-04-26T11:08:43.45Z</time></trkpt><trkpt lat="45.6471614" lon="13.8737727"><ele>390.0</ele><time>2026-04-26T11:08:44.45Z</time></trkpt><trkpt lat="45.6473328" lon="13.8739679"><ele>390.0</ele><time>2026-04-26T11:08:45.45Z</time></trkpt><trkpt lat="45.6475012" lon="13.8741575"><ele>390.0</ele><time>2026-04-26T11:08:46.45Z</time></trkpt><trkpt lat="45.6476676" lon="13.874342"><ele>390.0</ele><time>2026-04-26T11:08:47.45Z</time></trkpt><trkpt lat="45.6478255" lon="13.8745316"><ele>390.33333333333337</ele><time>2026-04-26T11:08:48.45Z</time></trkpt><trkpt lat="45.6479846" lon="13.8747159"><ele>390.6666666666667</ele><time>2026-04-26T11:08:49.45Z</time></trkpt><trkpt lat="45.6481428" lon="13.8748949"><ele>391.0</ele><time>2026-04-26T11:08:50.45Z</time></trkpt><trkpt lat="45.6483051" lon="13.8750692"><ele>391.33333333333337</ele><time>2026-04-26T11:08:51.45Z</time></trkpt><trkpt lat="45.6484646" lon="13.87524"><ele>391.66666666666663</ele><time>2026-04-26T11:08:52.45Z</time></trkpt><trkpt lat="45.6486293" lon="13.8754163"><ele>392.0</ele><time>2026-04-26T11:08:53.45Z</time></trkpt><trkpt lat="45.6487888" lon="13.8756026"><ele>392.66666666666663</ele><time>2026-04-26T11:08:54.45Z</time></trkpt><trkpt lat="45.6489489" lon="13.8757932"><ele>393.33333333333337</ele><time>2026-04-26T11:08:55.45Z</time></trkpt><trkpt lat="45.6491076" lon="13.8759749"><ele>394.0</ele><time>2026-04-26T11:08:56.45Z</time></trkpt><trkpt lat="45.649265" lon="13.8761493"><ele>395.0</ele><time>2026-04-26T11:08:57.451Z</time></trkpt><trkpt lat="45.6494264" lon="13.876318"><ele>396.0</ele><time>2026-04-26T11:08:58.45Z</time></trkpt><trkpt lat="45.6495872" lon="13.8764959"><ele>397.0</ele><time>2026-04-26T11:08:59.45Z</time></trkpt><trkpt lat="45.6497469" lon="13.8766702"><ele>397.33333333333337</ele><time>2026-04-26T11:09:00.45Z</time></trkpt><trkpt lat="45.6499012" lon="13.8768509"><ele>397.66666666666663</ele><time>2026-04-26T11:09:01.45Z</time></trkpt><trkpt lat="45.6500579" lon="13.8770325"><ele>398.0</ele><time>2026-04-26T11:09:02.45Z</time></trkpt><trkpt lat="45.6502086" lon="13.8772113"><ele>398.3333333333333</ele><time>2026-04-26T11:09:03.45Z</time></trkpt><trkpt lat="45.6503586" lon="13.8773806"><ele>398.66666666666663</ele><time>2026-04-26T11:09:04.45Z</time></trkpt><trkpt lat="45.6505029" lon="13.8775442"><ele>399.0</ele><time>2026-04-26T11:09:05.451Z</time></trkpt><trkpt lat="45.6506366" lon="13.8776987"><ele>399.75</ele><time>2026-04-26T11:09:06.45Z</time></trkpt><trkpt lat="45.6507534" lon="13.8778328"><ele>400.5</ele><time>2026-04-26T11:09:07.451Z</time></trkpt><trkpt lat="45.6508643" lon="13.8779587"><ele>401.25</ele><time>2026-04-26T11:09:08.45Z</time></trkpt><trkpt lat="45.65097" lon="13.8780781"><ele>402.0</ele><time>2026-04-26T11:09:09.45Z</time></trkpt><trkpt lat="45.6510625" lon="13.8781757"><ele>401.8</ele><time>2026-04-26T11:09:10.45Z</time></trkpt><trkpt lat="45.651146" lon="13.8782709"><ele>401.6</ele><time>2026-04-26T11:09:11.45Z</time></trkpt><trkpt lat="45.6511997" lon="13.8783741"><ele>401.40000000000003</ele><time>2026-04-26T11:09:12.451Z</time></trkpt><trkpt lat="45.6512113" lon="13.8785083"><ele>401.20000000000005</ele><time>2026-04-26T11:09:13.45Z</time></trkpt><trkpt lat="45.651236" lon="13.8786362"><ele>401.0</ele><time>2026-04-26T11:09:14.45Z</time></trkpt><trkpt lat="45.6512975" lon="13.8787679"><ele>401.75</ele><time>2026-04-26T11:09:15.45Z</time></trkpt><trkpt lat="45.6513727" lon="13.8788911"><ele>402.5</ele><time>2026-04-26T11:09:16.45Z</time></trkpt><trkpt lat="45.6514585" lon="13.8790087"><ele>403.25</ele><time>2026-04-26T11:09:17.45Z</time></trkpt><trkpt lat="45.6515454" lon="13.8791202"><ele>404.0</ele><time>2026-04-26T11:09:18.45Z</time></trkpt><trkpt lat="45.6516364" lon="13.8792079"><ele>404.0</ele><time>2026-04-26T11:09:19.45Z</time></trkpt><trkpt lat="45.6517243" lon="13.879257"><ele>404.0</ele><time>2026-04-26T11:09:20.451Z</time></trkpt><trkpt lat="45.6517922" lon="13.8792521"><ele>404.0</ele><time>2026-04-26T11:09:21.45Z</time></trkpt><trkpt lat="45.651857" lon="13.8792071"><ele>404.0</ele><time>2026-04-26T11:09:22.45Z</time></trkpt><trkpt lat="45.6519664" lon="13.8791712"><ele>404.0</ele><time>2026-04-26T11:09:24.45Z</time></trkpt><trkpt lat="45.6520788" lon="13.8792597"><ele>404.6</ele><time>2026-04-26T11:09:26.45Z</time></trkpt><trkpt lat="45.6521476" lon="13.8793147"><ele>405.2</ele><time>2026-04-26T11:09:27.45Z</time></trkpt><trkpt lat="45.6522241" lon="13.8793709"><ele>405.8</ele><time>2026-04-26T11:09:28.45Z</time></trkpt><trkpt lat="45.6523103" lon="13.879437"><ele>406.40000000000003</ele><time>2026-04-26T11:09:29.45Z</time></trkpt><trkpt lat="45.6524032" lon="13.8795021"><ele>407.0</ele><time>2026-04-26T11:09:30.45Z</time></trkpt><trkpt lat="45.6525021" lon="13.8795837"><ele>407.0</ele><time>2026-04-26T11:09:31.45Z</time></trkpt><trkpt lat="45.652609" lon="13.8796626"><ele>407.0</ele><time>2026-04-26T11:09:32.45Z</time></trkpt><trkpt lat="45.6527167" lon="13.8797377"><ele>407.0</ele><time>2026-04-26T11:09:33.45Z</time></trkpt><trkpt lat="45.6528358" lon="13.8798214"><ele>407.0</ele><time>2026-04-26T11:09:34.451Z</time></trkpt><trkpt lat="45.6529741" lon="13.8799171"><ele>407.0</ele><time>2026-04-26T11:09:35.45Z</time></trkpt><trkpt lat="45.6531316" lon="13.8800133"><ele>407.0</ele><time>2026-04-26T11:09:36.45Z</time></trkpt><trkpt lat="45.6533032" lon="13.8801227"><ele>407.0</ele><time>2026-04-26T11:09:37.45Z</time></trkpt><trkpt lat="45.6534817" lon="13.8802369"><ele>408.66666666666663</ele><time>2026-04-26T11:09:38.45Z</time></trkpt><trkpt lat="45.6536545" lon="13.8803603"><ele>410.33333333333337</ele><time>2026-04-26T11:09:39.45Z</time></trkpt><trkpt lat="45.6538307" lon="13.8804995"><ele>412.0</ele><time>2026-04-26T11:09:40.45Z</time></trkpt><trkpt lat="45.6540143" lon="13.8806471"><ele>412.0</ele><time>2026-04-26T11:09:41.45Z</time></trkpt><trkpt lat="45.6542" lon="13.8808089"><ele>412.0</ele><time>2026-04-26T11:09:42.45Z</time></trkpt><trkpt lat="45.654388" lon="13.8809591"><ele>412.0</ele><time>2026-04-26T11:09:43.45Z</time></trkpt><trkpt lat="45.6545747" lon="13.8811046"><ele>412.33333333333337</ele><time>2026-04-26T11:09:44.45Z</time></trkpt><trkpt lat="45.6547598" lon="13.8812547"><ele>412.66666666666663</ele><time>2026-04-26T11:09:45.45Z</time></trkpt><trkpt lat="45.654948" lon="13.8814241"><ele>413.0</ele><time>2026-04-26T11:09:46.45Z</time></trkpt><trkpt lat="45.6551169" lon="13.8816352"><ele>413.0</ele><time>2026-04-26T11:09:47.45Z</time></trkpt><trkpt lat="45.655268" lon="13.881877"><ele>413.0</ele><time>2026-04-26T11:09:48.45Z</time></trkpt><trkpt lat="45.6553925" lon="13.8821481"><ele>412.5</ele><time>2026-04-26T11:09:49.45Z</time></trkpt><trkpt lat="45.6554906" lon="13.8824539"><ele>412.0</ele><time>2026-04-26T11:09:50.45Z</time></trkpt><trkpt lat="45.6555875" lon="13.8827572"><ele>412.0</ele><time>2026-04-26T11:09:51.45Z</time></trkpt><trkpt lat="45.6556762" lon="13.8830681"><ele>412.0</ele><time>2026-04-26T11:09:52.45Z</time></trkpt><trkpt lat="45.6557629" lon="13.8833925"><ele>413.0</ele><time>2026-04-26T11:09:53.45Z</time></trkpt><trkpt lat="45.6558409" lon="13.8837255"><ele>414.0</ele><time>2026-04-26T11:09:54.45Z</time></trkpt><trkpt lat="45.655919" lon="13.884051"><ele>414.5</ele><time>2026-04-26T11:09:55.451Z</time></trkpt><trkpt lat="45.6560077" lon="13.8843837"><ele>415.0</ele><time>2026-04-26T11:09:56.451Z</time></trkpt><trkpt lat="45.6560971" lon="13.8847208"><ele>415.5</ele><time>2026-04-26T11:09:57.45Z</time></trkpt><trkpt lat="45.6561885" lon="13.8850554"><ele>416.0</ele><time>2026-04-26T11:09:58.45Z</time></trkpt><trkpt lat="45.6562741" lon="13.8854112"><ele>416.5</ele><time>2026-04-26T11:09:59.45Z</time></trkpt><trkpt lat="45.6563606" lon="13.8857699"><ele>417.0</ele><time>2026-04-26T11:10:00.45Z</time></trkpt><trkpt lat="45.6564447" lon="13.8861337"><ele>417.0</ele><time>2026-04-26T11:10:01.45Z</time></trkpt><trkpt lat="45.6565358" lon="13.8864965"><ele>417.0</ele><time>2026-04-26T11:10:02.45Z</time></trkpt><trkpt lat="45.6566382" lon="13.8868621"><ele>415.5</ele><time>2026-04-26T11:10:03.45Z</time></trkpt><trkpt lat="45.6567333" lon="13.8872302"><ele>414.0</ele><time>2026-04-26T11:10:04.451Z</time></trkpt><trkpt lat="45.6568352" lon="13.8875973"><ele>414.0</ele><time>2026-04-26T11:10:05.451Z</time></trkpt><trkpt lat="45.6569291" lon="13.8879697"><ele>414.0</ele><time>2026-04-26T11:10:06.45Z</time></trkpt><trkpt lat="45.6570255" lon="13.8883484"><ele>413.0</ele><time>2026-04-26T11:10:07.45Z</time></trkpt><trkpt lat="45.6571223" lon="13.8887287"><ele>412.0</ele><time>2026-04-26T11:10:08.45Z</time></trkpt><trkpt lat="45.6572202" lon="13.8891057"><ele>412.0</ele><time>2026-04-26T11:10:09.451Z</time></trkpt><trkpt lat="45.6573211" lon="13.8894857"><ele>412.0</ele><time>2026-04-26T11:10:10.45Z</time></trkpt><trkpt lat="45.6574179" lon="13.8898527"><ele>412.5</ele><time>2026-04-26T11:10:11.45Z</time></trkpt><trkpt lat="45.6575051" lon="13.8901872"><ele>413.0</ele><time>2026-04-26T11:10:12.45Z</time></trkpt><trkpt lat="45.6575655" lon="13.8905226"><ele>413.0</ele><time>2026-04-26T11:10:13.45Z</time></trkpt><trkpt lat="45.6575828" lon="13.8908734"><ele>413.0</ele><time>2026-04-26T11:10:14.45Z</time></trkpt><trkpt lat="45.6575852" lon="13.8912123"><ele>413.5</ele><time>2026-04-26T11:10:15.45Z</time></trkpt><trkpt lat="45.6575854" lon="13.8915561"><ele>414.0</ele><time>2026-04-26T11:10:16.45Z</time></trkpt><trkpt lat="45.6575864" lon="13.8918747"><ele>414.0</ele><time>2026-04-26T11:10:17.45Z</time></trkpt><trkpt lat="45.6575826" lon="13.89217"><ele>414.0</ele><time>2026-04-26T11:10:18.45Z</time></trkpt><trkpt lat="45.6575834" lon="13.8924407"><ele>414.0</ele><time>2026-04-26T11:10:19.45Z</time></trkpt><trkpt lat="45.6575832" lon="13.8927088"><ele>414.33333333333337</ele><time>2026-04-26T11:10:20.45Z</time></trkpt><trkpt lat="45.657582" lon="13.8929685"><ele>414.6666666666667</ele><time>2026-04-26T11:10:21.45Z</time></trkpt><trkpt lat="45.6575733" lon="13.8932443"><ele>415.0</ele><time>2026-04-26T11:10:22.45Z</time></trkpt><trkpt lat="45.6575625" lon="13.893518"><ele>416.0</ele><time>2026-04-26T11:10:23.45Z</time></trkpt><trkpt lat="45.6575375" lon="13.8938007"><ele>417.0</ele><time>2026-04-26T11:10:24.45Z</time></trkpt><trkpt lat="45.6575106" lon="13.8940905"><ele>418.0</ele><time>2026-04-26T11:10:25.45Z</time></trkpt><trkpt lat="45.6574902" lon="13.8943844"><ele>418.6666666666667</ele><time>2026-04-26T11:10:26.45Z</time></trkpt><trkpt lat="45.6574806" lon="13.8946879"><ele>419.33333333333337</ele><time>2026-04-26T11:10:27.45Z</time></trkpt><trkpt lat="45.6575044" lon="13.8949846"><ele>420.0</ele><time>2026-04-26T11:10:28.451Z</time></trkpt><trkpt lat="45.6575419" lon="13.8952935"><ele>420.33333333333337</ele><time>2026-04-26T11:10:29.45Z</time></trkpt><trkpt lat="45.6575883" lon="13.8955935"><ele>420.6666666666667</ele><time>2026-04-26T11:10:30.449Z</time></trkpt><trkpt lat="45.6576233" lon="13.8958809"><ele>421.0</ele><time>2026-04-26T11:10:31.449Z</time></trkpt><trkpt lat="45.6576655" lon="13.8961656"><ele>421.0</ele><time>2026-04-26T11:10:32.449Z</time></trkpt><trkpt lat="45.657729" lon="13.8964488"><ele>421.0</ele><time>2026-04-26T11:10:33.449Z</time></trkpt><trkpt lat="45.6578082" lon="13.896749"><ele>421.0</ele><time>2026-04-26T11:10:34.449Z</time></trkpt><trkpt lat="45.6578792" lon="13.8970705"><ele>421.0</ele><time>2026-04-26T11:10:35.449Z</time></trkpt><trkpt lat="45.6579591" lon="13.8974079"><ele>421.0</ele><time>2026-04-26T11:10:36.449Z</time></trkpt><trkpt lat="45.6580295" lon="13.8977423"><ele>422.5</ele><time>2026-04-26T11:10:37.449Z</time></trkpt><trkpt lat="45.6581043" lon="13.8980844"><ele>424.0</ele><time>2026-04-26T11:10:38.449Z</time></trkpt><trkpt lat="45.6581752" lon="13.8984385"><ele>425.0</ele><time>2026-04-26T11:10:39.449Z</time></trkpt><trkpt lat="45.658246" lon="13.8987873"><ele>426.0</ele><time>2026-04-26T11:10:40.449Z</time></trkpt><trkpt lat="45.6583193" lon="13.8991437"><ele>426.0</ele><time>2026-04-26T11:10:41.449Z</time></trkpt><trkpt lat="45.6583874" lon="13.8995011"><ele>426.0</ele><time>2026-04-26T11:10:42.449Z</time></trkpt><trkpt lat="45.6584478" lon="13.8998652"><ele>427.0</ele><time>2026-04-26T11:10:43.449Z</time></trkpt><trkpt lat="45.6585087" lon="13.9002269"><ele>428.0</ele><time>2026-04-26T11:10:44.449Z</time></trkpt><trkpt lat="45.6585769" lon="13.9005759"><ele>429.5</ele><time>2026-04-26T11:10:45.449Z</time></trkpt><trkpt lat="45.6586473" lon="13.9009263"><ele>431.0</ele><time>2026-04-26T11:10:46.449Z</time></trkpt><trkpt lat="45.658725" lon="13.9012776"><ele>431.0</ele><time>2026-04-26T11:10:47.449Z</time></trkpt><trkpt lat="45.6588087" lon="13.9016203"><ele>431.0</ele><time>2026-04-26T11:10:48.45Z</time></trkpt><trkpt lat="45.6589043" lon="13.9019549"><ele>431.5</ele><time>2026-04-26T11:10:49.45Z</time></trkpt><trkpt lat="45.6590022" lon="13.9022849"><ele>432.0</ele><time>2026-04-26T11:10:50.449Z</time></trkpt><trkpt lat="45.6590992" lon="13.9026123"><ele>432.0</ele><time>2026-04-26T11:10:51.449Z</time></trkpt><trkpt lat="45.6591971" lon="13.9029341"><ele>432.0</ele><time>2026-04-26T11:10:52.45Z</time></trkpt><trkpt lat="45.6592896" lon="13.9032485"><ele>432.5</ele><time>2026-04-26T11:10:53.449Z</time></trkpt><trkpt lat="45.6593859" lon="13.9035596"><ele>433.0</ele><time>2026-04-26T11:10:54.449Z</time></trkpt><trkpt lat="45.6594916" lon="13.9038452"><ele>432.33333333333337</ele><time>2026-04-26T11:10:55.449Z</time></trkpt><trkpt lat="45.6596094" lon="13.9041005"><ele>431.66666666666663</ele><time>2026-04-26T11:10:56.449Z</time></trkpt><trkpt lat="45.6597691" lon="13.904312"><ele>431.0</ele><time>2026-04-26T11:10:57.45Z</time></trkpt><trkpt lat="45.6599524" lon="13.9045185"><ele>430.0</ele><time>2026-04-26T11:10:58.449Z</time></trkpt><trkpt lat="45.660154" lon="13.9047178"><ele>429.0</ele><time>2026-04-26T11:10:59.449Z</time></trkpt><trkpt lat="45.6603532" lon="13.9049272"><ele>429.0</ele><time>2026-04-26T11:11:00.449Z</time></trkpt><trkpt lat="45.6605616" lon="13.9051262"><ele>429.0</ele><time>2026-04-26T11:11:01.45Z</time></trkpt><trkpt lat="45.6607503" lon="13.9053005"><ele>429.0</ele><time>2026-04-26T11:11:02.449Z</time></trkpt><trkpt lat="45.6609032" lon="13.9054934"><ele>429.0</ele><time>2026-04-26T11:11:03.45Z</time></trkpt><trkpt lat="45.6610227" lon="13.9057313"><ele>429.0</ele><time>2026-04-26T11:11:04.449Z</time></trkpt><trkpt lat="45.6611144" lon="13.9060022"><ele>428.33333333333337</ele><time>2026-04-26T11:11:05.449Z</time></trkpt><trkpt lat="45.6611577" lon="13.906293"><ele>427.6666666666667</ele><time>2026-04-26T11:11:06.449Z</time></trkpt><trkpt lat="45.661177" lon="13.9065931"><ele>427.0</ele><time>2026-04-26T11:11:07.449Z</time></trkpt><trkpt lat="45.6611511" lon="13.9069074"><ele>429.5</ele><time>2026-04-26T11:11:08.449Z</time></trkpt><trkpt lat="45.6611104" lon="13.9072407"><ele>432.0</ele><time>2026-04-26T11:11:09.449Z</time></trkpt><trkpt lat="45.6610733" lon="13.9075762"><ele>433.0</ele><time>2026-04-26T11:11:10.449Z</time></trkpt><trkpt lat="45.6610444" lon="13.9079064"><ele>434.0</ele><time>2026-04-26T11:11:11.449Z</time></trkpt><trkpt lat="45.6610178" lon="13.9082471"><ele>435.5</ele><time>2026-04-26T11:11:12.449Z</time></trkpt><trkpt lat="45.6609832" lon="13.908593"><ele>437.0</ele><time>2026-04-26T11:11:13.449Z</time></trkpt><trkpt lat="45.6609384" lon="13.9089446"><ele>437.5</ele><time>2026-04-26T11:11:14.449Z</time></trkpt><trkpt lat="45.6608895" lon="13.909304"><ele>438.0</ele><time>2026-04-26T11:11:15.45Z</time></trkpt><trkpt lat="45.660837" lon="13.9096611"><ele>438.0</ele><time>2026-04-26T11:11:16.449Z</time></trkpt><trkpt lat="45.6607812" lon="13.9100324"><ele>438.0</ele><time>2026-04-26T11:11:17.449Z</time></trkpt><trkpt lat="45.6607298" lon="13.9104033"><ele>438.0</ele><time>2026-04-26T11:11:18.449Z</time></trkpt><trkpt lat="45.6606791" lon="13.9107731"><ele>438.0</ele><time>2026-04-26T11:11:19.449Z</time></trkpt><trkpt lat="45.6606245" lon="13.9111495"><ele>437.5</ele><time>2026-04-26T11:11:20.449Z</time></trkpt><trkpt lat="45.6605747" lon="13.9115239"><ele>437.0</ele><time>2026-04-26T11:11:21.449Z</time></trkpt><trkpt lat="45.6605258" lon="13.9119001"><ele>438.0</ele><time>2026-04-26T11:11:22.449Z</time></trkpt><trkpt lat="45.6604956" lon="13.91227"><ele>439.0</ele><time>2026-04-26T11:11:23.449Z</time></trkpt><trkpt lat="45.6605188" lon="13.9126513"><ele>439.5</ele><time>2026-04-26T11:11:24.449Z</time></trkpt><trkpt lat="45.6605657" lon="13.9130398"><ele>440.0</ele><time>2026-04-26T11:11:25.449Z</time></trkpt><trkpt lat="45.6606222" lon="13.9134306"><ele>440.0</ele><time>2026-04-26T11:11:26.45Z</time></trkpt><trkpt lat="45.66067" lon="13.9138075"><ele>440.0</ele><time>2026-04-26T11:11:27.449Z</time></trkpt><trkpt lat="45.6606984" lon="13.9141692"><ele>438.5</ele><time>2026-04-26T11:11:28.449Z</time></trkpt><trkpt lat="45.6607133" lon="13.9145296"><ele>437.0</ele><time>2026-04-26T11:11:29.449Z</time></trkpt><trkpt lat="45.6607032" lon="13.9149042"><ele>439.0</ele><time>2026-04-26T11:11:30.449Z</time></trkpt><trkpt lat="45.6606863" lon="13.9152751"><ele>441.0</ele><time>2026-04-26T11:11:31.449Z</time></trkpt><trkpt lat="45.6606647" lon="13.9156477"><ele>442.5</ele><time>2026-04-26T11:11:32.449Z</time></trkpt><trkpt lat="45.6606498" lon="13.916009"><ele>444.0</ele><time>2026-04-26T11:11:33.449Z</time></trkpt><trkpt lat="45.6606313" lon="13.9163588"><ele>444.0</ele><time>2026-04-26T11:11:34.449Z</time></trkpt><trkpt lat="45.6606251" lon="13.9166956"><ele>444.0</ele><time>2026-04-26T11:11:35.449Z</time></trkpt><trkpt lat="45.6606436" lon="13.9170184"><ele>444.5</ele><time>2026-04-26T11:11:36.449Z</time></trkpt><trkpt lat="45.6606956" lon="13.9173226"><ele>445.0</ele><time>2026-04-26T11:11:37.449Z</time></trkpt><trkpt lat="45.6607804" lon="13.917633"><ele>446.5</ele><time>2026-04-26T11:11:38.449Z</time></trkpt><trkpt lat="45.6608758" lon="13.9179506"><ele>448.0</ele><time>2026-04-26T11:11:39.449Z</time></trkpt><trkpt lat="45.6609666" lon="13.9182573"><ele>448.0</ele><time>2026-04-26T11:11:40.449Z</time></trkpt><trkpt lat="45.6610392" lon="13.9185417"><ele>448.0</ele><time>2026-04-26T11:11:41.449Z</time></trkpt><trkpt lat="45.6610957" lon="13.918828"><ele>448.0</ele><time>2026-04-26T11:11:42.449Z</time></trkpt><trkpt lat="45.661128" lon="13.9191206"><ele>446.5</ele><time>2026-04-26T11:11:43.449Z</time></trkpt><trkpt lat="45.6611291" lon="13.9194347"><ele>445.0</ele><time>2026-04-26T11:11:44.449Z</time></trkpt><trkpt lat="45.6611074" lon="13.9197671"><ele>446.0</ele><time>2026-04-26T11:11:45.45Z</time></trkpt><trkpt lat="45.6610938" lon="13.9201083"><ele>447.0</ele><time>2026-04-26T11:11:46.449Z</time></trkpt><trkpt lat="45.6610828" lon="13.9204519"><ele>447.0</ele><time>2026-04-26T11:11:47.45Z</time></trkpt><trkpt lat="45.6610723" lon="13.9207793"><ele>447.0</ele><time>2026-04-26T11:11:48.449Z</time></trkpt><trkpt lat="45.6610711" lon="13.9210878"><ele>447.0</ele><time>2026-04-26T11:11:49.45Z</time></trkpt><trkpt lat="45.6610889" lon="13.9213928"><ele>447.33333333333337</ele><time>2026-04-26T11:11:50.449Z</time></trkpt><trkpt lat="45.6611111" lon="13.9216974"><ele>447.6666666666667</ele><time>2026-04-26T11:11:51.449Z</time></trkpt><trkpt lat="45.6611336" lon="13.9219998"><ele>448.0</ele><time>2026-04-26T11:11:52.449Z</time></trkpt><trkpt lat="45.6611621" lon="13.9222811"><ele>446.6666666666667</ele><time>2026-04-26T11:11:53.449Z</time></trkpt><trkpt lat="45.6611972" lon="13.9225509"><ele>445.33333333333337</ele><time>2026-04-26T11:11:54.45Z</time></trkpt><trkpt lat="45.6612274" lon="13.9227971"><ele>444.0</ele><time>2026-04-26T11:11:55.449Z</time></trkpt><trkpt lat="45.6612674" lon="13.9230125"><ele>443.6</ele><time>2026-04-26T11:11:56.449Z</time></trkpt><trkpt lat="45.6612806" lon="13.9231893"><ele>443.2</ele><time>2026-04-26T11:11:57.449Z</time></trkpt><trkpt lat="45.6612585" lon="13.9233385"><ele>442.80000000000007</ele><time>2026-04-26T11:11:58.449Z</time></trkpt><trkpt lat="45.6612109" lon="13.9234809"><ele>442.40000000000003</ele><time>2026-04-26T11:11:59.45Z</time></trkpt><trkpt lat="45.6611959" lon="13.9236139"><ele>442.0</ele><time>2026-04-26T11:12:00.449Z</time></trkpt><trkpt lat="45.6612092" lon="13.9237694"><ele>442.0</ele><time>2026-04-26T11:12:01.45Z</time></trkpt><trkpt lat="45.6612035" lon="13.9239466"><ele>442.0</ele><time>2026-04-26T11:12:02.449Z</time></trkpt><trkpt lat="45.6611621" lon="13.9241349"><ele>442.0</ele><time>2026-04-26T11:12:03.449Z</time></trkpt><trkpt lat="45.6610893" lon="13.924323"><ele>442.0</ele><time>2026-04-26T11:12:04.449Z</time></trkpt><trkpt lat="45.6610166" lon="13.924526"><ele>442.0</ele><time>2026-04-26T11:12:05.449Z</time></trkpt><trkpt lat="45.6609501" lon="13.9247405"><ele>442.0</ele><time>2026-04-26T11:12:06.449Z</time></trkpt><trkpt lat="45.6608939" lon="13.9249723"><ele>442.0</ele><time>2026-04-26T11:12:07.449Z</time></trkpt><trkpt lat="45.6608395" lon="13.9251959"><ele>442.0</ele><time>2026-04-26T11:12:08.45Z</time></trkpt><trkpt lat="45.660792" lon="13.9254208"><ele>442.0</ele><time>2026-04-26T11:12:09.449Z</time></trkpt><trkpt lat="45.6607664" lon="13.9256634"><ele>442.0</ele><time>2026-04-26T11:12:10.449Z</time></trkpt><trkpt lat="45.660779" lon="13.9258995"><ele>444.33333333333337</ele><time>2026-04-26T11:12:11.449Z</time></trkpt><trkpt lat="45.6608161" lon="13.9261198"><ele>446.66666666666663</ele><time>2026-04-26T11:12:12.45Z</time></trkpt><trkpt lat="45.66088" lon="13.9263368"><ele>449.0</ele><time>2026-04-26T11:12:13.449Z</time></trkpt><trkpt lat="45.6609558" lon="13.9265303"><ele>449.0</ele><time>2026-04-26T11:12:14.449Z</time></trkpt><trkpt lat="45.6610376" lon="13.9267208"><ele>449.0</ele><time>2026-04-26T11:12:15.449Z</time></trkpt><trkpt lat="45.6611178" lon="13.9268881"><ele>449.0</ele><time>2026-04-26T11:12:16.45Z</time></trkpt><trkpt lat="45.661195" lon="13.9270508"><ele>449.0</ele><time>2026-04-26T11:12:17.449Z</time></trkpt><trkpt lat="45.6612448" lon="13.9271894"><ele>449.4</ele><time>2026-04-26T11:12:18.449Z</time></trkpt><trkpt lat="45.6612449" lon="13.927325"><ele>449.79999999999995</ele><time>2026-04-26T11:12:19.449Z</time></trkpt><trkpt lat="45.6612034" lon="13.9274522"><ele>450.20000000000005</ele><time>2026-04-26T11:12:20.45Z</time></trkpt><trkpt lat="45.6611405" lon="13.9275724"><ele>450.6</ele><time>2026-04-26T11:12:21.449Z</time></trkpt><trkpt lat="45.661061" lon="13.9276917"><ele>451.0</ele><time>2026-04-26T11:12:22.449Z</time></trkpt><trkpt lat="45.6609875" lon="13.9278114"><ele>451.5</ele><time>2026-04-26T11:12:23.449Z</time></trkpt><trkpt lat="45.6609331" lon="13.9279606"><ele>452.0</ele><time>2026-04-26T11:12:24.449Z</time></trkpt><trkpt lat="45.6609104" lon="13.9281298"><ele>452.5</ele><time>2026-04-26T11:12:25.449Z</time></trkpt><trkpt lat="45.6608888" lon="13.9283144"><ele>453.0</ele><time>2026-04-26T11:12:26.45Z</time></trkpt><trkpt lat="45.6608795" lon="13.9284968"><ele>453.0</ele><time>2026-04-26T11:12:27.45Z</time></trkpt><trkpt lat="45.6608744" lon="13.92868"><ele>453.0</ele><time>2026-04-26T11:12:28.449Z</time></trkpt><trkpt lat="45.6608738" lon="13.928873"><ele>453.0</ele><time>2026-04-26T11:12:29.45Z</time></trkpt><trkpt lat="45.6608839" lon="13.9290856"><ele>453.0</ele><time>2026-04-26T11:12:30.449Z</time></trkpt><trkpt lat="45.6608925" lon="13.9293006"><ele>453.33333333333337</ele><time>2026-04-26T11:12:31.449Z</time></trkpt><trkpt lat="45.660907" lon="13.9295078"><ele>453.6666666666667</ele><time>2026-04-26T11:12:32.449Z</time></trkpt><trkpt lat="45.6609062" lon="13.9297245"><ele>454.0</ele><time>2026-04-26T11:12:33.449Z</time></trkpt><trkpt lat="45.6608922" lon="13.929944"><ele>454.0</ele><time>2026-04-26T11:12:34.449Z</time></trkpt><trkpt lat="45.6608683" lon="13.9301693"><ele>454.0</ele><time>2026-04-26T11:12:35.449Z</time></trkpt><trkpt lat="45.6608238" lon="13.9303891"><ele>454.0</ele><time>2026-04-26T11:12:36.449Z</time></trkpt><trkpt lat="45.6607784" lon="13.9306051"><ele>454.0</ele><time>2026-04-26T11:12:37.449Z</time></trkpt><trkpt lat="45.6607416" lon="13.9308292"><ele>454.0</ele><time>2026-04-26T11:12:38.449Z</time></trkpt><trkpt lat="45.6607212" lon="13.9310581"><ele>454.0</ele><time>2026-04-26T11:12:39.449Z</time></trkpt><trkpt lat="45.6607111" lon="13.9312858"><ele>454.33333333333337</ele><time>2026-04-26T11:12:40.449Z</time></trkpt><trkpt lat="45.6607189" lon="13.9315185"><ele>454.66666666666663</ele><time>2026-04-26T11:12:41.449Z</time></trkpt><trkpt lat="45.6607515" lon="13.9317404"><ele>455.0</ele><time>2026-04-26T11:12:42.449Z</time></trkpt><trkpt lat="45.6608049" lon="13.9319659"><ele>455.0</ele><time>2026-04-26T11:12:43.449Z</time></trkpt><trkpt lat="45.6608483" lon="13.9321981"><ele>455.0</ele><time>2026-04-26T11:12:44.449Z</time></trkpt><trkpt lat="45.6608781" lon="13.9324409"><ele>455.0</ele><time>2026-04-26T11:12:45.449Z</time></trkpt><trkpt lat="45.6608868" lon="13.9326593"><ele>454.75</ele><time>2026-04-26T11:12:46.449Z</time></trkpt><trkpt lat="45.6608802" lon="13.9328642"><ele>454.5</ele><time>2026-04-26T11:12:47.449Z</time></trkpt><trkpt lat="45.6608971" lon="13.9330706"><ele>454.25</ele><time>2026-04-26T11:12:48.449Z</time></trkpt><trkpt lat="45.6609472" lon="13.9332798"><ele>454.0</ele><time>2026-04-26T11:12:49.45Z</time></trkpt><trkpt lat="45.6610039" lon="13.9335326"><ele>454.0</ele><time>2026-04-26T11:12:50.45Z</time></trkpt><trkpt lat="45.6610719" lon="13.9337893"><ele>454.0</ele><time>2026-04-26T11:12:51.449Z</time></trkpt><trkpt lat="45.6611273" lon="13.9340703"><ele>454.0</ele><time>2026-04-26T11:12:52.449Z</time></trkpt><trkpt lat="45.6611721" lon="13.9343742"><ele>454.0</ele><time>2026-04-26T11:12:53.449Z</time></trkpt><trkpt lat="45.661204" lon="13.9346775"><ele>454.0</ele><time>2026-04-26T11:12:54.449Z</time></trkpt><trkpt lat="45.6612383" lon="13.9349812"><ele>454.0</ele><time>2026-04-26T11:12:55.45Z</time></trkpt><trkpt lat="45.6612716" lon="13.9352921"><ele>456.0</ele><time>2026-04-26T11:12:56.45Z</time></trkpt><trkpt lat="45.6613094" lon="13.9356016"><ele>458.0</ele><time>2026-04-26T11:12:57.45Z</time></trkpt><trkpt lat="45.6613527" lon="13.9359121"><ele>460.0</ele><time>2026-04-26T11:12:58.449Z</time></trkpt><trkpt lat="45.6613892" lon="13.9362208"><ele>460.33333333333337</ele><time>2026-04-26T11:12:59.449Z</time></trkpt><trkpt lat="45.661425" lon="13.9365371"><ele>460.66666666666663</ele><time>2026-04-26T11:13:00.449Z</time></trkpt><trkpt lat="45.6614642" lon="13.9368389"><ele>461.0</ele><time>2026-04-26T11:13:01.449Z</time></trkpt><trkpt lat="45.6615153" lon="13.9371465"><ele>461.0</ele><time>2026-04-26T11:13:02.45Z</time></trkpt><trkpt lat="45.6615928" lon="13.9374407"><ele>461.0</ele><time>2026-04-26T11:13:03.45Z</time></trkpt><trkpt lat="45.661691" lon="13.9377249"><ele>461.0</ele><time>2026-04-26T11:13:04.449Z</time></trkpt><trkpt lat="45.6618103" lon="13.9379958"><ele>459.5</ele><time>2026-04-26T11:13:05.449Z</time></trkpt><trkpt lat="45.6619509" lon="13.9382568"><ele>458.0</ele><time>2026-04-26T11:13:06.449Z</time></trkpt><trkpt lat="45.66211" lon="13.9385009"><ele>458.0</ele><time>2026-04-26T11:13:07.449Z</time></trkpt><trkpt lat="45.6622812" lon="13.9387316"><ele>458.0</ele><time>2026-04-26T11:13:08.449Z</time></trkpt><trkpt lat="45.6624611" lon="13.9389665"><ele>458.0</ele><time>2026-04-26T11:13:09.449Z</time></trkpt><trkpt lat="45.6626405" lon="13.9392031"><ele>458.0</ele><time>2026-04-26T11:13:10.449Z</time></trkpt><trkpt lat="45.6628121" lon="13.9394298"><ele>459.5</ele><time>2026-04-26T11:13:11.449Z</time></trkpt><trkpt lat="45.6629901" lon="13.9396396"><ele>461.0</ele><time>2026-04-26T11:13:12.449Z</time></trkpt><trkpt lat="45.6631819" lon="13.9398304"><ele>461.0</ele><time>2026-04-26T11:13:13.449Z</time></trkpt><trkpt lat="45.6633772" lon="13.9400179"><ele>461.0</ele><time>2026-04-26T11:13:14.449Z</time></trkpt><trkpt lat="45.6635804" lon="13.9402023"><ele>455.5</ele><time>2026-04-26T11:13:15.449Z</time></trkpt><trkpt lat="45.6637801" lon="13.9403973"><ele>450.0</ele><time>2026-04-26T11:13:16.449Z</time></trkpt><trkpt lat="45.663964" lon="13.9406015"><ele>450.0</ele><time>2026-04-26T11:13:17.45Z</time></trkpt><trkpt lat="45.6641396" lon="13.9408273"><ele>450.0</ele><time>2026-04-26T11:13:18.449Z</time></trkpt><trkpt lat="45.6643203" lon="13.9410721"><ele>452.5</ele><time>2026-04-26T11:13:19.449Z</time></trkpt><trkpt lat="45.6644989" lon="13.9413273"><ele>455.0</ele><time>2026-04-26T11:13:20.45Z</time></trkpt><trkpt lat="45.6646699" lon="13.9415859"><ele>452.0</ele><time>2026-04-26T11:13:21.45Z</time></trkpt><trkpt lat="45.6648382" lon="13.9418687"><ele>449.0</ele><time>2026-04-26T11:13:22.449Z</time></trkpt><trkpt lat="45.6649988" lon="13.9421513"><ele>449.0</ele><time>2026-04-26T11:13:23.449Z</time></trkpt><trkpt lat="45.6651605" lon="13.9424508"><ele>449.0</ele><time>2026-04-26T11:13:24.449Z</time></trkpt><trkpt lat="45.6653259" lon="13.9427474"><ele>451.0</ele><time>2026-04-26T11:13:25.449Z</time></trkpt><trkpt lat="45.6654949" lon="13.9430448"><ele>453.0</ele><time>2026-04-26T11:13:26.449Z</time></trkpt><trkpt lat="45.6656653" lon="13.9433395"><ele>450.5</ele><time>2026-04-26T11:13:27.449Z</time></trkpt><trkpt lat="45.6658284" lon="13.9436332"><ele>448.0</ele><time>2026-04-26T11:13:28.449Z</time></trkpt><trkpt lat="45.6659882" lon="13.9439247"><ele>448.0</ele><time>2026-04-26T11:13:29.449Z</time></trkpt><trkpt lat="45.6661595" lon="13.9442005"><ele>448.0</ele><time>2026-04-26T11:13:30.449Z</time></trkpt><trkpt lat="45.6663446" lon="13.9444456"><ele>448.0</ele><time>2026-04-26T11:13:31.449Z</time></trkpt><trkpt lat="45.6665492" lon="13.9446528"><ele>448.0</ele><time>2026-04-26T11:13:32.449Z</time></trkpt><trkpt lat="45.666774" lon="13.9448464"><ele>449.5</ele><time>2026-04-26T11:13:33.449Z</time></trkpt><trkpt lat="45.6669944" lon="13.9450452"><ele>451.0</ele><time>2026-04-26T11:13:34.449Z</time></trkpt><trkpt lat="45.6672123" lon="13.9452558"><ele>451.0</ele><time>2026-04-26T11:13:35.449Z</time></trkpt><trkpt lat="45.6674319" lon="13.9454584"><ele>451.0</ele><time>2026-04-26T11:13:36.449Z</time></trkpt><trkpt lat="45.6676494" lon="13.9456607"><ele>452.0</ele><time>2026-04-26T11:13:37.45Z</time></trkpt><trkpt lat="45.6678656" lon="13.9458615"><ele>453.0</ele><time>2026-04-26T11:13:38.449Z</time></trkpt><trkpt lat="45.6680861" lon="13.9460395"><ele>453.0</ele><time>2026-04-26T11:13:39.449Z</time></trkpt><trkpt lat="45.6683106" lon="13.9462085"><ele>453.0</ele><time>2026-04-26T11:13:40.449Z</time></trkpt><trkpt lat="45.6685362" lon="13.9463732"><ele>455.0</ele><time>2026-04-26T11:13:41.449Z</time></trkpt><trkpt lat="45.6687646" lon="13.9465367"><ele>457.0</ele><time>2026-04-26T11:13:42.449Z</time></trkpt><trkpt lat="45.6689941" lon="13.9466981"><ele>455.0</ele><time>2026-04-26T11:13:43.449Z</time></trkpt><trkpt lat="45.6692267" lon="13.9468608"><ele>453.0</ele><time>2026-04-26T11:13:44.449Z</time></trkpt><trkpt lat="45.6694579" lon="13.9470252"><ele>453.0</ele><time>2026-04-26T11:13:45.45Z</time></trkpt><trkpt lat="45.6696903" lon="13.9471868"><ele>453.0</ele><time>2026-04-26T11:13:46.449Z</time></trkpt><trkpt lat="45.66992" lon="13.9473472"><ele>453.0</ele><time>2026-04-26T11:13:47.449Z</time></trkpt><trkpt lat="45.6701495" lon="13.9475076"><ele>453.0</ele><time>2026-04-26T11:13:48.449Z</time></trkpt><trkpt lat="45.6703809" lon="13.9476703"><ele>452.0</ele><time>2026-04-26T11:13:49.45Z</time></trkpt><trkpt lat="45.6706147" lon="13.9478306"><ele>451.0</ele><time>2026-04-26T11:13:50.449Z</time></trkpt><trkpt lat="45.6708478" lon="13.9479919"><ele>451.0</ele><time>2026-04-26T11:13:51.449Z</time></trkpt><trkpt lat="45.6710778" lon="13.9481547"><ele>451.0</ele><time>2026-04-26T11:13:52.449Z</time></trkpt><trkpt lat="45.671308" lon="13.9483132"><ele>447.0</ele><time>2026-04-26T11:13:53.45Z</time></trkpt><trkpt lat="45.6715424" lon="13.9484676"><ele>443.0</ele><time>2026-04-26T11:13:54.449Z</time></trkpt><trkpt lat="45.6717753" lon="13.9486224"><ele>442.0</ele><time>2026-04-26T11:13:55.449Z</time></trkpt><trkpt lat="45.671999" lon="13.9487844"><ele>441.0</ele><time>2026-04-26T11:13:56.449Z</time></trkpt><trkpt lat="45.6722195" lon="13.9489351"><ele>441.0</ele><time>2026-04-26T11:13:57.449Z</time></trkpt><trkpt lat="45.6724249" lon="13.9490929"><ele>441.0</ele><time>2026-04-26T11:13:58.449Z</time></trkpt><trkpt lat="45.6726315" lon="13.9492699"><ele>440.66666666666663</ele><time>2026-04-26T11:13:59.449Z</time></trkpt><trkpt lat="45.6727954" lon="13.9494928"><ele>440.3333333333333</ele><time>2026-04-26T11:14:00.449Z</time></trkpt><trkpt lat="45.6729048" lon="13.949769"><ele>440.0</ele><time>2026-04-26T11:14:01.449Z</time></trkpt><trkpt lat="45.6729928" lon="13.9500666"><ele>440.0</ele><time>2026-04-26T11:14:02.449Z</time></trkpt><trkpt lat="45.6730686" lon="13.9503646"><ele>440.0</ele><time>2026-04-26T11:14:03.45Z</time></trkpt><trkpt lat="45.6731444" lon="13.9506746"><ele>440.5</ele><time>2026-04-26T11:14:04.449Z</time></trkpt><trkpt lat="45.6732379" lon="13.950972"><ele>441.0</ele><time>2026-04-26T11:14:05.449Z</time></trkpt><trkpt lat="45.6733423" lon="13.951267"><ele>441.0</ele><time>2026-04-26T11:14:06.449Z</time></trkpt><trkpt lat="45.6734666" lon="13.9515253"><ele>441.0</ele><time>2026-04-26T11:14:07.449Z</time></trkpt><trkpt lat="45.6736249" lon="13.9517581"><ele>441.0</ele><time>2026-04-26T11:14:08.449Z</time></trkpt><trkpt lat="45.6737916" lon="13.951973"><ele>440.5</ele><time>2026-04-26T11:14:09.45Z</time></trkpt><trkpt lat="45.6739843" lon="13.9521423"><ele>440.0</ele><time>2026-04-26T11:14:10.449Z</time></trkpt><trkpt lat="45.6741907" lon="13.9522911"><ele>440.0</ele><time>2026-04-26T11:14:11.449Z</time></trkpt><trkpt lat="45.674407" lon="13.9524049"><ele>440.0</ele><time>2026-04-26T11:14:12.449Z</time></trkpt><trkpt lat="45.6746375" lon="13.9525014"><ele>439.5</ele><time>2026-04-26T11:14:13.449Z</time></trkpt><trkpt lat="45.6748716" lon="13.9525908"><ele>439.0</ele><time>2026-04-26T11:14:14.449Z</time></trkpt><trkpt lat="45.6751115" lon="13.9526852"><ele>439.0</ele><time>2026-04-26T11:14:15.449Z</time></trkpt><trkpt lat="45.675341" lon="13.9528098"><ele>439.0</ele><time>2026-04-26T11:14:16.449Z</time></trkpt><trkpt lat="45.6755682" lon="13.9529639"><ele>439.0</ele><time>2026-04-26T11:14:17.449Z</time></trkpt><trkpt lat="45.6757942" lon="13.9531147"><ele>439.0</ele><time>2026-04-26T11:14:18.449Z</time></trkpt><trkpt lat="45.6760152" lon="13.9532646"><ele>440.5</ele><time>2026-04-26T11:14:19.449Z</time></trkpt><trkpt lat="45.6762367" lon="13.9534087"><ele>442.0</ele><time>2026-04-26T11:14:20.449Z</time></trkpt><trkpt lat="45.6764567" lon="13.9535499"><ele>442.0</ele><time>2026-04-26T11:14:21.449Z</time></trkpt><trkpt lat="45.6766799" lon="13.9536917"><ele>442.0</ele><time>2026-04-26T11:14:22.449Z</time></trkpt><trkpt lat="45.676901" lon="13.9538385"><ele>445.5</ele><time>2026-04-26T11:14:23.449Z</time></trkpt><trkpt lat="45.6771165" lon="13.953988"><ele>449.0</ele><time>2026-04-26T11:14:24.449Z</time></trkpt><trkpt lat="45.6773329" lon="13.9541307"><ele>449.0</ele><time>2026-04-26T11:14:25.45Z</time></trkpt><trkpt lat="45.6775542" lon="13.9542783"><ele>449.0</ele><time>2026-04-26T11:14:26.449Z</time></trkpt><trkpt lat="45.6777747" lon="13.9544254"><ele>449.0</ele><time>2026-04-26T11:14:27.449Z</time></trkpt><trkpt lat="45.6779993" lon="13.9545655"><ele>449.0</ele><time>2026-04-26T11:14:28.449Z</time></trkpt><trkpt lat="45.6782194" lon="13.9547098"><ele>449.0</ele><time>2026-04-26T11:14:29.449Z</time></trkpt><trkpt lat="45.6784238" lon="13.9548464"><ele>449.0</ele><time>2026-04-26T11:14:30.449Z</time></trkpt><trkpt lat="45.6786161" lon="13.9549821"><ele>449.0</ele><time>2026-04-26T11:14:31.449Z</time></trkpt><trkpt lat="45.6787844" lon="13.9551458"><ele>448.0</ele><time>2026-04-26T11:14:32.449Z</time></trkpt><trkpt lat="45.6789277" lon="13.9553373"><ele>447.0</ele><time>2026-04-26T11:14:33.449Z</time></trkpt><trkpt lat="45.6790347" lon="13.9555617"><ele>446.0</ele><time>2026-04-26T11:14:34.449Z</time></trkpt><trkpt lat="45.6791235" lon="13.9558099"><ele>443.66666666666663</ele><time>2026-04-26T11:14:35.449Z</time></trkpt><trkpt lat="45.6791749" lon="13.9560792"><ele>441.33333333333337</ele><time>2026-04-26T11:14:36.449Z</time></trkpt><trkpt lat="45.6791848" lon="13.956367"><ele>439.0</ele><time>2026-04-26T11:14:37.45Z</time></trkpt><trkpt lat="45.6791678" lon="13.956653"><ele>440.0</ele><time>2026-04-26T11:14:38.449Z</time></trkpt><trkpt lat="45.679131" lon="13.956936"><ele>441.0</ele><time>2026-04-26T11:14:39.449Z</time></trkpt><trkpt lat="45.679079" lon="13.9572223"><ele>442.0</ele><time>2026-04-26T11:14:40.449Z</time></trkpt><trkpt lat="45.679018" lon="13.9575296"><ele>443.0</ele><time>2026-04-26T11:14:41.449Z</time></trkpt><trkpt lat="45.6789604" lon="13.9578581"><ele>444.0</ele><time>2026-04-26T11:14:42.449Z</time></trkpt><trkpt lat="45.6788991" lon="13.9581837"><ele>444.0</ele><time>2026-04-26T11:14:43.449Z</time></trkpt><trkpt lat="45.6788365" lon="13.9585099"><ele>444.0</ele><time>2026-04-26T11:14:44.45Z</time></trkpt><trkpt lat="45.6787757" lon="13.9588542"><ele>443.5</ele><time>2026-04-26T11:14:45.45Z</time></trkpt><trkpt lat="45.6787109" lon="13.9592068"><ele>443.0</ele><time>2026-04-26T11:14:46.45Z</time></trkpt><trkpt lat="45.6786415" lon="13.9595686"><ele>441.5</ele><time>2026-04-26T11:14:47.449Z</time></trkpt><trkpt lat="45.6785715" lon="13.9599329"><ele>440.0</ele><time>2026-04-26T11:14:48.45Z</time></trkpt><trkpt lat="45.6784977" lon="13.9602987"><ele>440.0</ele><time>2026-04-26T11:14:49.449Z</time></trkpt><trkpt lat="45.6784215" lon="13.9606621"><ele>440.0</ele><time>2026-04-26T11:14:50.449Z</time></trkpt><trkpt lat="45.6783465" lon="13.9610315"><ele>439.5</ele><time>2026-04-26T11:14:51.449Z</time></trkpt><trkpt lat="45.6782765" lon="13.9613995"><ele>439.0</ele><time>2026-04-26T11:14:52.449Z</time></trkpt><trkpt lat="45.6782111" lon="13.9617613"><ele>439.0</ele><time>2026-04-26T11:14:53.449Z</time></trkpt><trkpt lat="45.6781475" lon="13.962112"><ele>439.0</ele><time>2026-04-26T11:14:54.449Z</time></trkpt><trkpt lat="45.6780898" lon="13.9624563"><ele>438.5</ele><time>2026-04-26T11:14:55.449Z</time></trkpt><trkpt lat="45.6780547" lon="13.9628015"><ele>438.0</ele><time>2026-04-26T11:14:56.45Z</time></trkpt><trkpt lat="45.6780451" lon="13.9631361"><ele>437.0</ele><time>2026-04-26T11:14:57.449Z</time></trkpt><trkpt lat="45.6780542" lon="13.963451"><ele>436.0</ele><time>2026-04-26T11:14:58.449Z</time></trkpt><trkpt lat="45.6780848" lon="13.9637392"><ele>435.0</ele><time>2026-04-26T11:14:59.449Z</time></trkpt><trkpt lat="45.6781422" lon="13.9640177"><ele>432.0</ele><time>2026-04-26T11:15:00.449Z</time></trkpt><trkpt lat="45.678209" lon="13.9643132"><ele>429.0</ele><time>2026-04-26T11:15:01.449Z</time></trkpt><trkpt lat="45.6782656" lon="13.9646398"><ele>429.0</ele><time>2026-04-26T11:15:02.449Z</time></trkpt><trkpt lat="45.6783118" lon="13.96499"><ele>429.0</ele><time>2026-04-26T11:15:03.449Z</time></trkpt><trkpt lat="45.678366" lon="13.9653356"><ele>422.5</ele><time>2026-04-26T11:15:04.449Z</time></trkpt><trkpt lat="45.6784251" lon="13.9656769"><ele>416.0</ele><time>2026-04-26T11:15:05.449Z</time></trkpt><trkpt lat="45.6784865" lon="13.9660028"><ele>416.0</ele><time>2026-04-26T11:15:06.449Z</time></trkpt><trkpt lat="45.6785525" lon="13.9663206"><ele>416.0</ele><time>2026-04-26T11:15:07.45Z</time></trkpt><trkpt lat="45.6786383" lon="13.9666249"><ele>422.0</ele><time>2026-04-26T11:15:08.449Z</time></trkpt><trkpt lat="45.6787416" lon="13.9669145"><ele>428.0</ele><time>2026-04-26T11:15:09.449Z</time></trkpt><trkpt lat="45.6788689" lon="13.9671709"><ele>434.0</ele><time>2026-04-26T11:15:10.449Z</time></trkpt><trkpt lat="45.6790088" lon="13.9674142"><ele>433.66666666666663</ele><time>2026-04-26T11:15:11.449Z</time></trkpt><trkpt lat="45.6791616" lon="13.9676493"><ele>433.33333333333337</ele><time>2026-04-26T11:15:12.45Z</time></trkpt><trkpt lat="45.6793038" lon="13.9678777"><ele>433.0</ele><time>2026-04-26T11:15:13.449Z</time></trkpt><trkpt lat="45.6794481" lon="13.9680947"><ele>433.0</ele><time>2026-04-26T11:15:14.449Z</time></trkpt><trkpt lat="45.6795804" lon="13.9683082"><ele>433.0</ele><time>2026-04-26T11:15:15.45Z</time></trkpt><trkpt lat="45.6796916" lon="13.9685111"><ele>433.0</ele><time>2026-04-26T11:15:16.449Z</time></trkpt><trkpt lat="45.6797725" lon="13.9687302"><ele>434.6666666666667</ele><time>2026-04-26T11:15:17.45Z</time></trkpt><trkpt lat="45.6798283" lon="13.9689536"><ele>436.33333333333337</ele><time>2026-04-26T11:15:18.449Z</time></trkpt><trkpt lat="45.6798503" lon="13.9691921"><ele>438.0</ele><time>2026-04-26T11:15:19.45Z</time></trkpt><trkpt lat="45.6798416" lon="13.9694187"><ele>438.0</ele><time>2026-04-26T11:15:20.449Z</time></trkpt><trkpt lat="45.6798202" lon="13.9696304"><ele>438.0</ele><time>2026-04-26T11:15:21.449Z</time></trkpt><trkpt lat="45.6797738" lon="13.9698312"><ele>438.0</ele><time>2026-04-26T11:15:22.449Z</time></trkpt><trkpt lat="45.6797237" lon="13.9699988"><ele>438.0</ele><time>2026-04-26T11:15:23.45Z</time></trkpt><trkpt lat="45.6796692" lon="13.9701447"><ele>438.79999999999995</ele><time>2026-04-26T11:15:24.449Z</time></trkpt><trkpt lat="45.6795995" lon="13.9702641"><ele>439.59999999999997</ele><time>2026-04-26T11:15:25.449Z</time></trkpt><trkpt lat="45.6795212" lon="13.9703293"><ele>440.40000000000003</ele><time>2026-04-26T11:15:26.449Z</time></trkpt><trkpt lat="45.6794742" lon="13.9704223"><ele>441.20000000000005</ele><time>2026-04-26T11:15:27.449Z</time></trkpt><trkpt lat="45.6794535" lon="13.970539"><ele>442.0</ele><time>2026-04-26T11:15:28.449Z</time></trkpt><trkpt lat="45.6794594" lon="13.9706698"><ele>442.0</ele><time>2026-04-26T11:15:29.449Z</time></trkpt><trkpt lat="45.6794585" lon="13.9707931"><ele>442.00000000000006</ele><time>2026-04-26T11:15:30.45Z</time></trkpt><trkpt lat="45.6794336" lon="13.9709225"><ele>442.00000000000006</ele><time>2026-04-26T11:15:31.45Z</time></trkpt><trkpt lat="45.6793869" lon="13.9710525"><ele>442.0</ele><time>2026-04-26T11:15:32.449Z</time></trkpt><trkpt lat="45.6793375" lon="13.9711849"><ele>442.0</ele><time>2026-04-26T11:15:33.449Z</time></trkpt><trkpt lat="45.6792879" lon="13.9713082"><ele>442.00000000000006</ele><time>2026-04-26T11:15:34.449Z</time></trkpt><trkpt lat="45.6792448" lon="13.9714144"><ele>442.0</ele><time>2026-04-26T11:15:35.449Z</time></trkpt><trkpt lat="45.6792156" lon="13.9715018"><ele>442.0</ele><time>2026-04-26T11:15:36.449Z</time></trkpt><trkpt lat="45.6792105" lon="13.9716525"><ele>442.0</ele><time>2026-04-26T11:15:38.449Z</time></trkpt><trkpt lat="45.6792554" lon="13.9717305"><ele>442.00000000000006</ele><time>2026-04-26T11:15:39.449Z</time></trkpt><trkpt lat="45.6793324" lon="13.9718054"><ele>442.0</ele><time>2026-04-26T11:15:40.449Z</time></trkpt><trkpt lat="45.6794225" lon="13.9718794"><ele>442.0</ele><time>2026-04-26T11:15:41.449Z</time></trkpt><trkpt lat="45.6795325" lon="13.9719315"><ele>442.0</ele><time>2026-04-26T11:15:42.449Z</time></trkpt><trkpt lat="45.679662" lon="13.9719899"><ele>442.0</ele><time>2026-04-26T11:15:43.449Z</time></trkpt><trkpt lat="45.6797994" lon="13.9720357"><ele>442.0</ele><time>2026-04-26T11:15:44.449Z</time></trkpt><trkpt lat="45.6799451" lon="13.9720768"><ele>442.0</ele><time>2026-04-26T11:15:45.449Z</time></trkpt><trkpt lat="45.6801101" lon="13.9721065"><ele>442.0</ele><time>2026-04-26T11:15:46.449Z</time></trkpt><trkpt lat="45.6802739" lon="13.9721128"><ele>442.0</ele><time>2026-04-26T11:15:47.449Z</time></trkpt><trkpt lat="45.6804501" lon="13.9721199"><ele>441.33333333333337</ele><time>2026-04-26T11:15:48.449Z</time></trkpt><trkpt lat="45.6806344" lon="13.9721127"><ele>440.66666666666663</ele><time>2026-04-26T11:15:49.449Z</time></trkpt><trkpt lat="45.6808289" lon="13.9721052"><ele>440.0</ele><time>2026-04-26T11:15:50.449Z</time></trkpt><trkpt lat="45.6810246" lon="13.9720857"><ele>440.0</ele><time>2026-04-26T11:15:51.449Z</time></trkpt><trkpt lat="45.6812221" lon="13.9720682"><ele>440.0</ele><time>2026-04-26T11:15:52.449Z</time></trkpt><trkpt lat="45.681423" lon="13.9720491"><ele>440.0</ele><time>2026-04-26T11:15:53.449Z</time></trkpt><trkpt lat="45.6816231" lon="13.9720313"><ele>440.0</ele><time>2026-04-26T11:15:54.45Z</time></trkpt><trkpt lat="45.6818236" lon="13.9720226"><ele>440.0</ele><time>2026-04-26T11:15:55.449Z</time></trkpt><trkpt lat="45.6820266" lon="13.9720242"><ele>440.0</ele><time>2026-04-26T11:15:56.449Z</time></trkpt><trkpt lat="45.6822371" lon="13.9720444"><ele>439.5</ele><time>2026-04-26T11:15:57.449Z</time></trkpt><trkpt lat="45.6824581" lon="13.9720894"><ele>439.0</ele><time>2026-04-26T11:15:58.449Z</time></trkpt><trkpt lat="45.6826827" lon="13.9721548"><ele>439.0</ele><time>2026-04-26T11:15:59.45Z</time></trkpt><trkpt lat="45.6829059" lon="13.9722312"><ele>439.0</ele><time>2026-04-26T11:16:00.449Z</time></trkpt><trkpt lat="45.6831266" lon="13.9723212"><ele>439.0</ele><time>2026-04-26T11:16:01.449Z</time></trkpt><trkpt lat="45.6833484" lon="13.9724535"><ele>439.0</ele><time>2026-04-26T11:16:02.449Z</time></trkpt><trkpt lat="45.683571" lon="13.9726063"><ele>438.0</ele><time>2026-04-26T11:16:03.449Z</time></trkpt><trkpt lat="45.6837774" lon="13.9727752"><ele>437.0</ele><time>2026-04-26T11:16:04.449Z</time></trkpt><trkpt lat="45.6839845" lon="13.9729704"><ele>437.0</ele><time>2026-04-26T11:16:05.449Z</time></trkpt><trkpt lat="45.6841845" lon="13.9732055"><ele>437.0</ele><time>2026-04-26T11:16:06.449Z</time></trkpt><trkpt lat="45.6843765" lon="13.9734564"><ele>437.5</ele><time>2026-04-26T11:16:07.45Z</time></trkpt><trkpt lat="45.6845616" lon="13.9737162"><ele>438.0</ele><time>2026-04-26T11:16:08.449Z</time></trkpt><trkpt lat="45.6847273" lon="13.9739991"><ele>439.0</ele><time>2026-04-26T11:16:09.449Z</time></trkpt><trkpt lat="45.684892" lon="13.974301"><ele>440.0</ele><time>2026-04-26T11:16:10.449Z</time></trkpt><trkpt lat="45.6850439" lon="13.9746161"><ele>440.0</ele><time>2026-04-26T11:16:11.449Z</time></trkpt><trkpt lat="45.6851905" lon="13.9749274"><ele>440.0</ele><time>2026-04-26T11:16:12.45Z</time></trkpt><trkpt lat="45.6853364" lon="13.9752418"><ele>447.5</ele><time>2026-04-26T11:16:13.449Z</time></trkpt><trkpt lat="45.6854844" lon="13.9755543"><ele>455.0</ele><time>2026-04-26T11:16:14.449Z</time></trkpt><trkpt lat="45.6856361" lon="13.9758792"><ele>455.5</ele><time>2026-04-26T11:16:15.449Z</time></trkpt><trkpt lat="45.6857927" lon="13.9761992"><ele>456.0</ele><time>2026-04-26T11:16:16.45Z</time></trkpt><trkpt lat="45.6859578" lon="13.9765122"><ele>455.0</ele><time>2026-04-26T11:16:17.449Z</time></trkpt><trkpt lat="45.6861327" lon="13.9768143"><ele>454.0</ele><time>2026-04-26T11:16:18.449Z</time></trkpt><trkpt lat="45.6863087" lon="13.9771142"><ele>454.0</ele><time>2026-04-26T11:16:19.45Z</time></trkpt><trkpt lat="45.6864907" lon="13.9774044"><ele>454.0</ele><time>2026-04-26T11:16:20.45Z</time></trkpt><trkpt lat="45.6866785" lon="13.977684"><ele>458.0</ele><time>2026-04-26T11:16:21.449Z</time></trkpt><trkpt lat="45.6868652" lon="13.9779619"><ele>462.0</ele><time>2026-04-26T11:16:22.449Z</time></trkpt><trkpt lat="45.6870626" lon="13.9782263"><ele>464.5</ele><time>2026-04-26T11:16:23.449Z</time></trkpt><trkpt lat="45.6872631" lon="13.978483"><ele>467.0</ele><time>2026-04-26T11:16:24.45Z</time></trkpt><trkpt lat="45.6874696" lon="13.9787282"><ele>467.0</ele><time>2026-04-26T11:16:25.449Z</time></trkpt><trkpt lat="45.6876804" lon="13.9789697"><ele>467.0</ele><time>2026-04-26T11:16:26.449Z</time></trkpt><trkpt lat="45.6878989" lon="13.9792016"><ele>468.0</ele><time>2026-04-26T11:16:27.449Z</time></trkpt><trkpt lat="45.6881229" lon="13.979419"><ele>469.0</ele><time>2026-04-26T11:16:28.449Z</time></trkpt><trkpt lat="45.6883557" lon="13.9796221"><ele>469.0</ele><time>2026-04-26T11:16:29.449Z</time></trkpt><trkpt lat="45.6885893" lon="13.9798271"><ele>469.0</ele><time>2026-04-26T11:16:30.45Z</time></trkpt><trkpt lat="45.6888285" lon="13.9800137"><ele>465.5</ele><time>2026-04-26T11:16:31.449Z</time></trkpt><trkpt lat="45.6890657" lon="13.9801959"><ele>462.0</ele><time>2026-04-26T11:16:32.45Z</time></trkpt><trkpt lat="45.6893061" lon="13.9803698"><ele>458.0</ele><time>2026-04-26T11:16:33.449Z</time></trkpt><trkpt lat="45.6895543" lon="13.9805335"><ele>454.0</ele><time>2026-04-26T11:16:34.449Z</time></trkpt><trkpt lat="45.6898009" lon="13.9807091"><ele>454.5</ele><time>2026-04-26T11:16:35.449Z</time></trkpt><trkpt lat="45.6900413" lon="13.9808819"><ele>455.0</ele><time>2026-04-26T11:16:36.45Z</time></trkpt><trkpt lat="45.690282" lon="13.9810498"><ele>455.0</ele><time>2026-04-26T11:16:37.449Z</time></trkpt><trkpt lat="45.6905213" lon="13.9812214"><ele>455.0</ele><time>2026-04-26T11:16:38.45Z</time></trkpt><trkpt lat="45.6907584" lon="13.9813983"><ele>455.0</ele><time>2026-04-26T11:16:39.449Z</time></trkpt><trkpt lat="45.6910045" lon="13.9815778"><ele>455.0</ele><time>2026-04-26T11:16:40.449Z</time></trkpt><trkpt lat="45.6912381" lon="13.9817782"><ele>455.0</ele><time>2026-04-26T11:16:41.449Z</time></trkpt><trkpt lat="45.6914683" lon="13.9819798"><ele>455.0</ele><time>2026-04-26T11:16:42.449Z</time></trkpt><trkpt lat="45.691693" lon="13.9821922"><ele>455.0</ele><time>2026-04-26T11:16:43.449Z</time></trkpt><trkpt lat="45.6919105" lon="13.9824119"><ele>455.0</ele><time>2026-04-26T11:16:44.449Z</time></trkpt><trkpt lat="45.6921196" lon="13.9826349"><ele>459.5</ele><time>2026-04-26T11:16:45.45Z</time></trkpt><trkpt lat="45.6923266" lon="13.9828692"><ele>464.0</ele><time>2026-04-26T11:16:46.449Z</time></trkpt><trkpt lat="45.6925295" lon="13.9831098"><ele>463.0</ele><time>2026-04-26T11:16:47.449Z</time></trkpt><trkpt lat="45.6927257" lon="13.9833605"><ele>462.0</ele><time>2026-04-26T11:16:48.449Z</time></trkpt><trkpt lat="45.692918" lon="13.9836186"><ele>465.0</ele><time>2026-04-26T11:16:49.449Z</time></trkpt><trkpt lat="45.6931027" lon="13.9838829"><ele>468.0</ele><time>2026-04-26T11:16:50.449Z</time></trkpt><trkpt lat="45.6932893" lon="13.9841461"><ele>466.0</ele><time>2026-04-26T11:16:51.449Z</time></trkpt><trkpt lat="45.6934752" lon="13.98441"><ele>464.0</ele><time>2026-04-26T11:16:52.449Z</time></trkpt><trkpt lat="45.6936575" lon="13.984672"><ele>468.5</ele><time>2026-04-26T11:16:53.45Z</time></trkpt><trkpt lat="45.6938393" lon="13.9849371"><ele>473.0</ele><time>2026-04-26T11:16:54.449Z</time></trkpt><trkpt lat="45.6940185" lon="13.9851888"><ele>473.0</ele><time>2026-04-26T11:16:55.45Z</time></trkpt><trkpt lat="45.6942119" lon="13.9854197"><ele>473.0</ele><time>2026-04-26T11:16:56.449Z</time></trkpt><trkpt lat="45.6944211" lon="13.9856166"><ele>475.0</ele><time>2026-04-26T11:16:57.449Z</time></trkpt><trkpt lat="45.694641" lon="13.985813"><ele>477.0</ele><time>2026-04-26T11:16:58.449Z</time></trkpt><trkpt lat="45.6948749" lon="13.9859638"><ele>477.0</ele><time>2026-04-26T11:16:59.45Z</time></trkpt><trkpt lat="45.6951249" lon="13.9860711"><ele>477.0</ele><time>2026-04-26T11:17:00.449Z</time></trkpt><trkpt lat="45.695374" lon="13.9861519"><ele>480.0</ele><time>2026-04-26T11:17:01.45Z</time></trkpt><trkpt lat="45.6956366" lon="13.9861997"><ele>483.0</ele><time>2026-04-26T11:17:02.449Z</time></trkpt><trkpt lat="45.6958882" lon="13.9862108"><ele>482.5</ele><time>2026-04-26T11:17:03.449Z</time></trkpt><trkpt lat="45.6961401" lon="13.9861908"><ele>482.0</ele><time>2026-04-26T11:17:04.449Z</time></trkpt><trkpt lat="45.6963949" lon="13.9861384"><ele>482.0</ele><time>2026-04-26T11:17:05.449Z</time></trkpt><trkpt lat="45.6966401" lon="13.9860781"><ele>482.0</ele><time>2026-04-26T11:17:06.449Z</time></trkpt><trkpt lat="45.6968874" lon="13.9860006"><ele>482.5</ele><time>2026-04-26T11:17:07.449Z</time></trkpt><trkpt lat="45.6971345" lon="13.985912"><ele>483.0</ele><time>2026-04-26T11:17:08.449Z</time></trkpt><trkpt lat="45.6973793" lon="13.9858457"><ele>487.5</ele><time>2026-04-26T11:17:09.449Z</time></trkpt><trkpt lat="45.6976258" lon="13.9858036"><ele>492.0</ele><time>2026-04-26T11:17:10.45Z</time></trkpt><trkpt lat="45.6978638" lon="13.9857822"><ele>492.0</ele><time>2026-04-26T11:17:11.449Z</time></trkpt><trkpt lat="45.6980936" lon="13.9858193"><ele>492.0</ele><time>2026-04-26T11:17:12.45Z</time></trkpt><trkpt lat="45.6983251" lon="13.9858779"><ele>492.0</ele><time>2026-04-26T11:17:13.449Z</time></trkpt><trkpt lat="45.6985472" lon="13.985968"><ele>492.0</ele><time>2026-04-26T11:17:14.45Z</time></trkpt><trkpt lat="45.69876" lon="13.9860867"><ele>492.0</ele><time>2026-04-26T11:17:15.449Z</time></trkpt><trkpt lat="45.698961" lon="13.9862311"><ele>492.0</ele><time>2026-04-26T11:17:16.449Z</time></trkpt><trkpt lat="45.6991503" lon="13.9864095"><ele>492.0</ele><time>2026-04-26T11:17:17.45Z</time></trkpt><trkpt lat="45.6993402" lon="13.9866041"><ele>492.0</ele><time>2026-04-26T11:17:18.45Z</time></trkpt><trkpt lat="45.6995024" lon="13.9868343"><ele>499.5</ele><time>2026-04-26T11:17:19.449Z</time></trkpt><trkpt lat="45.6996427" lon="13.9871012"><ele>507.0</ele><time>2026-04-26T11:17:20.449Z</time></trkpt><trkpt lat="45.6997632" lon="13.9873765"><ele>505.0</ele><time>2026-04-26T11:17:21.449Z</time></trkpt><trkpt lat="45.6998691" lon="13.9876779"><ele>503.0</ele><time>2026-04-26T11:17:22.449Z</time></trkpt><trkpt lat="45.6999578" lon="13.9879995"><ele>503.0</ele><time>2026-04-26T11:17:23.449Z</time></trkpt><trkpt lat="45.7000234" lon="13.9883132"><ele>503.0</ele><time>2026-04-26T11:17:24.45Z</time></trkpt><trkpt lat="45.7000797" lon="13.9886446"><ele>503.0</ele><time>2026-04-26T11:17:25.449Z</time></trkpt><trkpt lat="45.7001125" lon="13.9889858"><ele>503.0</ele><time>2026-04-26T11:17:26.449Z</time></trkpt><trkpt lat="45.70014" lon="13.9893365"><ele>504.0</ele><time>2026-04-26T11:17:27.449Z</time></trkpt><trkpt lat="45.7001619" lon="13.9896864"><ele>505.0</ele><time>2026-04-26T11:17:28.449Z</time></trkpt><trkpt lat="45.7001785" lon="13.990043"><ele>507.0</ele><time>2026-04-26T11:17:29.449Z</time></trkpt><trkpt lat="45.7001957" lon="13.9903979"><ele>509.0</ele><time>2026-04-26T11:17:30.449Z</time></trkpt><trkpt lat="45.700213" lon="13.9907576"><ele>512.0</ele><time>2026-04-26T11:17:31.449Z</time></trkpt><trkpt lat="45.7002297" lon="13.9911208"><ele>515.0</ele><time>2026-04-26T11:17:32.449Z</time></trkpt><trkpt lat="45.7002485" lon="13.9914828"><ele>522.0</ele><time>2026-04-26T11:17:33.449Z</time></trkpt><trkpt lat="45.7002664" lon="13.9918515"><ele>529.0</ele><time>2026-04-26T11:17:34.449Z</time></trkpt><trkpt lat="45.700287" lon="13.9922215"><ele>528.0</ele><time>2026-04-26T11:17:35.449Z</time></trkpt><trkpt lat="45.7003131" lon="13.992585"><ele>527.0</ele><time>2026-04-26T11:17:36.449Z</time></trkpt><trkpt lat="45.7003526" lon="13.992944"><ele>527.0</ele><time>2026-04-26T11:17:37.449Z</time></trkpt><trkpt lat="45.7004019" lon="13.9932981"><ele>527.0</ele><time>2026-04-26T11:17:38.449Z</time></trkpt><trkpt lat="45.7004624" lon="13.9936536"><ele>527.5</ele><time>2026-04-26T11:17:39.449Z</time></trkpt><trkpt lat="45.7005333" lon="13.994009"><ele>528.0</ele><time>2026-04-26T11:17:40.449Z</time></trkpt><trkpt lat="45.7006186" lon="13.994356"><ele>528.5</ele><time>2026-04-26T11:17:41.449Z</time></trkpt><trkpt lat="45.7007181" lon="13.9946964"><ele>529.0</ele><time>2026-04-26T11:17:42.45Z</time></trkpt><trkpt lat="45.7008436" lon="13.9950255"><ele>529.0</ele><time>2026-04-26T11:17:43.449Z</time></trkpt><trkpt lat="45.7009766" lon="13.9953364"><ele>529.0</ele><time>2026-04-26T11:17:44.449Z</time></trkpt><trkpt lat="45.7011163" lon="13.9956468"><ele>533.0</ele><time>2026-04-26T11:17:45.449Z</time></trkpt><trkpt lat="45.7012665" lon="13.995951"><ele>537.0</ele><time>2026-04-26T11:17:46.449Z</time></trkpt><trkpt lat="45.7014278" lon="13.996249"><ele>537.0</ele><time>2026-04-26T11:17:47.45Z</time></trkpt><trkpt lat="45.7015912" lon="13.9965379"><ele>537.0</ele><time>2026-04-26T11:17:48.449Z</time></trkpt><trkpt lat="45.7017645" lon="13.9968239"><ele>538.5</ele><time>2026-04-26T11:17:49.449Z</time></trkpt><trkpt lat="45.7019382" lon="13.9971062"><ele>540.0</ele><time>2026-04-26T11:17:50.449Z</time></trkpt><trkpt lat="45.7021248" lon="13.997374"><ele>540.5</ele><time>2026-04-26T11:17:51.449Z</time></trkpt><trkpt lat="45.7023163" lon="13.9976298"><ele>541.0</ele><time>2026-04-26T11:17:52.449Z</time></trkpt><trkpt lat="45.7025078" lon="13.997873"><ele>541.0</ele><time>2026-04-26T11:17:53.449Z</time></trkpt><trkpt lat="45.7027096" lon="13.9981087"><ele>541.0</ele><time>2026-04-26T11:17:54.449Z</time></trkpt><trkpt lat="45.7029211" lon="13.998329"><ele>544.0</ele><time>2026-04-26T11:17:55.449Z</time></trkpt><trkpt lat="45.703135" lon="13.9985454"><ele>547.0</ele><time>2026-04-26T11:17:56.45Z</time></trkpt><trkpt lat="45.7033488" lon="13.9987724"><ele>547.0</ele><time>2026-04-26T11:17:57.45Z</time></trkpt><trkpt lat="45.7035596" lon="13.9990008"><ele>547.0</ele><time>2026-04-26T11:17:58.449Z</time></trkpt><trkpt lat="45.7037648" lon="13.9992479"><ele>549.0</ele><time>2026-04-26T11:17:59.449Z</time></trkpt><trkpt lat="45.7039487" lon="13.999517"><ele>551.0</ele><time>2026-04-26T11:18:00.449Z</time></trkpt><trkpt lat="45.7041192" lon="13.999804"><ele>551.0</ele><time>2026-04-26T11:18:01.449Z</time></trkpt><trkpt lat="45.7042853" lon="14.000095"><ele>551.0</ele><time>2026-04-26T11:18:02.449Z</time></trkpt><trkpt lat="45.7044786" lon="14.0003546"><ele>553.0</ele><time>2026-04-26T11:18:03.449Z</time></trkpt><trkpt lat="45.7046805" lon="14.0005989"><ele>555.0</ele><time>2026-04-26T11:18:04.449Z</time></trkpt><trkpt lat="45.7048994" lon="14.0008093"><ele>559.0</ele><time>2026-04-26T11:18:05.449Z</time></trkpt><trkpt lat="45.7051181" lon="14.0010096"><ele>563.0</ele><time>2026-04-26T11:18:06.449Z</time></trkpt><trkpt lat="45.7053478" lon="14.0012015"><ele>563.0</ele><time>2026-04-26T11:18:07.449Z</time></trkpt><trkpt lat="45.7055764" lon="14.001394"><ele>563.0</ele><time>2026-04-26T11:18:08.449Z</time></trkpt><trkpt lat="45.7058078" lon="14.001569"><ele>564.0</ele><time>2026-04-26T11:18:09.449Z</time></trkpt><trkpt lat="45.706043" lon="14.0017413"><ele>565.0</ele><time>2026-04-26T11:18:10.449Z</time></trkpt><trkpt lat="45.7062731" lon="14.0019073"><ele>565.0</ele><time>2026-04-26T11:18:11.449Z</time></trkpt><trkpt lat="45.7065045" lon="14.0020737"><ele>565.0</ele><time>2026-04-26T11:18:12.449Z</time></trkpt><trkpt lat="45.7067364" lon="14.0022276"><ele>562.0</ele><time>2026-04-26T11:18:13.449Z</time></trkpt><trkpt lat="45.706972" lon="14.0023722"><ele>559.0</ele><time>2026-04-26T11:18:14.449Z</time></trkpt><trkpt lat="45.7072181" lon="14.0024989"><ele>566.5</ele><time>2026-04-26T11:18:15.449Z</time></trkpt><trkpt lat="45.7074668" lon="14.002595"><ele>574.0</ele><time>2026-04-26T11:18:16.449Z</time></trkpt><trkpt lat="45.7077163" lon="14.0026613"><ele>571.5</ele><time>2026-04-26T11:18:17.449Z</time></trkpt><trkpt lat="45.7079715" lon="14.0027151"><ele>569.0</ele><time>2026-04-26T11:18:18.449Z</time></trkpt><trkpt lat="45.7082332" lon="14.0027354"><ele>569.0</ele><time>2026-04-26T11:18:19.449Z</time></trkpt><trkpt lat="45.7084975" lon="14.0027296"><ele>569.0</ele><time>2026-04-26T11:18:20.449Z</time></trkpt><trkpt lat="45.7087591" lon="14.0027136"><ele>570.5</ele><time>2026-04-26T11:18:21.449Z</time></trkpt><trkpt lat="45.7090189" lon="14.0026964"><ele>572.0</ele><time>2026-04-26T11:18:22.449Z</time></trkpt><trkpt lat="45.7092814" lon="14.0026922"><ele>572.5</ele><time>2026-04-26T11:18:23.45Z</time></trkpt><trkpt lat="45.7095463" lon="14.0027097"><ele>573.0</ele><time>2026-04-26T11:18:24.449Z</time></trkpt><trkpt lat="45.7098124" lon="14.0027415"><ele>573.0</ele><time>2026-04-26T11:18:25.45Z</time></trkpt><trkpt lat="45.7100774" lon="14.0027801"><ele>573.0</ele><time>2026-04-26T11:18:26.449Z</time></trkpt><trkpt lat="45.7103418" lon="14.0028212"><ele>573.0</ele><time>2026-04-26T11:18:27.449Z</time></trkpt><trkpt lat="45.7106082" lon="14.0028647"><ele>573.0</ele><time>2026-04-26T11:18:28.449Z</time></trkpt><trkpt lat="45.7108744" lon="14.0029042"><ele>571.5</ele><time>2026-04-26T11:18:29.45Z</time></trkpt><trkpt lat="45.7111416" lon="14.0029599"><ele>570.0</ele><time>2026-04-26T11:18:30.45Z</time></trkpt><trkpt lat="45.7114069" lon="14.0030218"><ele>570.0</ele><time>2026-04-26T11:18:31.449Z</time></trkpt><trkpt lat="45.71167" lon="14.0030835"><ele>570.0</ele><time>2026-04-26T11:18:32.449Z</time></trkpt><trkpt lat="45.7119328" lon="14.0031577"><ele>570.5</ele><time>2026-04-26T11:18:33.449Z</time></trkpt><trkpt lat="45.7121892" lon="14.0032425"><ele>571.0</ele><time>2026-04-26T11:18:34.449Z</time></trkpt><trkpt lat="45.7124474" lon="14.0033407"><ele>581.0</ele><time>2026-04-26T11:18:35.45Z</time></trkpt><trkpt lat="45.7127027" lon="14.0034542"><ele>591.0</ele><time>2026-04-26T11:18:36.449Z</time></trkpt><trkpt lat="45.7129444" lon="14.0035858"><ele>591.0</ele><time>2026-04-26T11:18:37.449Z</time></trkpt><trkpt lat="45.7131696" lon="14.0037629"><ele>591.0</ele><time>2026-04-26T11:18:38.449Z</time></trkpt><trkpt lat="45.7133702" lon="14.0039637"><ele>593.5</ele><time>2026-04-26T11:18:39.449Z</time></trkpt><trkpt lat="45.7135355" lon="14.0042076"><ele>596.0</ele><time>2026-04-26T11:18:40.449Z</time></trkpt><trkpt lat="45.7136713" lon="14.004496"><ele>596.0</ele><time>2026-04-26T11:18:41.449Z</time></trkpt><trkpt lat="45.7137803" lon="14.0048058"><ele>596.0</ele><time>2026-04-26T11:18:42.449Z</time></trkpt><trkpt lat="45.7138632" lon="14.0051351"><ele>599.5</ele><time>2026-04-26T11:18:43.45Z</time></trkpt><trkpt lat="45.713901" lon="14.0054767"><ele>603.0</ele><time>2026-04-26T11:18:44.45Z</time></trkpt><trkpt lat="45.7138984" lon="14.0058291"><ele>607.5</ele><time>2026-04-26T11:18:45.449Z</time></trkpt><trkpt lat="45.713864" lon="14.0061835"><ele>612.0</ele><time>2026-04-26T11:18:46.449Z</time></trkpt><trkpt lat="45.7137859" lon="14.0065204"><ele>614.0</ele><time>2026-04-26T11:18:47.449Z</time></trkpt><trkpt lat="45.7136766" lon="14.0068487"><ele>616.0</ele><time>2026-04-26T11:18:48.449Z</time></trkpt><trkpt lat="45.7135572" lon="14.0071681"><ele>619.5</ele><time>2026-04-26T11:18:49.448Z</time></trkpt><trkpt lat="45.7134244" lon="14.0074919"><ele>623.0</ele><time>2026-04-26T11:18:50.449Z</time></trkpt><trkpt lat="45.7132911" lon="14.0078229"><ele>623.0</ele><time>2026-04-26T11:18:51.448Z</time></trkpt><trkpt lat="45.7131676" lon="14.0081501"><ele>623.0</ele><time>2026-04-26T11:18:52.448Z</time></trkpt><trkpt lat="45.7130516" lon="14.0084981"><ele>623.0</ele><time>2026-04-26T11:18:53.449Z</time></trkpt><trkpt lat="45.7129459" lon="14.0088551"><ele>623.0</ele><time>2026-04-26T11:18:54.448Z</time></trkpt><trkpt lat="45.7128566" lon="14.009212"><ele>624.5</ele><time>2026-04-26T11:18:55.448Z</time></trkpt><trkpt lat="45.7127746" lon="14.0095758"><ele>626.0</ele><time>2026-04-26T11:18:56.448Z</time></trkpt><trkpt lat="45.7126982" lon="14.0099448"><ele>621.0</ele><time>2026-04-26T11:18:57.448Z</time></trkpt><trkpt lat="45.712617" lon="14.0103032"><ele>616.0</ele><time>2026-04-26T11:18:58.448Z</time></trkpt><trkpt lat="45.7125278" lon="14.0106609"><ele>613.0</ele><time>2026-04-26T11:18:59.448Z</time></trkpt><trkpt lat="45.7124313" lon="14.0110115"><ele>610.0</ele><time>2026-04-26T11:19:00.449Z</time></trkpt><trkpt lat="45.7123244" lon="14.0113584"><ele>605.5</ele><time>2026-04-26T11:19:01.448Z</time></trkpt><trkpt lat="45.7122078" lon="14.0117012"><ele>601.0</ele><time>2026-04-26T11:19:02.448Z</time></trkpt><trkpt lat="45.7120843" lon="14.0120456"><ele>601.0</ele><time>2026-04-26T11:19:03.448Z</time></trkpt><trkpt lat="45.7119555" lon="14.0123851"><ele>601.0</ele><time>2026-04-26T11:19:04.449Z</time></trkpt><trkpt lat="45.7118207" lon="14.012719"><ele>602.5</ele><time>2026-04-26T11:19:05.449Z</time></trkpt><trkpt lat="45.7116713" lon="14.0130504"><ele>604.0</ele><time>2026-04-26T11:19:06.448Z</time></trkpt><trkpt lat="45.7115206" lon="14.0133776"><ele>601.0</ele><time>2026-04-26T11:19:07.448Z</time></trkpt><trkpt lat="45.7113653" lon="14.0136996"><ele>598.0</ele><time>2026-04-26T11:19:08.449Z</time></trkpt><trkpt lat="45.7112051" lon="14.0140145"><ele>598.5</ele><time>2026-04-26T11:19:09.448Z</time></trkpt><trkpt lat="45.711058" lon="14.0143272"><ele>599.0</ele><time>2026-04-26T11:19:10.448Z</time></trkpt><trkpt lat="45.7109346" lon="14.0146505"><ele>599.0</ele><time>2026-04-26T11:19:11.448Z</time></trkpt><trkpt lat="45.7108296" lon="14.0149829"><ele>599.0</ele><time>2026-04-26T11:19:12.448Z</time></trkpt><trkpt lat="45.7107531" lon="14.0153253"><ele>596.0</ele><time>2026-04-26T11:19:13.448Z</time></trkpt><trkpt lat="45.7107133" lon="14.0156826"><ele>593.0</ele><time>2026-04-26T11:19:14.448Z</time></trkpt><trkpt lat="45.7107112" lon="14.0160408"><ele>590.5</ele><time>2026-04-26T11:19:15.448Z</time></trkpt><trkpt lat="45.7107421" lon="14.0164082"><ele>588.0</ele><time>2026-04-26T11:19:16.448Z</time></trkpt><trkpt lat="45.710804" lon="14.0167648"><ele>587.0</ele><time>2026-04-26T11:19:17.448Z</time></trkpt><trkpt lat="45.710906" lon="14.0170915"><ele>586.0</ele><time>2026-04-26T11:19:18.448Z</time></trkpt><trkpt lat="45.7110388" lon="14.0174028"><ele>586.5</ele><time>2026-04-26T11:19:19.448Z</time></trkpt><trkpt lat="45.7111913" lon="14.0176883"><ele>587.0</ele><time>2026-04-26T11:19:20.448Z</time></trkpt><trkpt lat="45.711373" lon="14.0179494"><ele>587.0</ele><time>2026-04-26T11:19:21.449Z</time></trkpt><trkpt lat="45.7115622" lon="14.0182129"><ele>587.0</ele><time>2026-04-26T11:19:22.448Z</time></trkpt><trkpt lat="45.7117555" lon="14.0184731"><ele>587.0</ele><time>2026-04-26T11:19:23.449Z</time></trkpt><trkpt lat="45.7119501" lon="14.01874"><ele>587.0</ele><time>2026-04-26T11:19:24.448Z</time></trkpt><trkpt lat="45.7121395" lon="14.0190074"><ele>587.0</ele><time>2026-04-26T11:19:25.448Z</time></trkpt><trkpt lat="45.712334" lon="14.0192829"><ele>587.0</ele><time>2026-04-26T11:19:26.448Z</time></trkpt><trkpt lat="45.7125322" lon="14.0195549"><ele>587.0</ele><time>2026-04-26T11:19:27.448Z</time></trkpt><trkpt lat="45.7127302" lon="14.0198255"><ele>587.0</ele><time>2026-04-26T11:19:28.448Z</time></trkpt><trkpt lat="45.7129203" lon="14.0200925"><ele>584.0</ele><time>2026-04-26T11:19:29.448Z</time></trkpt><trkpt lat="45.7131024" lon="14.0203478"><ele>581.0</ele><time>2026-04-26T11:19:30.448Z</time></trkpt><trkpt lat="45.7132777" lon="14.0205827"><ele>582.5</ele><time>2026-04-26T11:19:31.448Z</time></trkpt><trkpt lat="45.7134299" lon="14.0208352"><ele>584.0</ele><time>2026-04-26T11:19:32.449Z</time></trkpt><trkpt lat="45.7135686" lon="14.0211261"><ele>577.5</ele><time>2026-04-26T11:19:33.449Z</time></trkpt><trkpt lat="45.7136836" lon="14.021428"><ele>571.0</ele><time>2026-04-26T11:19:34.448Z</time></trkpt><trkpt lat="45.7137713" lon="14.0217412"><ele>571.0</ele><time>2026-04-26T11:19:35.448Z</time></trkpt><trkpt lat="45.7138418" lon="14.0220799"><ele>571.0</ele><time>2026-04-26T11:19:36.448Z</time></trkpt><trkpt lat="45.7138792" lon="14.0224265"><ele>570.0</ele><time>2026-04-26T11:19:37.449Z</time></trkpt><trkpt lat="45.7139087" lon="14.0227774"><ele>569.0</ele><time>2026-04-26T11:19:38.448Z</time></trkpt><trkpt lat="45.7139417" lon="14.0231315"><ele>569.0</ele><time>2026-04-26T11:19:39.448Z</time></trkpt><trkpt lat="45.7139853" lon="14.0234863"><ele>569.0</ele><time>2026-04-26T11:19:40.448Z</time></trkpt><trkpt lat="45.714041" lon="14.0238467"><ele>571.0</ele><time>2026-04-26T11:19:41.448Z</time></trkpt><trkpt lat="45.7141006" lon="14.0241998"><ele>573.0</ele><time>2026-04-26T11:19:42.448Z</time></trkpt><trkpt lat="45.714174" lon="14.0245508"><ele>573.0</ele><time>2026-04-26T11:19:43.448Z</time></trkpt><trkpt lat="45.7142588" lon="14.0249097"><ele>573.0</ele><time>2026-04-26T11:19:44.448Z</time></trkpt><trkpt lat="45.7143529" lon="14.0252727"><ele>568.0</ele><time>2026-04-26T11:19:45.448Z</time></trkpt><trkpt lat="45.7144478" lon="14.0256326"><ele>563.0</ele><time>2026-04-26T11:19:46.448Z</time></trkpt><trkpt lat="45.714546" lon="14.0259956"><ele>563.5</ele><time>2026-04-26T11:19:47.448Z</time></trkpt><trkpt lat="45.7146465" lon="14.0263504"><ele>564.0</ele><time>2026-04-26T11:19:48.448Z</time></trkpt><trkpt lat="45.7147416" lon="14.0266971"><ele>564.0</ele><time>2026-04-26T11:19:49.448Z</time></trkpt><trkpt lat="45.7148244" lon="14.0270344"><ele>564.0</ele><time>2026-04-26T11:19:50.448Z</time></trkpt><trkpt lat="45.7149011" lon="14.0273694"><ele>565.0</ele><time>2026-04-26T11:19:51.448Z</time></trkpt><trkpt lat="45.7149741" lon="14.0276983"><ele>566.0</ele><time>2026-04-26T11:19:52.448Z</time></trkpt><trkpt lat="45.7150501" lon="14.0280209"><ele>569.5</ele><time>2026-04-26T11:19:53.448Z</time></trkpt><trkpt lat="45.715126" lon="14.0283441"><ele>573.0</ele><time>2026-04-26T11:19:54.448Z</time></trkpt><trkpt lat="45.7152027" lon="14.0286526"><ele>567.0</ele><time>2026-04-26T11:19:55.449Z</time></trkpt><trkpt lat="45.7152847" lon="14.0289484"><ele>561.0</ele><time>2026-04-26T11:19:56.448Z</time></trkpt><trkpt lat="45.715388" lon="14.0292407"><ele>561.0</ele><time>2026-04-26T11:19:57.448Z</time></trkpt><trkpt lat="45.7154962" lon="14.0295271"><ele>561.0</ele><time>2026-04-26T11:19:58.448Z</time></trkpt><trkpt lat="45.7156134" lon="14.0298063"><ele>562.5</ele><time>2026-04-26T11:19:59.448Z</time></trkpt><trkpt lat="45.7157393" lon="14.0300925"><ele>564.0</ele><time>2026-04-26T11:20:00.448Z</time></trkpt><trkpt lat="45.7158637" lon="14.0303809"><ele>564.0</ele><time>2026-04-26T11:20:01.448Z</time></trkpt><trkpt lat="45.7159835" lon="14.0306837"><ele>564.0</ele><time>2026-04-26T11:20:02.448Z</time></trkpt><trkpt lat="45.7160833" lon="14.0309923"><ele>562.0</ele><time>2026-04-26T11:20:03.448Z</time></trkpt><trkpt lat="45.7161645" lon="14.0313124"><ele>560.0</ele><time>2026-04-26T11:20:04.448Z</time></trkpt><trkpt lat="45.7162346" lon="14.0316428"><ele>560.0</ele><time>2026-04-26T11:20:05.448Z</time></trkpt><trkpt lat="45.7162886" lon="14.0319762"><ele>560.0</ele><time>2026-04-26T11:20:06.448Z</time></trkpt><trkpt lat="45.7163508" lon="14.0323096"><ele>560.5</ele><time>2026-04-26T11:20:07.448Z</time></trkpt><trkpt lat="45.7164218" lon="14.0326292"><ele>561.0</ele><time>2026-04-26T11:20:08.448Z</time></trkpt><trkpt lat="45.716511" lon="14.0329482"><ele>561.0</ele><time>2026-04-26T11:20:09.448Z</time></trkpt><trkpt lat="45.7166228" lon="14.0332405"><ele>561.0</ele><time>2026-04-26T11:20:10.448Z</time></trkpt><trkpt lat="45.7167595" lon="14.03352"><ele>562.5</ele><time>2026-04-26T11:20:11.449Z</time></trkpt><trkpt lat="45.7169136" lon="14.0337634"><ele>564.0</ele><time>2026-04-26T11:20:12.448Z</time></trkpt><trkpt lat="45.7170856" lon="14.0339961"><ele>564.5</ele><time>2026-04-26T11:20:13.449Z</time></trkpt><trkpt lat="45.7172813" lon="14.0341832"><ele>565.0</ele><time>2026-04-26T11:20:14.448Z</time></trkpt><trkpt lat="45.7174793" lon="14.0343401"><ele>565.0</ele><time>2026-04-26T11:20:15.448Z</time></trkpt><trkpt lat="45.7176824" lon="14.0344714"><ele>565.0</ele><time>2026-04-26T11:20:16.448Z</time></trkpt><trkpt lat="45.71789" lon="14.0345831"><ele>565.0</ele><time>2026-04-26T11:20:17.448Z</time></trkpt><trkpt lat="45.7180975" lon="14.0346997"><ele>565.3333333333334</ele><time>2026-04-26T11:20:18.448Z</time></trkpt><trkpt lat="45.7182965" lon="14.034815"><ele>565.6666666666666</ele><time>2026-04-26T11:20:19.448Z</time></trkpt><trkpt lat="45.7184912" lon="14.0349265"><ele>566.0</ele><time>2026-04-26T11:20:20.448Z</time></trkpt><trkpt lat="45.7186835" lon="14.0350365"><ele>566.0</ele><time>2026-04-26T11:20:21.448Z</time></trkpt><trkpt lat="45.7188722" lon="14.0351437"><ele>566.0</ele><time>2026-04-26T11:20:22.448Z</time></trkpt><trkpt lat="45.7190585" lon="14.0352502"><ele>566.0</ele><time>2026-04-26T11:20:23.448Z</time></trkpt><trkpt lat="45.719243" lon="14.0353612"><ele>564.3333333333333</ele><time>2026-04-26T11:20:24.448Z</time></trkpt><trkpt lat="45.7194211" lon="14.0354798"><ele>562.6666666666666</ele><time>2026-04-26T11:20:25.448Z</time></trkpt><trkpt lat="45.7195976" lon="14.0356022"><ele>561.0</ele><time>2026-04-26T11:20:26.448Z</time></trkpt><trkpt lat="45.719767" lon="14.0357379"><ele>561.0</ele><time>2026-04-26T11:20:27.448Z</time></trkpt><trkpt lat="45.7199242" lon="14.0358886"><ele>561.0</ele><time>2026-04-26T11:20:28.448Z</time></trkpt><trkpt lat="45.720066" lon="14.0360714"><ele>561.0</ele><time>2026-04-26T11:20:29.448Z</time></trkpt><trkpt lat="45.7201924" lon="14.0362736"><ele>560.3333333333334</ele><time>2026-04-26T11:20:30.448Z</time></trkpt><trkpt lat="45.7203068" lon="14.0364786"><ele>559.6666666666667</ele><time>2026-04-26T11:20:31.448Z</time></trkpt><trkpt lat="45.7203952" lon="14.0366993"><ele>559.0</ele><time>2026-04-26T11:20:32.448Z</time></trkpt><trkpt lat="45.7204816" lon="14.0369192"><ele>559.0</ele><time>2026-04-26T11:20:33.449Z</time></trkpt><trkpt lat="45.7205491" lon="14.0371548"><ele>559.0</ele><time>2026-04-26T11:20:34.448Z</time></trkpt><trkpt lat="45.7205973" lon="14.0373989"><ele>559.0</ele><time>2026-04-26T11:20:35.448Z</time></trkpt><trkpt lat="45.7206381" lon="14.0376429"><ele>559.3333333333334</ele><time>2026-04-26T11:20:36.448Z</time></trkpt><trkpt lat="45.7206713" lon="14.0378741"><ele>559.6666666666666</ele><time>2026-04-26T11:20:37.448Z</time></trkpt><trkpt lat="45.7207053" lon="14.0380974"><ele>560.0</ele><time>2026-04-26T11:20:38.448Z</time></trkpt><trkpt lat="45.7207389" lon="14.0383043"><ele>560.75</ele><time>2026-04-26T11:20:39.448Z</time></trkpt><trkpt lat="45.7207697" lon="14.0384953"><ele>561.5</ele><time>2026-04-26T11:20:40.448Z</time></trkpt><trkpt lat="45.7208058" lon="14.0386694"><ele>562.25</ele><time>2026-04-26T11:20:41.448Z</time></trkpt><trkpt lat="45.7208433" lon="14.0388364"><ele>563.0</ele><time>2026-04-26T11:20:42.448Z</time></trkpt><trkpt lat="45.7208835" lon="14.0390052"><ele>563.25</ele><time>2026-04-26T11:20:43.449Z</time></trkpt><trkpt lat="45.7209331" lon="14.0391679"><ele>563.5</ele><time>2026-04-26T11:20:44.448Z</time></trkpt><trkpt lat="45.7209786" lon="14.039328"><ele>563.75</ele><time>2026-04-26T11:20:45.448Z</time></trkpt><trkpt lat="45.7210243" lon="14.0394823"><ele>564.0</ele><time>2026-04-26T11:20:46.448Z</time></trkpt><trkpt lat="45.7210666" lon="14.0396207"><ele>564.0</ele><time>2026-04-26T11:20:47.448Z</time></trkpt><trkpt lat="45.7211062" lon="14.0397512"><ele>564.0</ele><time>2026-04-26T11:20:48.448Z</time></trkpt><trkpt lat="45.7211415" lon="14.0398769"><ele>564.0</ele><time>2026-04-26T11:20:49.448Z</time></trkpt><trkpt lat="45.7211781" lon="14.0400051"><ele>564.0</ele><time>2026-04-26T11:20:50.448Z</time></trkpt><trkpt lat="45.7212178" lon="14.0401473"><ele>564.0</ele><time>2026-04-26T11:20:51.448Z</time></trkpt><trkpt lat="45.7212585" lon="14.0403002"><ele>564.0</ele><time>2026-04-26T11:20:52.448Z</time></trkpt><trkpt lat="45.7213011" lon="14.0404574"><ele>564.0</ele><time>2026-04-26T11:20:53.448Z</time></trkpt><trkpt lat="45.7213473" lon="14.0406213"><ele>564.0</ele><time>2026-04-26T11:20:54.448Z</time></trkpt><trkpt lat="45.7213951" lon="14.0407885"><ele>564.0</ele><time>2026-04-26T11:20:55.448Z</time></trkpt><trkpt lat="45.72144" lon="14.0409516"><ele>564.25</ele><time>2026-04-26T11:20:56.448Z</time></trkpt><trkpt lat="45.7214872" lon="14.0411277"><ele>564.5</ele><time>2026-04-26T11:20:57.448Z</time></trkpt><trkpt lat="45.721534" lon="14.0413028"><ele>564.75</ele><time>2026-04-26T11:20:58.448Z</time></trkpt><trkpt lat="45.7215845" lon="14.0414825"><ele>565.0</ele><time>2026-04-26T11:20:59.449Z</time></trkpt><trkpt lat="45.7216349" lon="14.0416555"><ele>565.75</ele><time>2026-04-26T11:21:00.448Z</time></trkpt><trkpt lat="45.7216794" lon="14.0418374"><ele>566.5</ele><time>2026-04-26T11:21:01.448Z</time></trkpt><trkpt lat="45.7217209" lon="14.0420202"><ele>567.25</ele><time>2026-04-26T11:21:02.448Z</time></trkpt><trkpt lat="45.721763" lon="14.0422035"><ele>568.0</ele><time>2026-04-26T11:21:03.448Z</time></trkpt><trkpt lat="45.7218087" lon="14.0423817"><ele>567.5</ele><time>2026-04-26T11:21:04.448Z</time></trkpt><trkpt lat="45.7218526" lon="14.0425669"><ele>567.0</ele><time>2026-04-26T11:21:05.448Z</time></trkpt><trkpt lat="45.7218961" lon="14.0427437"><ele>566.5</ele><time>2026-04-26T11:21:06.448Z</time></trkpt><trkpt lat="45.7219372" lon="14.0429237"><ele>566.0</ele><time>2026-04-26T11:21:07.448Z</time></trkpt><trkpt lat="45.7219835" lon="14.043107"><ele>566.0</ele><time>2026-04-26T11:21:08.449Z</time></trkpt><trkpt lat="45.7220272" lon="14.0432948"><ele>566.0</ele><time>2026-04-26T11:21:09.448Z</time></trkpt><trkpt lat="45.7220736" lon="14.0434722"><ele>566.0</ele><time>2026-04-26T11:21:10.449Z</time></trkpt><trkpt lat="45.7221213" lon="14.0436436"><ele>566.0</ele><time>2026-04-26T11:21:11.448Z</time></trkpt><trkpt lat="45.7221749" lon="14.0438187"><ele>566.0</ele><time>2026-04-26T11:21:12.449Z</time></trkpt><trkpt lat="45.7222232" lon="14.0439894"><ele>566.0</ele><time>2026-04-26T11:21:13.448Z</time></trkpt><trkpt lat="45.7222779" lon="14.0441587"><ele>566.0</ele><time>2026-04-26T11:21:14.449Z</time></trkpt><trkpt lat="45.7223319" lon="14.0443247"><ele>566.0</ele><time>2026-04-26T11:21:15.448Z</time></trkpt><trkpt lat="45.7223899" lon="14.0444863"><ele>566.0</ele><time>2026-04-26T11:21:16.449Z</time></trkpt><trkpt lat="45.7224482" lon="14.0446478"><ele>566.0</ele><time>2026-04-26T11:21:17.448Z</time></trkpt><trkpt lat="45.7225153" lon="14.0448049"><ele>566.0</ele><time>2026-04-26T11:21:18.448Z</time></trkpt><trkpt lat="45.722586" lon="14.0449635"><ele>566.0</ele><time>2026-04-26T11:21:19.448Z</time></trkpt><trkpt lat="45.7226585" lon="14.045119"><ele>566.0</ele><time>2026-04-26T11:21:20.448Z</time></trkpt><trkpt lat="45.7227344" lon="14.0452744"><ele>566.0</ele><time>2026-04-26T11:21:21.448Z</time></trkpt><trkpt lat="45.7228156" lon="14.0454261"><ele>566.0</ele><time>2026-04-26T11:21:22.448Z</time></trkpt><trkpt lat="45.7228971" lon="14.0455758"><ele>566.0</ele><time>2026-04-26T11:21:23.448Z</time></trkpt><trkpt lat="45.722975" lon="14.0457243"><ele>566.2</ele><time>2026-04-26T11:21:24.448Z</time></trkpt><trkpt lat="45.7230469" lon="14.0458615"><ele>566.4000000000001</ele><time>2026-04-26T11:21:25.448Z</time></trkpt><trkpt lat="45.7231129" lon="14.0459858"><ele>566.6</ele><time>2026-04-26T11:21:26.449Z</time></trkpt><trkpt lat="45.7231827" lon="14.0461022"><ele>566.8000000000001</ele><time>2026-04-26T11:21:27.448Z</time></trkpt><trkpt lat="45.7232385" lon="14.0462093"><ele>567.0</ele><time>2026-04-26T11:21:28.448Z</time></trkpt><trkpt lat="45.7232876" lon="14.0463007"><ele>567.0</ele><time>2026-04-26T11:21:29.448Z</time></trkpt><trkpt lat="45.7233738" lon="14.0463562"><ele>567.0</ele><time>2026-04-26T11:21:31.448Z</time></trkpt><trkpt lat="45.7234148" lon="14.0462656"><ele>567.0</ele><time>2026-04-26T11:21:33.448Z</time></trkpt><trkpt lat="45.7233838" lon="14.0461167"><ele>567.0</ele><time>2026-04-26T11:21:35.449Z</time></trkpt><trkpt lat="45.7233445" lon="14.0459975"><ele>567.0</ele><time>2026-04-26T11:21:37.448Z</time></trkpt><trkpt lat="45.7233018" lon="14.0459031"><ele>567.0</ele><time>2026-04-26T11:21:39.448Z</time></trkpt><trkpt lat="45.723257" lon="14.0458139"><ele>566.8000000000001</ele><time>2026-04-26T11:21:41.448Z</time></trkpt><trkpt lat="45.723217" lon="14.0457132"><ele>566.6</ele><time>2026-04-26T11:25:15.448Z</time></trkpt><trkpt lat="45.7231536" lon="14.0456109"><ele>566.4000000000001</ele><time>2026-04-26T11:25:18.449Z</time></trkpt><trkpt lat="45.7230651" lon="14.0455316"><ele>566.2</ele><time>2026-04-26T11:25:20.448Z</time></trkpt><trkpt lat="45.7229759" lon="14.0454743"><ele>566.0</ele><time>2026-04-26T11:25:22.448Z</time></trkpt><trkpt lat="45.7229041" lon="14.0455379"><ele>566.0</ele><time>2026-04-26T11:25:25.448Z</time></trkpt><trkpt lat="45.7229381" lon="14.0456728"><ele>566.0</ele><time>2026-04-26T11:25:27.448Z</time></trkpt><trkpt lat="45.7229855" lon="14.0457463"><ele>566.0</ele><time>2026-04-26T11:25:28.448Z</time></trkpt><trkpt lat="45.7230342" lon="14.0458206"><ele>566.0</ele><time>2026-04-26T11:25:29.448Z</time></trkpt><trkpt lat="45.7230847" lon="14.0459292"><ele>566.0</ele><time>2026-04-26T11:25:30.448Z</time></trkpt><trkpt lat="45.7231475" lon="14.0460344"><ele>566.0</ele><time>2026-04-26T11:25:31.448Z</time></trkpt><trkpt lat="45.7232123" lon="14.0461513"><ele>566.25</ele><time>2026-04-26T11:25:32.448Z</time></trkpt><trkpt lat="45.7232749" lon="14.0462779"><ele>566.5</ele><time>2026-04-26T11:25:33.448Z</time></trkpt><trkpt lat="45.7233475" lon="14.0464105"><ele>566.75</ele><time>2026-04-26T11:25:34.448Z</time></trkpt><trkpt lat="45.7234209" lon="14.0465545"><ele>567.0</ele><time>2026-04-26T11:25:35.448Z</time></trkpt><trkpt lat="45.7235056" lon="14.0467001"><ele>567.5</ele><time>2026-04-26T11:25:36.449Z</time></trkpt><trkpt lat="45.7235908" lon="14.0468508"><ele>568.0</ele><time>2026-04-26T11:25:37.448Z</time></trkpt><trkpt lat="45.7236875" lon="14.046999"><ele>568.5</ele><time>2026-04-26T11:25:38.449Z</time></trkpt><trkpt lat="45.7237961" lon="14.0471387"><ele>569.0</ele><time>2026-04-26T11:25:39.449Z</time></trkpt><trkpt lat="45.7239083" lon="14.047274"><ele>569.0</ele><time>2026-04-26T11:25:40.448Z</time></trkpt><trkpt lat="45.7240297" lon="14.047404"><ele>569.0</ele><time>2026-04-26T11:25:41.448Z</time></trkpt><trkpt lat="45.7241631" lon="14.0475272"><ele>569.0</ele><time>2026-04-26T11:25:42.449Z</time></trkpt><trkpt lat="45.7243106" lon="14.0476513"><ele>570.6666666666666</ele><time>2026-04-26T11:25:43.449Z</time></trkpt><trkpt lat="45.7244719" lon="14.0477877"><ele>572.3333333333334</ele><time>2026-04-26T11:25:44.448Z</time></trkpt><trkpt lat="45.7246464" lon="14.0479232"><ele>574.0</ele><time>2026-04-26T11:25:45.448Z</time></trkpt><trkpt lat="45.724829" lon="14.0480716"><ele>574.0</ele><time>2026-04-26T11:25:46.448Z</time></trkpt><trkpt lat="45.7250306" lon="14.048246"><ele>574.0</ele><time>2026-04-26T11:25:47.449Z</time></trkpt><trkpt lat="45.7252411" lon="14.0484268"><ele>576.0</ele><time>2026-04-26T11:25:48.448Z</time></trkpt><trkpt lat="45.7254599" lon="14.0485965"><ele>578.0</ele><time>2026-04-26T11:25:49.448Z</time></trkpt><trkpt lat="45.7256905" lon="14.0487746"><ele>578.0</ele><time>2026-04-26T11:25:50.448Z</time></trkpt><trkpt lat="45.7259232" lon="14.048959"><ele>578.0</ele><time>2026-04-26T11:25:51.448Z</time></trkpt><trkpt lat="45.7261483" lon="14.0491415"><ele>583.0</ele><time>2026-04-26T11:25:52.448Z</time></trkpt><trkpt lat="45.7263739" lon="14.0493113"><ele>588.0</ele><time>2026-04-26T11:25:53.448Z</time></trkpt><trkpt lat="45.7266026" lon="14.0494718"><ele>588.0</ele><time>2026-04-26T11:25:54.449Z</time></trkpt><trkpt lat="45.7268407" lon="14.0496205"><ele>588.0</ele><time>2026-04-26T11:25:55.448Z</time></trkpt><trkpt lat="45.7270806" lon="14.0497543"><ele>588.0</ele><time>2026-04-26T11:25:56.449Z</time></trkpt><trkpt lat="45.7273233" lon="14.049876"><ele>588.0</ele><time>2026-04-26T11:25:57.448Z</time></trkpt><trkpt lat="45.7275673" lon="14.0499898"><ele>592.5</ele><time>2026-04-26T11:25:58.448Z</time></trkpt><trkpt lat="45.7278141" lon="14.0501172"><ele>597.0</ele><time>2026-04-26T11:25:59.448Z</time></trkpt><trkpt lat="45.7280623" lon="14.0502358"><ele>597.0</ele><time>2026-04-26T11:26:00.448Z</time></trkpt><trkpt lat="45.7283097" lon="14.050347"><ele>597.0</ele><time>2026-04-26T11:26:01.448Z</time></trkpt><trkpt lat="45.7285616" lon="14.0504556"><ele>600.5</ele><time>2026-04-26T11:26:02.448Z</time></trkpt><trkpt lat="45.7288154" lon="14.0505416"><ele>604.0</ele><time>2026-04-26T11:26:03.448Z</time></trkpt><trkpt lat="45.7290748" lon="14.0505777"><ele>604.0</ele><time>2026-04-26T11:26:04.448Z</time></trkpt><trkpt lat="45.7293405" lon="14.0505907"><ele>604.0</ele><time>2026-04-26T11:26:05.448Z</time></trkpt><trkpt lat="45.7296033" lon="14.0505902"><ele>598.5</ele><time>2026-04-26T11:26:06.449Z</time></trkpt><trkpt lat="45.7298607" lon="14.0505894"><ele>593.0</ele><time>2026-04-26T11:26:07.449Z</time></trkpt><trkpt lat="45.7301158" lon="14.0505964"><ele>591.5</ele><time>2026-04-26T11:26:08.448Z</time></trkpt><trkpt lat="45.7303755" lon="14.0506114"><ele>590.0</ele><time>2026-04-26T11:26:09.449Z</time></trkpt><trkpt lat="45.7306286" lon="14.0506574"><ele>590.0</ele><time>2026-04-26T11:26:10.448Z</time></trkpt><trkpt lat="45.7308853" lon="14.0507092"><ele>590.0</ele><time>2026-04-26T11:26:11.448Z</time></trkpt><trkpt lat="45.7311387" lon="14.0507627"><ele>589.5</ele><time>2026-04-26T11:26:12.448Z</time></trkpt><trkpt lat="45.7313891" lon="14.0508181"><ele>589.0</ele><time>2026-04-26T11:26:13.449Z</time></trkpt><trkpt lat="45.7316385" lon="14.0508751"><ele>589.0</ele><time>2026-04-26T11:26:14.448Z</time></trkpt><trkpt lat="45.7318961" lon="14.0509325"><ele>589.0</ele><time>2026-04-26T11:26:15.448Z</time></trkpt><trkpt lat="45.7321511" lon="14.0509983"><ele>589.0</ele><time>2026-04-26T11:26:16.448Z</time></trkpt><trkpt lat="45.7324094" lon="14.0510566"><ele>589.0</ele><time>2026-04-26T11:26:17.448Z</time></trkpt><trkpt lat="45.732656" lon="14.0511161"><ele>592.0</ele><time>2026-04-26T11:26:18.448Z</time></trkpt><trkpt lat="45.7329031" lon="14.0511699"><ele>595.0</ele><time>2026-04-26T11:26:19.448Z</time></trkpt><trkpt lat="45.733151" lon="14.0512244"><ele>595.0</ele><time>2026-04-26T11:26:20.448Z</time></trkpt><trkpt lat="45.7334013" lon="14.0512781"><ele>595.0</ele><time>2026-04-26T11:26:21.448Z</time></trkpt><trkpt lat="45.7336546" lon="14.0513323"><ele>595.5</ele><time>2026-04-26T11:26:22.448Z</time></trkpt><trkpt lat="45.7339127" lon="14.0513759"><ele>596.0</ele><time>2026-04-26T11:26:23.448Z</time></trkpt><trkpt lat="45.7341582" lon="14.0514322"><ele>600.0</ele><time>2026-04-26T11:26:24.448Z</time></trkpt><trkpt lat="45.7344061" lon="14.0514903"><ele>604.0</ele><time>2026-04-26T11:26:25.448Z</time></trkpt><trkpt lat="45.7346522" lon="14.0515543"><ele>598.5</ele><time>2026-04-26T11:26:26.448Z</time></trkpt><trkpt lat="45.7348977" lon="14.0516262"><ele>593.0</ele><time>2026-04-26T11:26:27.448Z</time></trkpt><trkpt lat="45.7351441" lon="14.0516973"><ele>593.5</ele><time>2026-04-26T11:26:28.448Z</time></trkpt><trkpt lat="45.7353895" lon="14.0517668"><ele>594.0</ele><time>2026-04-26T11:26:29.448Z</time></trkpt><trkpt lat="45.7356357" lon="14.0518296"><ele>594.0</ele><time>2026-04-26T11:26:30.448Z</time></trkpt><trkpt lat="45.7358802" lon="14.0518889"><ele>594.0</ele><time>2026-04-26T11:26:31.448Z</time></trkpt><trkpt lat="45.7361226" lon="14.0519499"><ele>596.0</ele><time>2026-04-26T11:26:32.449Z</time></trkpt><trkpt lat="45.7363609" lon="14.0520287"><ele>598.0</ele><time>2026-04-26T11:26:33.448Z</time></trkpt><trkpt lat="45.7365932" lon="14.0521307"><ele>598.0</ele><time>2026-04-26T11:26:34.448Z</time></trkpt><trkpt lat="45.73682" lon="14.05225"><ele>598.0</ele><time>2026-04-26T11:26:35.448Z</time></trkpt><trkpt lat="45.7370452" lon="14.0523658"><ele>597.0</ele><time>2026-04-26T11:26:36.448Z</time></trkpt><trkpt lat="45.7372753" lon="14.0524783"><ele>596.0</ele><time>2026-04-26T11:26:37.448Z</time></trkpt><trkpt lat="45.7375026" lon="14.0525933"><ele>598.5</ele><time>2026-04-26T11:26:38.448Z</time></trkpt><trkpt lat="45.7377351" lon="14.0527064"><ele>601.0</ele><time>2026-04-26T11:26:39.448Z</time></trkpt><trkpt lat="45.7379643" lon="14.0528218"><ele>601.0</ele><time>2026-04-26T11:26:40.448Z</time></trkpt><trkpt lat="45.7381936" lon="14.0529313"><ele>601.0</ele><time>2026-04-26T11:26:41.448Z</time></trkpt><trkpt lat="45.7384235" lon="14.0530362"><ele>604.5</ele><time>2026-04-26T11:26:42.449Z</time></trkpt><trkpt lat="45.738655" lon="14.0531306"><ele>608.0</ele><time>2026-04-26T11:26:43.448Z</time></trkpt><trkpt lat="45.7388865" lon="14.0532078"><ele>608.0</ele><time>2026-04-26T11:26:44.448Z</time></trkpt><trkpt lat="45.7391149" lon="14.0532606"><ele>608.0</ele><time>2026-04-26T11:26:45.448Z</time></trkpt><trkpt lat="45.7393467" lon="14.0532999"><ele>605.0</ele><time>2026-04-26T11:26:46.448Z</time></trkpt><trkpt lat="45.7395767" lon="14.0533266"><ele>602.0</ele><time>2026-04-26T11:26:47.448Z</time></trkpt><trkpt lat="45.7398075" lon="14.0533641"><ele>602.0</ele><time>2026-04-26T11:26:48.448Z</time></trkpt><trkpt lat="45.7400337" lon="14.0534211"><ele>602.0</ele><time>2026-04-26T11:26:49.448Z</time></trkpt><trkpt lat="45.7402526" lon="14.0535117"><ele>603.0</ele><time>2026-04-26T11:26:50.448Z</time></trkpt><trkpt lat="45.7404689" lon="14.05362"><ele>604.0</ele><time>2026-04-26T11:26:51.448Z</time></trkpt><trkpt lat="45.7406794" lon="14.053751"><ele>604.0</ele><time>2026-04-26T11:26:52.448Z</time></trkpt><trkpt lat="45.7408814" lon="14.0539013"><ele>604.0</ele><time>2026-04-26T11:26:53.448Z</time></trkpt><trkpt lat="45.7410749" lon="14.0540731"><ele>611.0</ele><time>2026-04-26T11:26:54.448Z</time></trkpt><trkpt lat="45.7412613" lon="14.0542615"><ele>618.0</ele><time>2026-04-26T11:26:55.448Z</time></trkpt><trkpt lat="45.7414381" lon="14.0544682"><ele>618.0</ele><time>2026-04-26T11:26:56.448Z</time></trkpt><trkpt lat="45.7416036" lon="14.0546975"><ele>618.0</ele><time>2026-04-26T11:26:57.448Z</time></trkpt><trkpt lat="45.7417562" lon="14.0549506"><ele>621.0</ele><time>2026-04-26T11:26:58.448Z</time></trkpt><trkpt lat="45.7418871" lon="14.0552295"><ele>624.0</ele><time>2026-04-26T11:26:59.448Z</time></trkpt><trkpt lat="45.7419915" lon="14.0555384"><ele>627.0</ele><time>2026-04-26T11:27:00.448Z</time></trkpt><trkpt lat="45.7420733" lon="14.0558555"><ele>630.0</ele><time>2026-04-26T11:27:01.448Z</time></trkpt><trkpt lat="45.742146" lon="14.0561805"><ele>630.0</ele><time>2026-04-26T11:27:02.448Z</time></trkpt><trkpt lat="45.7422232" lon="14.0565059"><ele>630.0</ele><time>2026-04-26T11:27:03.448Z</time></trkpt><trkpt lat="45.7423078" lon="14.056826"><ele>631.0</ele><time>2026-04-26T11:27:04.448Z</time></trkpt><trkpt lat="45.7423727" lon="14.0571516"><ele>632.0</ele><time>2026-04-26T11:27:05.448Z</time></trkpt><trkpt lat="45.7423925" lon="14.0574956"><ele>632.0</ele><time>2026-04-26T11:27:06.448Z</time></trkpt><trkpt lat="45.7423814" lon="14.0578361"><ele>632.0</ele><time>2026-04-26T11:27:07.449Z</time></trkpt><trkpt lat="45.7423377" lon="14.0581715"><ele>633.3333333333333</ele><time>2026-04-26T11:27:08.448Z</time></trkpt><trkpt lat="45.742266" lon="14.0584878"><ele>634.6666666666666</ele><time>2026-04-26T11:27:09.449Z</time></trkpt><trkpt lat="45.742214" lon="14.0587835"><ele>636.0</ele><time>2026-04-26T11:27:10.448Z</time></trkpt><trkpt lat="45.7422276" lon="14.0591063"><ele>636.5</ele><time>2026-04-26T11:27:11.448Z</time></trkpt><trkpt lat="45.7422649" lon="14.059431"><ele>637.0</ele><time>2026-04-26T11:27:12.448Z</time></trkpt><trkpt lat="45.7423194" lon="14.0597667"><ele>638.0</ele><time>2026-04-26T11:27:13.448Z</time></trkpt><trkpt lat="45.7423614" lon="14.0601121"><ele>639.0</ele><time>2026-04-26T11:27:14.448Z</time></trkpt><trkpt lat="45.7424116" lon="14.0604697"><ele>640.5</ele><time>2026-04-26T11:27:15.448Z</time></trkpt><trkpt lat="45.7424621" lon="14.0608266"><ele>642.0</ele><time>2026-04-26T11:27:16.449Z</time></trkpt><trkpt lat="45.7425041" lon="14.0611921"><ele>642.0</ele><time>2026-04-26T11:27:17.448Z</time></trkpt><trkpt lat="45.742552" lon="14.0615582"><ele>642.0</ele><time>2026-04-26T11:27:18.448Z</time></trkpt><trkpt lat="45.7426377" lon="14.0619123"><ele>643.5</ele><time>2026-04-26T11:27:19.448Z</time></trkpt><trkpt lat="45.7427497" lon="14.0622488"><ele>645.0</ele><time>2026-04-26T11:27:20.448Z</time></trkpt><trkpt lat="45.7428874" lon="14.0625637"><ele>645.0</ele><time>2026-04-26T11:27:21.448Z</time></trkpt><trkpt lat="45.7430353" lon="14.0628686"><ele>645.0</ele><time>2026-04-26T11:27:22.448Z</time></trkpt><trkpt lat="45.7431577" lon="14.0631576"><ele>643.3333333333334</ele><time>2026-04-26T11:27:23.448Z</time></trkpt><trkpt lat="45.7432846" lon="14.0634192"><ele>641.6666666666667</ele><time>2026-04-26T11:27:24.448Z</time></trkpt><trkpt lat="45.7434091" lon="14.063643"><ele>640.0</ele><time>2026-04-26T11:27:25.449Z</time></trkpt><trkpt lat="45.7435476" lon="14.0638126"><ele>640.0</ele><time>2026-04-26T11:27:26.448Z</time></trkpt><trkpt lat="45.7437007" lon="14.063922"><ele>640.0</ele><time>2026-04-26T11:27:27.448Z</time></trkpt><trkpt lat="45.7438661" lon="14.0639569"><ele>640.0</ele><time>2026-04-26T11:27:28.448Z</time></trkpt><trkpt lat="45.7440306" lon="14.0639287"><ele>640.0</ele><time>2026-04-26T11:27:29.449Z</time></trkpt><trkpt lat="45.7441899" lon="14.0638344"><ele>640.0</ele><time>2026-04-26T11:27:30.448Z</time></trkpt><trkpt lat="45.7443493" lon="14.0636981"><ele>640.0</ele><time>2026-04-26T11:27:31.448Z</time></trkpt><trkpt lat="45.7445131" lon="14.0635275"><ele>641.5</ele><time>2026-04-26T11:27:32.448Z</time></trkpt><trkpt lat="45.7446885" lon="14.063345"><ele>643.0</ele><time>2026-04-26T11:27:33.448Z</time></trkpt><trkpt lat="45.7448815" lon="14.0631578"><ele>643.0</ele><time>2026-04-26T11:27:34.448Z</time></trkpt><trkpt lat="45.7450885" lon="14.0629697"><ele>643.0</ele><time>2026-04-26T11:27:35.449Z</time></trkpt><trkpt lat="45.7452951" lon="14.0627743"><ele>648.0</ele><time>2026-04-26T11:27:36.449Z</time></trkpt><trkpt lat="45.7454918" lon="14.062571"><ele>653.0</ele><time>2026-04-26T11:27:37.448Z</time></trkpt><trkpt lat="45.7456859" lon="14.0623582"><ele>653.0</ele><time>2026-04-26T11:27:38.448Z</time></trkpt><trkpt lat="45.7458764" lon="14.0621306"><ele>653.0</ele><time>2026-04-26T11:27:39.448Z</time></trkpt><trkpt lat="45.7460666" lon="14.0618964"><ele>658.0</ele><time>2026-04-26T11:27:40.448Z</time></trkpt><trkpt lat="45.7462537" lon="14.0616583"><ele>663.0</ele><time>2026-04-26T11:27:41.448Z</time></trkpt><trkpt lat="45.7464363" lon="14.0614066"><ele>663.5</ele><time>2026-04-26T11:27:42.448Z</time></trkpt><trkpt lat="45.7466167" lon="14.0611483"><ele>664.0</ele><time>2026-04-26T11:27:43.448Z</time></trkpt><trkpt lat="45.7467952" lon="14.0608825"><ele>664.5</ele><time>2026-04-26T11:27:44.448Z</time></trkpt><trkpt lat="45.7469729" lon="14.0606089"><ele>665.0</ele><time>2026-04-26T11:27:45.448Z</time></trkpt><trkpt lat="45.7471506" lon="14.0603269"><ele>665.0</ele><time>2026-04-26T11:27:46.448Z</time></trkpt><trkpt lat="45.74733" lon="14.0600418"><ele>665.0</ele><time>2026-04-26T11:27:47.448Z</time></trkpt><trkpt lat="45.7475094" lon="14.0597502"><ele>666.0</ele><time>2026-04-26T11:27:48.448Z</time></trkpt><trkpt lat="45.7476937" lon="14.0594562"><ele>667.0</ele><time>2026-04-26T11:27:49.448Z</time></trkpt><trkpt lat="45.7478812" lon="14.0591574"><ele>662.0</ele><time>2026-04-26T11:27:50.448Z</time></trkpt><trkpt lat="45.7480703" lon="14.058857"><ele>657.0</ele><time>2026-04-26T11:27:51.448Z</time></trkpt><trkpt lat="45.7482618" lon="14.0585511"><ele>659.0</ele><time>2026-04-26T11:27:52.448Z</time></trkpt><trkpt lat="45.748458" lon="14.0582448"><ele>661.0</ele><time>2026-04-26T11:27:53.449Z</time></trkpt><trkpt lat="45.7486526" lon="14.0579274"><ele>653.0</ele><time>2026-04-26T11:27:54.448Z</time></trkpt><trkpt lat="45.7488513" lon="14.0576162"><ele>645.0</ele><time>2026-04-26T11:27:55.448Z</time></trkpt><trkpt lat="45.7490461" lon="14.0573077"><ele>645.0</ele><time>2026-04-26T11:27:56.448Z</time></trkpt><trkpt lat="45.7492458" lon="14.0570044"><ele>645.0</ele><time>2026-04-26T11:27:57.448Z</time></trkpt><trkpt lat="45.749451" lon="14.0567105"><ele>644.5</ele><time>2026-04-26T11:27:58.448Z</time></trkpt><trkpt lat="45.7496588" lon="14.0564292"><ele>644.0</ele><time>2026-04-26T11:27:59.449Z</time></trkpt><trkpt lat="45.7498732" lon="14.0561641"><ele>644.0</ele><time>2026-04-26T11:28:00.448Z</time></trkpt><trkpt lat="45.7500871" lon="14.0559068"><ele>644.0</ele><time>2026-04-26T11:28:01.448Z</time></trkpt><trkpt lat="45.750298" lon="14.0556513"><ele>638.5</ele><time>2026-04-26T11:28:02.448Z</time></trkpt><trkpt lat="45.7505057" lon="14.0553987"><ele>633.0</ele><time>2026-04-26T11:28:03.448Z</time></trkpt><trkpt lat="45.7507057" lon="14.0551535"><ele>627.5</ele><time>2026-04-26T11:28:04.449Z</time></trkpt><trkpt lat="45.7508971" lon="14.0549284"><ele>622.0</ele><time>2026-04-26T11:28:05.448Z</time></trkpt><trkpt lat="45.7510777" lon="14.0547376"><ele>622.0</ele><time>2026-04-26T11:28:06.448Z</time></trkpt><trkpt lat="45.7512612" lon="14.0545993"><ele>622.0</ele><time>2026-04-26T11:28:07.448Z</time></trkpt><trkpt lat="45.7514535" lon="14.0545156"><ele>622.0</ele><time>2026-04-26T11:28:08.449Z</time></trkpt><trkpt lat="45.7516589" lon="14.0545162"><ele>622.0</ele><time>2026-04-26T11:28:09.448Z</time></trkpt><trkpt lat="45.7518656" lon="14.0545476"><ele>622.0</ele><time>2026-04-26T11:28:10.448Z</time></trkpt><trkpt lat="45.7520757" lon="14.0546158"><ele>622.0</ele><time>2026-04-26T11:28:11.448Z</time></trkpt><trkpt lat="45.7522867" lon="14.0547004"><ele>620.6666666666667</ele><time>2026-04-26T11:28:12.448Z</time></trkpt><trkpt lat="45.7524843" lon="14.0547932"><ele>619.3333333333334</ele><time>2026-04-26T11:28:13.449Z</time></trkpt><trkpt lat="45.7526566" lon="14.054922"><ele>618.0</ele><time>2026-04-26T11:28:14.448Z</time></trkpt><trkpt lat="45.7528048" lon="14.0551274"><ele>615.0</ele><time>2026-04-26T11:28:15.448Z</time></trkpt><trkpt lat="45.7529303" lon="14.0553366"><ele>612.0</ele><time>2026-04-26T11:28:16.448Z</time></trkpt><trkpt lat="45.7530246" lon="14.0555616"><ele>609.0</ele><time>2026-04-26T11:28:17.448Z</time></trkpt><trkpt lat="45.7530895" lon="14.0558003"><ele>609.0</ele><time>2026-04-26T11:28:18.448Z</time></trkpt><trkpt lat="45.7531257" lon="14.0560526"><ele>609.0</ele><time>2026-04-26T11:28:19.448Z</time></trkpt><trkpt lat="45.7531343" lon="14.0563148"><ele>609.0</ele><time>2026-04-26T11:28:20.448Z</time></trkpt><trkpt lat="45.7531039" lon="14.0565739"><ele>609.3333333333334</ele><time>2026-04-26T11:28:21.447Z</time></trkpt><trkpt lat="45.7530377" lon="14.0568203"><ele>609.6666666666667</ele><time>2026-04-26T11:28:22.447Z</time></trkpt><trkpt lat="45.7529501" lon="14.057082"><ele>610.0</ele><time>2026-04-26T11:28:23.447Z</time></trkpt><trkpt lat="45.7528522" lon="14.057363"><ele>606.5</ele><time>2026-04-26T11:28:24.448Z</time></trkpt><trkpt lat="45.7527719" lon="14.0576685"><ele>603.0</ele><time>2026-04-26T11:28:25.447Z</time></trkpt><trkpt lat="45.7527153" lon="14.0579806"><ele>611.0</ele><time>2026-04-26T11:28:26.447Z</time></trkpt><trkpt lat="45.7526774" lon="14.0583088"><ele>619.0</ele><time>2026-04-26T11:28:27.447Z</time></trkpt><trkpt lat="45.7526696" lon="14.058655"><ele>619.0</ele><time>2026-04-26T11:28:28.447Z</time></trkpt><trkpt lat="45.7526843" lon="14.0590107"><ele>619.0</ele><time>2026-04-26T11:28:29.447Z</time></trkpt><trkpt lat="45.7527093" lon="14.0593818"><ele>606.5</ele><time>2026-04-26T11:28:30.448Z</time></trkpt><trkpt lat="45.7527325" lon="14.0597548"><ele>594.0</ele><time>2026-04-26T11:28:31.447Z</time></trkpt><trkpt lat="45.7527499" lon="14.0601227"><ele>594.0</ele><time>2026-04-26T11:28:32.447Z</time></trkpt><trkpt lat="45.752775" lon="14.0604841"><ele>594.0</ele><time>2026-04-26T11:28:33.447Z</time></trkpt><trkpt lat="45.7527944" lon="14.060839"><ele>593.5</ele><time>2026-04-26T11:28:34.447Z</time></trkpt><trkpt lat="45.7528276" lon="14.0611759"><ele>593.0</ele><time>2026-04-26T11:28:35.447Z</time></trkpt><trkpt lat="45.7528775" lon="14.0614997"><ele>592.3333333333333</ele><time>2026-04-26T11:28:36.447Z</time></trkpt><trkpt lat="45.7529396" lon="14.0618076"><ele>591.6666666666666</ele><time>2026-04-26T11:28:37.447Z</time></trkpt><trkpt lat="45.7529923" lon="14.0620974"><ele>591.0</ele><time>2026-04-26T11:28:38.447Z</time></trkpt><trkpt lat="45.7530461" lon="14.0623663"><ele>590.3333333333334</ele><time>2026-04-26T11:28:39.447Z</time></trkpt><trkpt lat="45.7531221" lon="14.0626153"><ele>589.6666666666667</ele><time>2026-04-26T11:28:40.447Z</time></trkpt><trkpt lat="45.7532048" lon="14.0628663"><ele>589.0</ele><time>2026-04-26T11:28:41.447Z</time></trkpt><trkpt lat="45.7532942" lon="14.0631106"><ele>588.3333333333334</ele><time>2026-04-26T11:28:42.447Z</time></trkpt><trkpt lat="45.7533932" lon="14.0633368"><ele>587.6666666666666</ele><time>2026-04-26T11:28:43.447Z</time></trkpt><trkpt lat="45.7534919" lon="14.0635497"><ele>587.0</ele><time>2026-04-26T11:28:44.447Z</time></trkpt><trkpt lat="45.7536016" lon="14.0637737"><ele>582.6666666666666</ele><time>2026-04-26T11:28:45.447Z</time></trkpt><trkpt lat="45.7537212" lon="14.0640136"><ele>578.3333333333334</ele><time>2026-04-26T11:28:46.447Z</time></trkpt><trkpt lat="45.7538713" lon="14.0642882"><ele>574.0</ele><time>2026-04-26T11:28:47.447Z</time></trkpt><trkpt lat="45.7540285" lon="14.0645987"><ele>572.5</ele><time>2026-04-26T11:28:48.447Z</time></trkpt><trkpt lat="45.7541815" lon="14.0649498"><ele>571.0</ele><time>2026-04-26T11:28:49.447Z</time></trkpt><trkpt lat="45.7543544" lon="14.0653172"><ele>567.5</ele><time>2026-04-26T11:28:50.448Z</time></trkpt><trkpt lat="45.7545296" lon="14.0656151"><ele>564.0</ele><time>2026-04-26T11:28:51.447Z</time></trkpt><trkpt lat="45.7547209" lon="14.0658948"><ele>564.0</ele><time>2026-04-26T11:28:52.448Z</time></trkpt><trkpt lat="45.7549622" lon="14.0661501"><ele>564.0</ele><time>2026-04-26T11:28:53.447Z</time></trkpt><trkpt lat="45.7552278" lon="14.0663858"><ele>563.5</ele><time>2026-04-26T11:28:54.447Z</time></trkpt><trkpt lat="45.7554871" lon="14.066628"><ele>563.0</ele><time>2026-04-26T11:28:55.447Z</time></trkpt><trkpt lat="45.7557293" lon="14.0668748"><ele>563.0</ele><time>2026-04-26T11:28:56.447Z</time></trkpt><trkpt lat="45.7559748" lon="14.0671203"><ele>563.0</ele><time>2026-04-26T11:28:57.447Z</time></trkpt><trkpt lat="45.7562104" lon="14.0673295"><ele>562.0</ele><time>2026-04-26T11:28:58.447Z</time></trkpt><trkpt lat="45.7564324" lon="14.0675086"><ele>561.0</ele><time>2026-04-26T11:28:59.448Z</time></trkpt><trkpt lat="45.7566337" lon="14.0676789"><ele>561.0</ele><time>2026-04-26T11:29:00.447Z</time></trkpt><trkpt lat="45.7568137" lon="14.0678297"><ele>561.0</ele><time>2026-04-26T11:29:01.447Z</time></trkpt><trkpt lat="45.7569581" lon="14.0679689"><ele>561.0</ele><time>2026-04-26T11:29:02.447Z</time></trkpt><trkpt lat="45.7570719" lon="14.0680954"><ele>561.4</ele><time>2026-04-26T11:29:03.447Z</time></trkpt><trkpt lat="45.757158" lon="14.0681927"><ele>561.8</ele><time>2026-04-26T11:29:04.447Z</time></trkpt><trkpt lat="45.7572259" lon="14.0682537"><ele>562.1999999999999</ele><time>2026-04-26T11:29:05.447Z</time></trkpt><trkpt lat="45.7573105" lon="14.0682481"><ele>562.6</ele><time>2026-04-26T11:29:06.448Z</time></trkpt><trkpt lat="45.7573924" lon="14.0681641"><ele>563.0</ele><time>2026-04-26T11:29:07.447Z</time></trkpt><trkpt lat="45.7574654" lon="14.0680435"><ele>563.0</ele><time>2026-04-26T11:29:08.447Z</time></trkpt><trkpt lat="45.7575275" lon="14.0678955"><ele>563.0</ele><time>2026-04-26T11:29:09.448Z</time></trkpt><trkpt lat="45.7575831" lon="14.0677416"><ele>563.0</ele><time>2026-04-26T11:29:10.447Z</time></trkpt><trkpt lat="45.7576276" lon="14.0675758"><ele>563.0</ele><time>2026-04-26T11:29:11.447Z</time></trkpt><trkpt lat="45.7576465" lon="14.0673932"><ele>563.0</ele><time>2026-04-26T11:29:12.448Z</time></trkpt><trkpt lat="45.7576426" lon="14.0671843"><ele>563.0</ele><time>2026-04-26T11:29:13.447Z</time></trkpt><trkpt lat="45.7576294" lon="14.0669564"><ele>563.0</ele><time>2026-04-26T11:29:14.447Z</time></trkpt><trkpt lat="45.7576159" lon="14.0667119"><ele>564.0</ele><time>2026-04-26T11:29:15.448Z</time></trkpt><trkpt lat="45.7576042" lon="14.0664639"><ele>565.0</ele><time>2026-04-26T11:29:16.447Z</time></trkpt><trkpt lat="45.7575902" lon="14.0662182"><ele>566.0</ele><time>2026-04-26T11:29:17.448Z</time></trkpt><trkpt lat="45.7575694" lon="14.0659627"><ele>567.6666666666666</ele><time>2026-04-26T11:29:18.447Z</time></trkpt><trkpt lat="45.7575391" lon="14.0657041"><ele>569.3333333333334</ele><time>2026-04-26T11:29:19.447Z</time></trkpt><trkpt lat="45.7575079" lon="14.0654532"><ele>571.0</ele><time>2026-04-26T11:29:20.447Z</time></trkpt><trkpt lat="45.7574768" lon="14.0652077"><ele>571.0</ele><time>2026-04-26T11:29:21.447Z</time></trkpt><trkpt lat="45.7574462" lon="14.0649721"><ele>571.0</ele><time>2026-04-26T11:29:22.447Z</time></trkpt><trkpt lat="45.7574104" lon="14.0647447"><ele>571.0</ele><time>2026-04-26T11:29:23.448Z</time></trkpt><trkpt lat="45.7573714" lon="14.0645275"><ele>572.0</ele><time>2026-04-26T11:29:24.447Z</time></trkpt><trkpt lat="45.7573305" lon="14.0643263"><ele>573.0</ele><time>2026-04-26T11:29:25.447Z</time></trkpt><trkpt lat="45.7572945" lon="14.0641522"><ele>574.0</ele><time>2026-04-26T11:29:26.447Z</time></trkpt><trkpt lat="45.7572725" lon="14.0639966"><ele>575.0</ele><time>2026-04-26T11:29:27.447Z</time></trkpt><trkpt lat="45.7572566" lon="14.0638442"><ele>575.0</ele><time>2026-04-26T11:29:28.447Z</time></trkpt><trkpt lat="45.7572436" lon="14.0636932"><ele>575.0</ele><time>2026-04-26T11:29:29.447Z</time></trkpt><trkpt lat="45.7572359" lon="14.0635394"><ele>575.0</ele><time>2026-04-26T11:29:30.447Z</time></trkpt><trkpt lat="45.7572256" lon="14.0633834"><ele>575.0</ele><time>2026-04-26T11:29:31.447Z</time></trkpt><trkpt lat="45.7572095" lon="14.0632226"><ele>575.0</ele><time>2026-04-26T11:29:32.447Z</time></trkpt><trkpt lat="45.7571907" lon="14.0630624"><ele>575.2</ele><time>2026-04-26T11:29:33.447Z</time></trkpt><trkpt lat="45.7571669" lon="14.0629042"><ele>575.4</ele><time>2026-04-26T11:29:34.447Z</time></trkpt><trkpt lat="45.7571465" lon="14.0627418"><ele>575.6</ele><time>2026-04-26T11:29:35.447Z</time></trkpt><trkpt lat="45.7571284" lon="14.0625837"><ele>575.8</ele><time>2026-04-26T11:29:36.447Z</time></trkpt><trkpt lat="45.7571133" lon="14.0624325"><ele>576.0</ele><time>2026-04-26T11:29:37.447Z</time></trkpt><trkpt lat="45.7570894" lon="14.0622952"><ele>576.3333333333334</ele><time>2026-04-26T11:29:38.447Z</time></trkpt><trkpt lat="45.7570737" lon="14.0621701"><ele>576.6666666666666</ele><time>2026-04-26T11:29:39.447Z</time></trkpt><trkpt lat="45.7570628" lon="14.0620514"><ele>577.0</ele><time>2026-04-26T11:29:40.447Z</time></trkpt><trkpt lat="45.757055" lon="14.0619281"><ele>577.3333333333333</ele><time>2026-04-26T11:29:41.448Z</time></trkpt><trkpt lat="45.7570436" lon="14.0618013"><ele>577.6666666666666</ele><time>2026-04-26T11:29:42.447Z</time></trkpt><trkpt lat="45.7570346" lon="14.0616957"><ele>578.0</ele><time>2026-04-26T11:29:43.447Z</time></trkpt><trkpt lat="45.7570267" lon="14.0616006"><ele>578.1999999999999</ele><time>2026-04-26T11:29:45.447Z</time></trkpt><trkpt lat="45.757032" lon="14.0614858"><ele>578.4</ele><time>2026-04-26T11:29:48.448Z</time></trkpt><trkpt lat="45.7570249" lon="14.0613732"><ele>578.5999999999999</ele><time>2026-04-26T11:29:49.447Z</time></trkpt><trkpt lat="45.7570117" lon="14.0612327"><ele>578.8</ele><time>2026-04-26T11:29:50.447Z</time></trkpt><trkpt lat="45.7569911" lon="14.0610729"><ele>579.0</ele><time>2026-04-26T11:29:51.447Z</time></trkpt><trkpt lat="45.7569708" lon="14.0609073"><ele>579.5</ele><time>2026-04-26T11:29:52.447Z</time></trkpt><trkpt lat="45.7569284" lon="14.0607227"><ele>580.0</ele><time>2026-04-26T11:29:53.447Z</time></trkpt><trkpt lat="45.7568604" lon="14.0605395"><ele>580.5</ele><time>2026-04-26T11:29:54.448Z</time></trkpt><trkpt lat="45.7567905" lon="14.0603675"><ele>581.0</ele><time>2026-04-26T11:29:55.447Z</time></trkpt><trkpt lat="45.7567116" lon="14.0602135"><ele>579.75</ele><time>2026-04-26T11:29:56.447Z</time></trkpt><trkpt lat="45.7566525" lon="14.0600516"><ele>578.5</ele><time>2026-04-26T11:29:57.447Z</time></trkpt><trkpt lat="45.7566297" lon="14.0598993"><ele>577.25</ele><time>2026-04-26T11:29:58.447Z</time></trkpt><trkpt lat="45.7566451" lon="14.0597475"><ele>576.0</ele><time>2026-04-26T11:29:59.447Z</time></trkpt><trkpt lat="45.7566857" lon="14.059578"><ele>576.0</ele><time>2026-04-26T11:30:00.447Z</time></trkpt><trkpt lat="45.7567112" lon="14.0593754"><ele>576.0</ele><time>2026-04-26T11:30:01.447Z</time></trkpt><trkpt lat="45.7567166" lon="14.0591564"><ele>576.0</ele><time>2026-04-26T11:30:02.448Z</time></trkpt><trkpt lat="45.7567315" lon="14.0589034"><ele>576.3333333333334</ele><time>2026-04-26T11:30:03.447Z</time></trkpt><trkpt lat="45.756755" lon="14.0586427"><ele>576.6666666666667</ele><time>2026-04-26T11:30:04.447Z</time></trkpt><trkpt lat="45.7567824" lon="14.0583791"><ele>577.0</ele><time>2026-04-26T11:30:05.447Z</time></trkpt><trkpt lat="45.7568025" lon="14.0580873"><ele>577.6666666666667</ele><time>2026-04-26T11:30:06.447Z</time></trkpt><trkpt lat="45.7568265" lon="14.0577852"><ele>578.3333333333334</ele><time>2026-04-26T11:30:07.447Z</time></trkpt><trkpt lat="45.7568509" lon="14.05749"><ele>579.0</ele><time>2026-04-26T11:30:08.447Z</time></trkpt><trkpt lat="45.756881" lon="14.0571952"><ele>581.6666666666666</ele><time>2026-04-26T11:30:09.447Z</time></trkpt><trkpt lat="45.7569097" lon="14.0568908"><ele>584.3333333333333</ele><time>2026-04-26T11:30:10.447Z</time></trkpt><trkpt lat="45.7569274" lon="14.0565883"><ele>587.0</ele><time>2026-04-26T11:30:11.447Z</time></trkpt><trkpt lat="45.7569175" lon="14.0562864"><ele>586.3333333333333</ele><time>2026-04-26T11:30:12.447Z</time></trkpt><trkpt lat="45.7568566" lon="14.0559906"><ele>585.6666666666666</ele><time>2026-04-26T11:30:13.447Z</time></trkpt><trkpt lat="45.7567611" lon="14.0557121"><ele>585.0</ele><time>2026-04-26T11:30:14.447Z</time></trkpt><trkpt lat="45.7566224" lon="14.0554493"><ele>585.0</ele><time>2026-04-26T11:30:15.448Z</time></trkpt><trkpt lat="45.7564655" lon="14.0552175"><ele>585.0</ele><time>2026-04-26T11:30:16.447Z</time></trkpt><trkpt lat="45.7562847" lon="14.0550322"><ele>585.0</ele><time>2026-04-26T11:30:17.447Z</time></trkpt><trkpt lat="45.7560814" lon="14.0548561"><ele>586.5</ele><time>2026-04-26T11:30:18.447Z</time></trkpt><trkpt lat="45.7558786" lon="14.0546857"><ele>588.0</ele><time>2026-04-26T11:30:19.447Z</time></trkpt><trkpt lat="45.7556923" lon="14.0544666"><ele>588.0</ele><time>2026-04-26T11:30:20.448Z</time></trkpt><trkpt lat="45.7555548" lon="14.0541978"><ele>588.0</ele><time>2026-04-26T11:30:21.447Z</time></trkpt><trkpt lat="45.755451" lon="14.053892"><ele>592.5</ele><time>2026-04-26T11:30:22.447Z</time></trkpt><trkpt lat="45.7553918" lon="14.0535721"><ele>597.0</ele><time>2026-04-26T11:30:23.447Z</time></trkpt><trkpt lat="45.7553772" lon="14.0532517"><ele>599.6666666666666</ele><time>2026-04-26T11:30:24.448Z</time></trkpt><trkpt lat="45.7554135" lon="14.052935"><ele>602.3333333333333</ele><time>2026-04-26T11:30:25.447Z</time></trkpt><trkpt lat="45.7554815" lon="14.052653"><ele>605.0</ele><time>2026-04-26T11:30:26.447Z</time></trkpt><trkpt lat="45.755591" lon="14.0523688"><ele>606.0</ele><time>2026-04-26T11:30:27.447Z</time></trkpt><trkpt lat="45.7557248" lon="14.0521104"><ele>607.0</ele><time>2026-04-26T11:30:28.448Z</time></trkpt><trkpt lat="45.7558787" lon="14.0518784"><ele>608.0</ele><time>2026-04-26T11:30:29.447Z</time></trkpt><trkpt lat="45.7560433" lon="14.0516481"><ele>605.0</ele><time>2026-04-26T11:30:30.448Z</time></trkpt><trkpt lat="45.7562055" lon="14.0514364"><ele>602.0</ele><time>2026-04-26T11:30:31.447Z</time></trkpt><trkpt lat="45.756308" lon="14.0511672"><ele>599.0</ele><time>2026-04-26T11:30:32.447Z</time></trkpt><trkpt lat="45.7564167" lon="14.050893"><ele>599.0</ele><time>2026-04-26T11:30:33.447Z</time></trkpt><trkpt lat="45.7564977" lon="14.0505674"><ele>599.0</ele><time>2026-04-26T11:30:34.447Z</time></trkpt><trkpt lat="45.7565344" lon="14.0502175"><ele>599.0</ele><time>2026-04-26T11:30:35.447Z</time></trkpt><trkpt lat="45.7565435" lon="14.0498509"><ele>599.0</ele><time>2026-04-26T11:30:36.447Z</time></trkpt><trkpt lat="45.7565378" lon="14.049511"><ele>599.0</ele><time>2026-04-26T11:30:37.448Z</time></trkpt><trkpt lat="45.7565285" lon="14.0491792"><ele>599.0</ele><time>2026-04-26T11:30:38.447Z</time></trkpt><trkpt lat="45.7565267" lon="14.0488605"><ele>597.5</ele><time>2026-04-26T11:30:39.447Z</time></trkpt><trkpt lat="45.7565409" lon="14.0485471"><ele>596.0</ele><time>2026-04-26T11:30:40.448Z</time></trkpt><trkpt lat="45.7565969" lon="14.0482105"><ele>593.5</ele><time>2026-04-26T11:30:41.447Z</time></trkpt><trkpt lat="45.7567129" lon="14.0478834"><ele>591.0</ele><time>2026-04-26T11:30:42.448Z</time></trkpt><trkpt lat="45.7568486" lon="14.0475722"><ele>592.5</ele><time>2026-04-26T11:30:43.448Z</time></trkpt><trkpt lat="45.7570043" lon="14.0472485"><ele>594.0</ele><time>2026-04-26T11:30:44.448Z</time></trkpt><trkpt lat="45.757131" lon="14.046923"><ele>594.0</ele><time>2026-04-26T11:30:45.447Z</time></trkpt><trkpt lat="45.7571998" lon="14.0466315"><ele>594.0</ele><time>2026-04-26T11:30:46.447Z</time></trkpt><trkpt lat="45.7572283" lon="14.0463832"><ele>594.0</ele><time>2026-04-26T11:30:47.447Z</time></trkpt><trkpt lat="45.7572567" lon="14.046133"><ele>590.6666666666666</ele><time>2026-04-26T11:30:48.447Z</time></trkpt><trkpt lat="45.7573151" lon="14.04591"><ele>587.3333333333333</ele><time>2026-04-26T11:30:49.447Z</time></trkpt><trkpt lat="45.757425" lon="14.0457256"><ele>584.0</ele><time>2026-04-26T11:30:50.447Z</time></trkpt><trkpt lat="45.7575892" lon="14.0455779"><ele>582.3333333333333</ele><time>2026-04-26T11:30:51.448Z</time></trkpt><trkpt lat="45.7577847" lon="14.045466"><ele>580.6666666666666</ele><time>2026-04-26T11:30:52.447Z</time></trkpt><trkpt lat="45.757984" lon="14.0453477"><ele>579.0</ele><time>2026-04-26T11:30:53.447Z</time></trkpt><trkpt lat="45.7581549" lon="14.0452032"><ele>579.0</ele><time>2026-04-26T11:30:54.448Z</time></trkpt><trkpt lat="45.7582774" lon="14.0449816"><ele>579.0</ele><time>2026-04-26T11:30:55.447Z</time></trkpt><trkpt lat="45.7583679" lon="14.0447295"><ele>579.0</ele><time>2026-04-26T11:30:56.447Z</time></trkpt><trkpt lat="45.7584495" lon="14.044471"><ele>578.5</ele><time>2026-04-26T11:30:57.447Z</time></trkpt><trkpt lat="45.7585818" lon="14.0442199"><ele>578.0</ele><time>2026-04-26T11:30:58.447Z</time></trkpt><trkpt lat="45.7587636" lon="14.044016"><ele>575.0</ele><time>2026-04-26T11:30:59.447Z</time></trkpt><trkpt lat="45.758958" lon="14.0438115"><ele>572.0</ele><time>2026-04-26T11:31:00.448Z</time></trkpt><trkpt lat="45.7591565" lon="14.043588"><ele>572.0</ele><time>2026-04-26T11:31:01.447Z</time></trkpt><trkpt lat="45.7593539" lon="14.0433673"><ele>572.0</ele><time>2026-04-26T11:31:02.447Z</time></trkpt><trkpt lat="45.7595443" lon="14.0431843"><ele>566.5</ele><time>2026-04-26T11:31:03.447Z</time></trkpt><trkpt lat="45.7597598" lon="14.0430467"><ele>561.0</ele><time>2026-04-26T11:31:04.447Z</time></trkpt><trkpt lat="45.7599877" lon="14.0429354"><ele>561.5</ele><time>2026-04-26T11:31:05.447Z</time></trkpt><trkpt lat="45.7602452" lon="14.0428459"><ele>562.0</ele><time>2026-04-26T11:31:06.447Z</time></trkpt><trkpt lat="45.7605193" lon="14.042767"><ele>562.0</ele><time>2026-04-26T11:31:07.447Z</time></trkpt><trkpt lat="45.7607782" lon="14.0426825"><ele>562.0</ele><time>2026-04-26T11:31:08.447Z</time></trkpt><trkpt lat="45.7610186" lon="14.0425827"><ele>556.0</ele><time>2026-04-26T11:31:09.447Z</time></trkpt><trkpt lat="45.76123" lon="14.0424053"><ele>550.0</ele><time>2026-04-26T11:31:10.447Z</time></trkpt><trkpt lat="45.7614163" lon="14.0421951"><ele>550.0</ele><time>2026-04-26T11:31:11.447Z</time></trkpt><trkpt lat="45.761571" lon="14.0419266"><ele>550.0</ele><time>2026-04-26T11:31:12.447Z</time></trkpt><trkpt lat="45.7617059" lon="14.0416115"><ele>552.5</ele><time>2026-04-26T11:31:13.447Z</time></trkpt><trkpt lat="45.761843" lon="14.0412857"><ele>555.0</ele><time>2026-04-26T11:31:14.447Z</time></trkpt><trkpt lat="45.7619957" lon="14.0409575"><ele>550.0</ele><time>2026-04-26T11:31:15.448Z</time></trkpt><trkpt lat="45.7621672" lon="14.0406174"><ele>545.0</ele><time>2026-04-26T11:31:16.447Z</time></trkpt><trkpt lat="45.7623581" lon="14.040294"><ele>545.0</ele><time>2026-04-26T11:31:17.447Z</time></trkpt><trkpt lat="45.7625695" lon="14.039991"><ele>545.0</ele><time>2026-04-26T11:31:18.447Z</time></trkpt><trkpt lat="45.762802" lon="14.0397032"><ele>544.5</ele><time>2026-04-26T11:31:19.447Z</time></trkpt><trkpt lat="45.7630431" lon="14.0394238"><ele>544.0</ele><time>2026-04-26T11:31:20.447Z</time></trkpt><trkpt lat="45.7632707" lon="14.0391598"><ele>547.0</ele><time>2026-04-26T11:31:21.447Z</time></trkpt><trkpt lat="45.7634835" lon="14.0389192"><ele>550.0</ele><time>2026-04-26T11:31:22.447Z</time></trkpt><trkpt lat="45.763664" lon="14.0386446"><ele>550.0</ele><time>2026-04-26T11:31:23.447Z</time></trkpt><trkpt lat="45.763794" lon="14.0383319"><ele>550.0</ele><time>2026-04-26T11:31:24.447Z</time></trkpt><trkpt lat="45.7638862" lon="14.037952"><ele>546.5</ele><time>2026-04-26T11:31:25.447Z</time></trkpt><trkpt lat="45.7639563" lon="14.037559"><ele>543.0</ele><time>2026-04-26T11:31:26.447Z</time></trkpt><trkpt lat="45.7640365" lon="14.0371593"><ele>537.5</ele><time>2026-04-26T11:31:27.447Z</time></trkpt><trkpt lat="45.7641235" lon="14.0367584"><ele>532.0</ele><time>2026-04-26T11:31:28.448Z</time></trkpt><trkpt lat="45.7642084" lon="14.0363407"><ele>534.5</ele><time>2026-04-26T11:31:29.447Z</time></trkpt><trkpt lat="45.7642937" lon="14.0359293"><ele>537.0</ele><time>2026-04-26T11:31:30.447Z</time></trkpt><trkpt lat="45.7643696" lon="14.0355508"><ele>537.0</ele><time>2026-04-26T11:31:31.447Z</time></trkpt><trkpt lat="45.764438" lon="14.035205"><ele>537.0</ele><time>2026-04-26T11:31:32.447Z</time></trkpt><trkpt lat="45.7645199" lon="14.0348763"><ele>531.0</ele><time>2026-04-26T11:31:33.447Z</time></trkpt><trkpt lat="45.7646274" lon="14.0345449"><ele>525.0</ele><time>2026-04-26T11:31:34.447Z</time></trkpt><trkpt lat="45.7647547" lon="14.0342135"><ele>520.0</ele><time>2026-04-26T11:31:35.447Z</time></trkpt><trkpt lat="45.7648945" lon="14.0338586"><ele>515.0</ele><time>2026-04-26T11:31:36.447Z</time></trkpt><trkpt lat="45.7650316" lon="14.0334881"><ele>518.5</ele><time>2026-04-26T11:31:37.448Z</time></trkpt><trkpt lat="45.7651512" lon="14.0331169"><ele>522.0</ele><time>2026-04-26T11:31:38.447Z</time></trkpt><trkpt lat="45.7652538" lon="14.0327741"><ele>515.0</ele><time>2026-04-26T11:31:39.447Z</time></trkpt><trkpt lat="45.7653417" lon="14.0324514"><ele>508.0</ele><time>2026-04-26T11:31:40.448Z</time></trkpt><trkpt lat="45.7654203" lon="14.0321606"><ele>508.0</ele><time>2026-04-26T11:31:41.448Z</time></trkpt><trkpt lat="45.7654894" lon="14.0319097"><ele>508.0</ele><time>2026-04-26T11:31:42.447Z</time></trkpt><trkpt lat="45.7655671" lon="14.0316968"><ele>508.0</ele><time>2026-04-26T11:31:43.447Z</time></trkpt><trkpt lat="45.7656746" lon="14.0315125"><ele>504.0</ele><time>2026-04-26T11:31:44.448Z</time></trkpt><trkpt lat="45.7657966" lon="14.0314043"><ele>500.0</ele><time>2026-04-26T11:31:45.447Z</time></trkpt><trkpt lat="45.7659098" lon="14.031341"><ele>496.0</ele><time>2026-04-26T11:31:46.447Z</time></trkpt><trkpt lat="45.7660516" lon="14.0313313"><ele>492.0</ele><time>2026-04-26T11:31:47.448Z</time></trkpt><trkpt lat="45.7662538" lon="14.0314028"><ele>492.0</ele><time>2026-04-26T11:31:48.447Z</time></trkpt><trkpt lat="45.7664799" lon="14.0314549"><ele>492.0</ele><time>2026-04-26T11:31:49.447Z</time></trkpt><trkpt lat="45.7667247" lon="14.031475"><ele>493.5</ele><time>2026-04-26T11:31:50.447Z</time></trkpt><trkpt lat="45.766962" lon="14.0314206"><ele>495.0</ele><time>2026-04-26T11:31:51.447Z</time></trkpt><trkpt lat="45.7672013" lon="14.0313326"><ele>495.0</ele><time>2026-04-26T11:31:52.447Z</time></trkpt><trkpt lat="45.7674395" lon="14.0311843"><ele>495.0</ele><time>2026-04-26T11:31:53.447Z</time></trkpt><trkpt lat="45.767678" lon="14.0310227"><ele>496.0</ele><time>2026-04-26T11:31:54.447Z</time></trkpt><trkpt lat="45.767939" lon="14.0308488"><ele>497.0</ele><time>2026-04-26T11:31:55.447Z</time></trkpt><trkpt lat="45.7682051" lon="14.0306728"><ele>492.0</ele><time>2026-04-26T11:31:56.447Z</time></trkpt><trkpt lat="45.7684623" lon="14.030499"><ele>487.0</ele><time>2026-04-26T11:31:57.447Z</time></trkpt><trkpt lat="45.7686993" lon="14.0303502"><ele>487.0</ele><time>2026-04-26T11:31:58.447Z</time></trkpt><trkpt lat="45.7689124" lon="14.0302123"><ele>487.0</ele><time>2026-04-26T11:31:59.447Z</time></trkpt><trkpt lat="45.7691074" lon="14.0300585"><ele>487.0</ele><time>2026-04-26T11:32:00.447Z</time></trkpt><trkpt lat="45.7692608" lon="14.0298677"><ele>487.0</ele><time>2026-04-26T11:32:01.447Z</time></trkpt><trkpt lat="45.7693765" lon="14.0296436"><ele>487.0</ele><time>2026-04-26T11:32:02.447Z</time></trkpt><trkpt lat="45.7694771" lon="14.0294157"><ele>487.0</ele><time>2026-04-26T11:32:03.447Z</time></trkpt><trkpt lat="45.7695874" lon="14.0292035"><ele>487.0</ele><time>2026-04-26T11:32:04.447Z</time></trkpt><trkpt lat="45.7697089" lon="14.0290402"><ele>487.0</ele><time>2026-04-26T11:32:05.447Z</time></trkpt><trkpt lat="45.76985" lon="14.0289288"><ele>482.6666666666667</ele><time>2026-04-26T11:32:06.447Z</time></trkpt><trkpt lat="45.7700261" lon="14.0288746"><ele>478.33333333333337</ele><time>2026-04-26T11:32:07.448Z</time></trkpt><trkpt lat="45.7702342" lon="14.0288748"><ele>474.0</ele><time>2026-04-26T11:32:08.448Z</time></trkpt><trkpt lat="45.7704322" lon="14.0288617"><ele>474.0</ele><time>2026-04-26T11:32:09.447Z</time></trkpt><trkpt lat="45.7706108" lon="14.0287913"><ele>474.0</ele><time>2026-04-26T11:32:10.447Z</time></trkpt><trkpt lat="45.7707483" lon="14.0285577"><ele>474.0</ele><time>2026-04-26T11:32:11.447Z</time></trkpt><trkpt lat="45.7708927" lon="14.0282794"><ele>478.5</ele><time>2026-04-26T11:32:12.448Z</time></trkpt><trkpt lat="45.7710074" lon="14.0279459"><ele>483.0</ele><time>2026-04-26T11:32:13.447Z</time></trkpt><trkpt lat="45.771086" lon="14.027597"><ele>477.5</ele><time>2026-04-26T11:32:14.447Z</time></trkpt><trkpt lat="45.7711387" lon="14.027251"><ele>472.0</ele><time>2026-04-26T11:32:15.448Z</time></trkpt><trkpt lat="45.7711933" lon="14.0269342"><ele>472.0</ele><time>2026-04-26T11:32:16.447Z</time></trkpt><trkpt lat="45.7712724" lon="14.0266544"><ele>472.0</ele><time>2026-04-26T11:32:17.447Z</time></trkpt><trkpt lat="45.7713881" lon="14.0264042"><ele>472.0</ele><time>2026-04-26T11:32:18.447Z</time></trkpt><trkpt lat="45.7715416" lon="14.0261588"><ele>467.5</ele><time>2026-04-26T11:32:19.447Z</time></trkpt><trkpt lat="45.7717163" lon="14.0259088"><ele>463.0</ele><time>2026-04-26T11:32:20.447Z</time></trkpt><trkpt lat="45.7718912" lon="14.0256276"><ele>463.0</ele><time>2026-04-26T11:32:21.447Z</time></trkpt><trkpt lat="45.7720639" lon="14.0253477"><ele>463.0</ele><time>2026-04-26T11:32:22.448Z</time></trkpt><trkpt lat="45.7722114" lon="14.0250626"><ele>458.6666666666667</ele><time>2026-04-26T11:32:23.447Z</time></trkpt><trkpt lat="45.7723169" lon="14.0247726"><ele>454.33333333333337</ele><time>2026-04-26T11:32:24.447Z</time></trkpt><trkpt lat="45.7723885" lon="14.0244823"><ele>450.0</ele><time>2026-04-26T11:32:25.447Z</time></trkpt><trkpt lat="45.7724428" lon="14.024189"><ele>446.0</ele><time>2026-04-26T11:32:26.447Z</time></trkpt><trkpt lat="45.7725094" lon="14.023908"><ele>442.0</ele><time>2026-04-26T11:32:27.447Z</time></trkpt><trkpt lat="45.7725825" lon="14.0236552"><ele>438.0</ele><time>2026-04-26T11:32:28.447Z</time></trkpt><trkpt lat="45.7726437" lon="14.0234094"><ele>437.5</ele><time>2026-04-26T11:32:29.447Z</time></trkpt><trkpt lat="45.7726674" lon="14.0231848"><ele>437.0</ele><time>2026-04-26T11:32:30.448Z</time></trkpt><trkpt lat="45.7726835" lon="14.0229871"><ele>436.5</ele><time>2026-04-26T11:32:31.447Z</time></trkpt><trkpt lat="45.7727085" lon="14.0228036"><ele>436.0</ele><time>2026-04-26T11:32:32.447Z</time></trkpt><trkpt lat="45.7727861" lon="14.0226802"><ele>436.0</ele><time>2026-04-26T11:32:33.447Z</time></trkpt><trkpt lat="45.772894" lon="14.0226171"><ele>436.0</ele><time>2026-04-26T11:32:34.447Z</time></trkpt><trkpt lat="45.7730429" lon="14.0225569"><ele>436.0</ele><time>2026-04-26T11:32:35.447Z</time></trkpt><trkpt lat="45.773227" lon="14.0224851"><ele>431.0</ele><time>2026-04-26T11:32:36.447Z</time></trkpt><trkpt lat="45.7734347" lon="14.0223697"><ele>426.0</ele><time>2026-04-26T11:32:37.447Z</time></trkpt><trkpt lat="45.7736644" lon="14.0222338"><ele>426.0</ele><time>2026-04-26T11:32:38.447Z</time></trkpt><trkpt lat="45.7738989" lon="14.0221706"><ele>426.0</ele><time>2026-04-26T11:32:39.447Z</time></trkpt><trkpt lat="45.7741046" lon="14.0221262"><ele>426.0</ele><time>2026-04-26T11:32:40.447Z</time></trkpt><trkpt lat="45.7742938" lon="14.0220949"><ele>424.25</ele><time>2026-04-26T11:32:41.447Z</time></trkpt><trkpt lat="45.7744288" lon="14.0220191"><ele>422.5</ele><time>2026-04-26T11:32:42.447Z</time></trkpt><trkpt lat="45.7745103" lon="14.0218738"><ele>420.75</ele><time>2026-04-26T11:32:43.447Z</time></trkpt><trkpt lat="45.7745618" lon="14.0216704"><ele>419.0</ele><time>2026-04-26T11:32:44.447Z</time></trkpt><trkpt lat="45.7745697" lon="14.0214361"><ele>419.0</ele><time>2026-04-26T11:32:45.447Z</time></trkpt><trkpt lat="45.7745891" lon="14.0212473"><ele>419.0</ele><time>2026-04-26T11:32:46.447Z</time></trkpt><trkpt lat="45.7746458" lon="14.0210991"><ele>419.0</ele><time>2026-04-26T11:32:47.447Z</time></trkpt><trkpt lat="45.7747411" lon="14.0210159"><ele>419.0</ele><time>2026-04-26T11:32:48.447Z</time></trkpt><trkpt lat="45.7748945" lon="14.0209988"><ele>419.0</ele><time>2026-04-26T11:32:49.447Z</time></trkpt><trkpt lat="45.77506" lon="14.0210203"><ele>419.0</ele><time>2026-04-26T11:32:50.447Z</time></trkpt><trkpt lat="45.775261" lon="14.0210315"><ele>419.0</ele><time>2026-04-26T11:32:51.447Z</time></trkpt><trkpt lat="45.7754673" lon="14.0209586"><ele>419.3333333333333</ele><time>2026-04-26T11:32:52.447Z</time></trkpt><trkpt lat="45.7756872" lon="14.0208362"><ele>419.66666666666663</ele><time>2026-04-26T11:32:53.447Z</time></trkpt><trkpt lat="45.7758759" lon="14.0207295"><ele>420.0</ele><time>2026-04-26T11:32:54.447Z</time></trkpt><trkpt lat="45.7760433" lon="14.0206193"><ele>420.0</ele><time>2026-04-26T11:32:55.447Z</time></trkpt><trkpt lat="45.7761838" lon="14.0204373"><ele>420.0</ele><time>2026-04-26T11:32:56.447Z</time></trkpt><trkpt lat="45.7763082" lon="14.0202027"><ele>420.0</ele><time>2026-04-26T11:32:57.447Z</time></trkpt><trkpt lat="45.7763941" lon="14.0199777"><ele>412.33333333333337</ele><time>2026-04-26T11:32:58.447Z</time></trkpt><trkpt lat="45.7764787" lon="14.0198061"><ele>404.6666666666667</ele><time>2026-04-26T11:32:59.447Z</time></trkpt><trkpt lat="45.776606" lon="14.0197015"><ele>397.0</ele><time>2026-04-26T11:33:00.447Z</time></trkpt><trkpt lat="45.7767777" lon="14.0196574"><ele>398.6666666666667</ele><time>2026-04-26T11:33:01.447Z</time></trkpt><trkpt lat="45.7769825" lon="14.0196225"><ele>400.33333333333337</ele><time>2026-04-26T11:33:02.447Z</time></trkpt><trkpt lat="45.7772152" lon="14.0195489"><ele>402.0</ele><time>2026-04-26T11:33:03.447Z</time></trkpt><trkpt lat="45.7774548" lon="14.0194168"><ele>404.0</ele><time>2026-04-26T11:33:04.448Z</time></trkpt><trkpt lat="45.7776895" lon="14.0192197"><ele>406.0</ele><time>2026-04-26T11:33:05.447Z</time></trkpt><trkpt lat="45.7779042" lon="14.019015"><ele>406.0</ele><time>2026-04-26T11:33:06.447Z</time></trkpt><trkpt lat="45.7780684" lon="14.0187905"><ele>406.0</ele><time>2026-04-26T11:33:07.447Z</time></trkpt><trkpt lat="45.7781839" lon="14.0185829"><ele>406.0</ele><time>2026-04-26T11:33:08.447Z</time></trkpt><trkpt lat="45.778281" lon="14.0183425"><ele>401.33333333333337</ele><time>2026-04-26T11:33:09.447Z</time></trkpt><trkpt lat="45.7783559" lon="14.01809"><ele>396.66666666666663</ele><time>2026-04-26T11:33:10.447Z</time></trkpt><trkpt lat="45.7784101" lon="14.0177988"><ele>392.0</ele><time>2026-04-26T11:33:11.447Z</time></trkpt><trkpt lat="45.7784561" lon="14.0175127"><ele>396.0</ele><time>2026-04-26T11:33:12.446Z</time></trkpt><trkpt lat="45.7785404" lon="14.0172298"><ele>400.0</ele><time>2026-04-26T11:33:13.447Z</time></trkpt><trkpt lat="45.7786578" lon="14.0169349"><ele>400.0</ele><time>2026-04-26T11:33:14.447Z</time></trkpt><trkpt lat="45.7787976" lon="14.016657"><ele>400.0</ele><time>2026-04-26T11:33:15.447Z</time></trkpt><trkpt lat="45.7789132" lon="14.0163465"><ele>394.5</ele><time>2026-04-26T11:33:16.447Z</time></trkpt><trkpt lat="45.7789735" lon="14.0159892"><ele>389.0</ele><time>2026-04-26T11:33:17.447Z</time></trkpt><trkpt lat="45.7790054" lon="14.0156337"><ele>387.0</ele><time>2026-04-26T11:33:18.448Z</time></trkpt><trkpt lat="45.7790282" lon="14.0153202"><ele>385.0</ele><time>2026-04-26T11:33:19.447Z</time></trkpt><trkpt lat="45.7791061" lon="14.0150325"><ele>383.0</ele><time>2026-04-26T11:33:20.447Z</time></trkpt><trkpt lat="45.7792244" lon="14.0147414"><ele>387.0</ele><time>2026-04-26T11:33:21.447Z</time></trkpt><trkpt lat="45.7793635" lon="14.014444"><ele>391.0</ele><time>2026-04-26T11:33:22.447Z</time></trkpt><trkpt lat="45.7795153" lon="14.0141344"><ele>381.0</ele><time>2026-04-26T11:33:23.447Z</time></trkpt><trkpt lat="45.7796631" lon="14.0138354"><ele>371.0</ele><time>2026-04-26T11:33:24.448Z</time></trkpt><trkpt lat="45.7798079" lon="14.0135721"><ele>371.0</ele><time>2026-04-26T11:33:25.448Z</time></trkpt><trkpt lat="45.7799475" lon="14.0133541"><ele>371.0</ele><time>2026-04-26T11:33:26.448Z</time></trkpt><trkpt lat="45.780068" lon="14.0131567"><ele>371.0</ele><time>2026-04-26T11:33:27.448Z</time></trkpt><trkpt lat="45.7801644" lon="14.0129561"><ele>370.33333333333337</ele><time>2026-04-26T11:33:28.447Z</time></trkpt><trkpt lat="45.7802241" lon="14.0127252"><ele>369.6666666666667</ele><time>2026-04-26T11:33:29.447Z</time></trkpt><trkpt lat="45.7802272" lon="14.0124879"><ele>369.0</ele><time>2026-04-26T11:33:30.447Z</time></trkpt><trkpt lat="45.7801806" lon="14.01225"><ele>366.0</ele><time>2026-04-26T11:33:31.448Z</time></trkpt><trkpt lat="45.7801508" lon="14.0120352"><ele>363.0</ele><time>2026-04-26T11:33:32.447Z</time></trkpt><trkpt lat="45.7801761" lon="14.0118269"><ele>360.0</ele><time>2026-04-26T11:33:33.447Z</time></trkpt><trkpt lat="45.7802398" lon="14.0116499"><ele>357.0</ele><time>2026-04-26T11:33:34.447Z</time></trkpt><trkpt lat="45.7803584" lon="14.0115194"><ele>354.3333333333333</ele><time>2026-04-26T11:33:35.447Z</time></trkpt><trkpt lat="45.7805307" lon="14.0114249"><ele>351.66666666666663</ele><time>2026-04-26T11:33:36.447Z</time></trkpt><trkpt lat="45.780726" lon="14.0113469"><ele>349.0</ele><time>2026-04-26T11:33:37.447Z</time></trkpt><trkpt lat="45.7809361" lon="14.0112491"><ele>351.3333333333333</ele><time>2026-04-26T11:33:38.447Z</time></trkpt><trkpt lat="45.7811517" lon="14.0111432"><ele>353.6666666666667</ele><time>2026-04-26T11:33:39.447Z</time></trkpt><trkpt lat="45.7813606" lon="14.0110535"><ele>356.0</ele><time>2026-04-26T11:33:40.448Z</time></trkpt><trkpt lat="45.7815434" lon="14.0109545"><ele>358.33333333333337</ele><time>2026-04-26T11:33:41.447Z</time></trkpt><trkpt lat="45.781698" lon="14.0107732"><ele>360.6666666666667</ele><time>2026-04-26T11:33:42.447Z</time></trkpt><trkpt lat="45.7818275" lon="14.0105281"><ele>363.0</ele><time>2026-04-26T11:33:43.447Z</time></trkpt><trkpt lat="45.7819554" lon="14.0102967"><ele>363.0</ele><time>2026-04-26T11:33:44.447Z</time></trkpt><trkpt lat="45.782055" lon="14.0100672"><ele>363.0</ele><time>2026-04-26T11:33:45.447Z</time></trkpt><trkpt lat="45.7821029" lon="14.0098117"><ele>363.0</ele><time>2026-04-26T11:33:46.447Z</time></trkpt><trkpt lat="45.7821088" lon="14.0095008"><ele>360.3333333333333</ele><time>2026-04-26T11:33:47.447Z</time></trkpt><trkpt lat="45.7821137" lon="14.0092055"><ele>357.66666666666663</ele><time>2026-04-26T11:33:48.447Z</time></trkpt><trkpt lat="45.7821211" lon="14.0089344"><ele>355.0</ele><time>2026-04-26T11:33:49.447Z</time></trkpt><trkpt lat="45.7821423" lon="14.0086967"><ele>350.0</ele><time>2026-04-26T11:33:50.447Z</time></trkpt><trkpt lat="45.7821889" lon="14.0085024"><ele>345.0</ele><time>2026-04-26T11:33:51.447Z</time></trkpt><trkpt lat="45.7822909" lon="14.0083365"><ele>340.0</ele><time>2026-04-26T11:33:52.447Z</time></trkpt><trkpt lat="45.7824465" lon="14.0082496"><ele>337.3333333333333</ele><time>2026-04-26T11:33:53.447Z</time></trkpt><trkpt lat="45.7826217" lon="14.0081947"><ele>334.6666666666667</ele><time>2026-04-26T11:33:54.447Z</time></trkpt><trkpt lat="45.7828362" lon="14.0081513"><ele>332.0</ele><time>2026-04-26T11:33:55.447Z</time></trkpt><trkpt lat="45.7830439" lon="14.0081211"><ele>332.0</ele><time>2026-04-26T11:33:56.447Z</time></trkpt><trkpt lat="45.7832262" lon="14.0080752"><ele>332.0</ele><time>2026-04-26T11:33:57.448Z</time></trkpt><trkpt lat="45.7833821" lon="14.0080153"><ele>332.0</ele><time>2026-04-26T11:33:58.447Z</time></trkpt><trkpt lat="45.7835078" lon="14.0078795"><ele>338.33333333333337</ele><time>2026-04-26T11:33:59.447Z</time></trkpt><trkpt lat="45.7835671" lon="14.0076802"><ele>344.6666666666667</ele><time>2026-04-26T11:34:00.447Z</time></trkpt><trkpt lat="45.7835804" lon="14.0074371"><ele>351.0</ele><time>2026-04-26T11:34:01.447Z</time></trkpt><trkpt lat="45.7835537" lon="14.0071732"><ele>351.0</ele><time>2026-04-26T11:34:02.448Z</time></trkpt><trkpt lat="45.7835265" lon="14.006864"><ele>351.0</ele><time>2026-04-26T11:34:03.448Z</time></trkpt><trkpt lat="45.7835372" lon="14.0065293"><ele>348.6666666666667</ele><time>2026-04-26T11:34:04.448Z</time></trkpt><trkpt lat="45.7835728" lon="14.006227"><ele>346.33333333333337</ele><time>2026-04-26T11:34:05.447Z</time></trkpt><trkpt lat="45.7835689" lon="14.0059892"><ele>344.0</ele><time>2026-04-26T11:34:06.447Z</time></trkpt><trkpt lat="45.7835367" lon="14.0057659"><ele>338.75</ele><time>2026-04-26T11:34:07.447Z</time></trkpt><trkpt lat="45.7834803" lon="14.0055708"><ele>333.5</ele><time>2026-04-26T11:34:08.447Z</time></trkpt><trkpt lat="45.7834362" lon="14.0053754"><ele>328.25</ele><time>2026-04-26T11:34:09.448Z</time></trkpt><trkpt lat="45.783445" lon="14.0051652"><ele>323.0</ele><time>2026-04-26T11:34:10.447Z</time></trkpt><trkpt lat="45.783517" lon="14.0049221"><ele>323.0</ele><time>2026-04-26T11:34:11.447Z</time></trkpt><trkpt lat="45.7836359" lon="14.0046728"><ele>323.0</ele><time>2026-04-26T11:34:12.447Z</time></trkpt><trkpt lat="45.7837732" lon="14.0044172"><ele>323.0</ele><time>2026-04-26T11:34:13.447Z</time></trkpt><trkpt lat="45.783896" lon="14.0041228"><ele>318.33333333333337</ele><time>2026-04-26T11:34:14.447Z</time></trkpt><trkpt lat="45.7840096" lon="14.00386"><ele>313.6666666666667</ele><time>2026-04-26T11:34:15.447Z</time></trkpt><trkpt lat="45.784108" lon="14.0036421"><ele>309.0</ele><time>2026-04-26T11:34:16.447Z</time></trkpt><trkpt lat="45.784209" lon="14.0034539"><ele>309.0</ele><time>2026-04-26T11:34:17.447Z</time></trkpt><trkpt lat="45.7843367" lon="14.0033316"><ele>309.0</ele><time>2026-04-26T11:34:18.447Z</time></trkpt><trkpt lat="45.7844869" lon="14.0032464"><ele>309.0</ele><time>2026-04-26T11:34:19.447Z</time></trkpt><trkpt lat="45.7846475" lon="14.0032196"><ele>309.0</ele><time>2026-04-26T11:34:20.447Z</time></trkpt><trkpt lat="45.7847938" lon="14.0031791"><ele>309.0</ele><time>2026-04-26T11:34:21.447Z</time></trkpt><trkpt lat="45.7848933" lon="14.0030643"><ele>309.0</ele><time>2026-04-26T11:34:22.447Z</time></trkpt><trkpt lat="45.7849673" lon="14.0029042"><ele>309.0</ele><time>2026-04-26T11:34:23.447Z</time></trkpt><trkpt lat="45.7849746" lon="14.0026789"><ele>305.3333333333333</ele><time>2026-04-26T11:34:24.447Z</time></trkpt><trkpt lat="45.7849232" lon="14.0024251"><ele>301.66666666666663</ele><time>2026-04-26T11:34:25.447Z</time></trkpt><trkpt lat="45.7848823" lon="14.0022182"><ele>298.0</ele><time>2026-04-26T11:34:26.447Z</time></trkpt><trkpt lat="45.7849006" lon="14.0020315"><ele>298.0</ele><time>2026-04-26T11:34:27.448Z</time></trkpt><trkpt lat="45.7849673" lon="14.0018518"><ele>298.0</ele><time>2026-04-26T11:34:28.447Z</time></trkpt><trkpt lat="45.7850723" lon="14.0017532"><ele>298.0</ele><time>2026-04-26T11:34:29.447Z</time></trkpt><trkpt lat="45.7852621" lon="14.0017413"><ele>299.0</ele><time>2026-04-26T11:34:30.448Z</time></trkpt><trkpt lat="45.7854755" lon="14.0017396"><ele>300.0</ele><time>2026-04-26T11:34:31.447Z</time></trkpt><trkpt lat="45.7857153" lon="14.0017288"><ele>300.0</ele><time>2026-04-26T11:34:32.448Z</time></trkpt><trkpt lat="45.7859519" lon="14.0016685"><ele>300.0</ele><time>2026-04-26T11:34:33.447Z</time></trkpt><trkpt lat="45.7861949" lon="14.001601"><ele>294.3333333333333</ele><time>2026-04-26T11:34:34.447Z</time></trkpt><trkpt lat="45.7864302" lon="14.0015422"><ele>288.66666666666663</ele><time>2026-04-26T11:34:35.447Z</time></trkpt><trkpt lat="45.7866305" lon="14.0015139"><ele>283.0</ele><time>2026-04-26T11:34:36.447Z</time></trkpt><trkpt lat="45.7868105" lon="14.0015445"><ele>284.3333333333333</ele><time>2026-04-26T11:34:37.447Z</time></trkpt><trkpt lat="45.7869845" lon="14.0016068"><ele>285.6666666666667</ele><time>2026-04-26T11:34:38.447Z</time></trkpt><trkpt lat="45.7871457" lon="14.0016705"><ele>287.0</ele><time>2026-04-26T11:34:39.447Z</time></trkpt><trkpt lat="45.7872879" lon="14.0016719"><ele>287.0</ele><time>2026-04-26T11:34:40.447Z</time></trkpt><trkpt lat="45.7874047" lon="14.0015829"><ele>287.0</ele><time>2026-04-26T11:34:41.447Z</time></trkpt><trkpt lat="45.787492" lon="14.0014435"><ele>287.0</ele><time>2026-04-26T11:34:42.447Z</time></trkpt><trkpt lat="45.7875265" lon="14.001243"><ele>287.0</ele><time>2026-04-26T11:34:43.447Z</time></trkpt><trkpt lat="45.7875228" lon="14.001021"><ele>285.33333333333337</ele><time>2026-04-26T11:34:44.447Z</time></trkpt><trkpt lat="45.7875171" lon="14.0007586"><ele>283.6666666666667</ele><time>2026-04-26T11:34:45.447Z</time></trkpt><trkpt lat="45.7875287" lon="14.000427"><ele>282.0</ele><time>2026-04-26T11:34:46.447Z</time></trkpt><trkpt lat="45.7875604" lon="14.0001018"><ele>282.0</ele><time>2026-04-26T11:34:47.447Z</time></trkpt><trkpt lat="45.7875975" lon="13.9997979"><ele>282.0</ele><time>2026-04-26T11:34:48.447Z</time></trkpt><trkpt lat="45.7876731" lon="13.9995207"><ele>282.0</ele><time>2026-04-26T11:34:49.447Z</time></trkpt><trkpt lat="45.7878245" lon="13.9992604"><ele>284.5</ele><time>2026-04-26T11:34:50.447Z</time></trkpt><trkpt lat="45.7879918" lon="13.9990036"><ele>287.0</ele><time>2026-04-26T11:34:51.447Z</time></trkpt><trkpt lat="45.7882097" lon="13.9987483"><ele>287.0</ele><time>2026-04-26T11:34:52.448Z</time></trkpt><trkpt lat="45.7884185" lon="13.9984861"><ele>287.0</ele><time>2026-04-26T11:34:53.447Z</time></trkpt><trkpt lat="45.788614" lon="13.9982404"><ele>290.0</ele><time>2026-04-26T11:34:54.447Z</time></trkpt><trkpt lat="45.7887704" lon="13.997978"><ele>293.0</ele><time>2026-04-26T11:34:55.447Z</time></trkpt><trkpt lat="45.7889169" lon="13.9976944"><ele>293.0</ele><time>2026-04-26T11:34:56.447Z</time></trkpt><trkpt lat="45.7891027" lon="13.997503"><ele>293.0</ele><time>2026-04-26T11:34:57.447Z</time></trkpt><trkpt lat="45.7893322" lon="13.9973653"><ele>289.5</ele><time>2026-04-26T11:34:58.447Z</time></trkpt><trkpt lat="45.7895641" lon="13.997224"><ele>286.0</ele><time>2026-04-26T11:34:59.447Z</time></trkpt><trkpt lat="45.7897763" lon="13.9970342"><ele>286.0</ele><time>2026-04-26T11:35:00.447Z</time></trkpt><trkpt lat="45.7899268" lon="13.9967708"><ele>286.0</ele><time>2026-04-26T11:35:01.447Z</time></trkpt><trkpt lat="45.7900758" lon="13.9965457"><ele>283.66666666666663</ele><time>2026-04-26T11:35:02.447Z</time></trkpt><trkpt lat="45.7902693" lon="13.9963985"><ele>281.3333333333333</ele><time>2026-04-26T11:35:03.448Z</time></trkpt><trkpt lat="45.790441" lon="13.996311"><ele>279.0</ele><time>2026-04-26T11:35:04.447Z</time></trkpt><trkpt lat="45.7905843" lon="13.9962061"><ele>279.0</ele><time>2026-04-26T11:35:05.447Z</time></trkpt><trkpt lat="45.7906994" lon="13.9960635"><ele>279.0</ele><time>2026-04-26T11:35:06.447Z</time></trkpt><trkpt lat="45.790758" lon="13.9958476"><ele>279.0</ele><time>2026-04-26T11:35:07.447Z</time></trkpt><trkpt lat="45.7907798" lon="13.9956241"><ele>273.3333333333333</ele><time>2026-04-26T11:35:08.447Z</time></trkpt><trkpt lat="45.7907896" lon="13.9953673"><ele>267.66666666666663</ele><time>2026-04-26T11:35:09.447Z</time></trkpt><trkpt lat="45.7907909" lon="13.9950533"><ele>262.0</ele><time>2026-04-26T11:35:10.447Z</time></trkpt><trkpt lat="45.7907803" lon="13.9947266"><ele>259.0</ele><time>2026-04-26T11:35:11.447Z</time></trkpt><trkpt lat="45.7907422" lon="13.9943873"><ele>256.0</ele><time>2026-04-26T11:35:12.448Z</time></trkpt><trkpt lat="45.7906904" lon="13.9940294"><ele>256.0</ele><time>2026-04-26T11:35:13.447Z</time></trkpt><trkpt lat="45.790644" lon="13.993675"><ele>256.0</ele><time>2026-04-26T11:35:14.447Z</time></trkpt><trkpt lat="45.7905896" lon="13.9933336"><ele>254.66666666666666</ele><time>2026-04-26T11:35:15.447Z</time></trkpt><trkpt lat="45.7905377" lon="13.9929966"><ele>253.33333333333331</ele><time>2026-04-26T11:35:16.448Z</time></trkpt><trkpt lat="45.79049" lon="13.9927062"><ele>252.0</ele><time>2026-04-26T11:35:17.447Z</time></trkpt><trkpt lat="45.7904674" lon="13.9924565"><ele>251.33333333333331</ele><time>2026-04-26T11:35:18.447Z</time></trkpt><trkpt lat="45.7904693" lon="13.9922198"><ele>250.66666666666666</ele><time>2026-04-26T11:35:19.447Z</time></trkpt><trkpt lat="45.7905189" lon="13.9920011"><ele>250.0</ele><time>2026-04-26T11:35:20.447Z</time></trkpt><trkpt lat="45.7906143" lon="13.991809"><ele>250.0</ele><time>2026-04-26T11:35:21.447Z</time></trkpt><trkpt lat="45.7907572" lon="13.9916971"><ele>250.0</ele><time>2026-04-26T11:35:22.447Z</time></trkpt><trkpt lat="45.7909217" lon="13.9916169"><ele>250.0</ele><time>2026-04-26T11:35:23.447Z</time></trkpt><trkpt lat="45.7911151" lon="13.9915184"><ele>248.33333333333331</ele><time>2026-04-26T11:35:24.447Z</time></trkpt><trkpt lat="45.7913059" lon="13.9913929"><ele>246.66666666666669</ele><time>2026-04-26T11:35:25.447Z</time></trkpt><trkpt lat="45.7914946" lon="13.9912433"><ele>245.0</ele><time>2026-04-26T11:35:26.447Z</time></trkpt><trkpt lat="45.7916516" lon="13.9911242"><ele>245.0</ele><time>2026-04-26T11:35:27.448Z</time></trkpt><trkpt lat="45.791781" lon="13.9909968"><ele>245.0</ele><time>2026-04-26T11:35:28.447Z</time></trkpt><trkpt lat="45.7918852" lon="13.9908393"><ele>245.0</ele><time>2026-04-26T11:35:29.447Z</time></trkpt><trkpt lat="45.7919681" lon="13.990632"><ele>243.0</ele><time>2026-04-26T11:35:30.447Z</time></trkpt><trkpt lat="45.7920173" lon="13.9903068"><ele>241.0</ele><time>2026-04-26T11:35:31.448Z</time></trkpt><trkpt lat="45.7920551" lon="13.989975"><ele>236.0</ele><time>2026-04-26T11:35:32.447Z</time></trkpt><trkpt lat="45.7920959" lon="13.9896447"><ele>231.0</ele><time>2026-04-26T11:35:33.447Z</time></trkpt><trkpt lat="45.792139" lon="13.9893252"><ele>230.66666666666669</ele><time>2026-04-26T11:35:34.447Z</time></trkpt><trkpt lat="45.7921625" lon="13.989023"><ele>230.33333333333334</ele><time>2026-04-26T11:35:35.447Z</time></trkpt><trkpt lat="45.7921648" lon="13.9887426"><ele>230.0</ele><time>2026-04-26T11:35:36.447Z</time></trkpt><trkpt lat="45.7921369" lon="13.9884715"><ele>229.66666666666669</ele><time>2026-04-26T11:35:37.448Z</time></trkpt><trkpt lat="45.7921023" lon="13.9882135"><ele>229.33333333333331</ele><time>2026-04-26T11:35:38.448Z</time></trkpt><trkpt lat="45.7920795" lon="13.9879608"><ele>229.0</ele><time>2026-04-26T11:35:39.448Z</time></trkpt><trkpt lat="45.7920697" lon="13.9877206"><ele>228.66666666666666</ele><time>2026-04-26T11:35:40.448Z</time></trkpt><trkpt lat="45.7920616" lon="13.9874905"><ele>228.33333333333331</ele><time>2026-04-26T11:35:41.447Z</time></trkpt><trkpt lat="45.7920568" lon="13.9872608"><ele>228.0</ele><time>2026-04-26T11:35:42.447Z</time></trkpt><trkpt lat="45.7920505" lon="13.987038"><ele>228.0</ele><time>2026-04-26T11:35:43.447Z</time></trkpt><trkpt lat="45.7920413" lon="13.9868168"><ele>228.0</ele><time>2026-04-26T11:35:44.447Z</time></trkpt><trkpt lat="45.7920344" lon="13.9866012"><ele>228.0</ele><time>2026-04-26T11:35:45.448Z</time></trkpt><trkpt lat="45.7920287" lon="13.9863986"><ele>228.0</ele><time>2026-04-26T11:35:46.447Z</time></trkpt><trkpt lat="45.7920273" lon="13.9862078"><ele>227.0</ele><time>2026-04-26T11:35:47.447Z</time></trkpt><trkpt lat="45.7920498" lon="13.9860339"><ele>226.0</ele><time>2026-04-26T11:35:48.447Z</time></trkpt><trkpt lat="45.7920798" lon="13.9858737"><ele>225.0</ele><time>2026-04-26T11:35:49.447Z</time></trkpt><trkpt lat="45.7921185" lon="13.985727"><ele>224.0</ele><time>2026-04-26T11:35:50.447Z</time></trkpt><trkpt lat="45.7921448" lon="13.98558"><ele>222.79999999999998</ele><time>2026-04-26T11:35:51.447Z</time></trkpt><trkpt lat="45.7921568" lon="13.9854432"><ele>221.59999999999997</ele><time>2026-04-26T11:35:52.447Z</time></trkpt><trkpt lat="45.792181" lon="13.9853161"><ele>220.4</ele><time>2026-04-26T11:35:53.447Z</time></trkpt><trkpt lat="45.7922442" lon="13.9851954"><ele>219.2</ele><time>2026-04-26T11:35:54.448Z</time></trkpt><trkpt lat="45.7923313" lon="13.985097"><ele>218.0</ele><time>2026-04-26T11:35:55.447Z</time></trkpt><trkpt lat="45.7924343" lon="13.9849833"><ele>216.5</ele><time>2026-04-26T11:35:56.447Z</time></trkpt><trkpt lat="45.7925367" lon="13.9848727"><ele>215.0</ele><time>2026-04-26T11:35:57.447Z</time></trkpt><trkpt lat="45.7926309" lon="13.9847698"><ele>213.5</ele><time>2026-04-26T11:35:58.448Z</time></trkpt><trkpt lat="45.7927243" lon="13.9846758"><ele>212.0</ele><time>2026-04-26T11:35:59.447Z</time></trkpt><trkpt lat="45.7928022" lon="13.9845967"><ele>214.8</ele><time>2026-04-26T11:36:00.447Z</time></trkpt><trkpt lat="45.7928683" lon="13.9845528"><ele>217.6</ele><time>2026-04-26T11:36:01.448Z</time></trkpt><trkpt lat="45.7929478" lon="13.9846397"><ele>220.40000000000003</ele><time>2026-04-26T11:36:03.447Z</time></trkpt><trkpt lat="45.7928946" lon="13.984784"><ele>223.20000000000002</ele><time>2026-04-26T11:36:05.448Z</time></trkpt><trkpt lat="45.7928226" lon="13.984855"><ele>226.0</ele><time>2026-04-26T11:36:06.448Z</time></trkpt><trkpt lat="45.7927555" lon="13.9849589"><ele>229.75</ele><time>2026-04-26T11:36:07.447Z</time></trkpt><trkpt lat="45.7927165" lon="13.9851078"><ele>233.5</ele><time>2026-04-26T11:36:08.447Z</time></trkpt><trkpt lat="45.7927027" lon="13.9852961"><ele>237.25</ele><time>2026-04-26T11:36:09.447Z</time></trkpt><trkpt lat="45.7927022" lon="13.9855032"><ele>241.0</ele><time>2026-04-26T11:36:10.448Z</time></trkpt><trkpt lat="45.7927006" lon="13.9857063"><ele>245.0</ele><time>2026-04-26T11:36:11.447Z</time></trkpt><trkpt lat="45.7926972" lon="13.9859177"><ele>249.0</ele><time>2026-04-26T11:36:12.447Z</time></trkpt><trkpt lat="45.7926978" lon="13.9861419"><ele>253.0</ele><time>2026-04-26T11:36:13.447Z</time></trkpt><trkpt lat="45.7927063" lon="13.9863887"><ele>253.0</ele><time>2026-04-26T11:36:14.448Z</time></trkpt><trkpt lat="45.7927101" lon="13.9866408"><ele>253.0</ele><time>2026-04-26T11:36:15.447Z</time></trkpt><trkpt lat="45.7927112" lon="13.9868975"><ele>253.0</ele><time>2026-04-26T11:36:16.447Z</time></trkpt><trkpt lat="45.792718" lon="13.9871493"><ele>254.66666666666666</ele><time>2026-04-26T11:36:17.447Z</time></trkpt><trkpt lat="45.7927276" lon="13.9874108"><ele>256.3333333333333</ele><time>2026-04-26T11:36:18.447Z</time></trkpt><trkpt lat="45.7927474" lon="13.9876699"><ele>258.0</ele><time>2026-04-26T11:36:19.448Z</time></trkpt><trkpt lat="45.7927749" lon="13.9879141"><ele>258.3333333333333</ele><time>2026-04-26T11:36:20.447Z</time></trkpt><trkpt lat="45.7928069" lon="13.9881543"><ele>258.66666666666663</ele><time>2026-04-26T11:36:21.447Z</time></trkpt><trkpt lat="45.7928457" lon="13.9883915"><ele>259.0</ele><time>2026-04-26T11:36:22.448Z</time></trkpt><trkpt lat="45.7928753" lon="13.9886219"><ele>259.0</ele><time>2026-04-26T11:36:23.448Z</time></trkpt><trkpt lat="45.7929011" lon="13.9888174"><ele>259.0</ele><time>2026-04-26T11:36:24.448Z</time></trkpt><trkpt lat="45.7929015" lon="13.9889638"><ele>259.0</ele><time>2026-04-26T11:36:25.447Z</time></trkpt><trkpt lat="45.7928917" lon="13.9890746"><ele>259.0</ele><time>2026-04-26T11:36:26.447Z</time></trkpt><trkpt lat="45.7929585" lon="13.9892042"><ele>259.0</ele><time>2026-04-26T11:36:28.447Z</time></trkpt><trkpt lat="45.7930462" lon="13.9891036"><ele>259.0</ele><time>2026-04-26T11:36:30.447Z</time></trkpt><trkpt lat="45.7930417" lon="13.9889889"><ele>259.0</ele><time>2026-04-26T11:36:31.447Z</time></trkpt><trkpt lat="45.7930313" lon="13.9888562"><ele>259.0</ele><time>2026-04-26T11:36:32.448Z</time></trkpt><trkpt lat="45.7930181" lon="13.9886858"><ele>259.0</ele><time>2026-04-26T11:36:33.447Z</time></trkpt><trkpt lat="45.7930409" lon="13.9884782"><ele>259.0</ele><time>2026-04-26T11:36:34.447Z</time></trkpt><trkpt lat="45.7930837" lon="13.9882586"><ele>259.3333333333333</ele><time>2026-04-26T11:36:35.447Z</time></trkpt><trkpt lat="45.7931364" lon="13.9880397"><ele>259.6666666666667</ele><time>2026-04-26T11:36:36.447Z</time></trkpt><trkpt lat="45.7931898" lon="13.9878041"><ele>260.0</ele><time>2026-04-26T11:36:37.447Z</time></trkpt><trkpt lat="45.7932335" lon="13.9875459"><ele>259.5</ele><time>2026-04-26T11:36:38.447Z</time></trkpt><trkpt lat="45.7932768" lon="13.9872945"><ele>259.0</ele><time>2026-04-26T11:36:39.447Z</time></trkpt><trkpt lat="45.7933308" lon="13.9871004"><ele>258.5</ele><time>2026-04-26T11:36:40.448Z</time></trkpt><trkpt lat="45.7933879" lon="13.9869439"><ele>258.0</ele><time>2026-04-26T11:36:41.447Z</time></trkpt><trkpt lat="45.7934457" lon="13.9868551"><ele>258.0</ele><time>2026-04-26T11:36:42.447Z</time></trkpt><trkpt lat="45.7935065" lon="13.9868227"><ele>258.0</ele><time>2026-04-26T11:36:43.447Z</time></trkpt><trkpt lat="45.7935866" lon="13.9869156"><ele>258.0</ele><time>2026-04-26T11:36:45.447Z</time></trkpt><trkpt lat="45.7935776" lon="13.9870184"><ele>258.0</ele><time>2026-04-26T11:36:46.447Z</time></trkpt><trkpt lat="45.7935447" lon="13.9871509"><ele>258.0</ele><time>2026-04-26T11:36:47.447Z</time></trkpt><trkpt lat="45.793498" lon="13.9872896"><ele>258.0</ele><time>2026-04-26T11:36:48.447Z</time></trkpt><trkpt lat="45.7934801" lon="13.987456"><ele>258.6666666666667</ele><time>2026-04-26T11:36:49.447Z</time></trkpt><trkpt lat="45.7934831" lon="13.9876437"><ele>259.33333333333337</ele><time>2026-04-26T11:36:50.447Z</time></trkpt><trkpt lat="45.7935203" lon="13.9878601"><ele>260.0</ele><time>2026-04-26T11:36:51.447Z</time></trkpt><trkpt lat="45.7935691" lon="13.9880883"><ele>272.33333333333337</ele><time>2026-04-26T11:36:52.447Z</time></trkpt><trkpt lat="45.7936234" lon="13.9883342"><ele>284.6666666666667</ele><time>2026-04-26T11:36:53.447Z</time></trkpt><trkpt lat="45.7936841" lon="13.98858"><ele>297.0</ele><time>2026-04-26T11:36:54.447Z</time></trkpt><trkpt lat="45.7937402" lon="13.9888203"><ele>297.0</ele><time>2026-04-26T11:36:55.447Z</time></trkpt><trkpt lat="45.7938143" lon="13.9890723"><ele>297.0</ele><time>2026-04-26T11:36:56.447Z</time></trkpt><trkpt lat="45.793895" lon="13.9893469"><ele>297.0</ele><time>2026-04-26T11:36:57.447Z</time></trkpt><trkpt lat="45.7939767" lon="13.9896306"><ele>294.6666666666667</ele><time>2026-04-26T11:36:58.447Z</time></trkpt><trkpt lat="45.7940569" lon="13.9899273"><ele>292.33333333333337</ele><time>2026-04-26T11:36:59.447Z</time></trkpt><trkpt lat="45.7941297" lon="13.9902274"><ele>290.0</ele><time>2026-04-26T11:37:00.447Z</time></trkpt><trkpt lat="45.7941979" lon="13.990513"><ele>288.6666666666667</ele><time>2026-04-26T11:37:01.447Z</time></trkpt><trkpt lat="45.794272" lon="13.9907796"><ele>287.3333333333333</ele><time>2026-04-26T11:37:02.448Z</time></trkpt><trkpt lat="45.794356" lon="13.9910309"><ele>286.0</ele><time>2026-04-26T11:37:03.448Z</time></trkpt><trkpt lat="45.7944421" lon="13.9912643"><ele>292.75</ele><time>2026-04-26T11:37:04.447Z</time></trkpt><trkpt lat="45.7945206" lon="13.9914724"><ele>299.5</ele><time>2026-04-26T11:37:05.447Z</time></trkpt><trkpt lat="45.7946012" lon="13.9916522"><ele>306.25</ele><time>2026-04-26T11:37:06.447Z</time></trkpt><trkpt lat="45.7946807" lon="13.9918052"><ele>313.0</ele><time>2026-04-26T11:37:07.447Z</time></trkpt><trkpt lat="45.7947546" lon="13.9919343"><ele>313.0</ele><time>2026-04-26T11:37:08.448Z</time></trkpt><trkpt lat="45.7947934" lon="13.9920447"><ele>313.0</ele><time>2026-04-26T11:37:09.447Z</time></trkpt><trkpt lat="45.7947889" lon="13.9921549"><ele>313.0</ele><time>2026-04-26T11:37:10.448Z</time></trkpt><trkpt lat="45.7947566" lon="13.9922516"><ele>313.0</ele><time>2026-04-26T11:37:11.447Z</time></trkpt><trkpt lat="45.7946908" lon="13.9923381"><ele>313.0</ele><time>2026-04-26T11:37:12.447Z</time></trkpt><trkpt lat="45.794606" lon="13.992416"><ele>313.0</ele><time>2026-04-26T11:37:13.447Z</time></trkpt><trkpt lat="45.7945129" lon="13.9924749"><ele>312.75</ele><time>2026-04-26T11:37:14.447Z</time></trkpt><trkpt lat="45.7944063" lon="13.9925485"><ele>312.5</ele><time>2026-04-26T11:37:15.447Z</time></trkpt><trkpt lat="45.794296" lon="13.99264"><ele>312.25</ele><time>2026-04-26T11:37:16.447Z</time></trkpt><trkpt lat="45.7941949" lon="13.9927725"><ele>312.0</ele><time>2026-04-26T11:37:17.447Z</time></trkpt><trkpt lat="45.7941126" lon="13.9929212"><ele>312.0</ele><time>2026-04-26T11:37:18.447Z</time></trkpt><trkpt lat="45.7940135" lon="13.9930699"><ele>312.0</ele><time>2026-04-26T11:37:19.447Z</time></trkpt><trkpt lat="45.7939253" lon="13.9932129"><ele>312.0</ele><time>2026-04-26T11:37:20.447Z</time></trkpt><trkpt lat="45.7938727" lon="13.9933666"><ele>312.0</ele><time>2026-04-26T11:37:21.446Z</time></trkpt><trkpt lat="45.7938607" lon="13.9935301"><ele>314.6</ele><time>2026-04-26T11:37:22.446Z</time></trkpt><trkpt lat="45.7938852" lon="13.9936583"><ele>317.2</ele><time>2026-04-26T11:37:23.446Z</time></trkpt><trkpt lat="45.7939912" lon="13.9937438"><ele>319.8</ele><time>2026-04-26T11:37:25.446Z</time></trkpt><trkpt lat="45.7940874" lon="13.9937632"><ele>322.4</ele><time>2026-04-26T11:37:26.446Z</time></trkpt><trkpt lat="45.7941905" lon="13.9937722"><ele>325.0</ele><time>2026-04-26T11:37:27.446Z</time></trkpt><trkpt lat="45.7943119" lon="13.9937686"><ele>327.25</ele><time>2026-04-26T11:37:28.446Z</time></trkpt><trkpt lat="45.7944393" lon="13.9937579"><ele>329.5</ele><time>2026-04-26T11:37:29.446Z</time></trkpt><trkpt lat="45.7945713" lon="13.9937249"><ele>331.75</ele><time>2026-04-26T11:37:30.446Z</time></trkpt><trkpt lat="45.7947081" lon="13.9936794"><ele>334.0</ele><time>2026-04-26T11:37:31.447Z</time></trkpt><trkpt lat="45.7948285" lon="13.9936145"><ele>334.0</ele><time>2026-04-26T11:37:32.446Z</time></trkpt><trkpt lat="45.7949351" lon="13.9935479"><ele>334.0</ele><time>2026-04-26T11:37:33.447Z</time></trkpt><trkpt lat="45.7950463" lon="13.9934848"><ele>334.0</ele><time>2026-04-26T11:37:34.446Z</time></trkpt><trkpt lat="45.7951867" lon="13.9934673"><ele>334.0</ele><time>2026-04-26T11:37:35.446Z</time></trkpt><trkpt lat="45.7953392" lon="13.9934907"><ele>335.75</ele><time>2026-04-26T11:37:36.447Z</time></trkpt><trkpt lat="45.7954841" lon="13.9935117"><ele>337.5</ele><time>2026-04-26T11:37:37.446Z</time></trkpt><trkpt lat="45.795623" lon="13.9934908"><ele>339.25</ele><time>2026-04-26T11:37:38.446Z</time></trkpt><trkpt lat="45.7957769" lon="13.9934805"><ele>341.0</ele><time>2026-04-26T11:37:39.446Z</time></trkpt><trkpt lat="45.7959381" lon="13.993487"><ele>344.75</ele><time>2026-04-26T11:37:40.446Z</time></trkpt><trkpt lat="45.7960754" lon="13.9935222"><ele>348.5</ele><time>2026-04-26T11:37:41.446Z</time></trkpt><trkpt lat="45.7962" lon="13.9935336"><ele>352.25</ele><time>2026-04-26T11:37:42.446Z</time></trkpt><trkpt lat="45.7963018" lon="13.9934834"><ele>356.0</ele><time>2026-04-26T11:37:43.446Z</time></trkpt><trkpt lat="45.796399" lon="13.9933702"><ele>353.25</ele><time>2026-04-26T11:37:44.446Z</time></trkpt><trkpt lat="45.7964928" lon="13.9932164"><ele>350.5</ele><time>2026-04-26T11:37:45.446Z</time></trkpt><trkpt lat="45.7965877" lon="13.9930743"><ele>347.75</ele><time>2026-04-26T11:37:46.447Z</time></trkpt><trkpt lat="45.796667" lon="13.9929724"><ele>345.0</ele><time>2026-04-26T11:37:47.446Z</time></trkpt><trkpt lat="45.7967509" lon="13.9929205"><ele>347.4</ele><time>2026-04-26T11:37:48.446Z</time></trkpt><trkpt lat="45.7968426" lon="13.9928901"><ele>349.8</ele><time>2026-04-26T11:37:49.446Z</time></trkpt><trkpt lat="45.7969431" lon="13.9928469"><ele>352.20000000000005</ele><time>2026-04-26T11:37:50.446Z</time></trkpt><trkpt lat="45.7970517" lon="13.9927884"><ele>354.6</ele><time>2026-04-26T11:37:51.446Z</time></trkpt><trkpt lat="45.7971537" lon="13.9927261"><ele>357.0</ele><time>2026-04-26T11:37:52.446Z</time></trkpt><trkpt lat="45.7972348" lon="13.9926858"><ele>357.0</ele><time>2026-04-26T11:37:53.446Z</time></trkpt><trkpt lat="45.7973076" lon="13.9926818"><ele>357.0</ele><time>2026-04-26T11:37:54.446Z</time></trkpt><trkpt lat="45.7973569" lon="13.9928027"><ele>357.0</ele><time>2026-04-26T11:37:56.447Z</time></trkpt><trkpt lat="45.7973044" lon="13.9928546"><ele>357.0</ele><time>2026-04-26T11:37:57.446Z</time></trkpt><trkpt lat="45.7972342" lon="13.9929004"><ele>357.0</ele><time>2026-04-26T11:37:58.446Z</time></trkpt><trkpt lat="45.7971573" lon="13.9929419"><ele>357.0</ele><time>2026-04-26T11:37:59.446Z</time></trkpt><trkpt lat="45.7970665" lon="13.9929968"><ele>357.0</ele><time>2026-04-26T11:38:00.446Z</time></trkpt><trkpt lat="45.7969773" lon="13.9931246"><ele>357.0</ele><time>2026-04-26T11:38:01.446Z</time></trkpt><trkpt lat="45.7969092" lon="13.9932947"><ele>357.0</ele><time>2026-04-26T11:38:02.446Z</time></trkpt><trkpt lat="45.7968494" lon="13.9934846"><ele>357.0</ele><time>2026-04-26T11:38:03.446Z</time></trkpt><trkpt lat="45.7968015" lon="13.9936828"><ele>356.75</ele><time>2026-04-26T11:38:04.446Z</time></trkpt><trkpt lat="45.7967688" lon="13.993868"><ele>356.5</ele><time>2026-04-26T11:38:05.447Z</time></trkpt><trkpt lat="45.7967478" lon="13.9940475"><ele>356.25</ele><time>2026-04-26T11:38:06.446Z</time></trkpt><trkpt lat="45.7967226" lon="13.9942183"><ele>356.0</ele><time>2026-04-26T11:38:07.446Z</time></trkpt><trkpt lat="45.7966595" lon="13.9943718"><ele>360.5</ele><time>2026-04-26T11:38:08.446Z</time></trkpt><trkpt lat="45.7965668" lon="13.9944958"><ele>365.0</ele><time>2026-04-26T11:38:09.446Z</time></trkpt><trkpt lat="45.7964535" lon="13.9946318"><ele>369.5</ele><time>2026-04-26T11:38:10.446Z</time></trkpt><trkpt lat="45.7963393" lon="13.9948098"><ele>374.0</ele><time>2026-04-26T11:38:11.446Z</time></trkpt><trkpt lat="45.7962211" lon="13.9949893"><ele>375.33333333333337</ele><time>2026-04-26T11:38:12.446Z</time></trkpt><trkpt lat="45.796092" lon="13.9951584"><ele>376.6666666666667</ele><time>2026-04-26T11:38:13.446Z</time></trkpt><trkpt lat="45.7959578" lon="13.9953338"><ele>378.0</ele><time>2026-04-26T11:38:14.446Z</time></trkpt><trkpt lat="45.7958282" lon="13.9954998"><ele>378.0</ele><time>2026-04-26T11:38:15.446Z</time></trkpt><trkpt lat="45.795712" lon="13.9956784"><ele>378.0</ele><time>2026-04-26T11:38:16.446Z</time></trkpt><trkpt lat="45.7956087" lon="13.9958547"><ele>378.0</ele><time>2026-04-26T11:38:17.446Z</time></trkpt><trkpt lat="45.7955157" lon="13.9960485"><ele>383.33333333333337</ele><time>2026-04-26T11:38:18.446Z</time></trkpt><trkpt lat="45.7954295" lon="13.996245"><ele>388.6666666666667</ele><time>2026-04-26T11:38:19.446Z</time></trkpt><trkpt lat="45.7953435" lon="13.9964278"><ele>394.0</ele><time>2026-04-26T11:38:20.446Z</time></trkpt><trkpt lat="45.7952518" lon="13.9966079"><ele>391.75</ele><time>2026-04-26T11:38:21.447Z</time></trkpt><trkpt lat="45.7951556" lon="13.9967692"><ele>389.5</ele><time>2026-04-26T11:38:22.446Z</time></trkpt><trkpt lat="45.7950774" lon="13.9969036"><ele>387.25</ele><time>2026-04-26T11:38:23.446Z</time></trkpt><trkpt lat="45.7950227" lon="13.9970286"><ele>385.0</ele><time>2026-04-26T11:38:24.446Z</time></trkpt><trkpt lat="45.7950155" lon="13.9971913"><ele>385.0</ele><time>2026-04-26T11:38:25.446Z</time></trkpt><trkpt lat="45.7950246" lon="13.9973792"><ele>385.0</ele><time>2026-04-26T11:38:26.447Z</time></trkpt><trkpt lat="45.7950331" lon="13.9975693"><ele>385.0</ele><time>2026-04-26T11:38:27.446Z</time></trkpt><trkpt lat="45.7950063" lon="13.9977558"><ele>385.0</ele><time>2026-04-26T11:38:28.446Z</time></trkpt><trkpt lat="45.7949475" lon="13.9979795"><ele>387.75</ele><time>2026-04-26T11:38:29.446Z</time></trkpt><trkpt lat="45.7948757" lon="13.9981888"><ele>390.5</ele><time>2026-04-26T11:38:30.446Z</time></trkpt><trkpt lat="45.7948128" lon="13.9983617"><ele>393.25</ele><time>2026-04-26T11:38:31.446Z</time></trkpt><trkpt lat="45.7947542" lon="13.9985036"><ele>396.0</ele><time>2026-04-26T11:38:32.446Z</time></trkpt><trkpt lat="45.7946683" lon="13.9986063"><ele>395.75</ele><time>2026-04-26T11:38:33.446Z</time></trkpt><trkpt lat="45.7945483" lon="13.9986909"><ele>395.5</ele><time>2026-04-26T11:38:34.446Z</time></trkpt><trkpt lat="45.7944318" lon="13.9987769"><ele>395.25</ele><time>2026-04-26T11:38:35.447Z</time></trkpt><trkpt lat="45.7942996" lon="13.9989182"><ele>395.0</ele><time>2026-04-26T11:38:36.446Z</time></trkpt><trkpt lat="45.7941645" lon="13.9990943"><ele>405.3333333333333</ele><time>2026-04-26T11:38:37.446Z</time></trkpt><trkpt lat="45.7940233" lon="13.9992709"><ele>415.66666666666663</ele><time>2026-04-26T11:38:38.446Z</time></trkpt><trkpt lat="45.7938819" lon="13.9994501"><ele>426.0</ele><time>2026-04-26T11:38:39.446Z</time></trkpt><trkpt lat="45.7937293" lon="13.9996382"><ele>426.0</ele><time>2026-04-26T11:38:40.446Z</time></trkpt><trkpt lat="45.7935769" lon="13.9998319"><ele>426.0</ele><time>2026-04-26T11:38:41.447Z</time></trkpt><trkpt lat="45.7934281" lon="14.0000404"><ele>426.0</ele><time>2026-04-26T11:38:42.446Z</time></trkpt><trkpt lat="45.7932931" lon="14.0002799"><ele>424.66666666666663</ele><time>2026-04-26T11:38:43.446Z</time></trkpt><trkpt lat="45.7931691" lon="14.0005197"><ele>423.3333333333333</ele><time>2026-04-26T11:38:44.446Z</time></trkpt><trkpt lat="45.7930478" lon="14.0007525"><ele>422.0</ele><time>2026-04-26T11:38:45.446Z</time></trkpt><trkpt lat="45.7929218" lon="14.0009533"><ele>422.0</ele><time>2026-04-26T11:38:46.446Z</time></trkpt><trkpt lat="45.79278" lon="14.0011262"><ele>422.0</ele><time>2026-04-26T11:38:47.446Z</time></trkpt><trkpt lat="45.7926594" lon="14.0013034"><ele>422.0</ele><time>2026-04-26T11:38:48.446Z</time></trkpt><trkpt lat="45.7925513" lon="14.001481"><ele>421.0</ele><time>2026-04-26T11:38:49.446Z</time></trkpt><trkpt lat="45.7924762" lon="14.0016394"><ele>420.0</ele><time>2026-04-26T11:38:50.447Z</time></trkpt><trkpt lat="45.7924194" lon="14.00181"><ele>419.0</ele><time>2026-04-26T11:38:51.446Z</time></trkpt><trkpt lat="45.7923872" lon="14.0020154"><ele>418.0</ele><time>2026-04-26T11:38:52.446Z</time></trkpt><trkpt lat="45.792364" lon="14.0022444"><ele>420.6666666666667</ele><time>2026-04-26T11:38:53.446Z</time></trkpt><trkpt lat="45.7923204" lon="14.0024994"><ele>423.33333333333337</ele><time>2026-04-26T11:38:54.446Z</time></trkpt><trkpt lat="45.7922471" lon="14.0027204"><ele>426.0</ele><time>2026-04-26T11:38:55.446Z</time></trkpt><trkpt lat="45.7921758" lon="14.0029022"><ele>426.0</ele><time>2026-04-26T11:38:56.447Z</time></trkpt><trkpt lat="45.7921153" lon="14.0030293"><ele>426.0</ele><time>2026-04-26T11:38:57.446Z</time></trkpt><trkpt lat="45.7920734" lon="14.0031249"><ele>426.0</ele><time>2026-04-26T11:38:58.446Z</time></trkpt><trkpt lat="45.792141" lon="14.0032462"><ele>426.0</ele><time>2026-04-26T11:39:00.446Z</time></trkpt><trkpt lat="45.792206" lon="14.0032464"><ele>426.0</ele><time>2026-04-26T11:39:01.446Z</time></trkpt><trkpt lat="45.7922625" lon="14.0031767"><ele>426.0</ele><time>2026-04-26T11:39:02.446Z</time></trkpt><trkpt lat="45.7923201" lon="14.0030655"><ele>426.0</ele><time>2026-04-26T11:39:03.446Z</time></trkpt><trkpt lat="45.7923853" lon="14.0029026"><ele>426.0</ele><time>2026-04-26T11:39:04.446Z</time></trkpt><trkpt lat="45.7924702" lon="14.002753"><ele>426.0</ele><time>2026-04-26T11:39:05.446Z</time></trkpt><trkpt lat="45.7925797" lon="14.0025991"><ele>426.0</ele><time>2026-04-26T11:39:06.446Z</time></trkpt><trkpt lat="45.7927092" lon="14.0024485"><ele>431.0</ele><time>2026-04-26T11:39:07.446Z</time></trkpt><trkpt lat="45.7928443" lon="14.002282"><ele>436.0</ele><time>2026-04-26T11:39:08.447Z</time></trkpt><trkpt lat="45.7929716" lon="14.002089"><ele>441.0</ele><time>2026-04-26T11:39:09.446Z</time></trkpt><trkpt lat="45.7930849" lon="14.0018771"><ele>441.0</ele><time>2026-04-26T11:39:10.447Z</time></trkpt><trkpt lat="45.7932115" lon="14.0016983"><ele>441.0</ele><time>2026-04-26T11:39:11.446Z</time></trkpt><trkpt lat="45.7933753" lon="14.0015367"><ele>441.0</ele><time>2026-04-26T11:39:12.446Z</time></trkpt><trkpt lat="45.7935547" lon="14.0013782"><ele>444.66666666666663</ele><time>2026-04-26T11:39:13.446Z</time></trkpt><trkpt lat="45.7937324" lon="14.0012278"><ele>448.3333333333333</ele><time>2026-04-26T11:39:14.446Z</time></trkpt><trkpt lat="45.7939151" lon="14.001072"><ele>452.0</ele><time>2026-04-26T11:39:15.446Z</time></trkpt><trkpt lat="45.7940946" lon="14.0008911"><ele>451.66666666666663</ele><time>2026-04-26T11:39:16.446Z</time></trkpt><trkpt lat="45.7942491" lon="14.0007103"><ele>451.33333333333337</ele><time>2026-04-26T11:39:17.446Z</time></trkpt><trkpt lat="45.7943879" lon="14.0005616"><ele>451.0</ele><time>2026-04-26T11:39:18.446Z</time></trkpt><trkpt lat="45.7945218" lon="14.0004371"><ele>451.0</ele><time>2026-04-26T11:39:19.446Z</time></trkpt><trkpt lat="45.7946587" lon="14.0003246"><ele>451.0</ele><time>2026-04-26T11:39:20.446Z</time></trkpt><trkpt lat="45.7948096" lon="14.0002197"><ele>451.0</ele><time>2026-04-26T11:39:21.446Z</time></trkpt><trkpt lat="45.7949616" lon="14.0001382"><ele>451.0</ele><time>2026-04-26T11:39:22.447Z</time></trkpt><trkpt lat="45.7951014" lon="14.0000683"><ele>451.0</ele><time>2026-04-26T11:39:23.446Z</time></trkpt><trkpt lat="45.7952493" lon="13.9999972"><ele>451.0</ele><time>2026-04-26T11:39:24.446Z</time></trkpt><trkpt lat="45.7953993" lon="13.999942"><ele>454.0</ele><time>2026-04-26T11:39:25.446Z</time></trkpt><trkpt lat="45.7955359" lon="13.9999392"><ele>457.0</ele><time>2026-04-26T11:39:26.446Z</time></trkpt><trkpt lat="45.7956695" lon="14.0000088"><ele>460.0</ele><time>2026-04-26T11:39:27.446Z</time></trkpt><trkpt lat="45.7958218" lon="14.0000751"><ele>463.0</ele><time>2026-04-26T11:39:28.446Z</time></trkpt><trkpt lat="45.7959781" lon="14.0001264"><ele>470.0</ele><time>2026-04-26T11:39:29.446Z</time></trkpt><trkpt lat="45.7961247" lon="14.0001406"><ele>477.0</ele><time>2026-04-26T11:39:30.447Z</time></trkpt><trkpt lat="45.7962709" lon="14.0001042"><ele>484.0</ele><time>2026-04-26T11:39:31.446Z</time></trkpt><trkpt lat="45.7964283" lon="14.0000386"><ele>484.0</ele><time>2026-04-26T11:39:32.446Z</time></trkpt><trkpt lat="45.79658" lon="13.9999631"><ele>484.0</ele><time>2026-04-26T11:39:33.446Z</time></trkpt><trkpt lat="45.796737" lon="13.9998687"><ele>484.0</ele><time>2026-04-26T11:39:34.446Z</time></trkpt><trkpt lat="45.7969009" lon="13.9997662"><ele>493.0</ele><time>2026-04-26T11:39:35.446Z</time></trkpt><trkpt lat="45.7970725" lon="13.999645"><ele>502.0</ele><time>2026-04-26T11:39:36.446Z</time></trkpt><trkpt lat="45.7972456" lon="13.999514"><ele>511.0</ele><time>2026-04-26T11:39:37.446Z</time></trkpt><trkpt lat="45.7974094" lon="13.9993781"><ele>511.0</ele><time>2026-04-26T11:39:38.446Z</time></trkpt><trkpt lat="45.7975673" lon="13.9992388"><ele>511.0</ele><time>2026-04-26T11:39:39.447Z</time></trkpt><trkpt lat="45.7977068" lon="13.9991037"><ele>511.0</ele><time>2026-04-26T11:39:40.446Z</time></trkpt><trkpt lat="45.7978359" lon="13.9989684"><ele>512.0</ele><time>2026-04-26T11:39:41.446Z</time></trkpt><trkpt lat="45.7979462" lon="13.9988416"><ele>513.0</ele><time>2026-04-26T11:39:42.446Z</time></trkpt><trkpt lat="45.7980418" lon="13.9987055"><ele>514.0</ele><time>2026-04-26T11:39:43.446Z</time></trkpt><trkpt lat="45.7981198" lon="13.9985615"><ele>515.0</ele><time>2026-04-26T11:39:44.446Z</time></trkpt><trkpt lat="45.7981758" lon="13.9983853"><ele>510.75</ele><time>2026-04-26T11:39:45.446Z</time></trkpt><trkpt lat="45.7982213" lon="13.9982064"><ele>506.5</ele><time>2026-04-26T11:39:46.446Z</time></trkpt><trkpt lat="45.7982663" lon="13.9980213"><ele>502.25</ele><time>2026-04-26T11:39:47.447Z</time></trkpt><trkpt lat="45.798314" lon="13.9978559"><ele>498.0</ele><time>2026-04-26T11:39:48.446Z</time></trkpt><trkpt lat="45.7983758" lon="13.9976831"><ele>498.0</ele><time>2026-04-26T11:39:49.446Z</time></trkpt><trkpt lat="45.7984783" lon="13.997517"><ele>498.0</ele><time>2026-04-26T11:39:50.446Z</time></trkpt><trkpt lat="45.7986401" lon="13.9973566"><ele>498.0</ele><time>2026-04-26T11:39:51.446Z</time></trkpt><trkpt lat="45.7988131" lon="13.9971847"><ele>504.66666666666663</ele><time>2026-04-26T11:39:52.446Z</time></trkpt><trkpt lat="45.7989819" lon="13.9970568"><ele>511.3333333333333</ele><time>2026-04-26T11:39:53.446Z</time></trkpt><trkpt lat="45.7991351" lon="13.9969533"><ele>518.0</ele><time>2026-04-26T11:39:54.446Z</time></trkpt><trkpt lat="45.799292" lon="13.9968655"><ele>516.75</ele><time>2026-04-26T11:39:55.446Z</time></trkpt><trkpt lat="45.7994308" lon="13.9967788"><ele>515.5</ele><time>2026-04-26T11:39:56.446Z</time></trkpt><trkpt lat="45.7995626" lon="13.9966999"><ele>514.25</ele><time>2026-04-26T11:39:57.447Z</time></trkpt><trkpt lat="45.7996832" lon="13.9966288"><ele>513.0</ele><time>2026-04-26T11:39:58.446Z</time></trkpt><trkpt lat="45.7997983" lon="13.9965617"><ele>513.0</ele><time>2026-04-26T11:39:59.446Z</time></trkpt><trkpt lat="45.7999143" lon="13.9964931"><ele>513.0</ele><time>2026-04-26T11:40:00.446Z</time></trkpt><trkpt lat="45.8000292" lon="13.9964259"><ele>513.0</ele><time>2026-04-26T11:40:01.446Z</time></trkpt><trkpt lat="45.8001361" lon="13.9963566"><ele>513.0</ele><time>2026-04-26T11:40:02.446Z</time></trkpt><trkpt lat="45.800229" lon="13.9963121"><ele>513.0</ele><time>2026-04-26T11:40:03.446Z</time></trkpt><trkpt lat="45.8003081" lon="13.9962905"><ele>513.0</ele><time>2026-04-26T11:40:04.446Z</time></trkpt><trkpt lat="45.8003412" lon="13.9964162"><ele>513.0</ele><time>2026-04-26T11:40:06.446Z</time></trkpt><trkpt lat="45.8002953" lon="13.9964897"><ele>513.0</ele><time>2026-04-26T11:40:07.446Z</time></trkpt><trkpt lat="45.8002166" lon="13.996524"><ele>513.0</ele><time>2026-04-26T11:40:08.446Z</time></trkpt><trkpt lat="45.8000996" lon="13.9965596"><ele>513.0</ele><time>2026-04-26T11:40:09.446Z</time></trkpt><trkpt lat="45.7999638" lon="13.996649"><ele>525.3333333333334</ele><time>2026-04-26T11:40:10.447Z</time></trkpt><trkpt lat="45.7998138" lon="13.9967804"><ele>537.6666666666667</ele><time>2026-04-26T11:40:11.446Z</time></trkpt><trkpt lat="45.7996596" lon="13.9969524"><ele>550.0</ele><time>2026-04-26T11:40:12.446Z</time></trkpt><trkpt lat="45.7995188" lon="13.9971503"><ele>550.0</ele><time>2026-04-26T11:40:13.446Z</time></trkpt><trkpt lat="45.7993825" lon="13.9973511"><ele>550.0</ele><time>2026-04-26T11:40:14.446Z</time></trkpt><trkpt lat="45.7992453" lon="13.9975321"><ele>550.0</ele><time>2026-04-26T11:40:15.446Z</time></trkpt><trkpt lat="45.7991156" lon="13.9977089"><ele>551.75</ele><time>2026-04-26T11:40:16.447Z</time></trkpt><trkpt lat="45.7990106" lon="13.9978693"><ele>553.5</ele><time>2026-04-26T11:40:17.446Z</time></trkpt><trkpt lat="45.7989465" lon="13.9980286"><ele>555.25</ele><time>2026-04-26T11:40:18.446Z</time></trkpt><trkpt lat="45.7989061" lon="13.9981983"><ele>557.0</ele><time>2026-04-26T11:40:19.446Z</time></trkpt><trkpt lat="45.7988936" lon="13.9983912"><ele>557.0</ele><time>2026-04-26T11:40:20.446Z</time></trkpt><trkpt lat="45.7988675" lon="13.9985901"><ele>557.0</ele><time>2026-04-26T11:40:21.446Z</time></trkpt><trkpt lat="45.7988332" lon="13.9987848"><ele>557.0</ele><time>2026-04-26T11:40:22.446Z</time></trkpt><trkpt lat="45.7987877" lon="13.9990004"><ele>557.0</ele><time>2026-04-26T11:40:23.447Z</time></trkpt><trkpt lat="45.7987259" lon="13.9992082"><ele>564.6</ele><time>2026-04-26T11:40:24.446Z</time></trkpt><trkpt lat="45.7986534" lon="13.9993791"><ele>572.2</ele><time>2026-04-26T11:40:25.446Z</time></trkpt><trkpt lat="45.7985811" lon="13.9994914"><ele>579.8</ele><time>2026-04-26T11:40:26.447Z</time></trkpt><trkpt lat="45.7985365" lon="13.9995736"><ele>587.4</ele><time>2026-04-26T11:40:27.446Z</time></trkpt><trkpt lat="45.7985833" lon="13.9996924"><ele>595.0</ele><time>2026-04-26T11:40:29.447Z</time></trkpt><trkpt lat="45.7986486" lon="13.9996839"><ele>595.0</ele><time>2026-04-26T11:40:30.447Z</time></trkpt><trkpt lat="45.7987102" lon="13.9996408"><ele>595.0</ele><time>2026-04-26T11:40:31.447Z</time></trkpt><trkpt lat="45.7987483" lon="13.9995302"><ele>595.0</ele><time>2026-04-26T11:40:32.446Z</time></trkpt><trkpt lat="45.7988066" lon="13.9993889"><ele>595.0</ele><time>2026-04-26T11:40:33.446Z</time></trkpt><trkpt lat="45.7988878" lon="13.9992169"><ele>595.0</ele><time>2026-04-26T11:40:34.446Z</time></trkpt><trkpt lat="45.7989702" lon="13.9990239"><ele>582.3333333333334</ele><time>2026-04-26T11:40:35.446Z</time></trkpt><trkpt lat="45.7990577" lon="13.998823"><ele>569.6666666666666</ele><time>2026-04-26T11:40:36.447Z</time></trkpt><trkpt lat="45.7991603" lon="13.9986116"><ele>557.0</ele><time>2026-04-26T11:40:37.447Z</time></trkpt><trkpt lat="45.7992796" lon="13.9983976"><ele>565.0</ele><time>2026-04-26T11:40:38.446Z</time></trkpt><trkpt lat="45.7993771" lon="13.9981986"><ele>573.0</ele><time>2026-04-26T11:40:39.446Z</time></trkpt><trkpt lat="45.7994791" lon="13.9980382"><ele>581.0</ele><time>2026-04-26T11:40:40.446Z</time></trkpt><trkpt lat="45.7996115" lon="13.9979137"><ele>581.0</ele><time>2026-04-26T11:40:41.446Z</time></trkpt><trkpt lat="45.7997618" lon="13.9977895"><ele>581.0</ele><time>2026-04-26T11:40:42.446Z</time></trkpt><trkpt lat="45.7999285" lon="13.9976563"><ele>581.0</ele><time>2026-04-26T11:40:43.447Z</time></trkpt><trkpt lat="45.8000838" lon="13.9975334"><ele>583.5</ele><time>2026-04-26T11:40:44.446Z</time></trkpt><trkpt lat="45.8002168" lon="13.9974304"><ele>586.0</ele><time>2026-04-26T11:40:45.446Z</time></trkpt><trkpt lat="45.8003215" lon="13.9973465"><ele>588.5</ele><time>2026-04-26T11:40:46.446Z</time></trkpt><trkpt lat="45.8004037" lon="13.9973116"><ele>591.0</ele><time>2026-04-26T11:40:47.447Z</time></trkpt><trkpt lat="45.8005025" lon="13.9973929"><ele>588.5</ele><time>2026-04-26T11:40:49.446Z</time></trkpt><trkpt lat="45.8004059" lon="13.9975149"><ele>586.0</ele><time>2026-04-26T11:40:51.446Z</time></trkpt><trkpt lat="45.800308" lon="13.9975431"><ele>583.5</ele><time>2026-04-26T11:40:52.446Z</time></trkpt><trkpt lat="45.8001944" lon="13.9976024"><ele>581.0</ele><time>2026-04-26T11:40:53.446Z</time></trkpt><trkpt lat="45.8000709" lon="13.9976952"><ele>581.0</ele><time>2026-04-26T11:40:54.446Z</time></trkpt><trkpt lat="45.7999359" lon="13.9978215"><ele>581.0</ele><time>2026-04-26T11:40:55.446Z</time></trkpt><trkpt lat="45.799809" lon="13.997963"><ele>581.0</ele><time>2026-04-26T11:40:56.446Z</time></trkpt><trkpt lat="45.7997073" lon="13.9981349"><ele>581.0</ele><time>2026-04-26T11:40:57.446Z</time></trkpt><trkpt lat="45.7996323" lon="13.998333"><ele>581.0</ele><time>2026-04-26T11:40:58.446Z</time></trkpt><trkpt lat="45.799559" lon="13.9985515"><ele>581.0</ele><time>2026-04-26T11:40:59.446Z</time></trkpt><trkpt lat="45.7994944" lon="13.9987866"><ele>585.6666666666666</ele><time>2026-04-26T11:41:00.447Z</time></trkpt><trkpt lat="45.799411" lon="13.9990166"><ele>590.3333333333334</ele><time>2026-04-26T11:41:01.446Z</time></trkpt><trkpt lat="45.7993054" lon="13.9992393"><ele>595.0</ele><time>2026-04-26T11:41:02.446Z</time></trkpt><trkpt lat="45.7991899" lon="13.9994346"><ele>595.0</ele><time>2026-04-26T11:41:03.446Z</time></trkpt><trkpt lat="45.7990752" lon="13.9996268"><ele>595.0</ele><time>2026-04-26T11:41:04.446Z</time></trkpt><trkpt lat="45.7989571" lon="13.9998204"><ele>595.0</ele><time>2026-04-26T11:41:05.446Z</time></trkpt><trkpt lat="45.7988622" lon="13.9999974"><ele>595.0</ele><time>2026-04-26T11:41:06.446Z</time></trkpt><trkpt lat="45.7987797" lon="14.0001652"><ele>595.0</ele><time>2026-04-26T11:41:07.446Z</time></trkpt><trkpt lat="45.7986887" lon="14.0003101"><ele>595.0</ele><time>2026-04-26T11:41:08.446Z</time></trkpt><trkpt lat="45.798578" lon="14.000458"><ele>595.0</ele><time>2026-04-26T11:41:09.446Z</time></trkpt><trkpt lat="45.7984664" lon="14.0006177"><ele>590.3333333333334</ele><time>2026-04-26T11:41:10.446Z</time></trkpt><trkpt lat="45.7983569" lon="14.0008045"><ele>585.6666666666666</ele><time>2026-04-26T11:41:11.446Z</time></trkpt><trkpt lat="45.7982517" lon="14.0009979"><ele>581.0</ele><time>2026-04-26T11:41:12.446Z</time></trkpt><trkpt lat="45.7981432" lon="14.0011958"><ele>581.0</ele><time>2026-04-26T11:41:13.446Z</time></trkpt><trkpt lat="45.798027" lon="14.0013953"><ele>581.0</ele><time>2026-04-26T11:41:14.447Z</time></trkpt><trkpt lat="45.7978776" lon="14.0015889"><ele>581.0</ele><time>2026-04-26T11:41:15.446Z</time></trkpt><trkpt lat="45.7977131" lon="14.00176"><ele>580.3333333333333</ele><time>2026-04-26T11:41:16.446Z</time></trkpt><trkpt lat="45.7975623" lon="14.0019276"><ele>579.6666666666666</ele><time>2026-04-26T11:41:17.447Z</time></trkpt><trkpt lat="45.797428" lon="14.0020765"><ele>579.0</ele><time>2026-04-26T11:41:18.446Z</time></trkpt><trkpt lat="45.7973035" lon="14.0022286"><ele>579.0</ele><time>2026-04-26T11:41:19.446Z</time></trkpt><trkpt lat="45.7971945" lon="14.0023567"><ele>579.0</ele><time>2026-04-26T11:41:20.447Z</time></trkpt><trkpt lat="45.7970913" lon="14.0024908"><ele>579.0</ele><time>2026-04-26T11:41:21.446Z</time></trkpt><trkpt lat="45.7970107" lon="14.0026416"><ele>579.0</ele><time>2026-04-26T11:41:22.446Z</time></trkpt><trkpt lat="45.7969343" lon="14.0028216"><ele>577.6666666666666</ele><time>2026-04-26T11:41:23.446Z</time></trkpt><trkpt lat="45.7968483" lon="14.0030214"><ele>576.3333333333333</ele><time>2026-04-26T11:41:24.446Z</time></trkpt><trkpt lat="45.7967559" lon="14.0032435"><ele>575.0</ele><time>2026-04-26T11:41:25.446Z</time></trkpt><trkpt lat="45.7966606" lon="14.0034436"><ele>584.0</ele><time>2026-04-26T11:41:26.446Z</time></trkpt><trkpt lat="45.7965596" lon="14.0036314"><ele>593.0</ele><time>2026-04-26T11:41:27.446Z</time></trkpt><trkpt lat="45.7964554" lon="14.003823"><ele>602.0</ele><time>2026-04-26T11:41:28.446Z</time></trkpt><trkpt lat="45.7963438" lon="14.0040169"><ele>611.3333333333333</ele><time>2026-04-26T11:41:29.446Z</time></trkpt><trkpt lat="45.7962283" lon="14.0042179"><ele>620.6666666666666</ele><time>2026-04-26T11:41:30.446Z</time></trkpt><trkpt lat="45.7961171" lon="14.0044324"><ele>630.0</ele><time>2026-04-26T11:41:31.446Z</time></trkpt><trkpt lat="45.7960082" lon="14.0046451"><ele>625.0</ele><time>2026-04-26T11:41:32.446Z</time></trkpt><trkpt lat="45.7958883" lon="14.0048445"><ele>620.0</ele><time>2026-04-26T11:41:33.446Z</time></trkpt><trkpt lat="45.7957609" lon="14.0050326"><ele>615.0</ele><time>2026-04-26T11:41:34.446Z</time></trkpt><trkpt lat="45.7956408" lon="14.0052076"><ele>615.0</ele><time>2026-04-26T11:41:35.446Z</time></trkpt><trkpt lat="45.7955255" lon="14.0053959"><ele>615.0</ele><time>2026-04-26T11:41:36.446Z</time></trkpt><trkpt lat="45.7954216" lon="14.0056059"><ele>615.0</ele><time>2026-04-26T11:41:37.446Z</time></trkpt><trkpt lat="45.7953241" lon="14.0058442"><ele>610.3333333333334</ele><time>2026-04-26T11:41:38.446Z</time></trkpt><trkpt lat="45.7952229" lon="14.0060817"><ele>605.6666666666667</ele><time>2026-04-26T11:41:39.446Z</time></trkpt><trkpt lat="45.7951112" lon="14.006306"><ele>601.0</ele><time>2026-04-26T11:41:40.446Z</time></trkpt><trkpt lat="45.7949805" lon="14.0065225"><ele>611.6666666666667</ele><time>2026-04-26T11:41:41.446Z</time></trkpt><trkpt lat="45.7948394" lon="14.0067318"><ele>622.3333333333334</ele><time>2026-04-26T11:41:42.446Z</time></trkpt><trkpt lat="45.7947137" lon="14.0069706"><ele>633.0</ele><time>2026-04-26T11:41:43.446Z</time></trkpt><trkpt lat="45.7945794" lon="14.0072239"><ele>633.0</ele><time>2026-04-26T11:41:44.446Z</time></trkpt><trkpt lat="45.7944372" lon="14.0074601"><ele>633.0</ele><time>2026-04-26T11:41:45.446Z</time></trkpt><trkpt lat="45.7942827" lon="14.0076931"><ele>633.0</ele><time>2026-04-26T11:41:46.446Z</time></trkpt><trkpt lat="45.7941263" lon="14.0079331"><ele>628.3333333333334</ele><time>2026-04-26T11:41:47.446Z</time></trkpt><trkpt lat="45.7939772" lon="14.0081733"><ele>623.6666666666667</ele><time>2026-04-26T11:41:48.446Z</time></trkpt><trkpt lat="45.793847" lon="14.0084047"><ele>619.0</ele><time>2026-04-26T11:41:49.446Z</time></trkpt><trkpt lat="45.7937216" lon="14.0086065"><ele>616.0</ele><time>2026-04-26T11:41:50.447Z</time></trkpt><trkpt lat="45.7935934" lon="14.0087693"><ele>613.0</ele><time>2026-04-26T11:41:51.446Z</time></trkpt><trkpt lat="45.7934649" lon="14.00891"><ele>610.0</ele><time>2026-04-26T11:41:52.446Z</time></trkpt><trkpt lat="45.7933418" lon="14.0090399"><ele>622.3333333333334</ele><time>2026-04-26T11:41:53.446Z</time></trkpt><trkpt lat="45.7932183" lon="14.0091797"><ele>634.6666666666666</ele><time>2026-04-26T11:41:54.446Z</time></trkpt><trkpt lat="45.7930989" lon="14.0093314"><ele>647.0</ele><time>2026-04-26T11:41:55.446Z</time></trkpt><trkpt lat="45.7929926" lon="14.0095083"><ele>647.0</ele><time>2026-04-26T11:41:56.446Z</time></trkpt><trkpt lat="45.7928979" lon="14.0097156"><ele>647.0</ele><time>2026-04-26T11:41:57.447Z</time></trkpt><trkpt lat="45.7928191" lon="14.009903"><ele>647.0</ele><time>2026-04-26T11:41:58.446Z</time></trkpt><trkpt lat="45.7927227" lon="14.0100582"><ele>645.4</ele><time>2026-04-26T11:41:59.446Z</time></trkpt><trkpt lat="45.7926209" lon="14.010168"><ele>643.8000000000001</ele><time>2026-04-26T11:42:00.446Z</time></trkpt><trkpt lat="45.7925439" lon="14.0102474"><ele>642.2</ele><time>2026-04-26T11:42:01.446Z</time></trkpt><trkpt lat="45.7925351" lon="14.0104"><ele>640.6</ele><time>2026-04-26T11:42:03.446Z</time></trkpt><trkpt lat="45.7925946" lon="14.0104469"><ele>639.0</ele><time>2026-04-26T11:42:04.446Z</time></trkpt><trkpt lat="45.7926869" lon="14.0104457"><ele>641.0</ele><time>2026-04-26T11:42:05.447Z</time></trkpt><trkpt lat="45.7927724" lon="14.0103776"><ele>643.0</ele><time>2026-04-26T11:42:06.446Z</time></trkpt><trkpt lat="45.7928228" lon="14.0102379"><ele>645.0</ele><time>2026-04-26T11:42:07.447Z</time></trkpt><trkpt lat="45.7928795" lon="14.0100579"><ele>647.0</ele><time>2026-04-26T11:42:08.446Z</time></trkpt><trkpt lat="45.7929408" lon="14.0098683"><ele>647.0</ele><time>2026-04-26T11:42:09.446Z</time></trkpt><trkpt lat="45.793018" lon="14.0096974"><ele>647.0</ele><time>2026-04-26T11:42:10.446Z</time></trkpt><trkpt lat="45.7931067" lon="14.0095394"><ele>647.0</ele><time>2026-04-26T11:42:11.446Z</time></trkpt><trkpt lat="45.7932189" lon="14.0094208"><ele>647.0</ele><time>2026-04-26T11:42:12.446Z</time></trkpt><trkpt lat="45.7933578" lon="14.009328"><ele>649.3333333333333</ele><time>2026-04-26T11:42:13.446Z</time></trkpt><trkpt lat="45.7935167" lon="14.0092368"><ele>651.6666666666666</ele><time>2026-04-26T11:42:14.446Z</time></trkpt><trkpt lat="45.7936863" lon="14.0091261"><ele>654.0</ele><time>2026-04-26T11:42:15.447Z</time></trkpt><trkpt lat="45.7938529" lon="14.0090103"><ele>654.0</ele><time>2026-04-26T11:42:16.446Z</time></trkpt><trkpt lat="45.7940101" lon="14.0088981"><ele>654.0</ele><time>2026-04-26T11:42:17.447Z</time></trkpt><trkpt lat="45.7941587" lon="14.0087608"><ele>654.0</ele><time>2026-04-26T11:42:18.446Z</time></trkpt><trkpt lat="45.7943028" lon="14.0085977"><ele>657.6666666666666</ele><time>2026-04-26T11:42:19.446Z</time></trkpt><trkpt lat="45.7944503" lon="14.0084344"><ele>661.3333333333333</ele><time>2026-04-26T11:42:20.446Z</time></trkpt><trkpt lat="45.7946047" lon="14.0082952"><ele>665.0</ele><time>2026-04-26T11:42:21.447Z</time></trkpt><trkpt lat="45.7947682" lon="14.0081778"><ele>665.0</ele><time>2026-04-26T11:42:22.446Z</time></trkpt><trkpt lat="45.7949325" lon="14.0080459"><ele>665.0</ele><time>2026-04-26T11:42:23.446Z</time></trkpt><trkpt lat="45.7950826" lon="14.0078967"><ele>665.0</ele><time>2026-04-26T11:42:24.446Z</time></trkpt><trkpt lat="45.7952236" lon="14.0077379"><ele>676.0</ele><time>2026-04-26T11:42:25.447Z</time></trkpt><trkpt lat="45.795347" lon="14.007571"><ele>687.0</ele><time>2026-04-26T11:42:26.446Z</time></trkpt><trkpt lat="45.795458" lon="14.0073939"><ele>698.0</ele><time>2026-04-26T11:42:27.446Z</time></trkpt><trkpt lat="45.7955517" lon="14.0072195"><ele>698.0</ele><time>2026-04-26T11:42:28.446Z</time></trkpt><trkpt lat="45.7956447" lon="14.007038"><ele>698.0</ele><time>2026-04-26T11:42:29.446Z</time></trkpt><trkpt lat="45.7961224" lon="14.0059999"><ele>690.75</ele><time>2026-04-26T11:42:34.446Z</time></trkpt><trkpt lat="45.7961893" lon="14.0057979"><ele>683.5</ele><time>2026-04-26T11:42:35.446Z</time></trkpt><trkpt lat="45.7962769" lon="14.0056649"><ele>676.25</ele><time>2026-04-26T11:42:36.446Z</time></trkpt><trkpt lat="45.7963575" lon="14.0055554"><ele>669.0</ele><time>2026-04-26T11:42:37.446Z</time></trkpt><trkpt lat="45.7964482" lon="14.0055153"><ele>669.0</ele><time>2026-04-26T11:42:38.447Z</time></trkpt><trkpt lat="45.7965482" lon="14.005469"><ele>669.0</ele><time>2026-04-26T11:42:39.446Z</time></trkpt><trkpt lat="45.7966399" lon="14.005413"><ele>669.0</ele><time>2026-04-26T11:42:40.447Z</time></trkpt><trkpt lat="45.796718" lon="14.005375"><ele>669.0</ele><time>2026-04-26T11:42:41.446Z</time></trkpt><trkpt lat="45.796781" lon="14.0053202"><ele>669.0</ele><time>2026-04-26T11:42:42.446Z</time></trkpt><trkpt lat="45.7968338" lon="14.005252"><ele>669.0</ele><time>2026-04-26T11:42:43.446Z</time></trkpt><trkpt lat="45.7968894" lon="14.0051925"><ele>670.1666666666666</ele><time>2026-04-26T11:42:44.446Z</time></trkpt><trkpt lat="45.7969429" lon="14.0051348"><ele>671.3333333333334</ele><time>2026-04-26T11:42:45.446Z</time></trkpt><trkpt lat="45.7969949" lon="14.0050757"><ele>672.5</ele><time>2026-04-26T11:42:46.446Z</time></trkpt><trkpt lat="45.7970603" lon="14.0050295"><ele>673.6666666666667</ele><time>2026-04-26T11:42:47.446Z</time></trkpt><trkpt lat="45.7971481" lon="14.0049803"><ele>674.8333333333334</ele><time>2026-04-26T11:42:48.446Z</time></trkpt><trkpt lat="45.7972608" lon="14.0048988"><ele>676.0</ele><time>2026-04-26T11:42:49.447Z</time></trkpt><trkpt lat="45.7973888" lon="14.0048009"><ele>676.0</ele><time>2026-04-26T11:42:50.446Z</time></trkpt><trkpt lat="45.7975326" lon="14.0046941"><ele>676.0</ele><time>2026-04-26T11:42:51.446Z</time></trkpt><trkpt lat="45.7976889" lon="14.0045687"><ele>676.0</ele><time>2026-04-26T11:42:52.446Z</time></trkpt><trkpt lat="45.7978338" lon="14.0044207"><ele>684.0</ele><time>2026-04-26T11:42:53.447Z</time></trkpt><trkpt lat="45.7979558" lon="14.004271"><ele>692.0</ele><time>2026-04-26T11:42:54.446Z</time></trkpt><trkpt lat="45.7980547" lon="14.004099"><ele>700.0</ele><time>2026-04-26T11:42:55.446Z</time></trkpt><trkpt lat="45.7981265" lon="14.0039066"><ele>700.0</ele><time>2026-04-26T11:42:56.447Z</time></trkpt><trkpt lat="45.7981894" lon="14.0037233"><ele>700.0</ele><time>2026-04-26T11:42:57.446Z</time></trkpt><trkpt lat="45.7982609" lon="14.0035727"><ele>700.0</ele><time>2026-04-26T11:42:58.446Z</time></trkpt><trkpt lat="45.7983467" lon="14.0034709"><ele>700.0</ele><time>2026-04-26T11:42:59.446Z</time></trkpt><trkpt lat="45.7984686" lon="14.0033973"><ele>699.3333333333334</ele><time>2026-04-26T11:43:00.446Z</time></trkpt><trkpt lat="45.7986114" lon="14.0033177"><ele>698.6666666666666</ele><time>2026-04-26T11:43:01.446Z</time></trkpt><trkpt lat="45.7987572" lon="14.003227"><ele>698.0</ele><time>2026-04-26T11:43:02.446Z</time></trkpt><trkpt lat="45.7989158" lon="14.0031277"><ele>698.0</ele><time>2026-04-26T11:43:03.446Z</time></trkpt><trkpt lat="45.7990717" lon="14.0030352"><ele>698.0</ele><time>2026-04-26T11:43:04.446Z</time></trkpt><trkpt lat="45.7992316" lon="14.0029414"><ele>698.0</ele><time>2026-04-26T11:43:05.446Z</time></trkpt><trkpt lat="45.7993917" lon="14.0028312"><ele>701.0</ele><time>2026-04-26T11:43:06.446Z</time></trkpt><trkpt lat="45.7995537" lon="14.0027104"><ele>704.0</ele><time>2026-04-26T11:43:07.446Z</time></trkpt><trkpt lat="45.7996949" lon="14.002553"><ele>707.0</ele><time>2026-04-26T11:43:08.447Z</time></trkpt><trkpt lat="45.7998195" lon="14.0023764"><ele>707.0</ele><time>2026-04-26T11:43:09.446Z</time></trkpt><trkpt lat="45.7999403" lon="14.0022068"><ele>707.0</ele><time>2026-04-26T11:43:10.446Z</time></trkpt><trkpt lat="45.8000825" lon="14.0020658"><ele>707.0</ele><time>2026-04-26T11:43:11.446Z</time></trkpt><trkpt lat="45.800235" lon="14.0019578"><ele>712.25</ele><time>2026-04-26T11:43:12.446Z</time></trkpt><trkpt lat="45.8003791" lon="14.0018438"><ele>717.5</ele><time>2026-04-26T11:43:13.447Z</time></trkpt><trkpt lat="45.8004934" lon="14.0017198"><ele>722.75</ele><time>2026-04-26T11:43:14.446Z</time></trkpt><trkpt lat="45.8005972" lon="14.0015838"><ele>728.0</ele><time>2026-04-26T11:43:15.446Z</time></trkpt><trkpt lat="45.8006654" lon="14.0014175"><ele>728.0</ele><time>2026-04-26T11:43:16.446Z</time></trkpt><trkpt lat="45.8007059" lon="14.0012402"><ele>728.0</ele><time>2026-04-26T11:43:17.446Z</time></trkpt><trkpt lat="45.8007489" lon="14.0010713"><ele>728.0</ele><time>2026-04-26T11:43:18.446Z</time></trkpt><trkpt lat="45.8008098" lon="14.0009829"><ele>728.0</ele><time>2026-04-26T11:43:19.446Z</time></trkpt><trkpt lat="45.8008967" lon="14.0008966"><ele>728.0</ele><time>2026-04-26T11:43:20.446Z</time></trkpt><trkpt lat="45.8009768" lon="14.0007709"><ele>735.0</ele><time>2026-04-26T11:43:21.446Z</time></trkpt><trkpt lat="45.8010418" lon="14.0005905"><ele>742.0</ele><time>2026-04-26T11:43:22.446Z</time></trkpt><trkpt lat="45.8011107" lon="14.0004084"><ele>749.0</ele><time>2026-04-26T11:43:23.446Z</time></trkpt><trkpt lat="45.8012147" lon="14.000249"><ele>756.0</ele><time>2026-04-26T11:43:24.446Z</time></trkpt><trkpt lat="45.8013295" lon="14.0001085"><ele>756.0</ele><time>2026-04-26T11:43:25.446Z</time></trkpt><trkpt lat="45.801427" lon="13.9999685"><ele>756.0</ele><time>2026-04-26T11:43:26.447Z</time></trkpt><trkpt lat="45.8014802" lon="13.9998034"><ele>756.0</ele><time>2026-04-26T11:43:27.446Z</time></trkpt><trkpt lat="45.8015282" lon="13.9996232"><ele>756.0</ele><time>2026-04-26T11:43:28.446Z</time></trkpt><trkpt lat="45.8015731" lon="13.9994771"><ele>756.0</ele><time>2026-04-26T11:43:29.446Z</time></trkpt><trkpt lat="45.8016425" lon="13.9993483"><ele>756.0</ele><time>2026-04-26T11:43:30.446Z</time></trkpt><trkpt lat="45.8017498" lon="13.9992544"><ele>756.0</ele><time>2026-04-26T11:43:31.446Z</time></trkpt><trkpt lat="45.8018588" lon="13.9991756"><ele>756.0</ele><time>2026-04-26T11:43:32.446Z</time></trkpt><trkpt lat="45.8019684" lon="13.9991223"><ele>757.1999999999999</ele><time>2026-04-26T11:43:33.446Z</time></trkpt><trkpt lat="45.8020696" lon="13.9990917"><ele>758.4</ele><time>2026-04-26T11:43:34.446Z</time></trkpt><trkpt lat="45.8021387" lon="13.9990806"><ele>759.6</ele><time>2026-04-26T11:43:35.446Z</time></trkpt><trkpt lat="45.8022162" lon="13.9991588"><ele>760.8</ele><time>2026-04-26T11:43:37.446Z</time></trkpt><trkpt lat="45.8021411" lon="13.9992462"><ele>762.0</ele><time>2026-04-26T11:43:39.446Z</time></trkpt><trkpt lat="45.8020516" lon="13.9992486"><ele>760.8</ele><time>2026-04-26T11:43:40.447Z</time></trkpt><trkpt lat="45.8019439" lon="13.9992414"><ele>759.6</ele><time>2026-04-26T11:43:41.446Z</time></trkpt><trkpt lat="45.801833" lon="13.9992846"><ele>758.4</ele><time>2026-04-26T11:43:42.446Z</time></trkpt><trkpt lat="45.8017444" lon="13.9993794"><ele>757.1999999999999</ele><time>2026-04-26T11:43:43.446Z</time></trkpt><trkpt lat="45.8016592" lon="13.999489"><ele>756.0</ele><time>2026-04-26T11:43:44.446Z</time></trkpt><trkpt lat="45.8016057" lon="13.9996356"><ele>756.0</ele><time>2026-04-26T11:43:45.446Z</time></trkpt><trkpt lat="45.801575" lon="13.9998171"><ele>756.0</ele><time>2026-04-26T11:43:46.446Z</time></trkpt><trkpt lat="45.8015267" lon="14.0000224"><ele>756.0</ele><time>2026-04-26T11:43:47.446Z</time></trkpt><trkpt lat="45.8014604" lon="14.0002094"><ele>756.0</ele><time>2026-04-26T11:43:48.446Z</time></trkpt><trkpt lat="45.8013829" lon="14.000408"><ele>756.0</ele><time>2026-04-26T11:43:49.447Z</time></trkpt><trkpt lat="45.8013301" lon="14.0006146"><ele>756.0</ele><time>2026-04-26T11:43:50.446Z</time></trkpt><trkpt lat="45.8012905" lon="14.0008261"><ele>756.0</ele><time>2026-04-26T11:43:51.446Z</time></trkpt><trkpt lat="45.8012433" lon="14.0010196"><ele>756.0</ele><time>2026-04-26T11:43:52.446Z</time></trkpt><trkpt lat="45.8011729" lon="14.0012085"><ele>755.0</ele><time>2026-04-26T11:43:53.446Z</time></trkpt><trkpt lat="45.8010925" lon="14.0013923"><ele>754.0</ele><time>2026-04-26T11:43:54.446Z</time></trkpt><trkpt lat="45.8010209" lon="14.001605"><ele>753.0</ele><time>2026-04-26T11:43:55.446Z</time></trkpt><trkpt lat="45.8009391" lon="14.0018254"><ele>753.0</ele><time>2026-04-26T11:43:56.446Z</time></trkpt><trkpt lat="45.8008635" lon="14.0020352"><ele>753.0</ele><time>2026-04-26T11:43:57.446Z</time></trkpt><trkpt lat="45.8007808" lon="14.0022369"><ele>753.0</ele><time>2026-04-26T11:43:58.446Z</time></trkpt><trkpt lat="45.800683" lon="14.0024234"><ele>765.3333333333333</ele><time>2026-04-26T11:43:59.446Z</time></trkpt><trkpt lat="45.8005749" lon="14.0025848"><ele>777.6666666666666</ele><time>2026-04-26T11:44:00.446Z</time></trkpt><trkpt lat="45.8004465" lon="14.0027204"><ele>790.0</ele><time>2026-04-26T11:44:01.446Z</time></trkpt><trkpt lat="45.8003236" lon="14.0028547"><ele>790.0</ele><time>2026-04-26T11:44:02.447Z</time></trkpt><trkpt lat="45.8002063" lon="14.0030117"><ele>790.0</ele><time>2026-04-26T11:44:03.446Z</time></trkpt><trkpt lat="45.8001109" lon="14.0032007"><ele>790.0</ele><time>2026-04-26T11:44:04.446Z</time></trkpt><trkpt lat="45.8000192" lon="14.0033936"><ele>785.25</ele><time>2026-04-26T11:44:05.446Z</time></trkpt><trkpt lat="45.7999303" lon="14.0035792"><ele>780.5</ele><time>2026-04-26T11:44:06.446Z</time></trkpt><trkpt lat="45.7998351" lon="14.0037215"><ele>775.75</ele><time>2026-04-26T11:44:07.447Z</time></trkpt><trkpt lat="45.7997339" lon="14.0038421"><ele>771.0</ele><time>2026-04-26T11:44:08.446Z</time></trkpt><trkpt lat="45.7996326" lon="14.0039371"><ele>771.0</ele><time>2026-04-26T11:44:09.446Z</time></trkpt><trkpt lat="45.7995308" lon="14.0040128"><ele>771.0</ele><time>2026-04-26T11:44:10.446Z</time></trkpt><trkpt lat="45.7994233" lon="14.0040921"><ele>771.0</ele><time>2026-04-26T11:44:11.446Z</time></trkpt><trkpt lat="45.7993113" lon="14.0041594"><ele>771.0</ele><time>2026-04-26T11:44:12.446Z</time></trkpt><trkpt lat="45.7991947" lon="14.0042152"><ele>771.8</ele><time>2026-04-26T11:44:13.446Z</time></trkpt><trkpt lat="45.7990787" lon="14.0042695"><ele>772.5999999999999</ele><time>2026-04-26T11:44:14.446Z</time></trkpt><trkpt lat="45.7989702" lon="14.0043342"><ele>773.4</ele><time>2026-04-26T11:44:15.447Z</time></trkpt><trkpt lat="45.7988889" lon="14.0044262"><ele>774.2</ele><time>2026-04-26T11:44:16.446Z</time></trkpt><trkpt lat="45.7988444" lon="14.00455"><ele>775.0</ele><time>2026-04-26T11:44:17.446Z</time></trkpt><trkpt lat="45.7987918" lon="14.004724"><ele>775.0</ele><time>2026-04-26T11:44:18.446Z</time></trkpt><trkpt lat="45.7987354" lon="14.0049042"><ele>775.0</ele><time>2026-04-26T11:44:19.446Z</time></trkpt><trkpt lat="45.7986648" lon="14.0050819"><ele>775.0</ele><time>2026-04-26T11:44:20.446Z</time></trkpt><trkpt lat="45.7985643" lon="14.0052654"><ele>775.0</ele><time>2026-04-26T11:44:21.446Z</time></trkpt><trkpt lat="45.7984645" lon="14.0054432"><ele>771.3333333333333</ele><time>2026-04-26T11:44:22.446Z</time></trkpt><trkpt lat="45.798369" lon="14.0056202"><ele>767.6666666666666</ele><time>2026-04-26T11:44:23.446Z</time></trkpt><trkpt lat="45.7982737" lon="14.0057872"><ele>764.0</ele><time>2026-04-26T11:44:24.446Z</time></trkpt><trkpt lat="45.7981497" lon="14.0059412"><ele>774.3333333333333</ele><time>2026-04-26T11:44:25.446Z</time></trkpt><trkpt lat="45.7980302" lon="14.0061115"><ele>784.6666666666666</ele><time>2026-04-26T11:44:26.447Z</time></trkpt><trkpt lat="45.7979118" lon="14.0063071"><ele>795.0</ele><time>2026-04-26T11:44:27.447Z</time></trkpt><trkpt lat="45.7978049" lon="14.0065193"><ele>792.6666666666667</ele><time>2026-04-26T11:44:28.446Z</time></trkpt><trkpt lat="45.7976975" lon="14.0067285"><ele>790.3333333333334</ele><time>2026-04-26T11:44:29.446Z</time></trkpt><trkpt lat="45.7976107" lon="14.0069138"><ele>788.0</ele><time>2026-04-26T11:44:30.446Z</time></trkpt><trkpt lat="45.7975216" lon="14.0070833"><ele>788.0</ele><time>2026-04-26T11:44:31.446Z</time></trkpt><trkpt lat="45.7974312" lon="14.0072156"><ele>788.0</ele><time>2026-04-26T11:44:32.446Z</time></trkpt><trkpt lat="45.7973286" lon="14.007325"><ele>788.0</ele><time>2026-04-26T11:44:33.446Z</time></trkpt><trkpt lat="45.7972106" lon="14.0074338"><ele>788.0</ele><time>2026-04-26T11:44:34.446Z</time></trkpt><trkpt lat="45.7971049" lon="14.0075593"><ele>792.2</ele><time>2026-04-26T11:44:35.446Z</time></trkpt><trkpt lat="45.7970126" lon="14.007684"><ele>796.4</ele><time>2026-04-26T11:44:36.446Z</time></trkpt><trkpt lat="45.7969348" lon="14.0077969"><ele>800.6</ele><time>2026-04-26T11:44:37.446Z</time></trkpt><trkpt lat="45.7968802" lon="14.0078973"><ele>804.8000000000001</ele><time>2026-04-26T11:44:38.446Z</time></trkpt><trkpt lat="45.7968645" lon="14.0080092"><ele>809.0</ele><time>2026-04-26T11:44:39.446Z</time></trkpt><trkpt lat="45.7968861" lon="14.0081194"><ele>809.0000000000001</ele><time>2026-04-26T11:44:40.446Z</time></trkpt><trkpt lat="45.7969288" lon="14.0082062"><ele>809.0</ele><time>2026-04-26T11:44:41.446Z</time></trkpt><trkpt lat="45.7969795" lon="14.008283"><ele>809.0</ele><time>2026-04-26T11:44:42.446Z</time></trkpt><trkpt lat="45.7970165" lon="14.0083636"><ele>809.0</ele><time>2026-04-26T11:44:43.447Z</time></trkpt><trkpt lat="45.7970563" lon="14.0084965"><ele>809.0000000000001</ele><time>2026-04-26T11:44:45.446Z</time></trkpt><trkpt lat="45.7970099" lon="14.0085711"><ele>809.0</ele><time>2026-04-26T11:44:47.446Z</time></trkpt><trkpt lat="45.7969355" lon="14.0086283"><ele>810.5000000000001</ele><time>2026-04-26T11:44:50.446Z</time></trkpt><trkpt lat="45.7969092" lon="14.008711"><ele>812.0</ele><time>2026-04-26T11:54:02.445Z</time></trkpt><trkpt lat="45.7969544" lon="14.0087919"><ele>813.5</ele><time>2026-04-26T11:54:04.445Z</time></trkpt><trkpt lat="45.7970498" lon="14.0088503"><ele>815.0</ele><time>2026-04-26T11:54:06.445Z</time></trkpt><trkpt lat="45.7971086" lon="14.0088936"><ele>816.5000000000001</ele><time>2026-04-26T11:54:07.445Z</time></trkpt><trkpt lat="45.7971669" lon="14.008944"><ele>818.0</ele><time>2026-04-26T11:54:08.445Z</time></trkpt><trkpt lat="45.7972616" lon="14.009049"><ele>817.6666666666667</ele><time>2026-04-26T11:54:10.446Z</time></trkpt><trkpt lat="45.7973486" lon="14.0091619"><ele>817.3333333333334</ele><time>2026-04-26T11:54:12.445Z</time></trkpt><trkpt lat="45.7973753" lon="14.0092469"><ele>817.0</ele><time>2026-04-26T11:54:13.445Z</time></trkpt><trkpt lat="45.7974139" lon="14.009341"><ele>816.6666666666667</ele><time>2026-04-26T11:54:14.445Z</time></trkpt><trkpt lat="45.797463" lon="14.0094364"><ele>816.3333333333334</ele><time>2026-04-26T11:54:15.445Z</time></trkpt><trkpt lat="45.7975165" lon="14.0095214"><ele>816.0</ele><time>2026-04-26T11:54:16.445Z</time></trkpt><trkpt lat="45.7975541" lon="14.0096709"><ele>816.0</ele><time>2026-04-26T11:54:18.445Z</time></trkpt><trkpt lat="45.7974748" lon="14.0098"><ele>816.0</ele><time>2026-04-26T11:54:20.445Z</time></trkpt><trkpt lat="45.7974028" lon="14.0098488"><ele>816.0</ele><time>2026-04-26T11:54:21.446Z</time></trkpt><trkpt lat="45.797335" lon="14.0098948"><ele>816.0</ele><time>2026-04-26T11:54:22.445Z</time></trkpt><trkpt lat="45.797259" lon="14.0099454"><ele>816.0</ele><time>2026-04-26T11:54:23.445Z</time></trkpt><trkpt lat="45.7971796" lon="14.0100216"><ele>814.5</ele><time>2026-04-26T11:54:24.445Z</time></trkpt><trkpt lat="45.7970968" lon="14.0101183"><ele>813.0</ele><time>2026-04-26T11:54:25.445Z</time></trkpt><trkpt lat="45.7970163" lon="14.010238"><ele>811.5</ele><time>2026-04-26T11:54:26.445Z</time></trkpt><trkpt lat="45.7969458" lon="14.0103585"><ele>810.0</ele><time>2026-04-26T11:54:27.445Z</time></trkpt><trkpt lat="45.7968768" lon="14.0104951"><ele>809.2</ele><time>2026-04-26T11:54:28.445Z</time></trkpt><trkpt lat="45.7968055" lon="14.0106158"><ele>808.4</ele><time>2026-04-26T11:54:29.445Z</time></trkpt><trkpt lat="45.796735" lon="14.0107398"><ele>807.5999999999999</ele><time>2026-04-26T11:54:30.445Z</time></trkpt><trkpt lat="45.7966603" lon="14.0108479"><ele>806.8</ele><time>2026-04-26T11:54:31.445Z</time></trkpt><trkpt lat="45.7965939" lon="14.0109572"><ele>806.0</ele><time>2026-04-26T11:54:32.445Z</time></trkpt><trkpt lat="45.7965485" lon="14.0110701"><ele>805.0000000000001</ele><time>2026-04-26T11:54:33.445Z</time></trkpt><trkpt lat="45.7965498" lon="14.0111857"><ele>804.0</ele><time>2026-04-26T11:54:35.445Z</time></trkpt><trkpt lat="45.7966594" lon="14.0112294"><ele>803.0</ele><time>2026-04-26T11:54:37.446Z</time></trkpt><trkpt lat="45.7967283" lon="14.011214"><ele>802.0</ele><time>2026-04-26T11:54:38.446Z</time></trkpt><trkpt lat="45.7967921" lon="14.0111743"><ele>801.0000000000001</ele><time>2026-04-26T11:54:39.445Z</time></trkpt><trkpt lat="45.7968553" lon="14.0111214"><ele>800.0</ele><time>2026-04-26T11:54:40.445Z</time></trkpt><trkpt lat="45.796972" lon="14.0110499"><ele>799.6666666666667</ele><time>2026-04-26T11:54:42.445Z</time></trkpt><trkpt lat="45.7970385" lon="14.0110312"><ele>799.3333333333334</ele><time>2026-04-26T11:54:43.446Z</time></trkpt><trkpt lat="45.7971105" lon="14.0110385"><ele>799.0</ele><time>2026-04-26T11:54:44.445Z</time></trkpt><trkpt lat="45.7971843" lon="14.0110554"><ele>798.6666666666667</ele><time>2026-04-26T11:54:45.445Z</time></trkpt><trkpt lat="45.7972688" lon="14.0110824"><ele>798.3333333333334</ele><time>2026-04-26T11:54:46.445Z</time></trkpt><trkpt lat="45.7973623" lon="14.011118"><ele>798.0</ele><time>2026-04-26T11:54:47.446Z</time></trkpt><trkpt lat="45.7974535" lon="14.0111682"><ele>798.0</ele><time>2026-04-26T11:54:48.446Z</time></trkpt><trkpt lat="45.7975465" lon="14.0112168"><ele>798.0</ele><time>2026-04-26T11:54:49.446Z</time></trkpt><trkpt lat="45.7976206" lon="14.0112628"><ele>798.0</ele><time>2026-04-26T11:54:50.445Z</time></trkpt><trkpt lat="45.7976918" lon="14.0112999"><ele>798.0</ele><time>2026-04-26T11:54:51.445Z</time></trkpt><trkpt lat="45.7977603" lon="14.0113279"><ele>798.0</ele><time>2026-04-26T11:54:52.445Z</time></trkpt><trkpt lat="45.79784" lon="14.0113451"><ele>798.0</ele><time>2026-04-26T11:54:53.445Z</time></trkpt><trkpt lat="45.797921" lon="14.0113593"><ele>797.4</ele><time>2026-04-26T11:54:54.445Z</time></trkpt><trkpt lat="45.7980123" lon="14.0113688"><ele>796.8</ele><time>2026-04-26T11:54:55.445Z</time></trkpt><trkpt lat="45.7981111" lon="14.0113833"><ele>796.2</ele><time>2026-04-26T11:54:56.445Z</time></trkpt><trkpt lat="45.7982145" lon="14.0114079"><ele>795.6</ele><time>2026-04-26T11:54:57.445Z</time></trkpt><trkpt lat="45.7983181" lon="14.0114628"><ele>795.0</ele><time>2026-04-26T11:54:58.445Z</time></trkpt><trkpt lat="45.7984071" lon="14.0115084"><ele>795.0</ele><time>2026-04-26T11:54:59.445Z</time></trkpt><trkpt lat="45.7984782" lon="14.0115773"><ele>795.0</ele><time>2026-04-26T11:55:00.445Z</time></trkpt><trkpt lat="45.7985404" lon="14.011641"><ele>795.0</ele><time>2026-04-26T11:55:01.446Z</time></trkpt><trkpt lat="45.7985875" lon="14.0117247"><ele>795.0</ele><time>2026-04-26T11:55:02.446Z</time></trkpt><trkpt lat="45.7986244" lon="14.011808"><ele>795.0</ele><time>2026-04-26T11:55:03.445Z</time></trkpt><trkpt lat="45.7986509" lon="14.0119177"><ele>795.0</ele><time>2026-04-26T11:55:04.445Z</time></trkpt><trkpt lat="45.7986671" lon="14.0120254"><ele>793.8333333333334</ele><time>2026-04-26T11:55:05.445Z</time></trkpt><trkpt lat="45.7986756" lon="14.0121566"><ele>792.6666666666667</ele><time>2026-04-26T11:55:06.445Z</time></trkpt><trkpt lat="45.7986764" lon="14.0123057"><ele>791.5</ele><time>2026-04-26T11:55:07.445Z</time></trkpt><trkpt lat="45.7986858" lon="14.0124428"><ele>790.3333333333334</ele><time>2026-04-26T11:55:08.445Z</time></trkpt><trkpt lat="45.7986843" lon="14.0125602"><ele>789.1666666666667</ele><time>2026-04-26T11:55:09.445Z</time></trkpt><trkpt lat="45.7986717" lon="14.0126609"><ele>788.0</ele><time>2026-04-26T11:55:10.445Z</time></trkpt><trkpt lat="45.7986479" lon="14.0127682"><ele>788.0</ele><time>2026-04-26T11:55:11.445Z</time></trkpt><trkpt lat="45.7986271" lon="14.0128537"><ele>788.0</ele><time>2026-04-26T11:55:12.445Z</time></trkpt><trkpt lat="45.798592" lon="14.0129361"><ele>788.0</ele><time>2026-04-26T11:55:13.445Z</time></trkpt><trkpt lat="45.7985387" lon="14.0130142"><ele>788.0</ele><time>2026-04-26T11:55:14.445Z</time></trkpt><trkpt lat="45.7984828" lon="14.0130894"><ele>788.0</ele><time>2026-04-26T11:55:15.445Z</time></trkpt><trkpt lat="45.7984265" lon="14.0131733"><ele>788.0</ele><time>2026-04-26T11:55:16.446Z</time></trkpt><trkpt lat="45.7983781" lon="14.0132357"><ele>788.0</ele><time>2026-04-26T11:55:17.445Z</time></trkpt><trkpt lat="45.7982917" lon="14.0133254"><ele>786.5999999999999</ele><time>2026-04-26T11:55:19.446Z</time></trkpt><trkpt lat="45.7982475" lon="14.0134363"><ele>785.1999999999999</ele><time>2026-04-26T11:55:21.445Z</time></trkpt><trkpt lat="45.7982634" lon="14.0136026"><ele>783.8</ele><time>2026-04-26T11:55:23.445Z</time></trkpt><trkpt lat="45.7983047" lon="14.0137046"><ele>782.4</ele><time>2026-04-26T11:55:24.445Z</time></trkpt><trkpt lat="45.798346" lon="14.0138048"><ele>781.0</ele><time>2026-04-26T11:55:25.445Z</time></trkpt><trkpt lat="45.7983926" lon="14.0138987"><ele>780.9999999999999</ele><time>2026-04-26T11:55:26.445Z</time></trkpt><trkpt lat="45.7984365" lon="14.0139982"><ele>781.0</ele><time>2026-04-26T11:55:27.446Z</time></trkpt><trkpt lat="45.7984784" lon="14.0141067"><ele>781.0</ele><time>2026-04-26T11:55:28.446Z</time></trkpt><trkpt lat="45.7985296" lon="14.0142191"><ele>781.0</ele><time>2026-04-26T11:55:29.445Z</time></trkpt><trkpt lat="45.7985828" lon="14.0143269"><ele>780.9999999999999</ele><time>2026-04-26T11:55:30.445Z</time></trkpt><trkpt lat="45.7986354" lon="14.0144221"><ele>781.0</ele><time>2026-04-26T11:55:31.445Z</time></trkpt><trkpt lat="45.7986839" lon="14.0144978"><ele>780.1666666666666</ele><time>2026-04-26T11:55:32.445Z</time></trkpt><trkpt lat="45.7987351" lon="14.0145567"><ele>779.3333333333333</ele><time>2026-04-26T11:55:33.445Z</time></trkpt><trkpt lat="45.7988411" lon="14.014625"><ele>778.5</ele><time>2026-04-26T11:55:35.446Z</time></trkpt><trkpt lat="45.7989052" lon="14.0146358"><ele>777.6666666666667</ele><time>2026-04-26T11:55:36.446Z</time></trkpt><trkpt lat="45.7989702" lon="14.0146497"><ele>776.8333333333334</ele><time>2026-04-26T11:55:37.445Z</time></trkpt><trkpt lat="45.7990428" lon="14.0146806"><ele>776.0</ele><time>2026-04-26T11:55:38.445Z</time></trkpt><trkpt lat="45.7991179" lon="14.0147246"><ele>776.0000000000001</ele><time>2026-04-26T11:55:39.445Z</time></trkpt><trkpt lat="45.7991985" lon="14.0147956"><ele>776.0</ele><time>2026-04-26T11:55:40.445Z</time></trkpt><trkpt lat="45.7992632" lon="14.0148741"><ele>776.0</ele><time>2026-04-26T11:55:41.445Z</time></trkpt><trkpt lat="45.799323" lon="14.0149415"><ele>776.0</ele><time>2026-04-26T11:55:42.445Z</time></trkpt><trkpt lat="45.7993808" lon="14.0150371"><ele>776.0000000000001</ele><time>2026-04-26T11:55:44.445Z</time></trkpt><trkpt lat="45.7993996" lon="14.0151498"><ele>776.0</ele><time>2026-04-26T11:55:46.445Z</time></trkpt><trkpt lat="45.7993479" lon="14.0153204"><ele>775.1999999999999</ele><time>2026-04-26T11:55:48.445Z</time></trkpt><trkpt lat="45.7993239" lon="14.0154702"><ele>774.4</ele><time>2026-04-26T11:55:50.446Z</time></trkpt><trkpt lat="45.7993437" lon="14.0155637"><ele>773.6</ele><time>2026-04-26T11:55:52.445Z</time></trkpt><trkpt lat="45.7994239" lon="14.0156078"><ele>772.8</ele><time>2026-04-26T11:55:54.446Z</time></trkpt><trkpt lat="45.7995042" lon="14.015512"><ele>772.0</ele><time>2026-04-26T11:55:56.445Z</time></trkpt><trkpt lat="45.7995964" lon="14.0153577"><ele>772.3333333333333</ele><time>2026-04-26T11:55:58.445Z</time></trkpt><trkpt lat="45.7996524" lon="14.0152966"><ele>772.6666666666666</ele><time>2026-04-26T11:55:59.445Z</time></trkpt><trkpt lat="45.7997293" lon="14.0152294"><ele>773.0</ele><time>2026-04-26T11:56:00.445Z</time></trkpt><trkpt lat="45.799811" lon="14.0151511"><ele>773.3333333333333</ele><time>2026-04-26T11:56:01.445Z</time></trkpt><trkpt lat="45.7998871" lon="14.0150765"><ele>773.6666666666666</ele><time>2026-04-26T11:56:02.445Z</time></trkpt><trkpt lat="45.7999449" lon="14.0150122"><ele>774.0</ele><time>2026-04-26T11:56:03.445Z</time></trkpt><trkpt lat="45.8000138" lon="14.0149345"><ele>774.0</ele><time>2026-04-26T11:56:05.445Z</time></trkpt><trkpt lat="45.8000631" lon="14.0148759"><ele>774.0</ele><time>2026-04-26T11:56:07.446Z</time></trkpt><trkpt lat="45.8001511" lon="14.0147913"><ele>774.0</ele><time>2026-04-26T11:56:15.445Z</time></trkpt><trkpt lat="45.8002065" lon="14.0147321"><ele>774.0</ele><time>2026-04-26T11:56:16.445Z</time></trkpt><trkpt lat="45.8002682" lon="14.0146658"><ele>774.0</ele><time>2026-04-26T11:56:18.445Z</time></trkpt><trkpt lat="45.8003601" lon="14.0145796"><ele>774.0</ele><time>2026-04-26T11:56:20.446Z</time></trkpt><trkpt lat="45.8004376" lon="14.01451"><ele>773.0</ele><time>2026-04-26T11:56:21.445Z</time></trkpt><trkpt lat="45.8005226" lon="14.0144137"><ele>772.0</ele><time>2026-04-26T11:56:22.445Z</time></trkpt><trkpt lat="45.8006094" lon="14.0143094"><ele>771.0</ele><time>2026-04-26T11:56:23.445Z</time></trkpt><trkpt lat="45.8006988" lon="14.0142063"><ele>770.0</ele><time>2026-04-26T11:56:24.445Z</time></trkpt><trkpt lat="45.8007785" lon="14.0141042"><ele>769.0</ele><time>2026-04-26T11:56:25.445Z</time></trkpt><trkpt lat="45.8008463" lon="14.0140101"><ele>769.0</ele><time>2026-04-26T11:56:26.445Z</time></trkpt><trkpt lat="45.8009102" lon="14.0139162"><ele>769.0</ele><time>2026-04-26T11:56:27.446Z</time></trkpt><trkpt lat="45.8009813" lon="14.0138253"><ele>769.0</ele><time>2026-04-26T11:56:28.445Z</time></trkpt><trkpt lat="45.8010617" lon="14.0137349"><ele>769.0</ele><time>2026-04-26T11:56:29.445Z</time></trkpt><trkpt lat="45.8011555" lon="14.0136276"><ele>769.0</ele><time>2026-04-26T11:56:30.444Z</time></trkpt><trkpt lat="45.8012649" lon="14.0135019"><ele>767.25</ele><time>2026-04-26T11:56:31.444Z</time></trkpt><trkpt lat="45.8013757" lon="14.0133914"><ele>765.5</ele><time>2026-04-26T11:56:32.444Z</time></trkpt><trkpt lat="45.801472" lon="14.0132805"><ele>763.75</ele><time>2026-04-26T11:56:33.444Z</time></trkpt><trkpt lat="45.8015554" lon="14.0131753"><ele>762.0</ele><time>2026-04-26T11:56:34.444Z</time></trkpt><trkpt lat="45.8016285" lon="14.013073"><ele>762.0</ele><time>2026-04-26T11:56:35.445Z</time></trkpt><trkpt lat="45.8016986" lon="14.0129746"><ele>762.0</ele><time>2026-04-26T11:56:36.445Z</time></trkpt><trkpt lat="45.8017652" lon="14.0128931"><ele>762.0</ele><time>2026-04-26T11:56:37.444Z</time></trkpt><trkpt lat="45.8018388" lon="14.0128124"><ele>762.0</ele><time>2026-04-26T11:56:38.444Z</time></trkpt><trkpt lat="45.8019282" lon="14.0127326"><ele>762.0</ele><time>2026-04-26T11:56:39.444Z</time></trkpt><trkpt lat="45.802031" lon="14.0126655"><ele>758.6</ele><time>2026-04-26T11:56:40.444Z</time></trkpt><trkpt lat="45.8021416" lon="14.0126061"><ele>755.2</ele><time>2026-04-26T11:56:41.444Z</time></trkpt><trkpt lat="45.8022471" lon="14.0125619"><ele>751.8</ele><time>2026-04-26T11:56:42.444Z</time></trkpt><trkpt lat="45.8023317" lon="14.012535"><ele>748.4</ele><time>2026-04-26T11:56:43.444Z</time></trkpt><trkpt lat="45.8024199" lon="14.0125099"><ele>745.0</ele><time>2026-04-26T11:56:44.444Z</time></trkpt><trkpt lat="45.8024875" lon="14.0124978"><ele>745.0</ele><time>2026-04-26T11:56:45.444Z</time></trkpt><trkpt lat="45.8026081" lon="14.0125097"><ele>745.0</ele><time>2026-04-26T11:56:47.444Z</time></trkpt><trkpt lat="45.8026722" lon="14.0125454"><ele>745.0</ele><time>2026-04-26T11:56:48.444Z</time></trkpt><trkpt lat="45.8027432" lon="14.012589"><ele>745.0</ele><time>2026-04-26T11:56:49.444Z</time></trkpt><trkpt lat="45.8028217" lon="14.0126178"><ele>745.0</ele><time>2026-04-26T11:56:50.444Z</time></trkpt><trkpt lat="45.802917" lon="14.0126181"><ele>745.0</ele><time>2026-04-26T11:56:51.444Z</time></trkpt><trkpt lat="45.8030163" lon="14.0126157"><ele>744.2</ele><time>2026-04-26T11:56:52.445Z</time></trkpt><trkpt lat="45.8031149" lon="14.0126102"><ele>743.4</ele><time>2026-04-26T11:56:53.444Z</time></trkpt><trkpt lat="45.8032048" lon="14.0126119"><ele>742.5999999999999</ele><time>2026-04-26T11:56:54.445Z</time></trkpt><trkpt lat="45.8032951" lon="14.0126302"><ele>741.8</ele><time>2026-04-26T11:56:55.444Z</time></trkpt><trkpt lat="45.803373" lon="14.0126637"><ele>741.0</ele><time>2026-04-26T11:56:56.445Z</time></trkpt><trkpt lat="45.8034504" lon="14.0127425"><ele>741.5999999999999</ele><time>2026-04-26T11:56:57.444Z</time></trkpt><trkpt lat="45.8035216" lon="14.0128421"><ele>742.2</ele><time>2026-04-26T11:56:58.444Z</time></trkpt><trkpt lat="45.8035851" lon="14.0129668"><ele>742.8</ele><time>2026-04-26T11:56:59.444Z</time></trkpt><trkpt lat="45.8036373" lon="14.0131034"><ele>743.4000000000001</ele><time>2026-04-26T11:57:00.444Z</time></trkpt><trkpt lat="45.8036907" lon="14.0132484"><ele>744.0</ele><time>2026-04-26T11:57:01.445Z</time></trkpt><trkpt lat="45.8037407" lon="14.0133947"><ele>746.0</ele><time>2026-04-26T11:57:02.444Z</time></trkpt><trkpt lat="45.8037834" lon="14.0135485"><ele>748.0</ele><time>2026-04-26T11:57:03.444Z</time></trkpt><trkpt lat="45.803821" lon="14.0136936"><ele>750.0</ele><time>2026-04-26T11:57:04.444Z</time></trkpt><trkpt lat="45.8038453" lon="14.0138266"><ele>752.0</ele><time>2026-04-26T11:57:05.444Z</time></trkpt><trkpt lat="45.803857" lon="14.0139575"><ele>754.0</ele><time>2026-04-26T11:57:06.444Z</time></trkpt><trkpt lat="45.8038658" lon="14.0140882"><ele>754.0</ele><time>2026-04-26T11:57:07.444Z</time></trkpt><trkpt lat="45.8038681" lon="14.0142083"><ele>754.0</ele><time>2026-04-26T11:57:08.444Z</time></trkpt><trkpt lat="45.803869" lon="14.0143035"><ele>754.0</ele><time>2026-04-26T11:57:09.444Z</time></trkpt><trkpt lat="45.8038827" lon="14.0144092"><ele>754.0</ele><time>2026-04-26T11:57:11.445Z</time></trkpt><trkpt lat="45.8039417" lon="14.0144914"><ele>754.0</ele><time>2026-04-26T11:57:13.444Z</time></trkpt><trkpt lat="45.8040561" lon="14.0144648"><ele>754.0</ele><time>2026-04-26T11:57:15.444Z</time></trkpt><trkpt lat="45.8041307" lon="14.0144214"><ele>754.0</ele><time>2026-04-26T11:57:16.444Z</time></trkpt><trkpt lat="45.8042214" lon="14.0143851"><ele>754.0</ele><time>2026-04-26T11:57:17.444Z</time></trkpt><trkpt lat="45.8043183" lon="14.0143595"><ele>754.0</ele><time>2026-04-26T11:57:18.445Z</time></trkpt><trkpt lat="45.8044286" lon="14.0143472"><ele>754.0</ele><time>2026-04-26T11:57:19.444Z</time></trkpt><trkpt lat="45.8045564" lon="14.0143443"><ele>754.0</ele><time>2026-04-26T11:57:20.444Z</time></trkpt><trkpt lat="45.8046772" lon="14.0143557"><ele>755.6666666666667</ele><time>2026-04-26T11:57:21.444Z</time></trkpt><trkpt lat="45.8047828" lon="14.0143709"><ele>757.3333333333334</ele><time>2026-04-26T11:57:22.444Z</time></trkpt><trkpt lat="45.8048745" lon="14.0143775"><ele>759.0</ele><time>2026-04-26T11:57:23.444Z</time></trkpt><trkpt lat="45.8049538" lon="14.0143793"><ele>760.6666666666666</ele><time>2026-04-26T11:57:24.444Z</time></trkpt><trkpt lat="45.8050298" lon="14.0143527"><ele>762.3333333333333</ele><time>2026-04-26T11:57:25.445Z</time></trkpt><trkpt lat="45.8051087" lon="14.0143043"><ele>764.0</ele><time>2026-04-26T11:57:26.445Z</time></trkpt><trkpt lat="45.8051774" lon="14.014234"><ele>763.4285714285714</ele><time>2026-04-26T11:57:27.444Z</time></trkpt><trkpt lat="45.8052444" lon="14.0141751"><ele>762.8571428571428</ele><time>2026-04-26T11:57:28.444Z</time></trkpt><trkpt lat="45.8053123" lon="14.0141425"><ele>762.2857142857142</ele><time>2026-04-26T11:57:29.444Z</time></trkpt><trkpt lat="45.8053786" lon="14.0141614"><ele>761.7142857142858</ele><time>2026-04-26T11:57:30.444Z</time></trkpt><trkpt lat="45.8054383" lon="14.014199"><ele>761.1428571428571</ele><time>2026-04-26T11:57:31.444Z</time></trkpt><trkpt lat="45.8054833" lon="14.0142678"><ele>760.5714285714286</ele><time>2026-04-26T11:57:32.444Z</time></trkpt><trkpt lat="45.8055146" lon="14.0143578"><ele>760.0</ele><time>2026-04-26T11:57:33.444Z</time></trkpt><trkpt lat="45.8055445" lon="14.0144576"><ele>761.8333333333334</ele><time>2026-04-26T11:57:34.445Z</time></trkpt><trkpt lat="45.8055797" lon="14.0145454"><ele>763.6666666666667</ele><time>2026-04-26T11:57:35.444Z</time></trkpt><trkpt lat="45.8056217" lon="14.0146292"><ele>765.5</ele><time>2026-04-26T11:57:36.444Z</time></trkpt><trkpt lat="45.8056713" lon="14.0146947"><ele>767.3333333333334</ele><time>2026-04-26T11:57:37.444Z</time></trkpt><trkpt lat="45.8057755" lon="14.0147438"><ele>769.1666666666666</ele><time>2026-04-26T11:57:39.444Z</time></trkpt><trkpt lat="45.8058967" lon="14.0147118"><ele>771.0</ele><time>2026-04-26T11:57:41.444Z</time></trkpt><trkpt lat="45.8059622" lon="14.0146688"><ele>771.3333333333334</ele><time>2026-04-26T11:57:42.444Z</time></trkpt><trkpt lat="45.8060356" lon="14.0146076"><ele>771.6666666666667</ele><time>2026-04-26T11:57:43.445Z</time></trkpt><trkpt lat="45.8061251" lon="14.0145336"><ele>772.0</ele><time>2026-04-26T11:57:44.444Z</time></trkpt><trkpt lat="45.8062054" lon="14.0144463"><ele>772.3333333333334</ele><time>2026-04-26T11:57:45.444Z</time></trkpt><trkpt lat="45.806269" lon="14.0143635"><ele>772.6666666666667</ele><time>2026-04-26T11:57:46.444Z</time></trkpt><trkpt lat="45.806317" lon="14.0142905"><ele>773.0</ele><time>2026-04-26T11:57:47.444Z</time></trkpt><trkpt lat="45.8064252" lon="14.0142086"><ele>773.0000000000001</ele><time>2026-04-26T11:57:49.445Z</time></trkpt><trkpt lat="45.8064933" lon="14.0142019"><ele>773.0</ele><time>2026-04-26T11:57:50.444Z</time></trkpt><trkpt lat="45.8065663" lon="14.0142105"><ele>773.0</ele><time>2026-04-26T11:57:51.445Z</time></trkpt><trkpt lat="45.8066452" lon="14.0142455"><ele>773.0</ele><time>2026-04-26T11:57:52.445Z</time></trkpt><trkpt lat="45.8067287" lon="14.0142992"><ele>773.0000000000001</ele><time>2026-04-26T11:57:53.444Z</time></trkpt><trkpt lat="45.8068173" lon="14.0143566"><ele>773.0</ele><time>2026-04-26T11:57:54.444Z</time></trkpt><trkpt lat="45.8069083" lon="14.0144191"><ele>774.0000000000001</ele><time>2026-04-26T11:57:55.444Z</time></trkpt><trkpt lat="45.8070005" lon="14.0144839"><ele>775.0</ele><time>2026-04-26T11:57:56.445Z</time></trkpt><trkpt lat="45.8070834" lon="14.0145306"><ele>776.0</ele><time>2026-04-26T11:57:57.444Z</time></trkpt><trkpt lat="45.8071547" lon="14.0145533"><ele>777.0</ele><time>2026-04-26T11:57:58.445Z</time></trkpt><trkpt lat="45.8072336" lon="14.0145425"><ele>778.0000000000001</ele><time>2026-04-26T11:57:59.444Z</time></trkpt><trkpt lat="45.8073265" lon="14.0145047"><ele>779.0</ele><time>2026-04-26T11:58:00.444Z</time></trkpt><trkpt lat="45.8074274" lon="14.014455"><ele>779.0</ele><time>2026-04-26T11:58:01.444Z</time></trkpt><trkpt lat="45.8075359" lon="14.0143996"><ele>779.0</ele><time>2026-04-26T11:58:02.444Z</time></trkpt><trkpt lat="45.8076464" lon="14.0143391"><ele>779.0</ele><time>2026-04-26T11:58:03.444Z</time></trkpt><trkpt lat="45.8077623" lon="14.014269"><ele>779.0</ele><time>2026-04-26T11:58:04.444Z</time></trkpt><trkpt lat="45.8078773" lon="14.0141901"><ele>779.75</ele><time>2026-04-26T11:58:05.444Z</time></trkpt><trkpt lat="45.8079973" lon="14.0141124"><ele>780.5</ele><time>2026-04-26T11:58:06.444Z</time></trkpt><trkpt lat="45.8081314" lon="14.0140352"><ele>781.25</ele><time>2026-04-26T11:58:07.444Z</time></trkpt><trkpt lat="45.808272" lon="14.0139487"><ele>782.0</ele><time>2026-04-26T11:58:08.444Z</time></trkpt><trkpt lat="45.8083973" lon="14.0138781"><ele>786.75</ele><time>2026-04-26T11:58:09.444Z</time></trkpt><trkpt lat="45.8084999" lon="14.0138264"><ele>791.5</ele><time>2026-04-26T11:58:10.444Z</time></trkpt><trkpt lat="45.8086089" lon="14.0137869"><ele>796.25</ele><time>2026-04-26T11:58:11.445Z</time></trkpt><trkpt lat="45.8087312" lon="14.0137429"><ele>801.0</ele><time>2026-04-26T11:58:12.444Z</time></trkpt><trkpt lat="45.8088592" lon="14.0137068"><ele>801.0</ele><time>2026-04-26T11:58:13.444Z</time></trkpt><trkpt lat="45.808987" lon="14.0136867"><ele>801.0</ele><time>2026-04-26T11:58:14.444Z</time></trkpt><trkpt lat="45.8091066" lon="14.0136743"><ele>801.0</ele><time>2026-04-26T11:58:15.444Z</time></trkpt><trkpt lat="45.8092172" lon="14.0136783"><ele>801.0</ele><time>2026-04-26T11:58:16.444Z</time></trkpt><trkpt lat="45.8093292" lon="14.0137019"><ele>803.0</ele><time>2026-04-26T11:58:17.444Z</time></trkpt><trkpt lat="45.8094272" lon="14.0137402"><ele>805.0</ele><time>2026-04-26T11:58:18.444Z</time></trkpt><trkpt lat="45.8095248" lon="14.0138027"><ele>807.0</ele><time>2026-04-26T11:58:19.444Z</time></trkpt><trkpt lat="45.8096164" lon="14.0138791"><ele>809.0</ele><time>2026-04-26T11:58:20.444Z</time></trkpt><trkpt lat="45.8097113" lon="14.0139681"><ele>811.0</ele><time>2026-04-26T11:58:21.444Z</time></trkpt><trkpt lat="45.8098169" lon="14.0140637"><ele>811.0</ele><time>2026-04-26T11:58:22.444Z</time></trkpt><trkpt lat="45.8099123" lon="14.0141352"><ele>811.0</ele><time>2026-04-26T11:58:23.444Z</time></trkpt><trkpt lat="45.8099999" lon="14.0141948"><ele>811.0</ele><time>2026-04-26T11:58:24.444Z</time></trkpt><trkpt lat="45.8100997" lon="14.0142411"><ele>811.0</ele><time>2026-04-26T11:58:25.444Z</time></trkpt><trkpt lat="45.8102175" lon="14.0142839"><ele>811.0</ele><time>2026-04-26T11:58:26.444Z</time></trkpt><trkpt lat="45.8103318" lon="14.0142999"><ele>814.5999999999999</ele><time>2026-04-26T11:58:27.444Z</time></trkpt><trkpt lat="45.810422" lon="14.0143335"><ele>818.2</ele><time>2026-04-26T11:58:28.444Z</time></trkpt><trkpt lat="45.8105033" lon="14.0143797"><ele>821.8</ele><time>2026-04-26T11:58:29.444Z</time></trkpt><trkpt lat="45.8105836" lon="14.014446"><ele>825.4000000000001</ele><time>2026-04-26T11:58:30.445Z</time></trkpt><trkpt lat="45.8106804" lon="14.0145237"><ele>829.0</ele><time>2026-04-26T11:58:31.444Z</time></trkpt><trkpt lat="45.8107662" lon="14.0145812"><ele>828.9999999999999</ele><time>2026-04-26T11:58:32.444Z</time></trkpt><trkpt lat="45.8108325" lon="14.0146442"><ele>829.0</ele><time>2026-04-26T11:58:33.444Z</time></trkpt><trkpt lat="45.8109045" lon="14.0147791"><ele>829.0</ele><time>2026-04-26T11:58:35.445Z</time></trkpt><trkpt lat="45.8109198" lon="14.0148728"><ele>829.0</ele><time>2026-04-26T11:58:36.444Z</time></trkpt><trkpt lat="45.8109138" lon="14.0149858"><ele>828.9999999999999</ele><time>2026-04-26T11:58:37.444Z</time></trkpt><trkpt lat="45.8108987" lon="14.0151185"><ele>829.0</ele><time>2026-04-26T11:58:38.444Z</time></trkpt><trkpt lat="45.8108903" lon="14.0152766"><ele>830.2</ele><time>2026-04-26T11:58:39.444Z</time></trkpt><trkpt lat="45.8108801" lon="14.0154379"><ele>831.4000000000001</ele><time>2026-04-26T11:58:40.444Z</time></trkpt><trkpt lat="45.8108675" lon="14.0155903"><ele>832.6</ele><time>2026-04-26T11:58:41.444Z</time></trkpt><trkpt lat="45.810848" lon="14.0157086"><ele>833.8</ele><time>2026-04-26T11:58:42.445Z</time></trkpt><trkpt lat="45.8107939" lon="14.015837"><ele>835.0</ele><time>2026-04-26T11:58:44.444Z</time></trkpt><trkpt lat="45.8107022" lon="14.0158699"><ele>835.0</ele><time>2026-04-26T11:58:46.444Z</time></trkpt><trkpt lat="45.8106245" lon="14.015836"><ele>835.0</ele><time>2026-04-26T11:58:47.444Z</time></trkpt><trkpt lat="45.8105389" lon="14.0157841"><ele>835.0</ele><time>2026-04-26T11:58:48.444Z</time></trkpt><trkpt lat="45.8104699" lon="14.0157135"><ele>835.0</ele><time>2026-04-26T11:58:49.444Z</time></trkpt><trkpt lat="45.8103388" lon="14.0156688"><ele>835.0</ele><time>2026-04-26T11:58:51.444Z</time></trkpt><trkpt lat="45.8102702" lon="14.0156786"><ele>835.0</ele><time>2026-04-26T11:58:52.444Z</time></trkpt><trkpt lat="45.8101991" lon="14.0157249"><ele>835.0</ele><time>2026-04-26T11:58:53.444Z</time></trkpt><trkpt lat="45.8101174" lon="14.0157869"><ele>835.0</ele><time>2026-04-26T11:58:54.444Z</time></trkpt><trkpt lat="45.8100128" lon="14.0158683"><ele>835.0</ele><time>2026-04-26T11:58:55.445Z</time></trkpt><trkpt lat="45.809895" lon="14.0159415"><ele>835.0</ele><time>2026-04-26T11:58:56.444Z</time></trkpt><trkpt lat="45.8097928" lon="14.0160086"><ele>838.0</ele><time>2026-04-26T11:58:57.444Z</time></trkpt><trkpt lat="45.8096964" lon="14.016061"><ele>841.0</ele><time>2026-04-26T11:58:58.444Z</time></trkpt><trkpt lat="45.8096036" lon="14.0161241"><ele>844.0</ele><time>2026-04-26T11:58:59.445Z</time></trkpt><trkpt lat="45.8095204" lon="14.0161956"><ele>847.0</ele><time>2026-04-26T11:59:00.444Z</time></trkpt><trkpt lat="45.8094482" lon="14.0162774"><ele>850.0</ele><time>2026-04-26T11:59:01.444Z</time></trkpt><trkpt lat="45.8093797" lon="14.0163659"><ele>848.9999999999999</ele><time>2026-04-26T11:59:02.444Z</time></trkpt><trkpt lat="45.8093176" lon="14.0164456"><ele>848.0</ele><time>2026-04-26T11:59:03.444Z</time></trkpt><trkpt lat="45.809257" lon="14.016507"><ele>847.0</ele><time>2026-04-26T11:59:04.444Z</time></trkpt><trkpt lat="45.8091865" lon="14.0165647"><ele>846.0</ele><time>2026-04-26T11:59:05.445Z</time></trkpt><trkpt lat="45.8091271" lon="14.0166403"><ele>844.9999999999999</ele><time>2026-04-26T11:59:06.444Z</time></trkpt><trkpt lat="45.8090715" lon="14.0167048"><ele>844.0</ele><time>2026-04-26T11:59:07.444Z</time></trkpt><trkpt lat="45.809028" lon="14.0167794"><ele>843.9999999999999</ele><time>2026-04-26T11:59:08.444Z</time></trkpt><trkpt lat="45.8089897" lon="14.0168685"><ele>844.0</ele><time>2026-04-26T11:59:09.444Z</time></trkpt><trkpt lat="45.808941" lon="14.016975"><ele>844.0</ele><time>2026-04-26T11:59:10.444Z</time></trkpt><trkpt lat="45.8088975" lon="14.017083"><ele>844.0</ele><time>2026-04-26T11:59:11.444Z</time></trkpt><trkpt lat="45.8088583" lon="14.0171917"><ele>843.9999999999999</ele><time>2026-04-26T11:59:12.444Z</time></trkpt><trkpt lat="45.8088246" lon="14.0172994"><ele>844.0</ele><time>2026-04-26T11:59:13.444Z</time></trkpt><trkpt lat="45.8087955" lon="14.0174156"><ele>846.1666666666666</ele><time>2026-04-26T11:59:14.444Z</time></trkpt><trkpt lat="45.8087678" lon="14.0175349"><ele>848.3333333333333</ele><time>2026-04-26T11:59:15.444Z</time></trkpt><trkpt lat="45.8087502" lon="14.0176505"><ele>850.5</ele><time>2026-04-26T11:59:16.444Z</time></trkpt><trkpt lat="45.8087516" lon="14.0177594"><ele>852.6666666666667</ele><time>2026-04-26T11:59:17.444Z</time></trkpt><trkpt lat="45.8087604" lon="14.017875"><ele>854.8333333333334</ele><time>2026-04-26T11:59:18.445Z</time></trkpt><trkpt lat="45.8087817" lon="14.0179822"><ele>857.0</ele><time>2026-04-26T11:59:19.444Z</time></trkpt><trkpt lat="45.8088097" lon="14.0180861"><ele>857.0000000000001</ele><time>2026-04-26T11:59:20.444Z</time></trkpt><trkpt lat="45.8088526" lon="14.0181706"><ele>857.0</ele><time>2026-04-26T11:59:21.444Z</time></trkpt><trkpt lat="45.8089055" lon="14.0182693"><ele>857.0</ele><time>2026-04-26T11:59:22.444Z</time></trkpt><trkpt lat="45.808961" lon="14.0183627"><ele>857.0</ele><time>2026-04-26T11:59:23.444Z</time></trkpt><trkpt lat="45.8090253" lon="14.018434"><ele>857.0000000000001</ele><time>2026-04-26T11:59:24.444Z</time></trkpt><trkpt lat="45.8091027" lon="14.0184846"><ele>857.0</ele><time>2026-04-26T11:59:25.444Z</time></trkpt><trkpt lat="45.809192" lon="14.0185187"><ele>860.5</ele><time>2026-04-26T11:59:26.444Z</time></trkpt><trkpt lat="45.809299" lon="14.0185373"><ele>864.0</ele><time>2026-04-26T11:59:27.444Z</time></trkpt><trkpt lat="45.8094234" lon="14.018553"><ele>867.5</ele><time>2026-04-26T11:59:28.444Z</time></trkpt><trkpt lat="45.8095457" lon="14.0185672"><ele>871.0</ele><time>2026-04-26T11:59:29.444Z</time></trkpt><trkpt lat="45.8096589" lon="14.0186012"><ele>873.0</ele><time>2026-04-26T11:59:30.444Z</time></trkpt><trkpt lat="45.809772" lon="14.0186197"><ele>875.0</ele><time>2026-04-26T11:59:31.444Z</time></trkpt><trkpt lat="45.8098817" lon="14.0186261"><ele>877.0</ele><time>2026-04-26T11:59:32.444Z</time></trkpt><trkpt lat="45.8099927" lon="14.0186291"><ele>879.0</ele><time>2026-04-26T11:59:33.444Z</time></trkpt><trkpt lat="45.8101153" lon="14.0186538"><ele>880.75</ele><time>2026-04-26T11:59:34.444Z</time></trkpt><trkpt lat="45.8102317" lon="14.0186906"><ele>882.5</ele><time>2026-04-26T11:59:35.444Z</time></trkpt><trkpt lat="45.8103594" lon="14.0187423"><ele>884.25</ele><time>2026-04-26T11:59:36.444Z</time></trkpt><trkpt lat="45.8104821" lon="14.0187958"><ele>886.0</ele><time>2026-04-26T11:59:37.444Z</time></trkpt><trkpt lat="45.8105933" lon="14.0188492"><ele>886.0</ele><time>2026-04-26T11:59:38.445Z</time></trkpt><trkpt lat="45.8107066" lon="14.0189053"><ele>886.0</ele><time>2026-04-26T11:59:39.444Z</time></trkpt><trkpt lat="45.8108115" lon="14.0189734"><ele>886.0</ele><time>2026-04-26T11:59:40.445Z</time></trkpt><trkpt lat="45.8109174" lon="14.0190413"><ele>886.0</ele><time>2026-04-26T11:59:41.444Z</time></trkpt><trkpt lat="45.81102" lon="14.0191211"><ele>888.3333333333333</ele><time>2026-04-26T11:59:42.444Z</time></trkpt><trkpt lat="45.81111" lon="14.019197"><ele>890.6666666666666</ele><time>2026-04-26T11:59:43.444Z</time></trkpt><trkpt lat="45.8111836" lon="14.0192652"><ele>893.0</ele><time>2026-04-26T11:59:44.445Z</time></trkpt><trkpt lat="45.8112514" lon="14.0193045"><ele>895.3333333333333</ele><time>2026-04-26T11:59:45.444Z</time></trkpt><trkpt lat="45.8113245" lon="14.0193142"><ele>897.6666666666666</ele><time>2026-04-26T11:59:46.444Z</time></trkpt><trkpt lat="45.8114127" lon="14.0193147"><ele>900.0</ele><time>2026-04-26T11:59:47.444Z</time></trkpt><trkpt lat="45.8115171" lon="14.0193273"><ele>900.0</ele><time>2026-04-26T11:59:48.444Z</time></trkpt><trkpt lat="45.8116379" lon="14.0193628"><ele>900.0</ele><time>2026-04-26T11:59:49.444Z</time></trkpt><trkpt lat="45.8117571" lon="14.0194117"><ele>900.0</ele><time>2026-04-26T11:59:50.444Z</time></trkpt><trkpt lat="45.8118579" lon="14.0194809"><ele>900.0</ele><time>2026-04-26T11:59:51.444Z</time></trkpt><trkpt lat="45.8119351" lon="14.0195512"><ele>900.8333333333334</ele><time>2026-04-26T11:59:52.444Z</time></trkpt><trkpt lat="45.8119983" lon="14.0196231"><ele>901.6666666666667</ele><time>2026-04-26T11:59:53.444Z</time></trkpt><trkpt lat="45.8120461" lon="14.0197007"><ele>902.5</ele><time>2026-04-26T11:59:54.444Z</time></trkpt><trkpt lat="45.8120828" lon="14.019782"><ele>903.3333333333334</ele><time>2026-04-26T11:59:55.444Z</time></trkpt><trkpt lat="45.8121172" lon="14.0199157"><ele>904.1666666666667</ele><time>2026-04-26T11:59:57.444Z</time></trkpt><trkpt lat="45.8121511" lon="14.0200708"><ele>905.0</ele><time>2026-04-26T11:59:59.444Z</time></trkpt><trkpt lat="45.8121792" lon="14.020161"><ele>905.8</ele><time>2026-04-26T12:00:00.444Z</time></trkpt><trkpt lat="45.812224" lon="14.0202624"><ele>906.6</ele><time>2026-04-26T12:00:01.444Z</time></trkpt><trkpt lat="45.8122731" lon="14.0203697"><ele>907.4000000000001</ele><time>2026-04-26T12:00:02.445Z</time></trkpt><trkpt lat="45.8123205" lon="14.0204735"><ele>908.2</ele><time>2026-04-26T12:00:03.444Z</time></trkpt><trkpt lat="45.8123777" lon="14.020582"><ele>909.0</ele><time>2026-04-26T12:00:04.444Z</time></trkpt><trkpt lat="45.8124461" lon="14.020677"><ele>909.0</ele><time>2026-04-26T12:00:05.444Z</time></trkpt><trkpt lat="45.8125282" lon="14.0207526"><ele>909.0000000000001</ele><time>2026-04-26T12:00:06.444Z</time></trkpt><trkpt lat="45.8126161" lon="14.0208082"><ele>909.0000000000001</ele><time>2026-04-26T12:00:07.444Z</time></trkpt><trkpt lat="45.8127113" lon="14.0208491"><ele>909.0</ele><time>2026-04-26T12:00:08.444Z</time></trkpt><trkpt lat="45.8128122" lon="14.0208684"><ele>909.0</ele><time>2026-04-26T12:00:09.444Z</time></trkpt><trkpt lat="45.8128963" lon="14.0209094"><ele>910.6</ele><time>2026-04-26T12:00:10.445Z</time></trkpt><trkpt lat="45.8129718" lon="14.0209628"><ele>912.2</ele><time>2026-04-26T12:00:11.444Z</time></trkpt><trkpt lat="45.8130458" lon="14.0210848"><ele>913.8000000000001</ele><time>2026-04-26T12:00:13.444Z</time></trkpt><trkpt lat="45.8130841" lon="14.0212134"><ele>915.4000000000001</ele><time>2026-04-26T12:00:15.444Z</time></trkpt><trkpt lat="45.8131337" lon="14.0212691"><ele>917.0</ele><time>2026-04-26T12:00:17.445Z</time></trkpt><trkpt lat="45.8132446" lon="14.0213138"><ele>917.0</ele><time>2026-04-26T12:00:19.444Z</time></trkpt><trkpt lat="45.8133278" lon="14.0213231"><ele>917.0</ele><time>2026-04-26T12:00:20.444Z</time></trkpt><trkpt lat="45.8134251" lon="14.0213378"><ele>917.0</ele><time>2026-04-26T12:00:21.444Z</time></trkpt><trkpt lat="45.8135276" lon="14.0213697"><ele>917.0</ele><time>2026-04-26T12:00:22.444Z</time></trkpt><trkpt lat="45.8136291" lon="14.0214172"><ele>917.0</ele><time>2026-04-26T12:00:23.444Z</time></trkpt><trkpt lat="45.8137286" lon="14.0214708"><ele>917.8</ele><time>2026-04-26T12:00:24.444Z</time></trkpt><trkpt lat="45.8138306" lon="14.0215166"><ele>918.6</ele><time>2026-04-26T12:00:25.444Z</time></trkpt><trkpt lat="45.8139339" lon="14.0215428"><ele>919.3999999999999</ele><time>2026-04-26T12:00:26.444Z</time></trkpt><trkpt lat="45.8140414" lon="14.0215499"><ele>920.1999999999999</ele><time>2026-04-26T12:00:27.444Z</time></trkpt><trkpt lat="45.8141314" lon="14.0215444"><ele>921.0</ele><time>2026-04-26T12:00:28.444Z</time></trkpt><trkpt lat="45.8142122" lon="14.021518"><ele>921.0</ele><time>2026-04-26T12:00:29.444Z</time></trkpt><trkpt lat="45.814281" lon="14.0214936"><ele>921.0</ele><time>2026-04-26T12:00:30.444Z</time></trkpt><trkpt lat="45.8143418" lon="14.0214666"><ele>921.0</ele><time>2026-04-26T12:00:31.444Z</time></trkpt><trkpt lat="45.8144009" lon="14.0214336"><ele>921.0</ele><time>2026-04-26T12:00:32.444Z</time></trkpt><trkpt lat="45.8145073" lon="14.0213863"><ele>921.0</ele><time>2026-04-26T12:00:34.445Z</time></trkpt><trkpt lat="45.8145822" lon="14.0213506"><ele>921.0</ele><time>2026-04-26T12:00:36.444Z</time></trkpt><trkpt lat="45.8146599" lon="14.0213318"><ele>921.8</ele><time>2026-04-26T12:00:38.445Z</time></trkpt><trkpt lat="45.8147389" lon="14.0212933"><ele>922.5999999999999</ele><time>2026-04-26T12:00:40.444Z</time></trkpt><trkpt lat="45.814846" lon="14.0212499"><ele>923.4</ele><time>2026-04-26T12:00:42.444Z</time></trkpt><trkpt lat="45.8149618" lon="14.0212182"><ele>924.2</ele><time>2026-04-26T12:00:44.444Z</time></trkpt><trkpt lat="45.8150467" lon="14.0212028"><ele>925.0</ele><time>2026-04-26T12:00:46.444Z</time></trkpt><trkpt lat="45.8151522" lon="14.0212777"><ele>924.4999999999999</ele><time>2026-04-26T12:00:48.444Z</time></trkpt><trkpt lat="45.8152283" lon="14.021394"><ele>924.0</ele><time>2026-04-26T12:00:50.444Z</time></trkpt><trkpt lat="45.8152835" lon="14.0214607"><ele>923.5</ele><time>2026-04-26T12:00:51.445Z</time></trkpt><trkpt lat="45.8153502" lon="14.0215196"><ele>923.0</ele><time>2026-04-26T12:00:52.445Z</time></trkpt><trkpt lat="45.8154251" lon="14.0215481"><ele>922.4999999999999</ele><time>2026-04-26T12:00:53.444Z</time></trkpt><trkpt lat="45.8154896" lon="14.0215402"><ele>922.0</ele><time>2026-04-26T12:00:54.444Z</time></trkpt><trkpt lat="45.8155665" lon="14.0215268"><ele>922.0</ele><time>2026-04-26T12:00:55.445Z</time></trkpt><trkpt lat="45.8156482" lon="14.0215231"><ele>922.0</ele><time>2026-04-26T12:00:56.444Z</time></trkpt><trkpt lat="45.8157474" lon="14.0215351"><ele>922.0</ele><time>2026-04-26T12:00:57.444Z</time></trkpt><trkpt lat="45.8158606" lon="14.0215621"><ele>922.0</ele><time>2026-04-26T12:00:58.444Z</time></trkpt><trkpt lat="45.8159707" lon="14.021571"><ele>922.0</ele><time>2026-04-26T12:00:59.444Z</time></trkpt><trkpt lat="45.8160804" lon="14.0215745"><ele>923.0</ele><time>2026-04-26T12:01:00.444Z</time></trkpt><trkpt lat="45.8161757" lon="14.0216003"><ele>924.0</ele><time>2026-04-26T12:01:01.445Z</time></trkpt><trkpt lat="45.8162614" lon="14.0216428"><ele>925.0</ele><time>2026-04-26T12:01:02.444Z</time></trkpt><trkpt lat="45.8163684" lon="14.0216806"><ele>926.0</ele><time>2026-04-26T12:01:03.444Z</time></trkpt><trkpt lat="45.8164899" lon="14.0216776"><ele>927.0</ele><time>2026-04-26T12:01:04.445Z</time></trkpt><trkpt lat="45.8166177" lon="14.0216721"><ele>927.0</ele><time>2026-04-26T12:01:05.445Z</time></trkpt><trkpt lat="45.8167427" lon="14.0216742"><ele>927.0</ele><time>2026-04-26T12:01:06.444Z</time></trkpt><trkpt lat="45.8168614" lon="14.0216728"><ele>927.0</ele><time>2026-04-26T12:01:07.444Z</time></trkpt><trkpt lat="45.8169731" lon="14.0216446"><ele>927.0</ele><time>2026-04-26T12:01:08.444Z</time></trkpt><trkpt lat="45.8170885" lon="14.0216"><ele>923.25</ele><time>2026-04-26T12:01:09.444Z</time></trkpt><trkpt lat="45.8171845" lon="14.0215504"><ele>919.5</ele><time>2026-04-26T12:01:10.444Z</time></trkpt><trkpt lat="45.8172838" lon="14.0215037"><ele>915.75</ele><time>2026-04-26T12:01:11.444Z</time></trkpt><trkpt lat="45.817404" lon="14.0214591"><ele>912.0</ele><time>2026-04-26T12:01:12.445Z</time></trkpt><trkpt lat="45.8175268" lon="14.0213973"><ele>912.0</ele><time>2026-04-26T12:01:13.444Z</time></trkpt><trkpt lat="45.8176401" lon="14.0213318"><ele>912.0</ele><time>2026-04-26T12:01:14.444Z</time></trkpt><trkpt lat="45.8177431" lon="14.0212784"><ele>912.0</ele><time>2026-04-26T12:01:15.444Z</time></trkpt><trkpt lat="45.8178497" lon="14.0212238"><ele>912.0</ele><time>2026-04-26T12:01:16.444Z</time></trkpt><trkpt lat="45.8179888" lon="14.0211777"><ele>912.5</ele><time>2026-04-26T12:01:17.444Z</time></trkpt><trkpt lat="45.8181242" lon="14.0210911"><ele>913.0</ele><time>2026-04-26T12:01:18.444Z</time></trkpt><trkpt lat="45.8182288" lon="14.021011"><ele>913.5</ele><time>2026-04-26T12:01:19.444Z</time></trkpt><trkpt lat="45.8183599" lon="14.0209331"><ele>914.0</ele><time>2026-04-26T12:01:20.444Z</time></trkpt><trkpt lat="45.8184713" lon="14.0208412"><ele>912.8000000000001</ele><time>2026-04-26T12:01:21.444Z</time></trkpt><trkpt lat="45.8185565" lon="14.0207491"><ele>911.6000000000001</ele><time>2026-04-26T12:01:22.444Z</time></trkpt><trkpt lat="45.8186158" lon="14.0206446"><ele>910.4</ele><time>2026-04-26T12:01:23.444Z</time></trkpt><trkpt lat="45.8186734" lon="14.0205368"><ele>909.2</ele><time>2026-04-26T12:01:24.444Z</time></trkpt><trkpt lat="45.8187293" lon="14.0204185"><ele>908.0</ele><time>2026-04-26T12:01:25.444Z</time></trkpt><trkpt lat="45.8187948" lon="14.0203294"><ele>908.0</ele><time>2026-04-26T12:01:26.445Z</time></trkpt><trkpt lat="45.8188838" lon="14.020256"><ele>908.0</ele><time>2026-04-26T12:01:27.444Z</time></trkpt><trkpt lat="45.8189866" lon="14.020207"><ele>908.0</ele><time>2026-04-26T12:01:28.444Z</time></trkpt><trkpt lat="45.8191046" lon="14.0201649"><ele>908.0</ele><time>2026-04-26T12:01:29.444Z</time></trkpt><trkpt lat="45.8192246" lon="14.0201239"><ele>908.5</ele><time>2026-04-26T12:01:30.444Z</time></trkpt><trkpt lat="45.8193455" lon="14.0200889"><ele>909.0</ele><time>2026-04-26T12:01:31.444Z</time></trkpt><trkpt lat="45.819462" lon="14.0200495"><ele>909.5</ele><time>2026-04-26T12:01:32.445Z</time></trkpt><trkpt lat="45.8195716" lon="14.0199966"><ele>910.0</ele><time>2026-04-26T12:01:33.444Z</time></trkpt><trkpt lat="45.8196767" lon="14.0199183"><ele>908.75</ele><time>2026-04-26T12:01:34.444Z</time></trkpt><trkpt lat="45.8197713" lon="14.0198264"><ele>907.5</ele><time>2026-04-26T12:01:35.444Z</time></trkpt><trkpt lat="45.8198577" lon="14.0197085"><ele>906.25</ele><time>2026-04-26T12:01:36.444Z</time></trkpt><trkpt lat="45.8199372" lon="14.0195713"><ele>905.0</ele><time>2026-04-26T12:01:37.444Z</time></trkpt><trkpt lat="45.8199912" lon="14.0194302"><ele>905.0</ele><time>2026-04-26T12:01:38.444Z</time></trkpt><trkpt lat="45.8200263" lon="14.0192822"><ele>905.0</ele><time>2026-04-26T12:01:39.444Z</time></trkpt><trkpt lat="45.8200326" lon="14.0191179"><ele>905.0</ele><time>2026-04-26T12:01:40.444Z</time></trkpt><trkpt lat="45.8200188" lon="14.0189569"><ele>905.0</ele><time>2026-04-26T12:01:41.444Z</time></trkpt><trkpt lat="45.819995" lon="14.0188087"><ele>905.0</ele><time>2026-04-26T12:01:42.444Z</time></trkpt><trkpt lat="45.8199821" lon="14.0186626"><ele>904.25</ele><time>2026-04-26T12:01:43.444Z</time></trkpt><trkpt lat="45.8199846" lon="14.018517"><ele>903.5</ele><time>2026-04-26T12:01:44.444Z</time></trkpt><trkpt lat="45.820007" lon="14.0183619"><ele>902.75</ele><time>2026-04-26T12:01:45.444Z</time></trkpt><trkpt lat="45.8200503" lon="14.0182016"><ele>902.0</ele><time>2026-04-26T12:01:46.444Z</time></trkpt><trkpt lat="45.8201149" lon="14.0180535"><ele>902.75</ele><time>2026-04-26T12:01:47.444Z</time></trkpt><trkpt lat="45.8201953" lon="14.0178979"><ele>903.5</ele><time>2026-04-26T12:01:48.444Z</time></trkpt><trkpt lat="45.8202885" lon="14.0177391"><ele>904.25</ele><time>2026-04-26T12:01:49.444Z</time></trkpt><trkpt lat="45.820389" lon="14.0175916"><ele>905.0</ele><time>2026-04-26T12:01:50.444Z</time></trkpt><trkpt lat="45.8204892" lon="14.0174479"><ele>905.0</ele><time>2026-04-26T12:01:51.445Z</time></trkpt><trkpt lat="45.8205896" lon="14.0173071"><ele>905.0</ele><time>2026-04-26T12:01:52.445Z</time></trkpt><trkpt lat="45.8206928" lon="14.0171664"><ele>905.0</ele><time>2026-04-26T12:01:53.444Z</time></trkpt><trkpt lat="45.8207956" lon="14.0170241"><ele>905.0</ele><time>2026-04-26T12:01:54.444Z</time></trkpt><trkpt lat="45.8208967" lon="14.0168899"><ele>905.5</ele><time>2026-04-26T12:01:55.444Z</time></trkpt><trkpt lat="45.8209966" lon="14.0167709"><ele>906.0</ele><time>2026-04-26T12:01:56.444Z</time></trkpt><trkpt lat="45.8210989" lon="14.0166567"><ele>906.5</ele><time>2026-04-26T12:01:57.444Z</time></trkpt><trkpt lat="45.8211999" lon="14.0165372"><ele>907.0</ele><time>2026-04-26T12:01:58.444Z</time></trkpt><trkpt lat="45.8212926" lon="14.0164027"><ele>907.0</ele><time>2026-04-26T12:01:59.445Z</time></trkpt><trkpt lat="45.8213833" lon="14.0162608"><ele>907.0</ele><time>2026-04-26T12:02:00.444Z</time></trkpt><trkpt lat="45.8214756" lon="14.0161321"><ele>907.0</ele><time>2026-04-26T12:02:01.444Z</time></trkpt><trkpt lat="45.821578" lon="14.0160144"><ele>907.0</ele><time>2026-04-26T12:02:02.444Z</time></trkpt><trkpt lat="45.8216923" lon="14.0159051"><ele>904.5</ele><time>2026-04-26T12:02:03.444Z</time></trkpt><trkpt lat="45.8218226" lon="14.0158061"><ele>902.0</ele><time>2026-04-26T12:02:04.444Z</time></trkpt><trkpt lat="45.8219511" lon="14.0157088"><ele>899.5</ele><time>2026-04-26T12:02:05.444Z</time></trkpt><trkpt lat="45.8220713" lon="14.0155978"><ele>897.0</ele><time>2026-04-26T12:02:06.444Z</time></trkpt><trkpt lat="45.8221853" lon="14.0154674"><ele>897.0</ele><time>2026-04-26T12:02:07.444Z</time></trkpt><trkpt lat="45.8223036" lon="14.0153417"><ele>897.0</ele><time>2026-04-26T12:02:08.444Z</time></trkpt><trkpt lat="45.8224215" lon="14.0152194"><ele>897.0</ele><time>2026-04-26T12:02:09.444Z</time></trkpt><trkpt lat="45.8225438" lon="14.0151062"><ele>897.0</ele><time>2026-04-26T12:02:10.444Z</time></trkpt><trkpt lat="45.8226721" lon="14.0150037"><ele>895.5</ele><time>2026-04-26T12:02:11.444Z</time></trkpt><trkpt lat="45.8228071" lon="14.0149133"><ele>894.0</ele><time>2026-04-26T12:02:12.444Z</time></trkpt><trkpt lat="45.8229319" lon="14.0148334"><ele>892.5</ele><time>2026-04-26T12:02:13.444Z</time></trkpt><trkpt lat="45.8230524" lon="14.0147755"><ele>891.0</ele><time>2026-04-26T12:02:14.444Z</time></trkpt><trkpt lat="45.8231712" lon="14.014721"><ele>891.0</ele><time>2026-04-26T12:02:15.444Z</time></trkpt><trkpt lat="45.823291" lon="14.0146703"><ele>891.0</ele><time>2026-04-26T12:02:16.444Z</time></trkpt><trkpt lat="45.8234192" lon="14.0146292"><ele>891.0</ele><time>2026-04-26T12:02:17.444Z</time></trkpt><trkpt lat="45.8235534" lon="14.0145822"><ele>891.0</ele><time>2026-04-26T12:02:18.444Z</time></trkpt><trkpt lat="45.8236873" lon="14.0145299"><ele>892.75</ele><time>2026-04-26T12:02:19.444Z</time></trkpt><trkpt lat="45.8238238" lon="14.0144631"><ele>894.5</ele><time>2026-04-26T12:02:20.445Z</time></trkpt><trkpt lat="45.8239591" lon="14.0143844"><ele>896.25</ele><time>2026-04-26T12:02:21.444Z</time></trkpt><trkpt lat="45.8240884" lon="14.0143025"><ele>898.0</ele><time>2026-04-26T12:02:22.444Z</time></trkpt><trkpt lat="45.8242236" lon="14.0142148"><ele>896.25</ele><time>2026-04-26T12:02:23.444Z</time></trkpt><trkpt lat="45.8243619" lon="14.0141446"><ele>894.5</ele><time>2026-04-26T12:02:24.444Z</time></trkpt><trkpt lat="45.8245008" lon="14.0140955"><ele>892.75</ele><time>2026-04-26T12:02:25.445Z</time></trkpt><trkpt lat="45.8246297" lon="14.0140535"><ele>891.0</ele><time>2026-04-26T12:02:26.444Z</time></trkpt><trkpt lat="45.8247547" lon="14.0140065"><ele>891.0</ele><time>2026-04-26T12:02:27.444Z</time></trkpt><trkpt lat="45.8248637" lon="14.0139655"><ele>891.0</ele><time>2026-04-26T12:02:28.444Z</time></trkpt><trkpt lat="45.8249747" lon="14.0139067"><ele>891.0</ele><time>2026-04-26T12:02:29.444Z</time></trkpt><trkpt lat="45.825091" lon="14.013839"><ele>891.0</ele><time>2026-04-26T12:02:30.444Z</time></trkpt><trkpt lat="45.8252119" lon="14.0137771"><ele>892.25</ele><time>2026-04-26T12:02:31.444Z</time></trkpt><trkpt lat="45.8253428" lon="14.0137099"><ele>893.5</ele><time>2026-04-26T12:02:32.444Z</time></trkpt><trkpt lat="45.8254748" lon="14.0136472"><ele>894.75</ele><time>2026-04-26T12:02:33.444Z</time></trkpt><trkpt lat="45.8256051" lon="14.0135847"><ele>896.0</ele><time>2026-04-26T12:02:34.444Z</time></trkpt><trkpt lat="45.8257409" lon="14.0135255"><ele>896.0</ele><time>2026-04-26T12:02:35.444Z</time></trkpt><trkpt lat="45.8258769" lon="14.0134915"><ele>896.0</ele><time>2026-04-26T12:02:36.444Z</time></trkpt><trkpt lat="45.8260081" lon="14.0134744"><ele>896.0</ele><time>2026-04-26T12:02:37.444Z</time></trkpt><trkpt lat="45.8261358" lon="14.0134541"><ele>896.0</ele><time>2026-04-26T12:02:38.444Z</time></trkpt><trkpt lat="45.8262632" lon="14.0134089"><ele>897.5</ele><time>2026-04-26T12:02:39.444Z</time></trkpt><trkpt lat="45.8263818" lon="14.0133362"><ele>899.0</ele><time>2026-04-26T12:02:40.444Z</time></trkpt><trkpt lat="45.8264997" lon="14.0132451"><ele>900.5</ele><time>2026-04-26T12:02:41.444Z</time></trkpt><trkpt lat="45.8266283" lon="14.0131562"><ele>902.0</ele><time>2026-04-26T12:02:42.444Z</time></trkpt><trkpt lat="45.8267644" lon="14.0130733"><ele>899.5</ele><time>2026-04-26T12:02:43.444Z</time></trkpt><trkpt lat="45.8269008" lon="14.0129876"><ele>897.0</ele><time>2026-04-26T12:02:44.444Z</time></trkpt><trkpt lat="45.8270342" lon="14.0129283"><ele>894.5</ele><time>2026-04-26T12:02:45.444Z</time></trkpt><trkpt lat="45.8271608" lon="14.0128703"><ele>892.0</ele><time>2026-04-26T12:02:46.444Z</time></trkpt><trkpt lat="45.8272797" lon="14.0128276"><ele>892.0</ele><time>2026-04-26T12:02:47.445Z</time></trkpt><trkpt lat="45.8273971" lon="14.0128053"><ele>892.0</ele><time>2026-04-26T12:02:48.445Z</time></trkpt><trkpt lat="45.8275255" lon="14.0128014"><ele>892.0</ele><time>2026-04-26T12:02:49.444Z</time></trkpt><trkpt lat="45.8276595" lon="14.0128192"><ele>892.0</ele><time>2026-04-26T12:02:50.444Z</time></trkpt><trkpt lat="45.8277991" lon="14.0128492"><ele>891.0</ele><time>2026-04-26T12:02:51.444Z</time></trkpt><trkpt lat="45.8279425" lon="14.0128923"><ele>890.0</ele><time>2026-04-26T12:02:52.444Z</time></trkpt><trkpt lat="45.8280844" lon="14.0129404"><ele>889.0</ele><time>2026-04-26T12:02:53.445Z</time></trkpt><trkpt lat="45.8282188" lon="14.0129847"><ele>888.0</ele><time>2026-04-26T12:02:54.444Z</time></trkpt><trkpt lat="45.8283453" lon="14.0130202"><ele>888.0</ele><time>2026-04-26T12:02:55.444Z</time></trkpt><trkpt lat="45.8284714" lon="14.0130422"><ele>888.0</ele><time>2026-04-26T12:02:56.444Z</time></trkpt><trkpt lat="45.8285963" lon="14.0130454"><ele>888.0</ele><time>2026-04-26T12:02:57.444Z</time></trkpt><trkpt lat="45.8287266" lon="14.0130278"><ele>888.0</ele><time>2026-04-26T12:02:58.444Z</time></trkpt><trkpt lat="45.8288614" lon="14.0130099"><ele>887.6666666666667</ele><time>2026-04-26T12:02:59.444Z</time></trkpt><trkpt lat="45.8290103" lon="14.0129924"><ele>887.3333333333334</ele><time>2026-04-26T12:03:00.444Z</time></trkpt><trkpt lat="45.829159" lon="14.0129909"><ele>887.0</ele><time>2026-04-26T12:03:01.444Z</time></trkpt><trkpt lat="45.8293115" lon="14.0129728"><ele>886.75</ele><time>2026-04-26T12:03:02.444Z</time></trkpt><trkpt lat="45.8294621" lon="14.0129515"><ele>886.5</ele><time>2026-04-26T12:03:03.444Z</time></trkpt><trkpt lat="45.8296102" lon="14.012918"><ele>886.25</ele><time>2026-04-26T12:03:04.444Z</time></trkpt><trkpt lat="45.829755" lon="14.0128735"><ele>886.0</ele><time>2026-04-26T12:03:05.444Z</time></trkpt><trkpt lat="45.829901" lon="14.0128307"><ele>886.0</ele><time>2026-04-26T12:03:06.444Z</time></trkpt><trkpt lat="45.83004" lon="14.0127876"><ele>886.0</ele><time>2026-04-26T12:03:07.444Z</time></trkpt><trkpt lat="45.8301778" lon="14.0127522"><ele>886.0</ele><time>2026-04-26T12:03:08.445Z</time></trkpt><trkpt lat="45.8303185" lon="14.0127137"><ele>886.0</ele><time>2026-04-26T12:03:09.444Z</time></trkpt><trkpt lat="45.8304609" lon="14.0126767"><ele>886.0</ele><time>2026-04-26T12:03:10.444Z</time></trkpt><trkpt lat="45.8306105" lon="14.0126572"><ele>886.0</ele><time>2026-04-26T12:03:11.444Z</time></trkpt><trkpt lat="45.8307785" lon="14.0126341"><ele>886.0</ele><time>2026-04-26T12:03:12.445Z</time></trkpt><trkpt lat="45.8309514" lon="14.0126146"><ele>885.3333333333333</ele><time>2026-04-26T12:03:13.444Z</time></trkpt><trkpt lat="45.8311221" lon="14.0126085"><ele>884.6666666666667</ele><time>2026-04-26T12:03:14.444Z</time></trkpt><trkpt lat="45.8312835" lon="14.0126069"><ele>884.0</ele><time>2026-04-26T12:03:15.444Z</time></trkpt><trkpt lat="45.8314348" lon="14.012593"><ele>884.0</ele><time>2026-04-26T12:03:16.444Z</time></trkpt><trkpt lat="45.8315705" lon="14.0125676"><ele>884.0</ele><time>2026-04-26T12:03:17.444Z</time></trkpt><trkpt lat="45.831705" lon="14.0125459"><ele>884.0</ele><time>2026-04-26T12:03:18.444Z</time></trkpt><trkpt lat="45.8318368" lon="14.0125292"><ele>884.0</ele><time>2026-04-26T12:03:19.444Z</time></trkpt><trkpt lat="45.8319684" lon="14.0125255"><ele>883.5</ele><time>2026-04-26T12:03:20.444Z</time></trkpt><trkpt lat="45.8321001" lon="14.0125268"><ele>883.0</ele><time>2026-04-26T12:03:21.444Z</time></trkpt><trkpt lat="45.8322272" lon="14.0125403"><ele>882.5</ele><time>2026-04-26T12:03:22.444Z</time></trkpt><trkpt lat="45.8323434" lon="14.0125678"><ele>882.0</ele><time>2026-04-26T12:03:23.444Z</time></trkpt><trkpt lat="45.8324474" lon="14.0126143"><ele>882.0</ele><time>2026-04-26T12:03:24.444Z</time></trkpt><trkpt lat="45.8325366" lon="14.0126742"><ele>882.0</ele><time>2026-04-26T12:03:25.444Z</time></trkpt><trkpt lat="45.8326104" lon="14.0127423"><ele>882.0</ele><time>2026-04-26T12:03:26.444Z</time></trkpt><trkpt lat="45.8326708" lon="14.0128133"><ele>882.0</ele><time>2026-04-26T12:03:27.444Z</time></trkpt><trkpt lat="45.8327285" lon="14.0128925"><ele>882.0</ele><time>2026-04-26T12:03:28.444Z</time></trkpt><trkpt lat="45.832767" lon="14.0129859"><ele>882.0</ele><time>2026-04-26T12:03:29.444Z</time></trkpt><trkpt lat="45.8327987" lon="14.0131021"><ele>881.8333333333334</ele><time>2026-04-26T12:03:30.444Z</time></trkpt><trkpt lat="45.8328168" lon="14.0132293"><ele>881.6666666666667</ele><time>2026-04-26T12:03:31.444Z</time></trkpt><trkpt lat="45.83283" lon="14.0133644"><ele>881.5</ele><time>2026-04-26T12:03:32.444Z</time></trkpt><trkpt lat="45.8328404" lon="14.0135002"><ele>881.3333333333334</ele><time>2026-04-26T12:03:33.444Z</time></trkpt><trkpt lat="45.8328496" lon="14.0136132"><ele>881.1666666666667</ele><time>2026-04-26T12:03:34.444Z</time></trkpt><trkpt lat="45.8328597" lon="14.0137075"><ele>881.0</ele><time>2026-04-26T12:03:35.444Z</time></trkpt><trkpt lat="45.8329049" lon="14.0138723"><ele>882.5999999999999</ele><time>2026-04-26T12:03:37.444Z</time></trkpt><trkpt lat="45.832958" lon="14.0139416"><ele>884.1999999999999</ele><time>2026-04-26T12:03:38.444Z</time></trkpt><trkpt lat="45.833018" lon="14.0140189"><ele>885.8000000000001</ele><time>2026-04-26T12:03:39.444Z</time></trkpt><trkpt lat="45.8331015" lon="14.0140882"><ele>887.4000000000001</ele><time>2026-04-26T12:03:40.444Z</time></trkpt><trkpt lat="45.833191" lon="14.0141562"><ele>889.0</ele><time>2026-04-26T12:03:41.444Z</time></trkpt><trkpt lat="45.8332874" lon="14.0142353"><ele>890.0</ele><time>2026-04-26T12:03:42.444Z</time></trkpt><trkpt lat="45.8333982" lon="14.0143197"><ele>891.0</ele><time>2026-04-26T12:03:43.444Z</time></trkpt><trkpt lat="45.8334942" lon="14.0144163"><ele>892.0</ele><time>2026-04-26T12:03:44.444Z</time></trkpt><trkpt lat="45.8335914" lon="14.0145175"><ele>893.0</ele><time>2026-04-26T12:03:45.444Z</time></trkpt><trkpt lat="45.8336961" lon="14.0146119"><ele>895.0</ele><time>2026-04-26T12:03:46.444Z</time></trkpt><trkpt lat="45.8338118" lon="14.0146894"><ele>897.0</ele><time>2026-04-26T12:03:47.445Z</time></trkpt><trkpt lat="45.8339349" lon="14.0147632"><ele>899.0</ele><time>2026-04-26T12:03:48.444Z</time></trkpt><trkpt lat="45.8340611" lon="14.0148216"><ele>901.0</ele><time>2026-04-26T12:03:49.444Z</time></trkpt><trkpt lat="45.834183" lon="14.0148869"><ele>901.0</ele><time>2026-04-26T12:03:50.444Z</time></trkpt><trkpt lat="45.8342936" lon="14.0149205"><ele>900.9999999999999</ele><time>2026-04-26T12:03:51.445Z</time></trkpt><trkpt lat="45.8343854" lon="14.014946"><ele>900.9999999999999</ele><time>2026-04-26T12:03:52.444Z</time></trkpt><trkpt lat="45.8344745" lon="14.0149496"><ele>901.0</ele><time>2026-04-26T12:03:53.445Z</time></trkpt><trkpt lat="45.8345594" lon="14.014935"><ele>901.0</ele><time>2026-04-26T12:03:54.444Z</time></trkpt><trkpt lat="45.8346462" lon="14.0148943"><ele>901.4999999999999</ele><time>2026-04-26T12:03:55.445Z</time></trkpt><trkpt lat="45.8347503" lon="14.0148522"><ele>902.0</ele><time>2026-04-26T12:03:56.444Z</time></trkpt><trkpt lat="45.8348446" lon="14.014853"><ele>902.5</ele><time>2026-04-26T12:03:57.444Z</time></trkpt><trkpt lat="45.8349383" lon="14.0148511"><ele>903.0</ele><time>2026-04-26T12:03:58.444Z</time></trkpt><trkpt lat="45.8350129" lon="14.0148727"><ele>903.4999999999999</ele><time>2026-04-26T12:03:59.444Z</time></trkpt><trkpt lat="45.8350846" lon="14.0149093"><ele>904.0</ele><time>2026-04-26T12:04:00.444Z</time></trkpt><trkpt lat="45.8351503" lon="14.0149324"><ele>904.6</ele><time>2026-04-26T12:04:01.444Z</time></trkpt><trkpt lat="45.8352212" lon="14.0149563"><ele>905.2</ele><time>2026-04-26T12:04:02.444Z</time></trkpt><trkpt lat="45.8353053" lon="14.0149898"><ele>905.8000000000001</ele><time>2026-04-26T12:04:03.444Z</time></trkpt><trkpt lat="45.8354063" lon="14.015032"><ele>906.4000000000001</ele><time>2026-04-26T12:04:04.444Z</time></trkpt><trkpt lat="45.8355208" lon="14.0150694"><ele>907.0</ele><time>2026-04-26T12:04:05.445Z</time></trkpt><trkpt lat="45.8356309" lon="14.015106"><ele>907.0</ele><time>2026-04-26T12:04:06.445Z</time></trkpt><trkpt lat="45.835739" lon="14.0151306"><ele>907.0</ele><time>2026-04-26T12:04:07.444Z</time></trkpt><trkpt lat="45.8358544" lon="14.0151661"><ele>907.0</ele><time>2026-04-26T12:04:08.444Z</time></trkpt><trkpt lat="45.8359821" lon="14.0152094"><ele>907.0</ele><time>2026-04-26T12:04:09.444Z</time></trkpt><trkpt lat="45.8360997" lon="14.0152623"><ele>906.25</ele><time>2026-04-26T12:04:10.444Z</time></trkpt><trkpt lat="45.8362253" lon="14.0153087"><ele>905.5</ele><time>2026-04-26T12:04:11.444Z</time></trkpt><trkpt lat="45.8363463" lon="14.0153574"><ele>904.75</ele><time>2026-04-26T12:04:12.444Z</time></trkpt><trkpt lat="45.836467" lon="14.0154009"><ele>904.0</ele><time>2026-04-26T12:04:13.444Z</time></trkpt><trkpt lat="45.8365835" lon="14.0154506"><ele>904.0</ele><time>2026-04-26T12:04:14.444Z</time></trkpt><trkpt lat="45.8366998" lon="14.0154951"><ele>904.0</ele><time>2026-04-26T12:04:15.444Z</time></trkpt><trkpt lat="45.8368076" lon="14.0155507"><ele>904.0</ele><time>2026-04-26T12:04:16.444Z</time></trkpt><trkpt lat="45.8369172" lon="14.0156053"><ele>904.0</ele><time>2026-04-26T12:04:17.444Z</time></trkpt><trkpt lat="45.8370275" lon="14.015658"><ele>903.75</ele><time>2026-04-26T12:04:18.444Z</time></trkpt><trkpt lat="45.8371417" lon="14.0157111"><ele>903.5</ele><time>2026-04-26T12:04:19.444Z</time></trkpt><trkpt lat="45.8372597" lon="14.0157606"><ele>903.25</ele><time>2026-04-26T12:04:20.444Z</time></trkpt><trkpt lat="45.837378" lon="14.0158079"><ele>903.0</ele><time>2026-04-26T12:04:21.444Z</time></trkpt><trkpt lat="45.837495" lon="14.0158457"><ele>904.8</ele><time>2026-04-26T12:04:22.444Z</time></trkpt><trkpt lat="45.8376006" lon="14.0158792"><ele>906.5999999999999</ele><time>2026-04-26T12:04:23.444Z</time></trkpt><trkpt lat="45.8376853" lon="14.0158973"><ele>908.4000000000001</ele><time>2026-04-26T12:04:24.444Z</time></trkpt><trkpt lat="45.8377548" lon="14.0159042"><ele>910.2</ele><time>2026-04-26T12:04:25.444Z</time></trkpt><trkpt lat="45.8378673" lon="14.0159162"><ele>912.0</ele><time>2026-04-26T12:04:27.444Z</time></trkpt><trkpt lat="45.8379465" lon="14.0159051"><ele>912.0</ele><time>2026-04-26T12:04:28.444Z</time></trkpt><trkpt lat="45.8380361" lon="14.0158652"><ele>912.0</ele><time>2026-04-26T12:04:29.444Z</time></trkpt><trkpt lat="45.838135" lon="14.0158027"><ele>912.0</ele><time>2026-04-26T12:04:30.443Z</time></trkpt><trkpt lat="45.83824" lon="14.0157269"><ele>912.0</ele><time>2026-04-26T12:04:31.443Z</time></trkpt><trkpt lat="45.8383454" lon="14.0156515"><ele>912.0</ele><time>2026-04-26T12:04:32.443Z</time></trkpt><trkpt lat="45.8384319" lon="14.0155836"><ele>911.2</ele><time>2026-04-26T12:04:33.443Z</time></trkpt><trkpt lat="45.8385131" lon="14.0155271"><ele>910.4000000000001</ele><time>2026-04-26T12:04:34.443Z</time></trkpt><trkpt lat="45.8385938" lon="14.015502"><ele>909.5999999999999</ele><time>2026-04-26T12:04:35.443Z</time></trkpt><trkpt lat="45.8386859" lon="14.0154801"><ele>908.8</ele><time>2026-04-26T12:04:36.443Z</time></trkpt><trkpt lat="45.8387803" lon="14.0154761"><ele>908.0</ele><time>2026-04-26T12:04:37.443Z</time></trkpt><trkpt lat="45.8388764" lon="14.0154781"><ele>908.0</ele><time>2026-04-26T12:04:38.443Z</time></trkpt><trkpt lat="45.8389695" lon="14.0154724"><ele>908.0</ele><time>2026-04-26T12:04:39.444Z</time></trkpt><trkpt lat="45.839058" lon="14.0154501"><ele>908.0</ele><time>2026-04-26T12:04:40.443Z</time></trkpt><trkpt lat="45.8391463" lon="14.0154375"><ele>908.0</ele><time>2026-04-26T12:04:41.444Z</time></trkpt><trkpt lat="45.8392369" lon="14.0154459"><ele>908.0</ele><time>2026-04-26T12:04:42.443Z</time></trkpt><trkpt lat="45.8393347" lon="14.0154732"><ele>909.2</ele><time>2026-04-26T12:04:43.443Z</time></trkpt><trkpt lat="45.8394407" lon="14.0155083"><ele>910.4</ele><time>2026-04-26T12:04:44.444Z</time></trkpt><trkpt lat="45.8395411" lon="14.0155438"><ele>911.6000000000001</ele><time>2026-04-26T12:04:45.443Z</time></trkpt><trkpt lat="45.8396322" lon="14.0155632"><ele>912.8000000000001</ele><time>2026-04-26T12:04:46.443Z</time></trkpt><trkpt lat="45.8397036" lon="14.0155785"><ele>914.0</ele><time>2026-04-26T12:04:47.443Z</time></trkpt><trkpt lat="45.8398149" lon="14.0155373"><ele>914.0</ele><time>2026-04-26T12:04:49.443Z</time></trkpt><trkpt lat="45.8398996" lon="14.0154052"><ele>914.0000000000001</ele><time>2026-04-26T12:04:51.443Z</time></trkpt><trkpt lat="45.8399452" lon="14.0153125"><ele>914.0000000000001</ele><time>2026-04-26T12:04:52.443Z</time></trkpt><trkpt lat="45.8400017" lon="14.0152191"><ele>914.0</ele><time>2026-04-26T12:04:53.443Z</time></trkpt><trkpt lat="45.8400874" lon="14.0151373"><ele>914.0</ele><time>2026-04-26T12:04:54.444Z</time></trkpt><trkpt lat="45.8401884" lon="14.0150546"><ele>915.0</ele><time>2026-04-26T12:04:55.443Z</time></trkpt><trkpt lat="45.8402946" lon="14.0149813"><ele>916.0</ele><time>2026-04-26T12:04:56.443Z</time></trkpt><trkpt lat="45.8404106" lon="14.0148782"><ele>917.0</ele><time>2026-04-26T12:04:57.443Z</time></trkpt><trkpt lat="45.8405289" lon="14.0147712"><ele>918.0</ele><time>2026-04-26T12:04:58.443Z</time></trkpt><trkpt lat="45.8406355" lon="14.0146719"><ele>918.0</ele><time>2026-04-26T12:04:59.443Z</time></trkpt><trkpt lat="45.8407267" lon="14.0145645"><ele>918.0</ele><time>2026-04-26T12:05:00.443Z</time></trkpt><trkpt lat="45.8408196" lon="14.0144486"><ele>918.0</ele><time>2026-04-26T12:05:01.443Z</time></trkpt><trkpt lat="45.8409133" lon="14.0143228"><ele>918.0</ele><time>2026-04-26T12:05:02.443Z</time></trkpt><trkpt lat="45.841018" lon="14.0141902"><ele>918.3333333333333</ele><time>2026-04-26T12:05:03.443Z</time></trkpt><trkpt lat="45.8411402" lon="14.0140429"><ele>918.6666666666666</ele><time>2026-04-26T12:05:04.443Z</time></trkpt><trkpt lat="45.8412644" lon="14.0138962"><ele>919.0</ele><time>2026-04-26T12:05:05.443Z</time></trkpt><trkpt lat="45.8413858" lon="14.013749"><ele>919.0</ele><time>2026-04-26T12:05:06.443Z</time></trkpt><trkpt lat="45.8414997" lon="14.0136158"><ele>919.0</ele><time>2026-04-26T12:05:07.443Z</time></trkpt><trkpt lat="45.841609" lon="14.0135003"><ele>919.0</ele><time>2026-04-26T12:05:08.443Z</time></trkpt><trkpt lat="45.8417114" lon="14.013396"><ele>919.0</ele><time>2026-04-26T12:05:09.443Z</time></trkpt><trkpt lat="45.8418084" lon="14.013295"><ele>917.5</ele><time>2026-04-26T12:05:10.443Z</time></trkpt><trkpt lat="45.8418957" lon="14.0132032"><ele>916.0</ele><time>2026-04-26T12:05:11.443Z</time></trkpt><trkpt lat="45.8419871" lon="14.013104"><ele>914.5</ele><time>2026-04-26T12:05:12.443Z</time></trkpt><trkpt lat="45.8420915" lon="14.0129955"><ele>913.0</ele><time>2026-04-26T12:05:13.443Z</time></trkpt><trkpt lat="45.8422044" lon="14.0128896"><ele>913.0</ele><time>2026-04-26T12:05:14.443Z</time></trkpt><trkpt lat="45.8423377" lon="14.0127902"><ele>913.0</ele><time>2026-04-26T12:05:15.443Z</time></trkpt><trkpt lat="45.8424609" lon="14.0126913"><ele>913.0</ele><time>2026-04-26T12:05:16.443Z</time></trkpt><trkpt lat="45.842572" lon="14.0125905"><ele>913.0</ele><time>2026-04-26T12:05:17.443Z</time></trkpt><trkpt lat="45.8426921" lon="14.0125006"><ele>910.4</ele><time>2026-04-26T12:05:18.443Z</time></trkpt><trkpt lat="45.8428074" lon="14.0124271"><ele>907.8</ele><time>2026-04-26T12:05:19.443Z</time></trkpt><trkpt lat="45.8429088" lon="14.012359"><ele>905.2</ele><time>2026-04-26T12:05:20.444Z</time></trkpt><trkpt lat="45.8430063" lon="14.0122951"><ele>902.6</ele><time>2026-04-26T12:05:21.444Z</time></trkpt><trkpt lat="45.8431033" lon="14.0122445"><ele>900.0</ele><time>2026-04-26T12:05:22.443Z</time></trkpt><trkpt lat="45.8431672" lon="14.0122119"><ele>900.0</ele><time>2026-04-26T12:05:23.443Z</time></trkpt><trkpt lat="45.843263" lon="14.0121636"><ele>900.0</ele><time>2026-04-26T12:05:24.444Z</time></trkpt><trkpt lat="45.8433539" lon="14.0121076"><ele>900.0</ele><time>2026-04-26T12:05:25.443Z</time></trkpt><trkpt lat="45.8434526" lon="14.0120317"><ele>900.0</ele><time>2026-04-26T12:05:26.443Z</time></trkpt><trkpt lat="45.8435492" lon="14.0119695"><ele>900.0</ele><time>2026-04-26T12:05:27.443Z</time></trkpt><trkpt lat="45.8436583" lon="14.011899"><ele>897.0</ele><time>2026-04-26T12:05:28.443Z</time></trkpt><trkpt lat="45.8437809" lon="14.0117981"><ele>894.0</ele><time>2026-04-26T12:05:29.443Z</time></trkpt><trkpt lat="45.8439398" lon="14.0117018"><ele>891.0</ele><time>2026-04-26T12:05:30.443Z</time></trkpt><trkpt lat="45.8440664" lon="14.0116189"><ele>891.0</ele><time>2026-04-26T12:05:31.444Z</time></trkpt><trkpt lat="45.8441932" lon="14.0115312"><ele>891.0</ele><time>2026-04-26T12:05:32.443Z</time></trkpt><trkpt lat="45.8443061" lon="14.011449"><ele>891.0</ele><time>2026-04-26T12:05:33.443Z</time></trkpt><trkpt lat="45.8444252" lon="14.0113817"><ele>891.0</ele><time>2026-04-26T12:05:34.443Z</time></trkpt><trkpt lat="45.8445336" lon="14.0113163"><ele>893.0</ele><time>2026-04-26T12:05:35.443Z</time></trkpt><trkpt lat="45.8446459" lon="14.0112558"><ele>895.0</ele><time>2026-04-26T12:05:36.443Z</time></trkpt><trkpt lat="45.8447622" lon="14.0112025"><ele>897.0</ele><time>2026-04-26T12:05:37.443Z</time></trkpt><trkpt lat="45.8448967" lon="14.0111681"><ele>899.0</ele><time>2026-04-26T12:05:38.443Z</time></trkpt><trkpt lat="45.8450406" lon="14.011134"><ele>899.75</ele><time>2026-04-26T12:05:39.443Z</time></trkpt><trkpt lat="45.8451777" lon="14.0110925"><ele>900.5</ele><time>2026-04-26T12:05:40.443Z</time></trkpt><trkpt lat="45.8453117" lon="14.0110652"><ele>901.25</ele><time>2026-04-26T12:05:41.444Z</time></trkpt><trkpt lat="45.8454405" lon="14.0110431"><ele>902.0</ele><time>2026-04-26T12:05:42.443Z</time></trkpt><trkpt lat="45.8455635" lon="14.0110252"><ele>902.0</ele><time>2026-04-26T12:05:43.443Z</time></trkpt><trkpt lat="45.8456759" lon="14.0110089"><ele>902.0</ele><time>2026-04-26T12:05:44.443Z</time></trkpt><trkpt lat="45.8457761" lon="14.0110023"><ele>902.0</ele><time>2026-04-26T12:05:45.443Z</time></trkpt><trkpt lat="45.8458721" lon="14.0109708"><ele>902.0</ele><time>2026-04-26T12:05:46.443Z</time></trkpt><trkpt lat="45.8459587" lon="14.0109211"><ele>902.0</ele><time>2026-04-26T12:05:47.443Z</time></trkpt><trkpt lat="45.846044" lon="14.0108379"><ele>899.8</ele><time>2026-04-26T12:05:48.443Z</time></trkpt><trkpt lat="45.8461217" lon="14.0107239"><ele>897.6</ele><time>2026-04-26T12:05:49.443Z</time></trkpt><trkpt lat="45.8461955" lon="14.0106132"><ele>895.3999999999999</ele><time>2026-04-26T12:05:50.443Z</time></trkpt><trkpt lat="45.8462638" lon="14.0105293"><ele>893.1999999999999</ele><time>2026-04-26T12:05:51.443Z</time></trkpt><trkpt lat="45.8463336" lon="14.010461"><ele>891.0</ele><time>2026-04-26T12:05:52.443Z</time></trkpt><trkpt lat="45.8464218" lon="14.0103938"><ele>891.0</ele><time>2026-04-26T12:05:53.443Z</time></trkpt><trkpt lat="45.8465278" lon="14.0103327"><ele>891.0</ele><time>2026-04-26T12:05:54.443Z</time></trkpt><trkpt lat="45.8466464" lon="14.0102829"><ele>891.0</ele><time>2026-04-26T12:05:55.443Z</time></trkpt><trkpt lat="45.8467773" lon="14.0102329"><ele>891.0</ele><time>2026-04-26T12:05:56.443Z</time></trkpt><trkpt lat="45.8469059" lon="14.0102039"><ele>889.0</ele><time>2026-04-26T12:05:57.443Z</time></trkpt><trkpt lat="45.8470332" lon="14.0101864"><ele>887.0</ele><time>2026-04-26T12:05:58.443Z</time></trkpt><trkpt lat="45.8471649" lon="14.0101792"><ele>885.0</ele><time>2026-04-26T12:05:59.443Z</time></trkpt><trkpt lat="45.8472909" lon="14.0101795"><ele>883.0</ele><time>2026-04-26T12:06:00.443Z</time></trkpt><trkpt lat="45.8474369" lon="14.0101869"><ele>883.0</ele><time>2026-04-26T12:06:01.444Z</time></trkpt><trkpt lat="45.8475894" lon="14.0101981"><ele>883.0</ele><time>2026-04-26T12:06:02.443Z</time></trkpt><trkpt lat="45.8477541" lon="14.010213"><ele>883.0</ele><time>2026-04-26T12:06:03.443Z</time></trkpt><trkpt lat="45.8479319" lon="14.0102289"><ele>880.6666666666666</ele><time>2026-04-26T12:06:04.443Z</time></trkpt><trkpt lat="45.8481282" lon="14.0102358"><ele>878.3333333333333</ele><time>2026-04-26T12:06:05.443Z</time></trkpt><trkpt lat="45.8483328" lon="14.0102654"><ele>876.0</ele><time>2026-04-26T12:06:06.443Z</time></trkpt><trkpt lat="45.8485214" lon="14.010285"><ele>873.6666666666667</ele><time>2026-04-26T12:06:07.443Z</time></trkpt><trkpt lat="45.8486894" lon="14.0102836"><ele>871.3333333333334</ele><time>2026-04-26T12:06:08.443Z</time></trkpt><trkpt lat="45.8488417" lon="14.0102822"><ele>869.0</ele><time>2026-04-26T12:06:09.443Z</time></trkpt><trkpt lat="45.8489829" lon="14.0102912"><ele>869.0</ele><time>2026-04-26T12:06:10.443Z</time></trkpt><trkpt lat="45.849121" lon="14.0102931"><ele>869.0</ele><time>2026-04-26T12:06:11.443Z</time></trkpt><trkpt lat="45.8492489" lon="14.0103159"><ele>869.0</ele><time>2026-04-26T12:06:12.443Z</time></trkpt><trkpt lat="45.8493655" lon="14.0103203"><ele>869.0</ele><time>2026-04-26T12:06:13.443Z</time></trkpt><trkpt lat="45.8494734" lon="14.010333"><ele>868.0</ele><time>2026-04-26T12:06:14.443Z</time></trkpt><trkpt lat="45.8495794" lon="14.0103423"><ele>867.0000000000001</ele><time>2026-04-26T12:06:15.444Z</time></trkpt><trkpt lat="45.8496879" lon="14.0103492"><ele>866.0000000000001</ele><time>2026-04-26T12:06:16.443Z</time></trkpt><trkpt lat="45.8497863" lon="14.010355"><ele>865.0</ele><time>2026-04-26T12:06:17.443Z</time></trkpt><trkpt lat="45.8498929" lon="14.0103646"><ele>864.0</ele><time>2026-04-26T12:06:18.443Z</time></trkpt><trkpt lat="45.8500076" lon="14.0103846"><ele>864.0</ele><time>2026-04-26T12:06:19.443Z</time></trkpt><trkpt lat="45.8501145" lon="14.0104153"><ele>864.0000000000001</ele><time>2026-04-26T12:06:20.443Z</time></trkpt><trkpt lat="45.850213" lon="14.0104478"><ele>864.0000000000001</ele><time>2026-04-26T12:06:21.443Z</time></trkpt><trkpt lat="45.8503111" lon="14.0104893"><ele>864.0</ele><time>2026-04-26T12:06:22.443Z</time></trkpt><trkpt lat="45.8504084" lon="14.0105429"><ele>864.0</ele><time>2026-04-26T12:06:23.444Z</time></trkpt><trkpt lat="45.8505123" lon="14.0105975"><ele>862.8000000000001</ele><time>2026-04-26T12:06:24.443Z</time></trkpt><trkpt lat="45.8506047" lon="14.0106494"><ele>861.6000000000001</ele><time>2026-04-26T12:06:25.443Z</time></trkpt><trkpt lat="45.8506989" lon="14.0106934"><ele>860.4</ele><time>2026-04-26T12:06:26.443Z</time></trkpt><trkpt lat="45.8507957" lon="14.0107221"><ele>859.2</ele><time>2026-04-26T12:06:27.443Z</time></trkpt><trkpt lat="45.8508953" lon="14.0107327"><ele>858.0</ele><time>2026-04-26T12:06:28.443Z</time></trkpt><trkpt lat="45.8509958" lon="14.0107184"><ele>856.8</ele><time>2026-04-26T12:06:29.444Z</time></trkpt><trkpt lat="45.8510989" lon="14.0106873"><ele>855.5999999999999</ele><time>2026-04-26T12:06:30.443Z</time></trkpt><trkpt lat="45.8512041" lon="14.0106637"><ele>854.4000000000001</ele><time>2026-04-26T12:06:31.443Z</time></trkpt><trkpt lat="45.8512978" lon="14.0106463"><ele>853.2</ele><time>2026-04-26T12:06:32.443Z</time></trkpt><trkpt lat="45.8513785" lon="14.0106363"><ele>852.0</ele><time>2026-04-26T12:06:33.443Z</time></trkpt><trkpt lat="45.8514544" lon="14.0106257"><ele>852.0</ele><time>2026-04-26T12:06:34.443Z</time></trkpt><trkpt lat="45.8515393" lon="14.0106123"><ele>852.0</ele><time>2026-04-26T12:06:35.443Z</time></trkpt><trkpt lat="45.8516447" lon="14.0105982"><ele>852.0</ele><time>2026-04-26T12:06:36.443Z</time></trkpt><trkpt lat="45.8517483" lon="14.0105868"><ele>852.0</ele><time>2026-04-26T12:06:37.444Z</time></trkpt><trkpt lat="45.8518565" lon="14.0105748"><ele>852.0</ele><time>2026-04-26T12:06:38.443Z</time></trkpt><trkpt lat="45.851962" lon="14.0105677"><ele>850.4000000000001</ele><time>2026-04-26T12:06:39.443Z</time></trkpt><trkpt lat="45.8520594" lon="14.0105701"><ele>848.8000000000001</ele><time>2026-04-26T12:06:40.444Z</time></trkpt><trkpt lat="45.8521526" lon="14.0105873"><ele>847.2</ele><time>2026-04-26T12:06:41.443Z</time></trkpt><trkpt lat="45.8522588" lon="14.0106069"><ele>845.6</ele><time>2026-04-26T12:06:42.443Z</time></trkpt><trkpt lat="45.852374" lon="14.0106469"><ele>844.0</ele><time>2026-04-26T12:06:43.443Z</time></trkpt><trkpt lat="45.8524983" lon="14.0106839"><ele>841.5</ele><time>2026-04-26T12:06:44.443Z</time></trkpt><trkpt lat="45.8526364" lon="14.0107212"><ele>839.0</ele><time>2026-04-26T12:06:45.443Z</time></trkpt><trkpt lat="45.8527837" lon="14.0107516"><ele>836.5</ele><time>2026-04-26T12:06:46.443Z</time></trkpt><trkpt lat="45.8529142" lon="14.0107809"><ele>834.0</ele><time>2026-04-26T12:06:47.443Z</time></trkpt><trkpt lat="45.8530192" lon="14.0108072"><ele>834.8000000000001</ele><time>2026-04-26T12:06:48.443Z</time></trkpt><trkpt lat="45.8531194" lon="14.0108431"><ele>835.6</ele><time>2026-04-26T12:06:49.443Z</time></trkpt><trkpt lat="45.8532113" lon="14.0108652"><ele>836.4</ele><time>2026-04-26T12:06:50.443Z</time></trkpt><trkpt lat="45.8533141" lon="14.0108809"><ele>837.2</ele><time>2026-04-26T12:06:51.443Z</time></trkpt><trkpt lat="45.8534058" lon="14.01091"><ele>838.0</ele><time>2026-04-26T12:06:52.443Z</time></trkpt><trkpt lat="45.8535015" lon="14.010951"><ele>838.0</ele><time>2026-04-26T12:06:53.443Z</time></trkpt><trkpt lat="45.8535983" lon="14.0110077"><ele>838.0</ele><time>2026-04-26T12:06:54.443Z</time></trkpt><trkpt lat="45.8536857" lon="14.0110824"><ele>838.0</ele><time>2026-04-26T12:06:55.443Z</time></trkpt><trkpt lat="45.8537831" lon="14.0111669"><ele>838.0</ele><time>2026-04-26T12:06:56.443Z</time></trkpt><trkpt lat="45.8538919" lon="14.0112669"><ele>838.0</ele><time>2026-04-26T12:06:57.443Z</time></trkpt><trkpt lat="45.8539967" lon="14.0113623"><ele>837.9999999999999</ele><time>2026-04-26T12:06:58.444Z</time></trkpt><trkpt lat="45.8540857" lon="14.0114562"><ele>838.0</ele><time>2026-04-26T12:06:59.443Z</time></trkpt><trkpt lat="45.854161" lon="14.0115255"><ele>838.0</ele><time>2026-04-26T12:07:00.443Z</time></trkpt><trkpt lat="45.8542413" lon="14.01157"><ele>838.0</ele><time>2026-04-26T12:07:01.443Z</time></trkpt><trkpt lat="45.854308" lon="14.0116225"><ele>837.9999999999999</ele><time>2026-04-26T12:07:02.443Z</time></trkpt><trkpt lat="45.8543739" lon="14.0116841"><ele>838.0</ele><time>2026-04-26T12:07:03.443Z</time></trkpt><trkpt lat="45.8544292" lon="14.0117766"><ele>838.1666666666666</ele><time>2026-04-26T12:07:04.443Z</time></trkpt><trkpt lat="45.8544781" lon="14.0118639"><ele>838.3333333333333</ele><time>2026-04-26T12:07:05.443Z</time></trkpt><trkpt lat="45.8545246" lon="14.0119498"><ele>838.5</ele><time>2026-04-26T12:07:06.443Z</time></trkpt><trkpt lat="45.8545712" lon="14.0120166"><ele>838.6666666666667</ele><time>2026-04-26T12:07:07.443Z</time></trkpt><trkpt lat="45.8546894" lon="14.0120799"><ele>838.8333333333334</ele><time>2026-04-26T12:07:09.443Z</time></trkpt><trkpt lat="45.8547638" lon="14.0120823"><ele>839.0</ele><time>2026-04-26T12:07:10.443Z</time></trkpt><trkpt lat="45.8548535" lon="14.0120571"><ele>839.0000000000001</ele><time>2026-04-26T12:07:11.443Z</time></trkpt><trkpt lat="45.8549586" lon="14.0120107"><ele>839.0</ele><time>2026-04-26T12:07:12.443Z</time></trkpt><trkpt lat="45.8550503" lon="14.0119746"><ele>839.0</ele><time>2026-04-26T12:07:13.443Z</time></trkpt><trkpt lat="45.8551267" lon="14.0119518"><ele>839.0</ele><time>2026-04-26T12:07:14.443Z</time></trkpt><trkpt lat="45.8551906" lon="14.011943"><ele>839.0000000000001</ele><time>2026-04-26T12:07:15.443Z</time></trkpt><trkpt lat="45.8552697" lon="14.0119473"><ele>839.0</ele><time>2026-04-26T12:07:16.444Z</time></trkpt><trkpt lat="45.8553399" lon="14.011998"><ele>836.6</ele><time>2026-04-26T12:07:17.444Z</time></trkpt><trkpt lat="45.8554204" lon="14.0120598"><ele>834.2</ele><time>2026-04-26T12:07:18.443Z</time></trkpt><trkpt lat="45.8555053" lon="14.0121501"><ele>831.8000000000001</ele><time>2026-04-26T12:07:19.443Z</time></trkpt><trkpt lat="45.855588" lon="14.0122501"><ele>829.4000000000001</ele><time>2026-04-26T12:07:20.443Z</time></trkpt><trkpt lat="45.8556541" lon="14.0123183"><ele>827.0</ele><time>2026-04-26T12:07:21.443Z</time></trkpt><trkpt lat="45.8557329" lon="14.0123688"><ele>827.0</ele><time>2026-04-26T12:07:22.443Z</time></trkpt><trkpt lat="45.8558186" lon="14.0123973"><ele>827.0</ele><time>2026-04-26T12:07:23.443Z</time></trkpt><trkpt lat="45.8559042" lon="14.0124179"><ele>827.0</ele><time>2026-04-26T12:07:24.443Z</time></trkpt><trkpt lat="45.8559963" lon="14.0124347"><ele>827.0</ele><time>2026-04-26T12:07:25.443Z</time></trkpt><trkpt lat="45.8560934" lon="14.0124473"><ele>827.0</ele><time>2026-04-26T12:07:26.443Z</time></trkpt><trkpt lat="45.8561746" lon="14.0124853"><ele>826.6</ele><time>2026-04-26T12:07:27.444Z</time></trkpt><trkpt lat="45.8562542" lon="14.0125284"><ele>826.2</ele><time>2026-04-26T12:07:28.443Z</time></trkpt><trkpt lat="45.8563345" lon="14.012598"><ele>825.8</ele><time>2026-04-26T12:07:29.443Z</time></trkpt><trkpt lat="45.8564057" lon="14.0126936"><ele>825.4</ele><time>2026-04-26T12:07:30.443Z</time></trkpt><trkpt lat="45.856477" lon="14.0128009"><ele>825.0</ele><time>2026-04-26T12:07:31.443Z</time></trkpt><trkpt lat="45.8565222" lon="14.0129031"><ele>825.0</ele><time>2026-04-26T12:07:32.443Z</time></trkpt><trkpt lat="45.8565556" lon="14.0129934"><ele>825.0</ele><time>2026-04-26T12:07:33.444Z</time></trkpt><trkpt lat="45.8565933" lon="14.0130695"><ele>825.0</ele><time>2026-04-26T12:07:34.443Z</time></trkpt><trkpt lat="45.8566519" lon="14.0131403"><ele>825.0</ele><time>2026-04-26T12:07:35.444Z</time></trkpt><trkpt lat="45.8567217" lon="14.0132003"><ele>825.0</ele><time>2026-04-26T12:07:36.443Z</time></trkpt><trkpt lat="45.8568143" lon="14.0132522"><ele>825.0</ele><time>2026-04-26T12:07:37.444Z</time></trkpt><trkpt lat="45.8569185" lon="14.0133209"><ele>823.1666666666666</ele><time>2026-04-26T12:07:38.443Z</time></trkpt><trkpt lat="45.8569976" lon="14.0133929"><ele>821.3333333333333</ele><time>2026-04-26T12:07:39.443Z</time></trkpt><trkpt lat="45.8570739" lon="14.0134608"><ele>819.5</ele><time>2026-04-26T12:07:40.443Z</time></trkpt><trkpt lat="45.8571395" lon="14.0135434"><ele>817.6666666666666</ele><time>2026-04-26T12:07:41.443Z</time></trkpt><trkpt lat="45.8571988" lon="14.0136282"><ele>815.8333333333333</ele><time>2026-04-26T12:07:42.443Z</time></trkpt><trkpt lat="45.8572505" lon="14.0137136"><ele>814.0</ele><time>2026-04-26T12:07:43.444Z</time></trkpt><trkpt lat="45.8572938" lon="14.0138016"><ele>813.9999999999999</ele><time>2026-04-26T12:07:44.443Z</time></trkpt><trkpt lat="45.8573493" lon="14.013894"><ele>814.0</ele><time>2026-04-26T12:07:45.443Z</time></trkpt><trkpt lat="45.8574132" lon="14.013979"><ele>814.0</ele><time>2026-04-26T12:07:46.443Z</time></trkpt><trkpt lat="45.8574757" lon="14.0140555"><ele>814.0</ele><time>2026-04-26T12:07:47.443Z</time></trkpt><trkpt lat="45.8575401" lon="14.014115"><ele>813.9999999999999</ele><time>2026-04-26T12:07:48.443Z</time></trkpt><trkpt lat="45.8576138" lon="14.0141804"><ele>814.0</ele><time>2026-04-26T12:07:49.444Z</time></trkpt><trkpt lat="45.8576932" lon="14.0142394"><ele>812.0</ele><time>2026-04-26T12:07:50.443Z</time></trkpt><trkpt lat="45.8577738" lon="14.0143218"><ele>810.0</ele><time>2026-04-26T12:07:51.443Z</time></trkpt><trkpt lat="45.8578575" lon="14.0144033"><ele>808.0</ele><time>2026-04-26T12:07:52.444Z</time></trkpt><trkpt lat="45.8579439" lon="14.0144975"><ele>806.0</ele><time>2026-04-26T12:07:53.443Z</time></trkpt><trkpt lat="45.85802" lon="14.014604"><ele>804.0</ele><time>2026-04-26T12:07:54.443Z</time></trkpt><trkpt lat="45.8580904" lon="14.0147019"><ele>804.0</ele><time>2026-04-26T12:07:55.443Z</time></trkpt><trkpt lat="45.8581485" lon="14.0148097"><ele>804.0</ele><time>2026-04-26T12:07:56.443Z</time></trkpt><trkpt lat="45.858196" lon="14.0149319"><ele>804.0</ele><time>2026-04-26T12:07:57.443Z</time></trkpt><trkpt lat="45.8582448" lon="14.0150687"><ele>804.0</ele><time>2026-04-26T12:07:58.443Z</time></trkpt><trkpt lat="45.8582895" lon="14.0152119"><ele>804.0</ele><time>2026-04-26T12:07:59.443Z</time></trkpt><trkpt lat="45.8583366" lon="14.0153634"><ele>803.75</ele><time>2026-04-26T12:08:00.443Z</time></trkpt><trkpt lat="45.8583742" lon="14.0155326"><ele>803.5</ele><time>2026-04-26T12:08:01.443Z</time></trkpt><trkpt lat="45.8584148" lon="14.0156894"><ele>803.25</ele><time>2026-04-26T12:08:02.443Z</time></trkpt><trkpt lat="45.8584604" lon="14.0158409"><ele>803.0</ele><time>2026-04-26T12:08:03.443Z</time></trkpt><trkpt lat="45.8585008" lon="14.0159935"><ele>803.0</ele><time>2026-04-26T12:08:04.443Z</time></trkpt><trkpt lat="45.8585414" lon="14.0161419"><ele>803.0</ele><time>2026-04-26T12:08:05.443Z</time></trkpt><trkpt lat="45.8585765" lon="14.0162879"><ele>803.0</ele><time>2026-04-26T12:08:06.443Z</time></trkpt><trkpt lat="45.8585991" lon="14.0164314"><ele>803.0</ele><time>2026-04-26T12:08:07.444Z</time></trkpt><trkpt lat="45.8586181" lon="14.0165689"><ele>803.0</ele><time>2026-04-26T12:08:08.443Z</time></trkpt><trkpt lat="45.8586244" lon="14.0166925"><ele>802.8</ele><time>2026-04-26T12:08:09.444Z</time></trkpt><trkpt lat="45.8586226" lon="14.0168133"><ele>802.5999999999999</ele><time>2026-04-26T12:08:10.443Z</time></trkpt><trkpt lat="45.8586065" lon="14.0169559"><ele>802.4000000000001</ele><time>2026-04-26T12:08:11.444Z</time></trkpt><trkpt lat="45.8585812" lon="14.0171144"><ele>802.2</ele><time>2026-04-26T12:08:12.443Z</time></trkpt><trkpt lat="45.8585502" lon="14.0172978"><ele>802.0</ele><time>2026-04-26T12:08:13.443Z</time></trkpt><trkpt lat="45.8585226" lon="14.0175027"><ele>802.0</ele><time>2026-04-26T12:08:14.443Z</time></trkpt><trkpt lat="45.8584856" lon="14.0177209"><ele>802.0</ele><time>2026-04-26T12:08:15.443Z</time></trkpt><trkpt lat="45.8584496" lon="14.0179195"><ele>802.0</ele><time>2026-04-26T12:08:16.443Z</time></trkpt><trkpt lat="45.8584084" lon="14.0181189"><ele>802.0</ele><time>2026-04-26T12:08:17.443Z</time></trkpt><trkpt lat="45.8583855" lon="14.0183053"><ele>802.2</ele><time>2026-04-26T12:08:18.443Z</time></trkpt><trkpt lat="45.8583619" lon="14.0184512"><ele>802.4000000000001</ele><time>2026-04-26T12:08:19.443Z</time></trkpt><trkpt lat="45.8583568" lon="14.018602"><ele>802.5999999999999</ele><time>2026-04-26T12:08:20.443Z</time></trkpt><trkpt lat="45.8583617" lon="14.0187349"><ele>802.8</ele><time>2026-04-26T12:08:21.443Z</time></trkpt><trkpt lat="45.8583968" lon="14.0188544"><ele>803.0</ele><time>2026-04-26T12:08:22.443Z</time></trkpt><trkpt lat="45.858464" lon="14.0189683"><ele>801.4</ele><time>2026-04-26T12:08:23.443Z</time></trkpt><trkpt lat="45.8585502" lon="14.0190741"><ele>799.8</ele><time>2026-04-26T12:08:24.443Z</time></trkpt><trkpt lat="45.8586532" lon="14.0191755"><ele>798.2</ele><time>2026-04-26T12:08:25.443Z</time></trkpt><trkpt lat="45.8587453" lon="14.0192646"><ele>796.6</ele><time>2026-04-26T12:08:26.443Z</time></trkpt><trkpt lat="45.8588136" lon="14.0193514"><ele>795.0</ele><time>2026-04-26T12:08:27.443Z</time></trkpt><trkpt lat="45.8588723" lon="14.0194618"><ele>793.0</ele><time>2026-04-26T12:08:28.443Z</time></trkpt><trkpt lat="45.858916" lon="14.019583"><ele>791.0</ele><time>2026-04-26T12:08:29.443Z</time></trkpt><trkpt lat="45.858947" lon="14.0197029"><ele>789.0</ele><time>2026-04-26T12:08:30.443Z</time></trkpt><trkpt lat="45.858946" lon="14.0198403"><ele>787.0</ele><time>2026-04-26T12:08:31.443Z</time></trkpt><trkpt lat="45.8589147" lon="14.0199694"><ele>785.0</ele><time>2026-04-26T12:08:32.443Z</time></trkpt><trkpt lat="45.8588507" lon="14.0200965"><ele>783.5</ele><time>2026-04-26T12:08:33.443Z</time></trkpt><trkpt lat="45.8587746" lon="14.0202231"><ele>782.0</ele><time>2026-04-26T12:08:34.443Z</time></trkpt><trkpt lat="45.8586812" lon="14.0203667"><ele>780.5</ele><time>2026-04-26T12:08:35.443Z</time></trkpt><trkpt lat="45.8585982" lon="14.0205031"><ele>779.0</ele><time>2026-04-26T12:08:36.443Z</time></trkpt><trkpt lat="45.8585209" lon="14.0206341"><ele>779.0</ele><time>2026-04-26T12:08:37.444Z</time></trkpt><trkpt lat="45.8584599" lon="14.0207584"><ele>779.0</ele><time>2026-04-26T12:08:38.443Z</time></trkpt><trkpt lat="45.8584017" lon="14.0208802"><ele>779.0</ele><time>2026-04-26T12:08:39.443Z</time></trkpt><trkpt lat="45.8583682" lon="14.0209807"><ele>779.0</ele><time>2026-04-26T12:08:40.443Z</time></trkpt><trkpt lat="45.8583459" lon="14.0210826"><ele>779.0</ele><time>2026-04-26T12:08:41.443Z</time></trkpt><trkpt lat="45.8583381" lon="14.0212099"><ele>779.0</ele><time>2026-04-26T12:08:42.443Z</time></trkpt><trkpt lat="45.858351" lon="14.0213564"><ele>779.0</ele><time>2026-04-26T12:08:43.443Z</time></trkpt><trkpt lat="45.8583643" lon="14.0215081"><ele>779.0</ele><time>2026-04-26T12:08:44.443Z</time></trkpt><trkpt lat="45.8583902" lon="14.0216807"><ele>779.0</ele><time>2026-04-26T12:08:45.444Z</time></trkpt><trkpt lat="45.858436" lon="14.0218564"><ele>777.0</ele><time>2026-04-26T12:08:46.443Z</time></trkpt><trkpt lat="45.8584787" lon="14.0220333"><ele>775.0</ele><time>2026-04-26T12:08:47.443Z</time></trkpt><trkpt lat="45.858518" lon="14.0221989"><ele>773.0</ele><time>2026-04-26T12:08:48.443Z</time></trkpt><trkpt lat="45.8585482" lon="14.0223682"><ele>771.0</ele><time>2026-04-26T12:08:49.443Z</time></trkpt><trkpt lat="45.8585794" lon="14.0225183"><ele>770.5999999999999</ele><time>2026-04-26T12:08:50.443Z</time></trkpt><trkpt lat="45.8586092" lon="14.022656"><ele>770.2</ele><time>2026-04-26T12:08:51.443Z</time></trkpt><trkpt lat="45.8586435" lon="14.0227863"><ele>769.8</ele><time>2026-04-26T12:08:52.443Z</time></trkpt><trkpt lat="45.8586828" lon="14.0229113"><ele>769.4000000000001</ele><time>2026-04-26T12:08:53.443Z</time></trkpt><trkpt lat="45.8587299" lon="14.0230446"><ele>769.0</ele><time>2026-04-26T12:08:54.443Z</time></trkpt><trkpt lat="45.8587776" lon="14.023177"><ele>769.0</ele><time>2026-04-26T12:08:55.443Z</time></trkpt><trkpt lat="45.8588368" lon="14.0233088"><ele>769.0</ele><time>2026-04-26T12:08:56.443Z</time></trkpt><trkpt lat="45.8588867" lon="14.0234436"><ele>769.0</ele><time>2026-04-26T12:08:57.443Z</time></trkpt><trkpt lat="45.8589467" lon="14.0235747"><ele>769.0</ele><time>2026-04-26T12:08:58.443Z</time></trkpt><trkpt lat="45.8589869" lon="14.0237347"><ele>769.0</ele><time>2026-04-26T12:08:59.443Z</time></trkpt><trkpt lat="45.8590246" lon="14.0238982"><ele>769.6</ele><time>2026-04-26T12:09:00.443Z</time></trkpt><trkpt lat="45.859052" lon="14.0240653"><ele>770.2</ele><time>2026-04-26T12:09:01.443Z</time></trkpt><trkpt lat="45.859076" lon="14.0242312"><ele>770.8000000000001</ele><time>2026-04-26T12:09:02.444Z</time></trkpt><trkpt lat="45.8590969" lon="14.0243769"><ele>771.4000000000001</ele><time>2026-04-26T12:09:03.443Z</time></trkpt><trkpt lat="45.8591055" lon="14.0245208"><ele>772.0</ele><time>2026-04-26T12:09:04.443Z</time></trkpt><trkpt lat="45.8591018" lon="14.0246628"><ele>772.8</ele><time>2026-04-26T12:09:05.443Z</time></trkpt><trkpt lat="45.859082" lon="14.0248035"><ele>773.6</ele><time>2026-04-26T12:09:06.443Z</time></trkpt><trkpt lat="45.8590571" lon="14.0249531"><ele>774.4</ele><time>2026-04-26T12:09:07.443Z</time></trkpt><trkpt lat="45.8590226" lon="14.0250715"><ele>775.1999999999999</ele><time>2026-04-26T12:09:08.443Z</time></trkpt><trkpt lat="45.8589773" lon="14.0251731"><ele>776.0</ele><time>2026-04-26T12:09:09.443Z</time></trkpt><trkpt lat="45.8589235" lon="14.025261"><ele>776.0</ele><time>2026-04-26T12:09:10.443Z</time></trkpt><trkpt lat="45.8588561" lon="14.0253423"><ele>776.0</ele><time>2026-04-26T12:09:11.443Z</time></trkpt><trkpt lat="45.8587742" lon="14.0254309"><ele>776.0</ele><time>2026-04-26T12:09:12.443Z</time></trkpt><trkpt lat="45.8586838" lon="14.0255149"><ele>776.0</ele><time>2026-04-26T12:09:13.443Z</time></trkpt><trkpt lat="45.8586026" lon="14.0256102"><ele>776.0</ele><time>2026-04-26T12:09:14.443Z</time></trkpt><trkpt lat="45.8585178" lon="14.0257136"><ele>776.25</ele><time>2026-04-26T12:09:15.443Z</time></trkpt><trkpt lat="45.8584265" lon="14.0258189"><ele>776.5</ele><time>2026-04-26T12:09:16.443Z</time></trkpt><trkpt lat="45.8583293" lon="14.0259329"><ele>776.75</ele><time>2026-04-26T12:09:17.444Z</time></trkpt><trkpt lat="45.8582233" lon="14.0260527"><ele>777.0</ele><time>2026-04-26T12:09:18.443Z</time></trkpt><trkpt lat="45.8581215" lon="14.0261611"><ele>777.0</ele><time>2026-04-26T12:09:19.443Z</time></trkpt><trkpt lat="45.8580303" lon="14.0262695"><ele>777.0</ele><time>2026-04-26T12:09:20.443Z</time></trkpt><trkpt lat="45.8579499" lon="14.0263584"><ele>777.0</ele><time>2026-04-26T12:09:21.443Z</time></trkpt><trkpt lat="45.8578663" lon="14.0264469"><ele>777.0</ele><time>2026-04-26T12:09:22.444Z</time></trkpt><trkpt lat="45.8577804" lon="14.0265266"><ele>777.0</ele><time>2026-04-26T12:09:23.443Z</time></trkpt><trkpt lat="45.8576915" lon="14.0266136"><ele>775.6</ele><time>2026-04-26T12:09:24.443Z</time></trkpt><trkpt lat="45.8575919" lon="14.0266841"><ele>774.2</ele><time>2026-04-26T12:09:25.443Z</time></trkpt><trkpt lat="45.8574962" lon="14.0267539"><ele>772.8</ele><time>2026-04-26T12:09:26.443Z</time></trkpt><trkpt lat="45.8574034" lon="14.0268182"><ele>771.4</ele><time>2026-04-26T12:09:27.443Z</time></trkpt><trkpt lat="45.8573199" lon="14.0268671"><ele>770.0</ele><time>2026-04-26T12:09:28.443Z</time></trkpt><trkpt lat="45.8572431" lon="14.0269277"><ele>770.0000000000001</ele><time>2026-04-26T12:09:29.444Z</time></trkpt><trkpt lat="45.8571704" lon="14.0269793"><ele>770.0</ele><time>2026-04-26T12:09:30.443Z</time></trkpt><trkpt lat="45.8571014" lon="14.0270496"><ele>770.0</ele><time>2026-04-26T12:09:31.443Z</time></trkpt><trkpt lat="45.8570424" lon="14.0271379"><ele>770.0</ele><time>2026-04-26T12:09:32.443Z</time></trkpt><trkpt lat="45.8569869" lon="14.0272373"><ele>770.0000000000001</ele><time>2026-04-26T12:09:33.443Z</time></trkpt><trkpt lat="45.8569368" lon="14.0273574"><ele>770.0</ele><time>2026-04-26T12:09:34.443Z</time></trkpt><trkpt lat="45.8568876" lon="14.0275035"><ele>769.75</ele><time>2026-04-26T12:09:35.443Z</time></trkpt><trkpt lat="45.8568326" lon="14.0276602"><ele>769.5</ele><time>2026-04-26T12:09:36.443Z</time></trkpt><trkpt lat="45.8567691" lon="14.0278201"><ele>769.25</ele><time>2026-04-26T12:09:37.443Z</time></trkpt><trkpt lat="45.8567093" lon="14.0279748"><ele>769.0</ele><time>2026-04-26T12:09:38.443Z</time></trkpt><trkpt lat="45.856649" lon="14.0281078"><ele>768.9999999999999</ele><time>2026-04-26T12:09:39.443Z</time></trkpt><trkpt lat="45.8566069" lon="14.0282173"><ele>769.0</ele><time>2026-04-26T12:09:40.443Z</time></trkpt><trkpt lat="45.8565625" lon="14.0283244"><ele>769.0</ele><time>2026-04-26T12:09:41.444Z</time></trkpt><trkpt lat="45.8565266" lon="14.028434"><ele>769.0</ele><time>2026-04-26T12:09:42.443Z</time></trkpt><trkpt lat="45.8564974" lon="14.0285516"><ele>768.9999999999999</ele><time>2026-04-26T12:09:43.443Z</time></trkpt><trkpt lat="45.8564921" lon="14.0286685"><ele>769.0</ele><time>2026-04-26T12:09:44.444Z</time></trkpt><trkpt lat="45.8564926" lon="14.0288148"><ele>767.8000000000001</ele><time>2026-04-26T12:09:45.443Z</time></trkpt><trkpt lat="45.8564996" lon="14.0289733"><ele>766.6</ele><time>2026-04-26T12:09:46.444Z</time></trkpt><trkpt lat="45.856495" lon="14.0291013"><ele>765.4</ele><time>2026-04-26T12:09:47.443Z</time></trkpt><trkpt lat="45.856475" lon="14.0292054"><ele>764.2</ele><time>2026-04-26T12:09:48.444Z</time></trkpt><trkpt lat="45.8564372" lon="14.0292974"><ele>763.0</ele><time>2026-04-26T12:09:49.443Z</time></trkpt><trkpt lat="45.8563198" lon="14.0293688"><ele>761.8</ele><time>2026-04-26T12:09:51.444Z</time></trkpt><trkpt lat="45.856252" lon="14.0293673"><ele>760.5999999999999</ele><time>2026-04-26T12:09:52.444Z</time></trkpt><trkpt lat="45.8561635" lon="14.0293676"><ele>759.4000000000001</ele><time>2026-04-26T12:09:53.443Z</time></trkpt><trkpt lat="45.8560498" lon="14.0293684"><ele>758.2</ele><time>2026-04-26T12:09:54.443Z</time></trkpt><trkpt lat="45.8559449" lon="14.0293672"><ele>757.0</ele><time>2026-04-26T12:09:55.443Z</time></trkpt><trkpt lat="45.8558412" lon="14.0293725"><ele>757.0</ele><time>2026-04-26T12:09:56.443Z</time></trkpt><trkpt lat="45.8557513" lon="14.0293999"><ele>757.0</ele><time>2026-04-26T12:09:57.443Z</time></trkpt><trkpt lat="45.8556727" lon="14.0294285"><ele>757.0</ele><time>2026-04-26T12:09:58.443Z</time></trkpt><trkpt lat="45.8556165" lon="14.0294901"><ele>757.0</ele><time>2026-04-26T12:09:59.443Z</time></trkpt><trkpt lat="45.8555643" lon="14.0295603"><ele>757.0</ele><time>2026-04-26T12:10:00.444Z</time></trkpt><trkpt lat="45.8555309" lon="14.0296534"><ele>757.0</ele><time>2026-04-26T12:10:01.443Z</time></trkpt><trkpt lat="45.8555171" lon="14.0297786"><ele>757.0</ele><time>2026-04-26T12:10:02.443Z</time></trkpt><trkpt lat="45.8555023" lon="14.029926"><ele>757.0</ele><time>2026-04-26T12:10:03.443Z</time></trkpt><trkpt lat="45.8554999" lon="14.0300832"><ele>757.0</ele><time>2026-04-26T12:10:04.444Z</time></trkpt><trkpt lat="45.8554978" lon="14.0302364"><ele>757.0</ele><time>2026-04-26T12:10:05.443Z</time></trkpt><trkpt lat="45.8554943" lon="14.0303664"><ele>757.0</ele><time>2026-04-26T12:10:06.444Z</time></trkpt><trkpt lat="45.8554845" lon="14.0304883"><ele>755.6666666666667</ele><time>2026-04-26T12:10:07.443Z</time></trkpt><trkpt lat="45.8554546" lon="14.0305885"><ele>754.3333333333334</ele><time>2026-04-26T12:10:08.443Z</time></trkpt><trkpt lat="45.8554122" lon="14.0306694"><ele>753.0</ele><time>2026-04-26T12:10:09.443Z</time></trkpt><trkpt lat="45.855343" lon="14.0307254"><ele>751.6666666666666</ele><time>2026-04-26T12:10:10.443Z</time></trkpt><trkpt lat="45.8552627" lon="14.0307576"><ele>750.3333333333333</ele><time>2026-04-26T12:10:11.443Z</time></trkpt><trkpt lat="45.8551673" lon="14.0307894"><ele>749.0</ele><time>2026-04-26T12:10:12.444Z</time></trkpt><trkpt lat="45.8550593" lon="14.0308173"><ele>748.0</ele><time>2026-04-26T12:10:13.443Z</time></trkpt><trkpt lat="45.8549377" lon="14.0308604"><ele>747.0</ele><time>2026-04-26T12:10:14.443Z</time></trkpt><trkpt lat="45.8548202" lon="14.0308994"><ele>746.0</ele><time>2026-04-26T12:10:15.443Z</time></trkpt><trkpt lat="45.8547125" lon="14.0309323"><ele>745.0</ele><time>2026-04-26T12:10:16.443Z</time></trkpt><trkpt lat="45.8546067" lon="14.030959"><ele>745.0</ele><time>2026-04-26T12:10:17.443Z</time></trkpt><trkpt lat="45.8545105" lon="14.0309847"><ele>745.0</ele><time>2026-04-26T12:10:18.443Z</time></trkpt><trkpt lat="45.8544331" lon="14.0310212"><ele>745.0</ele><time>2026-04-26T12:10:19.443Z</time></trkpt><trkpt lat="45.854356" lon="14.031074"><ele>745.0</ele><time>2026-04-26T12:10:20.443Z</time></trkpt><trkpt lat="45.8543024" lon="14.0311439"><ele>745.0</ele><time>2026-04-26T12:10:21.443Z</time></trkpt><trkpt lat="45.8542534" lon="14.0312399"><ele>745.0</ele><time>2026-04-26T12:10:22.443Z</time></trkpt><trkpt lat="45.8542271" lon="14.0313528"><ele>746.8</ele><time>2026-04-26T12:10:23.443Z</time></trkpt><trkpt lat="45.8542116" lon="14.0314741"><ele>748.6</ele><time>2026-04-26T12:10:24.443Z</time></trkpt><trkpt lat="45.8542231" lon="14.0316056"><ele>750.4000000000001</ele><time>2026-04-26T12:10:25.443Z</time></trkpt><trkpt lat="45.854231" lon="14.0317702"><ele>752.2</ele><time>2026-04-26T12:10:26.443Z</time></trkpt><trkpt lat="45.8542359" lon="14.0319268"><ele>754.0</ele><time>2026-04-26T12:10:27.443Z</time></trkpt><trkpt lat="45.8542505" lon="14.0320625"><ele>754.0</ele><time>2026-04-26T12:10:28.443Z</time></trkpt><trkpt lat="45.8542875" lon="14.0321725"><ele>754.0</ele><time>2026-04-26T12:10:29.443Z</time></trkpt><trkpt lat="45.8543421" lon="14.0322684"><ele>754.0</ele><time>2026-04-26T12:10:30.443Z</time></trkpt><trkpt lat="45.8544227" lon="14.0323532"><ele>754.0</ele><time>2026-04-26T12:10:31.443Z</time></trkpt><trkpt lat="45.8545106" lon="14.0324349"><ele>754.0</ele><time>2026-04-26T12:10:32.443Z</time></trkpt><trkpt lat="45.854605" lon="14.0325179"><ele>752.6</ele><time>2026-04-26T12:10:33.443Z</time></trkpt><trkpt lat="45.8547101" lon="14.032591"><ele>751.2</ele><time>2026-04-26T12:10:34.444Z</time></trkpt><trkpt lat="45.8548024" lon="14.032671"><ele>749.8000000000001</ele><time>2026-04-26T12:10:35.443Z</time></trkpt><trkpt lat="45.8548755" lon="14.0327397"><ele>748.4000000000001</ele><time>2026-04-26T12:10:36.443Z</time></trkpt><trkpt lat="45.8549233" lon="14.0328242"><ele>747.0</ele><time>2026-04-26T12:10:37.443Z</time></trkpt><trkpt lat="45.8549633" lon="14.0329172"><ele>747.0</ele><time>2026-04-26T12:10:38.443Z</time></trkpt><trkpt lat="45.8549806" lon="14.0330298"><ele>747.0</ele><time>2026-04-26T12:10:39.443Z</time></trkpt><trkpt lat="45.8549873" lon="14.0331499"><ele>747.0</ele><time>2026-04-26T12:10:40.444Z</time></trkpt><trkpt lat="45.8549775" lon="14.033286"><ele>747.0</ele><time>2026-04-26T12:10:41.443Z</time></trkpt><trkpt lat="45.8549469" lon="14.0334186"><ele>747.0</ele><time>2026-04-26T12:10:42.443Z</time></trkpt><trkpt lat="45.8549029" lon="14.0335635"><ele>747.2</ele><time>2026-04-26T12:10:43.443Z</time></trkpt><trkpt lat="45.8548556" lon="14.0336875"><ele>747.4000000000001</ele><time>2026-04-26T12:10:44.443Z</time></trkpt><trkpt lat="45.854817" lon="14.0338151"><ele>747.5999999999999</ele><time>2026-04-26T12:10:45.443Z</time></trkpt><trkpt lat="45.854785" lon="14.0339507"><ele>747.8</ele><time>2026-04-26T12:10:46.443Z</time></trkpt><trkpt lat="45.8547671" lon="14.0340968"><ele>748.0</ele><time>2026-04-26T12:10:47.444Z</time></trkpt><trkpt lat="45.854753" lon="14.0342567"><ele>748.0</ele><time>2026-04-26T12:10:48.443Z</time></trkpt><trkpt lat="45.8547566" lon="14.034419"><ele>748.0</ele><time>2026-04-26T12:10:49.443Z</time></trkpt><trkpt lat="45.8547622" lon="14.0345707"><ele>748.0</ele><time>2026-04-26T12:10:50.443Z</time></trkpt><trkpt lat="45.8547713" lon="14.034708"><ele>748.0</ele><time>2026-04-26T12:10:51.443Z</time></trkpt><trkpt lat="45.854776" lon="14.0348504"><ele>748.0</ele><time>2026-04-26T12:10:52.443Z</time></trkpt><trkpt lat="45.8547797" lon="14.0349746"><ele>748.0</ele><time>2026-04-26T12:10:53.443Z</time></trkpt><trkpt lat="45.8547718" lon="14.0350934"><ele>748.0</ele><time>2026-04-26T12:10:54.443Z</time></trkpt><trkpt lat="45.8547436" lon="14.0352118"><ele>748.0</ele><time>2026-04-26T12:10:55.444Z</time></trkpt><trkpt lat="45.8546972" lon="14.0353198"><ele>748.0</ele><time>2026-04-26T12:10:56.443Z</time></trkpt><trkpt lat="45.8546292" lon="14.0354026"><ele>748.0</ele><time>2026-04-26T12:10:57.443Z</time></trkpt><trkpt lat="45.8545531" lon="14.035488"><ele>748.0</ele><time>2026-04-26T12:10:58.443Z</time></trkpt><trkpt lat="45.8544735" lon="14.0355426"><ele>748.0</ele><time>2026-04-26T12:10:59.443Z</time></trkpt><trkpt lat="45.8543828" lon="14.0355666"><ele>748.0</ele><time>2026-04-26T12:11:00.444Z</time></trkpt><trkpt lat="45.85429" lon="14.0355735"><ele>748.0</ele><time>2026-04-26T12:11:01.443Z</time></trkpt><trkpt lat="45.854187" lon="14.0355716"><ele>748.0</ele><time>2026-04-26T12:11:02.443Z</time></trkpt><trkpt lat="45.8540914" lon="14.0355705"><ele>748.0</ele><time>2026-04-26T12:11:03.443Z</time></trkpt><trkpt lat="45.8540013" lon="14.0355782"><ele>748.6666666666667</ele><time>2026-04-26T12:11:04.443Z</time></trkpt><trkpt lat="45.853932" lon="14.0356088"><ele>749.3333333333334</ele><time>2026-04-26T12:11:05.443Z</time></trkpt><trkpt lat="45.8538724" lon="14.035672"><ele>750.0</ele><time>2026-04-26T12:11:06.443Z</time></trkpt><trkpt lat="45.8538189" lon="14.0357468"><ele>750.6666666666666</ele><time>2026-04-26T12:11:07.444Z</time></trkpt><trkpt lat="45.8537777" lon="14.0358346"><ele>751.3333333333333</ele><time>2026-04-26T12:11:08.443Z</time></trkpt><trkpt lat="45.8537349" lon="14.0359438"><ele>752.0</ele><time>2026-04-26T12:11:09.443Z</time></trkpt><trkpt lat="45.8536985" lon="14.0360562"><ele>752.0</ele><time>2026-04-26T12:11:10.443Z</time></trkpt><trkpt lat="45.853668" lon="14.0361683"><ele>752.0</ele><time>2026-04-26T12:11:11.443Z</time></trkpt><trkpt lat="45.8536489" lon="14.0362742"><ele>752.0</ele><time>2026-04-26T12:11:12.444Z</time></trkpt><trkpt lat="45.8536364" lon="14.0363796"><ele>752.0</ele><time>2026-04-26T12:11:13.443Z</time></trkpt><trkpt lat="45.8536545" lon="14.0364828"><ele>752.0</ele><time>2026-04-26T12:11:14.443Z</time></trkpt><trkpt lat="45.8536902" lon="14.036589"><ele>752.0</ele><time>2026-04-26T12:11:15.443Z</time></trkpt><trkpt lat="45.853752" lon="14.0367153"><ele>753.2</ele><time>2026-04-26T12:11:16.444Z</time></trkpt><trkpt lat="45.8538147" lon="14.0368382"><ele>754.4000000000001</ele><time>2026-04-26T12:11:17.443Z</time></trkpt><trkpt lat="45.8538536" lon="14.0369679"><ele>755.5999999999999</ele><time>2026-04-26T12:11:18.444Z</time></trkpt><trkpt lat="45.8538872" lon="14.0371187"><ele>756.8</ele><time>2026-04-26T12:11:19.443Z</time></trkpt><trkpt lat="45.8539234" lon="14.0372663"><ele>758.0</ele><time>2026-04-26T12:11:20.444Z</time></trkpt><trkpt lat="45.853963" lon="14.037391"><ele>757.8333333333333</ele><time>2026-04-26T12:11:21.443Z</time></trkpt><trkpt lat="45.8539875" lon="14.0375115"><ele>757.6666666666666</ele><time>2026-04-26T12:11:22.443Z</time></trkpt><trkpt lat="45.8539942" lon="14.0376305"><ele>757.5</ele><time>2026-04-26T12:11:23.443Z</time></trkpt><trkpt lat="45.8539794" lon="14.0377442"><ele>757.3333333333334</ele><time>2026-04-26T12:11:24.443Z</time></trkpt><trkpt lat="45.8539489" lon="14.0378424"><ele>757.1666666666667</ele><time>2026-04-26T12:11:25.443Z</time></trkpt><trkpt lat="45.8538996" lon="14.0379365"><ele>757.0</ele><time>2026-04-26T12:11:26.443Z</time></trkpt><trkpt lat="45.8538312" lon="14.0380074"><ele>757.0</ele><time>2026-04-26T12:11:27.443Z</time></trkpt><trkpt lat="45.8537372" lon="14.0380596"><ele>757.0</ele><time>2026-04-26T12:11:28.443Z</time></trkpt><trkpt lat="45.8536354" lon="14.0381157"><ele>757.0</ele><time>2026-04-26T12:11:29.444Z</time></trkpt><trkpt lat="45.8535186" lon="14.0381681"><ele>757.0</ele><time>2026-04-26T12:11:30.443Z</time></trkpt><trkpt lat="45.8534171" lon="14.0382064"><ele>757.0</ele><time>2026-04-26T12:11:31.443Z</time></trkpt><trkpt lat="45.8533214" lon="14.0382288"><ele>757.0</ele><time>2026-04-26T12:11:32.443Z</time></trkpt><trkpt lat="45.85323" lon="14.0382466"><ele>757.0</ele><time>2026-04-26T12:11:33.443Z</time></trkpt><trkpt lat="45.8531419" lon="14.0382553"><ele>757.0</ele><time>2026-04-26T12:11:34.443Z</time></trkpt><trkpt lat="45.8530616" lon="14.0382877"><ele>757.0</ele><time>2026-04-26T12:11:35.443Z</time></trkpt><trkpt lat="45.852998" lon="14.0383351"><ele>757.0</ele><time>2026-04-26T12:11:36.443Z</time></trkpt><trkpt lat="45.8529578" lon="14.0384054"><ele>757.0</ele><time>2026-04-26T12:11:37.443Z</time></trkpt><trkpt lat="45.8529187" lon="14.0385118"><ele>757.0</ele><time>2026-04-26T12:11:38.443Z</time></trkpt><trkpt lat="45.8529004" lon="14.0386383"><ele>757.0</ele><time>2026-04-26T12:11:39.443Z</time></trkpt><trkpt lat="45.8528895" lon="14.0387593"><ele>757.0</ele><time>2026-04-26T12:11:40.443Z</time></trkpt><trkpt lat="45.8528795" lon="14.0388749"><ele>757.0</ele><time>2026-04-26T12:11:41.443Z</time></trkpt><trkpt lat="45.852876" lon="14.0389751"><ele>757.0</ele><time>2026-04-26T12:11:42.443Z</time></trkpt><trkpt lat="45.8528778" lon="14.0390685"><ele>757.0</ele><time>2026-04-26T12:11:43.443Z</time></trkpt><trkpt lat="45.8528871" lon="14.039164"><ele>755.8</ele><time>2026-04-26T12:11:44.443Z</time></trkpt><trkpt lat="45.8529112" lon="14.039258"><ele>754.6</ele><time>2026-04-26T12:11:45.443Z</time></trkpt><trkpt lat="45.852949" lon="14.0393384"><ele>753.4</ele><time>2026-04-26T12:11:46.443Z</time></trkpt><trkpt lat="45.8530076" lon="14.0394762"><ele>752.1999999999999</ele><time>2026-04-26T12:11:48.444Z</time></trkpt><trkpt lat="45.8530481" lon="14.0396234"><ele>751.0</ele><time>2026-04-26T12:11:50.443Z</time></trkpt><trkpt lat="45.8529943" lon="14.0397942"><ele>751.0</ele><time>2026-04-26T12:11:52.443Z</time></trkpt><trkpt lat="45.8529321" lon="14.0398734"><ele>751.0</ele><time>2026-04-26T12:11:53.444Z</time></trkpt><trkpt lat="45.8528626" lon="14.039945"><ele>751.0</ele><time>2026-04-26T12:11:54.443Z</time></trkpt><trkpt lat="45.852782" lon="14.040002"><ele>751.0</ele><time>2026-04-26T12:11:55.444Z</time></trkpt><trkpt lat="45.8526968" lon="14.0400191"><ele>751.0</ele><time>2026-04-26T12:11:56.443Z</time></trkpt><trkpt lat="45.852598" lon="14.0400227"><ele>751.0</ele><time>2026-04-26T12:11:57.443Z</time></trkpt><trkpt lat="45.8524956" lon="14.0400024"><ele>750.6666666666667</ele><time>2026-04-26T12:11:58.443Z</time></trkpt><trkpt lat="45.8524133" lon="14.0399702"><ele>750.3333333333334</ele><time>2026-04-26T12:11:59.443Z</time></trkpt><trkpt lat="45.8523448" lon="14.039929"><ele>750.0</ele><time>2026-04-26T12:12:00.443Z</time></trkpt><trkpt lat="45.8522754" lon="14.0399197"><ele>749.6666666666666</ele><time>2026-04-26T12:12:01.443Z</time></trkpt><trkpt lat="45.8521978" lon="14.039935"><ele>749.3333333333333</ele><time>2026-04-26T12:12:02.444Z</time></trkpt><trkpt lat="45.8521244" lon="14.0399711"><ele>749.0</ele><time>2026-04-26T12:12:03.443Z</time></trkpt><trkpt lat="45.8520671" lon="14.0400329"><ele>749.0</ele><time>2026-04-26T12:12:04.444Z</time></trkpt><trkpt lat="45.8520189" lon="14.0400994"><ele>749.0</ele><time>2026-04-26T12:12:05.443Z</time></trkpt><trkpt lat="45.8519801" lon="14.0401722"><ele>749.0</ele><time>2026-04-26T12:12:06.444Z</time></trkpt><trkpt lat="45.8519529" lon="14.0402739"><ele>749.0</ele><time>2026-04-26T12:12:07.443Z</time></trkpt><trkpt lat="45.8519324" lon="14.0403954"><ele>749.0</ele><time>2026-04-26T12:12:08.443Z</time></trkpt><trkpt lat="45.8519236" lon="14.0405162"><ele>749.0</ele><time>2026-04-26T12:12:09.443Z</time></trkpt><trkpt lat="45.8519194" lon="14.0406675"><ele>747.4000000000001</ele><time>2026-04-26T12:12:10.443Z</time></trkpt><trkpt lat="45.851914" lon="14.0408332"><ele>745.8</ele><time>2026-04-26T12:12:11.443Z</time></trkpt><trkpt lat="45.8518984" lon="14.0409775"><ele>744.2</ele><time>2026-04-26T12:12:12.443Z</time></trkpt><trkpt lat="45.8518672" lon="14.0411147"><ele>742.5999999999999</ele><time>2026-04-26T12:12:13.443Z</time></trkpt><trkpt lat="45.8518309" lon="14.0412474"><ele>741.0</ele><time>2026-04-26T12:12:14.443Z</time></trkpt><trkpt lat="45.8517931" lon="14.0413857"><ele>743.6666666666666</ele><time>2026-04-26T12:12:15.443Z</time></trkpt><trkpt lat="45.8517623" lon="14.0415214"><ele>746.3333333333334</ele><time>2026-04-26T12:12:16.443Z</time></trkpt><trkpt lat="45.851732" lon="14.0416266"><ele>749.0</ele><time>2026-04-26T12:12:17.443Z</time></trkpt><trkpt lat="45.8516887" lon="14.0416984"><ele>751.6666666666667</ele><time>2026-04-26T12:12:18.443Z</time></trkpt><trkpt lat="45.8516226" lon="14.0417613"><ele>754.3333333333334</ele><time>2026-04-26T12:12:19.443Z</time></trkpt><trkpt lat="45.8515497" lon="14.0418227"><ele>757.0</ele><time>2026-04-26T12:12:20.443Z</time></trkpt><trkpt lat="45.8514639" lon="14.041879"><ele>757.0</ele><time>2026-04-26T12:12:21.443Z</time></trkpt><trkpt lat="45.8513799" lon="14.0419273"><ele>757.0</ele><time>2026-04-26T12:12:22.443Z</time></trkpt><trkpt lat="45.8513004" lon="14.0419909"><ele>757.0</ele><time>2026-04-26T12:12:23.443Z</time></trkpt><trkpt lat="45.8512336" lon="14.0420777"><ele>757.0</ele><time>2026-04-26T12:12:24.443Z</time></trkpt><trkpt lat="45.8511764" lon="14.0421673"><ele>757.0</ele><time>2026-04-26T12:12:25.443Z</time></trkpt><trkpt lat="45.8511292" lon="14.0422743"><ele>757.0</ele><time>2026-04-26T12:12:26.443Z</time></trkpt><trkpt lat="45.8510858" lon="14.0424026"><ele>756.0</ele><time>2026-04-26T12:12:27.443Z</time></trkpt><trkpt lat="45.8510562" lon="14.0425424"><ele>755.0</ele><time>2026-04-26T12:12:28.443Z</time></trkpt><trkpt lat="45.8510259" lon="14.0426907"><ele>754.0</ele><time>2026-04-26T12:12:29.443Z</time></trkpt><trkpt lat="45.8510047" lon="14.0428584"><ele>753.0</ele><time>2026-04-26T12:12:30.443Z</time></trkpt><trkpt lat="45.8509956" lon="14.0430328"><ele>753.0</ele><time>2026-04-26T12:12:31.443Z</time></trkpt><trkpt lat="45.850991" lon="14.0432079"><ele>753.0</ele><time>2026-04-26T12:12:32.443Z</time></trkpt><trkpt lat="45.8509881" lon="14.0433671"><ele>753.0</ele><time>2026-04-26T12:12:33.443Z</time></trkpt><trkpt lat="45.8510057" lon="14.0434981"><ele>753.0</ele><time>2026-04-26T12:12:34.443Z</time></trkpt><trkpt lat="45.8510253" lon="14.0436024"><ele>753.0</ele><time>2026-04-26T12:12:35.443Z</time></trkpt><trkpt lat="45.8510492" lon="14.0437022"><ele>754.2</ele><time>2026-04-26T12:12:36.443Z</time></trkpt><trkpt lat="45.851087" lon="14.0438151"><ele>755.4</ele><time>2026-04-26T12:12:37.443Z</time></trkpt><trkpt lat="45.8511304" lon="14.0439457"><ele>756.6</ele><time>2026-04-26T12:12:38.443Z</time></trkpt><trkpt lat="45.8511827" lon="14.0440917"><ele>757.8000000000001</ele><time>2026-04-26T12:12:39.443Z</time></trkpt><trkpt lat="45.8512323" lon="14.0442166"><ele>759.0</ele><time>2026-04-26T12:12:40.443Z</time></trkpt><trkpt lat="45.8512779" lon="14.0443289"><ele>759.2</ele><time>2026-04-26T12:12:41.443Z</time></trkpt><trkpt lat="45.851312" lon="14.0444398"><ele>759.4000000000001</ele><time>2026-04-26T12:12:42.444Z</time></trkpt><trkpt lat="45.8513264" lon="14.0445404"><ele>759.6</ele><time>2026-04-26T12:12:43.443Z</time></trkpt><trkpt lat="45.8512843" lon="14.0447018"><ele>759.8</ele><time>2026-04-26T12:12:45.443Z</time></trkpt><trkpt lat="45.8511854" lon="14.0447847"><ele>760.0</ele><time>2026-04-26T12:12:47.443Z</time></trkpt><trkpt lat="45.851077" lon="14.0447146"><ele>760.0</ele><time>2026-04-26T12:12:49.443Z</time></trkpt><trkpt lat="45.8510227" lon="14.0446267"><ele>760.0</ele><time>2026-04-26T12:12:50.443Z</time></trkpt><trkpt lat="45.850959" lon="14.0445306"><ele>760.0</ele><time>2026-04-26T12:12:51.443Z</time></trkpt><trkpt lat="45.8508839" lon="14.0444502"><ele>760.0</ele><time>2026-04-26T12:12:52.443Z</time></trkpt><trkpt lat="45.850797" lon="14.0443928"><ele>760.0</ele><time>2026-04-26T12:12:53.443Z</time></trkpt><trkpt lat="45.8507167" lon="14.0443667"><ele>760.0</ele><time>2026-04-26T12:12:54.443Z</time></trkpt><trkpt lat="45.8506335" lon="14.0443685"><ele>759.4</ele><time>2026-04-26T12:12:55.443Z</time></trkpt><trkpt lat="45.8505525" lon="14.0444"><ele>758.8</ele><time>2026-04-26T12:12:56.443Z</time></trkpt><trkpt lat="45.8504807" lon="14.0444508"><ele>758.2</ele><time>2026-04-26T12:12:57.443Z</time></trkpt><trkpt lat="45.8504044" lon="14.0445371"><ele>757.6</ele><time>2026-04-26T12:12:58.443Z</time></trkpt><trkpt lat="45.8503191" lon="14.0446548"><ele>757.0</ele><time>2026-04-26T12:12:59.443Z</time></trkpt><trkpt lat="45.8502283" lon="14.0447749"><ele>757.0</ele><time>2026-04-26T12:13:00.443Z</time></trkpt><trkpt lat="45.8501393" lon="14.0448875"><ele>757.0</ele><time>2026-04-26T12:13:01.443Z</time></trkpt><trkpt lat="45.850038" lon="14.0449997"><ele>757.0</ele><time>2026-04-26T12:13:02.443Z</time></trkpt><trkpt lat="45.8499284" lon="14.0451273"><ele>757.0</ele><time>2026-04-26T12:13:03.443Z</time></trkpt><trkpt lat="45.8498309" lon="14.0452506"><ele>759.25</ele><time>2026-04-26T12:13:04.443Z</time></trkpt><trkpt lat="45.8497414" lon="14.0453671"><ele>761.5</ele><time>2026-04-26T12:13:05.443Z</time></trkpt><trkpt lat="45.8496533" lon="14.0454671"><ele>763.75</ele><time>2026-04-26T12:13:06.444Z</time></trkpt><trkpt lat="45.8495706" lon="14.045573"><ele>766.0</ele><time>2026-04-26T12:13:07.443Z</time></trkpt><trkpt lat="45.8494986" lon="14.0456903"><ele>763.5</ele><time>2026-04-26T12:13:08.443Z</time></trkpt><trkpt lat="45.8494372" lon="14.0458188"><ele>761.0</ele><time>2026-04-26T12:13:09.443Z</time></trkpt><trkpt lat="45.8493833" lon="14.045975"><ele>758.5</ele><time>2026-04-26T12:13:10.443Z</time></trkpt><trkpt lat="45.8493347" lon="14.0461462"><ele>756.0</ele><time>2026-04-26T12:13:11.443Z</time></trkpt><trkpt lat="45.8492916" lon="14.0463176"><ele>761.25</ele><time>2026-04-26T12:13:12.443Z</time></trkpt><trkpt lat="45.8492621" lon="14.0464912"><ele>766.5</ele><time>2026-04-26T12:13:13.443Z</time></trkpt><trkpt lat="45.8492526" lon="14.0466673"><ele>771.75</ele><time>2026-04-26T12:13:14.443Z</time></trkpt><trkpt lat="45.8492577" lon="14.0468354"><ele>777.0</ele><time>2026-04-26T12:13:15.443Z</time></trkpt><trkpt lat="45.8492715" lon="14.0469882"><ele>777.0</ele><time>2026-04-26T12:13:16.443Z</time></trkpt><trkpt lat="45.8492824" lon="14.0471172"><ele>777.0</ele><time>2026-04-26T12:13:17.444Z</time></trkpt><trkpt lat="45.8492687" lon="14.047238"><ele>777.0</ele><time>2026-04-26T12:13:18.443Z</time></trkpt><trkpt lat="45.8492376" lon="14.0473649"><ele>777.0</ele><time>2026-04-26T12:13:19.443Z</time></trkpt><trkpt lat="45.8491881" lon="14.0475089"><ele>777.0</ele><time>2026-04-26T12:13:20.443Z</time></trkpt><trkpt lat="45.8491419" lon="14.0476748"><ele>776.0</ele><time>2026-04-26T12:13:21.443Z</time></trkpt><trkpt lat="45.8490975" lon="14.0478551"><ele>775.0</ele><time>2026-04-26T12:13:22.443Z</time></trkpt><trkpt lat="45.8490528" lon="14.0479932"><ele>774.0</ele><time>2026-04-26T12:13:23.443Z</time></trkpt><trkpt lat="45.8490108" lon="14.0481055"><ele>773.0</ele><time>2026-04-26T12:13:24.443Z</time></trkpt><trkpt lat="45.8489768" lon="14.0482026"><ele>772.0</ele><time>2026-04-26T12:13:25.443Z</time></trkpt><trkpt lat="45.8489146" lon="14.048298"><ele>769.8</ele><time>2026-04-26T12:13:26.443Z</time></trkpt><trkpt lat="45.8488536" lon="14.0483754"><ele>767.6</ele><time>2026-04-26T12:13:27.443Z</time></trkpt><trkpt lat="45.8487783" lon="14.0484681"><ele>765.4</ele><time>2026-04-26T12:13:28.443Z</time></trkpt><trkpt lat="45.8486894" lon="14.0485566"><ele>763.1999999999999</ele><time>2026-04-26T12:13:29.443Z</time></trkpt><trkpt lat="45.8486012" lon="14.0486601"><ele>761.0</ele><time>2026-04-26T12:13:30.443Z</time></trkpt><trkpt lat="45.8485105" lon="14.0487482"><ele>760.4</ele><time>2026-04-26T12:13:31.443Z</time></trkpt><trkpt lat="45.8484197" lon="14.0488295"><ele>759.8</ele><time>2026-04-26T12:13:32.444Z</time></trkpt><trkpt lat="45.8483348" lon="14.0489236"><ele>759.1999999999999</ele><time>2026-04-26T12:13:33.443Z</time></trkpt><trkpt lat="45.8482691" lon="14.0490196"><ele>758.5999999999999</ele><time>2026-04-26T12:13:34.443Z</time></trkpt><trkpt lat="45.8482136" lon="14.0491226"><ele>758.0</ele><time>2026-04-26T12:13:35.443Z</time></trkpt><trkpt lat="45.8481744" lon="14.0492311"><ele>758.0</ele><time>2026-04-26T12:13:36.443Z</time></trkpt><trkpt lat="45.8481406" lon="14.0493547"><ele>758.0</ele><time>2026-04-26T12:13:37.443Z</time></trkpt><trkpt lat="45.8481066" lon="14.0494718"><ele>758.0</ele><time>2026-04-26T12:13:38.443Z</time></trkpt><trkpt lat="45.8480577" lon="14.0495607"><ele>758.0</ele><time>2026-04-26T12:13:39.443Z</time></trkpt><trkpt lat="45.8479951" lon="14.0496241"><ele>758.0</ele><time>2026-04-26T12:13:40.443Z</time></trkpt><trkpt lat="45.8479236" lon="14.0496626"><ele>758.0</ele><time>2026-04-26T12:13:41.443Z</time></trkpt><trkpt lat="45.8478378" lon="14.0497033"><ele>758.0</ele><time>2026-04-26T12:13:42.443Z</time></trkpt><trkpt lat="45.8477622" lon="14.0497353"><ele>758.0</ele><time>2026-04-26T12:13:43.443Z</time></trkpt><trkpt lat="45.847686" lon="14.0497728"><ele>758.0</ele><time>2026-04-26T12:13:44.443Z</time></trkpt><trkpt lat="45.8476038" lon="14.0498111"><ele>758.0</ele><time>2026-04-26T12:13:45.443Z</time></trkpt><trkpt lat="45.847509" lon="14.0498533"><ele>758.0</ele><time>2026-04-26T12:13:46.442Z</time></trkpt><trkpt lat="45.8474055" lon="14.0498952"><ele>756.8333333333333</ele><time>2026-04-26T12:13:47.442Z</time></trkpt><trkpt lat="45.8473118" lon="14.0499414"><ele>755.6666666666666</ele><time>2026-04-26T12:13:48.442Z</time></trkpt><trkpt lat="45.8472298" lon="14.0499908"><ele>754.5</ele><time>2026-04-26T12:13:49.442Z</time></trkpt><trkpt lat="45.8471522" lon="14.0500144"><ele>753.3333333333334</ele><time>2026-04-26T12:13:50.442Z</time></trkpt><trkpt lat="45.8470767" lon="14.0500254"><ele>752.1666666666667</ele><time>2026-04-26T12:13:51.442Z</time></trkpt><trkpt lat="45.8469891" lon="14.0500305"><ele>751.0</ele><time>2026-04-26T12:13:52.442Z</time></trkpt><trkpt lat="45.8469036" lon="14.0500303"><ele>751.0</ele><time>2026-04-26T12:13:53.442Z</time></trkpt><trkpt lat="45.8468198" lon="14.0500492"><ele>751.0</ele><time>2026-04-26T12:13:54.442Z</time></trkpt><trkpt lat="45.8467306" lon="14.0500954"><ele>751.0</ele><time>2026-04-26T12:13:55.443Z</time></trkpt><trkpt lat="45.8466393" lon="14.050158"><ele>751.0</ele><time>2026-04-26T12:13:56.442Z</time></trkpt><trkpt lat="45.8465254" lon="14.0502296"><ele>751.0</ele><time>2026-04-26T12:13:57.442Z</time></trkpt><trkpt lat="45.8464097" lon="14.0503032"><ele>751.5</ele><time>2026-04-26T12:13:58.442Z</time></trkpt><trkpt lat="45.8462968" lon="14.0503547"><ele>752.0</ele><time>2026-04-26T12:13:59.442Z</time></trkpt><trkpt lat="45.8461824" lon="14.0503938"><ele>752.5</ele><time>2026-04-26T12:14:00.442Z</time></trkpt><trkpt lat="45.846069" lon="14.0504193"><ele>753.0</ele><time>2026-04-26T12:14:01.442Z</time></trkpt><trkpt lat="45.8459371" lon="14.0504418"><ele>755.5</ele><time>2026-04-26T12:14:02.442Z</time></trkpt><trkpt lat="45.8458053" lon="14.0504643"><ele>758.0</ele><time>2026-04-26T12:14:03.442Z</time></trkpt><trkpt lat="45.8456805" lon="14.0504733"><ele>760.5</ele><time>2026-04-26T12:14:04.442Z</time></trkpt><trkpt lat="45.8455765" lon="14.050498"><ele>763.0</ele><time>2026-04-26T12:14:05.442Z</time></trkpt><trkpt lat="45.8454853" lon="14.050534"><ele>763.0</ele><time>2026-04-26T12:14:06.442Z</time></trkpt><trkpt lat="45.8454076" lon="14.0505818"><ele>763.0</ele><time>2026-04-26T12:14:07.442Z</time></trkpt><trkpt lat="45.8453494" lon="14.050649"><ele>763.0</ele><time>2026-04-26T12:14:08.442Z</time></trkpt><trkpt lat="45.8453029" lon="14.050725"><ele>763.0</ele><time>2026-04-26T12:14:09.442Z</time></trkpt><trkpt lat="45.8452675" lon="14.0508142"><ele>763.0</ele><time>2026-04-26T12:14:10.443Z</time></trkpt><trkpt lat="45.8452436" lon="14.0509348"><ele>763.0</ele><time>2026-04-26T12:14:11.442Z</time></trkpt><trkpt lat="45.8452207" lon="14.0510505"><ele>762.6666666666667</ele><time>2026-04-26T12:14:12.442Z</time></trkpt><trkpt lat="45.845181" lon="14.0511411"><ele>762.3333333333334</ele><time>2026-04-26T12:14:13.442Z</time></trkpt><trkpt lat="45.8451301" lon="14.0512045"><ele>762.0</ele><time>2026-04-26T12:14:14.442Z</time></trkpt><trkpt lat="45.8450631" lon="14.0512621"><ele>761.6666666666666</ele><time>2026-04-26T12:14:15.443Z</time></trkpt><trkpt lat="45.8449761" lon="14.0513157"><ele>761.3333333333333</ele><time>2026-04-26T12:14:16.442Z</time></trkpt><trkpt lat="45.8448844" lon="14.0513717"><ele>761.0</ele><time>2026-04-26T12:14:17.442Z</time></trkpt><trkpt lat="45.8447785" lon="14.0514184"><ele>761.0</ele><time>2026-04-26T12:14:18.443Z</time></trkpt><trkpt lat="45.8446669" lon="14.0514553"><ele>761.0</ele><time>2026-04-26T12:14:19.443Z</time></trkpt><trkpt lat="45.8445729" lon="14.051459"><ele>761.0</ele><time>2026-04-26T12:14:20.442Z</time></trkpt><trkpt lat="45.8444893" lon="14.0514757"><ele>761.0</ele><time>2026-04-26T12:14:21.442Z</time></trkpt><trkpt lat="45.8444148" lon="14.0515021"><ele>761.0</ele><time>2026-04-26T12:14:22.443Z</time></trkpt><trkpt lat="45.8443552" lon="14.0515628"><ele>761.0</ele><time>2026-04-26T12:14:23.442Z</time></trkpt><trkpt lat="45.84431" lon="14.051634"><ele>760.4285714285713</ele><time>2026-04-26T12:14:24.442Z</time></trkpt><trkpt lat="45.8442628" lon="14.0517405"><ele>759.8571428571429</ele><time>2026-04-26T12:14:25.442Z</time></trkpt><trkpt lat="45.8442167" lon="14.0518284"><ele>759.2857142857142</ele><time>2026-04-26T12:14:26.442Z</time></trkpt><trkpt lat="45.8441651" lon="14.0518816"><ele>758.7142857142857</ele><time>2026-04-26T12:14:27.442Z</time></trkpt><trkpt lat="45.8440968" lon="14.0519126"><ele>758.1428571428571</ele><time>2026-04-26T12:14:28.442Z</time></trkpt><trkpt lat="45.8440301" lon="14.0519252"><ele>757.5714285714286</ele><time>2026-04-26T12:14:29.442Z</time></trkpt><trkpt lat="45.8439509" lon="14.0519417"><ele>757.0</ele><time>2026-04-26T12:14:30.442Z</time></trkpt><trkpt lat="45.8438605" lon="14.0519679"><ele>757.0</ele><time>2026-04-26T12:14:31.442Z</time></trkpt><trkpt lat="45.8437776" lon="14.0520222"><ele>757.0</ele><time>2026-04-26T12:14:32.443Z</time></trkpt><trkpt lat="45.8436956" lon="14.0520831"><ele>757.0</ele><time>2026-04-26T12:14:33.442Z</time></trkpt><trkpt lat="45.8436048" lon="14.0521774"><ele>757.0</ele><time>2026-04-26T12:14:34.442Z</time></trkpt><trkpt lat="45.8435173" lon="14.0522887"><ele>757.0</ele><time>2026-04-26T12:14:35.442Z</time></trkpt><trkpt lat="45.8434396" lon="14.0523943"><ele>758.4000000000001</ele><time>2026-04-26T12:14:36.442Z</time></trkpt><trkpt lat="45.8433758" lon="14.052499"><ele>759.8000000000001</ele><time>2026-04-26T12:14:37.442Z</time></trkpt><trkpt lat="45.8433247" lon="14.0526158"><ele>761.2</ele><time>2026-04-26T12:14:38.442Z</time></trkpt><trkpt lat="45.8432684" lon="14.0527584"><ele>762.6</ele><time>2026-04-26T12:14:39.442Z</time></trkpt><trkpt lat="45.8432085" lon="14.0528872"><ele>764.0</ele><time>2026-04-26T12:14:40.442Z</time></trkpt><trkpt lat="45.8431563" lon="14.0530177"><ele>764.0</ele><time>2026-04-26T12:14:41.442Z</time></trkpt><trkpt lat="45.8431141" lon="14.0531555"><ele>764.0</ele><time>2026-04-26T12:14:42.442Z</time></trkpt><trkpt lat="45.8430584" lon="14.0532771"><ele>764.0</ele><time>2026-04-26T12:14:43.442Z</time></trkpt><trkpt lat="45.8430221" lon="14.0533791"><ele>764.0</ele><time>2026-04-26T12:14:44.443Z</time></trkpt><trkpt lat="45.8429916" lon="14.053488"><ele>764.0</ele><time>2026-04-26T12:14:45.442Z</time></trkpt><trkpt lat="45.8429785" lon="14.0536071"><ele>762.6</ele><time>2026-04-26T12:14:46.443Z</time></trkpt><trkpt lat="45.8429787" lon="14.0537154"><ele>761.2</ele><time>2026-04-26T12:14:47.442Z</time></trkpt><trkpt lat="45.8429933" lon="14.0538314"><ele>759.8000000000001</ele><time>2026-04-26T12:14:48.443Z</time></trkpt><trkpt lat="45.8430181" lon="14.0539755"><ele>758.4000000000001</ele><time>2026-04-26T12:14:49.443Z</time></trkpt><trkpt lat="45.8430172" lon="14.0541437"><ele>757.0</ele><time>2026-04-26T12:14:50.442Z</time></trkpt><trkpt lat="45.8430077" lon="14.0543255"><ele>757.0</ele><time>2026-04-26T12:14:51.442Z</time></trkpt><trkpt lat="45.8429927" lon="14.054504"><ele>757.0</ele><time>2026-04-26T12:14:52.442Z</time></trkpt><trkpt lat="45.8429581" lon="14.0546462"><ele>757.0</ele><time>2026-04-26T12:14:53.442Z</time></trkpt><trkpt lat="45.8429162" lon="14.0547716"><ele>757.0</ele><time>2026-04-26T12:14:54.442Z</time></trkpt><trkpt lat="45.8428614" lon="14.0548699"><ele>757.0</ele><time>2026-04-26T12:14:55.442Z</time></trkpt><trkpt lat="45.8427919" lon="14.0549727"><ele>756.8333333333334</ele><time>2026-04-26T12:14:56.442Z</time></trkpt><trkpt lat="45.8427378" lon="14.0550669"><ele>756.6666666666667</ele><time>2026-04-26T12:14:57.442Z</time></trkpt><trkpt lat="45.8426986" lon="14.0551649"><ele>756.5</ele><time>2026-04-26T12:14:58.442Z</time></trkpt><trkpt lat="45.842678" lon="14.0552819"><ele>756.3333333333334</ele><time>2026-04-26T12:14:59.442Z</time></trkpt><trkpt lat="45.8426758" lon="14.0553813"><ele>756.1666666666666</ele><time>2026-04-26T12:15:00.442Z</time></trkpt><trkpt lat="45.8427312" lon="14.0555444"><ele>756.0</ele><time>2026-04-26T12:15:02.443Z</time></trkpt><trkpt lat="45.8427884" lon="14.0556106"><ele>756.0</ele><time>2026-04-26T12:15:03.442Z</time></trkpt><trkpt lat="45.8428754" lon="14.0556809"><ele>756.0</ele><time>2026-04-26T12:15:04.442Z</time></trkpt><trkpt lat="45.8429715" lon="14.0557558"><ele>756.0</ele><time>2026-04-26T12:15:05.442Z</time></trkpt><trkpt lat="45.8430674" lon="14.0558689"><ele>756.0</ele><time>2026-04-26T12:15:06.442Z</time></trkpt><trkpt lat="45.8431622" lon="14.0559926"><ele>757.5</ele><time>2026-04-26T12:15:07.442Z</time></trkpt><trkpt lat="45.8432425" lon="14.0561271"><ele>759.0</ele><time>2026-04-26T12:15:08.442Z</time></trkpt><trkpt lat="45.8433113" lon="14.0562534"><ele>760.5</ele><time>2026-04-26T12:15:09.442Z</time></trkpt><trkpt lat="45.8433666" lon="14.0563796"><ele>762.0</ele><time>2026-04-26T12:15:10.442Z</time></trkpt><trkpt lat="45.8434075" lon="14.0565272"><ele>763.5</ele><time>2026-04-26T12:15:11.442Z</time></trkpt><trkpt lat="45.8434366" lon="14.0566965"><ele>765.0</ele><time>2026-04-26T12:15:12.443Z</time></trkpt><trkpt lat="45.8434445" lon="14.0568521"><ele>766.5</ele><time>2026-04-26T12:15:13.442Z</time></trkpt><trkpt lat="45.8434448" lon="14.0570038"><ele>768.0</ele><time>2026-04-26T12:15:14.442Z</time></trkpt><trkpt lat="45.8434263" lon="14.057168"><ele>768.0</ele><time>2026-04-26T12:15:15.442Z</time></trkpt><trkpt lat="45.8433954" lon="14.0573243"><ele>768.0</ele><time>2026-04-26T12:15:16.442Z</time></trkpt><trkpt lat="45.8433531" lon="14.0574758"><ele>768.0</ele><time>2026-04-26T12:15:17.442Z</time></trkpt><trkpt lat="45.8432994" lon="14.0576297"><ele>768.0</ele><time>2026-04-26T12:15:18.442Z</time></trkpt><trkpt lat="45.8432283" lon="14.057775"><ele>767.25</ele><time>2026-04-26T12:15:19.442Z</time></trkpt><trkpt lat="45.8431509" lon="14.05792"><ele>766.5</ele><time>2026-04-26T12:15:20.442Z</time></trkpt><trkpt lat="45.8430673" lon="14.058065"><ele>765.75</ele><time>2026-04-26T12:15:21.442Z</time></trkpt><trkpt lat="45.8430037" lon="14.0582012"><ele>765.0</ele><time>2026-04-26T12:15:22.442Z</time></trkpt><trkpt lat="45.8429587" lon="14.0583414"><ele>763.5</ele><time>2026-04-26T12:15:23.443Z</time></trkpt><trkpt lat="45.8429233" lon="14.0584774"><ele>762.0</ele><time>2026-04-26T12:15:24.442Z</time></trkpt><trkpt lat="45.842891" lon="14.0586167"><ele>760.5</ele><time>2026-04-26T12:15:25.442Z</time></trkpt><trkpt lat="45.8428663" lon="14.0587991"><ele>759.0</ele><time>2026-04-26T12:15:26.443Z</time></trkpt><trkpt lat="45.8428335" lon="14.0589901"><ele>757.25</ele><time>2026-04-26T12:15:27.442Z</time></trkpt><trkpt lat="45.8427941" lon="14.0591683"><ele>755.5</ele><time>2026-04-26T12:15:28.442Z</time></trkpt><trkpt lat="45.8427346" lon="14.0593419"><ele>753.75</ele><time>2026-04-26T12:15:29.442Z</time></trkpt><trkpt lat="45.8426655" lon="14.0595523"><ele>752.0</ele><time>2026-04-26T12:15:30.442Z</time></trkpt><trkpt lat="45.84258" lon="14.0597965"><ele>762.6666666666666</ele><time>2026-04-26T12:15:31.442Z</time></trkpt><trkpt lat="45.842498" lon="14.0600223"><ele>773.3333333333333</ele><time>2026-04-26T12:15:32.442Z</time></trkpt><trkpt lat="45.8424443" lon="14.0602117"><ele>784.0</ele><time>2026-04-26T12:15:33.442Z</time></trkpt><trkpt lat="45.8423772" lon="14.0603734"><ele>783.9999999999999</ele><time>2026-04-26T12:15:34.442Z</time></trkpt><trkpt lat="45.842316" lon="14.060502"><ele>784.0</ele><time>2026-04-26T12:15:35.442Z</time></trkpt><trkpt lat="45.8422794" lon="14.0606088"><ele>784.0</ele><time>2026-04-26T12:15:36.443Z</time></trkpt><trkpt lat="45.8422627" lon="14.0607136"><ele>784.0</ele><time>2026-04-26T12:15:37.442Z</time></trkpt><trkpt lat="45.8422702" lon="14.0608223"><ele>783.9999999999999</ele><time>2026-04-26T12:15:38.442Z</time></trkpt><trkpt lat="45.8422974" lon="14.0609357"><ele>784.0</ele><time>2026-04-26T12:15:39.442Z</time></trkpt><trkpt lat="45.8423224" lon="14.0610301"><ele>782.8000000000001</ele><time>2026-04-26T12:15:40.442Z</time></trkpt><trkpt lat="45.8423364" lon="14.0611224"><ele>781.6</ele><time>2026-04-26T12:15:41.442Z</time></trkpt><trkpt lat="45.842323" lon="14.0612125"><ele>780.4</ele><time>2026-04-26T12:15:42.442Z</time></trkpt><trkpt lat="45.8422691" lon="14.0613908"><ele>779.2</ele><time>2026-04-26T12:15:44.442Z</time></trkpt><trkpt lat="45.8422223" lon="14.0615078"><ele>778.0</ele><time>2026-04-26T12:15:45.442Z</time></trkpt><trkpt lat="45.8421804" lon="14.0616382"><ele>777.25</ele><time>2026-04-26T12:15:46.442Z</time></trkpt><trkpt lat="45.842149" lon="14.0617884"><ele>776.5</ele><time>2026-04-26T12:15:47.442Z</time></trkpt><trkpt lat="45.8421278" lon="14.061976"><ele>775.75</ele><time>2026-04-26T12:15:48.442Z</time></trkpt><trkpt lat="45.8420991" lon="14.062174"><ele>775.0</ele><time>2026-04-26T12:15:49.442Z</time></trkpt><trkpt lat="45.8420724" lon="14.0623712"><ele>774.75</ele><time>2026-04-26T12:15:50.443Z</time></trkpt><trkpt lat="45.8420356" lon="14.0625587"><ele>774.5</ele><time>2026-04-26T12:15:51.443Z</time></trkpt><trkpt lat="45.8420065" lon="14.0627242"><ele>774.25</ele><time>2026-04-26T12:15:52.442Z</time></trkpt><trkpt lat="45.841995" lon="14.0628846"><ele>774.0</ele><time>2026-04-26T12:15:53.442Z</time></trkpt><trkpt lat="45.8419957" lon="14.0630613"><ele>774.0</ele><time>2026-04-26T12:15:54.442Z</time></trkpt><trkpt lat="45.8419947" lon="14.0632345"><ele>774.0</ele><time>2026-04-26T12:15:55.442Z</time></trkpt><trkpt lat="45.841992" lon="14.0634047"><ele>774.0</ele><time>2026-04-26T12:15:56.443Z</time></trkpt><trkpt lat="45.8419698" lon="14.0635547"><ele>774.0</ele><time>2026-04-26T12:15:57.442Z</time></trkpt><trkpt lat="45.8419514" lon="14.0636839"><ele>774.0</ele><time>2026-04-26T12:15:58.443Z</time></trkpt><trkpt lat="45.8419128" lon="14.0637985"><ele>772.75</ele><time>2026-04-26T12:15:59.442Z</time></trkpt><trkpt lat="45.841862" lon="14.0639092"><ele>771.5</ele><time>2026-04-26T12:16:00.442Z</time></trkpt><trkpt lat="45.8418123" lon="14.0640439"><ele>770.25</ele><time>2026-04-26T12:16:01.442Z</time></trkpt><trkpt lat="45.8417339" lon="14.0641869"><ele>769.0</ele><time>2026-04-26T12:16:02.443Z</time></trkpt><trkpt lat="45.8416551" lon="14.0643348"><ele>770.25</ele><time>2026-04-26T12:16:03.442Z</time></trkpt><trkpt lat="45.8415753" lon="14.0644659"><ele>771.5</ele><time>2026-04-26T12:16:04.442Z</time></trkpt><trkpt lat="45.8414989" lon="14.0646133"><ele>772.75</ele><time>2026-04-26T12:16:05.442Z</time></trkpt><trkpt lat="45.8414177" lon="14.0647911"><ele>774.0</ele><time>2026-04-26T12:16:06.442Z</time></trkpt><trkpt lat="45.8413355" lon="14.0649805"><ele>774.0</ele><time>2026-04-26T12:16:07.442Z</time></trkpt><trkpt lat="45.8412573" lon="14.0651546"><ele>774.0</ele><time>2026-04-26T12:16:08.443Z</time></trkpt><trkpt lat="45.8411985" lon="14.0653161"><ele>774.0</ele><time>2026-04-26T12:16:09.442Z</time></trkpt><trkpt lat="45.8411325" lon="14.0654465"><ele>774.0</ele><time>2026-04-26T12:16:10.442Z</time></trkpt><trkpt lat="45.8410651" lon="14.06557"><ele>774.0</ele><time>2026-04-26T12:16:11.443Z</time></trkpt><trkpt lat="45.8409902" lon="14.065681"><ele>774.0</ele><time>2026-04-26T12:16:12.442Z</time></trkpt><trkpt lat="45.8409061" lon="14.0657935"><ele>774.0</ele><time>2026-04-26T12:16:13.442Z</time></trkpt><trkpt lat="45.8408154" lon="14.0658994"><ele>774.0</ele><time>2026-04-26T12:16:14.442Z</time></trkpt><trkpt lat="45.8407165" lon="14.0659947"><ele>776.75</ele><time>2026-04-26T12:16:15.442Z</time></trkpt><trkpt lat="45.8406171" lon="14.0660992"><ele>779.5</ele><time>2026-04-26T12:16:16.442Z</time></trkpt><trkpt lat="45.8405233" lon="14.0661963"><ele>782.25</ele><time>2026-04-26T12:16:17.442Z</time></trkpt><trkpt lat="45.8404261" lon="14.0662874"><ele>785.0</ele><time>2026-04-26T12:16:18.442Z</time></trkpt><trkpt lat="45.8403284" lon="14.0663537"><ele>785.0</ele><time>2026-04-26T12:16:19.442Z</time></trkpt><trkpt lat="45.8402346" lon="14.0664051"><ele>785.0</ele><time>2026-04-26T12:16:20.442Z</time></trkpt><trkpt lat="45.840138" lon="14.0664677"><ele>785.0</ele><time>2026-04-26T12:16:21.443Z</time></trkpt><trkpt lat="45.8400454" lon="14.0665511"><ele>785.0</ele><time>2026-04-26T12:16:22.442Z</time></trkpt><trkpt lat="45.8399544" lon="14.0666637"><ele>785.0</ele><time>2026-04-26T12:16:23.442Z</time></trkpt><trkpt lat="45.8398799" lon="14.0667753"><ele>784.0</ele><time>2026-04-26T12:16:24.442Z</time></trkpt><trkpt lat="45.8398102" lon="14.0669149"><ele>783.0</ele><time>2026-04-26T12:16:25.442Z</time></trkpt><trkpt lat="45.8397276" lon="14.0670382"><ele>782.0</ele><time>2026-04-26T12:16:26.443Z</time></trkpt><trkpt lat="45.839644" lon="14.0671464"><ele>781.0</ele><time>2026-04-26T12:16:27.442Z</time></trkpt><trkpt lat="45.8395603" lon="14.0672286"><ele>781.0</ele><time>2026-04-26T12:16:28.442Z</time></trkpt><trkpt lat="45.8394818" lon="14.0672962"><ele>781.0</ele><time>2026-04-26T12:16:29.442Z</time></trkpt><trkpt lat="45.839404" lon="14.0673553"><ele>781.0</ele><time>2026-04-26T12:16:30.442Z</time></trkpt><trkpt lat="45.8393077" lon="14.067373"><ele>781.0</ele><time>2026-04-26T12:16:31.442Z</time></trkpt><trkpt lat="45.8392066" lon="14.0673949"><ele>781.0</ele><time>2026-04-26T12:16:32.442Z</time></trkpt><trkpt lat="45.839076" lon="14.0674094"><ele>779.5</ele><time>2026-04-26T12:16:33.442Z</time></trkpt><trkpt lat="45.8389323" lon="14.067425"><ele>778.0</ele><time>2026-04-26T12:16:34.442Z</time></trkpt><trkpt lat="45.8387869" lon="14.0674358"><ele>776.5</ele><time>2026-04-26T12:16:35.442Z</time></trkpt><trkpt lat="45.8386522" lon="14.067457"><ele>775.0</ele><time>2026-04-26T12:16:36.442Z</time></trkpt><trkpt lat="45.838537" lon="14.067476"><ele>774.1666666666666</ele><time>2026-04-26T12:16:37.442Z</time></trkpt><trkpt lat="45.838437" lon="14.0674786"><ele>773.3333333333333</ele><time>2026-04-26T12:16:38.443Z</time></trkpt><trkpt lat="45.8383594" lon="14.0674747"><ele>772.5</ele><time>2026-04-26T12:16:39.442Z</time></trkpt><trkpt lat="45.8382825" lon="14.0674486"><ele>771.6666666666667</ele><time>2026-04-26T12:16:40.442Z</time></trkpt><trkpt lat="45.8382216" lon="14.0674033"><ele>770.8333333333334</ele><time>2026-04-26T12:16:41.442Z</time></trkpt><trkpt lat="45.8381658" lon="14.06733"><ele>770.0</ele><time>2026-04-26T12:16:42.442Z</time></trkpt><trkpt lat="45.8381089" lon="14.0672339"><ele>772.6666666666667</ele><time>2026-04-26T12:16:43.442Z</time></trkpt><trkpt lat="45.8380635" lon="14.0671324"><ele>775.3333333333334</ele><time>2026-04-26T12:16:44.442Z</time></trkpt><trkpt lat="45.8380139" lon="14.0670505"><ele>778.0</ele><time>2026-04-26T12:16:45.443Z</time></trkpt><trkpt lat="45.8379534" lon="14.066992"><ele>780.6666666666667</ele><time>2026-04-26T12:16:46.442Z</time></trkpt><trkpt lat="45.8378859" lon="14.066951"><ele>783.3333333333334</ele><time>2026-04-26T12:16:47.442Z</time></trkpt><trkpt lat="45.8378065" lon="14.0669354"><ele>786.0</ele><time>2026-04-26T12:16:48.442Z</time></trkpt><trkpt lat="45.837725" lon="14.0669474"><ele>785.25</ele><time>2026-04-26T12:16:49.442Z</time></trkpt><trkpt lat="45.837628" lon="14.0669924"><ele>784.5</ele><time>2026-04-26T12:16:50.443Z</time></trkpt><trkpt lat="45.8375322" lon="14.0670382"><ele>783.75</ele><time>2026-04-26T12:16:51.442Z</time></trkpt><trkpt lat="45.8374105" lon="14.067075"><ele>783.0</ele><time>2026-04-26T12:16:52.442Z</time></trkpt><trkpt lat="45.8372805" lon="14.0670899"><ele>783.0</ele><time>2026-04-26T12:16:53.442Z</time></trkpt><trkpt lat="45.8371443" lon="14.0670842"><ele>783.0</ele><time>2026-04-26T12:16:54.442Z</time></trkpt><trkpt lat="45.8370244" lon="14.0670529"><ele>783.0</ele><time>2026-04-26T12:16:55.442Z</time></trkpt><trkpt lat="45.8369254" lon="14.067029"><ele>783.0</ele><time>2026-04-26T12:16:56.442Z</time></trkpt><trkpt lat="45.8368471" lon="14.0669853"><ele>783.0</ele><time>2026-04-26T12:16:57.442Z</time></trkpt><trkpt lat="45.8367757" lon="14.0669032"><ele>781.25</ele><time>2026-04-26T12:16:58.442Z</time></trkpt><trkpt lat="45.8366793" lon="14.0668049"><ele>779.5</ele><time>2026-04-26T12:16:59.443Z</time></trkpt><trkpt lat="45.8365706" lon="14.066703"><ele>777.75</ele><time>2026-04-26T12:17:00.442Z</time></trkpt><trkpt lat="45.836468" lon="14.0666272"><ele>776.0</ele><time>2026-04-26T12:17:01.442Z</time></trkpt><trkpt lat="45.8363745" lon="14.0665711"><ele>777.5</ele><time>2026-04-26T12:17:02.442Z</time></trkpt><trkpt lat="45.8362655" lon="14.0665235"><ele>779.0</ele><time>2026-04-26T12:17:03.443Z</time></trkpt><trkpt lat="45.8361471" lon="14.0665029"><ele>780.5</ele><time>2026-04-26T12:17:04.442Z</time></trkpt><trkpt lat="45.8360147" lon="14.0664725"><ele>782.0</ele><time>2026-04-26T12:17:05.442Z</time></trkpt><trkpt lat="45.8358674" lon="14.0664319"><ele>782.0</ele><time>2026-04-26T12:17:06.442Z</time></trkpt><trkpt lat="45.8357521" lon="14.0663811"><ele>782.0</ele><time>2026-04-26T12:17:07.442Z</time></trkpt><trkpt lat="45.8356581" lon="14.0663511"><ele>782.0</ele><time>2026-04-26T12:17:08.442Z</time></trkpt><trkpt lat="45.8355919" lon="14.0663135"><ele>782.0</ele><time>2026-04-26T12:17:09.442Z</time></trkpt><trkpt lat="45.8356009" lon="14.0662128"><ele>782.0</ele><time>2026-04-26T12:17:29.442Z</time></trkpt><trkpt lat="45.8355201" lon="14.0661051"><ele>781.9999999999999</ele><time>2026-04-26T12:17:31.442Z</time></trkpt><trkpt lat="45.8354673" lon="14.0660419"><ele>782.0</ele><time>2026-04-26T12:17:32.442Z</time></trkpt><trkpt lat="45.8354162" lon="14.0659808"><ele>782.0</ele><time>2026-04-26T12:17:33.442Z</time></trkpt><trkpt lat="45.8353692" lon="14.065915"><ele>782.0</ele><time>2026-04-26T12:17:34.442Z</time></trkpt><trkpt lat="45.8353474" lon="14.0658254"><ele>782.0</ele><time>2026-04-26T12:17:35.442Z</time></trkpt><trkpt lat="45.8353329" lon="14.0657347"><ele>781.9999999999999</ele><time>2026-04-26T12:17:36.443Z</time></trkpt><trkpt lat="45.8353211" lon="14.0656373"><ele>782.0</ele><time>2026-04-26T12:17:37.443Z</time></trkpt><trkpt lat="45.8352596" lon="14.0654896"><ele>784.0000000000001</ele><time>2026-04-26T12:17:39.442Z</time></trkpt><trkpt lat="45.835185" lon="14.0654483"><ele>786.0</ele><time>2026-04-26T12:17:40.442Z</time></trkpt><trkpt lat="45.8351047" lon="14.0654224"><ele>788.0</ele><time>2026-04-26T12:17:41.442Z</time></trkpt><trkpt lat="45.8350234" lon="14.0653981"><ele>790.0</ele><time>2026-04-26T12:17:42.442Z</time></trkpt><trkpt lat="45.8349447" lon="14.0653687"><ele>792.0000000000001</ele><time>2026-04-26T12:17:43.442Z</time></trkpt><trkpt lat="45.8348651" lon="14.0653234"><ele>794.0</ele><time>2026-04-26T12:17:44.442Z</time></trkpt><trkpt lat="45.8347887" lon="14.0652797"><ele>794.0000000000001</ele><time>2026-04-26T12:17:45.442Z</time></trkpt><trkpt lat="45.8347127" lon="14.0652148"><ele>794.0</ele><time>2026-04-26T12:17:46.442Z</time></trkpt><trkpt lat="45.8346439" lon="14.0651384"><ele>794.0</ele><time>2026-04-26T12:17:47.442Z</time></trkpt><trkpt lat="45.8345559" lon="14.0650909"><ele>794.0</ele><time>2026-04-26T12:17:48.442Z</time></trkpt><trkpt lat="45.8344689" lon="14.0650882"><ele>794.0000000000001</ele><time>2026-04-26T12:17:49.442Z</time></trkpt><trkpt lat="45.8343781" lon="14.0650943"><ele>794.0</ele><time>2026-04-26T12:17:50.442Z</time></trkpt><trkpt lat="45.8342774" lon="14.0651382"><ele>793.8000000000001</ele><time>2026-04-26T12:17:51.442Z</time></trkpt><trkpt lat="45.8341662" lon="14.065166"><ele>793.6</ele><time>2026-04-26T12:17:52.442Z</time></trkpt><trkpt lat="45.834057" lon="14.0651903"><ele>793.4</ele><time>2026-04-26T12:17:53.443Z</time></trkpt><trkpt lat="45.8339432" lon="14.0652246"><ele>793.2</ele><time>2026-04-26T12:17:54.442Z</time></trkpt><trkpt lat="45.833845" lon="14.0652559"><ele>793.0</ele><time>2026-04-26T12:17:55.442Z</time></trkpt><trkpt lat="45.8337464" lon="14.065294"><ele>792.9999999999999</ele><time>2026-04-26T12:17:56.442Z</time></trkpt><trkpt lat="45.833657" lon="14.065342"><ele>793.0</ele><time>2026-04-26T12:17:57.442Z</time></trkpt><trkpt lat="45.8335724" lon="14.0653866"><ele>793.0</ele><time>2026-04-26T12:17:58.442Z</time></trkpt><trkpt lat="45.8334834" lon="14.0654205"><ele>793.0</ele><time>2026-04-26T12:17:59.443Z</time></trkpt><trkpt lat="45.833402" lon="14.0654222"><ele>792.9999999999999</ele><time>2026-04-26T12:18:00.442Z</time></trkpt><trkpt lat="45.8333414" lon="14.065397"><ele>793.0</ele><time>2026-04-26T12:18:01.443Z</time></trkpt><trkpt lat="45.8332744" lon="14.065263"><ele>793.8571428571429</ele><time>2026-04-26T12:18:03.443Z</time></trkpt><trkpt lat="45.8332555" lon="14.0651717"><ele>794.7142857142858</ele><time>2026-04-26T12:18:04.442Z</time></trkpt><trkpt lat="45.8332424" lon="14.0650689"><ele>795.5714285714287</ele><time>2026-04-26T12:18:05.442Z</time></trkpt><trkpt lat="45.8332376" lon="14.064965"><ele>796.4285714285714</ele><time>2026-04-26T12:18:06.442Z</time></trkpt><trkpt lat="45.8332324" lon="14.0648616"><ele>797.2857142857142</ele><time>2026-04-26T12:18:07.442Z</time></trkpt><trkpt lat="45.8332163" lon="14.0647478"><ele>798.1428571428572</ele><time>2026-04-26T12:18:08.442Z</time></trkpt><trkpt lat="45.8331912" lon="14.0646379"><ele>799.0</ele><time>2026-04-26T12:18:09.442Z</time></trkpt><trkpt lat="45.8331299" lon="14.0644943"><ele>801.4000000000001</ele><time>2026-04-26T12:18:11.442Z</time></trkpt><trkpt lat="45.8330118" lon="14.0644438"><ele>803.8</ele><time>2026-04-26T12:18:13.442Z</time></trkpt><trkpt lat="45.8329359" lon="14.0644288"><ele>806.2</ele><time>2026-04-26T12:18:14.442Z</time></trkpt><trkpt lat="45.8328352" lon="14.0644024"><ele>808.5999999999999</ele><time>2026-04-26T12:18:15.442Z</time></trkpt><trkpt lat="45.8327383" lon="14.0643961"><ele>811.0</ele><time>2026-04-26T12:18:16.442Z</time></trkpt><trkpt lat="45.8326349" lon="14.0644036"><ele>812.25</ele><time>2026-04-26T12:18:17.442Z</time></trkpt><trkpt lat="45.8325156" lon="14.0644259"><ele>813.5</ele><time>2026-04-26T12:18:18.442Z</time></trkpt><trkpt lat="45.8323734" lon="14.0644585"><ele>814.75</ele><time>2026-04-26T12:18:19.442Z</time></trkpt><trkpt lat="45.8322148" lon="14.0644863"><ele>816.0</ele><time>2026-04-26T12:18:20.443Z</time></trkpt><trkpt lat="45.8320433" lon="14.0645191"><ele>816.0</ele><time>2026-04-26T12:18:21.442Z</time></trkpt><trkpt lat="45.8318703" lon="14.0645472"><ele>816.0</ele><time>2026-04-26T12:18:22.442Z</time></trkpt><trkpt lat="45.8317087" lon="14.0645759"><ele>816.0</ele><time>2026-04-26T12:18:23.442Z</time></trkpt><trkpt lat="45.8315666" lon="14.0646002"><ele>819.25</ele><time>2026-04-26T12:18:24.442Z</time></trkpt><trkpt lat="45.831439" lon="14.0646423"><ele>822.5</ele><time>2026-04-26T12:18:25.442Z</time></trkpt><trkpt lat="45.8312968" lon="14.064664"><ele>825.75</ele><time>2026-04-26T12:18:26.442Z</time></trkpt><trkpt lat="45.8311627" lon="14.0646698"><ele>829.0</ele><time>2026-04-26T12:18:27.443Z</time></trkpt><trkpt lat="45.8310279" lon="14.0646696"><ele>832.0</ele><time>2026-04-26T12:18:28.442Z</time></trkpt><trkpt lat="45.8308852" lon="14.064679"><ele>835.0</ele><time>2026-04-26T12:18:29.442Z</time></trkpt><trkpt lat="45.8307318" lon="14.0646865"><ele>838.0</ele><time>2026-04-26T12:18:30.442Z</time></trkpt><trkpt lat="45.8305712" lon="14.0647162"><ele>838.0</ele><time>2026-04-26T12:18:31.442Z</time></trkpt><trkpt lat="45.8304119" lon="14.0647583"><ele>838.0</ele><time>2026-04-26T12:18:32.442Z</time></trkpt><trkpt lat="45.8302496" lon="14.0648007"><ele>838.0</ele><time>2026-04-26T12:18:33.442Z</time></trkpt><trkpt lat="45.8300944" lon="14.0648335"><ele>841.3333333333333</ele><time>2026-04-26T12:18:34.442Z</time></trkpt><trkpt lat="45.8299351" lon="14.0648627"><ele>844.6666666666667</ele><time>2026-04-26T12:18:35.442Z</time></trkpt><trkpt lat="45.8297726" lon="14.0648834"><ele>848.0</ele><time>2026-04-26T12:18:36.442Z</time></trkpt><trkpt lat="45.8296208" lon="14.0649065"><ele>848.0</ele><time>2026-04-26T12:18:37.442Z</time></trkpt><trkpt lat="45.8294928" lon="14.0649183"><ele>848.0</ele><time>2026-04-26T12:18:38.442Z</time></trkpt><trkpt lat="45.8293934" lon="14.0649417"><ele>848.0</ele><time>2026-04-26T12:18:39.443Z</time></trkpt><trkpt lat="45.829309" lon="14.0649663"><ele>848.0</ele><time>2026-04-26T12:18:40.443Z</time></trkpt><trkpt lat="45.8292357" lon="14.0650537"><ele>848.0</ele><time>2026-04-26T12:18:41.442Z</time></trkpt><trkpt lat="45.8291713" lon="14.0651732"><ele>846.25</ele><time>2026-04-26T12:18:42.442Z</time></trkpt><trkpt lat="45.8290973" lon="14.0653074"><ele>844.5</ele><time>2026-04-26T12:18:43.442Z</time></trkpt><trkpt lat="45.8290165" lon="14.0654648"><ele>842.75</ele><time>2026-04-26T12:18:44.442Z</time></trkpt><trkpt lat="45.8289343" lon="14.0656239"><ele>841.0</ele><time>2026-04-26T12:18:45.442Z</time></trkpt><trkpt lat="45.8288375" lon="14.0657895"><ele>837.0</ele><time>2026-04-26T12:18:46.443Z</time></trkpt><trkpt lat="45.828736" lon="14.0659409"><ele>833.0</ele><time>2026-04-26T12:18:47.442Z</time></trkpt><trkpt lat="45.8286375" lon="14.0660849"><ele>829.0</ele><time>2026-04-26T12:18:48.442Z</time></trkpt><trkpt lat="45.8285535" lon="14.0662539"><ele>825.0</ele><time>2026-04-26T12:18:49.442Z</time></trkpt><trkpt lat="45.8284778" lon="14.0664482"><ele>831.75</ele><time>2026-04-26T12:18:50.442Z</time></trkpt><trkpt lat="45.8284068" lon="14.0666642"><ele>838.5</ele><time>2026-04-26T12:18:51.442Z</time></trkpt><trkpt lat="45.8283441" lon="14.0668557"><ele>845.25</ele><time>2026-04-26T12:18:52.442Z</time></trkpt><trkpt lat="45.8282921" lon="14.0670204"><ele>852.0</ele><time>2026-04-26T12:18:53.442Z</time></trkpt><trkpt lat="45.8282496" lon="14.0671681"><ele>852.0</ele><time>2026-04-26T12:18:54.442Z</time></trkpt><trkpt lat="45.8282229" lon="14.0673219"><ele>852.0</ele><time>2026-04-26T12:18:55.442Z</time></trkpt><trkpt lat="45.8282005" lon="14.0674796"><ele>852.0</ele><time>2026-04-26T12:18:56.442Z</time></trkpt><trkpt lat="45.8281842" lon="14.0676307"><ele>852.0</ele><time>2026-04-26T12:18:57.442Z</time></trkpt><trkpt lat="45.8281452" lon="14.0677874"><ele>852.0</ele><time>2026-04-26T12:18:58.442Z</time></trkpt><trkpt lat="45.8280885" lon="14.0679663"><ele>849.0</ele><time>2026-04-26T12:18:59.442Z</time></trkpt><trkpt lat="45.8280293" lon="14.0681569"><ele>846.0</ele><time>2026-04-26T12:19:00.442Z</time></trkpt><trkpt lat="45.8279643" lon="14.0683763"><ele>843.0</ele><time>2026-04-26T12:19:01.442Z</time></trkpt><trkpt lat="45.827903" lon="14.0685802"><ele>841.25</ele><time>2026-04-26T12:19:02.442Z</time></trkpt><trkpt lat="45.8278437" lon="14.0687727"><ele>839.5</ele><time>2026-04-26T12:19:03.442Z</time></trkpt><trkpt lat="45.8277947" lon="14.0689675"><ele>837.75</ele><time>2026-04-26T12:19:04.442Z</time></trkpt><trkpt lat="45.8277474" lon="14.0691393"><ele>836.0</ele><time>2026-04-26T12:19:05.442Z</time></trkpt><trkpt lat="45.8277079" lon="14.0693034"><ele>834.25</ele><time>2026-04-26T12:19:06.443Z</time></trkpt><trkpt lat="45.827669" lon="14.0694799"><ele>832.5</ele><time>2026-04-26T12:19:07.442Z</time></trkpt><trkpt lat="45.827639" lon="14.069667"><ele>830.75</ele><time>2026-04-26T12:19:08.442Z</time></trkpt><trkpt lat="45.8276175" lon="14.0698776"><ele>829.0</ele><time>2026-04-26T12:19:09.442Z</time></trkpt><trkpt lat="45.8275895" lon="14.0700703"><ele>836.8000000000001</ele><time>2026-04-26T12:19:10.442Z</time></trkpt><trkpt lat="45.827566" lon="14.0702407"><ele>844.6</ele><time>2026-04-26T12:19:11.442Z</time></trkpt><trkpt lat="45.8275425" lon="14.0703934"><ele>852.4</ele><time>2026-04-26T12:19:12.442Z</time></trkpt><trkpt lat="45.8275042" lon="14.0705418"><ele>860.2</ele><time>2026-04-26T12:19:13.442Z</time></trkpt><trkpt lat="45.8274703" lon="14.0706772"><ele>868.0</ele><time>2026-04-26T12:19:14.443Z</time></trkpt><trkpt lat="45.8274531" lon="14.0708047"><ele>868.0</ele><time>2026-04-26T12:19:15.442Z</time></trkpt><trkpt lat="45.8274499" lon="14.0709335"><ele>868.0</ele><time>2026-04-26T12:19:16.443Z</time></trkpt><trkpt lat="45.8274491" lon="14.0710868"><ele>868.0</ele><time>2026-04-26T12:19:17.442Z</time></trkpt><trkpt lat="45.8274713" lon="14.0712668"><ele>868.0</ele><time>2026-04-26T12:19:18.442Z</time></trkpt><trkpt lat="45.8274832" lon="14.071453"><ele>868.0</ele><time>2026-04-26T12:19:19.442Z</time></trkpt><trkpt lat="45.8274771" lon="14.0716484"><ele>868.0</ele><time>2026-04-26T12:19:20.442Z</time></trkpt><trkpt lat="45.8274627" lon="14.0718327"><ele>868.0</ele><time>2026-04-26T12:19:21.442Z</time></trkpt><trkpt lat="45.8274442" lon="14.0719834"><ele>868.0</ele><time>2026-04-26T12:19:22.442Z</time></trkpt><trkpt lat="45.8274252" lon="14.0721157"><ele>867.9999999999999</ele><time>2026-04-26T12:19:23.442Z</time></trkpt><trkpt lat="45.8274125" lon="14.0722242"><ele>868.0</ele><time>2026-04-26T12:19:24.442Z</time></trkpt><trkpt lat="45.8273974" lon="14.0723195"><ele>868.0</ele><time>2026-04-26T12:19:25.443Z</time></trkpt><trkpt lat="45.82738" lon="14.0724117"><ele>868.0</ele><time>2026-04-26T12:19:26.443Z</time></trkpt><trkpt lat="45.8273548" lon="14.0725134"><ele>867.9999999999999</ele><time>2026-04-26T12:19:27.443Z</time></trkpt><trkpt lat="45.8273228" lon="14.0726157"><ele>868.0</ele><time>2026-04-26T12:19:28.442Z</time></trkpt><trkpt lat="45.8272809" lon="14.0727236"><ele>866.75</ele><time>2026-04-26T12:19:29.442Z</time></trkpt><trkpt lat="45.8272254" lon="14.0728411"><ele>865.5</ele><time>2026-04-26T12:19:30.442Z</time></trkpt><trkpt lat="45.8271639" lon="14.0729698"><ele>864.25</ele><time>2026-04-26T12:19:31.442Z</time></trkpt><trkpt lat="45.8270842" lon="14.0731034"><ele>863.0</ele><time>2026-04-26T12:19:32.442Z</time></trkpt><trkpt lat="45.8270006" lon="14.0732438"><ele>861.5</ele><time>2026-04-26T12:19:33.443Z</time></trkpt><trkpt lat="45.8269247" lon="14.0733878"><ele>860.0</ele><time>2026-04-26T12:19:34.442Z</time></trkpt><trkpt lat="45.8268577" lon="14.0735416"><ele>858.5</ele><time>2026-04-26T12:19:35.442Z</time></trkpt><trkpt lat="45.8267773" lon="14.0736925"><ele>857.0</ele><time>2026-04-26T12:19:36.442Z</time></trkpt><trkpt lat="45.8267117" lon="14.0738337"><ele>861.8</ele><time>2026-04-26T12:19:37.442Z</time></trkpt><trkpt lat="45.8266479" lon="14.0739768"><ele>866.6</ele><time>2026-04-26T12:19:38.442Z</time></trkpt><trkpt lat="45.8265783" lon="14.074113"><ele>871.3999999999999</ele><time>2026-04-26T12:19:39.442Z</time></trkpt><trkpt lat="45.8265036" lon="14.0742189"><ele>876.1999999999999</ele><time>2026-04-26T12:19:40.442Z</time></trkpt><trkpt lat="45.8264193" lon="14.0743125"><ele>881.0</ele><time>2026-04-26T12:19:41.442Z</time></trkpt><trkpt lat="45.8263394" lon="14.0744183"><ele>881.0</ele><time>2026-04-26T12:19:42.442Z</time></trkpt><trkpt lat="45.8262588" lon="14.0745794"><ele>881.0</ele><time>2026-04-26T12:19:43.442Z</time></trkpt><trkpt lat="45.8261667" lon="14.0747339"><ele>881.0</ele><time>2026-04-26T12:19:44.442Z</time></trkpt><trkpt lat="45.8260999" lon="14.074863"><ele>881.0</ele><time>2026-04-26T12:19:45.443Z</time></trkpt><trkpt lat="45.8260367" lon="14.0749458"><ele>879.1666666666667</ele><time>2026-04-26T12:19:46.442Z</time></trkpt><trkpt lat="45.8259835" lon="14.0750059"><ele>877.3333333333334</ele><time>2026-04-26T12:19:47.442Z</time></trkpt><trkpt lat="45.8259322" lon="14.0750584"><ele>875.5</ele><time>2026-04-26T12:19:48.442Z</time></trkpt><trkpt lat="45.8258723" lon="14.0750967"><ele>873.6666666666667</ele><time>2026-04-26T12:19:49.442Z</time></trkpt><trkpt lat="45.8257981" lon="14.0751319"><ele>871.8333333333334</ele><time>2026-04-26T12:19:50.442Z</time></trkpt><trkpt lat="45.8257051" lon="14.0751724"><ele>870.0</ele><time>2026-04-26T12:19:51.442Z</time></trkpt><trkpt lat="45.8255965" lon="14.0752027"><ele>875.2</ele><time>2026-04-26T12:19:52.442Z</time></trkpt><trkpt lat="45.8254901" lon="14.0752469"><ele>880.4</ele><time>2026-04-26T12:19:53.442Z</time></trkpt><trkpt lat="45.8253851" lon="14.0752982"><ele>885.5999999999999</ele><time>2026-04-26T12:19:54.443Z</time></trkpt><trkpt lat="45.8252836" lon="14.0753744"><ele>890.8</ele><time>2026-04-26T12:19:55.442Z</time></trkpt><trkpt lat="45.8251847" lon="14.0754461"><ele>896.0</ele><time>2026-04-26T12:19:56.442Z</time></trkpt><trkpt lat="45.8251004" lon="14.0754894"><ele>897.8333333333334</ele><time>2026-04-26T12:19:57.442Z</time></trkpt><trkpt lat="45.8250165" lon="14.0755034"><ele>899.6666666666667</ele><time>2026-04-26T12:19:58.442Z</time></trkpt><trkpt lat="45.8249356" lon="14.0755121"><ele>901.5</ele><time>2026-04-26T12:19:59.442Z</time></trkpt><trkpt lat="45.8248411" lon="14.0755248"><ele>903.3333333333333</ele><time>2026-04-26T12:20:00.442Z</time></trkpt><trkpt lat="45.8247465" lon="14.0755365"><ele>905.1666666666666</ele><time>2026-04-26T12:20:01.442Z</time></trkpt><trkpt lat="45.8246649" lon="14.0755252"><ele>907.0</ele><time>2026-04-26T12:20:02.442Z</time></trkpt><trkpt lat="45.8245918" lon="14.0755112"><ele>906.9999999999999</ele><time>2026-04-26T12:20:03.442Z</time></trkpt><trkpt lat="45.8245184" lon="14.0755022"><ele>907.0</ele><time>2026-04-26T12:20:04.442Z</time></trkpt><trkpt lat="45.8244503" lon="14.0755234"><ele>907.0</ele><time>2026-04-26T12:20:05.442Z</time></trkpt><trkpt lat="45.8243781" lon="14.0755651"><ele>907.0</ele><time>2026-04-26T12:20:06.443Z</time></trkpt><trkpt lat="45.8242989" lon="14.0756264"><ele>906.9999999999999</ele><time>2026-04-26T12:20:07.442Z</time></trkpt><trkpt lat="45.8242066" lon="14.0756785"><ele>907.0</ele><time>2026-04-26T12:20:08.442Z</time></trkpt><trkpt lat="45.8241156" lon="14.0757237"><ele>906.2</ele><time>2026-04-26T12:20:09.442Z</time></trkpt><trkpt lat="45.8240304" lon="14.075769"><ele>905.4000000000001</ele><time>2026-04-26T12:20:10.442Z</time></trkpt><trkpt lat="45.8239483" lon="14.0758331"><ele>904.5999999999999</ele><time>2026-04-26T12:20:11.443Z</time></trkpt><trkpt lat="45.8238731" lon="14.0758978"><ele>903.8</ele><time>2026-04-26T12:20:12.442Z</time></trkpt><trkpt lat="45.8237963" lon="14.0759716"><ele>903.0</ele><time>2026-04-26T12:20:13.442Z</time></trkpt><trkpt lat="45.8237207" lon="14.0760335"><ele>903.0</ele><time>2026-04-26T12:20:14.443Z</time></trkpt><trkpt lat="45.823633" lon="14.0760714"><ele>903.0</ele><time>2026-04-26T12:20:15.442Z</time></trkpt><trkpt lat="45.823544" lon="14.0761144"><ele>903.0</ele><time>2026-04-26T12:20:16.443Z</time></trkpt><trkpt lat="45.8234504" lon="14.0761513"><ele>903.0</ele><time>2026-04-26T12:20:17.442Z</time></trkpt><trkpt lat="45.8233542" lon="14.0761935"><ele>903.0</ele><time>2026-04-26T12:20:18.442Z</time></trkpt><trkpt lat="45.8232574" lon="14.0762384"><ele>907.4</ele><time>2026-04-26T12:20:19.442Z</time></trkpt><trkpt lat="45.8231522" lon="14.0762748"><ele>911.8</ele><time>2026-04-26T12:20:20.442Z</time></trkpt><trkpt lat="45.8230486" lon="14.0763327"><ele>916.2</ele><time>2026-04-26T12:20:21.442Z</time></trkpt><trkpt lat="45.8229486" lon="14.0764078"><ele>920.6</ele><time>2026-04-26T12:20:22.442Z</time></trkpt><trkpt lat="45.8228574" lon="14.0764689"><ele>925.0</ele><time>2026-04-26T12:20:23.442Z</time></trkpt><trkpt lat="45.8227783" lon="14.0765177"><ele>924.9999999999999</ele><time>2026-04-26T12:20:24.442Z</time></trkpt><trkpt lat="45.8227068" lon="14.0765399"><ele>925.0</ele><time>2026-04-26T12:20:25.442Z</time></trkpt><trkpt lat="45.822625" lon="14.0765408"><ele>925.0</ele><time>2026-04-26T12:20:26.442Z</time></trkpt><trkpt lat="45.8225484" lon="14.0765102"><ele>925.0</ele><time>2026-04-26T12:20:27.443Z</time></trkpt><trkpt lat="45.8224763" lon="14.0764621"><ele>924.9999999999999</ele><time>2026-04-26T12:20:28.442Z</time></trkpt><trkpt lat="45.8223541" lon="14.0764406"><ele>925.0</ele><time>2026-04-26T12:20:30.442Z</time></trkpt><trkpt lat="45.8222163" lon="14.0764889"><ele>927.5</ele><time>2026-04-26T12:20:32.442Z</time></trkpt><trkpt lat="45.8221285" lon="14.0765052"><ele>930.0</ele><time>2026-04-26T12:20:33.442Z</time></trkpt><trkpt lat="45.8220113" lon="14.0765244"><ele>932.5</ele><time>2026-04-26T12:20:34.442Z</time></trkpt><trkpt lat="45.8218874" lon="14.0765403"><ele>935.0</ele><time>2026-04-26T12:20:35.442Z</time></trkpt><trkpt lat="45.8217687" lon="14.0765585"><ele>937.0</ele><time>2026-04-26T12:20:36.442Z</time></trkpt><trkpt lat="45.8216436" lon="14.0765961"><ele>939.0</ele><time>2026-04-26T12:20:37.442Z</time></trkpt><trkpt lat="45.8215224" lon="14.0766419"><ele>941.0</ele><time>2026-04-26T12:20:38.442Z</time></trkpt><trkpt lat="45.8214149" lon="14.0766892"><ele>943.0</ele><time>2026-04-26T12:20:39.442Z</time></trkpt><trkpt lat="45.8213131" lon="14.0767374"><ele>939.25</ele><time>2026-04-26T12:20:40.442Z</time></trkpt><trkpt lat="45.8212062" lon="14.076784"><ele>935.5</ele><time>2026-04-26T12:20:41.442Z</time></trkpt><trkpt lat="45.8210735" lon="14.0768186"><ele>931.75</ele><time>2026-04-26T12:20:42.443Z</time></trkpt><trkpt lat="45.8209155" lon="14.0768405"><ele>928.0</ele><time>2026-04-26T12:20:43.442Z</time></trkpt><trkpt lat="45.8207675" lon="14.0768515"><ele>928.0</ele><time>2026-04-26T12:20:44.442Z</time></trkpt><trkpt lat="45.8206165" lon="14.0768485"><ele>928.0</ele><time>2026-04-26T12:20:45.442Z</time></trkpt><trkpt lat="45.8204691" lon="14.0768527"><ele>928.0</ele><time>2026-04-26T12:20:46.442Z</time></trkpt><trkpt lat="45.8203177" lon="14.0768565"><ele>928.0</ele><time>2026-04-26T12:20:47.442Z</time></trkpt><trkpt lat="45.8201645" lon="14.0768721"><ele>928.0</ele><time>2026-04-26T12:20:48.442Z</time></trkpt><trkpt lat="45.8200065" lon="14.0769048"><ele>928.0</ele><time>2026-04-26T12:20:49.442Z</time></trkpt><trkpt lat="45.8198499" lon="14.0769411"><ele>928.2</ele><time>2026-04-26T12:20:50.442Z</time></trkpt><trkpt lat="45.8197129" lon="14.0769741"><ele>928.4</ele><time>2026-04-26T12:20:51.443Z</time></trkpt><trkpt lat="45.8195926" lon="14.0770019"><ele>928.6000000000001</ele><time>2026-04-26T12:20:52.443Z</time></trkpt><trkpt lat="45.8194942" lon="14.0770231"><ele>928.8000000000001</ele><time>2026-04-26T12:20:53.442Z</time></trkpt><trkpt lat="45.8194149" lon="14.0770519"><ele>929.0</ele><time>2026-04-26T12:20:54.442Z</time></trkpt><trkpt lat="45.8193269" lon="14.0771088"><ele>932.0</ele><time>2026-04-26T12:20:55.442Z</time></trkpt><trkpt lat="45.8192411" lon="14.0771735"><ele>935.0</ele><time>2026-04-26T12:20:56.442Z</time></trkpt><trkpt lat="45.8191349" lon="14.0772436"><ele>938.0</ele><time>2026-04-26T12:20:57.442Z</time></trkpt><trkpt lat="45.8190248" lon="14.0773221"><ele>941.0</ele><time>2026-04-26T12:20:58.442Z</time></trkpt><trkpt lat="45.8189241" lon="14.0774126"><ele>935.25</ele><time>2026-04-26T12:20:59.443Z</time></trkpt><trkpt lat="45.8188361" lon="14.077503"><ele>929.5</ele><time>2026-04-26T12:21:00.442Z</time></trkpt><trkpt lat="45.8187521" lon="14.0775863"><ele>923.75</ele><time>2026-04-26T12:21:01.442Z</time></trkpt><trkpt lat="45.8186365" lon="14.077665"><ele>918.0</ele><time>2026-04-26T12:21:02.442Z</time></trkpt><trkpt lat="45.8184973" lon="14.0777509"><ele>923.6666666666667</ele><time>2026-04-26T12:21:03.442Z</time></trkpt><trkpt lat="45.8183338" lon="14.0778542"><ele>929.3333333333334</ele><time>2026-04-26T12:21:04.443Z</time></trkpt><trkpt lat="45.8181713" lon="14.0779477"><ele>935.0</ele><time>2026-04-26T12:21:05.442Z</time></trkpt><trkpt lat="45.8180067" lon="14.0780474"><ele>935.0</ele><time>2026-04-26T12:21:06.442Z</time></trkpt><trkpt lat="45.8178538" lon="14.0781323"><ele>935.0</ele><time>2026-04-26T12:21:07.442Z</time></trkpt><trkpt lat="45.8177192" lon="14.0782072"><ele>935.0</ele><time>2026-04-26T12:21:08.442Z</time></trkpt><trkpt lat="45.8175959" lon="14.0782874"><ele>935.0</ele><time>2026-04-26T12:21:09.442Z</time></trkpt><trkpt lat="45.8174691" lon="14.0783715"><ele>928.25</ele><time>2026-04-26T12:21:10.442Z</time></trkpt><trkpt lat="45.8173509" lon="14.0784679"><ele>921.5</ele><time>2026-04-26T12:21:11.442Z</time></trkpt><trkpt lat="45.817234" lon="14.0785604"><ele>914.75</ele><time>2026-04-26T12:21:12.442Z</time></trkpt><trkpt lat="45.8171249" lon="14.0786533"><ele>908.0</ele><time>2026-04-26T12:21:13.442Z</time></trkpt><trkpt lat="45.8170161" lon="14.0787479"><ele>908.0</ele><time>2026-04-26T12:21:14.442Z</time></trkpt><trkpt lat="45.8169199" lon="14.0788288"><ele>908.0</ele><time>2026-04-26T12:21:15.442Z</time></trkpt><trkpt lat="45.8168322" lon="14.0788981"><ele>908.0</ele><time>2026-04-26T12:21:16.442Z</time></trkpt><trkpt lat="45.8167386" lon="14.0789651"><ele>908.0</ele><time>2026-04-26T12:21:17.442Z</time></trkpt><trkpt lat="45.8166446" lon="14.0790145"><ele>908.0</ele><time>2026-04-26T12:21:18.442Z</time></trkpt><trkpt lat="45.816534" lon="14.0790553"><ele>904.75</ele><time>2026-04-26T12:21:19.442Z</time></trkpt><trkpt lat="45.8164099" lon="14.0791001"><ele>901.5</ele><time>2026-04-26T12:21:20.442Z</time></trkpt><trkpt lat="45.8162826" lon="14.0791491"><ele>898.25</ele><time>2026-04-26T12:21:21.442Z</time></trkpt><trkpt lat="45.816149" lon="14.0792154"><ele>895.0</ele><time>2026-04-26T12:21:22.442Z</time></trkpt><trkpt lat="45.8160209" lon="14.0792923"><ele>898.0</ele><time>2026-04-26T12:21:23.442Z</time></trkpt><trkpt lat="45.8158901" lon="14.0793895"><ele>901.0</ele><time>2026-04-26T12:21:24.442Z</time></trkpt><trkpt lat="45.8157724" lon="14.0794758"><ele>904.0</ele><time>2026-04-26T12:21:25.442Z</time></trkpt><trkpt lat="45.8156686" lon="14.0795366"><ele>907.0</ele><time>2026-04-26T12:21:26.442Z</time></trkpt><trkpt lat="45.8155772" lon="14.0795859"><ele>907.0</ele><time>2026-04-26T12:21:27.442Z</time></trkpt><trkpt lat="45.8154773" lon="14.0796368"><ele>907.0</ele><time>2026-04-26T12:21:28.442Z</time></trkpt><trkpt lat="45.8153715" lon="14.0797013"><ele>907.0</ele><time>2026-04-26T12:21:29.443Z</time></trkpt><trkpt lat="45.8152584" lon="14.0798008"><ele>907.0</ele><time>2026-04-26T12:21:30.442Z</time></trkpt><trkpt lat="45.8151411" lon="14.0799023"><ele>904.4000000000001</ele><time>2026-04-26T12:21:31.442Z</time></trkpt><trkpt lat="45.8150412" lon="14.0799971"><ele>901.8000000000001</ele><time>2026-04-26T12:21:32.443Z</time></trkpt><trkpt lat="45.8149574" lon="14.0801012"><ele>899.2</ele><time>2026-04-26T12:21:33.442Z</time></trkpt><trkpt lat="45.8148792" lon="14.0801874"><ele>896.6</ele><time>2026-04-26T12:21:34.442Z</time></trkpt><trkpt lat="45.8148012" lon="14.0802672"><ele>894.0</ele><time>2026-04-26T12:21:35.442Z</time></trkpt><trkpt lat="45.8147184" lon="14.0803208"><ele>894.0</ele><time>2026-04-26T12:21:36.442Z</time></trkpt><trkpt lat="45.814637" lon="14.080351"><ele>894.0000000000001</ele><time>2026-04-26T12:21:37.442Z</time></trkpt><trkpt lat="45.8145524" lon="14.0803873"><ele>894.0000000000001</ele><time>2026-04-26T12:21:38.442Z</time></trkpt><trkpt lat="45.814462" lon="14.0804466"><ele>894.0</ele><time>2026-04-26T12:21:39.442Z</time></trkpt><trkpt lat="45.8143626" lon="14.0805355"><ele>894.0</ele><time>2026-04-26T12:21:40.442Z</time></trkpt><trkpt lat="45.8142612" lon="14.080636"><ele>893.25</ele><time>2026-04-26T12:21:41.442Z</time></trkpt><trkpt lat="45.8141617" lon="14.0807283"><ele>892.5</ele><time>2026-04-26T12:21:42.442Z</time></trkpt><trkpt lat="45.8140651" lon="14.0808269"><ele>891.75</ele><time>2026-04-26T12:21:43.442Z</time></trkpt><trkpt lat="45.8139758" lon="14.0809244"><ele>891.0</ele><time>2026-04-26T12:21:44.442Z</time></trkpt><trkpt lat="45.8139027" lon="14.081028"><ele>891.0</ele><time>2026-04-26T12:21:45.442Z</time></trkpt><trkpt lat="45.8138376" lon="14.0811374"><ele>890.9999999999999</ele><time>2026-04-26T12:21:46.442Z</time></trkpt><trkpt lat="45.8137862" lon="14.0812553"><ele>890.9999999999999</ele><time>2026-04-26T12:21:47.442Z</time></trkpt><trkpt lat="45.813762" lon="14.0813801"><ele>891.0</ele><time>2026-04-26T12:21:48.442Z</time></trkpt><trkpt lat="45.8137551" lon="14.0815154"><ele>891.0</ele><time>2026-04-26T12:21:49.442Z</time></trkpt><trkpt lat="45.8137702" lon="14.0816755"><ele>888.5999999999999</ele><time>2026-04-26T12:21:50.442Z</time></trkpt><trkpt lat="45.8137769" lon="14.0818371"><ele>886.1999999999999</ele><time>2026-04-26T12:21:51.442Z</time></trkpt><trkpt lat="45.813769" lon="14.0819935"><ele>883.8000000000001</ele><time>2026-04-26T12:21:52.442Z</time></trkpt><trkpt lat="45.8137659" lon="14.0821427"><ele>881.4000000000001</ele><time>2026-04-26T12:21:53.442Z</time></trkpt><trkpt lat="45.8137572" lon="14.0822712"><ele>879.0</ele><time>2026-04-26T12:21:54.442Z</time></trkpt><trkpt lat="45.8137472" lon="14.082392"><ele>878.3333333333334</ele><time>2026-04-26T12:21:55.442Z</time></trkpt><trkpt lat="45.813726" lon="14.0825028"><ele>877.6666666666667</ele><time>2026-04-26T12:21:56.442Z</time></trkpt><trkpt lat="45.8136893" lon="14.0825944"><ele>877.0</ele><time>2026-04-26T12:21:57.442Z</time></trkpt><trkpt lat="45.8136392" lon="14.0826526"><ele>876.3333333333334</ele><time>2026-04-26T12:21:58.442Z</time></trkpt><trkpt lat="45.8135752" lon="14.0827083"><ele>875.6666666666667</ele><time>2026-04-26T12:21:59.442Z</time></trkpt><trkpt lat="45.8134939" lon="14.0827489"><ele>875.0</ele><time>2026-04-26T12:22:00.442Z</time></trkpt><trkpt lat="45.813414" lon="14.0828076"><ele>875.0</ele><time>2026-04-26T12:22:01.442Z</time></trkpt><trkpt lat="45.8133303" lon="14.0828588"><ele>875.0</ele><time>2026-04-26T12:22:02.442Z</time></trkpt><trkpt lat="45.8132537" lon="14.0828915"><ele>875.0</ele><time>2026-04-26T12:22:03.442Z</time></trkpt><trkpt lat="45.8131866" lon="14.0828966"><ele>875.0</ele><time>2026-04-26T12:22:04.442Z</time></trkpt><trkpt lat="45.8130792" lon="14.0828094"><ele>875.0</ele><time>2026-04-26T12:22:06.442Z</time></trkpt><trkpt lat="45.8130082" lon="14.0827287"><ele>875.0000000000001</ele><time>2026-04-26T12:22:07.442Z</time></trkpt><trkpt lat="45.812941" lon="14.082644"><ele>875.0</ele><time>2026-04-26T12:22:08.442Z</time></trkpt><trkpt lat="45.8129048" lon="14.0825416"><ele>875.0</ele><time>2026-04-26T12:22:09.442Z</time></trkpt><trkpt lat="45.8128737" lon="14.0824397"><ele>875.0</ele><time>2026-04-26T12:22:10.442Z</time></trkpt><trkpt lat="45.8128379" lon="14.0823337"><ele>875.0000000000001</ele><time>2026-04-26T12:22:11.442Z</time></trkpt><trkpt lat="45.8127937" lon="14.0822415"><ele>875.0</ele><time>2026-04-26T12:22:12.442Z</time></trkpt><trkpt lat="45.8127361" lon="14.0821735"><ele>876.6</ele><time>2026-04-26T12:22:13.442Z</time></trkpt><trkpt lat="45.8126662" lon="14.0821253"><ele>878.2</ele><time>2026-04-26T12:22:14.442Z</time></trkpt><trkpt lat="45.812585" lon="14.0821004"><ele>879.8</ele><time>2026-04-26T12:22:15.442Z</time></trkpt><trkpt lat="45.8124883" lon="14.0821147"><ele>881.4</ele><time>2026-04-26T12:22:16.442Z</time></trkpt><trkpt lat="45.8123892" lon="14.0821468"><ele>883.0</ele><time>2026-04-26T12:22:17.442Z</time></trkpt><trkpt lat="45.8123005" lon="14.0822002"><ele>883.0</ele><time>2026-04-26T12:22:18.443Z</time></trkpt><trkpt lat="45.8122003" lon="14.0822836"><ele>883.0</ele><time>2026-04-26T12:22:19.442Z</time></trkpt><trkpt lat="45.8121196" lon="14.0823489"><ele>883.0</ele><time>2026-04-26T12:22:20.442Z</time></trkpt><trkpt lat="45.8120399" lon="14.0824152"><ele>883.0</ele><time>2026-04-26T12:22:21.442Z</time></trkpt><trkpt lat="45.8119541" lon="14.0824653"><ele>883.0</ele><time>2026-04-26T12:22:22.442Z</time></trkpt><trkpt lat="45.8118772" lon="14.0824862"><ele>878.0</ele><time>2026-04-26T12:22:23.442Z</time></trkpt><trkpt lat="45.8117918" lon="14.0824959"><ele>873.0</ele><time>2026-04-26T12:22:24.442Z</time></trkpt><trkpt lat="45.811673" lon="14.082491"><ele>868.0</ele><time>2026-04-26T12:22:25.442Z</time></trkpt><trkpt lat="45.8115264" lon="14.0824953"><ele>863.0</ele><time>2026-04-26T12:22:26.442Z</time></trkpt><trkpt lat="45.8113661" lon="14.0825084"><ele>863.0</ele><time>2026-04-26T12:22:27.442Z</time></trkpt><trkpt lat="45.8111851" lon="14.0825231"><ele>863.0</ele><time>2026-04-26T12:22:28.442Z</time></trkpt><trkpt lat="45.8110178" lon="14.0825142"><ele>863.0</ele><time>2026-04-26T12:22:29.443Z</time></trkpt><trkpt lat="45.8108638" lon="14.0825018"><ele>862.8</ele><time>2026-04-26T12:22:30.442Z</time></trkpt><trkpt lat="45.8107296" lon="14.0824876"><ele>862.5999999999999</ele><time>2026-04-26T12:22:31.443Z</time></trkpt><trkpt lat="45.810618" lon="14.0824672"><ele>862.4000000000001</ele><time>2026-04-26T12:22:32.442Z</time></trkpt><trkpt lat="45.8105337" lon="14.0824783"><ele>862.2</ele><time>2026-04-26T12:22:33.442Z</time></trkpt><trkpt lat="45.8104497" lon="14.0825184"><ele>862.0</ele><time>2026-04-26T12:22:34.442Z</time></trkpt><trkpt lat="45.8103738" lon="14.0825969"><ele>862.0</ele><time>2026-04-26T12:22:35.442Z</time></trkpt><trkpt lat="45.8103035" lon="14.0826863"><ele>862.0</ele><time>2026-04-26T12:22:36.442Z</time></trkpt><trkpt lat="45.8102186" lon="14.0827891"><ele>862.0</ele><time>2026-04-26T12:22:37.442Z</time></trkpt><trkpt lat="45.8101241" lon="14.0829167"><ele>862.0</ele><time>2026-04-26T12:22:38.442Z</time></trkpt><trkpt lat="45.8100174" lon="14.0830455"><ele>862.0</ele><time>2026-04-26T12:22:39.442Z</time></trkpt><trkpt lat="45.8099258" lon="14.0831492"><ele>862.0</ele><time>2026-04-26T12:22:40.442Z</time></trkpt><trkpt lat="45.8098422" lon="14.0832403"><ele>862.0</ele><time>2026-04-26T12:22:41.442Z</time></trkpt><trkpt lat="45.8097689" lon="14.0833134"><ele>862.0</ele><time>2026-04-26T12:22:42.442Z</time></trkpt><trkpt lat="45.8096869" lon="14.0833793"><ele>862.0</ele><time>2026-04-26T12:22:43.442Z</time></trkpt><trkpt lat="45.8095862" lon="14.083434"><ele>862.0</ele><time>2026-04-26T12:22:44.442Z</time></trkpt><trkpt lat="45.8094776" lon="14.0835031"><ele>862.0</ele><time>2026-04-26T12:22:45.442Z</time></trkpt><trkpt lat="45.8093574" lon="14.0835613"><ele>862.0</ele><time>2026-04-26T12:22:46.442Z</time></trkpt><trkpt lat="45.809241" lon="14.0836143"><ele>862.0</ele><time>2026-04-26T12:22:47.442Z</time></trkpt><trkpt lat="45.8091368" lon="14.0836647"><ele>862.6</ele><time>2026-04-26T12:22:48.442Z</time></trkpt><trkpt lat="45.8090479" lon="14.0837068"><ele>863.2</ele><time>2026-04-26T12:22:49.442Z</time></trkpt><trkpt lat="45.8089618" lon="14.0837571"><ele>863.8</ele><time>2026-04-26T12:22:50.442Z</time></trkpt><trkpt lat="45.8088847" lon="14.0838221"><ele>864.4</ele><time>2026-04-26T12:22:51.443Z</time></trkpt><trkpt lat="45.8088217" lon="14.0839051"><ele>865.0</ele><time>2026-04-26T12:22:52.442Z</time></trkpt><trkpt lat="45.808762" lon="14.0840141"><ele>863.25</ele><time>2026-04-26T12:22:53.442Z</time></trkpt><trkpt lat="45.8087025" lon="14.0841489"><ele>861.5</ele><time>2026-04-26T12:22:54.442Z</time></trkpt><trkpt lat="45.8086348" lon="14.0843035"><ele>859.75</ele><time>2026-04-26T12:22:55.442Z</time></trkpt><trkpt lat="45.8085483" lon="14.0844894"><ele>858.0</ele><time>2026-04-26T12:22:56.443Z</time></trkpt><trkpt lat="45.8084597" lon="14.0846821"><ele>857.75</ele><time>2026-04-26T12:22:57.442Z</time></trkpt><trkpt lat="45.8083677" lon="14.0848659"><ele>857.5</ele><time>2026-04-26T12:22:58.442Z</time></trkpt><trkpt lat="45.8082788" lon="14.085017"><ele>857.25</ele><time>2026-04-26T12:22:59.442Z</time></trkpt><trkpt lat="45.8082013" lon="14.0851604"><ele>857.0</ele><time>2026-04-26T12:23:00.442Z</time></trkpt><trkpt lat="45.8081479" lon="14.0852934"><ele>854.8</ele><time>2026-04-26T12:23:01.442Z</time></trkpt><trkpt lat="45.8080966" lon="14.0854222"><ele>852.6</ele><time>2026-04-26T12:23:02.442Z</time></trkpt><trkpt lat="45.8080428" lon="14.0855476"><ele>850.4</ele><time>2026-04-26T12:23:03.442Z</time></trkpt><trkpt lat="45.8079759" lon="14.085676"><ele>848.1999999999999</ele><time>2026-04-26T12:23:04.442Z</time></trkpt><trkpt lat="45.8078974" lon="14.0858024"><ele>846.0</ele><time>2026-04-26T12:23:05.442Z</time></trkpt><trkpt lat="45.8078143" lon="14.0859299"><ele>845.3333333333334</ele><time>2026-04-26T12:23:06.442Z</time></trkpt><trkpt lat="45.8077323" lon="14.0860426"><ele>844.6666666666667</ele><time>2026-04-26T12:23:07.442Z</time></trkpt><trkpt lat="45.8076602" lon="14.0861471"><ele>844.0</ele><time>2026-04-26T12:23:08.442Z</time></trkpt><trkpt lat="45.8075989" lon="14.0862274"><ele>843.3333333333334</ele><time>2026-04-26T12:23:09.442Z</time></trkpt><trkpt lat="45.8075404" lon="14.0862881"><ele>842.6666666666667</ele><time>2026-04-26T12:23:10.442Z</time></trkpt><trkpt lat="45.8074683" lon="14.0863088"><ele>842.0</ele><time>2026-04-26T12:23:11.442Z</time></trkpt><trkpt lat="45.8073739" lon="14.0863172"><ele>842.0</ele><time>2026-04-26T12:23:12.442Z</time></trkpt><trkpt lat="45.8072626" lon="14.0863152"><ele>842.0</ele><time>2026-04-26T12:23:13.442Z</time></trkpt><trkpt lat="45.8071465" lon="14.086316"><ele>842.0</ele><time>2026-04-26T12:23:14.442Z</time></trkpt><trkpt lat="45.8070385" lon="14.0863221"><ele>842.0</ele><time>2026-04-26T12:23:15.442Z</time></trkpt><trkpt lat="45.8069391" lon="14.0863278"><ele>842.0</ele><time>2026-04-26T12:23:16.442Z</time></trkpt><trkpt lat="45.8068594" lon="14.0863673"><ele>843.0</ele><time>2026-04-26T12:23:17.442Z</time></trkpt><trkpt lat="45.8067782" lon="14.0864332"><ele>844.0</ele><time>2026-04-26T12:23:18.442Z</time></trkpt><trkpt lat="45.8066997" lon="14.0865101"><ele>845.0</ele><time>2026-04-26T12:23:19.442Z</time></trkpt><trkpt lat="45.8066224" lon="14.086611"><ele>846.0</ele><time>2026-04-26T12:23:20.442Z</time></trkpt><trkpt lat="45.8065447" lon="14.0867392"><ele>847.0</ele><time>2026-04-26T12:23:21.442Z</time></trkpt><trkpt lat="45.8064666" lon="14.086895"><ele>841.5</ele><time>2026-04-26T12:23:22.442Z</time></trkpt><trkpt lat="45.8063864" lon="14.0870843"><ele>836.0</ele><time>2026-04-26T12:23:23.442Z</time></trkpt><trkpt lat="45.8063078" lon="14.0872601"><ele>830.5</ele><time>2026-04-26T12:23:24.442Z</time></trkpt><trkpt lat="45.8062373" lon="14.087433"><ele>825.0</ele><time>2026-04-26T12:23:25.442Z</time></trkpt><trkpt lat="45.8061758" lon="14.0875671"><ele>827.4</ele><time>2026-04-26T12:23:26.442Z</time></trkpt><trkpt lat="45.8061119" lon="14.087689"><ele>829.8</ele><time>2026-04-26T12:23:27.442Z</time></trkpt><trkpt lat="45.806053" lon="14.0877978"><ele>832.2</ele><time>2026-04-26T12:23:28.442Z</time></trkpt><trkpt lat="45.8060037" lon="14.0879159"><ele>834.6</ele><time>2026-04-26T12:23:29.442Z</time></trkpt><trkpt lat="45.8059634" lon="14.0880392"><ele>837.0</ele><time>2026-04-26T12:23:30.442Z</time></trkpt><trkpt lat="45.8059231" lon="14.0881832"><ele>832.75</ele><time>2026-04-26T12:23:31.442Z</time></trkpt><trkpt lat="45.8058826" lon="14.0883629"><ele>828.5</ele><time>2026-04-26T12:23:32.442Z</time></trkpt><trkpt lat="45.8058579" lon="14.0885329"><ele>824.25</ele><time>2026-04-26T12:23:33.443Z</time></trkpt><trkpt lat="45.8058445" lon="14.0887143"><ele>820.0</ele><time>2026-04-26T12:23:34.442Z</time></trkpt><trkpt lat="45.8058332" lon="14.0888989"><ele>819.9999999999999</ele><time>2026-04-26T12:23:35.442Z</time></trkpt><trkpt lat="45.8058373" lon="14.0890719"><ele>820.0</ele><time>2026-04-26T12:23:36.442Z</time></trkpt><trkpt lat="45.8058418" lon="14.0892211"><ele>820.0</ele><time>2026-04-26T12:23:37.442Z</time></trkpt><trkpt lat="45.8058464" lon="14.0893499"><ele>820.0</ele><time>2026-04-26T12:23:38.442Z</time></trkpt><trkpt lat="45.8058529" lon="14.0894508"><ele>819.9999999999999</ele><time>2026-04-26T12:23:39.442Z</time></trkpt><trkpt lat="45.8058368" lon="14.0895388"><ele>820.0</ele><time>2026-04-26T12:23:40.442Z</time></trkpt><trkpt lat="45.8058105" lon="14.0896293"><ele>817.4</ele><time>2026-04-26T12:23:41.442Z</time></trkpt><trkpt lat="45.8057684" lon="14.0897231"><ele>814.8</ele><time>2026-04-26T12:23:42.442Z</time></trkpt><trkpt lat="45.8057055" lon="14.0898491"><ele>812.2</ele><time>2026-04-26T12:23:43.442Z</time></trkpt><trkpt lat="45.8056181" lon="14.0899844"><ele>809.6</ele><time>2026-04-26T12:23:44.442Z</time></trkpt><trkpt lat="45.805524" lon="14.0901169"><ele>807.0</ele><time>2026-04-26T12:23:45.442Z</time></trkpt><trkpt lat="45.8054424" lon="14.0902481"><ele>803.75</ele><time>2026-04-26T12:23:46.442Z</time></trkpt><trkpt lat="45.8053588" lon="14.090374"><ele>800.5</ele><time>2026-04-26T12:23:47.443Z</time></trkpt><trkpt lat="45.8052814" lon="14.0905088"><ele>797.25</ele><time>2026-04-26T12:23:48.443Z</time></trkpt><trkpt lat="45.8052034" lon="14.0906424"><ele>794.0</ele><time>2026-04-26T12:23:49.442Z</time></trkpt><trkpt lat="45.8051199" lon="14.090765"><ele>793.5</ele><time>2026-04-26T12:23:50.442Z</time></trkpt><trkpt lat="45.8050313" lon="14.0909025"><ele>793.0</ele><time>2026-04-26T12:23:51.442Z</time></trkpt><trkpt lat="45.8049267" lon="14.0910601"><ele>792.5</ele><time>2026-04-26T12:23:52.442Z</time></trkpt><trkpt lat="45.804816" lon="14.0912334"><ele>792.0</ele><time>2026-04-26T12:23:53.442Z</time></trkpt><trkpt lat="45.8047019" lon="14.0914013"><ele>792.0</ele><time>2026-04-26T12:23:54.442Z</time></trkpt><trkpt lat="45.8045914" lon="14.0915719"><ele>792.0</ele><time>2026-04-26T12:23:55.442Z</time></trkpt><trkpt lat="45.8044928" lon="14.091732"><ele>792.0</ele><time>2026-04-26T12:23:56.442Z</time></trkpt><trkpt lat="45.8044181" lon="14.0918688"><ele>792.0</ele><time>2026-04-26T12:23:57.442Z</time></trkpt><trkpt lat="45.8043529" lon="14.0919818"><ele>791.8</ele><time>2026-04-26T12:23:58.442Z</time></trkpt><trkpt lat="45.8043051" lon="14.0920633"><ele>791.6</ele><time>2026-04-26T12:23:59.443Z</time></trkpt><trkpt lat="45.8042282" lon="14.0922009"><ele>791.4</ele><time>2026-04-26T12:24:01.442Z</time></trkpt><trkpt lat="45.8041693" lon="14.0922869"><ele>791.1999999999999</ele><time>2026-04-26T12:24:02.443Z</time></trkpt><trkpt lat="45.8040939" lon="14.0923749"><ele>791.0</ele><time>2026-04-26T12:24:03.442Z</time></trkpt><trkpt lat="45.8040088" lon="14.0924613"><ele>786.8</ele><time>2026-04-26T12:24:04.442Z</time></trkpt><trkpt lat="45.803932" lon="14.0925381"><ele>782.5999999999999</ele><time>2026-04-26T12:24:05.442Z</time></trkpt><trkpt lat="45.8038525" lon="14.0926182"><ele>778.4</ele><time>2026-04-26T12:24:06.442Z</time></trkpt><trkpt lat="45.8037844" lon="14.0927065"><ele>774.2</ele><time>2026-04-26T12:24:07.442Z</time></trkpt><trkpt lat="45.8037199" lon="14.0928255"><ele>770.0</ele><time>2026-04-26T12:24:08.442Z</time></trkpt><trkpt lat="45.803665" lon="14.0929526"><ele>770.0</ele><time>2026-04-26T12:24:09.442Z</time></trkpt><trkpt lat="45.8036165" lon="14.0930799"><ele>770.0</ele><time>2026-04-26T12:24:10.443Z</time></trkpt><trkpt lat="45.8035622" lon="14.0932059"><ele>770.0</ele><time>2026-04-26T12:24:11.442Z</time></trkpt><trkpt lat="45.8035015" lon="14.0933183"><ele>770.0</ele><time>2026-04-26T12:24:12.443Z</time></trkpt><trkpt lat="45.8034307" lon="14.0934202"><ele>770.0</ele><time>2026-04-26T12:24:13.442Z</time></trkpt><trkpt lat="45.8033482" lon="14.0935017"><ele>769.2</ele><time>2026-04-26T12:24:14.442Z</time></trkpt><trkpt lat="45.8032594" lon="14.0935819"><ele>768.4</ele><time>2026-04-26T12:24:15.442Z</time></trkpt><trkpt lat="45.8031661" lon="14.0936404"><ele>767.5999999999999</ele><time>2026-04-26T12:24:16.442Z</time></trkpt><trkpt lat="45.803056" lon="14.0936818"><ele>766.8</ele><time>2026-04-26T12:24:17.442Z</time></trkpt><trkpt lat="45.8029356" lon="14.0937259"><ele>766.0</ele><time>2026-04-26T12:24:18.442Z</time></trkpt><trkpt lat="45.8027927" lon="14.0937661"><ele>767.0</ele><time>2026-04-26T12:24:19.443Z</time></trkpt><trkpt lat="45.8026431" lon="14.0938181"><ele>768.0</ele><time>2026-04-26T12:24:20.442Z</time></trkpt><trkpt lat="45.8025058" lon="14.0938693"><ele>769.0</ele><time>2026-04-26T12:24:21.442Z</time></trkpt><trkpt lat="45.80238" lon="14.0939115"><ele>770.0</ele><time>2026-04-26T12:24:22.442Z</time></trkpt><trkpt lat="45.8022718" lon="14.0939414"><ele>770.0000000000001</ele><time>2026-04-26T12:24:23.442Z</time></trkpt><trkpt lat="45.802183" lon="14.093959"><ele>770.0</ele><time>2026-04-26T12:24:24.442Z</time></trkpt><trkpt lat="45.8021081" lon="14.0939849"><ele>770.0</ele><time>2026-04-26T12:24:25.442Z</time></trkpt><trkpt lat="45.8020347" lon="14.0939907"><ele>770.0</ele><time>2026-04-26T12:24:26.442Z</time></trkpt><trkpt lat="45.8019675" lon="14.0939858"><ele>770.0000000000001</ele><time>2026-04-26T12:24:27.442Z</time></trkpt><trkpt lat="45.8018948" lon="14.0939742"><ele>770.0</ele><time>2026-04-26T12:24:28.442Z</time></trkpt><trkpt lat="45.801822" lon="14.0939763"><ele>770.3333333333334</ele><time>2026-04-26T12:24:29.442Z</time></trkpt><trkpt lat="45.8017577" lon="14.0939959"><ele>770.6666666666667</ele><time>2026-04-26T12:24:30.442Z</time></trkpt><trkpt lat="45.8016954" lon="14.0940199"><ele>771.0</ele><time>2026-04-26T12:24:31.442Z</time></trkpt><trkpt lat="45.8015732" lon="14.0940634"><ele>771.3333333333333</ele><time>2026-04-26T12:24:33.442Z</time></trkpt><trkpt lat="45.8014929" lon="14.0940978"><ele>771.6666666666666</ele><time>2026-04-26T12:24:34.442Z</time></trkpt><trkpt lat="45.8014007" lon="14.0941416"><ele>772.0</ele><time>2026-04-26T12:24:35.442Z</time></trkpt><trkpt lat="45.8013014" lon="14.0941974"><ele>767.4000000000001</ele><time>2026-04-26T12:24:36.442Z</time></trkpt><trkpt lat="45.8012078" lon="14.0942389"><ele>762.8000000000001</ele><time>2026-04-26T12:24:37.442Z</time></trkpt><trkpt lat="45.8011208" lon="14.0942789"><ele>758.2</ele><time>2026-04-26T12:24:38.442Z</time></trkpt><trkpt lat="45.8010435" lon="14.0943336"><ele>753.6</ele><time>2026-04-26T12:24:39.442Z</time></trkpt><trkpt lat="45.8009673" lon="14.0944115"><ele>749.0</ele><time>2026-04-26T12:24:40.442Z</time></trkpt><trkpt lat="45.8008906" lon="14.0945104"><ele>749.0</ele><time>2026-04-26T12:24:41.442Z</time></trkpt><trkpt lat="45.8008281" lon="14.0946275"><ele>749.0</ele><time>2026-04-26T12:24:42.442Z</time></trkpt><trkpt lat="45.8007722" lon="14.0947432"><ele>749.0</ele><time>2026-04-26T12:24:43.442Z</time></trkpt><trkpt lat="45.80071" lon="14.0948508"><ele>749.0</ele><time>2026-04-26T12:24:44.442Z</time></trkpt><trkpt lat="45.8006603" lon="14.0949468"><ele>749.0</ele><time>2026-04-26T12:24:45.442Z</time></trkpt><trkpt lat="45.8005983" lon="14.0950267"><ele>745.8000000000001</ele><time>2026-04-26T12:24:46.442Z</time></trkpt><trkpt lat="45.8005293" lon="14.0950872"><ele>742.6</ele><time>2026-04-26T12:24:47.442Z</time></trkpt><trkpt lat="45.800445" lon="14.0951368"><ele>739.4</ele><time>2026-04-26T12:24:48.442Z</time></trkpt><trkpt lat="45.8003473" lon="14.0951711"><ele>736.2</ele><time>2026-04-26T12:24:49.442Z</time></trkpt><trkpt lat="45.8002565" lon="14.0951978"><ele>733.0</ele><time>2026-04-26T12:24:50.442Z</time></trkpt><trkpt lat="45.8001637" lon="14.0952302"><ele>733.0</ele><time>2026-04-26T12:24:51.442Z</time></trkpt><trkpt lat="45.8000716" lon="14.0952662"><ele>733.0</ele><time>2026-04-26T12:24:52.442Z</time></trkpt><trkpt lat="45.7999856" lon="14.0953016"><ele>733.0</ele><time>2026-04-26T12:24:53.442Z</time></trkpt><trkpt lat="45.7999186" lon="14.0953376"><ele>733.0</ele><time>2026-04-26T12:24:54.442Z</time></trkpt><trkpt lat="45.79985" lon="14.0953825"><ele>733.0</ele><time>2026-04-26T12:24:55.442Z</time></trkpt><trkpt lat="45.7997618" lon="14.0954592"><ele>733.0</ele><time>2026-04-26T12:24:57.443Z</time></trkpt><trkpt lat="45.7997047" lon="14.0955558"><ele>733.0</ele><time>2026-04-26T12:24:59.442Z</time></trkpt><trkpt lat="45.7996857" lon="14.0956809"><ele>733.0</ele><time>2026-04-26T12:25:01.442Z</time></trkpt><trkpt lat="45.7997214" lon="14.095844"><ele>733.0</ele><time>2026-04-26T12:25:03.442Z</time></trkpt><trkpt lat="45.7997584" lon="14.0959568"><ele>733.0</ele><time>2026-04-26T12:25:04.442Z</time></trkpt><trkpt lat="45.7997921" lon="14.0960822"><ele>733.0</ele><time>2026-04-26T12:25:05.443Z</time></trkpt><trkpt lat="45.7998274" lon="14.0961858"><ele>730.6666666666667</ele><time>2026-04-26T12:25:06.442Z</time></trkpt><trkpt lat="45.7998711" lon="14.0962652"><ele>728.3333333333334</ele><time>2026-04-26T12:25:07.442Z</time></trkpt><trkpt lat="45.7999181" lon="14.0963392"><ele>726.0</ele><time>2026-04-26T12:25:08.442Z</time></trkpt><trkpt lat="45.8000158" lon="14.0964527"><ele>723.6666666666666</ele><time>2026-04-26T12:25:10.442Z</time></trkpt><trkpt lat="45.8000861" lon="14.0964781"><ele>721.3333333333333</ele><time>2026-04-26T12:25:11.442Z</time></trkpt><trkpt lat="45.8001786" lon="14.0964839"><ele>719.0</ele><time>2026-04-26T12:25:12.442Z</time></trkpt><trkpt lat="45.8002743" lon="14.0964925"><ele>719.0</ele><time>2026-04-26T12:25:13.442Z</time></trkpt><trkpt lat="45.8003716" lon="14.0965173"><ele>719.0</ele><time>2026-04-26T12:25:14.442Z</time></trkpt><trkpt lat="45.8004539" lon="14.0965338"><ele>719.0</ele><time>2026-04-26T12:25:15.442Z</time></trkpt><trkpt lat="45.8005337" lon="14.0965162"><ele>719.0</ele><time>2026-04-26T12:25:16.442Z</time></trkpt><trkpt lat="45.8006092" lon="14.0964688"><ele>719.0</ele><time>2026-04-26T12:25:17.442Z</time></trkpt><trkpt lat="45.8006854" lon="14.0963994"><ele>719.0</ele><time>2026-04-26T12:25:18.442Z</time></trkpt><trkpt lat="45.8007575" lon="14.0963113"><ele>719.0</ele><time>2026-04-26T12:25:19.442Z</time></trkpt><trkpt lat="45.800808" lon="14.0962203"><ele>719.0</ele><time>2026-04-26T12:25:20.442Z</time></trkpt><trkpt lat="45.8008578" lon="14.096096"><ele>719.0</ele><time>2026-04-26T12:25:21.442Z</time></trkpt><trkpt lat="45.8008899" lon="14.0959452"><ele>719.0</ele><time>2026-04-26T12:25:22.443Z</time></trkpt><trkpt lat="45.8009193" lon="14.095756"><ele>719.0</ele><time>2026-04-26T12:25:23.442Z</time></trkpt><trkpt lat="45.800956" lon="14.0955806"><ele>720.6</ele><time>2026-04-26T12:25:24.443Z</time></trkpt><trkpt lat="45.8010037" lon="14.0954355"><ele>722.2</ele><time>2026-04-26T12:25:25.442Z</time></trkpt><trkpt lat="45.8010467" lon="14.0953044"><ele>723.8000000000001</ele><time>2026-04-26T12:25:26.442Z</time></trkpt><trkpt lat="45.8010835" lon="14.0952078"><ele>725.4000000000001</ele><time>2026-04-26T12:25:27.442Z</time></trkpt><trkpt lat="45.8011226" lon="14.0951329"><ele>727.0</ele><time>2026-04-26T12:25:28.442Z</time></trkpt><trkpt lat="45.8012392" lon="14.0951095"><ele>727.0</ele><time>2026-04-26T12:25:30.442Z</time></trkpt><trkpt lat="45.8013254" lon="14.0951237"><ele>727.0</ele><time>2026-04-26T12:25:31.443Z</time></trkpt><trkpt lat="45.8014346" lon="14.0951676"><ele>727.0</ele><time>2026-04-26T12:25:32.442Z</time></trkpt><trkpt lat="45.8015322" lon="14.0952333"><ele>727.0</ele><time>2026-04-26T12:25:33.442Z</time></trkpt><trkpt lat="45.8016085" lon="14.0953081"><ele>727.0</ele><time>2026-04-26T12:25:34.442Z</time></trkpt><trkpt lat="45.8016901" lon="14.0953445"><ele>727.0</ele><time>2026-04-26T12:25:35.442Z</time></trkpt><trkpt lat="45.801766" lon="14.0953649"><ele>727.0</ele><time>2026-04-26T12:25:36.442Z</time></trkpt><trkpt lat="45.8018636" lon="14.0953658"><ele>727.0</ele><time>2026-04-26T12:25:37.442Z</time></trkpt><trkpt lat="45.801981" lon="14.0953576"><ele>727.0</ele><time>2026-04-26T12:25:38.443Z</time></trkpt><trkpt lat="45.8021146" lon="14.0953693"><ele>727.0</ele><time>2026-04-26T12:25:39.442Z</time></trkpt><trkpt lat="45.8022449" lon="14.0954001"><ele>727.0</ele><time>2026-04-26T12:25:40.442Z</time></trkpt><trkpt lat="45.8023628" lon="14.0954343"><ele>727.0</ele><time>2026-04-26T12:25:41.442Z</time></trkpt><trkpt lat="45.8024724" lon="14.0954517"><ele>727.0</ele><time>2026-04-26T12:25:42.443Z</time></trkpt><trkpt lat="45.8025749" lon="14.0954466"><ele>727.0</ele><time>2026-04-26T12:25:43.442Z</time></trkpt><trkpt lat="45.8026963" lon="14.0954241"><ele>726.25</ele><time>2026-04-26T12:25:44.442Z</time></trkpt><trkpt lat="45.8028451" lon="14.0954091"><ele>725.5</ele><time>2026-04-26T12:25:45.442Z</time></trkpt><trkpt lat="45.8030008" lon="14.0953897"><ele>724.75</ele><time>2026-04-26T12:25:46.442Z</time></trkpt><trkpt lat="45.8031362" lon="14.0953803"><ele>724.0</ele><time>2026-04-26T12:25:47.442Z</time></trkpt><trkpt lat="45.8032533" lon="14.0953921"><ele>724.0</ele><time>2026-04-26T12:25:48.443Z</time></trkpt><trkpt lat="45.8033473" lon="14.0954049"><ele>724.0</ele><time>2026-04-26T12:25:49.442Z</time></trkpt><trkpt lat="45.8034275" lon="14.0954196"><ele>724.0</ele><time>2026-04-26T12:25:50.442Z</time></trkpt><trkpt lat="45.8035091" lon="14.0954303"><ele>724.0</ele><time>2026-04-26T12:25:51.442Z</time></trkpt><trkpt lat="45.8035913" lon="14.0954198"><ele>724.0</ele><time>2026-04-26T12:25:52.442Z</time></trkpt><trkpt lat="45.8036809" lon="14.0954061"><ele>724.0</ele><time>2026-04-26T12:25:53.442Z</time></trkpt><trkpt lat="45.8037747" lon="14.0953733"><ele>722.6</ele><time>2026-04-26T12:25:54.442Z</time></trkpt><trkpt lat="45.8038728" lon="14.0953177"><ele>721.2</ele><time>2026-04-26T12:25:55.442Z</time></trkpt><trkpt lat="45.8039728" lon="14.09526"><ele>719.8000000000001</ele><time>2026-04-26T12:25:56.443Z</time></trkpt><trkpt lat="45.8040755" lon="14.0951893"><ele>718.4000000000001</ele><time>2026-04-26T12:25:57.442Z</time></trkpt><trkpt lat="45.8041761" lon="14.0950992"><ele>717.0</ele><time>2026-04-26T12:25:58.442Z</time></trkpt><trkpt lat="45.80427" lon="14.095013"><ele>715.5</ele><time>2026-04-26T12:25:59.442Z</time></trkpt><trkpt lat="45.8043581" lon="14.0949603"><ele>714.0</ele><time>2026-04-26T12:26:00.442Z</time></trkpt><trkpt lat="45.8044342" lon="14.0949363"><ele>712.5</ele><time>2026-04-26T12:26:01.442Z</time></trkpt><trkpt lat="45.8045099" lon="14.0949287"><ele>711.0</ele><time>2026-04-26T12:26:02.442Z</time></trkpt><trkpt lat="45.8045825" lon="14.0949226"><ele>709.5</ele><time>2026-04-26T12:26:03.442Z</time></trkpt><trkpt lat="45.8046581" lon="14.0948835"><ele>708.0</ele><time>2026-04-26T12:26:04.442Z</time></trkpt><trkpt lat="45.8047219" lon="14.0948078"><ele>711.5999999999999</ele><time>2026-04-26T12:26:05.442Z</time></trkpt><trkpt lat="45.8047834" lon="14.0947137"><ele>715.1999999999999</ele><time>2026-04-26T12:26:06.442Z</time></trkpt><trkpt lat="45.804887" lon="14.0946034"><ele>718.8</ele><time>2026-04-26T12:26:08.442Z</time></trkpt><trkpt lat="45.8049616" lon="14.0946206"><ele>722.4</ele><time>2026-04-26T12:26:09.442Z</time></trkpt><trkpt lat="45.805047" lon="14.0946987"><ele>726.0</ele><time>2026-04-26T12:26:10.442Z</time></trkpt><trkpt lat="45.8051246" lon="14.0948026"><ele>720.5</ele><time>2026-04-26T12:26:11.442Z</time></trkpt><trkpt lat="45.8051948" lon="14.0949392"><ele>715.0</ele><time>2026-04-26T12:26:12.442Z</time></trkpt><trkpt lat="45.8052745" lon="14.0950948"><ele>709.5</ele><time>2026-04-26T12:26:13.442Z</time></trkpt><trkpt lat="45.8053708" lon="14.0952426"><ele>704.0</ele><time>2026-04-26T12:26:14.442Z</time></trkpt><trkpt lat="45.8054593" lon="14.0953711"><ele>704.0</ele><time>2026-04-26T12:26:15.442Z</time></trkpt><trkpt lat="45.8055612" lon="14.0954929"><ele>704.0</ele><time>2026-04-26T12:26:16.442Z</time></trkpt><trkpt lat="45.8056504" lon="14.0956076"><ele>704.0</ele><time>2026-04-26T12:26:17.442Z</time></trkpt><trkpt lat="45.8057267" lon="14.0957156"><ele>704.0</ele><time>2026-04-26T12:26:18.442Z</time></trkpt><trkpt lat="45.8057805" lon="14.0958217"><ele>703.8000000000001</ele><time>2026-04-26T12:26:19.442Z</time></trkpt><trkpt lat="45.8058279" lon="14.0959289"><ele>703.6</ele><time>2026-04-26T12:26:20.442Z</time></trkpt><trkpt lat="45.8058678" lon="14.0960441"><ele>703.4</ele><time>2026-04-26T12:26:21.442Z</time></trkpt><trkpt lat="45.805893" lon="14.0961863"><ele>703.2</ele><time>2026-04-26T12:26:22.443Z</time></trkpt><trkpt lat="45.8059068" lon="14.0963213"><ele>703.0</ele><time>2026-04-26T12:26:23.443Z</time></trkpt><trkpt lat="45.8059225" lon="14.0964548"><ele>703.0</ele><time>2026-04-26T12:26:24.443Z</time></trkpt><trkpt lat="45.8059512" lon="14.0965699"><ele>703.0</ele><time>2026-04-26T12:26:25.442Z</time></trkpt><trkpt lat="45.8059965" lon="14.0966623"><ele>703.0</ele><time>2026-04-26T12:26:26.442Z</time></trkpt><trkpt lat="45.8060604" lon="14.0967568"><ele>703.0</ele><time>2026-04-26T12:26:27.442Z</time></trkpt><trkpt lat="45.8061265" lon="14.0968515"><ele>703.0</ele><time>2026-04-26T12:26:28.443Z</time></trkpt><trkpt lat="45.8061725" lon="14.0969597"><ele>703.0</ele><time>2026-04-26T12:26:29.442Z</time></trkpt><trkpt lat="45.8061849" lon="14.097076"><ele>706.5</ele><time>2026-04-26T12:26:30.442Z</time></trkpt><trkpt lat="45.8061713" lon="14.0972136"><ele>710.0</ele><time>2026-04-26T12:26:31.442Z</time></trkpt><trkpt lat="45.8061329" lon="14.0973688"><ele>713.5</ele><time>2026-04-26T12:26:32.442Z</time></trkpt><trkpt lat="45.806081" lon="14.0975379"><ele>717.0</ele><time>2026-04-26T12:26:33.442Z</time></trkpt><trkpt lat="45.8060499" lon="14.0976954"><ele>717.0</ele><time>2026-04-26T12:26:34.442Z</time></trkpt><trkpt lat="45.8060375" lon="14.0978151"><ele>717.0</ele><time>2026-04-26T12:26:35.442Z</time></trkpt><trkpt lat="45.8060243" lon="14.0979506"><ele>717.0</ele><time>2026-04-26T12:26:36.442Z</time></trkpt><trkpt lat="45.8060275" lon="14.098103"><ele>717.0</ele><time>2026-04-26T12:26:37.442Z</time></trkpt><trkpt lat="45.8060306" lon="14.098244"><ele>717.0</ele><time>2026-04-26T12:26:38.442Z</time></trkpt><trkpt lat="45.8060267" lon="14.0983631"><ele>714.0</ele><time>2026-04-26T12:26:39.442Z</time></trkpt><trkpt lat="45.8059912" lon="14.0984591"><ele>711.0</ele><time>2026-04-26T12:26:40.442Z</time></trkpt><trkpt lat="45.8059425" lon="14.0985412"><ele>708.0</ele><time>2026-04-26T12:26:41.443Z</time></trkpt><trkpt lat="45.8058908" lon="14.098635"><ele>705.0</ele><time>2026-04-26T12:26:42.442Z</time></trkpt><trkpt lat="45.805836" lon="14.0987375"><ele>702.0</ele><time>2026-04-26T12:26:43.442Z</time></trkpt><trkpt lat="45.8057958" lon="14.0988501"><ele>699.0</ele><time>2026-04-26T12:26:44.443Z</time></trkpt><trkpt lat="45.805749" lon="14.0989861"><ele>699.0</ele><time>2026-04-26T12:26:45.442Z</time></trkpt><trkpt lat="45.8057228" lon="14.0991391"><ele>699.0</ele><time>2026-04-26T12:26:46.442Z</time></trkpt><trkpt lat="45.8057087" lon="14.0993101"><ele>699.0</ele><time>2026-04-26T12:26:47.442Z</time></trkpt><trkpt lat="45.805686" lon="14.0994992"><ele>699.0</ele><time>2026-04-26T12:26:48.442Z</time></trkpt><trkpt lat="45.8056358" lon="14.0996899"><ele>699.0</ele><time>2026-04-26T12:26:49.442Z</time></trkpt><trkpt lat="45.8055791" lon="14.0998979"><ele>699.0</ele><time>2026-04-26T12:26:50.442Z</time></trkpt><trkpt lat="45.8055324" lon="14.1000836"><ele>699.0</ele><time>2026-04-26T12:26:51.442Z</time></trkpt><trkpt lat="45.8054773" lon="14.1002533"><ele>699.0</ele><time>2026-04-26T12:26:52.442Z</time></trkpt><trkpt lat="45.8054311" lon="14.1003937"><ele>698.6666666666666</ele><time>2026-04-26T12:26:53.443Z</time></trkpt><trkpt lat="45.8053975" lon="14.1005378"><ele>698.3333333333334</ele><time>2026-04-26T12:26:54.442Z</time></trkpt><trkpt lat="45.805376" lon="14.1006632"><ele>698.0</ele><time>2026-04-26T12:26:55.443Z</time></trkpt><trkpt lat="45.8053652" lon="14.1007811"><ele>697.6666666666667</ele><time>2026-04-26T12:26:56.442Z</time></trkpt><trkpt lat="45.805361" lon="14.1008865"><ele>697.3333333333334</ele><time>2026-04-26T12:26:57.442Z</time></trkpt><trkpt lat="45.8053596" lon="14.1009806"><ele>697.0</ele><time>2026-04-26T12:26:58.443Z</time></trkpt><trkpt lat="45.805353" lon="14.1011345"><ele>696.8333333333334</ele><time>2026-04-26T12:27:00.442Z</time></trkpt><trkpt lat="45.8053524" lon="14.1012864"><ele>696.6666666666667</ele><time>2026-04-26T12:27:02.442Z</time></trkpt><trkpt lat="45.8053514" lon="14.1013801"><ele>696.5</ele><time>2026-04-26T12:27:03.442Z</time></trkpt><trkpt lat="45.8053464" lon="14.1015529"><ele>696.3333333333334</ele><time>2026-04-26T12:27:05.442Z</time></trkpt><trkpt lat="45.8053435" lon="14.1016641"><ele>696.1666666666666</ele><time>2026-04-26T12:27:06.442Z</time></trkpt><trkpt lat="45.8053462" lon="14.1017675"><ele>696.0</ele><time>2026-04-26T12:27:07.442Z</time></trkpt><trkpt lat="45.8053471" lon="14.1018765"><ele>696.5</ele><time>2026-04-26T12:27:08.442Z</time></trkpt><trkpt lat="45.8053553" lon="14.1019833"><ele>697.0</ele><time>2026-04-26T12:27:09.442Z</time></trkpt><trkpt lat="45.8053542" lon="14.1020934"><ele>697.5</ele><time>2026-04-26T12:27:10.442Z</time></trkpt><trkpt lat="45.8053571" lon="14.1022082"><ele>698.0</ele><time>2026-04-26T12:27:11.442Z</time></trkpt><trkpt lat="45.805365" lon="14.1023177"><ele>698.5</ele><time>2026-04-26T12:27:12.442Z</time></trkpt><trkpt lat="45.8053683" lon="14.102433"><ele>699.0</ele><time>2026-04-26T12:27:13.442Z</time></trkpt><trkpt lat="45.8053662" lon="14.1025618"><ele>701.0</ele><time>2026-04-26T12:27:14.442Z</time></trkpt><trkpt lat="45.8053555" lon="14.1027196"><ele>703.0</ele><time>2026-04-26T12:27:15.442Z</time></trkpt><trkpt lat="45.8053329" lon="14.10289"><ele>705.0</ele><time>2026-04-26T12:27:16.443Z</time></trkpt><trkpt lat="45.8053089" lon="14.1030487"><ele>707.0</ele><time>2026-04-26T12:27:17.442Z</time></trkpt><trkpt lat="45.8052842" lon="14.1032015"><ele>708.0</ele><time>2026-04-26T12:27:18.443Z</time></trkpt><trkpt lat="45.8052547" lon="14.103351"><ele>709.0</ele><time>2026-04-26T12:27:19.442Z</time></trkpt><trkpt lat="45.8052138" lon="14.1035166"><ele>710.0</ele><time>2026-04-26T12:27:20.442Z</time></trkpt><trkpt lat="45.8051624" lon="14.1036729"><ele>711.0</ele><time>2026-04-26T12:27:21.442Z</time></trkpt><trkpt lat="45.8051107" lon="14.1038163"><ele>708.1666666666666</ele><time>2026-04-26T12:27:22.442Z</time></trkpt><trkpt lat="45.805068" lon="14.1039611"><ele>705.3333333333334</ele><time>2026-04-26T12:27:23.442Z</time></trkpt><trkpt lat="45.8050385" lon="14.104087"><ele>702.5</ele><time>2026-04-26T12:27:24.442Z</time></trkpt><trkpt lat="45.8050193" lon="14.1041867"><ele>699.6666666666667</ele><time>2026-04-26T12:27:25.442Z</time></trkpt><trkpt lat="45.8050131" lon="14.1043005"><ele>696.8333333333334</ele><time>2026-04-26T12:27:26.442Z</time></trkpt><trkpt lat="45.8050221" lon="14.1043943"><ele>694.0</ele><time>2026-04-26T12:27:27.443Z</time></trkpt><trkpt lat="45.8050486" lon="14.1045061"><ele>692.8333333333334</ele><time>2026-04-26T12:27:28.443Z</time></trkpt><trkpt lat="45.8050839" lon="14.104644"><ele>691.6666666666667</ele><time>2026-04-26T12:27:29.442Z</time></trkpt><trkpt lat="45.8051177" lon="14.1047776"><ele>690.5</ele><time>2026-04-26T12:27:30.442Z</time></trkpt><trkpt lat="45.8051363" lon="14.1048827"><ele>689.3333333333334</ele><time>2026-04-26T12:27:31.442Z</time></trkpt><trkpt lat="45.8051271" lon="14.1049797"><ele>688.1666666666666</ele><time>2026-04-26T12:27:32.442Z</time></trkpt><trkpt lat="45.8050964" lon="14.1050614"><ele>687.0</ele><time>2026-04-26T12:27:33.443Z</time></trkpt><trkpt lat="45.8050417" lon="14.1051211"><ele>686.8333333333334</ele><time>2026-04-26T12:27:34.442Z</time></trkpt><trkpt lat="45.8049779" lon="14.1051722"><ele>686.6666666666666</ele><time>2026-04-26T12:27:35.442Z</time></trkpt><trkpt lat="45.8049054" lon="14.1052371"><ele>686.5</ele><time>2026-04-26T12:27:36.443Z</time></trkpt><trkpt lat="45.8048368" lon="14.1053011"><ele>686.3333333333333</ele><time>2026-04-26T12:27:37.442Z</time></trkpt><trkpt lat="45.8047926" lon="14.1053915"><ele>686.1666666666666</ele><time>2026-04-26T12:27:38.442Z</time></trkpt><trkpt lat="45.8047676" lon="14.1055163"><ele>686.0</ele><time>2026-04-26T12:27:39.443Z</time></trkpt><trkpt lat="45.8047438" lon="14.1056693"><ele>686.4</ele><time>2026-04-26T12:27:40.442Z</time></trkpt><trkpt lat="45.8047256" lon="14.1058316"><ele>686.8</ele><time>2026-04-26T12:27:41.442Z</time></trkpt><trkpt lat="45.8047264" lon="14.1059976"><ele>687.1999999999999</ele><time>2026-04-26T12:27:42.442Z</time></trkpt><trkpt lat="45.8047427" lon="14.1061615"><ele>687.5999999999999</ele><time>2026-04-26T12:27:43.442Z</time></trkpt><trkpt lat="45.8047703" lon="14.1063008"><ele>688.0</ele><time>2026-04-26T12:27:44.442Z</time></trkpt><trkpt lat="45.8047956" lon="14.1064229"><ele>688.0</ele><time>2026-04-26T12:27:45.443Z</time></trkpt><trkpt lat="45.804827" lon="14.1065208"><ele>688.0</ele><time>2026-04-26T12:27:46.442Z</time></trkpt><trkpt lat="45.8048644" lon="14.1066052"><ele>688.0</ele><time>2026-04-26T12:27:47.442Z</time></trkpt><trkpt lat="45.8049066" lon="14.1066731"><ele>688.0</ele><time>2026-04-26T12:27:48.442Z</time></trkpt><trkpt lat="45.8050067" lon="14.106705"><ele>688.0</ele><time>2026-04-26T12:27:50.442Z</time></trkpt><trkpt lat="45.8051307" lon="14.1066355"><ele>688.0</ele><time>2026-04-26T12:27:52.442Z</time></trkpt><trkpt lat="45.8052169" lon="14.1065995"><ele>686.5999999999999</ele><time>2026-04-26T12:27:53.442Z</time></trkpt><trkpt lat="45.805317" lon="14.1065858"><ele>685.1999999999999</ele><time>2026-04-26T12:27:54.442Z</time></trkpt><trkpt lat="45.8054187" lon="14.1065874"><ele>683.8</ele><time>2026-04-26T12:27:55.442Z</time></trkpt><trkpt lat="45.8055166" lon="14.1065923"><ele>682.4</ele><time>2026-04-26T12:27:56.442Z</time></trkpt><trkpt lat="45.805613" lon="14.1066017"><ele>681.0</ele><time>2026-04-26T12:27:57.442Z</time></trkpt><trkpt lat="45.8056937" lon="14.1066085"><ele>681.0</ele><time>2026-04-26T12:27:58.442Z</time></trkpt><trkpt lat="45.8058049" lon="14.1066435"><ele>681.0</ele><time>2026-04-26T12:28:00.442Z</time></trkpt><trkpt lat="45.8058619" lon="14.1067828"><ele>681.0</ele><time>2026-04-26T12:28:02.442Z</time></trkpt><trkpt lat="45.805847" lon="14.1069289"><ele>681.0</ele><time>2026-04-26T12:28:03.442Z</time></trkpt><trkpt lat="45.805826" lon="14.1071076"><ele>681.0</ele><time>2026-04-26T12:28:04.442Z</time></trkpt><trkpt lat="45.8058142" lon="14.1072719"><ele>681.0</ele><time>2026-04-26T12:28:05.443Z</time></trkpt><trkpt lat="45.805813" lon="14.1074476"><ele>681.0</ele><time>2026-04-26T12:28:06.442Z</time></trkpt><trkpt lat="45.8058029" lon="14.1075999"><ele>681.0</ele><time>2026-04-26T12:28:07.442Z</time></trkpt><trkpt lat="45.8057986" lon="14.1077288"><ele>681.0</ele><time>2026-04-26T12:28:08.442Z</time></trkpt><trkpt lat="45.8058069" lon="14.1078284"><ele>679.8</ele><time>2026-04-26T12:28:09.442Z</time></trkpt><trkpt lat="45.8058559" lon="14.1079761"><ele>678.5999999999999</ele><time>2026-04-26T12:28:11.442Z</time></trkpt><trkpt lat="45.8059096" lon="14.1080398"><ele>677.4</ele><time>2026-04-26T12:28:12.442Z</time></trkpt><trkpt lat="45.8059646" lon="14.1080896"><ele>676.2</ele><time>2026-04-26T12:28:13.442Z</time></trkpt><trkpt lat="45.8060831" lon="14.1081235"><ele>675.0</ele><time>2026-04-26T12:28:15.442Z</time></trkpt><trkpt lat="45.8061841" lon="14.1080893"><ele>675.0</ele><time>2026-04-26T12:28:17.442Z</time></trkpt><trkpt lat="45.806245" lon="14.1080384"><ele>675.0</ele><time>2026-04-26T12:28:18.442Z</time></trkpt><trkpt lat="45.8063133" lon="14.1079589"><ele>675.0</ele><time>2026-04-26T12:28:19.442Z</time></trkpt><trkpt lat="45.806368" lon="14.1078941"><ele>675.0</ele><time>2026-04-26T12:28:20.442Z</time></trkpt><trkpt lat="45.8064521" lon="14.107874"><ele>675.0</ele><time>2026-04-26T12:28:22.443Z</time></trkpt><trkpt lat="45.8065453" lon="14.1079679"><ele>675.0</ele><time>2026-04-26T12:28:24.442Z</time></trkpt><trkpt lat="45.8065734" lon="14.1080875"><ele>675.0</ele><time>2026-04-26T12:28:25.442Z</time></trkpt><trkpt lat="45.8065979" lon="14.1082286"><ele>675.0</ele><time>2026-04-26T12:28:26.442Z</time></trkpt><trkpt lat="45.8066333" lon="14.1083386"><ele>675.0</ele><time>2026-04-26T12:28:27.442Z</time></trkpt><trkpt lat="45.80668" lon="14.1084266"><ele>675.0</ele><time>2026-04-26T12:28:28.442Z</time></trkpt><trkpt lat="45.8067346" lon="14.1084943"><ele>675.0</ele><time>2026-04-26T12:28:29.442Z</time></trkpt><trkpt lat="45.8067989" lon="14.1085672"><ele>675.0</ele><time>2026-04-26T12:28:30.442Z</time></trkpt><trkpt lat="45.8068592" lon="14.1086363"><ele>672.8</ele><time>2026-04-26T12:28:31.442Z</time></trkpt><trkpt lat="45.8069064" lon="14.1088138"><ele>670.6</ele><time>2026-04-26T12:28:33.442Z</time></trkpt><trkpt lat="45.8068922" lon="14.1089026"><ele>668.4000000000001</ele><time>2026-04-26T12:28:34.442Z</time></trkpt><trkpt lat="45.80686" lon="14.1090086"><ele>666.2</ele><time>2026-04-26T12:28:35.442Z</time></trkpt><trkpt lat="45.8068107" lon="14.1091471"><ele>664.0</ele><time>2026-04-26T12:28:36.443Z</time></trkpt><trkpt lat="45.8067471" lon="14.1093026"><ele>660.6</ele><time>2026-04-26T12:28:37.442Z</time></trkpt><trkpt lat="45.8066824" lon="14.1094473"><ele>657.2</ele><time>2026-04-26T12:28:38.442Z</time></trkpt><trkpt lat="45.8066301" lon="14.1095835"><ele>653.8000000000001</ele><time>2026-04-26T12:28:39.442Z</time></trkpt><trkpt lat="45.8065926" lon="14.1096972"><ele>650.4000000000001</ele><time>2026-04-26T12:28:40.442Z</time></trkpt><trkpt lat="45.8065624" lon="14.1097884"><ele>647.0</ele><time>2026-04-26T12:28:41.443Z</time></trkpt><trkpt lat="45.8065569" lon="14.1098979"><ele>647.0</ele><time>2026-04-26T12:28:45.442Z</time></trkpt><trkpt lat="45.8066204" lon="14.1099163"><ele>647.0</ele><time>2026-04-26T12:28:47.442Z</time></trkpt><trkpt lat="45.8067251" lon="14.1098202"><ele>647.0</ele><time>2026-04-26T12:28:49.442Z</time></trkpt><trkpt lat="45.8067998" lon="14.1097395"><ele>647.0</ele><time>2026-04-26T12:28:50.442Z</time></trkpt><trkpt lat="45.8068767" lon="14.1096669"><ele>647.0</ele><time>2026-04-26T12:28:51.442Z</time></trkpt><trkpt lat="45.8069461" lon="14.1096016"><ele>647.8333333333333</ele><time>2026-04-26T12:28:52.443Z</time></trkpt><trkpt lat="45.8070177" lon="14.1095631"><ele>648.6666666666666</ele><time>2026-04-26T12:28:53.442Z</time></trkpt><trkpt lat="45.8070855" lon="14.1095559"><ele>649.5</ele><time>2026-04-26T12:28:54.442Z</time></trkpt><trkpt lat="45.8071534" lon="14.1095711"><ele>650.3333333333334</ele><time>2026-04-26T12:28:55.442Z</time></trkpt><trkpt lat="45.8072344" lon="14.1096055"><ele>651.1666666666667</ele><time>2026-04-26T12:28:56.443Z</time></trkpt><trkpt lat="45.8073147" lon="14.1096861"><ele>652.0</ele><time>2026-04-26T12:28:57.442Z</time></trkpt><trkpt lat="45.80739" lon="14.1097889"><ele>652.0</ele><time>2026-04-26T12:28:58.442Z</time></trkpt><trkpt lat="45.8074708" lon="14.1098838"><ele>652.0</ele><time>2026-04-26T12:28:59.442Z</time></trkpt><trkpt lat="45.8075442" lon="14.1099527"><ele>652.0</ele><time>2026-04-26T12:29:00.442Z</time></trkpt><trkpt lat="45.8076153" lon="14.1099937"><ele>652.0</ele><time>2026-04-26T12:29:01.442Z</time></trkpt><trkpt lat="45.8076779" lon="14.1100178"><ele>652.0</ele><time>2026-04-26T12:29:02.442Z</time></trkpt><trkpt lat="45.8077954" lon="14.1099631"><ele>649.8333333333334</ele><time>2026-04-26T12:29:04.442Z</time></trkpt><trkpt lat="45.8078468" lon="14.1098969"><ele>647.6666666666667</ele><time>2026-04-26T12:29:05.442Z</time></trkpt><trkpt lat="45.8079131" lon="14.1097936"><ele>645.5</ele><time>2026-04-26T12:29:06.442Z</time></trkpt><trkpt lat="45.8079689" lon="14.1096954"><ele>643.3333333333334</ele><time>2026-04-26T12:29:07.442Z</time></trkpt><trkpt lat="45.80801" lon="14.1095838"><ele>641.1666666666666</ele><time>2026-04-26T12:29:08.442Z</time></trkpt><trkpt lat="45.8080317" lon="14.109477"><ele>639.0</ele><time>2026-04-26T12:29:09.442Z</time></trkpt><trkpt lat="45.8080424" lon="14.1093676"><ele>639.0</ele><time>2026-04-26T12:29:10.442Z</time></trkpt><trkpt lat="45.808037" lon="14.1092437"><ele>639.0</ele><time>2026-04-26T12:29:11.442Z</time></trkpt><trkpt lat="45.808036" lon="14.1091324"><ele>639.0</ele><time>2026-04-26T12:29:12.442Z</time></trkpt><trkpt lat="45.8080307" lon="14.1090323"><ele>639.0</ele><time>2026-04-26T12:29:13.442Z</time></trkpt><trkpt lat="45.8080775" lon="14.1089063"><ele>639.0</ele><time>2026-04-26T12:29:15.442Z</time></trkpt><trkpt lat="45.8081878" lon="14.1088066"><ele>641.3333333333334</ele><time>2026-04-26T12:29:17.442Z</time></trkpt><trkpt lat="45.8082539" lon="14.1087475"><ele>643.6666666666666</ele><time>2026-04-26T12:29:18.442Z</time></trkpt><trkpt lat="45.8083065" lon="14.1086536"><ele>646.0</ele><time>2026-04-26T12:29:19.442Z</time></trkpt><trkpt lat="45.8083509" lon="14.1085453"><ele>648.3333333333333</ele><time>2026-04-26T12:29:20.442Z</time></trkpt><trkpt lat="45.8083915" lon="14.1084661"><ele>650.6666666666666</ele><time>2026-04-26T12:29:21.442Z</time></trkpt><trkpt lat="45.8084318" lon="14.1083959"><ele>653.0</ele><time>2026-04-26T12:29:22.442Z</time></trkpt><trkpt lat="45.8084923" lon="14.1083471"><ele>650.4</ele><time>2026-04-26T12:29:23.443Z</time></trkpt><trkpt lat="45.80856" lon="14.1083311"><ele>647.8</ele><time>2026-04-26T12:29:24.443Z</time></trkpt><trkpt lat="45.8086762" lon="14.108329"><ele>645.2</ele><time>2026-04-26T12:29:25.442Z</time></trkpt><trkpt lat="45.8087834" lon="14.108325"><ele>642.6</ele><time>2026-04-26T12:29:26.442Z</time></trkpt><trkpt lat="45.8089345" lon="14.1083001"><ele>640.0</ele><time>2026-04-26T12:29:27.442Z</time></trkpt><trkpt lat="45.8090971" lon="14.1082672"><ele>640.25</ele><time>2026-04-26T12:29:28.442Z</time></trkpt><trkpt lat="45.8092381" lon="14.1082297"><ele>640.5</ele><time>2026-04-26T12:29:29.442Z</time></trkpt><trkpt lat="45.809358" lon="14.1081918"><ele>640.75</ele><time>2026-04-26T12:29:30.442Z</time></trkpt><trkpt lat="45.8094764" lon="14.1081621"><ele>641.0</ele><time>2026-04-26T12:29:31.443Z</time></trkpt><trkpt lat="45.8095922" lon="14.1081519"><ele>641.0</ele><time>2026-04-26T12:29:32.442Z</time></trkpt><trkpt lat="45.8096965" lon="14.1081446"><ele>641.0</ele><time>2026-04-26T12:29:33.442Z</time></trkpt><trkpt lat="45.8098073" lon="14.1081527"><ele>641.0</ele><time>2026-04-26T12:29:34.442Z</time></trkpt><trkpt lat="45.8099198" lon="14.1081554"><ele>641.0</ele><time>2026-04-26T12:29:35.443Z</time></trkpt><trkpt lat="45.8100498" lon="14.1081264"><ele>639.0</ele><time>2026-04-26T12:29:36.443Z</time></trkpt><trkpt lat="45.8102096" lon="14.10807"><ele>637.0</ele><time>2026-04-26T12:29:37.442Z</time></trkpt><trkpt lat="45.8103872" lon="14.1080081"><ele>635.0</ele><time>2026-04-26T12:29:38.442Z</time></trkpt><trkpt lat="45.8105675" lon="14.1079532"><ele>635.0</ele><time>2026-04-26T12:29:39.442Z</time></trkpt><trkpt lat="45.8107248" lon="14.1079044"><ele>635.0</ele><time>2026-04-26T12:29:40.443Z</time></trkpt><trkpt lat="45.81086" lon="14.1078611"><ele>635.0</ele><time>2026-04-26T12:29:41.442Z</time></trkpt><trkpt lat="45.8109919" lon="14.107821"><ele>635.0</ele><time>2026-04-26T12:29:42.443Z</time></trkpt><trkpt lat="45.8111143" lon="14.1077976"><ele>634.4</ele><time>2026-04-26T12:29:43.442Z</time></trkpt><trkpt lat="45.8112274" lon="14.107765"><ele>633.8</ele><time>2026-04-26T12:29:44.442Z</time></trkpt><trkpt lat="45.8113304" lon="14.1077249"><ele>633.2</ele><time>2026-04-26T12:29:45.442Z</time></trkpt><trkpt lat="45.811423" lon="14.1076822"><ele>632.6</ele><time>2026-04-26T12:29:46.442Z</time></trkpt><trkpt lat="45.8115091" lon="14.1076464"><ele>632.0</ele><time>2026-04-26T12:29:47.442Z</time></trkpt><trkpt lat="45.8115808" lon="14.107616"><ele>632.0</ele><time>2026-04-26T12:29:48.442Z</time></trkpt><trkpt lat="45.8116555" lon="14.1075668"><ele>632.0</ele><time>2026-04-26T12:29:49.443Z</time></trkpt><trkpt lat="45.8117531" lon="14.1074732"><ele>632.0</ele><time>2026-04-26T12:29:50.442Z</time></trkpt><trkpt lat="45.8118527" lon="14.1073755"><ele>632.0</ele><time>2026-04-26T12:29:51.442Z</time></trkpt><trkpt lat="45.8119492" lon="14.1072974"><ele>632.0</ele><time>2026-04-26T12:29:52.442Z</time></trkpt><trkpt lat="45.8120344" lon="14.1072503"><ele>632.8333333333333</ele><time>2026-04-26T12:29:53.442Z</time></trkpt><trkpt lat="45.812116" lon="14.1072144"><ele>633.6666666666666</ele><time>2026-04-26T12:29:54.442Z</time></trkpt><trkpt lat="45.8122091" lon="14.1071688"><ele>634.5</ele><time>2026-04-26T12:29:55.442Z</time></trkpt><trkpt lat="45.8123031" lon="14.1071189"><ele>635.3333333333334</ele><time>2026-04-26T12:29:56.442Z</time></trkpt><trkpt lat="45.8123754" lon="14.1070788"><ele>636.1666666666667</ele><time>2026-04-26T12:29:57.442Z</time></trkpt><trkpt lat="45.8124502" lon="14.1070593"><ele>637.0</ele><time>2026-04-26T12:29:58.442Z</time></trkpt><trkpt lat="45.8125325" lon="14.1070545"><ele>637.0</ele><time>2026-04-26T12:29:59.442Z</time></trkpt><trkpt lat="45.812618" lon="14.1070573"><ele>637.0</ele><time>2026-04-26T12:30:00.442Z</time></trkpt><trkpt lat="45.8127114" lon="14.1070439"><ele>637.0</ele><time>2026-04-26T12:30:01.442Z</time></trkpt><trkpt lat="45.8128043" lon="14.1070213"><ele>637.0</ele><time>2026-04-26T12:30:02.442Z</time></trkpt><trkpt lat="45.812904" lon="14.1069699"><ele>637.0</ele><time>2026-04-26T12:30:03.442Z</time></trkpt><trkpt lat="45.8130103" lon="14.106908"><ele>635.2</ele><time>2026-04-26T12:30:04.443Z</time></trkpt><trkpt lat="45.8131119" lon="14.1068424"><ele>633.4000000000001</ele><time>2026-04-26T12:30:05.442Z</time></trkpt><trkpt lat="45.8132153" lon="14.1067749"><ele>631.5999999999999</ele><time>2026-04-26T12:30:06.442Z</time></trkpt><trkpt lat="45.8133081" lon="14.1067011"><ele>629.8</ele><time>2026-04-26T12:30:07.442Z</time></trkpt><trkpt lat="45.8133872" lon="14.1066139"><ele>628.0</ele><time>2026-04-26T12:30:08.443Z</time></trkpt><trkpt lat="45.8134604" lon="14.1065264"><ele>626.1999999999999</ele><time>2026-04-26T12:30:09.442Z</time></trkpt><trkpt lat="45.8135342" lon="14.1064456"><ele>624.4</ele><time>2026-04-26T12:30:10.442Z</time></trkpt><trkpt lat="45.8136051" lon="14.1063728"><ele>622.5999999999999</ele><time>2026-04-26T12:30:11.442Z</time></trkpt><trkpt lat="45.8136895" lon="14.10629"><ele>620.8</ele><time>2026-04-26T12:30:12.442Z</time></trkpt><trkpt lat="45.8137758" lon="14.1062202"><ele>619.0</ele><time>2026-04-26T12:30:13.443Z</time></trkpt><trkpt lat="45.813856" lon="14.1061686"><ele>619.0</ele><time>2026-04-26T12:30:14.443Z</time></trkpt><trkpt lat="45.8139359" lon="14.106123"><ele>619.0</ele><time>2026-04-26T12:30:15.442Z</time></trkpt><trkpt lat="45.8140119" lon="14.1060907"><ele>619.0</ele><time>2026-04-26T12:30:16.442Z</time></trkpt><trkpt lat="45.8140842" lon="14.1060651"><ele>619.0</ele><time>2026-04-26T12:30:17.442Z</time></trkpt><trkpt lat="45.8141477" lon="14.10604"><ele>619.0</ele><time>2026-04-26T12:30:18.442Z</time></trkpt><trkpt lat="45.8142334" lon="14.1059912"><ele>619.0</ele><time>2026-04-26T12:30:20.442Z</time></trkpt><trkpt lat="45.8143318" lon="14.1060243"><ele>619.8</ele><time>2026-04-26T12:30:22.442Z</time></trkpt><trkpt lat="45.8143959" lon="14.1060913"><ele>620.5999999999999</ele><time>2026-04-26T12:30:23.441Z</time></trkpt><trkpt lat="45.8144591" lon="14.1061663"><ele>621.4</ele><time>2026-04-26T12:30:24.441Z</time></trkpt><trkpt lat="45.8145407" lon="14.1062482"><ele>622.1999999999999</ele><time>2026-04-26T12:30:25.441Z</time></trkpt><trkpt lat="45.8146113" lon="14.1063525"><ele>623.0</ele><time>2026-04-26T12:30:26.441Z</time></trkpt><trkpt lat="45.8146864" lon="14.1064584"><ele>623.0</ele><time>2026-04-26T12:30:27.441Z</time></trkpt><trkpt lat="45.8147499" lon="14.1065565"><ele>623.0</ele><time>2026-04-26T12:30:28.441Z</time></trkpt><trkpt lat="45.8148055" lon="14.1066668"><ele>623.0</ele><time>2026-04-26T12:30:29.441Z</time></trkpt><trkpt lat="45.8148403" lon="14.106787"><ele>623.0</ele><time>2026-04-26T12:30:30.441Z</time></trkpt><trkpt lat="45.814867" lon="14.1069201"><ele>623.0</ele><time>2026-04-26T12:30:31.441Z</time></trkpt><trkpt lat="45.8148932" lon="14.1070429"><ele>622.0</ele><time>2026-04-26T12:30:32.441Z</time></trkpt><trkpt lat="45.8149098" lon="14.1071569"><ele>621.0</ele><time>2026-04-26T12:30:33.442Z</time></trkpt><trkpt lat="45.814917" lon="14.1072888"><ele>620.0</ele><time>2026-04-26T12:30:34.441Z</time></trkpt><trkpt lat="45.8149198" lon="14.1074575"><ele>619.0</ele><time>2026-04-26T12:30:35.442Z</time></trkpt><trkpt lat="45.8149327" lon="14.1076376"><ele>618.0</ele><time>2026-04-26T12:30:36.441Z</time></trkpt><trkpt lat="45.814949" lon="14.1078164"><ele>616.6</ele><time>2026-04-26T12:30:37.441Z</time></trkpt><trkpt lat="45.8149683" lon="14.1079717"><ele>615.1999999999999</ele><time>2026-04-26T12:30:38.441Z</time></trkpt><trkpt lat="45.8149968" lon="14.1081192"><ele>613.8</ele><time>2026-04-26T12:30:39.441Z</time></trkpt><trkpt lat="45.8150317" lon="14.1082628"><ele>612.4</ele><time>2026-04-26T12:30:40.441Z</time></trkpt><trkpt lat="45.8150646" lon="14.1083964"><ele>611.0</ele><time>2026-04-26T12:30:41.441Z</time></trkpt><trkpt lat="45.8150992" lon="14.1085228"><ele>609.4</ele><time>2026-04-26T12:30:42.441Z</time></trkpt><trkpt lat="45.8151401" lon="14.1086439"><ele>607.8</ele><time>2026-04-26T12:30:43.441Z</time></trkpt><trkpt lat="45.8151946" lon="14.1087746"><ele>606.1999999999999</ele><time>2026-04-26T12:30:44.441Z</time></trkpt><trkpt lat="45.8152615" lon="14.1089052"><ele>604.6</ele><time>2026-04-26T12:30:45.441Z</time></trkpt><trkpt lat="45.8153288" lon="14.109065"><ele>603.0</ele><time>2026-04-26T12:30:46.441Z</time></trkpt><trkpt lat="45.8154068" lon="14.1092534"><ele>608.3333333333334</ele><time>2026-04-26T12:30:47.441Z</time></trkpt><trkpt lat="45.8154873" lon="14.1094491"><ele>613.6666666666667</ele><time>2026-04-26T12:30:48.441Z</time></trkpt><trkpt lat="45.8155702" lon="14.1096532"><ele>619.0</ele><time>2026-04-26T12:30:49.441Z</time></trkpt><trkpt lat="45.8156472" lon="14.1098381"><ele>616.75</ele><time>2026-04-26T12:30:50.441Z</time></trkpt><trkpt lat="45.81571" lon="14.1100178"><ele>614.5</ele><time>2026-04-26T12:30:51.441Z</time></trkpt><trkpt lat="45.8157667" lon="14.1101927"><ele>612.25</ele><time>2026-04-26T12:30:52.441Z</time></trkpt><trkpt lat="45.8158196" lon="14.1103675"><ele>610.0</ele><time>2026-04-26T12:30:53.441Z</time></trkpt><trkpt lat="45.8158594" lon="14.1105542"><ele>610.0</ele><time>2026-04-26T12:30:54.441Z</time></trkpt><trkpt lat="45.8158766" lon="14.1107398"><ele>610.0</ele><time>2026-04-26T12:30:55.442Z</time></trkpt><trkpt lat="45.8158885" lon="14.1109161"><ele>610.0</ele><time>2026-04-26T12:30:56.441Z</time></trkpt><trkpt lat="45.8159155" lon="14.1110642"><ele>610.0</ele><time>2026-04-26T12:30:57.441Z</time></trkpt><trkpt lat="45.8159471" lon="14.1112015"><ele>612.5</ele><time>2026-04-26T12:30:58.441Z</time></trkpt><trkpt lat="45.8160016" lon="14.1113626"><ele>615.0</ele><time>2026-04-26T12:30:59.441Z</time></trkpt><trkpt lat="45.8160773" lon="14.1115504"><ele>617.5</ele><time>2026-04-26T12:31:00.441Z</time></trkpt><trkpt lat="45.8161308" lon="14.1117148"><ele>620.0</ele><time>2026-04-26T12:31:01.441Z</time></trkpt><trkpt lat="45.8161844" lon="14.1118547"><ele>620.0</ele><time>2026-04-26T12:31:02.441Z</time></trkpt><trkpt lat="45.8162374" lon="14.1119827"><ele>620.0</ele><time>2026-04-26T12:31:03.441Z</time></trkpt><trkpt lat="45.8162964" lon="14.1121107"><ele>620.0</ele><time>2026-04-26T12:31:04.441Z</time></trkpt><trkpt lat="45.8163555" lon="14.112236"><ele>620.0</ele><time>2026-04-26T12:31:05.441Z</time></trkpt><trkpt lat="45.8164189" lon="14.1123343"><ele>620.0</ele><time>2026-04-26T12:31:06.441Z</time></trkpt><trkpt lat="45.8164876" lon="14.112394"><ele>620.4</ele><time>2026-04-26T12:31:07.441Z</time></trkpt><trkpt lat="45.816566" lon="14.1124737"><ele>620.8</ele><time>2026-04-26T12:31:08.441Z</time></trkpt><trkpt lat="45.8166654" lon="14.1125522"><ele>621.2</ele><time>2026-04-26T12:31:09.441Z</time></trkpt><trkpt lat="45.8167711" lon="14.1126406"><ele>621.6</ele><time>2026-04-26T12:31:10.441Z</time></trkpt><trkpt lat="45.8168598" lon="14.1127206"><ele>622.0</ele><time>2026-04-26T12:31:11.441Z</time></trkpt><trkpt lat="45.8169447" lon="14.1128128"><ele>622.0</ele><time>2026-04-26T12:31:12.441Z</time></trkpt><trkpt lat="45.8170178" lon="14.1129249"><ele>622.0</ele><time>2026-04-26T12:31:13.442Z</time></trkpt><trkpt lat="45.8170907" lon="14.1130432"><ele>622.0</ele><time>2026-04-26T12:31:14.441Z</time></trkpt><trkpt lat="45.817147" lon="14.1131764"><ele>622.0</ele><time>2026-04-26T12:31:15.441Z</time></trkpt><trkpt lat="45.8171882" lon="14.1133003"><ele>622.0</ele><time>2026-04-26T12:31:16.441Z</time></trkpt><trkpt lat="45.8172359" lon="14.1134083"><ele>622.6</ele><time>2026-04-26T12:31:17.441Z</time></trkpt><trkpt lat="45.8172873" lon="14.1134957"><ele>623.2</ele><time>2026-04-26T12:31:18.442Z</time></trkpt><trkpt lat="45.8173609" lon="14.1135681"><ele>623.8</ele><time>2026-04-26T12:31:19.441Z</time></trkpt><trkpt lat="45.8174499" lon="14.1136243"><ele>624.4</ele><time>2026-04-26T12:31:20.441Z</time></trkpt><trkpt lat="45.8175629" lon="14.1136675"><ele>625.0</ele><time>2026-04-26T12:31:21.441Z</time></trkpt><trkpt lat="45.8176852" lon="14.1137237"><ele>625.0</ele><time>2026-04-26T12:31:22.441Z</time></trkpt><trkpt lat="45.8178088" lon="14.1137984"><ele>625.0</ele><time>2026-04-26T12:31:23.441Z</time></trkpt><trkpt lat="45.8179117" lon="14.1138998"><ele>625.0</ele><time>2026-04-26T12:31:24.442Z</time></trkpt><trkpt lat="45.8180056" lon="14.1140141"><ele>625.0</ele><time>2026-04-26T12:31:25.441Z</time></trkpt><trkpt lat="45.8180866" lon="14.1141003"><ele>625.2</ele><time>2026-04-26T12:31:26.441Z</time></trkpt><trkpt lat="45.8181671" lon="14.114175"><ele>625.4</ele><time>2026-04-26T12:31:27.441Z</time></trkpt><trkpt lat="45.8182527" lon="14.1142422"><ele>625.6</ele><time>2026-04-26T12:31:28.441Z</time></trkpt><trkpt lat="45.8183636" lon="14.1142769"><ele>625.8</ele><time>2026-04-26T12:31:29.441Z</time></trkpt><trkpt lat="45.8184811" lon="14.1142994"><ele>626.0</ele><time>2026-04-26T12:31:30.441Z</time></trkpt><trkpt lat="45.8185687" lon="14.1143377"><ele>626.0</ele><time>2026-04-26T12:31:31.441Z</time></trkpt><trkpt lat="45.8186283" lon="14.1143894"><ele>626.0</ele><time>2026-04-26T12:31:32.441Z</time></trkpt><trkpt lat="45.8186894" lon="14.1144652"><ele>626.0</ele><time>2026-04-26T12:31:33.441Z</time></trkpt><trkpt lat="45.8187415" lon="14.1145825"><ele>626.0</ele><time>2026-04-26T12:31:34.441Z</time></trkpt><trkpt lat="45.8187984" lon="14.1147263"><ele>626.0</ele><time>2026-04-26T12:31:35.441Z</time></trkpt><trkpt lat="45.8188483" lon="14.1149111"><ele>627.0</ele><time>2026-04-26T12:31:36.442Z</time></trkpt><trkpt lat="45.8188992" lon="14.1150781"><ele>628.0</ele><time>2026-04-26T12:31:37.441Z</time></trkpt><trkpt lat="45.8189456" lon="14.1152142"><ele>629.0</ele><time>2026-04-26T12:31:38.441Z</time></trkpt><trkpt lat="45.8189916" lon="14.1153395"><ele>630.0</ele><time>2026-04-26T12:31:39.441Z</time></trkpt><trkpt lat="45.8190472" lon="14.1154338"><ele>631.0</ele><time>2026-04-26T12:31:40.441Z</time></trkpt><trkpt lat="45.8191177" lon="14.1155394"><ele>631.0</ele><time>2026-04-26T12:31:41.441Z</time></trkpt><trkpt lat="45.8192151" lon="14.1156488"><ele>631.0</ele><time>2026-04-26T12:31:42.442Z</time></trkpt><trkpt lat="45.8193245" lon="14.1157642"><ele>631.0</ele><time>2026-04-26T12:31:43.441Z</time></trkpt><trkpt lat="45.8194372" lon="14.1158776"><ele>631.0</ele><time>2026-04-26T12:31:44.441Z</time></trkpt><trkpt lat="45.8195261" lon="14.1159748"><ele>631.3333333333334</ele><time>2026-04-26T12:31:45.441Z</time></trkpt><trkpt lat="45.8196035" lon="14.116035"><ele>631.6666666666667</ele><time>2026-04-26T12:31:46.442Z</time></trkpt><trkpt lat="45.8196782" lon="14.1160788"><ele>632.0</ele><time>2026-04-26T12:31:47.441Z</time></trkpt><trkpt lat="45.8197557" lon="14.1161261"><ele>632.3333333333334</ele><time>2026-04-26T12:31:48.441Z</time></trkpt><trkpt lat="45.8198419" lon="14.116164"><ele>632.6666666666666</ele><time>2026-04-26T12:31:49.441Z</time></trkpt><trkpt lat="45.8199412" lon="14.1162054"><ele>633.0</ele><time>2026-04-26T12:31:50.441Z</time></trkpt><trkpt lat="45.8200463" lon="14.1162491"><ele>633.1999999999999</ele><time>2026-04-26T12:31:51.441Z</time></trkpt><trkpt lat="45.8201537" lon="14.1162986"><ele>633.4</ele><time>2026-04-26T12:31:52.441Z</time></trkpt><trkpt lat="45.8202636" lon="14.1163407"><ele>633.5999999999999</ele><time>2026-04-26T12:31:53.441Z</time></trkpt><trkpt lat="45.8203727" lon="14.1163768"><ele>633.8</ele><time>2026-04-26T12:31:54.441Z</time></trkpt><trkpt lat="45.8204699" lon="14.1164136"><ele>634.0</ele><time>2026-04-26T12:31:55.441Z</time></trkpt><trkpt lat="45.8205552" lon="14.1164743"><ele>634.0</ele><time>2026-04-26T12:31:56.442Z</time></trkpt><trkpt lat="45.8206361" lon="14.1165591"><ele>634.0</ele><time>2026-04-26T12:31:57.441Z</time></trkpt><trkpt lat="45.8207001" lon="14.1166582"><ele>634.0</ele><time>2026-04-26T12:31:58.442Z</time></trkpt><trkpt lat="45.8207488" lon="14.1167791"><ele>634.0</ele><time>2026-04-26T12:31:59.442Z</time></trkpt><trkpt lat="45.8207891" lon="14.1168967"><ele>634.0</ele><time>2026-04-26T12:32:00.441Z</time></trkpt><trkpt lat="45.8208192" lon="14.117046"><ele>632.25</ele><time>2026-04-26T12:32:01.442Z</time></trkpt><trkpt lat="45.8208391" lon="14.1172051"><ele>630.5</ele><time>2026-04-26T12:32:02.441Z</time></trkpt><trkpt lat="45.8208675" lon="14.1173697"><ele>628.75</ele><time>2026-04-26T12:32:03.441Z</time></trkpt><trkpt lat="45.8209073" lon="14.1175171"><ele>627.0</ele><time>2026-04-26T12:32:04.442Z</time></trkpt><trkpt lat="45.820957" lon="14.1176664"><ele>626.75</ele><time>2026-04-26T12:32:05.441Z</time></trkpt><trkpt lat="45.821018" lon="14.1178111"><ele>626.5</ele><time>2026-04-26T12:32:06.441Z</time></trkpt><trkpt lat="45.8210859" lon="14.1179686"><ele>626.25</ele><time>2026-04-26T12:32:07.441Z</time></trkpt><trkpt lat="45.8211531" lon="14.1181433"><ele>626.0</ele><time>2026-04-26T12:32:08.441Z</time></trkpt><trkpt lat="45.821212" lon="14.1183242"><ele>627.25</ele><time>2026-04-26T12:32:09.441Z</time></trkpt><trkpt lat="45.8212635" lon="14.1185071"><ele>628.5</ele><time>2026-04-26T12:32:10.441Z</time></trkpt><trkpt lat="45.8213138" lon="14.118689"><ele>629.75</ele><time>2026-04-26T12:32:11.441Z</time></trkpt><trkpt lat="45.8213648" lon="14.1188874"><ele>631.0</ele><time>2026-04-26T12:32:12.441Z</time></trkpt><trkpt lat="45.8214138" lon="14.1190866"><ele>632.0</ele><time>2026-04-26T12:32:13.441Z</time></trkpt><trkpt lat="45.8214533" lon="14.1192638"><ele>633.0</ele><time>2026-04-26T12:32:14.441Z</time></trkpt><trkpt lat="45.8214924" lon="14.119423"><ele>634.0</ele><time>2026-04-26T12:32:15.441Z</time></trkpt><trkpt lat="45.8215293" lon="14.1195642"><ele>635.0</ele><time>2026-04-26T12:32:16.441Z</time></trkpt><trkpt lat="45.8215708" lon="14.119712"><ele>635.0</ele><time>2026-04-26T12:32:17.442Z</time></trkpt><trkpt lat="45.8216074" lon="14.1198653"><ele>635.0</ele><time>2026-04-26T12:32:18.441Z</time></trkpt><trkpt lat="45.8216401" lon="14.1200346"><ele>635.0</ele><time>2026-04-26T12:32:19.441Z</time></trkpt><trkpt lat="45.8216663" lon="14.1202169"><ele>635.0</ele><time>2026-04-26T12:32:20.442Z</time></trkpt><trkpt lat="45.8216813" lon="14.1204023"><ele>635.0</ele><time>2026-04-26T12:32:21.441Z</time></trkpt><trkpt lat="45.8216859" lon="14.1205921"><ele>635.0</ele><time>2026-04-26T12:32:22.441Z</time></trkpt><trkpt lat="45.8216969" lon="14.1207733"><ele>635.0</ele><time>2026-04-26T12:32:23.441Z</time></trkpt><trkpt lat="45.8217042" lon="14.1209633"><ele>635.0</ele><time>2026-04-26T12:32:24.441Z</time></trkpt><trkpt lat="45.8217237" lon="14.1211582"><ele>634.5</ele><time>2026-04-26T12:32:25.441Z</time></trkpt><trkpt lat="45.821741" lon="14.121378"><ele>634.0</ele><time>2026-04-26T12:32:26.441Z</time></trkpt><trkpt lat="45.8217686" lon="14.1215935"><ele>633.5</ele><time>2026-04-26T12:32:27.441Z</time></trkpt><trkpt lat="45.8218027" lon="14.1217886"><ele>633.0</ele><time>2026-04-26T12:32:28.441Z</time></trkpt><trkpt lat="45.821837" lon="14.1219491"><ele>633.4</ele><time>2026-04-26T12:32:29.441Z</time></trkpt><trkpt lat="45.8218797" lon="14.1220952"><ele>633.8</ele><time>2026-04-26T12:32:30.441Z</time></trkpt><trkpt lat="45.821929" lon="14.122225"><ele>634.2</ele><time>2026-04-26T12:32:31.441Z</time></trkpt><trkpt lat="45.8219818" lon="14.1223503"><ele>634.6</ele><time>2026-04-26T12:32:32.441Z</time></trkpt><trkpt lat="45.8220406" lon="14.1224773"><ele>635.0</ele><time>2026-04-26T12:32:33.441Z</time></trkpt><trkpt lat="45.8221016" lon="14.1225794"><ele>635.0</ele><time>2026-04-26T12:32:34.441Z</time></trkpt><trkpt lat="45.8221581" lon="14.1226717"><ele>635.0</ele><time>2026-04-26T12:32:35.441Z</time></trkpt><trkpt lat="45.8222126" lon="14.122756"><ele>635.0</ele><time>2026-04-26T12:32:36.441Z</time></trkpt><trkpt lat="45.8222608" lon="14.1228294"><ele>635.0</ele><time>2026-04-26T12:32:37.441Z</time></trkpt><trkpt lat="45.8223196" lon="14.1229033"><ele>635.0</ele><time>2026-04-26T12:32:38.441Z</time></trkpt><trkpt lat="45.8224115" lon="14.1230072"><ele>635.0</ele><time>2026-04-26T12:32:39.441Z</time></trkpt><trkpt lat="45.822494" lon="14.1231382"><ele>634.4</ele><time>2026-04-26T12:32:40.441Z</time></trkpt><trkpt lat="45.8225797" lon="14.123266"><ele>633.8</ele><time>2026-04-26T12:32:41.441Z</time></trkpt><trkpt lat="45.8226515" lon="14.123365"><ele>633.2</ele><time>2026-04-26T12:32:42.441Z</time></trkpt><trkpt lat="45.8226981" lon="14.1234421"><ele>632.6</ele><time>2026-04-26T12:32:43.441Z</time></trkpt><trkpt lat="45.8227668" lon="14.1235708"><ele>632.0</ele><time>2026-04-26T12:32:45.442Z</time></trkpt><trkpt lat="45.8227898" lon="14.1236736"><ele>632.0</ele><time>2026-04-26T12:32:47.441Z</time></trkpt><trkpt lat="45.8227696" lon="14.1235168"><ele>632.0</ele><time>2026-04-26T12:32:58.441Z</time></trkpt><trkpt lat="45.8227154" lon="14.1234296"><ele>632.0</ele><time>2026-04-26T12:32:59.441Z</time></trkpt><trkpt lat="45.822652" lon="14.1233355"><ele>632.0</ele><time>2026-04-26T12:33:00.441Z</time></trkpt><trkpt lat="45.8225867" lon="14.1232334"><ele>632.0</ele><time>2026-04-26T12:33:01.441Z</time></trkpt><trkpt lat="45.8225136" lon="14.1231288"><ele>632.6</ele><time>2026-04-26T12:33:02.442Z</time></trkpt><trkpt lat="45.8224441" lon="14.1230221"><ele>633.2</ele><time>2026-04-26T12:33:03.441Z</time></trkpt><trkpt lat="45.8223822" lon="14.1228902"><ele>633.8</ele><time>2026-04-26T12:33:04.441Z</time></trkpt><trkpt lat="45.8223599" lon="14.1227469"><ele>634.4</ele><time>2026-04-26T12:33:05.441Z</time></trkpt><trkpt lat="45.8223863" lon="14.122611"><ele>635.0</ele><time>2026-04-26T12:33:06.441Z</time></trkpt><trkpt lat="45.8224437" lon="14.1225079"><ele>635.0</ele><time>2026-04-26T12:33:07.441Z</time></trkpt><trkpt lat="45.8225258" lon="14.1224475"><ele>635.0</ele><time>2026-04-26T12:33:08.442Z</time></trkpt><trkpt lat="45.8226182" lon="14.1224176"><ele>635.0</ele><time>2026-04-26T12:33:09.442Z</time></trkpt><trkpt lat="45.8227182" lon="14.1224336"><ele>635.0</ele><time>2026-04-26T12:33:10.441Z</time></trkpt><trkpt lat="45.8228355" lon="14.1224942"><ele>635.0</ele><time>2026-04-26T12:33:11.441Z</time></trkpt><trkpt lat="45.8229682" lon="14.1225704"><ele>636.25</ele><time>2026-04-26T12:33:12.441Z</time></trkpt><trkpt lat="45.8230965" lon="14.1226594"><ele>637.5</ele><time>2026-04-26T12:33:13.441Z</time></trkpt><trkpt lat="45.8232234" lon="14.1227401"><ele>638.75</ele><time>2026-04-26T12:33:14.441Z</time></trkpt><trkpt lat="45.8233506" lon="14.1228196"><ele>640.0</ele><time>2026-04-26T12:33:15.441Z</time></trkpt><trkpt lat="45.8234771" lon="14.1229148"><ele>642.75</ele><time>2026-04-26T12:33:16.441Z</time></trkpt><trkpt lat="45.8236029" lon="14.1230133"><ele>645.5</ele><time>2026-04-26T12:33:17.442Z</time></trkpt><trkpt lat="45.8237249" lon="14.1230934"><ele>648.25</ele><time>2026-04-26T12:33:18.441Z</time></trkpt><trkpt lat="45.8238423" lon="14.1231546"><ele>651.0</ele><time>2026-04-26T12:33:19.441Z</time></trkpt><trkpt lat="45.8239659" lon="14.1231861"><ele>651.0</ele><time>2026-04-26T12:33:20.441Z</time></trkpt><trkpt lat="45.8240979" lon="14.1231687"><ele>651.0</ele><time>2026-04-26T12:33:21.441Z</time></trkpt><trkpt lat="45.8242384" lon="14.1231313"><ele>651.0</ele><time>2026-04-26T12:33:22.441Z</time></trkpt><trkpt lat="45.8243826" lon="14.1231333"><ele>651.0</ele><time>2026-04-26T12:33:23.441Z</time></trkpt><trkpt lat="45.8245276" lon="14.1231095"><ele>652.75</ele><time>2026-04-26T12:33:24.441Z</time></trkpt><trkpt lat="45.8246627" lon="14.1230758"><ele>654.5</ele><time>2026-04-26T12:33:25.442Z</time></trkpt><trkpt lat="45.8247922" lon="14.123027"><ele>656.25</ele><time>2026-04-26T12:33:26.441Z</time></trkpt><trkpt lat="45.8249137" lon="14.122972"><ele>658.0</ele><time>2026-04-26T12:33:27.441Z</time></trkpt><trkpt lat="45.825025" lon="14.1229355"><ele>658.0</ele><time>2026-04-26T12:33:28.441Z</time></trkpt><trkpt lat="45.8251165" lon="14.122894"><ele>658.0</ele><time>2026-04-26T12:33:29.441Z</time></trkpt><trkpt lat="45.8251952" lon="14.1228243"><ele>658.0</ele><time>2026-04-26T12:33:30.441Z</time></trkpt><trkpt lat="45.8252754" lon="14.1227231"><ele>658.0</ele><time>2026-04-26T12:33:31.441Z</time></trkpt><trkpt lat="45.8253457" lon="14.1225976"><ele>658.0</ele><time>2026-04-26T12:33:32.442Z</time></trkpt><trkpt lat="45.8254119" lon="14.1224663"><ele>659.5999999999999</ele><time>2026-04-26T12:33:33.441Z</time></trkpt><trkpt lat="45.8254747" lon="14.1223293"><ele>661.1999999999999</ele><time>2026-04-26T12:33:34.441Z</time></trkpt><trkpt lat="45.8255277" lon="14.122185"><ele>662.8</ele><time>2026-04-26T12:33:35.441Z</time></trkpt><trkpt lat="45.8255798" lon="14.1220446"><ele>664.4</ele><time>2026-04-26T12:33:36.441Z</time></trkpt><trkpt lat="45.8256335" lon="14.1219266"><ele>666.0</ele><time>2026-04-26T12:33:37.441Z</time></trkpt><trkpt lat="45.8256955" lon="14.1218507"><ele>666.0</ele><time>2026-04-26T12:33:38.441Z</time></trkpt><trkpt lat="45.8257733" lon="14.1218062"><ele>666.0</ele><time>2026-04-26T12:33:39.441Z</time></trkpt><trkpt lat="45.8258591" lon="14.1217647"><ele>666.0</ele><time>2026-04-26T12:33:40.441Z</time></trkpt><trkpt lat="45.825957" lon="14.1217436"><ele>666.0</ele><time>2026-04-26T12:33:41.441Z</time></trkpt><trkpt lat="45.8260596" lon="14.1217352"><ele>666.0</ele><time>2026-04-26T12:33:42.441Z</time></trkpt><trkpt lat="45.8261635" lon="14.1217532"><ele>666.0</ele><time>2026-04-26T12:33:43.441Z</time></trkpt><trkpt lat="45.8262619" lon="14.1217819"><ele>666.0</ele><time>2026-04-26T12:33:44.441Z</time></trkpt><trkpt lat="45.8263622" lon="14.1218117"><ele>666.0</ele><time>2026-04-26T12:33:45.441Z</time></trkpt><trkpt lat="45.826456" lon="14.1218378"><ele>666.0</ele><time>2026-04-26T12:33:46.441Z</time></trkpt><trkpt lat="45.8265385" lon="14.1218617"><ele>666.0</ele><time>2026-04-26T12:33:47.441Z</time></trkpt><trkpt lat="45.8266117" lon="14.1218583"><ele>666.0</ele><time>2026-04-26T12:33:48.441Z</time></trkpt><trkpt lat="45.8266815" lon="14.1218074"><ele>666.0</ele><time>2026-04-26T12:33:49.441Z</time></trkpt><trkpt lat="45.8267439" lon="14.1217058"><ele>666.0</ele><time>2026-04-26T12:33:50.441Z</time></trkpt><trkpt lat="45.8268017" lon="14.12157"><ele>666.0</ele><time>2026-04-26T12:33:51.441Z</time></trkpt><trkpt lat="45.8268717" lon="14.1214467"><ele>666.0</ele><time>2026-04-26T12:33:52.441Z</time></trkpt><trkpt lat="45.8269576" lon="14.1213279"><ele>668.75</ele><time>2026-04-26T12:33:53.442Z</time></trkpt><trkpt lat="45.8270581" lon="14.1212227"><ele>671.5</ele><time>2026-04-26T12:33:54.441Z</time></trkpt><trkpt lat="45.8271594" lon="14.1210839"><ele>674.25</ele><time>2026-04-26T12:33:55.441Z</time></trkpt><trkpt lat="45.8272566" lon="14.1209461"><ele>677.0</ele><time>2026-04-26T12:33:56.441Z</time></trkpt><trkpt lat="45.8273287" lon="14.1208466"><ele>677.0</ele><time>2026-04-26T12:33:57.441Z</time></trkpt><trkpt lat="45.8273926" lon="14.120777"><ele>677.0</ele><time>2026-04-26T12:33:58.441Z</time></trkpt><trkpt lat="45.827476" lon="14.1207401"><ele>677.0</ele><time>2026-04-26T12:33:59.441Z</time></trkpt><trkpt lat="45.8275801" lon="14.1207345"><ele>677.0</ele><time>2026-04-26T12:34:00.441Z</time></trkpt><trkpt lat="45.8276839" lon="14.1207719"><ele>677.0</ele><time>2026-04-26T12:34:01.441Z</time></trkpt><trkpt lat="45.827798" lon="14.1208281"><ele>681.2</ele><time>2026-04-26T12:34:02.441Z</time></trkpt><trkpt lat="45.8278936" lon="14.1208931"><ele>685.4000000000001</ele><time>2026-04-26T12:34:03.441Z</time></trkpt><trkpt lat="45.8279659" lon="14.1209663"><ele>689.5999999999999</ele><time>2026-04-26T12:34:04.441Z</time></trkpt><trkpt lat="45.8280208" lon="14.1210617"><ele>693.8</ele><time>2026-04-26T12:34:05.441Z</time></trkpt><trkpt lat="45.8280635" lon="14.1211979"><ele>698.0</ele><time>2026-04-26T12:34:06.441Z</time></trkpt><trkpt lat="45.828106" lon="14.1213345"><ele>698.0</ele><time>2026-04-26T12:34:07.441Z</time></trkpt><trkpt lat="45.8281612" lon="14.1214582"><ele>698.0</ele><time>2026-04-26T12:34:08.441Z</time></trkpt><trkpt lat="45.8282376" lon="14.1215598"><ele>698.0</ele><time>2026-04-26T12:34:09.441Z</time></trkpt><trkpt lat="45.8283091" lon="14.1216273"><ele>698.0</ele><time>2026-04-26T12:34:10.441Z</time></trkpt><trkpt lat="45.8283845" lon="14.1216497"><ele>698.0</ele><time>2026-04-26T12:34:11.442Z</time></trkpt><trkpt lat="45.8284734" lon="14.1216658"><ele>698.8333333333333</ele><time>2026-04-26T12:34:12.441Z</time></trkpt><trkpt lat="45.8285612" lon="14.121682"><ele>699.6666666666666</ele><time>2026-04-26T12:34:13.441Z</time></trkpt><trkpt lat="45.8286413" lon="14.121717"><ele>700.5</ele><time>2026-04-26T12:34:14.441Z</time></trkpt><trkpt lat="45.8287003" lon="14.121786"><ele>701.3333333333334</ele><time>2026-04-26T12:34:15.441Z</time></trkpt><trkpt lat="45.8287473" lon="14.121879"><ele>702.1666666666667</ele><time>2026-04-26T12:34:16.441Z</time></trkpt><trkpt lat="45.8288076" lon="14.1219824"><ele>703.0</ele><time>2026-04-26T12:34:17.442Z</time></trkpt><trkpt lat="45.8288903" lon="14.1220772"><ele>703.0</ele><time>2026-04-26T12:34:18.441Z</time></trkpt><trkpt lat="45.8289911" lon="14.122176"><ele>703.0</ele><time>2026-04-26T12:34:19.441Z</time></trkpt><trkpt lat="45.8291014" lon="14.1222776"><ele>703.0</ele><time>2026-04-26T12:34:20.441Z</time></trkpt><trkpt lat="45.8292164" lon="14.1223724"><ele>703.0</ele><time>2026-04-26T12:34:21.441Z</time></trkpt><trkpt lat="45.8293392" lon="14.1224677"><ele>704.0</ele><time>2026-04-26T12:34:22.442Z</time></trkpt><trkpt lat="45.8294629" lon="14.1225673"><ele>705.0</ele><time>2026-04-26T12:34:23.441Z</time></trkpt><trkpt lat="45.8295826" lon="14.122682"><ele>706.0</ele><time>2026-04-26T12:34:24.441Z</time></trkpt><trkpt lat="45.8296979" lon="14.1227885"><ele>707.0</ele><time>2026-04-26T12:34:25.441Z</time></trkpt><trkpt lat="45.8297968" lon="14.1228985"><ele>707.0</ele><time>2026-04-26T12:34:26.442Z</time></trkpt><trkpt lat="45.829894" lon="14.1229758"><ele>707.0</ele><time>2026-04-26T12:34:27.441Z</time></trkpt><trkpt lat="45.8299919" lon="14.1230474"><ele>707.0</ele><time>2026-04-26T12:34:28.441Z</time></trkpt><trkpt lat="45.8300993" lon="14.1231091"><ele>707.0</ele><time>2026-04-26T12:34:29.441Z</time></trkpt><trkpt lat="45.8302203" lon="14.1231473"><ele>708.5</ele><time>2026-04-26T12:34:30.441Z</time></trkpt><trkpt lat="45.8303551" lon="14.1231782"><ele>710.0</ele><time>2026-04-26T12:34:31.441Z</time></trkpt><trkpt lat="45.8304892" lon="14.1232025"><ele>711.5</ele><time>2026-04-26T12:34:32.441Z</time></trkpt><trkpt lat="45.830625" lon="14.1232163"><ele>713.0</ele><time>2026-04-26T12:34:33.441Z</time></trkpt><trkpt lat="45.8307486" lon="14.1232567"><ele>713.0</ele><time>2026-04-26T12:34:34.439Z</time></trkpt><trkpt lat="45.8308611" lon="14.1233209"><ele>713.0</ele><time>2026-04-26T12:34:35.441Z</time></trkpt><trkpt lat="45.8309588" lon="14.123384"><ele>713.0</ele><time>2026-04-26T12:34:36.441Z</time></trkpt><trkpt lat="45.8310435" lon="14.1234224"><ele>713.0</ele><time>2026-04-26T12:34:37.441Z</time></trkpt><trkpt lat="45.8311191" lon="14.1234427"><ele>713.0</ele><time>2026-04-26T12:34:38.441Z</time></trkpt><trkpt lat="45.8312021" lon="14.1234519"><ele>713.5</ele><time>2026-04-26T12:34:39.442Z</time></trkpt><trkpt lat="45.8312923" lon="14.1234444"><ele>714.0</ele><time>2026-04-26T12:34:40.441Z</time></trkpt><trkpt lat="45.8313837" lon="14.1234114"><ele>714.5</ele><time>2026-04-26T12:34:41.441Z</time></trkpt><trkpt lat="45.8314614" lon="14.1233567"><ele>715.0</ele><time>2026-04-26T12:34:42.442Z</time></trkpt><trkpt lat="45.8315164" lon="14.1232931"><ele>715.5</ele><time>2026-04-26T12:34:43.441Z</time></trkpt><trkpt lat="45.8315668" lon="14.1231979"><ele>716.0</ele><time>2026-04-26T12:34:44.441Z</time></trkpt><trkpt lat="45.8316056" lon="14.1230629"><ele>718.4</ele><time>2026-04-26T12:34:45.441Z</time></trkpt><trkpt lat="45.8316482" lon="14.1228857"><ele>720.8</ele><time>2026-04-26T12:34:46.441Z</time></trkpt><trkpt lat="45.8316933" lon="14.1227383"><ele>723.1999999999999</ele><time>2026-04-26T12:34:47.441Z</time></trkpt><trkpt lat="45.8317553" lon="14.1226075"><ele>725.5999999999999</ele><time>2026-04-26T12:34:48.441Z</time></trkpt><trkpt lat="45.8318179" lon="14.1225101"><ele>728.0</ele><time>2026-04-26T12:34:49.441Z</time></trkpt><trkpt lat="45.8318835" lon="14.1223859"><ele>729.5</ele><time>2026-04-26T12:34:51.441Z</time></trkpt><trkpt lat="45.8318717" lon="14.1222804"><ele>731.0</ele><time>2026-04-26T12:34:53.441Z</time></trkpt><trkpt lat="45.8317583" lon="14.1222743"><ele>732.5</ele><time>2026-04-26T12:34:55.441Z</time></trkpt><trkpt lat="45.8316745" lon="14.1223082"><ele>734.0</ele><time>2026-04-26T12:34:56.441Z</time></trkpt><trkpt lat="45.8315833" lon="14.1223285"><ele>735.5</ele><time>2026-04-26T12:34:57.441Z</time></trkpt><trkpt lat="45.8315047" lon="14.1223332"><ele>737.0</ele><time>2026-04-26T12:34:58.441Z</time></trkpt><trkpt lat="45.8314397" lon="14.1222838"><ele>737.0</ele><time>2026-04-26T12:34:59.441Z</time></trkpt><trkpt lat="45.831386" lon="14.1222315"><ele>737.0</ele><time>2026-04-26T12:35:00.441Z</time></trkpt><trkpt lat="45.8313325" lon="14.1221327"><ele>737.0</ele><time>2026-04-26T12:35:01.441Z</time></trkpt><trkpt lat="45.8312836" lon="14.1219953"><ele>737.0</ele><time>2026-04-26T12:35:02.441Z</time></trkpt><trkpt lat="45.8312425" lon="14.12186"><ele>737.0</ele><time>2026-04-26T12:35:03.441Z</time></trkpt><trkpt lat="45.8312182" lon="14.1217314"><ele>737.0</ele><time>2026-04-26T12:35:04.441Z</time></trkpt><trkpt lat="45.8312128" lon="14.1216264"><ele>737.0</ele><time>2026-04-26T12:35:05.441Z</time></trkpt><trkpt lat="45.8312424" lon="14.1215177"><ele>737.0</ele><time>2026-04-26T12:35:06.441Z</time></trkpt><trkpt lat="45.831276" lon="14.1213923"><ele>737.0</ele><time>2026-04-26T12:35:07.442Z</time></trkpt><trkpt lat="45.8313278" lon="14.1212996"><ele>737.0</ele><time>2026-04-26T12:35:08.441Z</time></trkpt><trkpt lat="45.8314044" lon="14.1212324"><ele>737.0</ele><time>2026-04-26T12:35:09.441Z</time></trkpt><trkpt lat="45.8314989" lon="14.1211654"><ele>738.4000000000001</ele><time>2026-04-26T12:35:10.441Z</time></trkpt><trkpt lat="45.8316031" lon="14.1210934"><ele>739.8000000000001</ele><time>2026-04-26T12:35:11.441Z</time></trkpt><trkpt lat="45.8316977" lon="14.1210019"><ele>741.2</ele><time>2026-04-26T12:35:12.441Z</time></trkpt><trkpt lat="45.8317856" lon="14.1209105"><ele>742.6</ele><time>2026-04-26T12:35:13.442Z</time></trkpt><trkpt lat="45.8318614" lon="14.1208393"><ele>744.0</ele><time>2026-04-26T12:35:14.441Z</time></trkpt><trkpt lat="45.8319408" lon="14.120791"><ele>744.5</ele><time>2026-04-26T12:35:15.441Z</time></trkpt><trkpt lat="45.8320213" lon="14.1207565"><ele>745.0</ele><time>2026-04-26T12:35:16.441Z</time></trkpt><trkpt lat="45.8320981" lon="14.120721"><ele>745.5</ele><time>2026-04-26T12:35:17.441Z</time></trkpt><trkpt lat="45.8321716" lon="14.1206945"><ele>746.0</ele><time>2026-04-26T12:35:18.442Z</time></trkpt><trkpt lat="45.8322173" lon="14.1206267"><ele>746.5</ele><time>2026-04-26T12:35:19.442Z</time></trkpt><trkpt lat="45.832249" lon="14.1205007"><ele>747.0</ele><time>2026-04-26T12:35:20.442Z</time></trkpt><trkpt lat="45.832294" lon="14.1203679"><ele>748.4000000000001</ele><time>2026-04-26T12:35:21.441Z</time></trkpt><trkpt lat="45.8323465" lon="14.1202387"><ele>749.8000000000001</ele><time>2026-04-26T12:35:22.441Z</time></trkpt><trkpt lat="45.8324024" lon="14.1201123"><ele>751.2</ele><time>2026-04-26T12:35:23.441Z</time></trkpt><trkpt lat="45.8324622" lon="14.1200148"><ele>752.6</ele><time>2026-04-26T12:35:24.441Z</time></trkpt><trkpt lat="45.8325262" lon="14.1199632"><ele>754.0</ele><time>2026-04-26T12:35:25.441Z</time></trkpt><trkpt lat="45.832601" lon="14.1199196"><ele>754.8000000000001</ele><time>2026-04-26T12:35:26.441Z</time></trkpt><trkpt lat="45.8327006" lon="14.1199012"><ele>755.6</ele><time>2026-04-26T12:35:27.441Z</time></trkpt><trkpt lat="45.8328031" lon="14.1198888"><ele>756.4</ele><time>2026-04-26T12:35:28.441Z</time></trkpt><trkpt lat="45.8329085" lon="14.1198786"><ele>757.2</ele><time>2026-04-26T12:35:29.441Z</time></trkpt><trkpt lat="45.8330077" lon="14.119899"><ele>758.0</ele><time>2026-04-26T12:35:30.441Z</time></trkpt><trkpt lat="45.8330926" lon="14.1199211"><ele>758.0</ele><time>2026-04-26T12:35:31.441Z</time></trkpt><trkpt lat="45.833162" lon="14.1199419"><ele>758.0</ele><time>2026-04-26T12:35:32.441Z</time></trkpt><trkpt lat="45.8332385" lon="14.1199232"><ele>758.0</ele><time>2026-04-26T12:35:33.441Z</time></trkpt><trkpt lat="45.8333047" lon="14.1198626"><ele>758.0</ele><time>2026-04-26T12:35:34.441Z</time></trkpt><trkpt lat="45.8333737" lon="14.1197575"><ele>758.0</ele><time>2026-04-26T12:35:35.441Z</time></trkpt><trkpt lat="45.8334615" lon="14.1196413"><ele>758.0</ele><time>2026-04-26T12:35:36.441Z</time></trkpt><trkpt lat="45.8335501" lon="14.1195266"><ele>761.4</ele><time>2026-04-26T12:35:37.441Z</time></trkpt><trkpt lat="45.8336012" lon="14.1194555"><ele>764.8</ele><time>2026-04-26T12:35:38.441Z</time></trkpt><trkpt lat="45.8336886" lon="14.1195613"><ele>768.2</ele><time>2026-04-26T12:35:46.441Z</time></trkpt><trkpt lat="45.8337252" lon="14.1196477"><ele>771.6</ele><time>2026-04-26T12:35:47.441Z</time></trkpt><trkpt lat="45.8337593" lon="14.119849"><ele>775.0</ele><time>2026-04-26T12:35:49.442Z</time></trkpt><trkpt lat="45.8337364" lon="14.1199782"><ele>775.0</ele><time>2026-04-26T12:35:50.441Z</time></trkpt><trkpt lat="45.8336889" lon="14.1201242"><ele>775.0</ele><time>2026-04-26T12:35:51.441Z</time></trkpt><trkpt lat="45.8336324" lon="14.1202738"><ele>775.0</ele><time>2026-04-26T12:35:52.441Z</time></trkpt><trkpt lat="45.8335723" lon="14.1204265"><ele>775.0</ele><time>2026-04-26T12:35:53.441Z</time></trkpt><trkpt lat="45.8335166" lon="14.1205994"><ele>771.0</ele><time>2026-04-26T12:35:54.442Z</time></trkpt><trkpt lat="45.8334646" lon="14.120793"><ele>767.0</ele><time>2026-04-26T12:35:55.442Z</time></trkpt><trkpt lat="45.8334218" lon="14.1209971"><ele>763.0</ele><time>2026-04-26T12:35:56.441Z</time></trkpt><trkpt lat="45.833398" lon="14.1212008"><ele>759.0</ele><time>2026-04-26T12:35:57.441Z</time></trkpt><trkpt lat="45.8333751" lon="14.1213931"><ele>759.0</ele><time>2026-04-26T12:35:58.441Z</time></trkpt><trkpt lat="45.8333513" lon="14.1215617"><ele>759.0</ele><time>2026-04-26T12:35:59.441Z</time></trkpt><trkpt lat="45.8333455" lon="14.1217223"><ele>759.0</ele><time>2026-04-26T12:36:00.441Z</time></trkpt><trkpt lat="45.8333387" lon="14.1218694"><ele>759.0</ele><time>2026-04-26T12:36:01.441Z</time></trkpt><trkpt lat="45.8333323" lon="14.1219903"><ele>759.0</ele><time>2026-04-26T12:36:02.441Z</time></trkpt><trkpt lat="45.8333398" lon="14.1220952"><ele>759.0</ele><time>2026-04-26T12:36:03.441Z</time></trkpt><trkpt lat="45.8333493" lon="14.1221886"><ele>759.0</ele><time>2026-04-26T12:36:04.441Z</time></trkpt><trkpt lat="45.8333855" lon="14.1223432"><ele>759.0</ele><time>2026-04-26T12:36:06.441Z</time></trkpt><trkpt lat="45.8334322" lon="14.1224122"><ele>759.0</ele><time>2026-04-26T12:36:07.441Z</time></trkpt><trkpt lat="45.8335015" lon="14.1224733"><ele>759.0</ele><time>2026-04-26T12:36:08.441Z</time></trkpt><trkpt lat="45.8335748" lon="14.1225348"><ele>759.0</ele><time>2026-04-26T12:36:09.441Z</time></trkpt><trkpt lat="45.8336406" lon="14.12261"><ele>762.5</ele><time>2026-04-26T12:36:10.441Z</time></trkpt><trkpt lat="45.8337012" lon="14.1226867"><ele>766.0</ele><time>2026-04-26T12:36:11.441Z</time></trkpt><trkpt lat="45.8337486" lon="14.1227684"><ele>769.5</ele><time>2026-04-26T12:36:12.441Z</time></trkpt><trkpt lat="45.8338028" lon="14.1228627"><ele>773.0</ele><time>2026-04-26T12:36:13.441Z</time></trkpt><trkpt lat="45.833863" lon="14.1229411"><ele>776.5</ele><time>2026-04-26T12:36:14.441Z</time></trkpt><trkpt lat="45.8339322" lon="14.1230116"><ele>780.0</ele><time>2026-04-26T12:36:15.441Z</time></trkpt><trkpt lat="45.8340222" lon="14.123052"><ele>780.0</ele><time>2026-04-26T12:36:16.441Z</time></trkpt><trkpt lat="45.8341323" lon="14.1231113"><ele>780.0</ele><time>2026-04-26T12:36:17.441Z</time></trkpt><trkpt lat="45.8342438" lon="14.1231636"><ele>780.0</ele><time>2026-04-26T12:36:18.441Z</time></trkpt><trkpt lat="45.8343429" lon="14.1232307"><ele>780.0</ele><time>2026-04-26T12:36:19.442Z</time></trkpt><trkpt lat="45.8344201" lon="14.1232728"><ele>780.0</ele><time>2026-04-26T12:36:20.441Z</time></trkpt><trkpt lat="45.8344869" lon="14.1233095"><ele>778.4</ele><time>2026-04-26T12:36:21.441Z</time></trkpt><trkpt lat="45.8346213" lon="14.123321"><ele>776.8</ele><time>2026-04-26T12:36:23.441Z</time></trkpt><trkpt lat="45.8347114" lon="14.1232758"><ele>775.2</ele><time>2026-04-26T12:36:24.441Z</time></trkpt><trkpt lat="45.8347956" lon="14.1232348"><ele>773.6</ele><time>2026-04-26T12:36:25.441Z</time></trkpt><trkpt lat="45.8348694" lon="14.1232443"><ele>772.0</ele><time>2026-04-26T12:36:26.441Z</time></trkpt><trkpt lat="45.8349434" lon="14.1232659"><ele>772.0</ele><time>2026-04-26T12:36:27.441Z</time></trkpt><trkpt lat="45.8350227" lon="14.1233318"><ele>772.0</ele><time>2026-04-26T12:36:28.441Z</time></trkpt><trkpt lat="45.8351177" lon="14.1234254"><ele>772.0</ele><time>2026-04-26T12:36:29.441Z</time></trkpt><trkpt lat="45.8352268" lon="14.1235394"><ele>772.0</ele><time>2026-04-26T12:36:30.441Z</time></trkpt><trkpt lat="45.8353402" lon="14.1236708"><ele>772.0</ele><time>2026-04-26T12:36:31.441Z</time></trkpt><trkpt lat="45.8354484" lon="14.1237985"><ele>772.0</ele><time>2026-04-26T12:36:32.441Z</time></trkpt><trkpt lat="45.8355544" lon="14.1239322"><ele>772.0</ele><time>2026-04-26T12:36:33.441Z</time></trkpt><trkpt lat="45.8356589" lon="14.1240574"><ele>772.0</ele><time>2026-04-26T12:36:34.441Z</time></trkpt><trkpt lat="45.835744" lon="14.1241816"><ele>772.0</ele><time>2026-04-26T12:36:35.441Z</time></trkpt><trkpt lat="45.8358193" lon="14.1243051"><ele>772.0</ele><time>2026-04-26T12:36:36.441Z</time></trkpt><trkpt lat="45.8358918" lon="14.1244175"><ele>772.0</ele><time>2026-04-26T12:36:37.441Z</time></trkpt><trkpt lat="45.8359579" lon="14.1245067"><ele>772.0</ele><time>2026-04-26T12:36:38.441Z</time></trkpt><trkpt lat="45.8360117" lon="14.1246087"><ele>772.0</ele><time>2026-04-26T12:36:39.442Z</time></trkpt><trkpt lat="45.8360549" lon="14.1247116"><ele>771.4000000000001</ele><time>2026-04-26T12:36:40.441Z</time></trkpt><trkpt lat="45.8360831" lon="14.1248055"><ele>770.8000000000001</ele><time>2026-04-26T12:36:41.441Z</time></trkpt><trkpt lat="45.8360893" lon="14.1249881"><ele>770.2</ele><time>2026-04-26T12:36:43.441Z</time></trkpt><trkpt lat="45.8360452" lon="14.1250878"><ele>769.6</ele><time>2026-04-26T12:36:44.441Z</time></trkpt><trkpt lat="45.8359944" lon="14.1252042"><ele>769.0</ele><time>2026-04-26T12:36:45.441Z</time></trkpt><trkpt lat="45.8359285" lon="14.125339"><ele>769.0</ele><time>2026-04-26T12:36:46.441Z</time></trkpt><trkpt lat="45.8358627" lon="14.1254795"><ele>769.0</ele><time>2026-04-26T12:36:47.441Z</time></trkpt><trkpt lat="45.8358027" lon="14.1256323"><ele>769.0</ele><time>2026-04-26T12:36:48.441Z</time></trkpt><trkpt lat="45.8357629" lon="14.1257529"><ele>769.0</ele><time>2026-04-26T12:36:49.441Z</time></trkpt><trkpt lat="45.8357424" lon="14.125858"><ele>769.0</ele><time>2026-04-26T12:36:50.441Z</time></trkpt><trkpt lat="45.8357432" lon="14.1259649"><ele>768.8333333333333</ele><time>2026-04-26T12:36:51.441Z</time></trkpt><trkpt lat="45.8357471" lon="14.1260841"><ele>768.6666666666666</ele><time>2026-04-26T12:36:52.441Z</time></trkpt><trkpt lat="45.835762" lon="14.1262073"><ele>768.5</ele><time>2026-04-26T12:36:53.441Z</time></trkpt><trkpt lat="45.8357793" lon="14.1263131"><ele>768.3333333333333</ele><time>2026-04-26T12:36:54.441Z</time></trkpt><trkpt lat="45.83581" lon="14.1263983"><ele>768.1666666666666</ele><time>2026-04-26T12:36:55.441Z</time></trkpt><trkpt lat="45.8358917" lon="14.1265242"><ele>768.0</ele><time>2026-04-26T12:36:57.441Z</time></trkpt><trkpt lat="45.835946" lon="14.1265864"><ele>769.6666666666666</ele><time>2026-04-26T12:36:58.442Z</time></trkpt><trkpt lat="45.8360075" lon="14.1266235"><ele>771.3333333333333</ele><time>2026-04-26T12:36:59.441Z</time></trkpt><trkpt lat="45.8360889" lon="14.1266268"><ele>773.0</ele><time>2026-04-26T12:37:00.441Z</time></trkpt><trkpt lat="45.8361828" lon="14.1266534"><ele>774.6666666666666</ele><time>2026-04-26T12:37:01.441Z</time></trkpt><trkpt lat="45.8362683" lon="14.1266876"><ele>776.3333333333333</ele><time>2026-04-26T12:37:02.442Z</time></trkpt><trkpt lat="45.8363638" lon="14.1267307"><ele>778.0</ele><time>2026-04-26T12:37:03.441Z</time></trkpt><trkpt lat="45.8364399" lon="14.1267848"><ele>777.9999999999999</ele><time>2026-04-26T12:37:04.441Z</time></trkpt><trkpt lat="45.8365047" lon="14.1268643"><ele>778.0</ele><time>2026-04-26T12:37:05.441Z</time></trkpt><trkpt lat="45.8365696" lon="14.1269702"><ele>778.0</ele><time>2026-04-26T12:37:06.441Z</time></trkpt><trkpt lat="45.8366281" lon="14.1270624"><ele>778.0</ele><time>2026-04-26T12:37:07.441Z</time></trkpt><trkpt lat="45.8366858" lon="14.127137"><ele>777.9999999999999</ele><time>2026-04-26T12:37:08.441Z</time></trkpt><trkpt lat="45.8367419" lon="14.1271808"><ele>778.0</ele><time>2026-04-26T12:37:09.441Z</time></trkpt><trkpt lat="45.8368078" lon="14.1272147"><ele>779.5999999999999</ele><time>2026-04-26T12:37:10.442Z</time></trkpt><trkpt lat="45.8368834" lon="14.12723"><ele>781.1999999999999</ele><time>2026-04-26T12:37:11.441Z</time></trkpt><trkpt lat="45.8369838" lon="14.1272339"><ele>782.8</ele><time>2026-04-26T12:37:12.441Z</time></trkpt><trkpt lat="45.8371044" lon="14.1272195"><ele>784.4</ele><time>2026-04-26T12:37:13.441Z</time></trkpt><trkpt lat="45.8372411" lon="14.1272023"><ele>786.0</ele><time>2026-04-26T12:37:14.441Z</time></trkpt><trkpt lat="45.8373643" lon="14.1271822"><ele>786.0</ele><time>2026-04-26T12:37:15.441Z</time></trkpt><trkpt lat="45.8374834" lon="14.1271603"><ele>786.0</ele><time>2026-04-26T12:37:16.441Z</time></trkpt><trkpt lat="45.8375876" lon="14.1271277"><ele>786.0</ele><time>2026-04-26T12:37:17.441Z</time></trkpt><trkpt lat="45.8376978" lon="14.127078"><ele>786.0</ele><time>2026-04-26T12:37:18.441Z</time></trkpt><trkpt lat="45.8378122" lon="14.1270019"><ele>786.5</ele><time>2026-04-26T12:37:19.441Z</time></trkpt><trkpt lat="45.8379244" lon="14.1269251"><ele>787.0</ele><time>2026-04-26T12:37:20.441Z</time></trkpt><trkpt lat="45.8380249" lon="14.1268378"><ele>787.5</ele><time>2026-04-26T12:37:21.441Z</time></trkpt><trkpt lat="45.8381233" lon="14.1267542"><ele>788.0</ele><time>2026-04-26T12:37:22.441Z</time></trkpt><trkpt lat="45.8382345" lon="14.1266936"><ele>788.0</ele><time>2026-04-26T12:37:23.441Z</time></trkpt><trkpt lat="45.8383562" lon="14.1266469"><ele>788.0</ele><time>2026-04-26T12:37:24.441Z</time></trkpt><trkpt lat="45.8384978" lon="14.1266071"><ele>788.0</ele><time>2026-04-26T12:37:25.441Z</time></trkpt><trkpt lat="45.8386693" lon="14.1265531"><ele>788.0</ele><time>2026-04-26T12:37:26.441Z</time></trkpt><trkpt lat="45.838843" lon="14.1264817"><ele>788.75</ele><time>2026-04-26T12:37:27.441Z</time></trkpt><trkpt lat="45.8389863" lon="14.1264342"><ele>789.5</ele><time>2026-04-26T12:37:28.441Z</time></trkpt><trkpt lat="45.8391283" lon="14.126404"><ele>790.25</ele><time>2026-04-26T12:37:29.441Z</time></trkpt><trkpt lat="45.8392766" lon="14.1263897"><ele>791.0</ele><time>2026-04-26T12:37:30.441Z</time></trkpt><trkpt lat="45.8394282" lon="14.1263757"><ele>792.75</ele><time>2026-04-26T12:37:31.442Z</time></trkpt><trkpt lat="45.8395741" lon="14.1263627"><ele>794.5</ele><time>2026-04-26T12:37:32.442Z</time></trkpt><trkpt lat="45.8396889" lon="14.1263475"><ele>796.25</ele><time>2026-04-26T12:37:33.441Z</time></trkpt><trkpt lat="45.8398012" lon="14.1263442"><ele>798.0</ele><time>2026-04-26T12:37:34.441Z</time></trkpt><trkpt lat="45.8399086" lon="14.1263673"><ele>798.0</ele><time>2026-04-26T12:37:35.441Z</time></trkpt><trkpt lat="45.8400167" lon="14.1263942"><ele>798.0</ele><time>2026-04-26T12:37:36.441Z</time></trkpt><trkpt lat="45.8401192" lon="14.1264605"><ele>798.0</ele><time>2026-04-26T12:37:37.441Z</time></trkpt><trkpt lat="45.8402222" lon="14.1265338"><ele>798.0</ele><time>2026-04-26T12:37:38.442Z</time></trkpt><trkpt lat="45.8403267" lon="14.1265939"><ele>796.6666666666666</ele><time>2026-04-26T12:37:39.441Z</time></trkpt><trkpt lat="45.8404172" lon="14.1266274"><ele>795.3333333333333</ele><time>2026-04-26T12:37:40.441Z</time></trkpt><trkpt lat="45.8405079" lon="14.1266351"><ele>794.0</ele><time>2026-04-26T12:37:41.441Z</time></trkpt><trkpt lat="45.8405869" lon="14.1266017"><ele>792.6666666666666</ele><time>2026-04-26T12:37:42.441Z</time></trkpt><trkpt lat="45.8406608" lon="14.12657"><ele>791.3333333333333</ele><time>2026-04-26T12:37:43.441Z</time></trkpt><trkpt lat="45.8407256" lon="14.1265182"><ele>790.0</ele><time>2026-04-26T12:37:44.441Z</time></trkpt><trkpt lat="45.8407858" lon="14.1264412"><ele>789.9999999999999</ele><time>2026-04-26T12:37:45.442Z</time></trkpt><trkpt lat="45.8408413" lon="14.1263529"><ele>790.0</ele><time>2026-04-26T12:37:46.441Z</time></trkpt><trkpt lat="45.8408859" lon="14.1262512"><ele>790.0</ele><time>2026-04-26T12:37:47.441Z</time></trkpt><trkpt lat="45.8409307" lon="14.1261691"><ele>790.0</ele><time>2026-04-26T12:37:48.441Z</time></trkpt><trkpt lat="45.8409777" lon="14.1260981"><ele>789.9999999999999</ele><time>2026-04-26T12:37:49.441Z</time></trkpt><trkpt lat="45.8410948" lon="14.1260119"><ele>790.0</ele><time>2026-04-26T12:37:51.441Z</time></trkpt><trkpt lat="45.8411703" lon="14.1260162"><ele>787.8</ele><time>2026-04-26T12:37:52.441Z</time></trkpt><trkpt lat="45.8412632" lon="14.1260227"><ele>785.6</ele><time>2026-04-26T12:37:53.441Z</time></trkpt><trkpt lat="45.841371" lon="14.1260422"><ele>783.4000000000001</ele><time>2026-04-26T12:37:54.441Z</time></trkpt><trkpt lat="45.8414636" lon="14.1260677"><ele>781.2</ele><time>2026-04-26T12:37:55.441Z</time></trkpt><trkpt lat="45.8415551" lon="14.1260704"><ele>779.0</ele><time>2026-04-26T12:37:56.441Z</time></trkpt><trkpt lat="45.8416327" lon="14.1260902"><ele>779.0000000000001</ele><time>2026-04-26T12:37:57.441Z</time></trkpt><trkpt lat="45.8417041" lon="14.1261135"><ele>779.0</ele><time>2026-04-26T12:37:58.441Z</time></trkpt><trkpt lat="45.8417699" lon="14.1261622"><ele>779.0</ele><time>2026-04-26T12:37:59.442Z</time></trkpt><trkpt lat="45.8418278" lon="14.1262506"><ele>779.0</ele><time>2026-04-26T12:38:00.441Z</time></trkpt><trkpt lat="45.8418544" lon="14.1263698"><ele>779.0000000000001</ele><time>2026-04-26T12:38:01.441Z</time></trkpt><trkpt lat="45.8418893" lon="14.1265056"><ele>779.0</ele><time>2026-04-26T12:38:02.442Z</time></trkpt><trkpt lat="45.8419292" lon="14.1266303"><ele>778.0</ele><time>2026-04-26T12:38:03.441Z</time></trkpt><trkpt lat="45.8419853" lon="14.1267613"><ele>777.0</ele><time>2026-04-26T12:38:04.441Z</time></trkpt><trkpt lat="45.8420487" lon="14.1269024"><ele>776.0</ele><time>2026-04-26T12:38:05.441Z</time></trkpt><trkpt lat="45.842124" lon="14.1270249"><ele>775.0</ele><time>2026-04-26T12:38:06.441Z</time></trkpt><trkpt lat="45.8422013" lon="14.1271515"><ele>775.0</ele><time>2026-04-26T12:38:07.441Z</time></trkpt><trkpt lat="45.8422762" lon="14.1272922"><ele>775.0</ele><time>2026-04-26T12:38:08.442Z</time></trkpt><trkpt lat="45.8423179" lon="14.1274292"><ele>775.0</ele><time>2026-04-26T12:38:09.441Z</time></trkpt><trkpt lat="45.8423475" lon="14.1275621"><ele>775.0</ele><time>2026-04-26T12:38:10.441Z</time></trkpt><trkpt lat="45.8423788" lon="14.1276943"><ele>775.0</ele><time>2026-04-26T12:38:11.441Z</time></trkpt><trkpt lat="45.8424122" lon="14.1278046"><ele>774.3333333333333</ele><time>2026-04-26T12:38:12.442Z</time></trkpt><trkpt lat="45.8424435" lon="14.127892"><ele>773.6666666666666</ele><time>2026-04-26T12:38:13.442Z</time></trkpt><trkpt lat="45.8424909" lon="14.1279687"><ele>773.0</ele><time>2026-04-26T12:38:14.441Z</time></trkpt><trkpt lat="45.8425482" lon="14.1280116"><ele>772.3333333333333</ele><time>2026-04-26T12:38:15.442Z</time></trkpt><trkpt lat="45.8426572" lon="14.1280751"><ele>771.6666666666666</ele><time>2026-04-26T12:38:17.441Z</time></trkpt><trkpt lat="45.8427276" lon="14.1280746"><ele>771.0</ele><time>2026-04-26T12:38:18.441Z</time></trkpt><trkpt lat="45.842804" lon="14.1280701"><ele>770.0</ele><time>2026-04-26T12:38:19.441Z</time></trkpt><trkpt lat="45.8428779" lon="14.1280879"><ele>769.0</ele><time>2026-04-26T12:38:20.441Z</time></trkpt><trkpt lat="45.8429409" lon="14.1281556"><ele>768.0</ele><time>2026-04-26T12:38:21.441Z</time></trkpt><trkpt lat="45.8430095" lon="14.1282529"><ele>767.0</ele><time>2026-04-26T12:38:22.441Z</time></trkpt><trkpt lat="45.8430703" lon="14.1283322"><ele>766.0</ele><time>2026-04-26T12:38:23.441Z</time></trkpt><trkpt lat="45.8431244" lon="14.1284087"><ele>765.0</ele><time>2026-04-26T12:38:24.441Z</time></trkpt><trkpt lat="45.8432372" lon="14.1284516"><ele>764.4</ele><time>2026-04-26T12:38:26.441Z</time></trkpt><trkpt lat="45.8433661" lon="14.1284231"><ele>763.8</ele><time>2026-04-26T12:38:28.441Z</time></trkpt><trkpt lat="45.8434421" lon="14.1283908"><ele>763.2</ele><time>2026-04-26T12:38:29.441Z</time></trkpt><trkpt lat="45.8435228" lon="14.1283269"><ele>762.6</ele><time>2026-04-26T12:38:30.441Z</time></trkpt><trkpt lat="45.8436158" lon="14.1282388"><ele>762.0</ele><time>2026-04-26T12:38:31.441Z</time></trkpt><trkpt lat="45.8437181" lon="14.1281782"><ele>761.8</ele><time>2026-04-26T12:38:32.441Z</time></trkpt><trkpt lat="45.8438117" lon="14.1281384"><ele>761.6</ele><time>2026-04-26T12:38:33.442Z</time></trkpt><trkpt lat="45.843905" lon="14.1281121"><ele>761.4</ele><time>2026-04-26T12:38:34.441Z</time></trkpt><trkpt lat="45.844002" lon="14.1281141"><ele>761.1999999999999</ele><time>2026-04-26T12:38:35.441Z</time></trkpt><trkpt lat="45.8441123" lon="14.1281276"><ele>761.0</ele><time>2026-04-26T12:38:36.441Z</time></trkpt><trkpt lat="45.8442334" lon="14.1281354"><ele>760.5</ele><time>2026-04-26T12:38:37.441Z</time></trkpt><trkpt lat="45.8443723" lon="14.1281524"><ele>760.0</ele><time>2026-04-26T12:38:38.441Z</time></trkpt><trkpt lat="45.8445195" lon="14.1281519"><ele>759.5</ele><time>2026-04-26T12:38:39.441Z</time></trkpt><trkpt lat="45.8446549" lon="14.1281434"><ele>759.0</ele><time>2026-04-26T12:38:40.441Z</time></trkpt><trkpt lat="45.844763" lon="14.1281258"><ele>759.0</ele><time>2026-04-26T12:38:41.441Z</time></trkpt><trkpt lat="45.8448638" lon="14.1281006"><ele>759.0</ele><time>2026-04-26T12:38:42.441Z</time></trkpt><trkpt lat="45.8449702" lon="14.1280538"><ele>759.0</ele><time>2026-04-26T12:38:43.441Z</time></trkpt><trkpt lat="45.8450815" lon="14.1279814"><ele>759.0</ele><time>2026-04-26T12:38:44.441Z</time></trkpt><trkpt lat="45.8452005" lon="14.1278855"><ele>758.75</ele><time>2026-04-26T12:38:45.441Z</time></trkpt><trkpt lat="45.845315" lon="14.1277556"><ele>758.5</ele><time>2026-04-26T12:38:46.441Z</time></trkpt><trkpt lat="45.8454187" lon="14.1276082"><ele>758.25</ele><time>2026-04-26T12:38:47.441Z</time></trkpt><trkpt lat="45.8455169" lon="14.1274867"><ele>758.0</ele><time>2026-04-26T12:38:48.441Z</time></trkpt><trkpt lat="45.8456159" lon="14.1273972"><ele>761.2</ele><time>2026-04-26T12:38:49.441Z</time></trkpt><trkpt lat="45.8457005" lon="14.1273435"><ele>764.4</ele><time>2026-04-26T12:38:50.441Z</time></trkpt><trkpt lat="45.8457919" lon="14.1273086"><ele>767.6</ele><time>2026-04-26T12:38:51.441Z</time></trkpt><trkpt lat="45.8458937" lon="14.1272854"><ele>770.8000000000001</ele><time>2026-04-26T12:38:52.441Z</time></trkpt><trkpt lat="45.8460043" lon="14.1272625"><ele>774.0</ele><time>2026-04-26T12:38:53.441Z</time></trkpt><trkpt lat="45.8461375" lon="14.12725"><ele>776.6666666666667</ele><time>2026-04-26T12:38:54.441Z</time></trkpt><trkpt lat="45.8463058" lon="14.1272506"><ele>779.3333333333334</ele><time>2026-04-26T12:38:55.441Z</time></trkpt><trkpt lat="45.8464977" lon="14.1272549"><ele>782.0</ele><time>2026-04-26T12:38:56.441Z</time></trkpt><trkpt lat="45.846693" lon="14.1272331"><ele>782.6666666666667</ele><time>2026-04-26T12:38:57.442Z</time></trkpt><trkpt lat="45.8468631" lon="14.127221"><ele>783.3333333333333</ele><time>2026-04-26T12:38:58.441Z</time></trkpt><trkpt lat="45.8470215" lon="14.1271939"><ele>784.0</ele><time>2026-04-26T12:38:59.441Z</time></trkpt><trkpt lat="45.847167" lon="14.1271721"><ele>784.0</ele><time>2026-04-26T12:39:00.441Z</time></trkpt><trkpt lat="45.8473011" lon="14.1271629"><ele>784.0</ele><time>2026-04-26T12:39:01.441Z</time></trkpt><trkpt lat="45.8474211" lon="14.1271677"><ele>784.0</ele><time>2026-04-26T12:39:02.442Z</time></trkpt><trkpt lat="45.8475116" lon="14.1271625"><ele>784.0</ele><time>2026-04-26T12:39:03.442Z</time></trkpt><trkpt lat="45.8475954" lon="14.1271655"><ele>784.0</ele><time>2026-04-26T12:39:04.441Z</time></trkpt><trkpt lat="45.847669" lon="14.1271912"><ele>784.4000000000001</ele><time>2026-04-26T12:39:05.441Z</time></trkpt><trkpt lat="45.8477381" lon="14.1272641"><ele>784.8</ele><time>2026-04-26T12:39:06.441Z</time></trkpt><trkpt lat="45.8478129" lon="14.1273576"><ele>785.2</ele><time>2026-04-26T12:39:07.441Z</time></trkpt><trkpt lat="45.8478846" lon="14.1274399"><ele>785.5999999999999</ele><time>2026-04-26T12:39:08.441Z</time></trkpt><trkpt lat="45.8479679" lon="14.1274983"><ele>786.0</ele><time>2026-04-26T12:39:09.442Z</time></trkpt><trkpt lat="45.8480467" lon="14.1275416"><ele>782.1999999999999</ele><time>2026-04-26T12:39:10.441Z</time></trkpt><trkpt lat="45.8481387" lon="14.1275654"><ele>778.4</ele><time>2026-04-26T12:39:11.441Z</time></trkpt><trkpt lat="45.8482446" lon="14.1275722"><ele>774.6</ele><time>2026-04-26T12:39:12.442Z</time></trkpt><trkpt lat="45.8483556" lon="14.1275738"><ele>770.8</ele><time>2026-04-26T12:39:13.441Z</time></trkpt><trkpt lat="45.8484551" lon="14.1275713"><ele>767.0</ele><time>2026-04-26T12:39:14.442Z</time></trkpt><trkpt lat="45.8485482" lon="14.127553"><ele>767.0</ele><time>2026-04-26T12:39:15.441Z</time></trkpt><trkpt lat="45.8486419" lon="14.1275236"><ele>767.0</ele><time>2026-04-26T12:39:16.441Z</time></trkpt><trkpt lat="45.848745" lon="14.127482"><ele>767.0</ele><time>2026-04-26T12:39:17.441Z</time></trkpt><trkpt lat="45.848839" lon="14.1274294"><ele>767.0</ele><time>2026-04-26T12:39:18.442Z</time></trkpt><trkpt lat="45.8489163" lon="14.1273975"><ele>767.0</ele><time>2026-04-26T12:39:19.441Z</time></trkpt><trkpt lat="45.8490323" lon="14.127396"><ele>767.0</ele><time>2026-04-26T12:39:21.441Z</time></trkpt><trkpt lat="45.8491508" lon="14.1274726"><ele>767.0</ele><time>2026-04-26T12:39:23.441Z</time></trkpt><trkpt lat="45.8492361" lon="14.1275357"><ele>767.0</ele><time>2026-04-26T12:39:24.441Z</time></trkpt><trkpt lat="45.8493307" lon="14.127607"><ele>767.0</ele><time>2026-04-26T12:39:25.441Z</time></trkpt><trkpt lat="45.8494175" lon="14.127653"><ele>767.0</ele><time>2026-04-26T12:39:26.441Z</time></trkpt><trkpt lat="45.8494853" lon="14.1277138"><ele>766.0</ele><time>2026-04-26T12:39:27.441Z</time></trkpt><trkpt lat="45.849552" lon="14.1278547"><ele>765.0</ele><time>2026-04-26T12:39:29.441Z</time></trkpt><trkpt lat="45.8495656" lon="14.1279539"><ele>764.0</ele><time>2026-04-26T12:39:30.441Z</time></trkpt><trkpt lat="45.849573" lon="14.1280701"><ele>763.0</ele><time>2026-04-26T12:39:31.442Z</time></trkpt><trkpt lat="45.8495801" lon="14.1281829"><ele>762.0</ele><time>2026-04-26T12:39:32.441Z</time></trkpt><trkpt lat="45.8496095" lon="14.1282909"><ele>761.0</ele><time>2026-04-26T12:39:33.441Z</time></trkpt><trkpt lat="45.8496586" lon="14.1283827"><ele>761.0</ele><time>2026-04-26T12:39:34.441Z</time></trkpt><trkpt lat="45.849727" lon="14.1284568"><ele>761.0</ele><time>2026-04-26T12:39:35.441Z</time></trkpt><trkpt lat="45.8498027" lon="14.1285107"><ele>761.0</ele><time>2026-04-26T12:39:36.441Z</time></trkpt><trkpt lat="45.8498954" lon="14.128549"><ele>761.0</ele><time>2026-04-26T12:39:37.441Z</time></trkpt><trkpt lat="45.8500013" lon="14.1285575"><ele>761.0</ele><time>2026-04-26T12:39:38.441Z</time></trkpt><trkpt lat="45.8501093" lon="14.1285776"><ele>761.1666666666666</ele><time>2026-04-26T12:39:39.442Z</time></trkpt><trkpt lat="45.8502116" lon="14.1285926"><ele>761.3333333333333</ele><time>2026-04-26T12:39:40.441Z</time></trkpt><trkpt lat="45.850291" lon="14.1285916"><ele>761.5</ele><time>2026-04-26T12:39:41.441Z</time></trkpt><trkpt lat="45.8503649" lon="14.1285817"><ele>761.6666666666666</ele><time>2026-04-26T12:39:42.441Z</time></trkpt><trkpt lat="45.8504236" lon="14.1285368"><ele>761.8333333333334</ele><time>2026-04-26T12:39:43.442Z</time></trkpt><trkpt lat="45.8504917" lon="14.1284733"><ele>762.0</ele><time>2026-04-26T12:39:44.441Z</time></trkpt><trkpt lat="45.8505634" lon="14.1283981"><ele>762.0</ele><time>2026-04-26T12:39:45.441Z</time></trkpt><trkpt lat="45.850641" lon="14.1283277"><ele>762.0</ele><time>2026-04-26T12:39:46.441Z</time></trkpt><trkpt lat="45.8507224" lon="14.1282564"><ele>762.0</ele><time>2026-04-26T12:39:47.441Z</time></trkpt><trkpt lat="45.8507933" lon="14.1282145"><ele>762.0</ele><time>2026-04-26T12:39:48.441Z</time></trkpt><trkpt lat="45.8509068" lon="14.1282024"><ele>762.0</ele><time>2026-04-26T12:39:50.441Z</time></trkpt><trkpt lat="45.8509593" lon="14.1282891"><ele>762.0</ele><time>2026-04-26T12:39:52.441Z</time></trkpt><trkpt lat="45.8509647" lon="14.1283882"><ele>762.0</ele><time>2026-04-26T12:39:53.441Z</time></trkpt><trkpt lat="45.8509507" lon="14.1285154"><ele>762.0</ele><time>2026-04-26T12:39:54.441Z</time></trkpt><trkpt lat="45.8509298" lon="14.1286529"><ele>762.0</ele><time>2026-04-26T12:39:55.441Z</time></trkpt><trkpt lat="45.8508882" lon="14.1288049"><ele>762.0</ele><time>2026-04-26T12:39:56.441Z</time></trkpt><trkpt lat="45.8507999" lon="14.1289697"><ele>761.0</ele><time>2026-04-26T12:39:57.441Z</time></trkpt><trkpt lat="45.850699" lon="14.1291316"><ele>760.0</ele><time>2026-04-26T12:39:58.441Z</time></trkpt><trkpt lat="45.8505966" lon="14.1292997"><ele>759.0</ele><time>2026-04-26T12:39:59.442Z</time></trkpt><trkpt lat="45.8505132" lon="14.1294633"><ele>758.0</ele><time>2026-04-26T12:40:00.441Z</time></trkpt><trkpt lat="45.8504424" lon="14.1296066"><ele>758.0</ele><time>2026-04-26T12:40:01.441Z</time></trkpt><trkpt lat="45.8503907" lon="14.1297457"><ele>758.0</ele><time>2026-04-26T12:40:02.441Z</time></trkpt><trkpt lat="45.8503376" lon="14.1298633"><ele>758.0</ele><time>2026-04-26T12:40:03.441Z</time></trkpt><trkpt lat="45.8502907" lon="14.1299902"><ele>758.0</ele><time>2026-04-26T12:40:04.441Z</time></trkpt><trkpt lat="45.8502579" lon="14.13014"><ele>758.0</ele><time>2026-04-26T12:40:05.441Z</time></trkpt><trkpt lat="45.8502292" lon="14.1303057"><ele>757.0</ele><time>2026-04-26T12:40:06.442Z</time></trkpt><trkpt lat="45.8502039" lon="14.130472"><ele>756.0</ele><time>2026-04-26T12:40:07.441Z</time></trkpt><trkpt lat="45.8501834" lon="14.1306124"><ele>755.0</ele><time>2026-04-26T12:40:08.441Z</time></trkpt><trkpt lat="45.8501579" lon="14.1307105"><ele>754.0</ele><time>2026-04-26T12:40:09.441Z</time></trkpt><trkpt lat="45.85013" lon="14.1308021"><ele>753.0</ele><time>2026-04-26T12:40:10.441Z</time></trkpt><trkpt lat="45.8500852" lon="14.1308907"><ele>752.0</ele><time>2026-04-26T12:40:11.441Z</time></trkpt><trkpt lat="45.8500069" lon="14.1309875"><ele>752.0</ele><time>2026-04-26T12:40:12.441Z</time></trkpt><trkpt lat="45.8499236" lon="14.1310919"><ele>752.0</ele><time>2026-04-26T12:40:13.441Z</time></trkpt><trkpt lat="45.8498353" lon="14.1312078"><ele>752.0</ele><time>2026-04-26T12:40:14.441Z</time></trkpt><trkpt lat="45.8497542" lon="14.1313089"><ele>752.0</ele><time>2026-04-26T12:40:15.441Z</time></trkpt><trkpt lat="45.8496939" lon="14.1313821"><ele>752.0</ele><time>2026-04-26T12:40:16.441Z</time></trkpt><trkpt lat="45.8496343" lon="14.1314552"><ele>752.0</ele><time>2026-04-26T12:40:17.441Z</time></trkpt><trkpt lat="45.8496056" lon="14.1315358"><ele>752.0</ele><time>2026-04-26T12:40:18.441Z</time></trkpt><trkpt lat="45.8495836" lon="14.1316929"><ele>752.0</ele><time>2026-04-26T12:40:20.441Z</time></trkpt><trkpt lat="45.8496035" lon="14.1318043"><ele>752.0</ele><time>2026-04-26T12:40:21.441Z</time></trkpt><trkpt lat="45.8496502" lon="14.131903"><ele>752.0</ele><time>2026-04-26T12:40:22.441Z</time></trkpt><trkpt lat="45.8497136" lon="14.1320089"><ele>752.0</ele><time>2026-04-26T12:40:23.441Z</time></trkpt><trkpt lat="45.8497687" lon="14.1321002"><ele>753.3333333333333</ele><time>2026-04-26T12:40:24.441Z</time></trkpt><trkpt lat="45.8498247" lon="14.1321633"><ele>754.6666666666666</ele><time>2026-04-26T12:40:25.441Z</time></trkpt><trkpt lat="45.8498858" lon="14.1322016"><ele>756.0</ele><time>2026-04-26T12:40:26.441Z</time></trkpt><trkpt lat="45.8499544" lon="14.1322037"><ele>757.3333333333334</ele><time>2026-04-26T12:40:27.441Z</time></trkpt><trkpt lat="45.8500414" lon="14.1321804"><ele>758.6666666666667</ele><time>2026-04-26T12:40:28.441Z</time></trkpt><trkpt lat="45.8501385" lon="14.1321659"><ele>760.0</ele><time>2026-04-26T12:40:29.442Z</time></trkpt><trkpt lat="45.8502113" lon="14.1321642"><ele>761.8333333333334</ele><time>2026-04-26T12:40:30.441Z</time></trkpt><trkpt lat="45.850279" lon="14.1322099"><ele>763.6666666666667</ele><time>2026-04-26T12:40:31.441Z</time></trkpt><trkpt lat="45.8503475" lon="14.1322719"><ele>765.5</ele><time>2026-04-26T12:40:32.441Z</time></trkpt><trkpt lat="45.8503992" lon="14.1323552"><ele>767.3333333333334</ele><time>2026-04-26T12:40:33.441Z</time></trkpt><trkpt lat="45.8504293" lon="14.1324813"><ele>769.1666666666666</ele><time>2026-04-26T12:40:34.441Z</time></trkpt><trkpt lat="45.8504329" lon="14.1326077"><ele>771.0</ele><time>2026-04-26T12:40:35.441Z</time></trkpt><trkpt lat="45.8504164" lon="14.1327181"><ele>771.1999999999999</ele><time>2026-04-26T12:40:36.441Z</time></trkpt><trkpt lat="45.8503838" lon="14.1328105"><ele>771.4</ele><time>2026-04-26T12:40:37.441Z</time></trkpt><trkpt lat="45.8503238" lon="14.1329185"><ele>771.6</ele><time>2026-04-26T12:40:38.442Z</time></trkpt><trkpt lat="45.8502451" lon="14.1330329"><ele>771.8</ele><time>2026-04-26T12:40:39.442Z</time></trkpt><trkpt lat="45.8501688" lon="14.1331326"><ele>772.0</ele><time>2026-04-26T12:40:40.442Z</time></trkpt><trkpt lat="45.8500955" lon="14.1332032"><ele>768.2</ele><time>2026-04-26T12:40:41.441Z</time></trkpt><trkpt lat="45.8500318" lon="14.1332595"><ele>764.4000000000001</ele><time>2026-04-26T12:40:42.441Z</time></trkpt><trkpt lat="45.8499533" lon="14.1333943"><ele>760.5999999999999</ele><time>2026-04-26T12:40:44.44Z</time></trkpt><trkpt lat="45.8499501" lon="14.1335596"><ele>756.8</ele><time>2026-04-26T12:40:46.44Z</time></trkpt><trkpt lat="45.8499844" lon="14.133661"><ele>753.0</ele><time>2026-04-26T12:40:47.44Z</time></trkpt><trkpt lat="45.8500225" lon="14.1337512"><ele>753.0</ele><time>2026-04-26T12:40:48.44Z</time></trkpt><trkpt lat="45.8500791" lon="14.1338207"><ele>753.0</ele><time>2026-04-26T12:40:49.44Z</time></trkpt><trkpt lat="45.850144" lon="14.1338899"><ele>753.0</ele><time>2026-04-26T12:40:50.44Z</time></trkpt><trkpt lat="45.8502414" lon="14.1339742"><ele>753.0</ele><time>2026-04-26T12:40:51.44Z</time></trkpt><trkpt lat="45.8503706" lon="14.1340539"><ele>753.0</ele><time>2026-04-26T12:40:52.44Z</time></trkpt><trkpt lat="45.8504924" lon="14.134128"><ele>753.5</ele><time>2026-04-26T12:40:53.44Z</time></trkpt><trkpt lat="45.8505917" lon="14.1341871"><ele>754.0</ele><time>2026-04-26T12:40:54.44Z</time></trkpt><trkpt lat="45.8506814" lon="14.1342652"><ele>754.5</ele><time>2026-04-26T12:40:55.44Z</time></trkpt><trkpt lat="45.8507788" lon="14.1343687"><ele>755.0</ele><time>2026-04-26T12:40:56.44Z</time></trkpt><trkpt lat="45.8508653" lon="14.1345071"><ele>755.0</ele><time>2026-04-26T12:40:57.441Z</time></trkpt><trkpt lat="45.8509436" lon="14.1346565"><ele>755.0</ele><time>2026-04-26T12:40:58.44Z</time></trkpt><trkpt lat="45.8510193" lon="14.1348111"><ele>755.0</ele><time>2026-04-26T12:40:59.44Z</time></trkpt><trkpt lat="45.8510953" lon="14.1349334"><ele>755.0</ele><time>2026-04-26T12:41:00.44Z</time></trkpt><trkpt lat="45.8511673" lon="14.1350232"><ele>754.5</ele><time>2026-04-26T12:41:01.44Z</time></trkpt><trkpt lat="45.8512474" lon="14.1350957"><ele>754.0</ele><time>2026-04-26T12:41:02.44Z</time></trkpt><trkpt lat="45.8513229" lon="14.1351724"><ele>753.5</ele><time>2026-04-26T12:41:03.441Z</time></trkpt><trkpt lat="45.8513932" lon="14.135205"><ele>753.0</ele><time>2026-04-26T12:41:04.441Z</time></trkpt><trkpt lat="45.8514732" lon="14.1351947"><ele>752.5</ele><time>2026-04-26T12:41:05.44Z</time></trkpt><trkpt lat="45.8515592" lon="14.1351773"><ele>752.0</ele><time>2026-04-26T12:41:06.44Z</time></trkpt><trkpt lat="45.8516493" lon="14.1351507"><ele>752.0</ele><time>2026-04-26T12:41:07.44Z</time></trkpt><trkpt lat="45.851733" lon="14.1351135"><ele>752.0</ele><time>2026-04-26T12:41:08.44Z</time></trkpt><trkpt lat="45.8518073" lon="14.1350351"><ele>752.0</ele><time>2026-04-26T12:41:09.44Z</time></trkpt><trkpt lat="45.8518878" lon="14.1349465"><ele>752.0</ele><time>2026-04-26T12:41:10.44Z</time></trkpt><trkpt lat="45.8519594" lon="14.1348558"><ele>752.0</ele><time>2026-04-26T12:41:11.44Z</time></trkpt><trkpt lat="45.8520313" lon="14.1348056"><ele>754.3333333333333</ele><time>2026-04-26T12:41:12.44Z</time></trkpt><trkpt lat="45.8521145" lon="14.1347966"><ele>756.6666666666666</ele><time>2026-04-26T12:41:13.44Z</time></trkpt><trkpt lat="45.8521887" lon="14.1348098"><ele>759.0</ele><time>2026-04-26T12:41:14.44Z</time></trkpt><trkpt lat="45.8522546" lon="14.1348512"><ele>761.3333333333334</ele><time>2026-04-26T12:41:15.441Z</time></trkpt><trkpt lat="45.852325" lon="14.1349096"><ele>763.6666666666667</ele><time>2026-04-26T12:41:16.44Z</time></trkpt><trkpt lat="45.8523649" lon="14.134987"><ele>766.0</ele><time>2026-04-26T12:41:17.44Z</time></trkpt><trkpt lat="45.8523809" lon="14.1350921"><ele>766.0</ele><time>2026-04-26T12:41:18.44Z</time></trkpt><trkpt lat="45.8523872" lon="14.1352031"><ele>766.0</ele><time>2026-04-26T12:41:19.44Z</time></trkpt><trkpt lat="45.8523901" lon="14.1353348"><ele>766.0</ele><time>2026-04-26T12:41:20.44Z</time></trkpt><trkpt lat="45.8523639" lon="14.1354991"><ele>766.0</ele><time>2026-04-26T12:41:21.44Z</time></trkpt><trkpt lat="45.8523336" lon="14.1356729"><ele>766.0</ele><time>2026-04-26T12:41:22.44Z</time></trkpt><trkpt lat="45.8522941" lon="14.1358377"><ele>764.4</ele><time>2026-04-26T12:41:23.44Z</time></trkpt><trkpt lat="45.8522658" lon="14.1359804"><ele>762.8</ele><time>2026-04-26T12:41:24.44Z</time></trkpt><trkpt lat="45.8522459" lon="14.1361092"><ele>761.1999999999999</ele><time>2026-04-26T12:41:25.441Z</time></trkpt><trkpt lat="45.8522386" lon="14.1362319"><ele>759.5999999999999</ele><time>2026-04-26T12:41:26.44Z</time></trkpt><trkpt lat="45.8522592" lon="14.1363444"><ele>758.0</ele><time>2026-04-26T12:41:27.44Z</time></trkpt><trkpt lat="45.8523089" lon="14.1364482"><ele>758.0</ele><time>2026-04-26T12:41:28.44Z</time></trkpt><trkpt lat="45.8523763" lon="14.1365467"><ele>758.0</ele><time>2026-04-26T12:41:29.44Z</time></trkpt><trkpt lat="45.8524575" lon="14.1366629"><ele>758.0</ele><time>2026-04-26T12:41:30.44Z</time></trkpt><trkpt lat="45.852549" lon="14.1367689"><ele>758.0</ele><time>2026-04-26T12:41:31.44Z</time></trkpt><trkpt lat="45.8526263" lon="14.136887"><ele>758.0</ele><time>2026-04-26T12:41:32.44Z</time></trkpt><trkpt lat="45.8526815" lon="14.1370243"><ele>758.2</ele><time>2026-04-26T12:41:33.44Z</time></trkpt><trkpt lat="45.8527299" lon="14.1371675"><ele>758.4</ele><time>2026-04-26T12:41:34.441Z</time></trkpt><trkpt lat="45.8527565" lon="14.137305"><ele>758.6</ele><time>2026-04-26T12:41:35.44Z</time></trkpt><trkpt lat="45.8527632" lon="14.1374393"><ele>758.8000000000001</ele><time>2026-04-26T12:41:36.44Z</time></trkpt><trkpt lat="45.8527628" lon="14.1375733"><ele>759.0</ele><time>2026-04-26T12:41:37.44Z</time></trkpt><trkpt lat="45.8527683" lon="14.1377072"><ele>759.0</ele><time>2026-04-26T12:41:38.441Z</time></trkpt><trkpt lat="45.8527816" lon="14.1378313"><ele>759.0</ele><time>2026-04-26T12:41:39.441Z</time></trkpt><trkpt lat="45.8528225" lon="14.1379297"><ele>759.0</ele><time>2026-04-26T12:41:40.44Z</time></trkpt><trkpt lat="45.8528779" lon="14.1380142"><ele>759.0</ele><time>2026-04-26T12:41:41.441Z</time></trkpt><trkpt lat="45.8529455" lon="14.1380978"><ele>759.0</ele><time>2026-04-26T12:41:42.44Z</time></trkpt><trkpt lat="45.8530163" lon="14.1381684"><ele>759.0</ele><time>2026-04-26T12:41:43.44Z</time></trkpt><trkpt lat="45.853086" lon="14.1382297"><ele>759.0</ele><time>2026-04-26T12:41:44.44Z</time></trkpt><trkpt lat="45.8531561" lon="14.1382634"><ele>759.0</ele><time>2026-04-26T12:41:45.44Z</time></trkpt><trkpt lat="45.8532314" lon="14.138266"><ele>759.0</ele><time>2026-04-26T12:41:46.44Z</time></trkpt><trkpt lat="45.8533079" lon="14.1382406"><ele>759.0</ele><time>2026-04-26T12:41:47.44Z</time></trkpt><trkpt lat="45.8533912" lon="14.1381901"><ele>759.0</ele><time>2026-04-26T12:41:48.44Z</time></trkpt><trkpt lat="45.8534812" lon="14.1381146"><ele>759.0</ele><time>2026-04-26T12:41:49.44Z</time></trkpt><trkpt lat="45.8535599" lon="14.1380526"><ele>759.6666666666666</ele><time>2026-04-26T12:41:50.44Z</time></trkpt><trkpt lat="45.8536335" lon="14.1380345"><ele>760.3333333333334</ele><time>2026-04-26T12:41:51.44Z</time></trkpt><trkpt lat="45.8536992" lon="14.1380493"><ele>761.0</ele><time>2026-04-26T12:41:52.44Z</time></trkpt><trkpt lat="45.8537827" lon="14.1381659"><ele>761.6666666666667</ele><time>2026-04-26T12:41:54.44Z</time></trkpt><trkpt lat="45.8538067" lon="14.1382517"><ele>762.3333333333334</ele><time>2026-04-26T12:41:55.44Z</time></trkpt><trkpt lat="45.8538128" lon="14.1383673"><ele>763.0</ele><time>2026-04-26T12:41:56.44Z</time></trkpt><trkpt lat="45.8537978" lon="14.1385002"><ele>763.0</ele><time>2026-04-26T12:41:57.44Z</time></trkpt><trkpt lat="45.8537919" lon="14.1386295"><ele>763.0</ele><time>2026-04-26T12:41:58.44Z</time></trkpt><trkpt lat="45.8538076" lon="14.1387345"><ele>763.0</ele><time>2026-04-26T12:41:59.44Z</time></trkpt><trkpt lat="45.8538388" lon="14.1388501"><ele>763.0</ele><time>2026-04-26T12:42:00.44Z</time></trkpt><trkpt lat="45.8538943" lon="14.1389811"><ele>763.0</ele><time>2026-04-26T12:42:01.44Z</time></trkpt><trkpt lat="45.853961" lon="14.1391179"><ele>760.0</ele><time>2026-04-26T12:42:02.44Z</time></trkpt><trkpt lat="45.8540264" lon="14.1392531"><ele>757.0</ele><time>2026-04-26T12:42:03.44Z</time></trkpt><trkpt lat="45.8540854" lon="14.1393789"><ele>754.0</ele><time>2026-04-26T12:42:04.44Z</time></trkpt><trkpt lat="45.8541235" lon="14.1394883"><ele>751.0</ele><time>2026-04-26T12:42:05.44Z</time></trkpt><trkpt lat="45.854131" lon="14.1395847"><ele>748.0</ele><time>2026-04-26T12:42:06.44Z</time></trkpt><trkpt lat="45.854136" lon="14.1396825"><ele>745.0</ele><time>2026-04-26T12:42:07.44Z</time></trkpt><trkpt lat="45.8541446" lon="14.1397822"><ele>745.0</ele><time>2026-04-26T12:42:08.44Z</time></trkpt><trkpt lat="45.8541766" lon="14.1398943"><ele>745.0</ele><time>2026-04-26T12:42:09.44Z</time></trkpt><trkpt lat="45.8542469" lon="14.1400151"><ele>745.0</ele><time>2026-04-26T12:42:10.44Z</time></trkpt><trkpt lat="45.8543224" lon="14.1401243"><ele>745.0</ele><time>2026-04-26T12:42:11.44Z</time></trkpt><trkpt lat="45.8543791" lon="14.1402195"><ele>745.0</ele><time>2026-04-26T12:42:12.44Z</time></trkpt><trkpt lat="45.8544126" lon="14.1403255"><ele>745.0</ele><time>2026-04-26T12:42:13.44Z</time></trkpt><trkpt lat="45.8544165" lon="14.1404343"><ele>745.0</ele><time>2026-04-26T12:42:14.44Z</time></trkpt><trkpt lat="45.8544188" lon="14.1405479"><ele>745.0</ele><time>2026-04-26T12:42:15.44Z</time></trkpt><trkpt lat="45.8544346" lon="14.140669"><ele>745.0</ele><time>2026-04-26T12:42:16.44Z</time></trkpt><trkpt lat="45.8544733" lon="14.1407786"><ele>745.0</ele><time>2026-04-26T12:42:17.44Z</time></trkpt><trkpt lat="45.8545284" lon="14.1408761"><ele>745.0</ele><time>2026-04-26T12:42:18.44Z</time></trkpt><trkpt lat="45.854595" lon="14.1409565"><ele>742.6</ele><time>2026-04-26T12:42:19.44Z</time></trkpt><trkpt lat="45.8546878" lon="14.1410236"><ele>740.2</ele><time>2026-04-26T12:42:20.44Z</time></trkpt><trkpt lat="45.8547896" lon="14.1410885"><ele>737.8</ele><time>2026-04-26T12:42:21.44Z</time></trkpt><trkpt lat="45.8548799" lon="14.1411437"><ele>735.4</ele><time>2026-04-26T12:42:22.44Z</time></trkpt><trkpt lat="45.8549511" lon="14.1412059"><ele>733.0</ele><time>2026-04-26T12:42:23.44Z</time></trkpt><trkpt lat="45.8550096" lon="14.1412944"><ele>733.0</ele><time>2026-04-26T12:42:24.44Z</time></trkpt><trkpt lat="45.8550661" lon="14.1414216"><ele>733.0</ele><time>2026-04-26T12:42:25.44Z</time></trkpt><trkpt lat="45.8551261" lon="14.1415744"><ele>733.0</ele><time>2026-04-26T12:42:26.44Z</time></trkpt><trkpt lat="45.8551776" lon="14.1417426"><ele>733.0</ele><time>2026-04-26T12:42:27.44Z</time></trkpt><trkpt lat="45.8552263" lon="14.1419126"><ele>732.0</ele><time>2026-04-26T12:42:28.44Z</time></trkpt><trkpt lat="45.8552687" lon="14.1420683"><ele>731.0</ele><time>2026-04-26T12:42:29.44Z</time></trkpt><trkpt lat="45.8552955" lon="14.1421902"><ele>730.0</ele><time>2026-04-26T12:42:30.441Z</time></trkpt><trkpt lat="45.855307" lon="14.142284"><ele>729.0</ele><time>2026-04-26T12:42:31.441Z</time></trkpt><trkpt lat="45.8553004" lon="14.1423781"><ele>728.0</ele><time>2026-04-26T12:42:32.44Z</time></trkpt><trkpt lat="45.855274" lon="14.1424843"><ele>727.0</ele><time>2026-04-26T12:42:33.441Z</time></trkpt><trkpt lat="45.855241" lon="14.142595"><ele>727.0</ele><time>2026-04-26T12:42:34.44Z</time></trkpt><trkpt lat="45.855196" lon="14.1427171"><ele>727.0</ele><time>2026-04-26T12:42:35.44Z</time></trkpt><trkpt lat="45.8551454" lon="14.1428355"><ele>727.0</ele><time>2026-04-26T12:42:36.44Z</time></trkpt><trkpt lat="45.8551058" lon="14.1429388"><ele>727.0</ele><time>2026-04-26T12:42:37.44Z</time></trkpt><trkpt lat="45.8550756" lon="14.1430251"><ele>727.0</ele><time>2026-04-26T12:42:38.44Z</time></trkpt><trkpt lat="45.8550334" lon="14.1430932"><ele>727.0</ele><time>2026-04-26T12:42:39.44Z</time></trkpt><trkpt lat="45.8549617" lon="14.1431464"><ele>726.75</ele><time>2026-04-26T12:42:40.44Z</time></trkpt><trkpt lat="45.8548571" lon="14.143196"><ele>726.5</ele><time>2026-04-26T12:42:41.441Z</time></trkpt><trkpt lat="45.8547336" lon="14.1432537"><ele>726.25</ele><time>2026-04-26T12:42:42.44Z</time></trkpt><trkpt lat="45.8546127" lon="14.1433165"><ele>726.0</ele><time>2026-04-26T12:42:43.44Z</time></trkpt><trkpt lat="45.8545072" lon="14.143382"><ele>726.0</ele><time>2026-04-26T12:42:44.44Z</time></trkpt><trkpt lat="45.8544109" lon="14.1434397"><ele>726.0</ele><time>2026-04-26T12:42:45.44Z</time></trkpt><trkpt lat="45.8543185" lon="14.1434746"><ele>726.0</ele><time>2026-04-26T12:42:46.44Z</time></trkpt><trkpt lat="45.8542291" lon="14.1434765"><ele>726.0</ele><time>2026-04-26T12:42:47.441Z</time></trkpt><trkpt lat="45.8541439" lon="14.1434699"><ele>726.0</ele><time>2026-04-26T12:42:48.44Z</time></trkpt><trkpt lat="45.8540483" lon="14.1434474"><ele>726.5</ele><time>2026-04-26T12:42:49.44Z</time></trkpt><trkpt lat="45.8539418" lon="14.1434025"><ele>727.0</ele><time>2026-04-26T12:42:50.44Z</time></trkpt><trkpt lat="45.8538495" lon="14.1433624"><ele>727.5</ele><time>2026-04-26T12:42:51.44Z</time></trkpt><trkpt lat="45.8537684" lon="14.1433608"><ele>728.0</ele><time>2026-04-26T12:42:52.44Z</time></trkpt><trkpt lat="45.8536945" lon="14.1433765"><ele>728.5</ele><time>2026-04-26T12:42:53.44Z</time></trkpt><trkpt lat="45.8536288" lon="14.1434093"><ele>729.0</ele><time>2026-04-26T12:42:54.44Z</time></trkpt><trkpt lat="45.8535739" lon="14.1434657"><ele>729.0</ele><time>2026-04-26T12:42:55.44Z</time></trkpt><trkpt lat="45.8535248" lon="14.1435244"><ele>729.0</ele><time>2026-04-26T12:42:56.44Z</time></trkpt><trkpt lat="45.8534677" lon="14.1436315"><ele>729.0</ele><time>2026-04-26T12:42:58.44Z</time></trkpt><trkpt lat="45.8534716" lon="14.1437376"><ele>729.0</ele><time>2026-04-26T12:43:00.441Z</time></trkpt><trkpt lat="45.8535296" lon="14.1438564"><ele>729.0</ele><time>2026-04-26T12:43:02.44Z</time></trkpt><trkpt lat="45.8535873" lon="14.1439186"><ele>729.0</ele><time>2026-04-26T12:43:03.44Z</time></trkpt><trkpt lat="45.8536726" lon="14.1440008"><ele>727.25</ele><time>2026-04-26T12:43:04.441Z</time></trkpt><trkpt lat="45.8537798" lon="14.1440934"><ele>725.5</ele><time>2026-04-26T12:43:05.44Z</time></trkpt><trkpt lat="45.8539006" lon="14.1441835"><ele>723.75</ele><time>2026-04-26T12:43:06.441Z</time></trkpt><trkpt lat="45.8540245" lon="14.1442704"><ele>722.0</ele><time>2026-04-26T12:43:07.44Z</time></trkpt><trkpt lat="45.8541595" lon="14.1443679"><ele>722.0</ele><time>2026-04-26T12:43:08.44Z</time></trkpt><trkpt lat="45.854288" lon="14.1444725"><ele>722.0</ele><time>2026-04-26T12:43:09.44Z</time></trkpt><trkpt lat="45.8543831" lon="14.1445591"><ele>722.0</ele><time>2026-04-26T12:43:10.44Z</time></trkpt><trkpt lat="45.8544714" lon="14.1446128"><ele>722.0</ele><time>2026-04-26T12:43:11.44Z</time></trkpt><trkpt lat="45.8545782" lon="14.1446334"><ele>722.5</ele><time>2026-04-26T12:43:12.44Z</time></trkpt><trkpt lat="45.8546983" lon="14.1446316"><ele>723.0</ele><time>2026-04-26T12:43:13.44Z</time></trkpt><trkpt lat="45.8548306" lon="14.1446266"><ele>723.5</ele><time>2026-04-26T12:43:14.44Z</time></trkpt><trkpt lat="45.854963" lon="14.1446484"><ele>724.0</ele><time>2026-04-26T12:43:15.441Z</time></trkpt><trkpt lat="45.855084" lon="14.1446815"><ele>727.25</ele><time>2026-04-26T12:43:16.44Z</time></trkpt><trkpt lat="45.8551923" lon="14.14469"><ele>730.5</ele><time>2026-04-26T12:43:17.44Z</time></trkpt><trkpt lat="45.8553012" lon="14.1446666"><ele>733.75</ele><time>2026-04-26T12:43:18.441Z</time></trkpt><trkpt lat="45.8554207" lon="14.1446104"><ele>737.0</ele><time>2026-04-26T12:43:19.44Z</time></trkpt><trkpt lat="45.8555483" lon="14.1445584"><ele>737.0</ele><time>2026-04-26T12:43:20.44Z</time></trkpt><trkpt lat="45.8556646" lon="14.1445101"><ele>737.0</ele><time>2026-04-26T12:43:21.44Z</time></trkpt><trkpt lat="45.8557534" lon="14.1444764"><ele>737.0</ele><time>2026-04-26T12:43:22.44Z</time></trkpt><trkpt lat="45.855846" lon="14.1444671"><ele>737.0</ele><time>2026-04-26T12:43:23.441Z</time></trkpt><trkpt lat="45.8559448" lon="14.1445104"><ele>737.0</ele><time>2026-04-26T12:43:24.44Z</time></trkpt><trkpt lat="45.8560538" lon="14.144583"><ele>738.4000000000001</ele><time>2026-04-26T12:43:25.44Z</time></trkpt><trkpt lat="45.8561477" lon="14.1446204"><ele>739.8000000000001</ele><time>2026-04-26T12:43:26.44Z</time></trkpt><trkpt lat="45.8562347" lon="14.1446333"><ele>741.2</ele><time>2026-04-26T12:43:27.441Z</time></trkpt><trkpt lat="45.8563221" lon="14.1445949"><ele>742.6</ele><time>2026-04-26T12:43:28.441Z</time></trkpt><trkpt lat="45.85639" lon="14.1445104"><ele>744.0</ele><time>2026-04-26T12:43:29.44Z</time></trkpt><trkpt lat="45.8564365" lon="14.1443809"><ele>744.0</ele><time>2026-04-26T12:43:30.44Z</time></trkpt><trkpt lat="45.8564761" lon="14.1442466"><ele>744.0</ele><time>2026-04-26T12:43:31.44Z</time></trkpt><trkpt lat="45.8565059" lon="14.1441146"><ele>744.0</ele><time>2026-04-26T12:43:32.44Z</time></trkpt><trkpt lat="45.8565515" lon="14.1440272"><ele>744.0</ele><time>2026-04-26T12:43:33.44Z</time></trkpt><trkpt lat="45.8566245" lon="14.1439467"><ele>744.0</ele><time>2026-04-26T12:43:34.44Z</time></trkpt><trkpt lat="45.8567222" lon="14.1438595"><ele>742.0</ele><time>2026-04-26T12:43:35.44Z</time></trkpt><trkpt lat="45.856829" lon="14.1437869"><ele>740.0</ele><time>2026-04-26T12:43:36.44Z</time></trkpt><trkpt lat="45.8569456" lon="14.1437232"><ele>738.0</ele><time>2026-04-26T12:43:37.44Z</time></trkpt><trkpt lat="45.8570721" lon="14.143683"><ele>736.0</ele><time>2026-04-26T12:43:38.44Z</time></trkpt><trkpt lat="45.857204" lon="14.1436821"><ele>736.0</ele><time>2026-04-26T12:43:39.44Z</time></trkpt><trkpt lat="45.8573144" lon="14.1437063"><ele>736.0</ele><time>2026-04-26T12:43:40.441Z</time></trkpt><trkpt lat="45.8574028" lon="14.1437635"><ele>736.0</ele><time>2026-04-26T12:43:41.44Z</time></trkpt><trkpt lat="45.8574796" lon="14.1438264"><ele>736.0</ele><time>2026-04-26T12:43:42.44Z</time></trkpt><trkpt lat="45.8575546" lon="14.1439054"><ele>736.0</ele><time>2026-04-26T12:43:43.44Z</time></trkpt><trkpt lat="45.8576314" lon="14.1440094"><ele>737.5</ele><time>2026-04-26T12:43:44.44Z</time></trkpt><trkpt lat="45.8577125" lon="14.1441288"><ele>739.0</ele><time>2026-04-26T12:43:45.44Z</time></trkpt><trkpt lat="45.8578066" lon="14.1442879"><ele>740.5</ele><time>2026-04-26T12:43:46.44Z</time></trkpt><trkpt lat="45.8579205" lon="14.1444486"><ele>742.0</ele><time>2026-04-26T12:43:47.44Z</time></trkpt><trkpt lat="45.858045" lon="14.1445751"><ele>742.0</ele><time>2026-04-26T12:43:48.44Z</time></trkpt><trkpt lat="45.8581613" lon="14.1446822"><ele>742.0</ele><time>2026-04-26T12:43:49.44Z</time></trkpt><trkpt lat="45.8582536" lon="14.1447761"><ele>742.0</ele><time>2026-04-26T12:43:50.441Z</time></trkpt><trkpt lat="45.858329" lon="14.1448554"><ele>742.0</ele><time>2026-04-26T12:43:51.44Z</time></trkpt><trkpt lat="45.8584161" lon="14.1449141"><ele>742.0</ele><time>2026-04-26T12:43:52.44Z</time></trkpt><trkpt lat="45.8585212" lon="14.1449477"><ele>746.5</ele><time>2026-04-26T12:43:53.44Z</time></trkpt><trkpt lat="45.8586397" lon="14.1449546"><ele>751.0</ele><time>2026-04-26T12:43:54.44Z</time></trkpt><trkpt lat="45.8587828" lon="14.1449431"><ele>755.5</ele><time>2026-04-26T12:43:55.44Z</time></trkpt><trkpt lat="45.8589124" lon="14.1449337"><ele>760.0</ele><time>2026-04-26T12:43:56.44Z</time></trkpt><trkpt lat="45.8590333" lon="14.1449151"><ele>760.0</ele><time>2026-04-26T12:43:57.44Z</time></trkpt><trkpt lat="45.8591404" lon="14.1448875"><ele>760.0</ele><time>2026-04-26T12:43:58.44Z</time></trkpt><trkpt lat="45.8592424" lon="14.1448226"><ele>760.0</ele><time>2026-04-26T12:43:59.441Z</time></trkpt><trkpt lat="45.8593314" lon="14.1447369"><ele>760.0</ele><time>2026-04-26T12:44:00.441Z</time></trkpt><trkpt lat="45.8594219" lon="14.144657"><ele>760.0</ele><time>2026-04-26T12:44:01.44Z</time></trkpt><trkpt lat="45.8594982" lon="14.1446091"><ele>757.3333333333334</ele><time>2026-04-26T12:44:02.44Z</time></trkpt><trkpt lat="45.859578" lon="14.1445768"><ele>754.6666666666667</ele><time>2026-04-26T12:44:03.44Z</time></trkpt><trkpt lat="45.8596984" lon="14.1445914"><ele>752.0</ele><time>2026-04-26T12:44:05.44Z</time></trkpt><trkpt lat="45.8597767" lon="14.1446186"><ele>749.3333333333334</ele><time>2026-04-26T12:44:06.44Z</time></trkpt><trkpt lat="45.8598505" lon="14.1446595"><ele>746.6666666666666</ele><time>2026-04-26T12:44:07.44Z</time></trkpt><trkpt lat="45.8599254" lon="14.1447041"><ele>744.0</ele><time>2026-04-26T12:44:08.44Z</time></trkpt><trkpt lat="45.8600067" lon="14.1447485"><ele>744.0</ele><time>2026-04-26T12:44:09.44Z</time></trkpt><trkpt lat="45.8600866" lon="14.1448224"><ele>744.0</ele><time>2026-04-26T12:44:10.44Z</time></trkpt><trkpt lat="45.8601613" lon="14.1449183"><ele>744.0</ele><time>2026-04-26T12:44:11.44Z</time></trkpt><trkpt lat="45.8602425" lon="14.1450189"><ele>744.0</ele><time>2026-04-26T12:44:12.44Z</time></trkpt><trkpt lat="45.8603185" lon="14.1451149"><ele>744.0</ele><time>2026-04-26T12:44:13.441Z</time></trkpt><trkpt lat="45.8603993" lon="14.1452141"><ele>745.0</ele><time>2026-04-26T12:44:14.44Z</time></trkpt><trkpt lat="45.8604967" lon="14.1453088"><ele>746.0</ele><time>2026-04-26T12:44:15.44Z</time></trkpt><trkpt lat="45.8606145" lon="14.145396"><ele>747.0</ele><time>2026-04-26T12:44:16.44Z</time></trkpt><trkpt lat="45.8607381" lon="14.1454873"><ele>748.0</ele><time>2026-04-26T12:44:17.441Z</time></trkpt><trkpt lat="45.8608632" lon="14.1455641"><ele>748.0</ele><time>2026-04-26T12:44:18.441Z</time></trkpt><trkpt lat="45.8609726" lon="14.1456274"><ele>748.0</ele><time>2026-04-26T12:44:19.44Z</time></trkpt><trkpt lat="45.8610659" lon="14.145682"><ele>748.0</ele><time>2026-04-26T12:44:20.44Z</time></trkpt><trkpt lat="45.861164" lon="14.1457316"><ele>748.0</ele><time>2026-04-26T12:44:21.44Z</time></trkpt><trkpt lat="45.8612731" lon="14.1458466"><ele>748.0</ele><time>2026-04-26T12:44:22.44Z</time></trkpt><trkpt lat="45.8614" lon="14.1459789"><ele>748.0</ele><time>2026-04-26T12:44:23.44Z</time></trkpt><trkpt lat="45.8615082" lon="14.146097"><ele>748.0</ele><time>2026-04-26T12:44:24.44Z</time></trkpt><trkpt lat="45.8616027" lon="14.1461692"><ele>748.0</ele><time>2026-04-26T12:44:25.44Z</time></trkpt><trkpt lat="45.8616744" lon="14.1462728"><ele>748.0</ele><time>2026-04-26T12:44:26.44Z</time></trkpt><trkpt lat="45.8617528" lon="14.1464053"><ele>748.0</ele><time>2026-04-26T12:44:27.44Z</time></trkpt><trkpt lat="45.8618259" lon="14.1465485"><ele>748.0</ele><time>2026-04-26T12:44:28.44Z</time></trkpt><trkpt lat="45.8618771" lon="14.1466696"><ele>748.0</ele><time>2026-04-26T12:44:29.44Z</time></trkpt><trkpt lat="45.8619153" lon="14.146759"><ele>748.0</ele><time>2026-04-26T12:44:30.44Z</time></trkpt><trkpt lat="45.8620292" lon="14.1468255"><ele>751.0</ele><time>2026-04-26T12:44:32.44Z</time></trkpt><trkpt lat="45.8621295" lon="14.1468187"><ele>754.0</ele><time>2026-04-26T12:44:33.44Z</time></trkpt><trkpt lat="45.8622662" lon="14.1468594"><ele>757.0</ele><time>2026-04-26T12:44:34.44Z</time></trkpt><trkpt lat="45.8623999" lon="14.1468955"><ele>760.0</ele><time>2026-04-26T12:44:35.44Z</time></trkpt><trkpt lat="45.8625337" lon="14.1469405"><ele>758.75</ele><time>2026-04-26T12:44:36.44Z</time></trkpt><trkpt lat="45.8626364" lon="14.1469889"><ele>757.5</ele><time>2026-04-26T12:44:37.44Z</time></trkpt><trkpt lat="45.8627283" lon="14.1470431"><ele>756.25</ele><time>2026-04-26T12:44:38.44Z</time></trkpt><trkpt lat="45.8628196" lon="14.1471436"><ele>755.0</ele><time>2026-04-26T12:44:39.44Z</time></trkpt><trkpt lat="45.8629401" lon="14.1472731"><ele>760.6666666666666</ele><time>2026-04-26T12:44:40.44Z</time></trkpt><trkpt lat="45.8630753" lon="14.1474059"><ele>766.3333333333333</ele><time>2026-04-26T12:44:41.44Z</time></trkpt><trkpt lat="45.8631988" lon="14.147551"><ele>772.0</ele><time>2026-04-26T12:44:42.44Z</time></trkpt><trkpt lat="45.8633119" lon="14.1476608"><ele>772.0</ele><time>2026-04-26T12:44:43.44Z</time></trkpt><trkpt lat="45.8634085" lon="14.147745"><ele>772.0</ele><time>2026-04-26T12:44:44.44Z</time></trkpt><trkpt lat="45.8634915" lon="14.1478199"><ele>772.0</ele><time>2026-04-26T12:44:45.44Z</time></trkpt><trkpt lat="45.86355" lon="14.1479026"><ele>772.0</ele><time>2026-04-26T12:44:46.44Z</time></trkpt><trkpt lat="45.8635744" lon="14.1480161"><ele>772.0</ele><time>2026-04-26T12:44:47.441Z</time></trkpt><trkpt lat="45.8635897" lon="14.1481283"><ele>772.6666666666666</ele><time>2026-04-26T12:44:48.44Z</time></trkpt><trkpt lat="45.8636058" lon="14.1482384"><ele>773.3333333333333</ele><time>2026-04-26T12:44:49.44Z</time></trkpt><trkpt lat="45.8636986" lon="14.148352"><ele>774.0</ele><time>2026-04-26T12:44:51.44Z</time></trkpt><trkpt lat="45.8637595" lon="14.1483829"><ele>774.6666666666667</ele><time>2026-04-26T12:44:52.44Z</time></trkpt><trkpt lat="45.8638244" lon="14.1483921"><ele>775.3333333333334</ele><time>2026-04-26T12:44:53.44Z</time></trkpt><trkpt lat="45.8638906" lon="14.148393"><ele>776.0</ele><time>2026-04-26T12:44:54.44Z</time></trkpt><trkpt lat="45.8639737" lon="14.1483797"><ele>776.0</ele><time>2026-04-26T12:44:55.44Z</time></trkpt><trkpt lat="45.8640751" lon="14.1483377"><ele>776.0</ele><time>2026-04-26T12:44:56.44Z</time></trkpt><trkpt lat="45.8641821" lon="14.1482905"><ele>776.0</ele><time>2026-04-26T12:44:57.44Z</time></trkpt><trkpt lat="45.864282" lon="14.1482744"><ele>776.0</ele><time>2026-04-26T12:44:58.44Z</time></trkpt><trkpt lat="45.8643892" lon="14.1482854"><ele>776.0</ele><time>2026-04-26T12:44:59.44Z</time></trkpt><trkpt lat="45.8645024" lon="14.1483331"><ele>774.4</ele><time>2026-04-26T12:45:00.44Z</time></trkpt><trkpt lat="45.8646243" lon="14.1483918"><ele>772.8</ele><time>2026-04-26T12:45:01.44Z</time></trkpt><trkpt lat="45.8647178" lon="14.1484412"><ele>771.1999999999999</ele><time>2026-04-26T12:45:02.44Z</time></trkpt><trkpt lat="45.8647975" lon="14.1484913"><ele>769.5999999999999</ele><time>2026-04-26T12:45:03.44Z</time></trkpt><trkpt lat="45.8648699" lon="14.1485528"><ele>768.0</ele><time>2026-04-26T12:45:04.44Z</time></trkpt><trkpt lat="45.8649211" lon="14.148662"><ele>768.0</ele><time>2026-04-26T12:45:05.44Z</time></trkpt><trkpt lat="45.8649658" lon="14.1487628"><ele>768.0</ele><time>2026-04-26T12:45:06.44Z</time></trkpt><trkpt lat="45.8650264" lon="14.1488455"><ele>768.0</ele><time>2026-04-26T12:45:07.44Z</time></trkpt><trkpt lat="45.8651153" lon="14.148908"><ele>768.0</ele><time>2026-04-26T12:45:08.44Z</time></trkpt><trkpt lat="45.8652287" lon="14.1489553"><ele>768.0</ele><time>2026-04-26T12:45:09.44Z</time></trkpt><trkpt lat="45.8653597" lon="14.1490074"><ele>767.4</ele><time>2026-04-26T12:45:10.44Z</time></trkpt><trkpt lat="45.8654872" lon="14.1490409"><ele>766.8</ele><time>2026-04-26T12:45:11.44Z</time></trkpt><trkpt lat="45.8656022" lon="14.1490595"><ele>766.2</ele><time>2026-04-26T12:45:12.44Z</time></trkpt><trkpt lat="45.8657109" lon="14.1490869"><ele>765.6</ele><time>2026-04-26T12:45:13.441Z</time></trkpt><trkpt lat="45.8657949" lon="14.1491357"><ele>765.0</ele><time>2026-04-26T12:45:14.441Z</time></trkpt><trkpt lat="45.8658728" lon="14.1491991"><ele>765.5</ele><time>2026-04-26T12:45:15.44Z</time></trkpt><trkpt lat="45.8659393" lon="14.1492702"><ele>766.0</ele><time>2026-04-26T12:45:16.44Z</time></trkpt><trkpt lat="45.8659938" lon="14.1493376"><ele>766.5</ele><time>2026-04-26T12:45:17.44Z</time></trkpt><trkpt lat="45.8660302" lon="14.1494294"><ele>767.0</ele><time>2026-04-26T12:45:18.44Z</time></trkpt><trkpt lat="45.8660538" lon="14.149549"><ele>767.5</ele><time>2026-04-26T12:45:19.44Z</time></trkpt><trkpt lat="45.8660741" lon="14.1496563"><ele>768.0</ele><time>2026-04-26T12:45:20.44Z</time></trkpt><trkpt lat="45.8661143" lon="14.1497378"><ele>768.0</ele><time>2026-04-26T12:45:21.44Z</time></trkpt><trkpt lat="45.86622" lon="14.1498202"><ele>768.0</ele><time>2026-04-26T12:45:23.44Z</time></trkpt><trkpt lat="45.8663463" lon="14.1497875"><ele>768.0</ele><time>2026-04-26T12:45:25.44Z</time></trkpt><trkpt lat="45.8664153" lon="14.1497197"><ele>768.0</ele><time>2026-04-26T12:45:26.44Z</time></trkpt><trkpt lat="45.8664893" lon="14.1496352"><ele>768.0</ele><time>2026-04-26T12:45:27.44Z</time></trkpt><trkpt lat="45.8665594" lon="14.149577"><ele>768.0</ele><time>2026-04-26T12:45:28.44Z</time></trkpt><trkpt lat="45.8666388" lon="14.1495502"><ele>768.0</ele><time>2026-04-26T12:45:29.44Z</time></trkpt><trkpt lat="45.8667307" lon="14.1495496"><ele>768.0</ele><time>2026-04-26T12:45:30.44Z</time></trkpt><trkpt lat="45.8668389" lon="14.1495783"><ele>768.0</ele><time>2026-04-26T12:45:31.441Z</time></trkpt><trkpt lat="45.866935" lon="14.1496147"><ele>768.0</ele><time>2026-04-26T12:45:32.44Z</time></trkpt><trkpt lat="45.8670256" lon="14.1496734"><ele>768.0</ele><time>2026-04-26T12:45:33.44Z</time></trkpt><trkpt lat="45.867111" lon="14.1497492"><ele>768.0</ele><time>2026-04-26T12:45:34.44Z</time></trkpt><trkpt lat="45.8671886" lon="14.1498356"><ele>768.0</ele><time>2026-04-26T12:45:35.44Z</time></trkpt><trkpt lat="45.8672374" lon="14.149929"><ele>768.0</ele><time>2026-04-26T12:45:36.44Z</time></trkpt><trkpt lat="45.867278" lon="14.150043"><ele>768.0</ele><time>2026-04-26T12:45:37.441Z</time></trkpt><trkpt lat="45.8673109" lon="14.1501776"><ele>768.8333333333334</ele><time>2026-04-26T12:45:38.44Z</time></trkpt><trkpt lat="45.8673326" lon="14.1503237"><ele>769.6666666666667</ele><time>2026-04-26T12:45:39.44Z</time></trkpt><trkpt lat="45.8673436" lon="14.1504561"><ele>770.5</ele><time>2026-04-26T12:45:40.44Z</time></trkpt><trkpt lat="45.8673517" lon="14.150569"><ele>771.3333333333334</ele><time>2026-04-26T12:45:41.44Z</time></trkpt><trkpt lat="45.8673847" lon="14.1506552"><ele>772.1666666666667</ele><time>2026-04-26T12:45:42.44Z</time></trkpt><trkpt lat="45.8674343" lon="14.1507283"><ele>773.0</ele><time>2026-04-26T12:45:43.44Z</time></trkpt><trkpt lat="45.8675105" lon="14.150766"><ele>773.0000000000001</ele><time>2026-04-26T12:45:44.44Z</time></trkpt><trkpt lat="45.8675951" lon="14.1507731"><ele>773.0</ele><time>2026-04-26T12:45:45.44Z</time></trkpt><trkpt lat="45.8676841" lon="14.1507686"><ele>773.0</ele><time>2026-04-26T12:45:46.44Z</time></trkpt><trkpt lat="45.8677727" lon="14.1507666"><ele>773.0</ele><time>2026-04-26T12:45:47.441Z</time></trkpt><trkpt lat="45.8678555" lon="14.1507731"><ele>773.0000000000001</ele><time>2026-04-26T12:45:48.44Z</time></trkpt><trkpt lat="45.8679341" lon="14.1507992"><ele>773.0</ele><time>2026-04-26T12:45:49.44Z</time></trkpt><trkpt lat="45.8679931" lon="14.1508672"><ele>772.8333333333334</ele><time>2026-04-26T12:45:50.44Z</time></trkpt><trkpt lat="45.8680374" lon="14.1509545"><ele>772.6666666666667</ele><time>2026-04-26T12:45:51.44Z</time></trkpt><trkpt lat="45.86807" lon="14.1510684"><ele>772.5</ele><time>2026-04-26T12:45:52.44Z</time></trkpt><trkpt lat="45.8680907" lon="14.1512039"><ele>772.3333333333333</ele><time>2026-04-26T12:45:53.44Z</time></trkpt><trkpt lat="45.8681078" lon="14.1513486"><ele>772.1666666666666</ele><time>2026-04-26T12:45:54.44Z</time></trkpt><trkpt lat="45.8681157" lon="14.1514724"><ele>772.0</ele><time>2026-04-26T12:45:55.441Z</time></trkpt><trkpt lat="45.8681218" lon="14.1515796"><ele>771.6666666666666</ele><time>2026-04-26T12:45:56.44Z</time></trkpt><trkpt lat="45.8681413" lon="14.1516817"><ele>771.3333333333333</ele><time>2026-04-26T12:45:57.441Z</time></trkpt><trkpt lat="45.8681758" lon="14.1517767"><ele>771.0</ele><time>2026-04-26T12:45:58.441Z</time></trkpt><trkpt lat="45.8682366" lon="14.1518642"><ele>770.6666666666667</ele><time>2026-04-26T12:45:59.44Z</time></trkpt><trkpt lat="45.8683173" lon="14.1519344"><ele>770.3333333333334</ele><time>2026-04-26T12:46:00.441Z</time></trkpt><trkpt lat="45.868406" lon="14.1519904"><ele>770.0</ele><time>2026-04-26T12:46:01.44Z</time></trkpt><trkpt lat="45.8685096" lon="14.152041"><ele>771.1666666666667</ele><time>2026-04-26T12:46:02.44Z</time></trkpt><trkpt lat="45.8686126" lon="14.1520674"><ele>772.3333333333334</ele><time>2026-04-26T12:46:03.44Z</time></trkpt><trkpt lat="45.8686988" lon="14.1520561"><ele>773.5</ele><time>2026-04-26T12:46:04.44Z</time></trkpt><trkpt lat="45.8687646" lon="14.1520189"><ele>774.6666666666667</ele><time>2026-04-26T12:46:05.44Z</time></trkpt><trkpt lat="45.8688213" lon="14.1519647"><ele>775.8333333333334</ele><time>2026-04-26T12:46:06.44Z</time></trkpt><trkpt lat="45.8688658" lon="14.1518731"><ele>777.0</ele><time>2026-04-26T12:46:07.44Z</time></trkpt><trkpt lat="45.8688922" lon="14.1517478"><ele>777.0</ele><time>2026-04-26T12:46:08.44Z</time></trkpt><trkpt lat="45.8689373" lon="14.1515781"><ele>777.0</ele><time>2026-04-26T12:46:09.44Z</time></trkpt><trkpt lat="45.8689931" lon="14.151384"><ele>777.0</ele><time>2026-04-26T12:46:10.44Z</time></trkpt><trkpt lat="45.8690392" lon="14.1511791"><ele>777.0</ele><time>2026-04-26T12:46:11.44Z</time></trkpt><trkpt lat="45.8690889" lon="14.1509705"><ele>777.25</ele><time>2026-04-26T12:46:12.44Z</time></trkpt><trkpt lat="45.869135" lon="14.1507723"><ele>777.5</ele><time>2026-04-26T12:46:13.44Z</time></trkpt><trkpt lat="45.8691801" lon="14.1505816"><ele>777.75</ele><time>2026-04-26T12:46:14.44Z</time></trkpt><trkpt lat="45.8692178" lon="14.1504005"><ele>778.0</ele><time>2026-04-26T12:46:15.44Z</time></trkpt><trkpt lat="45.8692347" lon="14.1502573"><ele>777.9999999999999</ele><time>2026-04-26T12:46:16.44Z</time></trkpt><trkpt lat="45.8692547" lon="14.1501436"><ele>778.0</ele><time>2026-04-26T12:46:17.44Z</time></trkpt><trkpt lat="45.8692871" lon="14.1500496"><ele>778.0</ele><time>2026-04-26T12:46:18.44Z</time></trkpt><trkpt lat="45.8693416" lon="14.1499632"><ele>778.0</ele><time>2026-04-26T12:46:19.44Z</time></trkpt><trkpt lat="45.8694119" lon="14.1499033"><ele>777.9999999999999</ele><time>2026-04-26T12:46:20.44Z</time></trkpt><trkpt lat="45.8694796" lon="14.149857"><ele>778.0</ele><time>2026-04-26T12:46:21.44Z</time></trkpt><trkpt lat="45.869566" lon="14.1498324"><ele>780.0</ele><time>2026-04-26T12:46:22.44Z</time></trkpt><trkpt lat="45.8696658" lon="14.1498243"><ele>782.0</ele><time>2026-04-26T12:46:23.44Z</time></trkpt><trkpt lat="45.8697662" lon="14.1498248"><ele>784.0</ele><time>2026-04-26T12:46:24.44Z</time></trkpt><trkpt lat="45.8698484" lon="14.149846"><ele>786.0</ele><time>2026-04-26T12:46:25.44Z</time></trkpt><trkpt lat="45.8699245" lon="14.1499076"><ele>788.0</ele><time>2026-04-26T12:46:26.44Z</time></trkpt><trkpt lat="45.8699937" lon="14.1499885"><ele>788.0</ele><time>2026-04-26T12:46:27.44Z</time></trkpt><trkpt lat="45.8700156" lon="14.1501122"><ele>788.0</ele><time>2026-04-26T12:46:28.44Z</time></trkpt><trkpt lat="45.8700152" lon="14.1502641"><ele>788.0</ele><time>2026-04-26T12:46:29.441Z</time></trkpt><trkpt lat="45.87001" lon="14.1503951"><ele>788.0</ele><time>2026-04-26T12:46:30.44Z</time></trkpt><trkpt lat="45.8700125" lon="14.1505225"><ele>788.0</ele><time>2026-04-26T12:46:31.44Z</time></trkpt><trkpt lat="45.870033" lon="14.150634"><ele>787.75</ele><time>2026-04-26T12:46:32.44Z</time></trkpt><trkpt lat="45.8700838" lon="14.1507494"><ele>787.5</ele><time>2026-04-26T12:46:33.44Z</time></trkpt><trkpt lat="45.8701731" lon="14.1508869"><ele>787.25</ele><time>2026-04-26T12:46:34.441Z</time></trkpt><trkpt lat="45.8702647" lon="14.1510292"><ele>787.0</ele><time>2026-04-26T12:46:35.44Z</time></trkpt><trkpt lat="45.870342" lon="14.1511541"><ele>787.3333333333333</ele><time>2026-04-26T12:46:36.441Z</time></trkpt><trkpt lat="45.8704049" lon="14.1512523"><ele>787.6666666666666</ele><time>2026-04-26T12:46:37.44Z</time></trkpt><trkpt lat="45.8704568" lon="14.1513331"><ele>788.0</ele><time>2026-04-26T12:46:38.44Z</time></trkpt><trkpt lat="45.8705132" lon="14.1513795"><ele>788.3333333333333</ele><time>2026-04-26T12:46:39.441Z</time></trkpt><trkpt lat="45.8705899" lon="14.1514038"><ele>788.6666666666666</ele><time>2026-04-26T12:46:40.44Z</time></trkpt><trkpt lat="45.8706615" lon="14.1513864"><ele>789.0</ele><time>2026-04-26T12:46:41.441Z</time></trkpt><trkpt lat="45.8707256" lon="14.151339"><ele>789.0</ele><time>2026-04-26T12:46:42.44Z</time></trkpt><trkpt lat="45.8708058" lon="14.1512493"><ele>789.0</ele><time>2026-04-26T12:46:43.44Z</time></trkpt><trkpt lat="45.8708998" lon="14.1511278"><ele>789.0</ele><time>2026-04-26T12:46:44.44Z</time></trkpt><trkpt lat="45.8709816" lon="14.1510166"><ele>789.0</ele><time>2026-04-26T12:46:45.441Z</time></trkpt><trkpt lat="45.8710611" lon="14.1509453"><ele>789.0</ele><time>2026-04-26T12:46:46.44Z</time></trkpt><trkpt lat="45.8711393" lon="14.1508942"><ele>789.6</ele><time>2026-04-26T12:46:47.44Z</time></trkpt><trkpt lat="45.87122" lon="14.1508882"><ele>790.2</ele><time>2026-04-26T12:46:48.44Z</time></trkpt><trkpt lat="45.8713034" lon="14.1509346"><ele>790.8000000000001</ele><time>2026-04-26T12:46:49.44Z</time></trkpt><trkpt lat="45.8713729" lon="14.1510053"><ele>791.4000000000001</ele><time>2026-04-26T12:46:50.44Z</time></trkpt><trkpt lat="45.8714576" lon="14.1511363"><ele>792.0</ele><time>2026-04-26T12:46:51.441Z</time></trkpt><trkpt lat="45.8715331" lon="14.1512879"><ele>792.0</ele><time>2026-04-26T12:46:52.44Z</time></trkpt><trkpt lat="45.8716028" lon="14.1514319"><ele>792.0</ele><time>2026-04-26T12:46:53.44Z</time></trkpt><trkpt lat="45.8716675" lon="14.1515353"><ele>792.0</ele><time>2026-04-26T12:46:54.441Z</time></trkpt><trkpt lat="45.8717296" lon="14.151598"><ele>792.0</ele><time>2026-04-26T12:46:55.44Z</time></trkpt><trkpt lat="45.8718117" lon="14.1516318"><ele>792.0</ele><time>2026-04-26T12:46:56.44Z</time></trkpt><trkpt lat="45.8718994" lon="14.1516464"><ele>792.4000000000001</ele><time>2026-04-26T12:46:57.44Z</time></trkpt><trkpt lat="45.8719986" lon="14.1516216"><ele>792.8000000000001</ele><time>2026-04-26T12:46:58.441Z</time></trkpt><trkpt lat="45.8720941" lon="14.1515863"><ele>793.2</ele><time>2026-04-26T12:46:59.44Z</time></trkpt><trkpt lat="45.8721778" lon="14.1515938"><ele>793.6</ele><time>2026-04-26T12:47:00.44Z</time></trkpt><trkpt lat="45.8722773" lon="14.1516275"><ele>794.0</ele><time>2026-04-26T12:47:01.441Z</time></trkpt><trkpt lat="45.8723754" lon="14.1516946"><ele>794.0</ele><time>2026-04-26T12:47:02.441Z</time></trkpt><trkpt lat="45.872472" lon="14.1517602"><ele>794.0</ele><time>2026-04-26T12:47:03.441Z</time></trkpt><trkpt lat="45.8725731" lon="14.1517937"><ele>794.0</ele><time>2026-04-26T12:47:04.44Z</time></trkpt><trkpt lat="45.8726648" lon="14.1518094"><ele>794.0</ele><time>2026-04-26T12:47:05.44Z</time></trkpt><trkpt lat="45.8727439" lon="14.1518398"><ele>794.0</ele><time>2026-04-26T12:47:06.44Z</time></trkpt><trkpt lat="45.8728107" lon="14.1518917"><ele>793.8000000000001</ele><time>2026-04-26T12:47:07.441Z</time></trkpt><trkpt lat="45.8728492" lon="14.1520065"><ele>793.6</ele><time>2026-04-26T12:47:08.44Z</time></trkpt><trkpt lat="45.8728472" lon="14.1521724"><ele>793.4</ele><time>2026-04-26T12:47:09.44Z</time></trkpt><trkpt lat="45.8728755" lon="14.1523263"><ele>793.2</ele><time>2026-04-26T12:47:10.44Z</time></trkpt><trkpt lat="45.8729383" lon="14.1524485"><ele>793.0</ele><time>2026-04-26T12:47:11.44Z</time></trkpt><trkpt lat="45.8729946" lon="14.1525571"><ele>793.0</ele><time>2026-04-26T12:47:12.441Z</time></trkpt><trkpt lat="45.8730817" lon="14.1526299"><ele>793.0</ele><time>2026-04-26T12:47:13.44Z</time></trkpt><trkpt lat="45.8731842" lon="14.1526645"><ele>793.0</ele><time>2026-04-26T12:47:14.441Z</time></trkpt><trkpt lat="45.8733135" lon="14.1526911"><ele>793.0</ele><time>2026-04-26T12:47:15.441Z</time></trkpt><trkpt lat="45.8734399" lon="14.1527167"><ele>792.2</ele><time>2026-04-26T12:47:16.441Z</time></trkpt><trkpt lat="45.873551" lon="14.1527469"><ele>791.4</ele><time>2026-04-26T12:47:17.44Z</time></trkpt><trkpt lat="45.8736498" lon="14.1527708"><ele>790.6</ele><time>2026-04-26T12:47:18.44Z</time></trkpt><trkpt lat="45.8737371" lon="14.1527679"><ele>789.8000000000001</ele><time>2026-04-26T12:47:19.44Z</time></trkpt><trkpt lat="45.8738134" lon="14.1527456"><ele>789.0</ele><time>2026-04-26T12:47:20.44Z</time></trkpt><trkpt lat="45.8738963" lon="14.1526849"><ele>789.0</ele><time>2026-04-26T12:47:21.44Z</time></trkpt><trkpt lat="45.873985" lon="14.1526024"><ele>789.0</ele><time>2026-04-26T12:47:22.441Z</time></trkpt><trkpt lat="45.8740628" lon="14.1525179"><ele>789.0</ele><time>2026-04-26T12:47:23.44Z</time></trkpt><trkpt lat="45.8741449" lon="14.1524688"><ele>789.0</ele><time>2026-04-26T12:47:24.44Z</time></trkpt><trkpt lat="45.8742237" lon="14.1524383"><ele>789.0</ele><time>2026-04-26T12:47:25.441Z</time></trkpt><trkpt lat="45.8743164" lon="14.1524168"><ele>788.0</ele><time>2026-04-26T12:47:26.44Z</time></trkpt><trkpt lat="45.8744139" lon="14.1523888"><ele>787.0</ele><time>2026-04-26T12:47:27.44Z</time></trkpt><trkpt lat="45.8745284" lon="14.152356"><ele>786.0</ele><time>2026-04-26T12:47:28.44Z</time></trkpt><trkpt lat="45.8746288" lon="14.1523271"><ele>785.0</ele><time>2026-04-26T12:47:29.44Z</time></trkpt><trkpt lat="45.8747077" lon="14.1522844"><ele>784.0</ele><time>2026-04-26T12:47:30.441Z</time></trkpt><trkpt lat="45.8747782" lon="14.1522292"><ele>783.9999999999999</ele><time>2026-04-26T12:47:31.44Z</time></trkpt><trkpt lat="45.8748321" lon="14.1521605"><ele>784.0</ele><time>2026-04-26T12:47:32.44Z</time></trkpt><trkpt lat="45.8748786" lon="14.1520776"><ele>784.0</ele><time>2026-04-26T12:47:33.44Z</time></trkpt><trkpt lat="45.8749124" lon="14.1519718"><ele>784.0</ele><time>2026-04-26T12:47:34.44Z</time></trkpt><trkpt lat="45.8749342" lon="14.1518501"><ele>783.9999999999999</ele><time>2026-04-26T12:47:35.44Z</time></trkpt><trkpt lat="45.8749556" lon="14.1517533"><ele>784.0</ele><time>2026-04-26T12:47:36.441Z</time></trkpt><trkpt lat="45.8750396" lon="14.1516487"><ele>783.9999999999999</ele><time>2026-04-26T12:47:38.44Z</time></trkpt><trkpt lat="45.8750999" lon="14.1516118"><ele>784.0</ele><time>2026-04-26T12:47:39.44Z</time></trkpt><trkpt lat="45.8751653" lon="14.1515883"><ele>784.0</ele><time>2026-04-26T12:47:40.44Z</time></trkpt><trkpt lat="45.875237" lon="14.1515742"><ele>784.0</ele><time>2026-04-26T12:47:41.44Z</time></trkpt><trkpt lat="45.8753422" lon="14.1515843"><ele>783.9999999999999</ele><time>2026-04-26T12:47:42.44Z</time></trkpt><trkpt lat="45.8754785" lon="14.1516018"><ele>784.0</ele><time>2026-04-26T12:47:43.441Z</time></trkpt><trkpt lat="45.8756372" lon="14.1516131"><ele>783.6666666666666</ele><time>2026-04-26T12:47:44.441Z</time></trkpt><trkpt lat="45.8758124" lon="14.1516169"><ele>783.3333333333333</ele><time>2026-04-26T12:47:45.44Z</time></trkpt><trkpt lat="45.875997" lon="14.1516311"><ele>783.0</ele><time>2026-04-26T12:47:46.441Z</time></trkpt><trkpt lat="45.8761706" lon="14.151651"><ele>783.0</ele><time>2026-04-26T12:47:47.44Z</time></trkpt><trkpt lat="45.876324" lon="14.1516638"><ele>783.0</ele><time>2026-04-26T12:47:48.44Z</time></trkpt><trkpt lat="45.8764647" lon="14.1516908"><ele>783.0</ele><time>2026-04-26T12:47:49.44Z</time></trkpt><trkpt lat="45.8765876" lon="14.151708"><ele>783.0</ele><time>2026-04-26T12:47:50.44Z</time></trkpt><trkpt lat="45.876677" lon="14.151703"><ele>783.5999999999999</ele><time>2026-04-26T12:47:51.441Z</time></trkpt><trkpt lat="45.8767825" lon="14.1516852"><ele>784.1999999999999</ele><time>2026-04-26T12:47:53.441Z</time></trkpt><trkpt lat="45.8768405" lon="14.1517492"><ele>784.8</ele><time>2026-04-26T12:47:55.44Z</time></trkpt><trkpt lat="45.8768966" lon="14.1516575"><ele>785.4</ele><time>2026-04-26T12:48:18.44Z</time></trkpt><trkpt lat="45.8769535" lon="14.1515642"><ele>786.0</ele><time>2026-04-26T12:48:20.44Z</time></trkpt><trkpt lat="45.8770722" lon="14.1514742"><ele>786.0</ele><time>2026-04-26T12:48:22.44Z</time></trkpt><trkpt lat="45.8771474" lon="14.1514346"><ele>786.0</ele><time>2026-04-26T12:48:23.44Z</time></trkpt><trkpt lat="45.8772191" lon="14.151418"><ele>786.0</ele><time>2026-04-26T12:48:24.44Z</time></trkpt><trkpt lat="45.8772863" lon="14.1514212"><ele>786.0</ele><time>2026-04-26T12:48:25.441Z</time></trkpt><trkpt lat="45.8773589" lon="14.1514327"><ele>786.0</ele><time>2026-04-26T12:48:26.441Z</time></trkpt><trkpt lat="45.8774417" lon="14.1514601"><ele>786.0</ele><time>2026-04-26T12:48:27.44Z</time></trkpt><trkpt lat="45.877517" lon="14.1514887"><ele>785.3333333333334</ele><time>2026-04-26T12:48:28.44Z</time></trkpt><trkpt lat="45.8775801" lon="14.1515416"><ele>784.6666666666667</ele><time>2026-04-26T12:48:29.44Z</time></trkpt><trkpt lat="45.8776352" lon="14.151598"><ele>784.0</ele><time>2026-04-26T12:48:30.44Z</time></trkpt><trkpt lat="45.8776888" lon="14.1516576"><ele>783.3333333333334</ele><time>2026-04-26T12:48:31.441Z</time></trkpt><trkpt lat="45.8777323" lon="14.1517294"><ele>782.6666666666667</ele><time>2026-04-26T12:48:32.44Z</time></trkpt><trkpt lat="45.8778041" lon="14.1518724"><ele>782.0</ele><time>2026-04-26T12:48:34.44Z</time></trkpt><trkpt lat="45.8778526" lon="14.152016"><ele>782.0</ele><time>2026-04-26T12:48:36.44Z</time></trkpt><trkpt lat="45.8778707" lon="14.15212"><ele>782.0</ele><time>2026-04-26T12:48:37.44Z</time></trkpt><trkpt lat="45.8778816" lon="14.152246"><ele>782.0</ele><time>2026-04-26T12:48:38.44Z</time></trkpt><trkpt lat="45.8778842" lon="14.1524122"><ele>782.0</ele><time>2026-04-26T12:48:39.44Z</time></trkpt><trkpt lat="45.8778718" lon="14.1525928"><ele>782.0</ele><time>2026-04-26T12:48:40.44Z</time></trkpt><trkpt lat="45.8778698" lon="14.1527657"><ele>779.5</ele><time>2026-04-26T12:48:41.44Z</time></trkpt><trkpt lat="45.8778818" lon="14.1529399"><ele>777.0</ele><time>2026-04-26T12:48:42.44Z</time></trkpt><trkpt lat="45.877896" lon="14.1531127"><ele>774.5</ele><time>2026-04-26T12:48:43.44Z</time></trkpt><trkpt lat="45.877929" lon="14.1532681"><ele>772.0</ele><time>2026-04-26T12:48:44.44Z</time></trkpt><trkpt lat="45.8779876" lon="14.1534157"><ele>772.0</ele><time>2026-04-26T12:48:45.44Z</time></trkpt><trkpt lat="45.8780487" lon="14.1535672"><ele>772.0</ele><time>2026-04-26T12:48:46.44Z</time></trkpt><trkpt lat="45.8780932" lon="14.1537148"><ele>772.0</ele><time>2026-04-26T12:48:47.44Z</time></trkpt><trkpt lat="45.8781043" lon="14.1538579"><ele>772.0</ele><time>2026-04-26T12:48:48.44Z</time></trkpt><trkpt lat="45.878092" lon="14.1540138"><ele>772.0</ele><time>2026-04-26T12:48:49.44Z</time></trkpt><trkpt lat="45.8780479" lon="14.154186"><ele>771.75</ele><time>2026-04-26T12:48:50.44Z</time></trkpt><trkpt lat="45.8779837" lon="14.1543592"><ele>771.5</ele><time>2026-04-26T12:48:51.441Z</time></trkpt><trkpt lat="45.8779272" lon="14.1545163"><ele>771.25</ele><time>2026-04-26T12:48:52.44Z</time></trkpt><trkpt lat="45.877894" lon="14.1546611"><ele>771.0</ele><time>2026-04-26T12:48:53.44Z</time></trkpt><trkpt lat="45.8779037" lon="14.1548155"><ele>770.5</ele><time>2026-04-26T12:48:54.44Z</time></trkpt><trkpt lat="45.8779484" lon="14.1549639"><ele>770.0</ele><time>2026-04-26T12:48:55.44Z</time></trkpt><trkpt lat="45.8780203" lon="14.1551182"><ele>769.5</ele><time>2026-04-26T12:48:56.44Z</time></trkpt><trkpt lat="45.878114" lon="14.155281"><ele>769.0</ele><time>2026-04-26T12:48:57.44Z</time></trkpt><trkpt lat="45.8782265" lon="14.1554526"><ele>769.0</ele><time>2026-04-26T12:48:58.44Z</time></trkpt><trkpt lat="45.8783423" lon="14.1556371"><ele>769.0</ele><time>2026-04-26T12:48:59.44Z</time></trkpt><trkpt lat="45.8784633" lon="14.1558252"><ele>769.0</ele><time>2026-04-26T12:49:00.44Z</time></trkpt><trkpt lat="45.878573" lon="14.1560265"><ele>767.0</ele><time>2026-04-26T12:49:01.44Z</time></trkpt><trkpt lat="45.8786797" lon="14.1562081"><ele>765.0</ele><time>2026-04-26T12:49:02.441Z</time></trkpt><trkpt lat="45.8787923" lon="14.1563713"><ele>763.0</ele><time>2026-04-26T12:49:03.44Z</time></trkpt><trkpt lat="45.8789171" lon="14.1564966"><ele>759.0</ele><time>2026-04-26T12:49:04.44Z</time></trkpt><trkpt lat="45.8790473" lon="14.1565751"><ele>755.0</ele><time>2026-04-26T12:49:05.44Z</time></trkpt><trkpt lat="45.879195" lon="14.1566116"><ele>751.0</ele><time>2026-04-26T12:49:06.44Z</time></trkpt><trkpt lat="45.8793543" lon="14.1566374"><ele>750.3333333333334</ele><time>2026-04-26T12:49:07.44Z</time></trkpt><trkpt lat="45.8795292" lon="14.1566543"><ele>749.6666666666666</ele><time>2026-04-26T12:49:08.44Z</time></trkpt><trkpt lat="45.8797198" lon="14.1567048"><ele>749.0</ele><time>2026-04-26T12:49:09.44Z</time></trkpt><trkpt lat="45.8799076" lon="14.1567666"><ele>749.0</ele><time>2026-04-26T12:49:10.44Z</time></trkpt><trkpt lat="45.8800803" lon="14.1568325"><ele>749.0</ele><time>2026-04-26T12:49:11.44Z</time></trkpt><trkpt lat="45.8802501" lon="14.1568878"><ele>749.0</ele><time>2026-04-26T12:49:12.441Z</time></trkpt><trkpt lat="45.8804218" lon="14.1569468"><ele>749.3333333333333</ele><time>2026-04-26T12:49:13.441Z</time></trkpt><trkpt lat="45.8805844" lon="14.1570087"><ele>749.6666666666666</ele><time>2026-04-26T12:49:14.44Z</time></trkpt><trkpt lat="45.8807434" lon="14.1570626"><ele>750.0</ele><time>2026-04-26T12:49:15.44Z</time></trkpt><trkpt lat="45.8808784" lon="14.1571235"><ele>749.25</ele><time>2026-04-26T12:49:16.44Z</time></trkpt><trkpt lat="45.8810053" lon="14.1572173"><ele>748.5</ele><time>2026-04-26T12:49:17.44Z</time></trkpt><trkpt lat="45.8811105" lon="14.1573412"><ele>747.75</ele><time>2026-04-26T12:49:18.44Z</time></trkpt><trkpt lat="45.8811968" lon="14.1575026"><ele>747.0</ele><time>2026-04-26T12:49:19.44Z</time></trkpt><trkpt lat="45.8812595" lon="14.1576945"><ele>747.0</ele><time>2026-04-26T12:49:20.441Z</time></trkpt><trkpt lat="45.8812997" lon="14.1579153"><ele>747.0</ele><time>2026-04-26T12:49:21.44Z</time></trkpt><trkpt lat="45.8813274" lon="14.1581446"><ele>747.0</ele><time>2026-04-26T12:49:22.44Z</time></trkpt><trkpt lat="45.8813595" lon="14.1583756"><ele>741.0</ele><time>2026-04-26T12:49:23.441Z</time></trkpt><trkpt lat="45.8814024" lon="14.1586036"><ele>735.0</ele><time>2026-04-26T12:49:24.44Z</time></trkpt><trkpt lat="45.8814389" lon="14.1588082"><ele>729.0</ele><time>2026-04-26T12:49:25.44Z</time></trkpt><trkpt lat="45.8814834" lon="14.159008"><ele>729.0</ele><time>2026-04-26T12:49:26.44Z</time></trkpt><trkpt lat="45.8815462" lon="14.1591884"><ele>729.0</ele><time>2026-04-26T12:49:27.44Z</time></trkpt><trkpt lat="45.8816082" lon="14.1593698"><ele>729.0</ele><time>2026-04-26T12:49:28.44Z</time></trkpt><trkpt lat="45.8816725" lon="14.1595602"><ele>729.0</ele><time>2026-04-26T12:49:29.44Z</time></trkpt><trkpt lat="45.8817302" lon="14.1597607"><ele>725.75</ele><time>2026-04-26T12:49:30.44Z</time></trkpt><trkpt lat="45.8817742" lon="14.1599478"><ele>722.5</ele><time>2026-04-26T12:49:31.44Z</time></trkpt><trkpt lat="45.8818226" lon="14.1601119"><ele>719.25</ele><time>2026-04-26T12:49:32.44Z</time></trkpt><trkpt lat="45.8818971" lon="14.1602341"><ele>716.0</ele><time>2026-04-26T12:49:33.441Z</time></trkpt><trkpt lat="45.8819874" lon="14.1603342"><ele>716.0</ele><time>2026-04-26T12:49:34.44Z</time></trkpt><trkpt lat="45.8821013" lon="14.160385"><ele>716.0</ele><time>2026-04-26T12:49:35.44Z</time></trkpt><trkpt lat="45.8822393" lon="14.1604041"><ele>716.0</ele><time>2026-04-26T12:49:36.44Z</time></trkpt><trkpt lat="45.8823736" lon="14.1603953"><ele>716.0</ele><time>2026-04-26T12:49:37.44Z</time></trkpt><trkpt lat="45.8825283" lon="14.160365"><ele>715.6666666666666</ele><time>2026-04-26T12:49:38.44Z</time></trkpt><trkpt lat="45.8826845" lon="14.1603904"><ele>715.3333333333334</ele><time>2026-04-26T12:49:39.44Z</time></trkpt><trkpt lat="45.8828311" lon="14.1604755"><ele>715.0</ele><time>2026-04-26T12:49:40.44Z</time></trkpt><trkpt lat="45.8829732" lon="14.1605918"><ele>711.5</ele><time>2026-04-26T12:49:41.44Z</time></trkpt><trkpt lat="45.8830972" lon="14.1607175"><ele>708.0</ele><time>2026-04-26T12:49:42.44Z</time></trkpt><trkpt lat="45.8832178" lon="14.1608136"><ele>704.5</ele><time>2026-04-26T12:49:43.44Z</time></trkpt><trkpt lat="45.8833644" lon="14.1608769"><ele>701.0</ele><time>2026-04-26T12:49:44.44Z</time></trkpt><trkpt lat="45.8835144" lon="14.1608828"><ele>697.6666666666666</ele><time>2026-04-26T12:49:45.44Z</time></trkpt><trkpt lat="45.8836657" lon="14.1608776"><ele>694.3333333333334</ele><time>2026-04-26T12:49:46.44Z</time></trkpt><trkpt lat="45.8838351" lon="14.1608828"><ele>691.0</ele><time>2026-04-26T12:49:47.44Z</time></trkpt><trkpt lat="45.8840053" lon="14.1608978"><ele>691.0</ele><time>2026-04-26T12:49:48.44Z</time></trkpt><trkpt lat="45.8841802" lon="14.160925"><ele>691.0</ele><time>2026-04-26T12:49:49.44Z</time></trkpt><trkpt lat="45.8843455" lon="14.1609817"><ele>691.0</ele><time>2026-04-26T12:49:50.44Z</time></trkpt><trkpt lat="45.884492" lon="14.1610514"><ele>690.5</ele><time>2026-04-26T12:49:51.44Z</time></trkpt><trkpt lat="45.8846285" lon="14.161123"><ele>690.0</ele><time>2026-04-26T12:49:52.441Z</time></trkpt><trkpt lat="45.8847507" lon="14.1612054"><ele>689.5</ele><time>2026-04-26T12:49:53.44Z</time></trkpt><trkpt lat="45.8848503" lon="14.1613062"><ele>689.0</ele><time>2026-04-26T12:49:54.44Z</time></trkpt><trkpt lat="45.8849237" lon="14.1614058"><ele>689.0</ele><time>2026-04-26T12:49:55.44Z</time></trkpt><trkpt lat="45.8849817" lon="14.1614894"><ele>689.0</ele><time>2026-04-26T12:49:56.44Z</time></trkpt><trkpt lat="45.8850474" lon="14.1615923"><ele>689.0</ele><time>2026-04-26T12:49:58.44Z</time></trkpt><trkpt lat="45.8849718" lon="14.1616132"><ele>689.0</ele><time>2026-04-26T12:50:04.44Z</time></trkpt><trkpt lat="45.8848798" lon="14.1615539"><ele>689.0</ele><time>2026-04-26T12:50:06.44Z</time></trkpt><trkpt lat="45.88482" lon="14.161496"><ele>689.0</ele><time>2026-04-26T12:50:07.44Z</time></trkpt><trkpt lat="45.8847585" lon="14.1614352"><ele>689.0</ele><time>2026-04-26T12:50:08.44Z</time></trkpt><trkpt lat="45.8846867" lon="14.1613861"><ele>689.0</ele><time>2026-04-26T12:50:09.44Z</time></trkpt><trkpt lat="45.884601" lon="14.1613619"><ele>689.0</ele><time>2026-04-26T12:50:10.44Z</time></trkpt><trkpt lat="45.8845138" lon="14.1613581"><ele>689.0</ele><time>2026-04-26T12:50:11.44Z</time></trkpt><trkpt lat="45.8844391" lon="14.1613632"><ele>689.0</ele><time>2026-04-26T12:50:12.44Z</time></trkpt><trkpt lat="45.8843684" lon="14.1613825"><ele>689.0</ele><time>2026-04-26T12:50:13.44Z</time></trkpt><trkpt lat="45.8843035" lon="14.1614139"><ele>689.4000000000001</ele><time>2026-04-26T12:50:14.44Z</time></trkpt><trkpt lat="45.8842239" lon="14.1615289"><ele>689.8</ele><time>2026-04-26T12:50:16.44Z</time></trkpt><trkpt lat="45.8841543" lon="14.1616944"><ele>690.2</ele><time>2026-04-26T12:50:18.44Z</time></trkpt><trkpt lat="45.8841183" lon="14.1618136"><ele>690.5999999999999</ele><time>2026-04-26T12:50:19.44Z</time></trkpt><trkpt lat="45.8840938" lon="14.1619375"><ele>691.0</ele><time>2026-04-26T12:50:20.44Z</time></trkpt><trkpt lat="45.8840815" lon="14.1620655"><ele>688.0</ele><time>2026-04-26T12:50:21.441Z</time></trkpt><trkpt lat="45.8840817" lon="14.162196"><ele>685.0</ele><time>2026-04-26T12:50:22.44Z</time></trkpt><trkpt lat="45.8840908" lon="14.1623298"><ele>682.0</ele><time>2026-04-26T12:50:23.44Z</time></trkpt><trkpt lat="45.8841042" lon="14.1624747"><ele>679.0</ele><time>2026-04-26T12:50:24.44Z</time></trkpt><trkpt lat="45.8841192" lon="14.1626098"><ele>676.0</ele><time>2026-04-26T12:50:25.441Z</time></trkpt><trkpt lat="45.8841304" lon="14.1627415"><ele>675.5714285714286</ele><time>2026-04-26T12:50:26.44Z</time></trkpt><trkpt lat="45.8841268" lon="14.1628486"><ele>675.1428571428571</ele><time>2026-04-26T12:50:27.44Z</time></trkpt><trkpt lat="45.8841088" lon="14.162946"><ele>674.7142857142858</ele><time>2026-04-26T12:50:28.441Z</time></trkpt><trkpt lat="45.8840731" lon="14.1630315"><ele>674.2857142857142</ele><time>2026-04-26T12:50:29.44Z</time></trkpt><trkpt lat="45.8840253" lon="14.1630977"><ele>673.8571428571428</ele><time>2026-04-26T12:50:30.44Z</time></trkpt><trkpt lat="45.8839747" lon="14.1631567"><ele>673.4285714285714</ele><time>2026-04-26T12:50:31.44Z</time></trkpt><trkpt lat="45.8839245" lon="14.1632236"><ele>673.0</ele><time>2026-04-26T12:50:32.439Z</time></trkpt><trkpt lat="45.8838724" lon="14.1633058"><ele>674.3333333333334</ele><time>2026-04-26T12:50:33.439Z</time></trkpt><trkpt lat="45.8838324" lon="14.1634018"><ele>675.6666666666667</ele><time>2026-04-26T12:50:34.439Z</time></trkpt><trkpt lat="45.8838019" lon="14.1635119"><ele>677.0</ele><time>2026-04-26T12:50:35.439Z</time></trkpt><trkpt lat="45.8837764" lon="14.1636484"><ele>678.3333333333334</ele><time>2026-04-26T12:50:36.439Z</time></trkpt><trkpt lat="45.8837599" lon="14.1637756"><ele>679.6666666666666</ele><time>2026-04-26T12:50:37.439Z</time></trkpt><trkpt lat="45.8837528" lon="14.1639028"><ele>681.0</ele><time>2026-04-26T12:50:38.439Z</time></trkpt><trkpt lat="45.8837561" lon="14.1640301"><ele>682.8</ele><time>2026-04-26T12:50:39.439Z</time></trkpt><trkpt lat="45.8837684" lon="14.1641675"><ele>684.5999999999999</ele><time>2026-04-26T12:50:40.439Z</time></trkpt><trkpt lat="45.8837877" lon="14.1642997"><ele>686.4</ele><time>2026-04-26T12:50:41.439Z</time></trkpt><trkpt lat="45.8838172" lon="14.1644455"><ele>688.2</ele><time>2026-04-26T12:50:42.439Z</time></trkpt><trkpt lat="45.8838312" lon="14.1645817"><ele>690.0</ele><time>2026-04-26T12:50:43.439Z</time></trkpt><trkpt lat="45.883825" lon="14.1647138"><ele>690.0</ele><time>2026-04-26T12:50:44.439Z</time></trkpt><trkpt lat="45.8837956" lon="14.1648309"><ele>690.0</ele><time>2026-04-26T12:50:45.44Z</time></trkpt><trkpt lat="45.8837638" lon="14.164937"><ele>690.0</ele><time>2026-04-26T12:50:46.44Z</time></trkpt><trkpt lat="45.8837278" lon="14.1650383"><ele>690.0</ele><time>2026-04-26T12:50:47.44Z</time></trkpt><trkpt lat="45.883675" lon="14.1651326"><ele>690.0</ele><time>2026-04-26T12:50:48.439Z</time></trkpt><trkpt lat="45.8835936" lon="14.16524"><ele>690.0</ele><time>2026-04-26T12:50:49.439Z</time></trkpt><trkpt lat="45.8834997" lon="14.1653465"><ele>690.0</ele><time>2026-04-26T12:50:50.439Z</time></trkpt><trkpt lat="45.8834063" lon="14.1654466"><ele>690.0</ele><time>2026-04-26T12:50:51.439Z</time></trkpt><trkpt lat="45.8833143" lon="14.1655371"><ele>690.0</ele><time>2026-04-26T12:50:52.44Z</time></trkpt><trkpt lat="45.8832355" lon="14.1656324"><ele>690.0</ele><time>2026-04-26T12:50:53.439Z</time></trkpt><trkpt lat="45.8831809" lon="14.1657116"><ele>690.0</ele><time>2026-04-26T12:50:54.439Z</time></trkpt><trkpt lat="45.883144" lon="14.1658254"><ele>690.5</ele><time>2026-04-26T12:50:55.439Z</time></trkpt><trkpt lat="45.8831147" lon="14.1659567"><ele>691.0</ele><time>2026-04-26T12:50:56.439Z</time></trkpt><trkpt lat="45.8830917" lon="14.1660784"><ele>691.5</ele><time>2026-04-26T12:50:57.439Z</time></trkpt><trkpt lat="45.8830664" lon="14.1662018"><ele>692.0</ele><time>2026-04-26T12:50:58.439Z</time></trkpt><trkpt lat="45.8830389" lon="14.1663165"><ele>692.5</ele><time>2026-04-26T12:50:59.439Z</time></trkpt><trkpt lat="45.8830312" lon="14.1664138"><ele>693.0</ele><time>2026-04-26T12:51:00.439Z</time></trkpt><trkpt lat="45.8830404" lon="14.1665799"><ele>694.6666666666666</ele><time>2026-04-26T12:51:02.439Z</time></trkpt><trkpt lat="45.883056" lon="14.1666778"><ele>696.3333333333334</ele><time>2026-04-26T12:51:03.439Z</time></trkpt><trkpt lat="45.8830919" lon="14.1667814"><ele>698.0</ele><time>2026-04-26T12:51:04.439Z</time></trkpt><trkpt lat="45.8831374" lon="14.1668857"><ele>699.6666666666667</ele><time>2026-04-26T12:51:05.439Z</time></trkpt><trkpt lat="45.8831839" lon="14.1669873"><ele>701.3333333333334</ele><time>2026-04-26T12:51:06.439Z</time></trkpt><trkpt lat="45.8832324" lon="14.1670848"><ele>703.0</ele><time>2026-04-26T12:51:07.44Z</time></trkpt><trkpt lat="45.8832741" lon="14.1671688"><ele>703.0</ele><time>2026-04-26T12:51:08.44Z</time></trkpt><trkpt lat="45.8833156" lon="14.1673525"><ele>703.0</ele><time>2026-04-26T12:51:10.439Z</time></trkpt><trkpt lat="45.8833189" lon="14.1674704"><ele>703.0</ele><time>2026-04-26T12:51:11.44Z</time></trkpt><trkpt lat="45.8833089" lon="14.167598"><ele>703.0</ele><time>2026-04-26T12:51:12.439Z</time></trkpt><trkpt lat="45.883307" lon="14.1677331"><ele>703.0</ele><time>2026-04-26T12:51:13.439Z</time></trkpt><trkpt lat="45.8833032" lon="14.1678864"><ele>705.75</ele><time>2026-04-26T12:51:14.439Z</time></trkpt><trkpt lat="45.8833072" lon="14.1680418"><ele>708.5</ele><time>2026-04-26T12:51:15.439Z</time></trkpt><trkpt lat="45.8833233" lon="14.1681957"><ele>711.25</ele><time>2026-04-26T12:51:16.439Z</time></trkpt><trkpt lat="45.8833435" lon="14.1683692"><ele>714.0</ele><time>2026-04-26T12:51:17.44Z</time></trkpt><trkpt lat="45.883365" lon="14.1685488"><ele>714.75</ele><time>2026-04-26T12:51:18.439Z</time></trkpt><trkpt lat="45.8833964" lon="14.1687496"><ele>715.5</ele><time>2026-04-26T12:51:19.44Z</time></trkpt><trkpt lat="45.8834337" lon="14.1689629"><ele>716.25</ele><time>2026-04-26T12:51:20.439Z</time></trkpt><trkpt lat="45.8834746" lon="14.1691551"><ele>717.0</ele><time>2026-04-26T12:51:21.439Z</time></trkpt><trkpt lat="45.8835179" lon="14.1693068"><ele>713.2</ele><time>2026-04-26T12:51:22.44Z</time></trkpt><trkpt lat="45.8835667" lon="14.1694525"><ele>709.4000000000001</ele><time>2026-04-26T12:51:23.439Z</time></trkpt><trkpt lat="45.8836226" lon="14.1696072"><ele>705.5999999999999</ele><time>2026-04-26T12:51:24.439Z</time></trkpt><trkpt lat="45.8836802" lon="14.1697403"><ele>701.8</ele><time>2026-04-26T12:51:25.439Z</time></trkpt><trkpt lat="45.8837297" lon="14.1698693"><ele>698.0</ele><time>2026-04-26T12:51:26.439Z</time></trkpt><trkpt lat="45.8837642" lon="14.169977"><ele>698.0</ele><time>2026-04-26T12:51:27.439Z</time></trkpt><trkpt lat="45.8837969" lon="14.1700851"><ele>698.0</ele><time>2026-04-26T12:51:28.439Z</time></trkpt><trkpt lat="45.883822" lon="14.1702142"><ele>698.0</ele><time>2026-04-26T12:51:29.439Z</time></trkpt><trkpt lat="45.8838449" lon="14.170344"><ele>698.0</ele><time>2026-04-26T12:51:30.439Z</time></trkpt><trkpt lat="45.8838671" lon="14.1704663"><ele>698.0</ele><time>2026-04-26T12:51:31.439Z</time></trkpt><trkpt lat="45.8838645" lon="14.1705638"><ele>698.0</ele><time>2026-04-26T12:51:32.439Z</time></trkpt><trkpt lat="45.8838497" lon="14.1706592"><ele>696.5</ele><time>2026-04-26T12:51:33.439Z</time></trkpt><trkpt lat="45.8838211" lon="14.170741"><ele>695.0</ele><time>2026-04-26T12:51:34.439Z</time></trkpt><trkpt lat="45.8837812" lon="14.1708139"><ele>693.5</ele><time>2026-04-26T12:51:35.439Z</time></trkpt><trkpt lat="45.883725" lon="14.170884"><ele>692.0</ele><time>2026-04-26T12:51:36.439Z</time></trkpt><trkpt lat="45.8836647" lon="14.1709368"><ele>690.5</ele><time>2026-04-26T12:51:37.439Z</time></trkpt><trkpt lat="45.8835351" lon="14.1709831"><ele>689.0</ele><time>2026-04-26T12:51:39.439Z</time></trkpt><trkpt lat="45.8834133" lon="14.1709355"><ele>694.1666666666666</ele><time>2026-04-26T12:51:41.439Z</time></trkpt><trkpt lat="45.8833516" lon="14.1708747"><ele>699.3333333333333</ele><time>2026-04-26T12:51:42.439Z</time></trkpt><trkpt lat="45.8832974" lon="14.1707945"><ele>704.5</ele><time>2026-04-26T12:51:43.439Z</time></trkpt><trkpt lat="45.883232" lon="14.1707208"><ele>709.6666666666666</ele><time>2026-04-26T12:51:44.439Z</time></trkpt><trkpt lat="45.8831535" lon="14.1706495"><ele>714.8333333333334</ele><time>2026-04-26T12:51:45.439Z</time></trkpt><trkpt lat="45.8830762" lon="14.1705869"><ele>720.0</ele><time>2026-04-26T12:51:46.439Z</time></trkpt><trkpt lat="45.8829791" lon="14.1705307"><ele>721.8333333333334</ele><time>2026-04-26T12:51:47.439Z</time></trkpt><trkpt lat="45.8828941" lon="14.1704787"><ele>723.6666666666666</ele><time>2026-04-26T12:51:48.439Z</time></trkpt><trkpt lat="45.8828046" lon="14.1704428"><ele>725.5</ele><time>2026-04-26T12:51:49.439Z</time></trkpt><trkpt lat="45.8827255" lon="14.1704062"><ele>727.3333333333333</ele><time>2026-04-26T12:51:50.439Z</time></trkpt><trkpt lat="45.8826385" lon="14.170393"><ele>729.1666666666666</ele><time>2026-04-26T12:51:51.439Z</time></trkpt><trkpt lat="45.8825474" lon="14.1703865"><ele>731.0</ele><time>2026-04-26T12:51:52.439Z</time></trkpt><trkpt lat="45.8824454" lon="14.1703858"><ele>733.0</ele><time>2026-04-26T12:51:53.44Z</time></trkpt><trkpt lat="45.8823435" lon="14.170389"><ele>735.0</ele><time>2026-04-26T12:51:54.439Z</time></trkpt><trkpt lat="45.8822548" lon="14.1704062"><ele>737.0</ele><time>2026-04-26T12:51:55.439Z</time></trkpt><trkpt lat="45.8821736" lon="14.1704395"><ele>739.0</ele><time>2026-04-26T12:51:56.439Z</time></trkpt><trkpt lat="45.8820934" lon="14.1704845"><ele>741.0</ele><time>2026-04-26T12:51:57.44Z</time></trkpt><trkpt lat="45.8820138" lon="14.1705395"><ele>741.0</ele><time>2026-04-26T12:51:58.439Z</time></trkpt><trkpt lat="45.8819338" lon="14.1706121"><ele>741.0</ele><time>2026-04-26T12:51:59.439Z</time></trkpt><trkpt lat="45.8818522" lon="14.1707094"><ele>741.0</ele><time>2026-04-26T12:52:00.439Z</time></trkpt><trkpt lat="45.8817706" lon="14.1708281"><ele>741.0</ele><time>2026-04-26T12:52:01.439Z</time></trkpt><trkpt lat="45.8816709" lon="14.1709573"><ele>743.25</ele><time>2026-04-26T12:52:02.439Z</time></trkpt><trkpt lat="45.8815696" lon="14.1710864"><ele>745.5</ele><time>2026-04-26T12:52:03.439Z</time></trkpt><trkpt lat="45.8814826" lon="14.1712155"><ele>747.75</ele><time>2026-04-26T12:52:04.439Z</time></trkpt><trkpt lat="45.8814062" lon="14.1713399"><ele>750.0</ele><time>2026-04-26T12:52:05.439Z</time></trkpt><trkpt lat="45.8813415" lon="14.1714297"><ele>750.0</ele><time>2026-04-26T12:52:06.439Z</time></trkpt><trkpt lat="45.8812733" lon="14.171491"><ele>750.0</ele><time>2026-04-26T12:52:07.439Z</time></trkpt><trkpt lat="45.8811992" lon="14.1715321"><ele>750.0</ele><time>2026-04-26T12:52:08.44Z</time></trkpt><trkpt lat="45.8811156" lon="14.1715663"><ele>750.0</ele><time>2026-04-26T12:52:09.439Z</time></trkpt><trkpt lat="45.8810238" lon="14.1715791"><ele>750.0</ele><time>2026-04-26T12:52:10.439Z</time></trkpt><trkpt lat="45.8809257" lon="14.1715974"><ele>750.0</ele><time>2026-04-26T12:52:11.439Z</time></trkpt><trkpt lat="45.8808167" lon="14.1716144"><ele>750.8</ele><time>2026-04-26T12:52:12.44Z</time></trkpt><trkpt lat="45.8806988" lon="14.1716362"><ele>751.6</ele><time>2026-04-26T12:52:13.439Z</time></trkpt><trkpt lat="45.8805906" lon="14.1716512"><ele>752.4000000000001</ele><time>2026-04-26T12:52:14.439Z</time></trkpt><trkpt lat="45.8804901" lon="14.1716706"><ele>753.2</ele><time>2026-04-26T12:52:15.439Z</time></trkpt><trkpt lat="45.8803975" lon="14.1716944"><ele>754.0</ele><time>2026-04-26T12:52:16.439Z</time></trkpt><trkpt lat="45.8803157" lon="14.1717317"><ele>754.0</ele><time>2026-04-26T12:52:17.439Z</time></trkpt><trkpt lat="45.8802546" lon="14.1717831"><ele>754.0</ele><time>2026-04-26T12:52:18.439Z</time></trkpt><trkpt lat="45.8801818" lon="14.1718675"><ele>754.0</ele><time>2026-04-26T12:52:19.439Z</time></trkpt><trkpt lat="45.8800893" lon="14.1719577"><ele>754.0</ele><time>2026-04-26T12:52:20.439Z</time></trkpt><trkpt lat="45.8799965" lon="14.1720559"><ele>754.0</ele><time>2026-04-26T12:52:21.439Z</time></trkpt><trkpt lat="45.8799146" lon="14.172135"><ele>757.2</ele><time>2026-04-26T12:52:22.439Z</time></trkpt><trkpt lat="45.8798304" lon="14.1721935"><ele>760.4000000000001</ele><time>2026-04-26T12:52:23.439Z</time></trkpt><trkpt lat="45.8797558" lon="14.172249"><ele>763.6</ele><time>2026-04-26T12:52:24.439Z</time></trkpt><trkpt lat="45.8796668" lon="14.1722971"><ele>766.8</ele><time>2026-04-26T12:52:25.439Z</time></trkpt><trkpt lat="45.8795793" lon="14.1723193"><ele>770.0</ele><time>2026-04-26T12:52:26.439Z</time></trkpt><trkpt lat="45.8794868" lon="14.1723375"><ele>770.0000000000001</ele><time>2026-04-26T12:52:27.439Z</time></trkpt><trkpt lat="45.879395" lon="14.1723531"><ele>770.0</ele><time>2026-04-26T12:52:28.439Z</time></trkpt><trkpt lat="45.8793069" lon="14.1723769"><ele>770.0</ele><time>2026-04-26T12:52:29.439Z</time></trkpt><trkpt lat="45.879215" lon="14.1723969"><ele>770.0</ele><time>2026-04-26T12:52:30.44Z</time></trkpt><trkpt lat="45.8791276" lon="14.1724218"><ele>770.0000000000001</ele><time>2026-04-26T12:52:31.439Z</time></trkpt><trkpt lat="45.8790446" lon="14.1724454"><ele>770.0</ele><time>2026-04-26T12:52:32.439Z</time></trkpt><trkpt lat="45.8789703" lon="14.1724862"><ele>768.1666666666667</ele><time>2026-04-26T12:52:33.439Z</time></trkpt><trkpt lat="45.8789062" lon="14.1725338"><ele>766.3333333333334</ele><time>2026-04-26T12:52:34.439Z</time></trkpt><trkpt lat="45.8788379" lon="14.1725779"><ele>764.5</ele><time>2026-04-26T12:52:35.439Z</time></trkpt><trkpt lat="45.8787835" lon="14.1726276"><ele>762.6666666666667</ele><time>2026-04-26T12:52:36.439Z</time></trkpt><trkpt lat="45.8787315" lon="14.1727072"><ele>760.8333333333334</ele><time>2026-04-26T12:52:37.439Z</time></trkpt><trkpt lat="45.8786812" lon="14.1728031"><ele>759.0</ele><time>2026-04-26T12:52:38.439Z</time></trkpt><trkpt lat="45.8786293" lon="14.1729041"><ele>759.0</ele><time>2026-04-26T12:52:39.439Z</time></trkpt><trkpt lat="45.8785833" lon="14.1730085"><ele>759.0</ele><time>2026-04-26T12:52:40.439Z</time></trkpt><trkpt lat="45.8785452" lon="14.1731206"><ele>759.0</ele><time>2026-04-26T12:52:41.439Z</time></trkpt><trkpt lat="45.8785123" lon="14.1732285"><ele>759.0</ele><time>2026-04-26T12:52:42.439Z</time></trkpt><trkpt lat="45.8784928" lon="14.1733254"><ele>759.0</ele><time>2026-04-26T12:52:43.439Z</time></trkpt><trkpt lat="45.8784786" lon="14.1734258"><ele>759.0</ele><time>2026-04-26T12:52:44.439Z</time></trkpt><trkpt lat="45.8784749" lon="14.1735377"><ele>755.8333333333334</ele><time>2026-04-26T12:52:45.439Z</time></trkpt><trkpt lat="45.8784842" lon="14.1736573"><ele>752.6666666666666</ele><time>2026-04-26T12:52:46.439Z</time></trkpt><trkpt lat="45.8784951" lon="14.173798"><ele>749.5</ele><time>2026-04-26T12:52:47.439Z</time></trkpt><trkpt lat="45.8785017" lon="14.1739324"><ele>746.3333333333333</ele><time>2026-04-26T12:52:48.439Z</time></trkpt><trkpt lat="45.8785089" lon="14.1740507"><ele>743.1666666666666</ele><time>2026-04-26T12:52:49.44Z</time></trkpt><trkpt lat="45.8785152" lon="14.1741511"><ele>740.0</ele><time>2026-04-26T12:52:50.439Z</time></trkpt><trkpt lat="45.8785102" lon="14.1742533"><ele>736.8333333333333</ele><time>2026-04-26T12:52:51.439Z</time></trkpt><trkpt lat="45.8785027" lon="14.1743652"><ele>733.6666666666666</ele><time>2026-04-26T12:52:52.439Z</time></trkpt><trkpt lat="45.8784866" lon="14.1744728"><ele>730.5</ele><time>2026-04-26T12:52:53.439Z</time></trkpt><trkpt lat="45.878466" lon="14.1745903"><ele>727.3333333333334</ele><time>2026-04-26T12:52:54.439Z</time></trkpt><trkpt lat="45.8784536" lon="14.174694"><ele>724.1666666666667</ele><time>2026-04-26T12:52:55.439Z</time></trkpt><trkpt lat="45.8784362" lon="14.1747862"><ele>721.0</ele><time>2026-04-26T12:52:56.44Z</time></trkpt><trkpt lat="45.8784412" lon="14.1749424"><ele>719.0</ele><time>2026-04-26T12:52:58.44Z</time></trkpt><trkpt lat="45.8784845" lon="14.1751084"><ele>717.0</ele><time>2026-04-26T12:53:00.439Z</time></trkpt><trkpt lat="45.8785541" lon="14.1752649"><ele>715.0</ele><time>2026-04-26T12:53:02.439Z</time></trkpt><trkpt lat="45.878589" lon="14.1753632"><ele>713.0</ele><time>2026-04-26T12:53:03.439Z</time></trkpt><trkpt lat="45.8786213" lon="14.1754538"><ele>711.0</ele><time>2026-04-26T12:53:04.439Z</time></trkpt><trkpt lat="45.8786428" lon="14.1755607"><ele>711.0</ele><time>2026-04-26T12:53:05.439Z</time></trkpt><trkpt lat="45.8786522" lon="14.1756765"><ele>711.0</ele><time>2026-04-26T12:53:06.439Z</time></trkpt><trkpt lat="45.8786531" lon="14.1757998"><ele>711.0</ele><time>2026-04-26T12:53:07.439Z</time></trkpt><trkpt lat="45.8786618" lon="14.1759537"><ele>711.0</ele><time>2026-04-26T12:53:08.439Z</time></trkpt><trkpt lat="45.8786619" lon="14.1761197"><ele>711.0</ele><time>2026-04-26T12:53:09.439Z</time></trkpt><trkpt lat="45.8786617" lon="14.1762713"><ele>710.0</ele><time>2026-04-26T12:53:10.439Z</time></trkpt><trkpt lat="45.8786606" lon="14.1764118"><ele>709.0</ele><time>2026-04-26T12:53:11.439Z</time></trkpt><trkpt lat="45.8786426" lon="14.1765333"><ele>708.0</ele><time>2026-04-26T12:53:12.439Z</time></trkpt><trkpt lat="45.8786208" lon="14.1766729"><ele>707.0</ele><time>2026-04-26T12:53:13.439Z</time></trkpt><trkpt lat="45.8785999" lon="14.1768198"><ele>706.0</ele><time>2026-04-26T12:53:14.439Z</time></trkpt><trkpt lat="45.878575" lon="14.1769608"><ele>704.3333333333334</ele><time>2026-04-26T12:53:15.439Z</time></trkpt><trkpt lat="45.8785567" lon="14.1770877"><ele>702.6666666666667</ele><time>2026-04-26T12:53:16.439Z</time></trkpt><trkpt lat="45.8785475" lon="14.1771991"><ele>701.0</ele><time>2026-04-26T12:53:17.44Z</time></trkpt><trkpt lat="45.8785308" lon="14.1773029"><ele>699.3333333333334</ele><time>2026-04-26T12:53:18.44Z</time></trkpt><trkpt lat="45.8785292" lon="14.1774088"><ele>697.6666666666666</ele><time>2026-04-26T12:53:19.439Z</time></trkpt><trkpt lat="45.8785429" lon="14.1775291"><ele>696.0</ele><time>2026-04-26T12:53:20.439Z</time></trkpt><trkpt lat="45.8785613" lon="14.1776671"><ele>693.75</ele><time>2026-04-26T12:53:21.439Z</time></trkpt><trkpt lat="45.8785953" lon="14.177822"><ele>691.5</ele><time>2026-04-26T12:53:22.439Z</time></trkpt><trkpt lat="45.878626" lon="14.1779816"><ele>689.25</ele><time>2026-04-26T12:53:23.439Z</time></trkpt><trkpt lat="45.8786467" lon="14.1781518"><ele>687.0</ele><time>2026-04-26T12:53:24.439Z</time></trkpt><trkpt lat="45.8786634" lon="14.178311"><ele>686.0</ele><time>2026-04-26T12:53:25.439Z</time></trkpt><trkpt lat="45.8786721" lon="14.1784682"><ele>685.0</ele><time>2026-04-26T12:53:26.439Z</time></trkpt><trkpt lat="45.878669" lon="14.1786265"><ele>684.0</ele><time>2026-04-26T12:53:27.44Z</time></trkpt><trkpt lat="45.8786629" lon="14.1787848"><ele>683.0</ele><time>2026-04-26T12:53:28.439Z</time></trkpt><trkpt lat="45.8786566" lon="14.1789235"><ele>682.0</ele><time>2026-04-26T12:53:29.439Z</time></trkpt><trkpt lat="45.8786514" lon="14.1790469"><ele>680.4000000000001</ele><time>2026-04-26T12:53:30.439Z</time></trkpt><trkpt lat="45.8786412" lon="14.1791634"><ele>678.8000000000001</ele><time>2026-04-26T12:53:31.439Z</time></trkpt><trkpt lat="45.8786313" lon="14.1792778"><ele>677.2</ele><time>2026-04-26T12:53:32.439Z</time></trkpt><trkpt lat="45.8786039" lon="14.1794019"><ele>675.6</ele><time>2026-04-26T12:53:33.439Z</time></trkpt><trkpt lat="45.8785676" lon="14.1795374"><ele>674.0</ele><time>2026-04-26T12:53:34.439Z</time></trkpt><trkpt lat="45.8785161" lon="14.1796893"><ele>674.0</ele><time>2026-04-26T12:53:35.439Z</time></trkpt><trkpt lat="45.8784757" lon="14.1798383"><ele>674.0</ele><time>2026-04-26T12:53:36.439Z</time></trkpt><trkpt lat="45.8784525" lon="14.1800113"><ele>674.0</ele><time>2026-04-26T12:53:37.439Z</time></trkpt><trkpt lat="45.8784413" lon="14.1801943"><ele>674.0</ele><time>2026-04-26T12:53:38.439Z</time></trkpt><trkpt lat="45.8784157" lon="14.180383"><ele>676.0</ele><time>2026-04-26T12:53:39.439Z</time></trkpt><trkpt lat="45.8783777" lon="14.1805244"><ele>678.0</ele><time>2026-04-26T12:53:40.439Z</time></trkpt><trkpt lat="45.8783294" lon="14.1806619"><ele>680.0</ele><time>2026-04-26T12:53:41.439Z</time></trkpt><trkpt lat="45.8782985" lon="14.1807921"><ele>682.0</ele><time>2026-04-26T12:53:42.439Z</time></trkpt><trkpt lat="45.8782617" lon="14.1809163"><ele>684.0</ele><time>2026-04-26T12:53:43.44Z</time></trkpt><trkpt lat="45.8782313" lon="14.1810321"><ele>684.0</ele><time>2026-04-26T12:53:44.439Z</time></trkpt><trkpt lat="45.8782069" lon="14.1811413"><ele>684.0</ele><time>2026-04-26T12:53:45.439Z</time></trkpt><trkpt lat="45.8781918" lon="14.1812406"><ele>684.0</ele><time>2026-04-26T12:53:46.439Z</time></trkpt><trkpt lat="45.8781828" lon="14.1813417"><ele>684.0</ele><time>2026-04-26T12:53:47.439Z</time></trkpt><trkpt lat="45.8782074" lon="14.1815113"><ele>684.0</ele><time>2026-04-26T12:53:49.439Z</time></trkpt><trkpt lat="45.8782373" lon="14.1816032"><ele>684.0</ele><time>2026-04-26T12:53:50.439Z</time></trkpt><trkpt lat="45.8782834" lon="14.1817127"><ele>682.6666666666666</ele><time>2026-04-26T12:53:51.439Z</time></trkpt><trkpt lat="45.8783163" lon="14.1818159"><ele>681.3333333333334</ele><time>2026-04-26T12:53:52.439Z</time></trkpt><trkpt lat="45.8783332" lon="14.1819063"><ele>680.0</ele><time>2026-04-26T12:53:53.439Z</time></trkpt><trkpt lat="45.8783431" lon="14.1820065"><ele>678.6666666666667</ele><time>2026-04-26T12:53:54.439Z</time></trkpt><trkpt lat="45.8783467" lon="14.1821136"><ele>677.3333333333334</ele><time>2026-04-26T12:53:55.439Z</time></trkpt><trkpt lat="45.8783437" lon="14.1822598"><ele>676.0</ele><time>2026-04-26T12:53:56.439Z</time></trkpt><trkpt lat="45.8783325" lon="14.1824255"><ele>674.8</ele><time>2026-04-26T12:53:57.439Z</time></trkpt><trkpt lat="45.8783276" lon="14.182563"><ele>673.5999999999999</ele><time>2026-04-26T12:53:58.439Z</time></trkpt><trkpt lat="45.8783235" lon="14.1826931"><ele>672.4</ele><time>2026-04-26T12:53:59.44Z</time></trkpt><trkpt lat="45.8783249" lon="14.1828189"><ele>671.2</ele><time>2026-04-26T12:54:00.439Z</time></trkpt><trkpt lat="45.8783223" lon="14.1829523"><ele>670.0</ele><time>2026-04-26T12:54:01.439Z</time></trkpt><trkpt lat="45.878319" lon="14.1830997"><ele>667.8</ele><time>2026-04-26T12:54:02.439Z</time></trkpt><trkpt lat="45.8783041" lon="14.1832551"><ele>665.6</ele><time>2026-04-26T12:54:03.439Z</time></trkpt><trkpt lat="45.8782872" lon="14.1834146"><ele>663.4000000000001</ele><time>2026-04-26T12:54:04.439Z</time></trkpt><trkpt lat="45.8782712" lon="14.1835706"><ele>661.2</ele><time>2026-04-26T12:54:05.44Z</time></trkpt><trkpt lat="45.8782506" lon="14.1837325"><ele>659.0</ele><time>2026-04-26T12:54:06.439Z</time></trkpt><trkpt lat="45.878224" lon="14.1838918"><ele>656.25</ele><time>2026-04-26T12:54:07.439Z</time></trkpt><trkpt lat="45.8781949" lon="14.1840503"><ele>653.5</ele><time>2026-04-26T12:54:08.439Z</time></trkpt><trkpt lat="45.8781625" lon="14.1842169"><ele>650.75</ele><time>2026-04-26T12:54:09.44Z</time></trkpt><trkpt lat="45.8781362" lon="14.1843854"><ele>648.0</ele><time>2026-04-26T12:54:10.439Z</time></trkpt><trkpt lat="45.8781124" lon="14.1845435"><ele>648.0</ele><time>2026-04-26T12:54:11.439Z</time></trkpt><trkpt lat="45.8780914" lon="14.1847168"><ele>648.0</ele><time>2026-04-26T12:54:12.439Z</time></trkpt><trkpt lat="45.8780713" lon="14.1848839"><ele>648.0</ele><time>2026-04-26T12:54:13.439Z</time></trkpt><trkpt lat="45.8780533" lon="14.1850499"><ele>648.0</ele><time>2026-04-26T12:54:14.439Z</time></trkpt><trkpt lat="45.878034" lon="14.1852205"><ele>645.4</ele><time>2026-04-26T12:54:15.439Z</time></trkpt><trkpt lat="45.8780169" lon="14.1853688"><ele>642.8</ele><time>2026-04-26T12:54:16.439Z</time></trkpt><trkpt lat="45.8779986" lon="14.1855017"><ele>640.2</ele><time>2026-04-26T12:54:17.439Z</time></trkpt><trkpt lat="45.877983" lon="14.1856285"><ele>637.6</ele><time>2026-04-26T12:54:18.439Z</time></trkpt><trkpt lat="45.8779679" lon="14.1857458"><ele>635.0</ele><time>2026-04-26T12:54:19.44Z</time></trkpt><trkpt lat="45.8779493" lon="14.1858611"><ele>633.0</ele><time>2026-04-26T12:54:20.44Z</time></trkpt><trkpt lat="45.877922" lon="14.1859739"><ele>631.0</ele><time>2026-04-26T12:54:21.44Z</time></trkpt><trkpt lat="45.8779034" lon="14.1860864"><ele>629.0</ele><time>2026-04-26T12:54:22.439Z</time></trkpt><trkpt lat="45.8778836" lon="14.1861995"><ele>627.0</ele><time>2026-04-26T12:54:23.439Z</time></trkpt><trkpt lat="45.8778692" lon="14.1863072"><ele>625.0</ele><time>2026-04-26T12:54:24.439Z</time></trkpt><trkpt lat="45.8778556" lon="14.1864148"><ele>623.0</ele><time>2026-04-26T12:54:25.439Z</time></trkpt><trkpt lat="45.8778439" lon="14.1865187"><ele>620.8333333333333</ele><time>2026-04-26T12:54:26.439Z</time></trkpt><trkpt lat="45.8778363" lon="14.1866185"><ele>618.6666666666666</ele><time>2026-04-26T12:54:27.439Z</time></trkpt><trkpt lat="45.8778302" lon="14.186709"><ele>616.5</ele><time>2026-04-26T12:54:28.439Z</time></trkpt><trkpt lat="45.8778301" lon="14.1868259"><ele>614.3333333333334</ele><time>2026-04-26T12:54:30.439Z</time></trkpt><trkpt lat="45.8778195" lon="14.1869184"><ele>612.1666666666667</ele><time>2026-04-26T12:54:32.439Z</time></trkpt><trkpt lat="45.877885" lon="14.1868723"><ele>610.0</ele><time>2026-04-26T12:54:37.439Z</time></trkpt><trkpt lat="45.8779357" lon="14.186698"><ele>610.0</ele><time>2026-04-26T12:54:39.439Z</time></trkpt><trkpt lat="45.8779882" lon="14.1865979"><ele>610.0</ele><time>2026-04-26T12:54:40.439Z</time></trkpt><trkpt lat="45.8780598" lon="14.1864656"><ele>610.0</ele><time>2026-04-26T12:54:41.439Z</time></trkpt><trkpt lat="45.8781337" lon="14.1863417"><ele>610.0</ele><time>2026-04-26T12:54:42.439Z</time></trkpt><trkpt lat="45.8782056" lon="14.1862275"><ele>610.0</ele><time>2026-04-26T12:54:43.439Z</time></trkpt><trkpt lat="45.8782717" lon="14.1861275"><ele>612.1666666666667</ele><time>2026-04-26T12:54:44.439Z</time></trkpt><trkpt lat="45.8783379" lon="14.1860431"><ele>614.3333333333334</ele><time>2026-04-26T12:54:45.439Z</time></trkpt><trkpt lat="45.8784069" lon="14.1859634"><ele>616.5</ele><time>2026-04-26T12:54:46.439Z</time></trkpt><trkpt lat="45.8784738" lon="14.1858861"><ele>618.6666666666666</ele><time>2026-04-26T12:54:47.439Z</time></trkpt><trkpt lat="45.8785388" lon="14.1858223"><ele>620.8333333333333</ele><time>2026-04-26T12:54:48.439Z</time></trkpt><trkpt lat="45.8786081" lon="14.1857687"><ele>623.0</ele><time>2026-04-26T12:54:49.439Z</time></trkpt><trkpt lat="45.8786774" lon="14.1857103"><ele>619.6666666666666</ele><time>2026-04-26T12:54:50.439Z</time></trkpt><trkpt lat="45.8787452" lon="14.1856546"><ele>616.3333333333333</ele><time>2026-04-26T12:54:51.44Z</time></trkpt><trkpt lat="45.8788043" lon="14.1855899"><ele>613.0</ele><time>2026-04-26T12:54:52.439Z</time></trkpt><trkpt lat="45.8788662" lon="14.1855313"><ele>609.6666666666666</ele><time>2026-04-26T12:54:53.439Z</time></trkpt><trkpt lat="45.8789356" lon="14.18546"><ele>606.3333333333334</ele><time>2026-04-26T12:54:54.439Z</time></trkpt><trkpt lat="45.8790043" lon="14.1853376"><ele>603.0</ele><time>2026-04-26T12:54:55.439Z</time></trkpt><trkpt lat="45.8790588" lon="14.1851918"><ele>603.0</ele><time>2026-04-26T12:54:56.439Z</time></trkpt><trkpt lat="45.8791079" lon="14.1850596"><ele>603.0</ele><time>2026-04-26T12:54:57.439Z</time></trkpt><trkpt lat="45.8791586" lon="14.1849371"><ele>603.0</ele><time>2026-04-26T12:54:58.439Z</time></trkpt><trkpt lat="45.8792098" lon="14.1848131"><ele>603.0</ele><time>2026-04-26T12:54:59.439Z</time></trkpt><trkpt lat="45.8792717" lon="14.1846894"><ele>603.0</ele><time>2026-04-26T12:55:00.439Z</time></trkpt><trkpt lat="45.8793277" lon="14.1845548"><ele>601.6</ele><time>2026-04-26T12:55:01.439Z</time></trkpt><trkpt lat="45.8793889" lon="14.1844245"><ele>600.1999999999999</ele><time>2026-04-26T12:55:02.439Z</time></trkpt><trkpt lat="45.8794484" lon="14.1842982"><ele>598.8</ele><time>2026-04-26T12:55:03.439Z</time></trkpt><trkpt lat="45.879502" lon="14.1841822"><ele>597.4</ele><time>2026-04-26T12:55:04.439Z</time></trkpt><trkpt lat="45.8795511" lon="14.1840661"><ele>596.0</ele><time>2026-04-26T12:55:05.439Z</time></trkpt><trkpt lat="45.8796014" lon="14.1839583"><ele>596.0</ele><time>2026-04-26T12:55:06.439Z</time></trkpt><trkpt lat="45.8796746" lon="14.1838613"><ele>596.0</ele><time>2026-04-26T12:55:07.439Z</time></trkpt><trkpt lat="45.8797551" lon="14.1837728"><ele>596.0</ele><time>2026-04-26T12:55:08.439Z</time></trkpt><trkpt lat="45.8798274" lon="14.1836909"><ele>596.0</ele><time>2026-04-26T12:55:09.439Z</time></trkpt><trkpt lat="45.8799092" lon="14.1836032"><ele>596.0</ele><time>2026-04-26T12:55:10.439Z</time></trkpt><trkpt lat="45.8799865" lon="14.1835219"><ele>596.0</ele><time>2026-04-26T12:55:11.44Z</time></trkpt><trkpt lat="45.8800638" lon="14.1834411"><ele>596.0</ele><time>2026-04-26T12:55:12.439Z</time></trkpt><trkpt lat="45.8801256" lon="14.1833456"><ele>596.0</ele><time>2026-04-26T12:55:13.439Z</time></trkpt><trkpt lat="45.8801782" lon="14.1832412"><ele>596.0</ele><time>2026-04-26T12:55:14.439Z</time></trkpt><trkpt lat="45.8802373" lon="14.183139"><ele>596.0</ele><time>2026-04-26T12:55:15.439Z</time></trkpt><trkpt lat="45.8802943" lon="14.1830314"><ele>593.1666666666666</ele><time>2026-04-26T12:55:16.439Z</time></trkpt><trkpt lat="45.8803389" lon="14.1829251"><ele>590.3333333333333</ele><time>2026-04-26T12:55:17.439Z</time></trkpt><trkpt lat="45.8803623" lon="14.1828111"><ele>587.5</ele><time>2026-04-26T12:55:18.439Z</time></trkpt><trkpt lat="45.880389" lon="14.1827024"><ele>584.6666666666666</ele><time>2026-04-26T12:55:19.44Z</time></trkpt><trkpt lat="45.8804117" lon="14.1825772"><ele>581.8333333333334</ele><time>2026-04-26T12:55:20.439Z</time></trkpt><trkpt lat="45.8804291" lon="14.1824321"><ele>579.0</ele><time>2026-04-26T12:55:21.439Z</time></trkpt><trkpt lat="45.8804399" lon="14.1822922"><ele>579.0</ele><time>2026-04-26T12:55:22.44Z</time></trkpt><trkpt lat="45.8804556" lon="14.1821566"><ele>579.0</ele><time>2026-04-26T12:55:23.439Z</time></trkpt><trkpt lat="45.8804797" lon="14.182036"><ele>579.0</ele><time>2026-04-26T12:55:24.439Z</time></trkpt><trkpt lat="45.8805111" lon="14.1819216"><ele>579.0</ele><time>2026-04-26T12:55:25.44Z</time></trkpt><trkpt lat="45.8805621" lon="14.1818218"><ele>579.0</ele><time>2026-04-26T12:55:26.44Z</time></trkpt><trkpt lat="45.8806244" lon="14.1817346"><ele>579.0</ele><time>2026-04-26T12:55:27.439Z</time></trkpt><trkpt lat="45.8806982" lon="14.1816426"><ele>579.0</ele><time>2026-04-26T12:55:28.439Z</time></trkpt><trkpt lat="45.8807693" lon="14.1815552"><ele>579.0</ele><time>2026-04-26T12:55:29.44Z</time></trkpt><trkpt lat="45.8808437" lon="14.1814807"><ele>579.0</ele><time>2026-04-26T12:55:30.439Z</time></trkpt><trkpt lat="45.8809103" lon="14.1814154"><ele>579.0</ele><time>2026-04-26T12:55:31.439Z</time></trkpt><trkpt lat="45.8809779" lon="14.1813644"><ele>579.0</ele><time>2026-04-26T12:55:32.439Z</time></trkpt><trkpt lat="45.8810355" lon="14.1813156"><ele>579.0</ele><time>2026-04-26T12:55:33.439Z</time></trkpt><trkpt lat="45.8811192" lon="14.1812181"><ele>577.4</ele><time>2026-04-26T12:55:35.439Z</time></trkpt><trkpt lat="45.8811853" lon="14.1810846"><ele>575.8</ele><time>2026-04-26T12:55:37.439Z</time></trkpt><trkpt lat="45.8812151" lon="14.1810016"><ele>574.2</ele><time>2026-04-26T12:55:38.439Z</time></trkpt><trkpt lat="45.8812409" lon="14.1808216"><ele>572.6</ele><time>2026-04-26T12:55:40.439Z</time></trkpt><trkpt lat="45.8812422" lon="14.1807185"><ele>571.0</ele><time>2026-04-26T12:55:41.439Z</time></trkpt><trkpt lat="45.8812432" lon="14.1806105"><ele>571.0</ele><time>2026-04-26T12:55:42.439Z</time></trkpt><trkpt lat="45.8812497" lon="14.1805122"><ele>571.0</ele><time>2026-04-26T12:55:43.439Z</time></trkpt><trkpt lat="45.8812705" lon="14.1804175"><ele>571.0</ele><time>2026-04-26T12:55:44.439Z</time></trkpt><trkpt lat="45.8813129" lon="14.1803321"><ele>571.0</ele><time>2026-04-26T12:55:45.439Z</time></trkpt><trkpt lat="45.881367" lon="14.1802559"><ele>571.0</ele><time>2026-04-26T12:55:46.439Z</time></trkpt><trkpt lat="45.881433" lon="14.1801808"><ele>571.0</ele><time>2026-04-26T12:55:47.439Z</time></trkpt><trkpt lat="45.8815047" lon="14.1801044"><ele>571.0</ele><time>2026-04-26T12:55:48.439Z</time></trkpt><trkpt lat="45.881572" lon="14.1800251"><ele>571.0</ele><time>2026-04-26T12:55:49.439Z</time></trkpt><trkpt lat="45.8816304" lon="14.1799392"><ele>571.0</ele><time>2026-04-26T12:55:50.44Z</time></trkpt><trkpt lat="45.8816759" lon="14.179841"><ele>571.0</ele><time>2026-04-26T12:55:51.439Z</time></trkpt><trkpt lat="45.8817141" lon="14.1797274"><ele>571.0</ele><time>2026-04-26T12:55:52.439Z</time></trkpt><trkpt lat="45.8817459" lon="14.1795952"><ele>571.0</ele><time>2026-04-26T12:55:53.439Z</time></trkpt><trkpt lat="45.8817759" lon="14.1794777"><ele>569.6666666666667</ele><time>2026-04-26T12:55:54.439Z</time></trkpt><trkpt lat="45.8818001" lon="14.1793711"><ele>568.3333333333334</ele><time>2026-04-26T12:55:55.439Z</time></trkpt><trkpt lat="45.8818282" lon="14.1792715"><ele>567.0</ele><time>2026-04-26T12:55:56.439Z</time></trkpt><trkpt lat="45.8818606" lon="14.1791924"><ele>565.6666666666666</ele><time>2026-04-26T12:55:57.439Z</time></trkpt><trkpt lat="45.8819541" lon="14.1791159"><ele>564.3333333333333</ele><time>2026-04-26T12:55:59.439Z</time></trkpt><trkpt lat="45.8820485" lon="14.1791142"><ele>563.0</ele><time>2026-04-26T12:56:01.439Z</time></trkpt><trkpt lat="45.8821292" lon="14.1792069"><ele>563.0</ele><time>2026-04-26T12:56:03.439Z</time></trkpt><trkpt lat="45.8821306" lon="14.1794021"><ele>563.0</ele><time>2026-04-26T12:56:05.439Z</time></trkpt><trkpt lat="45.8821169" lon="14.1795273"><ele>563.0</ele><time>2026-04-26T12:56:06.44Z</time></trkpt><trkpt lat="45.8821155" lon="14.1796373"><ele>563.0</ele><time>2026-04-26T12:56:07.439Z</time></trkpt><trkpt lat="45.882129" lon="14.1797931"><ele>563.0</ele><time>2026-04-26T12:56:09.439Z</time></trkpt><trkpt lat="45.882178" lon="14.179895"><ele>561.0</ele><time>2026-04-26T12:56:11.44Z</time></trkpt><trkpt lat="45.882276" lon="14.1799448"><ele>559.0</ele><time>2026-04-26T12:56:13.439Z</time></trkpt><trkpt lat="45.8824138" lon="14.1799195"><ele>557.0</ele><time>2026-04-26T12:56:15.439Z</time></trkpt><trkpt lat="45.8825187" lon="14.1798532"><ele>555.0</ele><time>2026-04-26T12:56:16.439Z</time></trkpt><trkpt lat="45.8826286" lon="14.1797545"><ele>553.4</ele><time>2026-04-26T12:56:17.44Z</time></trkpt><trkpt lat="45.8827301" lon="14.1796524"><ele>551.8</ele><time>2026-04-26T12:56:18.44Z</time></trkpt><trkpt lat="45.8828219" lon="14.1795507"><ele>550.2</ele><time>2026-04-26T12:56:19.439Z</time></trkpt><trkpt lat="45.8829062" lon="14.1794668"><ele>548.6</ele><time>2026-04-26T12:56:20.439Z</time></trkpt><trkpt lat="45.8829825" lon="14.1793796"><ele>547.0</ele><time>2026-04-26T12:56:21.439Z</time></trkpt><trkpt lat="45.8830549" lon="14.1792906"><ele>547.0</ele><time>2026-04-26T12:56:22.439Z</time></trkpt><trkpt lat="45.8831195" lon="14.1792028"><ele>547.0</ele><time>2026-04-26T12:56:23.439Z</time></trkpt><trkpt lat="45.8831761" lon="14.1791271"><ele>547.0</ele><time>2026-04-26T12:56:24.439Z</time></trkpt><trkpt lat="45.8832806" lon="14.1790417"><ele>547.0</ele><time>2026-04-26T12:56:26.44Z</time></trkpt><trkpt lat="45.8833822" lon="14.1790656"><ele>547.0</ele><time>2026-04-26T12:56:28.439Z</time></trkpt><trkpt lat="45.8834732" lon="14.1790655"><ele>545.8000000000001</ele><time>2026-04-26T12:56:30.439Z</time></trkpt><trkpt lat="45.8835521" lon="14.178947"><ele>544.6</ele><time>2026-04-26T12:56:32.439Z</time></trkpt><trkpt lat="45.8835961" lon="14.1788453"><ele>543.4000000000001</ele><time>2026-04-26T12:56:33.439Z</time></trkpt><trkpt lat="45.8836405" lon="14.178726"><ele>542.2</ele><time>2026-04-26T12:56:34.44Z</time></trkpt><trkpt lat="45.8836837" lon="14.1786074"><ele>541.0</ele><time>2026-04-26T12:56:35.439Z</time></trkpt><trkpt lat="45.883728" lon="14.1785137"><ele>541.0</ele><time>2026-04-26T12:56:36.439Z</time></trkpt><trkpt lat="45.883779" lon="14.178446"><ele>541.0</ele><time>2026-04-26T12:56:37.439Z</time></trkpt><trkpt lat="45.8838944" lon="14.1783593"><ele>541.0</ele><time>2026-04-26T12:56:39.439Z</time></trkpt><trkpt lat="45.8839635" lon="14.1783423"><ele>541.0</ele><time>2026-04-26T12:56:40.439Z</time></trkpt><trkpt lat="45.8840513" lon="14.1783511"><ele>541.0</ele><time>2026-04-26T12:56:41.439Z</time></trkpt><trkpt lat="45.8841517" lon="14.178377"><ele>541.0</ele><time>2026-04-26T12:56:42.439Z</time></trkpt><trkpt lat="45.8842529" lon="14.1783977"><ele>541.0</ele><time>2026-04-26T12:56:43.439Z</time></trkpt><trkpt lat="45.8843408" lon="14.1784169"><ele>541.0</ele><time>2026-04-26T12:56:44.44Z</time></trkpt><trkpt lat="45.8844143" lon="14.178434"><ele>541.0</ele><time>2026-04-26T12:56:45.439Z</time></trkpt><trkpt lat="45.8844831" lon="14.1784449"><ele>541.0</ele><time>2026-04-26T12:56:46.439Z</time></trkpt><trkpt lat="45.884601" lon="14.1784118"><ele>541.0</ele><time>2026-04-26T12:56:48.44Z</time></trkpt><trkpt lat="45.8846583" lon="14.1783539"><ele>541.0</ele><time>2026-04-26T12:56:49.439Z</time></trkpt><trkpt lat="45.8847101" lon="14.1782954"><ele>541.0</ele><time>2026-04-26T12:56:50.439Z</time></trkpt><trkpt lat="45.8847699" lon="14.1781408"><ele>541.0</ele><time>2026-04-26T12:56:52.439Z</time></trkpt><trkpt lat="45.8847687" lon="14.1780356"><ele>541.0</ele><time>2026-04-26T12:56:53.439Z</time></trkpt><trkpt lat="45.8847531" lon="14.1779184"><ele>541.0</ele><time>2026-04-26T12:56:54.439Z</time></trkpt><trkpt lat="45.8847451" lon="14.1778043"><ele>541.0000000000001</ele><time>2026-04-26T12:56:55.439Z</time></trkpt><trkpt lat="45.8847474" lon="14.1776972"><ele>541.0</ele><time>2026-04-26T12:56:56.439Z</time></trkpt><trkpt lat="45.8847795" lon="14.1776121"><ele>541.0</ele><time>2026-04-26T12:56:57.44Z</time></trkpt><trkpt lat="45.8848342" lon="14.1775449"><ele>541.0</ele><time>2026-04-26T12:56:58.439Z</time></trkpt><trkpt lat="45.8848932" lon="14.1774849"><ele>541.0</ele><time>2026-04-26T12:56:59.439Z</time></trkpt><trkpt lat="45.8849527" lon="14.1774305"><ele>541.0000000000001</ele><time>2026-04-26T12:57:00.439Z</time></trkpt><trkpt lat="45.8850272" lon="14.1773741"><ele>541.0</ele><time>2026-04-26T12:57:01.439Z</time></trkpt><trkpt lat="45.8851106" lon="14.1773297"><ele>541.3333333333334</ele><time>2026-04-26T12:57:02.439Z</time></trkpt><trkpt lat="45.8851882" lon="14.1773087"><ele>541.6666666666667</ele><time>2026-04-26T12:57:03.439Z</time></trkpt><trkpt lat="45.885258" lon="14.1772984"><ele>542.0</ele><time>2026-04-26T12:57:04.439Z</time></trkpt><trkpt lat="45.8853224" lon="14.177281"><ele>542.3333333333334</ele><time>2026-04-26T12:57:05.439Z</time></trkpt><trkpt lat="45.8854208" lon="14.1772001"><ele>542.6666666666666</ele><time>2026-04-26T12:57:07.439Z</time></trkpt><trkpt lat="45.8854689" lon="14.1771196"><ele>543.0</ele><time>2026-04-26T12:57:08.44Z</time></trkpt><trkpt lat="45.885516" lon="14.1770119"><ele>543.0</ele><time>2026-04-26T12:57:09.439Z</time></trkpt><trkpt lat="45.8855622" lon="14.1768967"><ele>543.0</ele><time>2026-04-26T12:57:10.439Z</time></trkpt><trkpt lat="45.8856201" lon="14.1767822"><ele>543.0</ele><time>2026-04-26T12:57:11.439Z</time></trkpt><trkpt lat="45.8856924" lon="14.1766744"><ele>543.0</ele><time>2026-04-26T12:57:12.439Z</time></trkpt><trkpt lat="45.8857818" lon="14.1765652"><ele>543.0</ele><time>2026-04-26T12:57:13.439Z</time></trkpt><trkpt lat="45.885871" lon="14.1764599"><ele>542.4</ele><time>2026-04-26T12:57:14.439Z</time></trkpt><trkpt lat="45.8859561" lon="14.1763563"><ele>541.8</ele><time>2026-04-26T12:57:15.439Z</time></trkpt><trkpt lat="45.8860361" lon="14.176248"><ele>541.2</ele><time>2026-04-26T12:57:16.439Z</time></trkpt><trkpt lat="45.8861078" lon="14.1761421"><ele>540.6</ele><time>2026-04-26T12:57:17.44Z</time></trkpt><trkpt lat="45.8861759" lon="14.1760435"><ele>540.0</ele><time>2026-04-26T12:57:18.439Z</time></trkpt><trkpt lat="45.8862471" lon="14.1759459"><ele>540.0</ele><time>2026-04-26T12:57:19.439Z</time></trkpt><trkpt lat="45.8863099" lon="14.1758277"><ele>540.0</ele><time>2026-04-26T12:57:20.439Z</time></trkpt><trkpt lat="45.8863711" lon="14.1756729"><ele>540.0</ele><time>2026-04-26T12:57:21.439Z</time></trkpt><trkpt lat="45.8864315" lon="14.1755061"><ele>540.0</ele><time>2026-04-26T12:57:22.439Z</time></trkpt><trkpt lat="45.8864983" lon="14.1753439"><ele>540.0</ele><time>2026-04-26T12:57:23.439Z</time></trkpt><trkpt lat="45.8865624" lon="14.1751963"><ele>540.0</ele><time>2026-04-26T12:57:24.439Z</time></trkpt><trkpt lat="45.8866231" lon="14.1750577"><ele>540.0</ele><time>2026-04-26T12:57:25.439Z</time></trkpt><trkpt lat="45.8866836" lon="14.1749244"><ele>540.0</ele><time>2026-04-26T12:57:26.439Z</time></trkpt><trkpt lat="45.8867359" lon="14.1747944"><ele>539.3333333333334</ele><time>2026-04-26T12:57:27.439Z</time></trkpt><trkpt lat="45.8867801" lon="14.1746709"><ele>538.6666666666666</ele><time>2026-04-26T12:57:28.44Z</time></trkpt><trkpt lat="45.8868231" lon="14.1745527"><ele>538.0</ele><time>2026-04-26T12:57:29.439Z</time></trkpt><trkpt lat="45.8868664" lon="14.1744414"><ele>537.3333333333333</ele><time>2026-04-26T12:57:30.439Z</time></trkpt><trkpt lat="45.8869042" lon="14.1743402"><ele>536.6666666666666</ele><time>2026-04-26T12:57:31.439Z</time></trkpt><trkpt lat="45.8869401" lon="14.174245"><ele>536.0</ele><time>2026-04-26T12:57:32.439Z</time></trkpt><trkpt lat="45.8869738" lon="14.1741613"><ele>536.0</ele><time>2026-04-26T12:57:33.439Z</time></trkpt><trkpt lat="45.8870085" lon="14.174074"><ele>536.0</ele><time>2026-04-26T12:57:34.439Z</time></trkpt><trkpt lat="45.8870454" lon="14.1739834"><ele>536.0</ele><time>2026-04-26T12:57:35.44Z</time></trkpt><trkpt lat="45.8870791" lon="14.1739008"><ele>536.0</ele><time>2026-04-26T12:57:36.439Z</time></trkpt><trkpt lat="45.8871684" lon="14.1737985"><ele>536.0</ele><time>2026-04-26T12:57:38.439Z</time></trkpt><trkpt lat="45.8872322" lon="14.1737759"><ele>536.0</ele><time>2026-04-26T12:57:39.439Z</time></trkpt><trkpt lat="45.8873024" lon="14.1737699"><ele>536.0</ele><time>2026-04-26T12:57:40.439Z</time></trkpt><trkpt lat="45.8873805" lon="14.1737992"><ele>536.0</ele><time>2026-04-26T12:57:41.439Z</time></trkpt><trkpt lat="45.8874592" lon="14.1738453"><ele>536.0</ele><time>2026-04-26T12:57:42.439Z</time></trkpt><trkpt lat="45.8875506" lon="14.1738919"><ele>536.0</ele><time>2026-04-26T12:57:43.439Z</time></trkpt><trkpt lat="45.8876512" lon="14.173919"><ele>536.0</ele><time>2026-04-26T12:57:44.439Z</time></trkpt><trkpt lat="45.8877689" lon="14.1739312"><ele>536.0</ele><time>2026-04-26T12:57:45.44Z</time></trkpt><trkpt lat="45.8878926" lon="14.1739298"><ele>536.0</ele><time>2026-04-26T12:57:46.439Z</time></trkpt><trkpt lat="45.8880143" lon="14.1739273"><ele>536.0</ele><time>2026-04-26T12:57:47.439Z</time></trkpt><trkpt lat="45.888123" lon="14.1739363"><ele>536.0</ele><time>2026-04-26T12:57:48.439Z</time></trkpt><trkpt lat="45.8882197" lon="14.1739427"><ele>536.0</ele><time>2026-04-26T12:57:49.439Z</time></trkpt><trkpt lat="45.8883067" lon="14.1739234"><ele>536.0</ele><time>2026-04-26T12:57:50.439Z</time></trkpt><trkpt lat="45.8883929" lon="14.173887"><ele>536.0</ele><time>2026-04-26T12:57:51.439Z</time></trkpt><trkpt lat="45.8884796" lon="14.1738264"><ele>536.0</ele><time>2026-04-26T12:57:52.439Z</time></trkpt><trkpt lat="45.8885703" lon="14.1737481"><ele>536.0</ele><time>2026-04-26T12:57:53.439Z</time></trkpt><trkpt lat="45.8886713" lon="14.1736441"><ele>534.6</ele><time>2026-04-26T12:57:54.439Z</time></trkpt><trkpt lat="45.8887684" lon="14.1735316"><ele>533.2</ele><time>2026-04-26T12:57:55.439Z</time></trkpt><trkpt lat="45.8888563" lon="14.1734241"><ele>531.8</ele><time>2026-04-26T12:57:56.439Z</time></trkpt><trkpt lat="45.8889326" lon="14.1733322"><ele>530.4</ele><time>2026-04-26T12:57:57.439Z</time></trkpt><trkpt lat="45.8890029" lon="14.1732473"><ele>529.0</ele><time>2026-04-26T12:57:58.439Z</time></trkpt><trkpt lat="45.8890662" lon="14.1731677"><ele>529.0</ele><time>2026-04-26T12:57:59.439Z</time></trkpt><trkpt lat="45.8891276" lon="14.1731036"><ele>529.0</ele><time>2026-04-26T12:58:00.439Z</time></trkpt><trkpt lat="45.889194" lon="14.1730597"><ele>529.0</ele><time>2026-04-26T12:58:01.44Z</time></trkpt><trkpt lat="45.8892727" lon="14.1730424"><ele>529.0</ele><time>2026-04-26T12:58:02.439Z</time></trkpt><trkpt lat="45.8893563" lon="14.1730473"><ele>529.0</ele><time>2026-04-26T12:58:03.439Z</time></trkpt><trkpt lat="45.889434" lon="14.1730688"><ele>529.0</ele><time>2026-04-26T12:58:04.44Z</time></trkpt><trkpt lat="45.8895137" lon="14.1731127"><ele>527.4</ele><time>2026-04-26T12:58:05.439Z</time></trkpt><trkpt lat="45.8895883" lon="14.1731791"><ele>525.8</ele><time>2026-04-26T12:58:06.439Z</time></trkpt><trkpt lat="45.8896612" lon="14.173269"><ele>524.2</ele><time>2026-04-26T12:58:07.439Z</time></trkpt><trkpt lat="45.8897369" lon="14.1733794"><ele>522.6</ele><time>2026-04-26T12:58:08.439Z</time></trkpt><trkpt lat="45.8898071" lon="14.1734932"><ele>521.0</ele><time>2026-04-26T12:58:09.439Z</time></trkpt><trkpt lat="45.889886" lon="14.1736032"><ele>520.3333333333333</ele><time>2026-04-26T12:58:10.439Z</time></trkpt><trkpt lat="45.8899484" lon="14.173678"><ele>519.6666666666666</ele><time>2026-04-26T12:58:11.439Z</time></trkpt><trkpt lat="45.890015" lon="14.1737507"><ele>519.0</ele><time>2026-04-26T12:58:12.439Z</time></trkpt><trkpt lat="45.8900812" lon="14.1738325"><ele>518.3333333333334</ele><time>2026-04-26T12:58:13.439Z</time></trkpt><trkpt lat="45.8901487" lon="14.1739292"><ele>517.6666666666667</ele><time>2026-04-26T12:58:14.439Z</time></trkpt><trkpt lat="45.8902061" lon="14.174015"><ele>517.0</ele><time>2026-04-26T12:58:15.439Z</time></trkpt><trkpt lat="45.8902637" lon="14.1740856"><ele>515.1666666666667</ele><time>2026-04-26T12:58:16.44Z</time></trkpt><trkpt lat="45.8903312" lon="14.1741265"><ele>513.3333333333334</ele><time>2026-04-26T12:58:17.439Z</time></trkpt><trkpt lat="45.8903928" lon="14.1741592"><ele>511.5</ele><time>2026-04-26T12:58:18.439Z</time></trkpt><trkpt lat="45.8904719" lon="14.1741742"><ele>509.66666666666663</ele><time>2026-04-26T12:58:19.439Z</time></trkpt><trkpt lat="45.8905577" lon="14.1741613"><ele>507.8333333333333</ele><time>2026-04-26T12:58:20.439Z</time></trkpt><trkpt lat="45.8906543" lon="14.1741305"><ele>506.0</ele><time>2026-04-26T12:58:21.44Z</time></trkpt><trkpt lat="45.8907482" lon="14.1740967"><ele>506.0</ele><time>2026-04-26T12:58:22.439Z</time></trkpt><trkpt lat="45.890825" lon="14.1740914"><ele>506.0</ele><time>2026-04-26T12:58:23.439Z</time></trkpt><trkpt lat="45.8908959" lon="14.1740984"><ele>506.0</ele><time>2026-04-26T12:58:24.44Z</time></trkpt><trkpt lat="45.8909781" lon="14.1741585"><ele>506.0</ele><time>2026-04-26T12:58:25.439Z</time></trkpt><trkpt lat="45.8910743" lon="14.1742484"><ele>506.0</ele><time>2026-04-26T12:58:26.44Z</time></trkpt><trkpt lat="45.8911724" lon="14.1743639"><ele>503.8</ele><time>2026-04-26T12:58:27.439Z</time></trkpt><trkpt lat="45.8912645" lon="14.1744619"><ele>501.6</ele><time>2026-04-26T12:58:28.439Z</time></trkpt><trkpt lat="45.8913455" lon="14.1745355"><ele>499.4</ele><time>2026-04-26T12:58:29.439Z</time></trkpt><trkpt lat="45.8914119" lon="14.1746219"><ele>497.2</ele><time>2026-04-26T12:58:30.439Z</time></trkpt><trkpt lat="45.8914721" lon="14.1747026"><ele>495.0</ele><time>2026-04-26T12:58:31.44Z</time></trkpt><trkpt lat="45.8915256" lon="14.1748008"><ele>495.4</ele><time>2026-04-26T12:58:32.439Z</time></trkpt><trkpt lat="45.8915773" lon="14.1749235"><ele>495.8</ele><time>2026-04-26T12:58:33.439Z</time></trkpt><trkpt lat="45.8916058" lon="14.1750609"><ele>496.20000000000005</ele><time>2026-04-26T12:58:34.439Z</time></trkpt><trkpt lat="45.8916359" lon="14.1752135"><ele>496.6</ele><time>2026-04-26T12:58:35.439Z</time></trkpt><trkpt lat="45.8916733" lon="14.1753681"><ele>497.0</ele><time>2026-04-26T12:58:36.439Z</time></trkpt><trkpt lat="45.8917049" lon="14.1755106"><ele>497.0</ele><time>2026-04-26T12:58:37.439Z</time></trkpt><trkpt lat="45.891739" lon="14.175655"><ele>497.00000000000006</ele><time>2026-04-26T12:58:38.439Z</time></trkpt><trkpt lat="45.8917695" lon="14.1758039"><ele>497.00000000000006</ele><time>2026-04-26T12:58:39.439Z</time></trkpt><trkpt lat="45.8917977" lon="14.1759486"><ele>497.0</ele><time>2026-04-26T12:58:40.439Z</time></trkpt><trkpt lat="45.8918302" lon="14.1760798"><ele>497.0</ele><time>2026-04-26T12:58:41.439Z</time></trkpt><trkpt lat="45.8918597" lon="14.1761915"><ele>497.1428571428571</ele><time>2026-04-26T12:58:42.439Z</time></trkpt><trkpt lat="45.8918762" lon="14.1763045"><ele>497.2857142857143</ele><time>2026-04-26T12:58:43.439Z</time></trkpt><trkpt lat="45.8918939" lon="14.1764075"><ele>497.42857142857144</ele><time>2026-04-26T12:58:44.439Z</time></trkpt><trkpt lat="45.8919149" lon="14.1764949"><ele>497.57142857142856</ele><time>2026-04-26T12:58:45.439Z</time></trkpt><trkpt lat="45.8919355" lon="14.1765901"><ele>497.71428571428567</ele><time>2026-04-26T12:58:46.439Z</time></trkpt><trkpt lat="45.8919568" lon="14.1766878"><ele>497.85714285714283</ele><time>2026-04-26T12:58:47.439Z</time></trkpt><trkpt lat="45.8919816" lon="14.1767866"><ele>498.0</ele><time>2026-04-26T12:58:48.44Z</time></trkpt><trkpt lat="45.8920113" lon="14.1768892"><ele>497.5</ele><time>2026-04-26T12:58:49.439Z</time></trkpt><trkpt lat="45.8920474" lon="14.1769922"><ele>497.0</ele><time>2026-04-26T12:58:50.439Z</time></trkpt><trkpt lat="45.8920902" lon="14.1770926"><ele>496.5</ele><time>2026-04-26T12:58:51.439Z</time></trkpt><trkpt lat="45.8921361" lon="14.1772006"><ele>496.0</ele><time>2026-04-26T12:58:52.439Z</time></trkpt><trkpt lat="45.8921917" lon="14.1773029"><ele>495.5</ele><time>2026-04-26T12:58:53.44Z</time></trkpt><trkpt lat="45.8922621" lon="14.1774119"><ele>495.0</ele><time>2026-04-26T12:58:54.439Z</time></trkpt><trkpt lat="45.8923553" lon="14.1775437"><ele>495.0</ele><time>2026-04-26T12:58:55.44Z</time></trkpt><trkpt lat="45.892473" lon="14.1777004"><ele>495.0</ele><time>2026-04-26T12:58:56.439Z</time></trkpt><trkpt lat="45.892605" lon="14.177891"><ele>495.0</ele><time>2026-04-26T12:58:57.439Z</time></trkpt><trkpt lat="45.8927516" lon="14.1781108"><ele>494.0</ele><time>2026-04-26T12:58:58.44Z</time></trkpt><trkpt lat="45.8928859" lon="14.1783174"><ele>493.0</ele><time>2026-04-26T12:58:59.439Z</time></trkpt><trkpt lat="45.8930143" lon="14.1785035"><ele>492.0</ele><time>2026-04-26T12:59:00.439Z</time></trkpt><trkpt lat="45.8931303" lon="14.1786837"><ele>492.0</ele><time>2026-04-26T12:59:01.439Z</time></trkpt><trkpt lat="45.8932479" lon="14.1788508"><ele>492.0</ele><time>2026-04-26T12:59:02.44Z</time></trkpt><trkpt lat="45.8933709" lon="14.1790337"><ele>492.0</ele><time>2026-04-26T12:59:03.439Z</time></trkpt><trkpt lat="45.8934954" lon="14.179211"><ele>492.75</ele><time>2026-04-26T12:59:04.44Z</time></trkpt><trkpt lat="45.8936046" lon="14.1793712"><ele>493.5</ele><time>2026-04-26T12:59:05.439Z</time></trkpt><trkpt lat="45.8936993" lon="14.1795161"><ele>494.25</ele><time>2026-04-26T12:59:06.439Z</time></trkpt><trkpt lat="45.8937889" lon="14.1796524"><ele>495.0</ele><time>2026-04-26T12:59:07.439Z</time></trkpt><trkpt lat="45.8938769" lon="14.1797907"><ele>495.4</ele><time>2026-04-26T12:59:08.439Z</time></trkpt><trkpt lat="45.893967" lon="14.179937"><ele>495.8</ele><time>2026-04-26T12:59:09.44Z</time></trkpt><trkpt lat="45.8940352" lon="14.1800697"><ele>496.20000000000005</ele><time>2026-04-26T12:59:10.439Z</time></trkpt><trkpt lat="45.8940922" lon="14.1801782"><ele>496.6</ele><time>2026-04-26T12:59:11.439Z</time></trkpt><trkpt lat="45.8941334" lon="14.18029"><ele>497.0</ele><time>2026-04-26T12:59:12.439Z</time></trkpt><trkpt lat="45.8941757" lon="14.1804149"><ele>497.0</ele><time>2026-04-26T12:59:13.439Z</time></trkpt><trkpt lat="45.8942142" lon="14.1805587"><ele>497.0</ele><time>2026-04-26T12:59:14.44Z</time></trkpt><trkpt lat="45.8942554" lon="14.1807187"><ele>497.0</ele><time>2026-04-26T12:59:15.44Z</time></trkpt><trkpt lat="45.8942851" lon="14.1808741"><ele>497.0</ele><time>2026-04-26T12:59:16.439Z</time></trkpt><trkpt lat="45.8943115" lon="14.1810321"><ele>499.20000000000005</ele><time>2026-04-26T12:59:17.439Z</time></trkpt><trkpt lat="45.8943315" lon="14.1812012"><ele>501.40000000000003</ele><time>2026-04-26T12:59:18.44Z</time></trkpt><trkpt lat="45.8943558" lon="14.181369"><ele>503.59999999999997</ele><time>2026-04-26T12:59:19.439Z</time></trkpt><trkpt lat="45.8943822" lon="14.181521"><ele>505.79999999999995</ele><time>2026-04-26T12:59:20.439Z</time></trkpt><trkpt lat="45.8944152" lon="14.1816567"><ele>508.0</ele><time>2026-04-26T12:59:21.439Z</time></trkpt><trkpt lat="45.8944541" lon="14.181768"><ele>508.1666666666667</ele><time>2026-04-26T12:59:22.44Z</time></trkpt><trkpt lat="45.8944995" lon="14.18187"><ele>508.33333333333337</ele><time>2026-04-26T12:59:23.439Z</time></trkpt><trkpt lat="45.894549" lon="14.1819715"><ele>508.5</ele><time>2026-04-26T12:59:24.439Z</time></trkpt><trkpt lat="45.8945828" lon="14.1820818"><ele>508.66666666666663</ele><time>2026-04-26T12:59:25.439Z</time></trkpt><trkpt lat="45.8946068" lon="14.1822007"><ele>508.8333333333333</ele><time>2026-04-26T12:59:26.439Z</time></trkpt><trkpt lat="45.8946132" lon="14.182323"><ele>509.0</ele><time>2026-04-26T12:59:27.439Z</time></trkpt><trkpt lat="45.8946084" lon="14.1824436"><ele>509.3333333333333</ele><time>2026-04-26T12:59:28.439Z</time></trkpt><trkpt lat="45.8945957" lon="14.1825632"><ele>509.66666666666663</ele><time>2026-04-26T12:59:29.44Z</time></trkpt><trkpt lat="45.8945706" lon="14.1826693"><ele>510.0</ele><time>2026-04-26T12:59:30.439Z</time></trkpt><trkpt lat="45.8945468" lon="14.1827604"><ele>510.33333333333337</ele><time>2026-04-26T12:59:31.439Z</time></trkpt><trkpt lat="45.8945354" lon="14.1828884"><ele>510.6666666666667</ele><time>2026-04-26T12:59:33.439Z</time></trkpt><trkpt lat="45.8945117" lon="14.1830291"><ele>511.0</ele><time>2026-04-26T12:59:40.44Z</time></trkpt><trkpt lat="45.894479" lon="14.1831438"><ele>510.6</ele><time>2026-04-26T12:59:41.439Z</time></trkpt><trkpt lat="45.8944601" lon="14.1832591"><ele>510.20000000000005</ele><time>2026-04-26T12:59:42.439Z</time></trkpt><trkpt lat="45.8944575" lon="14.1833925"><ele>509.79999999999995</ele><time>2026-04-26T12:59:43.439Z</time></trkpt><trkpt lat="45.8944702" lon="14.1835622"><ele>509.4</ele><time>2026-04-26T12:59:44.439Z</time></trkpt><trkpt lat="45.8944864" lon="14.1837431"><ele>509.0</ele><time>2026-04-26T12:59:45.439Z</time></trkpt><trkpt lat="45.894509" lon="14.1839384"><ele>508.0</ele><time>2026-04-26T12:59:46.439Z</time></trkpt><trkpt lat="45.8945328" lon="14.1841714"><ele>507.0</ele><time>2026-04-26T12:59:47.439Z</time></trkpt><trkpt lat="45.8945508" lon="14.1844108"><ele>506.0</ele><time>2026-04-26T12:59:48.439Z</time></trkpt><trkpt lat="45.8945652" lon="14.1846461"><ele>505.3333333333333</ele><time>2026-04-26T12:59:49.439Z</time></trkpt><trkpt lat="45.8945761" lon="14.1848982"><ele>504.66666666666663</ele><time>2026-04-26T12:59:50.44Z</time></trkpt><trkpt lat="45.8945882" lon="14.1851692"><ele>504.0</ele><time>2026-04-26T12:59:51.439Z</time></trkpt><trkpt lat="45.8946055" lon="14.1854406"><ele>502.66666666666663</ele><time>2026-04-26T12:59:52.439Z</time></trkpt><trkpt lat="45.8946213" lon="14.1857105"><ele>501.3333333333333</ele><time>2026-04-26T12:59:53.439Z</time></trkpt><trkpt lat="45.894633" lon="14.1859926"><ele>500.0</ele><time>2026-04-26T12:59:54.44Z</time></trkpt><trkpt lat="45.8946435" lon="14.1862668"><ele>498.3333333333333</ele><time>2026-04-26T12:59:55.44Z</time></trkpt><trkpt lat="45.8946557" lon="14.1865268"><ele>496.66666666666663</ele><time>2026-04-26T12:59:56.439Z</time></trkpt><trkpt lat="45.8946678" lon="14.1867744"><ele>495.0</ele><time>2026-04-26T12:59:57.439Z</time></trkpt><trkpt lat="45.8946719" lon="14.1870041"><ele>495.0</ele><time>2026-04-26T12:59:58.439Z</time></trkpt><trkpt lat="45.8946828" lon="14.1872233"><ele>495.0</ele><time>2026-04-26T12:59:59.439Z</time></trkpt><trkpt lat="45.8946905" lon="14.187428"><ele>495.0</ele><time>2026-04-26T13:00:00.439Z</time></trkpt><trkpt lat="45.8947031" lon="14.1876202"><ele>495.0</ele><time>2026-04-26T13:00:01.439Z</time></trkpt><trkpt lat="45.8947145" lon="14.1878048"><ele>494.25</ele><time>2026-04-26T13:00:02.439Z</time></trkpt><trkpt lat="45.8947206" lon="14.187973"><ele>493.5</ele><time>2026-04-26T13:00:03.439Z</time></trkpt><trkpt lat="45.8947252" lon="14.1881452"><ele>492.75</ele><time>2026-04-26T13:00:04.439Z</time></trkpt><trkpt lat="45.8947311" lon="14.1883255"><ele>492.0</ele><time>2026-04-26T13:00:05.439Z</time></trkpt><trkpt lat="45.8947391" lon="14.1885041"><ele>491.8</ele><time>2026-04-26T13:00:06.439Z</time></trkpt><trkpt lat="45.8947509" lon="14.1886782"><ele>491.6</ele><time>2026-04-26T13:00:07.44Z</time></trkpt><trkpt lat="45.8947624" lon="14.1888403"><ele>491.40000000000003</ele><time>2026-04-26T13:00:08.439Z</time></trkpt><trkpt lat="45.8947871" lon="14.1889821"><ele>491.20000000000005</ele><time>2026-04-26T13:00:09.44Z</time></trkpt><trkpt lat="45.8948182" lon="14.1891208"><ele>491.0</ele><time>2026-04-26T13:00:10.439Z</time></trkpt><trkpt lat="45.8948473" lon="14.1892711"><ele>490.6</ele><time>2026-04-26T13:00:11.439Z</time></trkpt><trkpt lat="45.8948641" lon="14.1894398"><ele>490.20000000000005</ele><time>2026-04-26T13:00:12.44Z</time></trkpt><trkpt lat="45.894869" lon="14.1896043"><ele>489.79999999999995</ele><time>2026-04-26T13:00:13.439Z</time></trkpt><trkpt lat="45.8948801" lon="14.1897364"><ele>489.4</ele><time>2026-04-26T13:00:14.44Z</time></trkpt><trkpt lat="45.8948993" lon="14.1898297"><ele>489.0</ele><time>2026-04-26T13:00:15.439Z</time></trkpt><trkpt lat="45.8949226" lon="14.189969"><ele>488.8333333333333</ele><time>2026-04-26T13:00:17.439Z</time></trkpt><trkpt lat="45.8949241" lon="14.1900701"><ele>488.66666666666663</ele><time>2026-04-26T13:00:18.439Z</time></trkpt><trkpt lat="45.8949104" lon="14.1901864"><ele>488.5</ele><time>2026-04-26T13:00:19.439Z</time></trkpt><trkpt lat="45.8948998" lon="14.1903175"><ele>488.3333333333333</ele><time>2026-04-26T13:00:20.439Z</time></trkpt><trkpt lat="45.8948971" lon="14.1904461"><ele>488.16666666666663</ele><time>2026-04-26T13:00:21.439Z</time></trkpt><trkpt lat="45.8948932" lon="14.1905751"><ele>488.0</ele><time>2026-04-26T13:00:22.439Z</time></trkpt><trkpt lat="45.8949052" lon="14.1907461"><ele>490.0</ele><time>2026-04-26T13:00:23.439Z</time></trkpt><trkpt lat="45.8949283" lon="14.1909615"><ele>492.0</ele><time>2026-04-26T13:00:24.44Z</time></trkpt><trkpt lat="45.8949622" lon="14.1911869"><ele>494.0</ele><time>2026-04-26T13:00:25.439Z</time></trkpt><trkpt lat="45.895003" lon="14.1914138"><ele>494.66666666666663</ele><time>2026-04-26T13:00:26.439Z</time></trkpt><trkpt lat="45.8950472" lon="14.1916444"><ele>495.33333333333337</ele><time>2026-04-26T13:00:27.439Z</time></trkpt><trkpt lat="45.8950891" lon="14.1918655"><ele>496.0</ele><time>2026-04-26T13:00:28.439Z</time></trkpt><trkpt lat="45.8951401" lon="14.1920825"><ele>496.6666666666667</ele><time>2026-04-26T13:00:29.439Z</time></trkpt><trkpt lat="45.8951896" lon="14.1922929"><ele>497.33333333333337</ele><time>2026-04-26T13:00:30.44Z</time></trkpt><trkpt lat="45.8952428" lon="14.192508"><ele>498.0</ele><time>2026-04-26T13:00:31.439Z</time></trkpt><trkpt lat="45.8952995" lon="14.1927238"><ele>498.66666666666663</ele><time>2026-04-26T13:00:32.439Z</time></trkpt><trkpt lat="45.8953597" lon="14.1929373"><ele>499.3333333333333</ele><time>2026-04-26T13:00:33.439Z</time></trkpt><trkpt lat="45.8954218" lon="14.19316"><ele>500.0</ele><time>2026-04-26T13:00:34.439Z</time></trkpt><trkpt lat="45.8954786" lon="14.1933881"><ele>500.0</ele><time>2026-04-26T13:00:35.439Z</time></trkpt><trkpt lat="45.8955422" lon="14.1936066"><ele>500.0</ele><time>2026-04-26T13:00:36.44Z</time></trkpt><trkpt lat="45.895603" lon="14.1938243"><ele>500.0</ele><time>2026-04-26T13:00:37.439Z</time></trkpt><trkpt lat="45.8956615" lon="14.194035"><ele>499.66666666666663</ele><time>2026-04-26T13:00:38.439Z</time></trkpt><trkpt lat="45.8957261" lon="14.1942473"><ele>499.33333333333337</ele><time>2026-04-26T13:00:39.439Z</time></trkpt><trkpt lat="45.8957874" lon="14.1944546"><ele>499.0</ele><time>2026-04-26T13:00:40.439Z</time></trkpt><trkpt lat="45.895848" lon="14.19465"><ele>497.75</ele><time>2026-04-26T13:00:41.439Z</time></trkpt><trkpt lat="45.8959128" lon="14.1948422"><ele>496.5</ele><time>2026-04-26T13:00:42.439Z</time></trkpt><trkpt lat="45.8959802" lon="14.195028"><ele>495.25</ele><time>2026-04-26T13:00:43.439Z</time></trkpt><trkpt lat="45.8960506" lon="14.1952112"><ele>494.0</ele><time>2026-04-26T13:00:44.439Z</time></trkpt><trkpt lat="45.8961259" lon="14.1953891"><ele>494.0</ele><time>2026-04-26T13:00:45.439Z</time></trkpt><trkpt lat="45.8962069" lon="14.1955737"><ele>494.0</ele><time>2026-04-26T13:00:46.439Z</time></trkpt><trkpt lat="45.8962917" lon="14.1957599"><ele>494.0</ele><time>2026-04-26T13:00:47.439Z</time></trkpt><trkpt lat="45.8963834" lon="14.1959405"><ele>494.25</ele><time>2026-04-26T13:00:48.438Z</time></trkpt><trkpt lat="45.8964764" lon="14.1961142"><ele>494.5</ele><time>2026-04-26T13:00:49.438Z</time></trkpt><trkpt lat="45.8965702" lon="14.1962774"><ele>494.75</ele><time>2026-04-26T13:00:50.438Z</time></trkpt><trkpt lat="45.8966621" lon="14.1964276"><ele>495.0</ele><time>2026-04-26T13:00:51.438Z</time></trkpt><trkpt lat="45.8967497" lon="14.1965648"><ele>495.25</ele><time>2026-04-26T13:00:52.438Z</time></trkpt><trkpt lat="45.8968351" lon="14.1966969"><ele>495.5</ele><time>2026-04-26T13:00:53.438Z</time></trkpt><trkpt lat="45.8969172" lon="14.1968207"><ele>495.75</ele><time>2026-04-26T13:00:54.438Z</time></trkpt><trkpt lat="45.897004" lon="14.1969591"><ele>496.0</ele><time>2026-04-26T13:00:55.438Z</time></trkpt><trkpt lat="45.897104" lon="14.1970984"><ele>496.0</ele><time>2026-04-26T13:00:56.439Z</time></trkpt><trkpt lat="45.8972077" lon="14.1972496"><ele>496.0</ele><time>2026-04-26T13:00:57.438Z</time></trkpt><trkpt lat="45.897316" lon="14.1974051"><ele>496.0</ele><time>2026-04-26T13:00:58.438Z</time></trkpt><trkpt lat="45.8974194" lon="14.1975595"><ele>496.5</ele><time>2026-04-26T13:00:59.438Z</time></trkpt><trkpt lat="45.8975203" lon="14.1977156"><ele>497.0</ele><time>2026-04-26T13:01:00.438Z</time></trkpt><trkpt lat="45.897613" lon="14.1978715"><ele>497.5</ele><time>2026-04-26T13:01:01.438Z</time></trkpt><trkpt lat="45.8977046" lon="14.1980278"><ele>498.0</ele><time>2026-04-26T13:01:02.438Z</time></trkpt><trkpt lat="45.8977849" lon="14.1981761"><ele>498.0</ele><time>2026-04-26T13:01:03.438Z</time></trkpt><trkpt lat="45.8978679" lon="14.1983315"><ele>498.0</ele><time>2026-04-26T13:01:04.438Z</time></trkpt><trkpt lat="45.8979452" lon="14.19849"><ele>498.0</ele><time>2026-04-26T13:01:05.438Z</time></trkpt><trkpt lat="45.8980216" lon="14.1986564"><ele>498.0</ele><time>2026-04-26T13:01:06.438Z</time></trkpt><trkpt lat="45.8980976" lon="14.1988295"><ele>497.5</ele><time>2026-04-26T13:01:07.438Z</time></trkpt><trkpt lat="45.8981664" lon="14.1990042"><ele>497.0</ele><time>2026-04-26T13:01:08.438Z</time></trkpt><trkpt lat="45.8982383" lon="14.1991829"><ele>496.5</ele><time>2026-04-26T13:01:09.438Z</time></trkpt><trkpt lat="45.898315" lon="14.1993703"><ele>496.0</ele><time>2026-04-26T13:01:10.438Z</time></trkpt><trkpt lat="45.8984025" lon="14.1995702"><ele>495.0</ele><time>2026-04-26T13:01:11.439Z</time></trkpt><trkpt lat="45.8984886" lon="14.1997665"><ele>494.0</ele><time>2026-04-26T13:01:12.438Z</time></trkpt><trkpt lat="45.8985776" lon="14.1999325"><ele>493.0</ele><time>2026-04-26T13:01:13.438Z</time></trkpt><trkpt lat="45.8986699" lon="14.200078"><ele>492.0</ele><time>2026-04-26T13:01:14.438Z</time></trkpt><trkpt lat="45.8987619" lon="14.2002032"><ele>492.0</ele><time>2026-04-26T13:01:15.438Z</time></trkpt><trkpt lat="45.8988634" lon="14.2003183"><ele>492.0</ele><time>2026-04-26T13:01:16.438Z</time></trkpt><trkpt lat="45.8989682" lon="14.2004289"><ele>492.0</ele><time>2026-04-26T13:01:17.438Z</time></trkpt><trkpt lat="45.8990754" lon="14.2005278"><ele>492.0</ele><time>2026-04-26T13:01:18.438Z</time></trkpt><trkpt lat="45.8991882" lon="14.2006109"><ele>493.20000000000005</ele><time>2026-04-26T13:01:19.438Z</time></trkpt><trkpt lat="45.8992965" lon="14.200678"><ele>494.40000000000003</ele><time>2026-04-26T13:01:20.438Z</time></trkpt><trkpt lat="45.8993982" lon="14.2007304"><ele>495.59999999999997</ele><time>2026-04-26T13:01:21.438Z</time></trkpt><trkpt lat="45.8994912" lon="14.2007645"><ele>496.79999999999995</ele><time>2026-04-26T13:01:22.438Z</time></trkpt><trkpt lat="45.899574" lon="14.2007892"><ele>498.0</ele><time>2026-04-26T13:01:23.439Z</time></trkpt><trkpt lat="45.8996422" lon="14.200806"><ele>498.0</ele><time>2026-04-26T13:01:24.438Z</time></trkpt><trkpt lat="45.8997025" lon="14.2008856"><ele>497.99999999999994</ele><time>2026-04-26T13:01:26.438Z</time></trkpt><trkpt lat="45.899679" lon="14.2010198"><ele>497.99999999999994</ele><time>2026-04-26T13:01:28.438Z</time></trkpt><trkpt lat="45.8995956" lon="14.2011623"><ele>498.0</ele><time>2026-04-26T13:01:30.438Z</time></trkpt><trkpt lat="45.8995447" lon="14.2012325"><ele>498.0</ele><time>2026-04-26T13:01:31.438Z</time></trkpt><trkpt lat="45.8994982" lon="14.2013148"><ele>498.0</ele><time>2026-04-26T13:01:32.438Z</time></trkpt><trkpt lat="45.8994433" lon="14.2014045"><ele>497.99999999999994</ele><time>2026-04-26T13:01:33.438Z</time></trkpt><trkpt lat="45.8993795" lon="14.2015031"><ele>497.99999999999994</ele><time>2026-04-26T13:01:34.438Z</time></trkpt><trkpt lat="45.8993177" lon="14.201613"><ele>498.0</ele><time>2026-04-26T13:01:35.438Z</time></trkpt><trkpt lat="45.8992582" lon="14.2017178"><ele>498.0</ele><time>2026-04-26T13:01:36.438Z</time></trkpt><trkpt lat="45.8991978" lon="14.2018171"><ele>498.4</ele><time>2026-04-26T13:01:37.438Z</time></trkpt><trkpt lat="45.8991417" lon="14.2019278"><ele>498.79999999999995</ele><time>2026-04-26T13:01:38.438Z</time></trkpt><trkpt lat="45.8990906" lon="14.2020418"><ele>499.2</ele><time>2026-04-26T13:01:39.438Z</time></trkpt><trkpt lat="45.8990374" lon="14.2021668"><ele>499.6</ele><time>2026-04-26T13:01:40.439Z</time></trkpt><trkpt lat="45.8989929" lon="14.2023105"><ele>500.0</ele><time>2026-04-26T13:01:41.438Z</time></trkpt><trkpt lat="45.8989616" lon="14.2024507"><ele>499.99999999999994</ele><time>2026-04-26T13:01:42.438Z</time></trkpt><trkpt lat="45.8989391" lon="14.2025759"><ele>500.0</ele><time>2026-04-26T13:01:43.438Z</time></trkpt><trkpt lat="45.8989186" lon="14.2026914"><ele>500.0</ele><time>2026-04-26T13:01:44.438Z</time></trkpt><trkpt lat="45.8988972" lon="14.2028011"><ele>500.0</ele><time>2026-04-26T13:01:45.439Z</time></trkpt><trkpt lat="45.8988721" lon="14.2028997"><ele>499.99999999999994</ele><time>2026-04-26T13:01:46.439Z</time></trkpt><trkpt lat="45.8988419" lon="14.2029792"><ele>500.0</ele><time>2026-04-26T13:01:47.438Z</time></trkpt><trkpt lat="45.8987571" lon="14.2031115"><ele>500.16666666666663</ele><time>2026-04-26T13:01:49.438Z</time></trkpt><trkpt lat="45.8987143" lon="14.2031859"><ele>500.3333333333333</ele><time>2026-04-26T13:01:50.438Z</time></trkpt><trkpt lat="45.8986681" lon="14.203266"><ele>500.5</ele><time>2026-04-26T13:01:51.439Z</time></trkpt><trkpt lat="45.898619" lon="14.203359"><ele>500.66666666666663</ele><time>2026-04-26T13:01:52.438Z</time></trkpt><trkpt lat="45.8985704" lon="14.2034517"><ele>500.8333333333333</ele><time>2026-04-26T13:01:53.438Z</time></trkpt><trkpt lat="45.8985269" lon="14.2035302"><ele>501.0</ele><time>2026-04-26T13:01:54.438Z</time></trkpt><trkpt lat="45.898422" lon="14.2036367"><ele>499.0</ele><time>2026-04-26T13:01:56.438Z</time></trkpt><trkpt lat="45.8983496" lon="14.2036765"><ele>497.0</ele><time>2026-04-26T13:01:57.439Z</time></trkpt><trkpt lat="45.8982643" lon="14.2037044"><ele>495.0</ele><time>2026-04-26T13:01:58.438Z</time></trkpt><trkpt lat="45.898164" lon="14.2037196"><ele>493.0</ele><time>2026-04-26T13:01:59.438Z</time></trkpt><trkpt lat="45.8980568" lon="14.203741"><ele>491.0</ele><time>2026-04-26T13:02:00.438Z</time></trkpt><trkpt lat="45.8979522" lon="14.2037702"><ele>491.0</ele><time>2026-04-26T13:02:01.438Z</time></trkpt><trkpt lat="45.8978428" lon="14.2038092"><ele>491.0</ele><time>2026-04-26T13:02:02.438Z</time></trkpt><trkpt lat="45.8977423" lon="14.2038408"><ele>491.0</ele><time>2026-04-26T13:02:03.438Z</time></trkpt><trkpt lat="45.8976564" lon="14.2038698"><ele>491.0</ele><time>2026-04-26T13:02:04.438Z</time></trkpt><trkpt lat="45.897582" lon="14.2038924"><ele>491.0</ele><time>2026-04-26T13:02:05.438Z</time></trkpt><trkpt lat="45.8975042" lon="14.2039281"><ele>490.6</ele><time>2026-04-26T13:02:06.438Z</time></trkpt><trkpt lat="45.8974261" lon="14.2039773"><ele>490.20000000000005</ele><time>2026-04-26T13:02:07.438Z</time></trkpt><trkpt lat="45.8973374" lon="14.2040334"><ele>489.79999999999995</ele><time>2026-04-26T13:02:08.439Z</time></trkpt><trkpt lat="45.8972511" lon="14.2040766"><ele>489.4</ele><time>2026-04-26T13:02:09.438Z</time></trkpt><trkpt lat="45.8971674" lon="14.2041115"><ele>489.0</ele><time>2026-04-26T13:02:10.438Z</time></trkpt><trkpt lat="45.8970803" lon="14.204143"><ele>488.8333333333333</ele><time>2026-04-26T13:02:11.439Z</time></trkpt><trkpt lat="45.8969958" lon="14.2041758"><ele>488.66666666666663</ele><time>2026-04-26T13:02:12.439Z</time></trkpt><trkpt lat="45.8969104" lon="14.2042147"><ele>488.5</ele><time>2026-04-26T13:02:13.438Z</time></trkpt><trkpt lat="45.8968381" lon="14.2042577"><ele>488.3333333333333</ele><time>2026-04-26T13:02:14.438Z</time></trkpt><trkpt lat="45.8967749" lon="14.2043014"><ele>488.16666666666663</ele><time>2026-04-26T13:02:15.438Z</time></trkpt><trkpt lat="45.8967121" lon="14.2043572"><ele>488.0</ele><time>2026-04-26T13:02:16.438Z</time></trkpt><trkpt lat="45.8966516" lon="14.2044193"><ele>487.99999999999994</ele><time>2026-04-26T13:02:17.438Z</time></trkpt><trkpt lat="45.8965901" lon="14.2044908"><ele>488.0</ele><time>2026-04-26T13:02:18.438Z</time></trkpt><trkpt lat="45.8965336" lon="14.2045691"><ele>487.99999999999994</ele><time>2026-04-26T13:02:19.438Z</time></trkpt><trkpt lat="45.896485" lon="14.204644"><ele>487.99999999999994</ele><time>2026-04-26T13:02:20.438Z</time></trkpt><trkpt lat="45.8964402" lon="14.2047083"><ele>488.0</ele><time>2026-04-26T13:02:21.438Z</time></trkpt><trkpt lat="45.8963975" lon="14.204779"><ele>487.99999999999994</ele><time>2026-04-26T13:02:22.438Z</time></trkpt><trkpt lat="45.8963675" lon="14.2048627"><ele>487.99999999999994</ele><time>2026-04-26T13:02:23.439Z</time></trkpt><trkpt lat="45.8963514" lon="14.2049679"><ele>488.4</ele><time>2026-04-26T13:02:24.439Z</time></trkpt><trkpt lat="45.8963396" lon="14.2050932"><ele>488.79999999999995</ele><time>2026-04-26T13:02:25.438Z</time></trkpt><trkpt lat="45.8963359" lon="14.2052243"><ele>489.2</ele><time>2026-04-26T13:02:26.438Z</time></trkpt><trkpt lat="45.8963415" lon="14.2053636"><ele>489.6</ele><time>2026-04-26T13:02:27.438Z</time></trkpt><trkpt lat="45.8963604" lon="14.2055111"><ele>490.0</ele><time>2026-04-26T13:02:28.439Z</time></trkpt><trkpt lat="45.8963932" lon="14.2056658"><ele>490.0</ele><time>2026-04-26T13:02:29.438Z</time></trkpt><trkpt lat="45.8964253" lon="14.2058194"><ele>490.0</ele><time>2026-04-26T13:02:30.438Z</time></trkpt><trkpt lat="45.8964519" lon="14.2059739"><ele>490.0</ele><time>2026-04-26T13:02:31.438Z</time></trkpt><trkpt lat="45.8964765" lon="14.2061325"><ele>490.0</ele><time>2026-04-26T13:02:32.438Z</time></trkpt><trkpt lat="45.8965047" lon="14.2062932"><ele>490.0</ele><time>2026-04-26T13:02:33.438Z</time></trkpt><trkpt lat="45.8965364" lon="14.206455"><ele>490.0</ele><time>2026-04-26T13:02:34.439Z</time></trkpt><trkpt lat="45.8965683" lon="14.2066029"><ele>490.0</ele><time>2026-04-26T13:02:35.438Z</time></trkpt><trkpt lat="45.8965925" lon="14.2067395"><ele>490.0</ele><time>2026-04-26T13:02:36.438Z</time></trkpt><trkpt lat="45.8966045" lon="14.2068699"><ele>490.0</ele><time>2026-04-26T13:02:37.438Z</time></trkpt><trkpt lat="45.8966072" lon="14.2069916"><ele>489.6666666666667</ele><time>2026-04-26T13:02:38.439Z</time></trkpt><trkpt lat="45.8966043" lon="14.2071077"><ele>489.33333333333337</ele><time>2026-04-26T13:02:39.438Z</time></trkpt><trkpt lat="45.8965976" lon="14.2072239"><ele>489.0</ele><time>2026-04-26T13:02:40.438Z</time></trkpt><trkpt lat="45.8965804" lon="14.2073398"><ele>488.66666666666663</ele><time>2026-04-26T13:02:41.438Z</time></trkpt><trkpt lat="45.8965571" lon="14.2074636"><ele>488.3333333333333</ele><time>2026-04-26T13:02:42.438Z</time></trkpt><trkpt lat="45.8965388" lon="14.2075798"><ele>488.0</ele><time>2026-04-26T13:02:43.438Z</time></trkpt><trkpt lat="45.8965256" lon="14.2076854"><ele>487.99999999999994</ele><time>2026-04-26T13:02:44.438Z</time></trkpt><trkpt lat="45.8965179" lon="14.2077926"><ele>488.0</ele><time>2026-04-26T13:02:45.438Z</time></trkpt><trkpt lat="45.8965257" lon="14.2079087"><ele>488.0</ele><time>2026-04-26T13:02:46.438Z</time></trkpt><trkpt lat="45.8965466" lon="14.2080212"><ele>488.0</ele><time>2026-04-26T13:02:47.438Z</time></trkpt><trkpt lat="45.896575" lon="14.2081273"><ele>487.99999999999994</ele><time>2026-04-26T13:02:48.438Z</time></trkpt><trkpt lat="45.8965929" lon="14.2082321"><ele>488.0</ele><time>2026-04-26T13:02:49.438Z</time></trkpt><trkpt lat="45.8965996" lon="14.208359"><ele>487.66666666666663</ele><time>2026-04-26T13:02:50.438Z</time></trkpt><trkpt lat="45.8966026" lon="14.2084842"><ele>487.3333333333333</ele><time>2026-04-26T13:02:51.438Z</time></trkpt><trkpt lat="45.8965964" lon="14.2086024"><ele>487.0</ele><time>2026-04-26T13:02:52.438Z</time></trkpt><trkpt lat="45.8965792" lon="14.208722"><ele>486.66666666666663</ele><time>2026-04-26T13:02:53.438Z</time></trkpt><trkpt lat="45.8965573" lon="14.2088369"><ele>486.3333333333333</ele><time>2026-04-26T13:02:54.438Z</time></trkpt><trkpt lat="45.8965288" lon="14.2089402"><ele>486.0</ele><time>2026-04-26T13:02:55.438Z</time></trkpt><trkpt lat="45.896499" lon="14.2090241"><ele>486.6666666666667</ele><time>2026-04-26T13:02:56.438Z</time></trkpt><trkpt lat="45.8964637" lon="14.2091055"><ele>487.33333333333337</ele><time>2026-04-26T13:02:57.438Z</time></trkpt><trkpt lat="45.8964205" lon="14.2091838"><ele>488.0</ele><time>2026-04-26T13:02:58.438Z</time></trkpt><trkpt lat="45.8963767" lon="14.2092633"><ele>488.6666666666667</ele><time>2026-04-26T13:02:59.438Z</time></trkpt><trkpt lat="45.8963353" lon="14.2093384"><ele>489.33333333333337</ele><time>2026-04-26T13:03:00.438Z</time></trkpt><trkpt lat="45.8962969" lon="14.2094104"><ele>490.0</ele><time>2026-04-26T13:03:01.438Z</time></trkpt><trkpt lat="45.8962412" lon="14.2095699"><ele>490.0</ele><time>2026-04-26T13:03:03.438Z</time></trkpt><trkpt lat="45.8962251" lon="14.2096806"><ele>490.0</ele><time>2026-04-26T13:03:04.438Z</time></trkpt><trkpt lat="45.8962065" lon="14.2098238"><ele>490.0</ele><time>2026-04-26T13:03:05.438Z</time></trkpt><trkpt lat="45.8961958" lon="14.2099859"><ele>490.0</ele><time>2026-04-26T13:03:06.438Z</time></trkpt><trkpt lat="45.8961831" lon="14.2101413"><ele>490.0</ele><time>2026-04-26T13:03:07.438Z</time></trkpt><trkpt lat="45.8961763" lon="14.210277"><ele>490.6</ele><time>2026-04-26T13:03:08.438Z</time></trkpt><trkpt lat="45.8961745" lon="14.2104091"><ele>491.2</ele><time>2026-04-26T13:03:09.438Z</time></trkpt><trkpt lat="45.8961786" lon="14.2105532"><ele>491.79999999999995</ele><time>2026-04-26T13:03:10.438Z</time></trkpt><trkpt lat="45.8961917" lon="14.2107045"><ele>492.4</ele><time>2026-04-26T13:03:11.438Z</time></trkpt><trkpt lat="45.8962075" lon="14.2108624"><ele>493.0</ele><time>2026-04-26T13:03:12.438Z</time></trkpt><trkpt lat="45.8962175" lon="14.211019"><ele>493.33333333333337</ele><time>2026-04-26T13:03:13.438Z</time></trkpt><trkpt lat="45.8962231" lon="14.2111454"><ele>493.6666666666667</ele><time>2026-04-26T13:03:14.438Z</time></trkpt><trkpt lat="45.896235" lon="14.2112599"><ele>494.0</ele><time>2026-04-26T13:03:15.439Z</time></trkpt><trkpt lat="45.8962467" lon="14.2113642"><ele>494.33333333333337</ele><time>2026-04-26T13:03:16.438Z</time></trkpt><trkpt lat="45.8962634" lon="14.2114688"><ele>494.6666666666667</ele><time>2026-04-26T13:03:17.438Z</time></trkpt><trkpt lat="45.8962852" lon="14.2115772"><ele>495.0</ele><time>2026-04-26T13:03:18.438Z</time></trkpt><trkpt lat="45.8963151" lon="14.2116917"><ele>495.1666666666667</ele><time>2026-04-26T13:03:19.438Z</time></trkpt><trkpt lat="45.89634" lon="14.2118066"><ele>495.33333333333337</ele><time>2026-04-26T13:03:20.438Z</time></trkpt><trkpt lat="45.8963505" lon="14.2119205"><ele>495.5</ele><time>2026-04-26T13:03:21.438Z</time></trkpt><trkpt lat="45.8963524" lon="14.2120369"><ele>495.6666666666667</ele><time>2026-04-26T13:03:22.438Z</time></trkpt><trkpt lat="45.8963493" lon="14.2121567"><ele>495.83333333333337</ele><time>2026-04-26T13:03:23.438Z</time></trkpt><trkpt lat="45.8963485" lon="14.212279"><ele>496.0</ele><time>2026-04-26T13:03:24.438Z</time></trkpt><trkpt lat="45.896352" lon="14.2123943"><ele>496.00000000000006</ele><time>2026-04-26T13:03:25.438Z</time></trkpt><trkpt lat="45.8963642" lon="14.2125042"><ele>496.0</ele><time>2026-04-26T13:03:26.439Z</time></trkpt><trkpt lat="45.8963865" lon="14.2126172"><ele>496.0</ele><time>2026-04-26T13:03:27.438Z</time></trkpt><trkpt lat="45.896421" lon="14.2127361"><ele>496.0</ele><time>2026-04-26T13:03:28.438Z</time></trkpt><trkpt lat="45.8964604" lon="14.2128589"><ele>496.00000000000006</ele><time>2026-04-26T13:03:29.438Z</time></trkpt><trkpt lat="45.8965013" lon="14.2129824"><ele>496.0</ele><time>2026-04-26T13:03:30.438Z</time></trkpt><trkpt lat="45.8965497" lon="14.213103"><ele>496.0</ele><time>2026-04-26T13:03:31.438Z</time></trkpt><trkpt lat="45.8966008" lon="14.2132055"><ele>496.0</ele><time>2026-04-26T13:03:32.439Z</time></trkpt><trkpt lat="45.8966612" lon="14.2133034"><ele>496.0</ele><time>2026-04-26T13:03:33.438Z</time></trkpt><trkpt lat="45.8967268" lon="14.2133983"><ele>496.0</ele><time>2026-04-26T13:03:34.438Z</time></trkpt><trkpt lat="45.8967929" lon="14.2134854"><ele>496.0</ele><time>2026-04-26T13:03:35.438Z</time></trkpt><trkpt lat="45.8968616" lon="14.2135703"><ele>495.8571428571429</ele><time>2026-04-26T13:03:36.438Z</time></trkpt><trkpt lat="45.8969202" lon="14.2136492"><ele>495.7142857142858</ele><time>2026-04-26T13:03:37.438Z</time></trkpt><trkpt lat="45.8969726" lon="14.2137186"><ele>495.57142857142856</ele><time>2026-04-26T13:03:38.438Z</time></trkpt><trkpt lat="45.8970223" lon="14.2137927"><ele>495.42857142857144</ele><time>2026-04-26T13:03:39.438Z</time></trkpt><trkpt lat="45.8970625" lon="14.2138698"><ele>495.2857142857143</ele><time>2026-04-26T13:03:40.438Z</time></trkpt><trkpt lat="45.8970883" lon="14.2139601"><ele>495.1428571428571</ele><time>2026-04-26T13:03:41.438Z</time></trkpt><trkpt lat="45.897105" lon="14.2140708"><ele>494.99999999999994</ele><time>2026-04-26T13:03:42.438Z</time></trkpt><trkpt lat="45.8971143" lon="14.2141963"><ele>495.0</ele><time>2026-04-26T13:03:43.438Z</time></trkpt><trkpt lat="45.8971314" lon="14.2143142"><ele>495.0</ele><time>2026-04-26T13:03:44.438Z</time></trkpt><trkpt lat="45.8971594" lon="14.2144116"><ele>495.0</ele><time>2026-04-26T13:03:45.438Z</time></trkpt><trkpt lat="45.8972037" lon="14.2144827"><ele>495.0</ele><time>2026-04-26T13:03:46.438Z</time></trkpt><trkpt lat="45.8972605" lon="14.2145498"><ele>495.0</ele><time>2026-04-26T13:03:47.438Z</time></trkpt><trkpt lat="45.8973353" lon="14.2146192"><ele>495.0</ele><time>2026-04-26T13:03:48.438Z</time></trkpt><trkpt lat="45.8974238" lon="14.2147024"><ele>495.0</ele><time>2026-04-26T13:03:49.438Z</time></trkpt><trkpt lat="45.8975211" lon="14.2147983"><ele>495.0</ele><time>2026-04-26T13:03:50.438Z</time></trkpt><trkpt lat="45.8976205" lon="14.2149086"><ele>495.0</ele><time>2026-04-26T13:03:51.438Z</time></trkpt><trkpt lat="45.8977127" lon="14.2150211"><ele>495.0</ele><time>2026-04-26T13:03:52.439Z</time></trkpt><trkpt lat="45.8977985" lon="14.2151291"><ele>495.4</ele><time>2026-04-26T13:03:53.438Z</time></trkpt><trkpt lat="45.8978769" lon="14.2152265"><ele>495.8</ele><time>2026-04-26T13:03:54.438Z</time></trkpt><trkpt lat="45.8979467" lon="14.2153142"><ele>496.20000000000005</ele><time>2026-04-26T13:03:55.438Z</time></trkpt><trkpt lat="45.8980187" lon="14.2154041"><ele>496.6</ele><time>2026-04-26T13:03:56.439Z</time></trkpt><trkpt lat="45.8980959" lon="14.2154904"><ele>497.0</ele><time>2026-04-26T13:03:57.438Z</time></trkpt><trkpt lat="45.898174" lon="14.2155837"><ele>496.8333333333333</ele><time>2026-04-26T13:03:58.438Z</time></trkpt><trkpt lat="45.8982404" lon="14.2156686"><ele>496.66666666666663</ele><time>2026-04-26T13:03:59.438Z</time></trkpt><trkpt lat="45.8982924" lon="14.2157627"><ele>496.5</ele><time>2026-04-26T13:04:00.438Z</time></trkpt><trkpt lat="45.8983374" lon="14.2158686"><ele>496.33333333333337</ele><time>2026-04-26T13:04:01.438Z</time></trkpt><trkpt lat="45.8983711" lon="14.2159816"><ele>496.1666666666667</ele><time>2026-04-26T13:04:02.438Z</time></trkpt><trkpt lat="45.8984004" lon="14.2160758"><ele>496.0</ele><time>2026-04-26T13:04:03.438Z</time></trkpt><trkpt lat="45.8984476" lon="14.2162209"><ele>496.0</ele><time>2026-04-26T13:04:05.438Z</time></trkpt><trkpt lat="45.8984377" lon="14.2163621"><ele>496.0</ele><time>2026-04-26T13:04:07.438Z</time></trkpt><trkpt lat="45.8983413" lon="14.2164519"><ele>496.0</ele><time>2026-04-26T13:04:09.438Z</time></trkpt><trkpt lat="45.8982723" lon="14.2164641"><ele>496.0</ele><time>2026-04-26T13:04:10.439Z</time></trkpt><trkpt lat="45.898206" lon="14.2164742"><ele>496.0</ele><time>2026-04-26T13:04:11.438Z</time></trkpt><trkpt lat="45.8980965" lon="14.2164844"><ele>496.4</ele><time>2026-04-26T13:04:13.438Z</time></trkpt><trkpt lat="45.8980131" lon="14.2165742"><ele>496.8</ele><time>2026-04-26T13:04:15.439Z</time></trkpt><trkpt lat="45.8979851" lon="14.2166861"><ele>497.19999999999993</ele><time>2026-04-26T13:04:16.438Z</time></trkpt><trkpt lat="45.8979605" lon="14.2168171"><ele>497.59999999999997</ele><time>2026-04-26T13:04:17.438Z</time></trkpt><trkpt lat="45.8979424" lon="14.2169637"><ele>498.0</ele><time>2026-04-26T13:04:18.438Z</time></trkpt><trkpt lat="45.8979209" lon="14.2171179"><ele>498.0</ele><time>2026-04-26T13:04:19.438Z</time></trkpt><trkpt lat="45.8978841" lon="14.2172811"><ele>497.99999999999994</ele><time>2026-04-26T13:04:20.439Z</time></trkpt><trkpt lat="45.8978433" lon="14.2174323"><ele>497.99999999999994</ele><time>2026-04-26T13:04:21.438Z</time></trkpt><trkpt lat="45.8978212" lon="14.2175673"><ele>498.0</ele><time>2026-04-26T13:04:22.438Z</time></trkpt><trkpt lat="45.8978115" lon="14.2176865"><ele>498.0</ele><time>2026-04-26T13:04:23.438Z</time></trkpt><trkpt lat="45.8977926" lon="14.2177994"><ele>499.4</ele><time>2026-04-26T13:04:24.438Z</time></trkpt><trkpt lat="45.8977643" lon="14.2179093"><ele>500.79999999999995</ele><time>2026-04-26T13:04:25.438Z</time></trkpt><trkpt lat="45.8977286" lon="14.2180254"><ele>502.2</ele><time>2026-04-26T13:04:26.438Z</time></trkpt><trkpt lat="45.8976811" lon="14.2181584"><ele>503.6</ele><time>2026-04-26T13:04:27.438Z</time></trkpt><trkpt lat="45.8976281" lon="14.2182958"><ele>505.0</ele><time>2026-04-26T13:04:28.438Z</time></trkpt><trkpt lat="45.8975805" lon="14.2184094"><ele>505.00000000000006</ele><time>2026-04-26T13:04:29.438Z</time></trkpt><trkpt lat="45.8975508" lon="14.2185027"><ele>505.0</ele><time>2026-04-26T13:04:30.438Z</time></trkpt><trkpt lat="45.897534" lon="14.2186513"><ele>505.0</ele><time>2026-04-26T13:04:32.439Z</time></trkpt><trkpt lat="45.8975416" lon="14.2187479"><ele>505.0</ele><time>2026-04-26T13:04:33.438Z</time></trkpt><trkpt lat="45.8975579" lon="14.2188727"><ele>505.00000000000006</ele><time>2026-04-26T13:04:34.438Z</time></trkpt><trkpt lat="45.8975754" lon="14.2190022"><ele>505.0</ele><time>2026-04-26T13:04:35.438Z</time></trkpt><trkpt lat="45.8975941" lon="14.2191341"><ele>505.33333333333337</ele><time>2026-04-26T13:04:36.438Z</time></trkpt><trkpt lat="45.8976073" lon="14.219264"><ele>505.6666666666667</ele><time>2026-04-26T13:04:37.438Z</time></trkpt><trkpt lat="45.8976126" lon="14.2193731"><ele>506.0</ele><time>2026-04-26T13:04:38.438Z</time></trkpt><trkpt lat="45.8976124" lon="14.2194706"><ele>506.33333333333337</ele><time>2026-04-26T13:04:39.438Z</time></trkpt><trkpt lat="45.8975975" lon="14.2195671"><ele>506.6666666666667</ele><time>2026-04-26T13:04:40.438Z</time></trkpt><trkpt lat="45.8975674" lon="14.2196476"><ele>507.0</ele><time>2026-04-26T13:04:41.438Z</time></trkpt><trkpt lat="45.8974939" lon="14.2197785"><ele>507.0</ele><time>2026-04-26T13:04:43.439Z</time></trkpt><trkpt lat="45.8974038" lon="14.2198161"><ele>507.00000000000006</ele><time>2026-04-26T13:04:45.438Z</time></trkpt><trkpt lat="45.8972991" lon="14.2198239"><ele>507.00000000000006</ele><time>2026-04-26T13:04:47.438Z</time></trkpt><trkpt lat="45.897196" lon="14.2198845"><ele>507.0</ele><time>2026-04-26T13:04:49.438Z</time></trkpt><trkpt lat="45.8971408" lon="14.2199531"><ele>507.0</ele><time>2026-04-26T13:04:50.438Z</time></trkpt><trkpt lat="45.8970919" lon="14.2200209"><ele>508.6</ele><time>2026-04-26T13:04:51.438Z</time></trkpt><trkpt lat="45.8970391" lon="14.2201923"><ele>510.20000000000005</ele><time>2026-04-26T13:04:53.438Z</time></trkpt><trkpt lat="45.8970243" lon="14.2202928"><ele>511.8</ele><time>2026-04-26T13:04:54.438Z</time></trkpt><trkpt lat="45.8970054" lon="14.220383"><ele>513.4</ele><time>2026-04-26T13:04:55.438Z</time></trkpt><trkpt lat="45.8969347" lon="14.2204883"><ele>515.0</ele><time>2026-04-26T13:04:57.438Z</time></trkpt><trkpt lat="45.8968314" lon="14.2205313"><ele>515.0</ele><time>2026-04-26T13:04:59.438Z</time></trkpt><trkpt lat="45.8967592" lon="14.2205451"><ele>515.0</ele><time>2026-04-26T13:05:00.438Z</time></trkpt><trkpt lat="45.8966686" lon="14.2205649"><ele>515.0</ele><time>2026-04-26T13:05:01.438Z</time></trkpt><trkpt lat="45.8965867" lon="14.2205831"><ele>515.0</ele><time>2026-04-26T13:05:02.438Z</time></trkpt><trkpt lat="45.8964811" lon="14.2206209"><ele>515.0</ele><time>2026-04-26T13:05:04.438Z</time></trkpt><trkpt lat="45.8964079" lon="14.2207702"><ele>517.4</ele><time>2026-04-26T13:05:06.438Z</time></trkpt><trkpt lat="45.8963646" lon="14.2208802"><ele>519.8</ele><time>2026-04-26T13:05:07.438Z</time></trkpt><trkpt lat="45.896319" lon="14.2210062"><ele>522.2</ele><time>2026-04-26T13:05:08.438Z</time></trkpt><trkpt lat="45.8962779" lon="14.221142"><ele>524.6</ele><time>2026-04-26T13:05:09.438Z</time></trkpt><trkpt lat="45.8962504" lon="14.221252"><ele>527.0</ele><time>2026-04-26T13:05:10.438Z</time></trkpt><trkpt lat="45.8962354" lon="14.2213672"><ele>527.3333333333333</ele><time>2026-04-26T13:05:11.438Z</time></trkpt><trkpt lat="45.8962269" lon="14.2214845"><ele>527.6666666666666</ele><time>2026-04-26T13:05:12.438Z</time></trkpt><trkpt lat="45.896222" lon="14.2216002"><ele>528.0</ele><time>2026-04-26T13:05:13.439Z</time></trkpt><trkpt lat="45.8962172" lon="14.2217141"><ele>528.3333333333334</ele><time>2026-04-26T13:05:14.438Z</time></trkpt><trkpt lat="45.8962154" lon="14.2218282"><ele>528.6666666666667</ele><time>2026-04-26T13:05:15.438Z</time></trkpt><trkpt lat="45.8962192" lon="14.2219338"><ele>529.0</ele><time>2026-04-26T13:05:16.438Z</time></trkpt><trkpt lat="45.8962235" lon="14.2220296"><ele>529.0</ele><time>2026-04-26T13:05:17.438Z</time></trkpt><trkpt lat="45.8962071" lon="14.2222027"><ele>529.0</ele><time>2026-04-26T13:05:19.438Z</time></trkpt><trkpt lat="45.8961862" lon="14.2222946"><ele>529.0</ele><time>2026-04-26T13:05:20.438Z</time></trkpt><trkpt lat="45.8961426" lon="14.2223863"><ele>529.0</ele><time>2026-04-26T13:05:21.438Z</time></trkpt><trkpt lat="45.8960826" lon="14.2224845"><ele>529.0</ele><time>2026-04-26T13:05:22.438Z</time></trkpt><trkpt lat="45.8960123" lon="14.2225711"><ele>530.4</ele><time>2026-04-26T13:05:23.438Z</time></trkpt><trkpt lat="45.8959562" lon="14.2226553"><ele>531.8</ele><time>2026-04-26T13:05:24.438Z</time></trkpt><trkpt lat="45.895912" lon="14.2227314"><ele>533.2</ele><time>2026-04-26T13:05:25.438Z</time></trkpt><trkpt lat="45.8958485" lon="14.2228524"><ele>534.6</ele><time>2026-04-26T13:05:27.438Z</time></trkpt><trkpt lat="45.8958333" lon="14.2229919"><ele>536.0</ele><time>2026-04-26T13:05:29.438Z</time></trkpt><trkpt lat="45.8958511" lon="14.2231544"><ele>540.4</ele><time>2026-04-26T13:05:31.438Z</time></trkpt><trkpt lat="45.8958647" lon="14.2233179"><ele>544.8</ele><time>2026-04-26T13:05:33.438Z</time></trkpt><trkpt lat="45.8958382" lon="14.2234588"><ele>549.1999999999999</ele><time>2026-04-26T13:05:35.438Z</time></trkpt><trkpt lat="45.8957359" lon="14.2235481"><ele>553.6</ele><time>2026-04-26T13:05:37.439Z</time></trkpt><trkpt lat="45.8956348" lon="14.223622"><ele>558.0</ele><time>2026-04-26T13:05:39.438Z</time></trkpt><trkpt lat="45.8955625" lon="14.2237703"><ele>558.0</ele><time>2026-04-26T13:05:41.438Z</time></trkpt><trkpt lat="45.8955445" lon="14.2238819"><ele>558.0</ele><time>2026-04-26T13:05:42.438Z</time></trkpt><trkpt lat="45.8955337" lon="14.2239983"><ele>558.0</ele><time>2026-04-26T13:05:43.439Z</time></trkpt><trkpt lat="45.8955164" lon="14.2241078"><ele>558.0</ele><time>2026-04-26T13:05:44.439Z</time></trkpt><trkpt lat="45.8954885" lon="14.2242093"><ele>558.0</ele><time>2026-04-26T13:05:45.438Z</time></trkpt><trkpt lat="45.8954573" lon="14.2243034"><ele>558.0</ele><time>2026-04-26T13:05:46.438Z</time></trkpt><trkpt lat="45.8954074" lon="14.2244614"><ele>559.4</ele><time>2026-04-26T13:05:48.438Z</time></trkpt><trkpt lat="45.8953743" lon="14.2245962"><ele>560.8</ele><time>2026-04-26T13:05:50.438Z</time></trkpt><trkpt lat="45.8953893" lon="14.2247294"><ele>562.2</ele><time>2026-04-26T13:05:52.438Z</time></trkpt><trkpt lat="45.8954998" lon="14.2248112"><ele>563.6</ele><time>2026-04-26T13:05:54.438Z</time></trkpt><trkpt lat="45.8955766" lon="14.2248205"><ele>565.0</ele><time>2026-04-26T13:05:55.439Z</time></trkpt><trkpt lat="45.8956434" lon="14.2248135"><ele>565.0</ele><time>2026-04-26T13:05:56.438Z</time></trkpt><trkpt lat="45.8957564" lon="14.2247627"><ele>565.0</ele><time>2026-04-26T13:05:58.438Z</time></trkpt><trkpt lat="45.895817" lon="14.2247077"><ele>565.0</ele><time>2026-04-26T13:05:59.438Z</time></trkpt><trkpt lat="45.8958861" lon="14.2246265"><ele>565.0</ele><time>2026-04-26T13:06:00.438Z</time></trkpt><trkpt lat="45.8959519" lon="14.2245316"><ele>565.0</ele><time>2026-04-26T13:06:01.438Z</time></trkpt><trkpt lat="45.8960175" lon="14.2244528"><ele>564.2</ele><time>2026-04-26T13:06:02.439Z</time></trkpt><trkpt lat="45.8960818" lon="14.2244036"><ele>563.4</ele><time>2026-04-26T13:06:03.438Z</time></trkpt><trkpt lat="45.8961448" lon="14.2243773"><ele>562.6</ele><time>2026-04-26T13:06:04.438Z</time></trkpt><trkpt lat="45.8962599" lon="14.2243461"><ele>561.8</ele><time>2026-04-26T13:06:06.438Z</time></trkpt><trkpt lat="45.896374" lon="14.2244161"><ele>561.0</ele><time>2026-04-26T13:06:08.438Z</time></trkpt><trkpt lat="45.896431" lon="14.2244895"><ele>561.0</ele><time>2026-04-26T13:06:09.438Z</time></trkpt><trkpt lat="45.8964924" lon="14.2245701"><ele>561.0</ele><time>2026-04-26T13:06:10.438Z</time></trkpt><trkpt lat="45.8965583" lon="14.2246555"><ele>561.0</ele><time>2026-04-26T13:06:11.439Z</time></trkpt><trkpt lat="45.8966185" lon="14.2247274"><ele>561.0</ele><time>2026-04-26T13:06:12.438Z</time></trkpt><trkpt lat="45.8966692" lon="14.2248087"><ele>561.0</ele><time>2026-04-26T13:06:13.438Z</time></trkpt><trkpt lat="45.896724" lon="14.2248918"><ele>561.0</ele><time>2026-04-26T13:06:14.438Z</time></trkpt><trkpt lat="45.8967771" lon="14.2249609"><ele>559.5</ele><time>2026-04-26T13:06:15.438Z</time></trkpt><trkpt lat="45.8968284" lon="14.2250326"><ele>558.0</ele><time>2026-04-26T13:06:16.438Z</time></trkpt><trkpt lat="45.8968704" lon="14.2251018"><ele>556.5</ele><time>2026-04-26T13:06:17.438Z</time></trkpt><trkpt lat="45.8969267" lon="14.2252423"><ele>555.0</ele><time>2026-04-26T13:06:19.438Z</time></trkpt><trkpt lat="45.8969788" lon="14.2253699"><ele>553.5</ele><time>2026-04-26T13:06:21.438Z</time></trkpt><trkpt lat="45.8970461" lon="14.2254339"><ele>552.0</ele><time>2026-04-26T13:06:23.439Z</time></trkpt><trkpt lat="45.8971656" lon="14.225415"><ele>552.0</ele><time>2026-04-26T13:06:25.438Z</time></trkpt><trkpt lat="45.8972534" lon="14.2253746"><ele>552.0</ele><time>2026-04-26T13:06:26.438Z</time></trkpt><trkpt lat="45.8973708" lon="14.2253075"><ele>552.0</ele><time>2026-04-26T13:06:27.438Z</time></trkpt><trkpt lat="45.8974709" lon="14.2252541"><ele>552.0</ele><time>2026-04-26T13:06:28.438Z</time></trkpt><trkpt lat="45.8975638" lon="14.2251962"><ele>552.0</ele><time>2026-04-26T13:06:29.438Z</time></trkpt><trkpt lat="45.8976492" lon="14.2251388"><ele>551.8333333333334</ele><time>2026-04-26T13:06:30.438Z</time></trkpt><trkpt lat="45.8977164" lon="14.2250897"><ele>551.6666666666666</ele><time>2026-04-26T13:06:31.438Z</time></trkpt><trkpt lat="45.8977813" lon="14.2250372"><ele>551.5</ele><time>2026-04-26T13:06:32.438Z</time></trkpt><trkpt lat="45.8978506" lon="14.2249887"><ele>551.3333333333333</ele><time>2026-04-26T13:06:33.438Z</time></trkpt><trkpt lat="45.8979265" lon="14.2249548"><ele>551.1666666666666</ele><time>2026-04-26T13:06:34.438Z</time></trkpt><trkpt lat="45.8980128" lon="14.224938"><ele>551.0</ele><time>2026-04-26T13:06:35.438Z</time></trkpt><trkpt lat="45.898089" lon="14.2249301"><ele>551.0</ele><time>2026-04-26T13:06:36.438Z</time></trkpt><trkpt lat="45.8981631" lon="14.2249034"><ele>551.0</ele><time>2026-04-26T13:06:37.439Z</time></trkpt><trkpt lat="45.8982271" lon="14.2248678"><ele>551.0</ele><time>2026-04-26T13:06:38.438Z</time></trkpt><trkpt lat="45.898288" lon="14.2248035"><ele>551.0</ele><time>2026-04-26T13:06:39.438Z</time></trkpt><trkpt lat="45.8983557" lon="14.2247229"><ele>551.0</ele><time>2026-04-26T13:06:40.438Z</time></trkpt><trkpt lat="45.8984263" lon="14.2246507"><ele>551.0</ele><time>2026-04-26T13:06:41.438Z</time></trkpt><trkpt lat="45.8985114" lon="14.2245991"><ele>548.1666666666666</ele><time>2026-04-26T13:06:42.439Z</time></trkpt><trkpt lat="45.8985866" lon="14.2245639"><ele>545.3333333333333</ele><time>2026-04-26T13:06:43.438Z</time></trkpt><trkpt lat="45.8986652" lon="14.2245356"><ele>542.5</ele><time>2026-04-26T13:06:44.439Z</time></trkpt><trkpt lat="45.8987302" lon="14.2245239"><ele>539.6666666666666</ele><time>2026-04-26T13:06:45.438Z</time></trkpt><trkpt lat="45.8988142" lon="14.2245384"><ele>536.8333333333334</ele><time>2026-04-26T13:06:46.438Z</time></trkpt><trkpt lat="45.8989182" lon="14.2245522"><ele>534.0</ele><time>2026-04-26T13:06:47.439Z</time></trkpt><trkpt lat="45.8990233" lon="14.2245781"><ele>534.0</ele><time>2026-04-26T13:06:48.438Z</time></trkpt><trkpt lat="45.8991418" lon="14.2246144"><ele>534.0</ele><time>2026-04-26T13:06:49.438Z</time></trkpt><trkpt lat="45.8992542" lon="14.2246405"><ele>534.0</ele><time>2026-04-26T13:06:50.438Z</time></trkpt><trkpt lat="45.8993548" lon="14.2246773"><ele>534.0</ele><time>2026-04-26T13:06:51.438Z</time></trkpt><trkpt lat="45.8994431" lon="14.2247175"><ele>534.0</ele><time>2026-04-26T13:06:52.438Z</time></trkpt><trkpt lat="45.8995313" lon="14.2248134"><ele>533.6666666666666</ele><time>2026-04-26T13:06:54.438Z</time></trkpt><trkpt lat="45.8995376" lon="14.2249586"><ele>533.3333333333334</ele><time>2026-04-26T13:06:56.438Z</time></trkpt><trkpt lat="45.8995163" lon="14.2250455"><ele>533.0</ele><time>2026-04-26T13:06:57.438Z</time></trkpt><trkpt lat="45.8995058" lon="14.2251528"><ele>532.6666666666667</ele><time>2026-04-26T13:06:58.438Z</time></trkpt><trkpt lat="45.8995176" lon="14.2252494"><ele>532.3333333333334</ele><time>2026-04-26T13:06:59.438Z</time></trkpt><trkpt lat="45.8995419" lon="14.2253599"><ele>532.0</ele><time>2026-04-26T13:07:00.438Z</time></trkpt><trkpt lat="45.8995798" lon="14.2255094"><ele>531.25</ele><time>2026-04-26T13:07:01.438Z</time></trkpt><trkpt lat="45.8996013" lon="14.2256959"><ele>530.5</ele><time>2026-04-26T13:07:02.438Z</time></trkpt><trkpt lat="45.8996079" lon="14.2259153"><ele>529.75</ele><time>2026-04-26T13:07:03.438Z</time></trkpt><trkpt lat="45.8996137" lon="14.2261242"><ele>529.0</ele><time>2026-04-26T13:07:04.438Z</time></trkpt><trkpt lat="45.8996221" lon="14.2262893"><ele>529.0</ele><time>2026-04-26T13:07:05.439Z</time></trkpt><trkpt lat="45.8996355" lon="14.2264129"><ele>529.0</ele><time>2026-04-26T13:07:06.438Z</time></trkpt><trkpt lat="45.8996339" lon="14.2265099"><ele>529.0</ele><time>2026-04-26T13:07:07.438Z</time></trkpt><trkpt lat="45.8996279" lon="14.2266018"><ele>529.0</ele><time>2026-04-26T13:07:08.438Z</time></trkpt><trkpt lat="45.8996765" lon="14.2267468"><ele>529.0</ele><time>2026-04-26T13:07:10.438Z</time></trkpt><trkpt lat="45.8997235" lon="14.2268124"><ele>529.0</ele><time>2026-04-26T13:07:11.438Z</time></trkpt><trkpt lat="45.899787" lon="14.2269017"><ele>528.25</ele><time>2026-04-26T13:07:12.438Z</time></trkpt><trkpt lat="45.8998856" lon="14.2270073"><ele>527.5</ele><time>2026-04-26T13:07:13.438Z</time></trkpt><trkpt lat="45.899979" lon="14.227128"><ele>526.75</ele><time>2026-04-26T13:07:14.438Z</time></trkpt><trkpt lat="45.9000648" lon="14.2272402"><ele>526.0</ele><time>2026-04-26T13:07:15.439Z</time></trkpt><trkpt lat="45.9001258" lon="14.2273343"><ele>525.4</ele><time>2026-04-26T13:07:16.438Z</time></trkpt><trkpt lat="45.9001583" lon="14.227414"><ele>524.8</ele><time>2026-04-26T13:07:17.438Z</time></trkpt><trkpt lat="45.9002062" lon="14.2275318"><ele>524.1999999999999</ele><time>2026-04-26T13:07:19.439Z</time></trkpt><trkpt lat="45.9002366" lon="14.2276625"><ele>523.6</ele><time>2026-04-26T13:07:21.439Z</time></trkpt><trkpt lat="45.9002508" lon="14.2277935"><ele>523.0</ele><time>2026-04-26T13:07:23.438Z</time></trkpt><trkpt lat="45.9002646" lon="14.2279582"><ele>523.0</ele><time>2026-04-26T13:07:25.438Z</time></trkpt><trkpt lat="45.9002768" lon="14.2280783"><ele>523.0</ele><time>2026-04-26T13:07:26.438Z</time></trkpt><trkpt lat="45.9002873" lon="14.2281897"><ele>523.0</ele><time>2026-04-26T13:07:27.438Z</time></trkpt><trkpt lat="45.9002814" lon="14.2282992"><ele>523.0</ele><time>2026-04-26T13:07:28.439Z</time></trkpt><trkpt lat="45.9002654" lon="14.228401"><ele>523.0</ele><time>2026-04-26T13:07:29.438Z</time></trkpt><trkpt lat="45.9002601" lon="14.2284971"><ele>523.0</ele><time>2026-04-26T13:07:30.438Z</time></trkpt><trkpt lat="45.9002453" lon="14.2286583"><ele>522.8</ele><time>2026-04-26T13:07:32.438Z</time></trkpt><trkpt lat="45.9002558" lon="14.2287733"><ele>522.5999999999999</ele><time>2026-04-26T13:07:34.438Z</time></trkpt><trkpt lat="45.900345" lon="14.2288735"><ele>522.4000000000001</ele><time>2026-04-26T13:07:36.438Z</time></trkpt><trkpt lat="45.9004064" lon="14.228918"><ele>522.2</ele><time>2026-04-26T13:07:37.438Z</time></trkpt><trkpt lat="45.9005293" lon="14.2289772"><ele>522.0</ele><time>2026-04-26T13:07:39.438Z</time></trkpt><trkpt lat="45.9005925" lon="14.2289809"><ele>522.0</ele><time>2026-04-26T13:07:40.438Z</time></trkpt><trkpt lat="45.9006635" lon="14.228943"><ele>522.0</ele><time>2026-04-26T13:07:41.438Z</time></trkpt><trkpt lat="45.9007282" lon="14.2289033"><ele>522.0</ele><time>2026-04-26T13:07:42.438Z</time></trkpt><trkpt lat="45.9008205" lon="14.2288766"><ele>522.0</ele><time>2026-04-26T13:07:44.438Z</time></trkpt><trkpt lat="45.9008819" lon="14.2289405"><ele>522.0</ele><time>2026-04-26T13:07:46.438Z</time></trkpt><trkpt lat="45.9009155" lon="14.2290199"><ele>522.0</ele><time>2026-04-26T13:07:47.439Z</time></trkpt><trkpt lat="45.9009447" lon="14.2291587"><ele>521.0</ele><time>2026-04-26T13:07:48.438Z</time></trkpt><trkpt lat="45.90096" lon="14.2293242"><ele>520.0</ele><time>2026-04-26T13:07:49.438Z</time></trkpt><trkpt lat="45.9009633" lon="14.2294667"><ele>519.0</ele><time>2026-04-26T13:07:50.439Z</time></trkpt><trkpt lat="45.9009644" lon="14.2295934"><ele>518.0</ele><time>2026-04-26T13:07:51.439Z</time></trkpt><trkpt lat="45.9009777" lon="14.2296968"><ele>517.0</ele><time>2026-04-26T13:07:52.438Z</time></trkpt><trkpt lat="45.9009915" lon="14.2298098"><ele>517.0</ele><time>2026-04-26T13:07:53.438Z</time></trkpt><trkpt lat="45.9010137" lon="14.2299136"><ele>517.0</ele><time>2026-04-26T13:07:54.438Z</time></trkpt><trkpt lat="45.9010655" lon="14.2300247"><ele>517.0</ele><time>2026-04-26T13:07:55.438Z</time></trkpt><trkpt lat="45.9011233" lon="14.2301511"><ele>517.0</ele><time>2026-04-26T13:07:56.438Z</time></trkpt><trkpt lat="45.9011889" lon="14.2302643"><ele>517.0</ele><time>2026-04-26T13:07:57.439Z</time></trkpt><trkpt lat="45.9012513" lon="14.230371"><ele>517.0</ele><time>2026-04-26T13:07:58.438Z</time></trkpt><trkpt lat="45.9012916" lon="14.2304583"><ele>517.0</ele><time>2026-04-26T13:07:59.438Z</time></trkpt><trkpt lat="45.9013083" lon="14.2306281"><ele>517.0</ele><time>2026-04-26T13:08:01.438Z</time></trkpt><trkpt lat="45.9012781" lon="14.2307572"><ele>517.0</ele><time>2026-04-26T13:08:02.438Z</time></trkpt><trkpt lat="45.9012373" lon="14.2308943"><ele>517.0</ele><time>2026-04-26T13:08:03.438Z</time></trkpt><trkpt lat="45.901206" lon="14.2310353"><ele>517.0</ele><time>2026-04-26T13:08:04.438Z</time></trkpt><trkpt lat="45.9011911" lon="14.2311907"><ele>517.0</ele><time>2026-04-26T13:08:05.438Z</time></trkpt><trkpt lat="45.9011855" lon="14.2313575"><ele>517.0</ele><time>2026-04-26T13:08:06.438Z</time></trkpt><trkpt lat="45.9011753" lon="14.2315305"><ele>517.0</ele><time>2026-04-26T13:08:07.438Z</time></trkpt><trkpt lat="45.901154" lon="14.231689"><ele>516.6</ele><time>2026-04-26T13:08:08.439Z</time></trkpt><trkpt lat="45.9011236" lon="14.2318413"><ele>516.2</ele><time>2026-04-26T13:08:09.439Z</time></trkpt><trkpt lat="45.901093" lon="14.2319796"><ele>515.8</ele><time>2026-04-26T13:08:10.438Z</time></trkpt><trkpt lat="45.9010523" lon="14.2320998"><ele>515.4</ele><time>2026-04-26T13:08:11.438Z</time></trkpt><trkpt lat="45.9010191" lon="14.2322247"><ele>515.0</ele><time>2026-04-26T13:08:12.438Z</time></trkpt><trkpt lat="45.9009787" lon="14.23233"><ele>514.5714285714286</ele><time>2026-04-26T13:08:13.438Z</time></trkpt><trkpt lat="45.900932" lon="14.2324059"><ele>514.1428571428571</ele><time>2026-04-26T13:08:14.438Z</time></trkpt><trkpt lat="45.9008801" lon="14.2324707"><ele>513.7142857142857</ele><time>2026-04-26T13:08:15.438Z</time></trkpt><trkpt lat="45.9008271" lon="14.2325256"><ele>513.2857142857142</ele><time>2026-04-26T13:08:16.438Z</time></trkpt><trkpt lat="45.9007667" lon="14.2325811"><ele>512.8571428571428</ele><time>2026-04-26T13:08:17.438Z</time></trkpt><trkpt lat="45.9007197" lon="14.2326526"><ele>512.4285714285714</ele><time>2026-04-26T13:08:18.438Z</time></trkpt><trkpt lat="45.9006845" lon="14.2327379"><ele>512.0</ele><time>2026-04-26T13:08:19.439Z</time></trkpt><trkpt lat="45.9006676" lon="14.2328406"><ele>512.0</ele><time>2026-04-26T13:08:20.438Z</time></trkpt><trkpt lat="45.9006544" lon="14.232951"><ele>512.0</ele><time>2026-04-26T13:08:21.438Z</time></trkpt><trkpt lat="45.9006562" lon="14.2330714"><ele>512.0</ele><time>2026-04-26T13:08:22.438Z</time></trkpt><trkpt lat="45.9006836" lon="14.2332143"><ele>512.0</ele><time>2026-04-26T13:08:23.438Z</time></trkpt><trkpt lat="45.9007128" lon="14.2333689"><ele>512.0</ele><time>2026-04-26T13:08:24.438Z</time></trkpt><trkpt lat="45.9007388" lon="14.2335142"><ele>511.0</ele><time>2026-04-26T13:08:25.438Z</time></trkpt><trkpt lat="45.9007409" lon="14.2336378"><ele>510.00000000000006</ele><time>2026-04-26T13:08:26.438Z</time></trkpt><trkpt lat="45.9007154" lon="14.2337763"><ele>509.00000000000006</ele><time>2026-04-26T13:08:27.438Z</time></trkpt><trkpt lat="45.9006722" lon="14.2339131"><ele>508.0</ele><time>2026-04-26T13:08:28.439Z</time></trkpt><trkpt lat="45.9006299" lon="14.2340271"><ele>507.0</ele><time>2026-04-26T13:08:29.438Z</time></trkpt><trkpt lat="45.9005804" lon="14.2341209"><ele>505.6666666666667</ele><time>2026-04-26T13:08:30.438Z</time></trkpt><trkpt lat="45.9005256" lon="14.2341977"><ele>504.33333333333337</ele><time>2026-04-26T13:08:31.438Z</time></trkpt><trkpt lat="45.9004555" lon="14.2342786"><ele>503.0</ele><time>2026-04-26T13:08:32.438Z</time></trkpt><trkpt lat="45.9003839" lon="14.2343495"><ele>501.6666666666667</ele><time>2026-04-26T13:08:33.438Z</time></trkpt><trkpt lat="45.9003324" lon="14.2344066"><ele>500.33333333333337</ele><time>2026-04-26T13:08:34.439Z</time></trkpt><trkpt lat="45.9002675" lon="14.2345184"><ele>499.0</ele><time>2026-04-26T13:08:36.439Z</time></trkpt><trkpt lat="45.9002381" lon="14.2346595"><ele>497.0</ele><time>2026-04-26T13:08:38.438Z</time></trkpt><trkpt lat="45.9002911" lon="14.2348365"><ele>495.0</ele><time>2026-04-26T13:08:40.438Z</time></trkpt><trkpt lat="45.9003444" lon="14.2349362"><ele>493.0</ele><time>2026-04-26T13:08:41.438Z</time></trkpt><trkpt lat="45.9004044" lon="14.2350398"><ele>491.0</ele><time>2026-04-26T13:08:42.438Z</time></trkpt><trkpt lat="45.9004535" lon="14.2351561"><ele>489.0</ele><time>2026-04-26T13:08:43.438Z</time></trkpt><trkpt lat="45.9004938" lon="14.2352663"><ele>489.0</ele><time>2026-04-26T13:08:44.438Z</time></trkpt><trkpt lat="45.9005306" lon="14.2353706"><ele>489.0</ele><time>2026-04-26T13:08:45.438Z</time></trkpt><trkpt lat="45.9005651" lon="14.2354591"><ele>489.0</ele><time>2026-04-26T13:08:46.439Z</time></trkpt><trkpt lat="45.9006403" lon="14.2355736"><ele>489.0</ele><time>2026-04-26T13:08:48.437Z</time></trkpt><trkpt lat="45.9007163" lon="14.2356687"><ele>489.0</ele><time>2026-04-26T13:08:50.437Z</time></trkpt><trkpt lat="45.9007718" lon="14.235744"><ele>489.0</ele><time>2026-04-26T13:08:52.437Z</time></trkpt><trkpt lat="45.9008219" lon="14.2358241"><ele>488.79999999999995</ele><time>2026-04-26T13:08:55.437Z</time></trkpt><trkpt lat="45.900804" lon="14.2359274"><ele>488.59999999999997</ele><time>2026-04-26T13:09:04.437Z</time></trkpt><trkpt lat="45.9007663" lon="14.2360145"><ele>488.4</ele><time>2026-04-26T13:09:05.437Z</time></trkpt><trkpt lat="45.9007067" lon="14.2361211"><ele>488.2</ele><time>2026-04-26T13:09:06.437Z</time></trkpt><trkpt lat="45.900634" lon="14.2362455"><ele>488.0</ele><time>2026-04-26T13:09:07.437Z</time></trkpt><trkpt lat="45.9005448" lon="14.2363884"><ele>490.0</ele><time>2026-04-26T13:09:08.438Z</time></trkpt><trkpt lat="45.9004388" lon="14.2365506"><ele>492.0</ele><time>2026-04-26T13:09:09.437Z</time></trkpt><trkpt lat="45.9003461" lon="14.2367345"><ele>494.0</ele><time>2026-04-26T13:09:10.437Z</time></trkpt><trkpt lat="45.9002787" lon="14.2369424"><ele>494.0</ele><time>2026-04-26T13:09:11.437Z</time></trkpt><trkpt lat="45.9002121" lon="14.2371856"><ele>494.0</ele><time>2026-04-26T13:09:12.437Z</time></trkpt><trkpt lat="45.9001628" lon="14.2374113"><ele>494.0</ele><time>2026-04-26T13:09:13.437Z</time></trkpt><trkpt lat="45.9001204" lon="14.2376148"><ele>496.0</ele><time>2026-04-26T13:09:14.437Z</time></trkpt><trkpt lat="45.9000826" lon="14.2377923"><ele>498.0</ele><time>2026-04-26T13:09:15.438Z</time></trkpt><trkpt lat="45.9000315" lon="14.2379417"><ele>500.0</ele><time>2026-04-26T13:09:16.437Z</time></trkpt><trkpt lat="45.8999814" lon="14.2380761"><ele>502.0</ele><time>2026-04-26T13:09:17.438Z</time></trkpt><trkpt lat="45.8999413" lon="14.2382163"><ele>502.25</ele><time>2026-04-26T13:09:18.437Z</time></trkpt><trkpt lat="45.8999254" lon="14.2383754"><ele>502.5</ele><time>2026-04-26T13:09:19.437Z</time></trkpt><trkpt lat="45.8999134" lon="14.2385681"><ele>502.75</ele><time>2026-04-26T13:09:20.437Z</time></trkpt><trkpt lat="45.8999043" lon="14.2387539"><ele>503.0</ele><time>2026-04-26T13:09:21.437Z</time></trkpt><trkpt lat="45.899889" lon="14.2389314"><ele>502.5</ele><time>2026-04-26T13:09:22.437Z</time></trkpt><trkpt lat="45.8998543" lon="14.2390822"><ele>502.0</ele><time>2026-04-26T13:09:23.437Z</time></trkpt><trkpt lat="45.8997854" lon="14.2392356"><ele>501.5</ele><time>2026-04-26T13:09:24.437Z</time></trkpt><trkpt lat="45.8996934" lon="14.2393687"><ele>501.0</ele><time>2026-04-26T13:09:25.437Z</time></trkpt><trkpt lat="45.8995858" lon="14.2395072"><ele>501.0</ele><time>2026-04-26T13:09:26.437Z</time></trkpt><trkpt lat="45.8994658" lon="14.2396536"><ele>501.0</ele><time>2026-04-26T13:09:27.437Z</time></trkpt><trkpt lat="45.899335" lon="14.2398124"><ele>501.0</ele><time>2026-04-26T13:09:28.438Z</time></trkpt><trkpt lat="45.8992098" lon="14.2399843"><ele>502.33333333333337</ele><time>2026-04-26T13:09:29.437Z</time></trkpt><trkpt lat="45.8990787" lon="14.240143"><ele>503.6666666666667</ele><time>2026-04-26T13:09:30.437Z</time></trkpt><trkpt lat="45.8989417" lon="14.2403047"><ele>505.0</ele><time>2026-04-26T13:09:31.437Z</time></trkpt><trkpt lat="45.8988196" lon="14.2404707"><ele>505.0</ele><time>2026-04-26T13:09:32.437Z</time></trkpt><trkpt lat="45.8987124" lon="14.2406272"><ele>505.0</ele><time>2026-04-26T13:09:33.438Z</time></trkpt><trkpt lat="45.8986164" lon="14.2407647"><ele>505.0</ele><time>2026-04-26T13:09:34.438Z</time></trkpt><trkpt lat="45.8985045" lon="14.2408545"><ele>505.0</ele><time>2026-04-26T13:09:35.437Z</time></trkpt><trkpt lat="45.8983822" lon="14.2409117"><ele>506.0</ele><time>2026-04-26T13:09:36.437Z</time></trkpt><trkpt lat="45.8982597" lon="14.2409603"><ele>507.0</ele><time>2026-04-26T13:09:37.437Z</time></trkpt><trkpt lat="45.8981366" lon="14.2410256"><ele>508.0</ele><time>2026-04-26T13:09:38.438Z</time></trkpt><trkpt lat="45.8980081" lon="14.2411216"><ele>509.0</ele><time>2026-04-26T13:09:39.437Z</time></trkpt><trkpt lat="45.8978784" lon="14.2412348"><ele>509.0</ele><time>2026-04-26T13:09:40.437Z</time></trkpt><trkpt lat="45.8977643" lon="14.2413764"><ele>509.0</ele><time>2026-04-26T13:09:41.437Z</time></trkpt><trkpt lat="45.8976763" lon="14.2415416"><ele>509.0</ele><time>2026-04-26T13:09:42.437Z</time></trkpt><trkpt lat="45.8976113" lon="14.2417325"><ele>509.0</ele><time>2026-04-26T13:09:43.437Z</time></trkpt><trkpt lat="45.8975699" lon="14.2419296"><ele>510.75</ele><time>2026-04-26T13:09:44.437Z</time></trkpt><trkpt lat="45.8975389" lon="14.2421144"><ele>512.5</ele><time>2026-04-26T13:09:45.437Z</time></trkpt><trkpt lat="45.8975076" lon="14.2422717"><ele>514.25</ele><time>2026-04-26T13:09:46.437Z</time></trkpt><trkpt lat="45.8974768" lon="14.2424134"><ele>516.0</ele><time>2026-04-26T13:09:47.437Z</time></trkpt><trkpt lat="45.8974316" lon="14.2425456"><ele>516.0</ele><time>2026-04-26T13:09:48.437Z</time></trkpt><trkpt lat="45.897378" lon="14.2426726"><ele>516.0</ele><time>2026-04-26T13:09:49.437Z</time></trkpt><trkpt lat="45.8973033" lon="14.2428019"><ele>516.0</ele><time>2026-04-26T13:09:50.437Z</time></trkpt><trkpt lat="45.8972273" lon="14.2429433"><ele>516.0</ele><time>2026-04-26T13:09:51.437Z</time></trkpt><trkpt lat="45.8971566" lon="14.2431077"><ele>514.25</ele><time>2026-04-26T13:09:52.437Z</time></trkpt><trkpt lat="45.8970952" lon="14.2432776"><ele>512.5</ele><time>2026-04-26T13:09:53.437Z</time></trkpt><trkpt lat="45.8970415" lon="14.2434392"><ele>510.75</ele><time>2026-04-26T13:09:54.437Z</time></trkpt><trkpt lat="45.8969868" lon="14.2435865"><ele>509.0</ele><time>2026-04-26T13:09:55.437Z</time></trkpt><trkpt lat="45.8969239" lon="14.243717"><ele>508.99999999999994</ele><time>2026-04-26T13:09:56.437Z</time></trkpt><trkpt lat="45.8968579" lon="14.2438086"><ele>509.0</ele><time>2026-04-26T13:09:57.437Z</time></trkpt><trkpt lat="45.8967812" lon="14.2438696"><ele>509.0</ele><time>2026-04-26T13:09:58.437Z</time></trkpt><trkpt lat="45.8966965" lon="14.2439115"><ele>509.0</ele><time>2026-04-26T13:09:59.437Z</time></trkpt><trkpt lat="45.8966124" lon="14.2439457"><ele>508.99999999999994</ele><time>2026-04-26T13:10:00.437Z</time></trkpt><trkpt lat="45.8965269" lon="14.2439778"><ele>509.0</ele><time>2026-04-26T13:10:01.437Z</time></trkpt><trkpt lat="45.8964538" lon="14.2440079"><ele>508.8571428571428</ele><time>2026-04-26T13:10:02.437Z</time></trkpt><trkpt lat="45.896387" lon="14.2440303"><ele>508.71428571428567</ele><time>2026-04-26T13:10:03.437Z</time></trkpt><trkpt lat="45.8963153" lon="14.244039"><ele>508.57142857142856</ele><time>2026-04-26T13:10:05.438Z</time></trkpt><trkpt lat="45.8962662" lon="14.2439672"><ele>508.4285714285714</ele><time>2026-04-26T13:17:12.437Z</time></trkpt><trkpt lat="45.8962406" lon="14.2440544"><ele>508.2857142857142</ele><time>2026-04-26T13:19:17.437Z</time></trkpt><trkpt lat="45.8961836" lon="14.2440075"><ele>508.14285714285717</ele><time>2026-04-26T13:19:24.437Z</time></trkpt><trkpt lat="45.8961884" lon="14.2439084"><ele>508.0</ele><time>2026-04-26T13:19:29.438Z</time></trkpt><trkpt lat="45.8962418" lon="14.2438338"><ele>508.0</ele><time>2026-04-26T13:20:20.437Z</time></trkpt><trkpt lat="45.8961903" lon="14.2439004"><ele>508.0</ele><time>2026-04-26T13:20:55.437Z</time></trkpt><trkpt lat="45.8962062" lon="14.2439942"><ele>508.0</ele><time>2026-04-26T13:21:01.438Z</time></trkpt><trkpt lat="45.8962616" lon="14.2440522"><ele>508.0</ele><time>2026-04-26T13:21:06.438Z</time></trkpt><trkpt lat="45.8963267" lon="14.244026"><ele>508.0</ele><time>2026-04-26T13:21:12.438Z</time></trkpt><trkpt lat="45.896258" lon="14.2440086"><ele>508.0</ele><time>2026-04-26T13:22:16.444Z</time></trkpt><trkpt lat="45.8963273" lon="14.2439794"><ele>508.0</ele><time>2026-04-26T13:23:39.436Z</time></trkpt><trkpt lat="45.8962873" lon="14.2440612"><ele>508.0</ele><time>2026-04-26T13:25:33.436Z</time></trkpt><trkpt lat="45.8961947" lon="14.2441156"><ele>507.99999999999994</ele><time>2026-04-26T13:28:13.436Z</time></trkpt><trkpt lat="45.8961327" lon="14.2441555"><ele>507.99999999999994</ele><time>2026-04-26T13:28:14.437Z</time></trkpt><trkpt lat="45.89604" lon="14.2441874"><ele>508.0</ele><time>2026-04-26T13:28:15.436Z</time></trkpt><trkpt lat="45.8959454" lon="14.2442388"><ele>508.0</ele><time>2026-04-26T13:28:16.436Z</time></trkpt><trkpt lat="45.8958404" lon="14.2443019"><ele>509.25</ele><time>2026-04-26T13:28:17.437Z</time></trkpt><trkpt lat="45.8957341" lon="14.2443984"><ele>510.5</ele><time>2026-04-26T13:28:18.436Z</time></trkpt><trkpt lat="45.8956376" lon="14.2445324"><ele>511.75</ele><time>2026-04-26T13:28:19.436Z</time></trkpt><trkpt lat="45.8955471" lon="14.2446889"><ele>513.0</ele><time>2026-04-26T13:28:20.436Z</time></trkpt><trkpt lat="45.8954576" lon="14.2448503"><ele>513.0</ele><time>2026-04-26T13:28:21.436Z</time></trkpt><trkpt lat="45.8953836" lon="14.2450306"><ele>513.0</ele><time>2026-04-26T13:28:22.436Z</time></trkpt><trkpt lat="45.8953273" lon="14.245239"><ele>513.0</ele><time>2026-04-26T13:28:23.437Z</time></trkpt><trkpt lat="45.8952911" lon="14.2454804"><ele>513.0</ele><time>2026-04-26T13:28:24.436Z</time></trkpt><trkpt lat="45.8952654" lon="14.2457401"><ele>513.0</ele><time>2026-04-26T13:28:25.436Z</time></trkpt><trkpt lat="45.895228" lon="14.2460062"><ele>513.0</ele><time>2026-04-26T13:28:26.436Z</time></trkpt><trkpt lat="45.8951746" lon="14.2462705"><ele>513.0</ele><time>2026-04-26T13:28:27.436Z</time></trkpt><trkpt lat="45.8951073" lon="14.2465299"><ele>513.0</ele><time>2026-04-26T13:28:28.436Z</time></trkpt><trkpt lat="45.8950183" lon="14.2467903"><ele>513.0</ele><time>2026-04-26T13:28:29.436Z</time></trkpt><trkpt lat="45.8949242" lon="14.2470514"><ele>517.6666666666666</ele><time>2026-04-26T13:28:30.436Z</time></trkpt><trkpt lat="45.8948323" lon="14.2473083"><ele>522.3333333333333</ele><time>2026-04-26T13:28:31.436Z</time></trkpt><trkpt lat="45.8947436" lon="14.24756"><ele>527.0</ele><time>2026-04-26T13:28:32.436Z</time></trkpt><trkpt lat="45.8946555" lon="14.2478002"><ele>527.0</ele><time>2026-04-26T13:28:33.436Z</time></trkpt><trkpt lat="45.894574" lon="14.2480353"><ele>527.0</ele><time>2026-04-26T13:28:34.436Z</time></trkpt><trkpt lat="45.894482" lon="14.2482617"><ele>527.0</ele><time>2026-04-26T13:28:35.436Z</time></trkpt><trkpt lat="45.8943869" lon="14.2484788"><ele>526.3333333333333</ele><time>2026-04-26T13:28:36.436Z</time></trkpt><trkpt lat="45.8942968" lon="14.2486908"><ele>525.6666666666666</ele><time>2026-04-26T13:28:37.436Z</time></trkpt><trkpt lat="45.8941818" lon="14.2489024"><ele>525.0</ele><time>2026-04-26T13:28:38.436Z</time></trkpt><trkpt lat="45.8940631" lon="14.2491098"><ele>527.3333333333334</ele><time>2026-04-26T13:28:39.437Z</time></trkpt><trkpt lat="45.8939411" lon="14.2493482"><ele>529.6666666666667</ele><time>2026-04-26T13:28:40.436Z</time></trkpt><trkpt lat="45.8938252" lon="14.2495903"><ele>532.0</ele><time>2026-04-26T13:28:41.437Z</time></trkpt><trkpt lat="45.8937096" lon="14.2498102"><ele>532.0</ele><time>2026-04-26T13:28:42.436Z</time></trkpt><trkpt lat="45.8936061" lon="14.2500045"><ele>532.0</ele><time>2026-04-26T13:28:43.436Z</time></trkpt><trkpt lat="45.8935051" lon="14.2501873"><ele>532.0</ele><time>2026-04-26T13:28:44.436Z</time></trkpt><trkpt lat="45.8933889" lon="14.2503702"><ele>535.3333333333334</ele><time>2026-04-26T13:28:45.436Z</time></trkpt><trkpt lat="45.8932521" lon="14.2505524"><ele>538.6666666666666</ele><time>2026-04-26T13:28:46.436Z</time></trkpt><trkpt lat="45.8931063" lon="14.2507394"><ele>542.0</ele><time>2026-04-26T13:28:47.436Z</time></trkpt><trkpt lat="45.8929647" lon="14.2509383"><ele>542.0</ele><time>2026-04-26T13:28:48.436Z</time></trkpt><trkpt lat="45.892825" lon="14.2511328"><ele>542.0</ele><time>2026-04-26T13:28:49.436Z</time></trkpt><trkpt lat="45.8926915" lon="14.251299"><ele>542.0</ele><time>2026-04-26T13:28:50.436Z</time></trkpt><trkpt lat="45.8925448" lon="14.2514418"><ele>542.6666666666666</ele><time>2026-04-26T13:28:51.436Z</time></trkpt><trkpt lat="45.8923811" lon="14.2515626"><ele>543.3333333333334</ele><time>2026-04-26T13:28:52.436Z</time></trkpt><trkpt lat="45.8922149" lon="14.2516841"><ele>544.0</ele><time>2026-04-26T13:28:53.436Z</time></trkpt><trkpt lat="45.8920538" lon="14.2517756"><ele>544.0</ele><time>2026-04-26T13:28:54.436Z</time></trkpt><trkpt lat="45.8918881" lon="14.2518488"><ele>544.0</ele><time>2026-04-26T13:28:55.437Z</time></trkpt><trkpt lat="45.8917237" lon="14.2518634"><ele>544.0</ele><time>2026-04-26T13:28:56.436Z</time></trkpt><trkpt lat="45.8915669" lon="14.251864"><ele>546.5</ele><time>2026-04-26T13:28:57.436Z</time></trkpt><trkpt lat="45.8914172" lon="14.2519201"><ele>549.0</ele><time>2026-04-26T13:28:58.437Z</time></trkpt><trkpt lat="45.8912898" lon="14.2520096"><ele>551.5</ele><time>2026-04-26T13:28:59.436Z</time></trkpt><trkpt lat="45.891156" lon="14.2520788"><ele>554.0</ele><time>2026-04-26T13:29:00.436Z</time></trkpt><trkpt lat="45.8910252" lon="14.2520857"><ele>555.0</ele><time>2026-04-26T13:29:01.436Z</time></trkpt><trkpt lat="45.8908896" lon="14.2520144"><ele>556.0</ele><time>2026-04-26T13:29:02.436Z</time></trkpt><trkpt lat="45.8907457" lon="14.2518961"><ele>557.0</ele><time>2026-04-26T13:29:03.436Z</time></trkpt><trkpt lat="45.8905944" lon="14.2517678"><ele>557.0</ele><time>2026-04-26T13:29:04.436Z</time></trkpt><trkpt lat="45.8904453" lon="14.2516595"><ele>557.0</ele><time>2026-04-26T13:29:05.436Z</time></trkpt><trkpt lat="45.8903165" lon="14.2515425"><ele>557.0</ele><time>2026-04-26T13:29:06.436Z</time></trkpt><trkpt lat="45.8902085" lon="14.2513864"><ele>557.75</ele><time>2026-04-26T13:29:07.436Z</time></trkpt><trkpt lat="45.8901323" lon="14.2512146"><ele>558.5</ele><time>2026-04-26T13:29:08.437Z</time></trkpt><trkpt lat="45.8900566" lon="14.2510493"><ele>559.25</ele><time>2026-04-26T13:29:09.437Z</time></trkpt><trkpt lat="45.8899487" lon="14.2509689"><ele>560.0</ele><time>2026-04-26T13:29:10.436Z</time></trkpt><trkpt lat="45.8898133" lon="14.2509238"><ele>556.3333333333333</ele><time>2026-04-26T13:29:11.436Z</time></trkpt><trkpt lat="45.8896607" lon="14.2508818"><ele>552.6666666666666</ele><time>2026-04-26T13:29:12.436Z</time></trkpt><trkpt lat="45.8895057" lon="14.2508214"><ele>549.0</ele><time>2026-04-26T13:29:13.436Z</time></trkpt><trkpt lat="45.889361" lon="14.2507538"><ele>547.3333333333334</ele><time>2026-04-26T13:29:14.436Z</time></trkpt><trkpt lat="45.8892085" lon="14.250729"><ele>545.6666666666667</ele><time>2026-04-26T13:29:15.436Z</time></trkpt><trkpt lat="45.8890554" lon="14.2507704"><ele>544.0</ele><time>2026-04-26T13:29:16.436Z</time></trkpt><trkpt lat="45.888898" lon="14.2508802"><ele>544.0</ele><time>2026-04-26T13:29:17.436Z</time></trkpt><trkpt lat="45.8887431" lon="14.2510347"><ele>544.0</ele><time>2026-04-26T13:29:18.436Z</time></trkpt><trkpt lat="45.8885702" lon="14.2512093"><ele>544.0</ele><time>2026-04-26T13:29:19.436Z</time></trkpt><trkpt lat="45.888392" lon="14.2513972"><ele>546.5</ele><time>2026-04-26T13:29:20.436Z</time></trkpt><trkpt lat="45.8882092" lon="14.2515803"><ele>549.0</ele><time>2026-04-26T13:29:21.436Z</time></trkpt><trkpt lat="45.888018" lon="14.2517639"><ele>549.0</ele><time>2026-04-26T13:29:22.436Z</time></trkpt><trkpt lat="45.8878264" lon="14.2519436"><ele>549.0</ele><time>2026-04-26T13:29:23.436Z</time></trkpt><trkpt lat="45.8876519" lon="14.2521152"><ele>549.0</ele><time>2026-04-26T13:29:24.436Z</time></trkpt><trkpt lat="45.8874656" lon="14.2522462"><ele>551.3333333333334</ele><time>2026-04-26T13:29:25.437Z</time></trkpt><trkpt lat="45.8872672" lon="14.25235"><ele>553.6666666666667</ele><time>2026-04-26T13:29:26.436Z</time></trkpt><trkpt lat="45.8870707" lon="14.2524364"><ele>556.0</ele><time>2026-04-26T13:29:27.436Z</time></trkpt><trkpt lat="45.8868698" lon="14.2525276"><ele>553.6666666666667</ele><time>2026-04-26T13:29:28.437Z</time></trkpt><trkpt lat="45.8866667" lon="14.2526242"><ele>551.3333333333334</ele><time>2026-04-26T13:29:29.436Z</time></trkpt><trkpt lat="45.8864575" lon="14.2527349"><ele>549.0</ele><time>2026-04-26T13:29:30.436Z</time></trkpt><trkpt lat="45.8862435" lon="14.2528462"><ele>549.0</ele><time>2026-04-26T13:29:31.436Z</time></trkpt><trkpt lat="45.8860392" lon="14.2529505"><ele>549.0</ele><time>2026-04-26T13:29:32.436Z</time></trkpt><trkpt lat="45.8858439" lon="14.2530553"><ele>549.0</ele><time>2026-04-26T13:29:33.436Z</time></trkpt><trkpt lat="45.8856683" lon="14.2531749"><ele>549.3333333333334</ele><time>2026-04-26T13:29:34.436Z</time></trkpt><trkpt lat="45.885501" lon="14.2533246"><ele>549.6666666666667</ele><time>2026-04-26T13:29:35.436Z</time></trkpt><trkpt lat="45.8853534" lon="14.2535125"><ele>550.0</ele><time>2026-04-26T13:29:36.436Z</time></trkpt><trkpt lat="45.8852243" lon="14.2537142"><ele>550.0</ele><time>2026-04-26T13:29:37.436Z</time></trkpt><trkpt lat="45.8850967" lon="14.2538806"><ele>550.0</ele><time>2026-04-26T13:29:38.436Z</time></trkpt><trkpt lat="45.8849644" lon="14.2539961"><ele>550.0</ele><time>2026-04-26T13:29:39.436Z</time></trkpt><trkpt lat="45.8848043" lon="14.2540493"><ele>549.3333333333334</ele><time>2026-04-26T13:29:40.436Z</time></trkpt><trkpt lat="45.8846302" lon="14.254052"><ele>548.6666666666666</ele><time>2026-04-26T13:29:41.436Z</time></trkpt><trkpt lat="45.884412" lon="14.2540469"><ele>548.0</ele><time>2026-04-26T13:29:42.436Z</time></trkpt><trkpt lat="45.8842128" lon="14.2540567"><ele>544.6666666666666</ele><time>2026-04-26T13:29:43.436Z</time></trkpt><trkpt lat="45.884006" lon="14.2540961"><ele>541.3333333333334</ele><time>2026-04-26T13:29:44.436Z</time></trkpt><trkpt lat="45.8838212" lon="14.2541847"><ele>538.0</ele><time>2026-04-26T13:29:45.436Z</time></trkpt><trkpt lat="45.8836427" lon="14.2543302"><ele>538.0</ele><time>2026-04-26T13:29:46.436Z</time></trkpt><trkpt lat="45.8834642" lon="14.2545049"><ele>538.0</ele><time>2026-04-26T13:29:47.436Z</time></trkpt><trkpt lat="45.8832859" lon="14.2546448"><ele>538.0</ele><time>2026-04-26T13:29:48.436Z</time></trkpt><trkpt lat="45.8830933" lon="14.2547182"><ele>539.0</ele><time>2026-04-26T13:29:49.436Z</time></trkpt><trkpt lat="45.8828924" lon="14.2547719"><ele>540.0</ele><time>2026-04-26T13:29:50.436Z</time></trkpt><trkpt lat="45.8826802" lon="14.2547987"><ele>541.0</ele><time>2026-04-26T13:29:51.436Z</time></trkpt><trkpt lat="45.8824569" lon="14.2548127"><ele>537.0</ele><time>2026-04-26T13:29:52.436Z</time></trkpt><trkpt lat="45.8822218" lon="14.2548132"><ele>533.0</ele><time>2026-04-26T13:29:53.436Z</time></trkpt><trkpt lat="45.8819938" lon="14.2547897"><ele>534.0</ele><time>2026-04-26T13:29:54.436Z</time></trkpt><trkpt lat="45.8817995" lon="14.2547699"><ele>535.0</ele><time>2026-04-26T13:29:55.436Z</time></trkpt><trkpt lat="45.8816013" lon="14.2548099"><ele>536.0</ele><time>2026-04-26T13:29:56.436Z</time></trkpt><trkpt lat="45.8813989" lon="14.2549131"><ele>538.0</ele><time>2026-04-26T13:29:57.436Z</time></trkpt><trkpt lat="45.8812042" lon="14.2550503"><ele>540.0</ele><time>2026-04-26T13:29:58.436Z</time></trkpt><trkpt lat="45.8809942" lon="14.2552201"><ele>545.0</ele><time>2026-04-26T13:29:59.436Z</time></trkpt><trkpt lat="45.8807706" lon="14.2553872"><ele>550.0</ele><time>2026-04-26T13:30:00.436Z</time></trkpt><trkpt lat="45.8805645" lon="14.2555336"><ele>549.3333333333334</ele><time>2026-04-26T13:30:01.436Z</time></trkpt><trkpt lat="45.8803779" lon="14.2556786"><ele>548.6666666666666</ele><time>2026-04-26T13:30:02.436Z</time></trkpt><trkpt lat="45.8802031" lon="14.255811"><ele>548.0</ele><time>2026-04-26T13:30:03.436Z</time></trkpt><trkpt lat="45.8800354" lon="14.2559199"><ele>550.0</ele><time>2026-04-26T13:30:04.436Z</time></trkpt><trkpt lat="45.8798599" lon="14.2560074"><ele>552.0</ele><time>2026-04-26T13:30:05.436Z</time></trkpt><trkpt lat="45.8796758" lon="14.2560504"><ele>554.0</ele><time>2026-04-26T13:30:06.436Z</time></trkpt><trkpt lat="45.8794706" lon="14.2560456"><ele>549.0</ele><time>2026-04-26T13:30:07.436Z</time></trkpt><trkpt lat="45.8792453" lon="14.2560451"><ele>544.0</ele><time>2026-04-26T13:30:08.436Z</time></trkpt><trkpt lat="45.8790149" lon="14.2560581"><ele>544.0</ele><time>2026-04-26T13:30:09.436Z</time></trkpt><trkpt lat="45.878777" lon="14.256105"><ele>544.0</ele><time>2026-04-26T13:30:10.436Z</time></trkpt><trkpt lat="45.878533" lon="14.2561366"><ele>541.6666666666667</ele><time>2026-04-26T13:30:11.436Z</time></trkpt><trkpt lat="45.8783114" lon="14.2561485"><ele>539.3333333333334</ele><time>2026-04-26T13:30:12.436Z</time></trkpt><trkpt lat="45.878102" lon="14.2561407"><ele>537.0</ele><time>2026-04-26T13:30:13.436Z</time></trkpt><trkpt lat="45.8778986" lon="14.2561667"><ele>537.0</ele><time>2026-04-26T13:30:14.436Z</time></trkpt><trkpt lat="45.8777128" lon="14.2562483"><ele>537.0</ele><time>2026-04-26T13:30:15.437Z</time></trkpt><trkpt lat="45.8775283" lon="14.2563642"><ele>537.0</ele><time>2026-04-26T13:30:16.436Z</time></trkpt><trkpt lat="45.8773371" lon="14.2565153"><ele>538.3333333333334</ele><time>2026-04-26T13:30:17.436Z</time></trkpt><trkpt lat="45.8771585" lon="14.256691"><ele>539.6666666666667</ele><time>2026-04-26T13:30:18.436Z</time></trkpt><trkpt lat="45.8769936" lon="14.2568589"><ele>541.0</ele><time>2026-04-26T13:30:19.436Z</time></trkpt><trkpt lat="45.8768297" lon="14.2570099"><ele>538.3333333333334</ele><time>2026-04-26T13:30:20.436Z</time></trkpt><trkpt lat="45.8766484" lon="14.2571493"><ele>535.6666666666666</ele><time>2026-04-26T13:30:21.436Z</time></trkpt><trkpt lat="45.8764643" lon="14.2572207"><ele>533.0</ele><time>2026-04-26T13:30:22.436Z</time></trkpt><trkpt lat="45.8762673" lon="14.2572086"><ele>533.0</ele><time>2026-04-26T13:30:23.436Z</time></trkpt><trkpt lat="45.8760673" lon="14.257172"><ele>533.0</ele><time>2026-04-26T13:30:24.436Z</time></trkpt><trkpt lat="45.875867" lon="14.257127"><ele>533.0</ele><time>2026-04-26T13:30:25.437Z</time></trkpt><trkpt lat="45.8756838" lon="14.2571125"><ele>532.3333333333333</ele><time>2026-04-26T13:30:26.436Z</time></trkpt><trkpt lat="45.8755081" lon="14.2571458"><ele>531.6666666666666</ele><time>2026-04-26T13:30:27.436Z</time></trkpt><trkpt lat="45.8753293" lon="14.2572223"><ele>531.0</ele><time>2026-04-26T13:30:28.436Z</time></trkpt><trkpt lat="45.8751311" lon="14.2573425"><ele>530.3333333333334</ele><time>2026-04-26T13:30:29.436Z</time></trkpt><trkpt lat="45.8749299" lon="14.2574834"><ele>529.6666666666667</ele><time>2026-04-26T13:30:30.436Z</time></trkpt><trkpt lat="45.8747489" lon="14.2576268"><ele>529.0</ele><time>2026-04-26T13:30:31.436Z</time></trkpt><trkpt lat="45.8745896" lon="14.2577608"><ele>529.0</ele><time>2026-04-26T13:30:32.436Z</time></trkpt><trkpt lat="45.8744432" lon="14.2579186"><ele>529.0</ele><time>2026-04-26T13:30:33.436Z</time></trkpt><trkpt lat="45.8742872" lon="14.2580634"><ele>529.0</ele><time>2026-04-26T13:30:34.436Z</time></trkpt><trkpt lat="45.8740988" lon="14.2581946"><ele>527.5</ele><time>2026-04-26T13:30:35.436Z</time></trkpt><trkpt lat="45.8738759" lon="14.2582882"><ele>526.0</ele><time>2026-04-26T13:30:36.437Z</time></trkpt><trkpt lat="45.8736311" lon="14.2583182"><ele>521.5</ele><time>2026-04-26T13:30:37.436Z</time></trkpt><trkpt lat="45.8733651" lon="14.2583322"><ele>517.0</ele><time>2026-04-26T13:30:38.436Z</time></trkpt><trkpt lat="45.8731046" lon="14.2583538"><ele>517.0</ele><time>2026-04-26T13:30:39.436Z</time></trkpt><trkpt lat="45.8728709" lon="14.258388"><ele>517.0</ele><time>2026-04-26T13:30:40.436Z</time></trkpt><trkpt lat="45.8726514" lon="14.258434"><ele>515.3333333333334</ele><time>2026-04-26T13:30:41.436Z</time></trkpt><trkpt lat="45.8724561" lon="14.2584958"><ele>513.6666666666666</ele><time>2026-04-26T13:30:42.436Z</time></trkpt><trkpt lat="45.8722672" lon="14.258587"><ele>512.0</ele><time>2026-04-26T13:30:43.436Z</time></trkpt><trkpt lat="45.8720666" lon="14.2587249"><ele>512.0</ele><time>2026-04-26T13:30:44.437Z</time></trkpt><trkpt lat="45.8718652" lon="14.258902"><ele>512.0</ele><time>2026-04-26T13:30:45.436Z</time></trkpt><trkpt lat="45.8716564" lon="14.2590988"><ele>509.5</ele><time>2026-04-26T13:30:46.436Z</time></trkpt><trkpt lat="45.8714408" lon="14.2593368"><ele>507.0</ele><time>2026-04-26T13:30:47.436Z</time></trkpt><trkpt lat="45.8712429" lon="14.2595628"><ele>507.0</ele><time>2026-04-26T13:30:48.436Z</time></trkpt><trkpt lat="45.8710524" lon="14.259758"><ele>507.0</ele><time>2026-04-26T13:30:49.436Z</time></trkpt><trkpt lat="45.8708485" lon="14.2599132"><ele>508.0</ele><time>2026-04-26T13:30:50.436Z</time></trkpt><trkpt lat="45.8706424" lon="14.2600552"><ele>509.0</ele><time>2026-04-26T13:30:51.436Z</time></trkpt><trkpt lat="45.87043" lon="14.2601779"><ele>509.0</ele><time>2026-04-26T13:30:52.436Z</time></trkpt><trkpt lat="45.8702215" lon="14.260336"><ele>509.0</ele><time>2026-04-26T13:30:53.436Z</time></trkpt><trkpt lat="45.8700163" lon="14.2604906"><ele>507.5</ele><time>2026-04-26T13:30:54.436Z</time></trkpt><trkpt lat="45.8698005" lon="14.2606376"><ele>506.0</ele><time>2026-04-26T13:30:55.436Z</time></trkpt><trkpt lat="45.8695696" lon="14.260764"><ele>506.0</ele><time>2026-04-26T13:30:56.436Z</time></trkpt><trkpt lat="45.8693355" lon="14.2608686"><ele>506.0</ele><time>2026-04-26T13:30:57.436Z</time></trkpt><trkpt lat="45.869111" lon="14.2609751"><ele>505.3333333333333</ele><time>2026-04-26T13:30:58.436Z</time></trkpt><trkpt lat="45.8689045" lon="14.2610578"><ele>504.66666666666663</ele><time>2026-04-26T13:30:59.437Z</time></trkpt><trkpt lat="45.8687194" lon="14.2611372"><ele>504.0</ele><time>2026-04-26T13:31:00.436Z</time></trkpt><trkpt lat="45.8685531" lon="14.2612135"><ele>500.66666666666663</ele><time>2026-04-26T13:31:01.437Z</time></trkpt><trkpt lat="45.868402" lon="14.2612892"><ele>497.3333333333333</ele><time>2026-04-26T13:31:02.437Z</time></trkpt><trkpt lat="45.8682548" lon="14.2613628"><ele>494.0</ele><time>2026-04-26T13:31:03.436Z</time></trkpt><trkpt lat="45.8681239" lon="14.2614398"><ele>494.75</ele><time>2026-04-26T13:31:04.436Z</time></trkpt><trkpt lat="45.8679928" lon="14.2615037"><ele>495.5</ele><time>2026-04-26T13:31:05.436Z</time></trkpt><trkpt lat="45.8678615" lon="14.2615684"><ele>496.25</ele><time>2026-04-26T13:31:06.436Z</time></trkpt><trkpt lat="45.8677313" lon="14.2616323"><ele>497.0</ele><time>2026-04-26T13:31:07.436Z</time></trkpt><trkpt lat="45.8675939" lon="14.2616974"><ele>495.0</ele><time>2026-04-26T13:31:08.436Z</time></trkpt><trkpt lat="45.8674567" lon="14.2617803"><ele>493.0</ele><time>2026-04-26T13:31:09.436Z</time></trkpt><trkpt lat="45.8673277" lon="14.2618833"><ele>491.0</ele><time>2026-04-26T13:31:10.436Z</time></trkpt><trkpt lat="45.8672033" lon="14.2620146"><ele>491.0</ele><time>2026-04-26T13:31:11.436Z</time></trkpt><trkpt lat="45.8670803" lon="14.26216"><ele>491.0</ele><time>2026-04-26T13:31:12.436Z</time></trkpt><trkpt lat="45.8669529" lon="14.2623053"><ele>491.0</ele><time>2026-04-26T13:31:13.436Z</time></trkpt><trkpt lat="45.8668312" lon="14.2624438"><ele>489.0</ele><time>2026-04-26T13:31:14.436Z</time></trkpt><trkpt lat="45.8667058" lon="14.262571"><ele>487.0</ele><time>2026-04-26T13:31:15.436Z</time></trkpt><trkpt lat="45.8665849" lon="14.2626917"><ele>485.0</ele><time>2026-04-26T13:31:16.436Z</time></trkpt><trkpt lat="45.8664575" lon="14.2627744"><ele>483.0</ele><time>2026-04-26T13:31:17.436Z</time></trkpt><trkpt lat="45.8663189" lon="14.2628349"><ele>483.0</ele><time>2026-04-26T13:31:18.436Z</time></trkpt><trkpt lat="45.8661748" lon="14.2628821"><ele>483.0</ele><time>2026-04-26T13:31:19.437Z</time></trkpt><trkpt lat="45.8660239" lon="14.2629267"><ele>483.0</ele><time>2026-04-26T13:31:20.436Z</time></trkpt><trkpt lat="45.8658759" lon="14.2629605"><ele>480.75</ele><time>2026-04-26T13:31:21.436Z</time></trkpt><trkpt lat="45.8657395" lon="14.2629702"><ele>478.5</ele><time>2026-04-26T13:31:22.437Z</time></trkpt><trkpt lat="45.8655964" lon="14.2629623"><ele>476.25</ele><time>2026-04-26T13:31:23.436Z</time></trkpt><trkpt lat="45.8654458" lon="14.262941"><ele>474.0</ele><time>2026-04-26T13:31:24.437Z</time></trkpt><trkpt lat="45.8652888" lon="14.2629127"><ele>474.0</ele><time>2026-04-26T13:31:25.436Z</time></trkpt><trkpt lat="45.8651448" lon="14.2628841"><ele>474.0</ele><time>2026-04-26T13:31:26.436Z</time></trkpt><trkpt lat="45.8650101" lon="14.2628669"><ele>474.0</ele><time>2026-04-26T13:31:27.436Z</time></trkpt><trkpt lat="45.8648842" lon="14.2628764"><ele>474.0</ele><time>2026-04-26T13:31:28.436Z</time></trkpt><trkpt lat="45.8647577" lon="14.2629297"><ele>473.0</ele><time>2026-04-26T13:31:29.436Z</time></trkpt><trkpt lat="45.8646277" lon="14.2630202"><ele>472.0</ele><time>2026-04-26T13:31:30.436Z</time></trkpt><trkpt lat="45.8644938" lon="14.2631183"><ele>471.0</ele><time>2026-04-26T13:31:31.436Z</time></trkpt><trkpt lat="45.864373" lon="14.2632115"><ele>470.0</ele><time>2026-04-26T13:31:32.436Z</time></trkpt><trkpt lat="45.8642635" lon="14.2633079"><ele>468.0</ele><time>2026-04-26T13:31:33.437Z</time></trkpt><trkpt lat="45.8641649" lon="14.2634199"><ele>466.0</ele><time>2026-04-26T13:31:34.436Z</time></trkpt><trkpt lat="45.8640739" lon="14.2635752"><ele>464.0</ele><time>2026-04-26T13:31:35.436Z</time></trkpt><trkpt lat="45.8639881" lon="14.2637741"><ele>462.0</ele><time>2026-04-26T13:31:36.436Z</time></trkpt><trkpt lat="45.8639" lon="14.2639932"><ele>462.0</ele><time>2026-04-26T13:31:37.436Z</time></trkpt><trkpt lat="45.8637856" lon="14.264207"><ele>462.0</ele><time>2026-04-26T13:31:38.436Z</time></trkpt><trkpt lat="45.8636714" lon="14.2643967"><ele>462.0</ele><time>2026-04-26T13:31:39.436Z</time></trkpt><trkpt lat="45.8635449" lon="14.2645304"><ele>462.0</ele><time>2026-04-26T13:31:40.436Z</time></trkpt><trkpt lat="45.8634317" lon="14.2646242"><ele>462.0</ele><time>2026-04-26T13:31:41.437Z</time></trkpt><trkpt lat="45.8633266" lon="14.2647388"><ele>462.0</ele><time>2026-04-26T13:31:42.437Z</time></trkpt><trkpt lat="45.8632511" lon="14.2649155"><ele>462.0</ele><time>2026-04-26T13:31:43.436Z</time></trkpt><trkpt lat="45.8631779" lon="14.2650952"><ele>462.0</ele><time>2026-04-26T13:31:44.436Z</time></trkpt><trkpt lat="45.8630994" lon="14.2652625"><ele>462.0</ele><time>2026-04-26T13:31:45.436Z</time></trkpt><trkpt lat="45.8630134" lon="14.2654011"><ele>462.0</ele><time>2026-04-26T13:31:46.436Z</time></trkpt><trkpt lat="45.8629016" lon="14.2654771"><ele>462.0</ele><time>2026-04-26T13:31:47.436Z</time></trkpt><trkpt lat="45.8627794" lon="14.2654969"><ele>462.0</ele><time>2026-04-26T13:31:48.436Z</time></trkpt><trkpt lat="45.862667" lon="14.2655007"><ele>462.00000000000006</ele><time>2026-04-26T13:31:49.436Z</time></trkpt><trkpt lat="45.8625678" lon="14.2654846"><ele>462.00000000000006</ele><time>2026-04-26T13:31:50.436Z</time></trkpt><trkpt lat="45.8624758" lon="14.2654871"><ele>462.0</ele><time>2026-04-26T13:31:51.437Z</time></trkpt><trkpt lat="45.8623881" lon="14.2654691"><ele>462.0</ele><time>2026-04-26T13:31:52.436Z</time></trkpt><trkpt lat="45.8623053" lon="14.2654116"><ele>461.0</ele><time>2026-04-26T13:31:53.437Z</time></trkpt><trkpt lat="45.8622188" lon="14.2653183"><ele>460.0</ele><time>2026-04-26T13:31:54.437Z</time></trkpt><trkpt lat="45.8621312" lon="14.2652237"><ele>459.0</ele><time>2026-04-26T13:31:55.436Z</time></trkpt><trkpt lat="45.8620313" lon="14.2651432"><ele>458.0</ele><time>2026-04-26T13:31:56.436Z</time></trkpt><trkpt lat="45.8619256" lon="14.2650659"><ele>458.0</ele><time>2026-04-26T13:31:57.436Z</time></trkpt><trkpt lat="45.861816" lon="14.2649995"><ele>458.0</ele><time>2026-04-26T13:31:58.437Z</time></trkpt><trkpt lat="45.8617047" lon="14.2649533"><ele>458.0</ele><time>2026-04-26T13:31:59.437Z</time></trkpt><trkpt lat="45.8615916" lon="14.2649383"><ele>458.0</ele><time>2026-04-26T13:32:00.436Z</time></trkpt><trkpt lat="45.8614858" lon="14.2649256"><ele>458.0</ele><time>2026-04-26T13:32:01.436Z</time></trkpt><trkpt lat="45.8613739" lon="14.2649247"><ele>457.99999999999994</ele><time>2026-04-26T13:32:02.436Z</time></trkpt><trkpt lat="45.8612672" lon="14.2649314"><ele>457.99999999999994</ele><time>2026-04-26T13:32:03.436Z</time></trkpt><trkpt lat="45.8611644" lon="14.2649301"><ele>458.0</ele><time>2026-04-26T13:32:04.436Z</time></trkpt><trkpt lat="45.8610702" lon="14.2649021"><ele>458.0</ele><time>2026-04-26T13:32:05.436Z</time></trkpt><trkpt lat="45.8609758" lon="14.2648513"><ele>456.75</ele><time>2026-04-26T13:32:06.436Z</time></trkpt><trkpt lat="45.8608848" lon="14.2647883"><ele>455.5</ele><time>2026-04-26T13:32:07.436Z</time></trkpt><trkpt lat="45.8607881" lon="14.2647143"><ele>454.25</ele><time>2026-04-26T13:32:08.436Z</time></trkpt><trkpt lat="45.8606777" lon="14.2646312"><ele>453.0</ele><time>2026-04-26T13:32:09.436Z</time></trkpt><trkpt lat="45.86055" lon="14.2645629"><ele>452.33333333333337</ele><time>2026-04-26T13:32:10.436Z</time></trkpt><trkpt lat="45.8604037" lon="14.2645278"><ele>451.6666666666667</ele><time>2026-04-26T13:32:11.436Z</time></trkpt><trkpt lat="45.8602501" lon="14.2645214"><ele>451.0</ele><time>2026-04-26T13:32:12.436Z</time></trkpt><trkpt lat="45.8600895" lon="14.2645588"><ele>451.0</ele><time>2026-04-26T13:32:13.436Z</time></trkpt><trkpt lat="45.859929" lon="14.2646309"><ele>451.0</ele><time>2026-04-26T13:32:14.437Z</time></trkpt><trkpt lat="45.8597758" lon="14.2646987"><ele>451.0</ele><time>2026-04-26T13:32:15.436Z</time></trkpt><trkpt lat="45.859627" lon="14.2647685"><ele>451.25</ele><time>2026-04-26T13:32:16.436Z</time></trkpt><trkpt lat="45.8594845" lon="14.2648425"><ele>451.5</ele><time>2026-04-26T13:32:17.437Z</time></trkpt><trkpt lat="45.8593586" lon="14.2649135"><ele>451.75</ele><time>2026-04-26T13:32:18.436Z</time></trkpt><trkpt lat="45.8592457" lon="14.2649814"><ele>452.0</ele><time>2026-04-26T13:32:19.436Z</time></trkpt><trkpt lat="45.8591428" lon="14.2650126"><ele>451.99999999999994</ele><time>2026-04-26T13:32:20.436Z</time></trkpt><trkpt lat="45.8590563" lon="14.2650223"><ele>452.0</ele><time>2026-04-26T13:32:21.437Z</time></trkpt><trkpt lat="45.8589699" lon="14.2649976"><ele>452.0</ele><time>2026-04-26T13:32:22.436Z</time></trkpt><trkpt lat="45.8588935" lon="14.2649171"><ele>452.0</ele><time>2026-04-26T13:32:23.436Z</time></trkpt><trkpt lat="45.8588299" lon="14.2648351"><ele>451.99999999999994</ele><time>2026-04-26T13:32:24.436Z</time></trkpt><trkpt lat="45.8587815" lon="14.2647195"><ele>452.0</ele><time>2026-04-26T13:32:25.436Z</time></trkpt><trkpt lat="45.8587353" lon="14.264606"><ele>452.49999999999994</ele><time>2026-04-26T13:32:26.436Z</time></trkpt><trkpt lat="45.8587032" lon="14.2644962"><ele>453.0</ele><time>2026-04-26T13:32:27.437Z</time></trkpt><trkpt lat="45.8586793" lon="14.2643941"><ele>453.5</ele><time>2026-04-26T13:32:28.436Z</time></trkpt><trkpt lat="45.8586345" lon="14.2643064"><ele>454.0</ele><time>2026-04-26T13:32:29.436Z</time></trkpt><trkpt lat="45.8585653" lon="14.2642278"><ele>454.49999999999994</ele><time>2026-04-26T13:32:30.436Z</time></trkpt><trkpt lat="45.8584687" lon="14.2641583"><ele>455.0</ele><time>2026-04-26T13:32:31.436Z</time></trkpt><trkpt lat="45.858348" lon="14.2641191"><ele>453.5</ele><time>2026-04-26T13:32:32.436Z</time></trkpt><trkpt lat="45.8582121" lon="14.264104"><ele>452.0</ele><time>2026-04-26T13:32:33.436Z</time></trkpt><trkpt lat="45.8580659" lon="14.264116"><ele>450.5</ele><time>2026-04-26T13:32:34.436Z</time></trkpt><trkpt lat="45.8579046" lon="14.2641422"><ele>449.0</ele><time>2026-04-26T13:32:35.437Z</time></trkpt><trkpt lat="45.8577414" lon="14.2641829"><ele>448.0</ele><time>2026-04-26T13:32:36.436Z</time></trkpt><trkpt lat="45.8575821" lon="14.2642328"><ele>447.0</ele><time>2026-04-26T13:32:37.436Z</time></trkpt><trkpt lat="45.857421" lon="14.2642894"><ele>446.0</ele><time>2026-04-26T13:32:38.436Z</time></trkpt><trkpt lat="45.8572571" lon="14.2643485"><ele>446.0</ele><time>2026-04-26T13:32:39.437Z</time></trkpt><trkpt lat="45.8570923" lon="14.264381"><ele>446.0</ele><time>2026-04-26T13:32:40.436Z</time></trkpt><trkpt lat="45.856932" lon="14.2643738"><ele>446.0</ele><time>2026-04-26T13:32:41.437Z</time></trkpt><trkpt lat="45.8567582" lon="14.2643655"><ele>446.0</ele><time>2026-04-26T13:32:42.436Z</time></trkpt><trkpt lat="45.8565768" lon="14.2643553"><ele>446.0</ele><time>2026-04-26T13:32:43.436Z</time></trkpt><trkpt lat="45.856392" lon="14.2643392"><ele>446.0</ele><time>2026-04-26T13:32:44.436Z</time></trkpt><trkpt lat="45.8561979" lon="14.2643172"><ele>446.0</ele><time>2026-04-26T13:32:45.436Z</time></trkpt><trkpt lat="45.8559924" lon="14.2642917"><ele>446.0</ele><time>2026-04-26T13:32:46.436Z</time></trkpt><trkpt lat="45.8557863" lon="14.2642599"><ele>446.0</ele><time>2026-04-26T13:32:47.436Z</time></trkpt><trkpt lat="45.8555779" lon="14.264215"><ele>446.0</ele><time>2026-04-26T13:32:48.436Z</time></trkpt><trkpt lat="45.8553713" lon="14.2641584"><ele>446.0</ele><time>2026-04-26T13:32:49.436Z</time></trkpt><trkpt lat="45.8551674" lon="14.2640956"><ele>446.0</ele><time>2026-04-26T13:32:50.436Z</time></trkpt><trkpt lat="45.8549673" lon="14.264002"><ele>445.3333333333333</ele><time>2026-04-26T13:32:51.436Z</time></trkpt><trkpt lat="45.8547768" lon="14.2638693"><ele>444.66666666666663</ele><time>2026-04-26T13:32:52.437Z</time></trkpt><trkpt lat="45.8545932" lon="14.2637061"><ele>444.0</ele><time>2026-04-26T13:32:53.436Z</time></trkpt><trkpt lat="45.8544114" lon="14.2635113"><ele>444.5</ele><time>2026-04-26T13:32:54.436Z</time></trkpt><trkpt lat="45.8542347" lon="14.2633"><ele>445.0</ele><time>2026-04-26T13:32:55.437Z</time></trkpt><trkpt lat="45.8540608" lon="14.2630614"><ele>445.0</ele><time>2026-04-26T13:32:56.436Z</time></trkpt><trkpt lat="45.8538943" lon="14.2628091"><ele>445.0</ele><time>2026-04-26T13:32:57.436Z</time></trkpt><trkpt lat="45.8537351" lon="14.2625427"><ele>445.0</ele><time>2026-04-26T13:32:58.436Z</time></trkpt><trkpt lat="45.8535831" lon="14.2622628"><ele>445.0</ele><time>2026-04-26T13:32:59.436Z</time></trkpt><trkpt lat="45.8534367" lon="14.2619961"><ele>445.0</ele><time>2026-04-26T13:33:00.436Z</time></trkpt><trkpt lat="45.8532955" lon="14.261747"><ele>445.0</ele><time>2026-04-26T13:33:01.436Z</time></trkpt><trkpt lat="45.8531602" lon="14.2615051"><ele>445.0</ele><time>2026-04-26T13:33:02.436Z</time></trkpt><trkpt lat="45.8530317" lon="14.2612736"><ele>445.33333333333337</ele><time>2026-04-26T13:33:03.436Z</time></trkpt><trkpt lat="45.8529105" lon="14.2610721"><ele>445.66666666666663</ele><time>2026-04-26T13:33:04.436Z</time></trkpt><trkpt lat="45.8527903" lon="14.2608913"><ele>446.0</ele><time>2026-04-26T13:33:05.436Z</time></trkpt><trkpt lat="45.8526565" lon="14.2607365"><ele>445.66666666666663</ele><time>2026-04-26T13:33:06.436Z</time></trkpt><trkpt lat="45.8525039" lon="14.2606303"><ele>445.33333333333337</ele><time>2026-04-26T13:33:07.437Z</time></trkpt><trkpt lat="45.852337" lon="14.260542"><ele>445.0</ele><time>2026-04-26T13:33:08.436Z</time></trkpt><trkpt lat="45.8521698" lon="14.260474"><ele>445.0</ele><time>2026-04-26T13:33:09.436Z</time></trkpt><trkpt lat="45.8520216" lon="14.2604195"><ele>445.0</ele><time>2026-04-26T13:33:10.437Z</time></trkpt><trkpt lat="45.8518948" lon="14.2603728"><ele>445.0</ele><time>2026-04-26T13:33:11.436Z</time></trkpt><trkpt lat="45.8517903" lon="14.2603117"><ele>445.0</ele><time>2026-04-26T13:33:12.436Z</time></trkpt><trkpt lat="45.8516864" lon="14.2602508"><ele>445.0</ele><time>2026-04-26T13:33:13.436Z</time></trkpt><trkpt lat="45.8515893" lon="14.260176"><ele>445.0</ele><time>2026-04-26T13:33:14.436Z</time></trkpt><trkpt lat="45.851489" lon="14.2600983"><ele>445.0</ele><time>2026-04-26T13:33:15.436Z</time></trkpt><trkpt lat="45.8513784" lon="14.2600129"><ele>445.0</ele><time>2026-04-26T13:33:16.436Z</time></trkpt><trkpt lat="45.8512677" lon="14.2599029"><ele>445.25</ele><time>2026-04-26T13:33:17.436Z</time></trkpt><trkpt lat="45.8511528" lon="14.2597817"><ele>445.5</ele><time>2026-04-26T13:33:18.437Z</time></trkpt><trkpt lat="45.85104" lon="14.2596543"><ele>445.75</ele><time>2026-04-26T13:33:19.436Z</time></trkpt><trkpt lat="45.8509177" lon="14.2595368"><ele>446.0</ele><time>2026-04-26T13:33:20.436Z</time></trkpt><trkpt lat="45.8507739" lon="14.2594256"><ele>446.0</ele><time>2026-04-26T13:33:21.436Z</time></trkpt><trkpt lat="45.8506261" lon="14.2593135"><ele>446.0</ele><time>2026-04-26T13:33:22.436Z</time></trkpt><trkpt lat="45.8504749" lon="14.2592147"><ele>446.0</ele><time>2026-04-26T13:33:23.436Z</time></trkpt><trkpt lat="45.85032" lon="14.259113"><ele>446.0</ele><time>2026-04-26T13:33:24.436Z</time></trkpt><trkpt lat="45.8501633" lon="14.2590136"><ele>446.0</ele><time>2026-04-26T13:33:25.436Z</time></trkpt><trkpt lat="45.8500029" lon="14.2589099"><ele>446.0</ele><time>2026-04-26T13:33:26.436Z</time></trkpt><trkpt lat="45.8498432" lon="14.258809"><ele>445.66666666666663</ele><time>2026-04-26T13:33:27.436Z</time></trkpt><trkpt lat="45.8496816" lon="14.2587105"><ele>445.33333333333337</ele><time>2026-04-26T13:33:28.436Z</time></trkpt><trkpt lat="45.8495159" lon="14.2585989"><ele>445.0</ele><time>2026-04-26T13:33:29.436Z</time></trkpt><trkpt lat="45.8493385" lon="14.2584943"><ele>445.0</ele><time>2026-04-26T13:33:30.436Z</time></trkpt><trkpt lat="45.84916" lon="14.2583774"><ele>445.0</ele><time>2026-04-26T13:33:31.436Z</time></trkpt><trkpt lat="45.8489863" lon="14.2582789"><ele>445.0</ele><time>2026-04-26T13:33:32.436Z</time></trkpt><trkpt lat="45.8488199" lon="14.2581806"><ele>445.0</ele><time>2026-04-26T13:33:33.436Z</time></trkpt><trkpt lat="45.8486517" lon="14.2580825"><ele>445.0</ele><time>2026-04-26T13:33:34.437Z</time></trkpt><trkpt lat="45.848485" lon="14.25798"><ele>445.0</ele><time>2026-04-26T13:33:35.436Z</time></trkpt><trkpt lat="45.848329" lon="14.2578897"><ele>445.33333333333337</ele><time>2026-04-26T13:33:36.436Z</time></trkpt><trkpt lat="45.8481804" lon="14.2578049"><ele>445.66666666666663</ele><time>2026-04-26T13:33:37.436Z</time></trkpt><trkpt lat="45.8480401" lon="14.2577227"><ele>446.0</ele><time>2026-04-26T13:33:38.437Z</time></trkpt><trkpt lat="45.8479037" lon="14.2576408"><ele>446.0</ele><time>2026-04-26T13:33:39.436Z</time></trkpt><trkpt lat="45.8477596" lon="14.2575521"><ele>446.0</ele><time>2026-04-26T13:33:40.436Z</time></trkpt><trkpt lat="45.8476051" lon="14.2574483"><ele>446.0</ele><time>2026-04-26T13:33:41.436Z</time></trkpt><trkpt lat="45.8474346" lon="14.2573469"><ele>445.3333333333333</ele><time>2026-04-26T13:33:42.436Z</time></trkpt><trkpt lat="45.8472571" lon="14.2572314"><ele>444.66666666666663</ele><time>2026-04-26T13:33:43.436Z</time></trkpt><trkpt lat="45.8470667" lon="14.2571006"><ele>444.0</ele><time>2026-04-26T13:33:44.436Z</time></trkpt><trkpt lat="45.8468759" lon="14.2569638"><ele>444.33333333333337</ele><time>2026-04-26T13:33:45.436Z</time></trkpt><trkpt lat="45.8466855" lon="14.2568296"><ele>444.6666666666667</ele><time>2026-04-26T13:33:46.436Z</time></trkpt><trkpt lat="45.8464897" lon="14.2566995"><ele>445.0</ele><time>2026-04-26T13:33:47.436Z</time></trkpt><trkpt lat="45.8462931" lon="14.2565748"><ele>445.0</ele><time>2026-04-26T13:33:48.436Z</time></trkpt><trkpt lat="45.8461094" lon="14.2564619"><ele>445.0</ele><time>2026-04-26T13:33:49.436Z</time></trkpt><trkpt lat="45.8459384" lon="14.2563539"><ele>445.0</ele><time>2026-04-26T13:33:50.436Z</time></trkpt><trkpt lat="45.8457729" lon="14.2562418"><ele>445.6666666666667</ele><time>2026-04-26T13:33:51.436Z</time></trkpt><trkpt lat="45.8456086" lon="14.2561376"><ele>446.33333333333337</ele><time>2026-04-26T13:33:52.436Z</time></trkpt><trkpt lat="45.845452" lon="14.256032"><ele>447.0</ele><time>2026-04-26T13:33:53.436Z</time></trkpt><trkpt lat="45.8452966" lon="14.2559353"><ele>447.0</ele><time>2026-04-26T13:33:54.437Z</time></trkpt><trkpt lat="45.8451474" lon="14.255839"><ele>447.0</ele><time>2026-04-26T13:33:55.436Z</time></trkpt><trkpt lat="45.8450061" lon="14.2557423"><ele>447.0</ele><time>2026-04-26T13:33:56.436Z</time></trkpt><trkpt lat="45.8448736" lon="14.2556544"><ele>447.0</ele><time>2026-04-26T13:33:57.436Z</time></trkpt><trkpt lat="45.8447387" lon="14.2555694"><ele>447.0</ele><time>2026-04-26T13:33:58.436Z</time></trkpt><trkpt lat="45.8446096" lon="14.2554893"><ele>447.0</ele><time>2026-04-26T13:33:59.436Z</time></trkpt><trkpt lat="45.8444801" lon="14.2554007"><ele>447.0</ele><time>2026-04-26T13:34:00.437Z</time></trkpt><trkpt lat="45.8443332" lon="14.2553004"><ele>447.0</ele><time>2026-04-26T13:34:01.436Z</time></trkpt><trkpt lat="45.8441667" lon="14.2551915"><ele>447.0</ele><time>2026-04-26T13:34:02.436Z</time></trkpt><trkpt lat="45.8439836" lon="14.2550684"><ele>447.0</ele><time>2026-04-26T13:34:03.437Z</time></trkpt><trkpt lat="45.8438049" lon="14.2549341"><ele>447.0</ele><time>2026-04-26T13:34:04.436Z</time></trkpt><trkpt lat="45.8436381" lon="14.2548216"><ele>447.0</ele><time>2026-04-26T13:34:05.436Z</time></trkpt><trkpt lat="45.8434777" lon="14.2547441"><ele>447.0</ele><time>2026-04-26T13:34:06.436Z</time></trkpt><trkpt lat="45.8433189" lon="14.2547308"><ele>448.0</ele><time>2026-04-26T13:34:07.436Z</time></trkpt><trkpt lat="45.843165" lon="14.2547797"><ele>449.0</ele><time>2026-04-26T13:34:08.436Z</time></trkpt><trkpt lat="45.8430019" lon="14.2549129"><ele>450.0</ele><time>2026-04-26T13:34:09.437Z</time></trkpt><trkpt lat="45.8428529" lon="14.2550529"><ele>450.0</ele><time>2026-04-26T13:34:10.436Z</time></trkpt><trkpt lat="45.8427118" lon="14.2551418"><ele>450.0</ele><time>2026-04-26T13:34:11.435Z</time></trkpt><trkpt lat="45.8425655" lon="14.2551966"><ele>450.0</ele><time>2026-04-26T13:34:12.436Z</time></trkpt><trkpt lat="45.8424474" lon="14.2552145"><ele>450.0</ele><time>2026-04-26T13:34:13.435Z</time></trkpt><trkpt lat="45.8423605" lon="14.2552159"><ele>450.0</ele><time>2026-04-26T13:34:14.436Z</time></trkpt><trkpt lat="45.842291" lon="14.2551774"><ele>450.0</ele><time>2026-04-26T13:34:15.435Z</time></trkpt><trkpt lat="45.8422397" lon="14.2551036"><ele>450.0</ele><time>2026-04-26T13:34:16.435Z</time></trkpt><trkpt lat="45.8421939" lon="14.2549955"><ele>450.0</ele><time>2026-04-26T13:34:17.435Z</time></trkpt><trkpt lat="45.8421596" lon="14.2548475"><ele>450.0</ele><time>2026-04-26T13:34:18.436Z</time></trkpt><trkpt lat="45.8421268" lon="14.2546866"><ele>451.0</ele><time>2026-04-26T13:34:19.435Z</time></trkpt><trkpt lat="45.8420915" lon="14.2545336"><ele>452.0</ele><time>2026-04-26T13:34:20.435Z</time></trkpt><trkpt lat="45.8420564" lon="14.2543974"><ele>453.0</ele><time>2026-04-26T13:34:21.435Z</time></trkpt><trkpt lat="45.842025" lon="14.254265"><ele>454.0</ele><time>2026-04-26T13:34:22.435Z</time></trkpt><trkpt lat="45.8419948" lon="14.2541391"><ele>455.0</ele><time>2026-04-26T13:34:23.436Z</time></trkpt><trkpt lat="45.8419687" lon="14.2540362"><ele>455.8333333333333</ele><time>2026-04-26T13:34:24.435Z</time></trkpt><trkpt lat="45.8419483" lon="14.2539428"><ele>456.66666666666663</ele><time>2026-04-26T13:34:26.435Z</time></trkpt><trkpt lat="45.841898" lon="14.2538849"><ele>457.5</ele><time>2026-04-26T13:34:28.435Z</time></trkpt><trkpt lat="45.8418296" lon="14.253863"><ele>458.33333333333337</ele><time>2026-04-26T13:34:29.436Z</time></trkpt><trkpt lat="45.8417429" lon="14.2538763"><ele>459.1666666666667</ele><time>2026-04-26T13:34:30.436Z</time></trkpt><trkpt lat="45.8416412" lon="14.2538996"><ele>460.0</ele><time>2026-04-26T13:34:31.435Z</time></trkpt><trkpt lat="45.8415235" lon="14.2539422"><ele>458.6666666666667</ele><time>2026-04-26T13:34:32.436Z</time></trkpt><trkpt lat="45.8413847" lon="14.2539712"><ele>457.33333333333337</ele><time>2026-04-26T13:34:33.436Z</time></trkpt><trkpt lat="45.8412426" lon="14.2540022"><ele>456.0</ele><time>2026-04-26T13:34:34.435Z</time></trkpt><trkpt lat="45.8410785" lon="14.2540386"><ele>456.66666666666663</ele><time>2026-04-26T13:34:35.435Z</time></trkpt><trkpt lat="45.8409027" lon="14.254073"><ele>457.3333333333333</ele><time>2026-04-26T13:34:36.436Z</time></trkpt><trkpt lat="45.8407193" lon="14.2541167"><ele>458.0</ele><time>2026-04-26T13:34:37.435Z</time></trkpt><trkpt lat="45.8405319" lon="14.2541624"><ele>458.0</ele><time>2026-04-26T13:34:38.435Z</time></trkpt><trkpt lat="45.8403391" lon="14.2542131"><ele>458.0</ele><time>2026-04-26T13:34:39.435Z</time></trkpt><trkpt lat="45.8401352" lon="14.2542546"><ele>458.0</ele><time>2026-04-26T13:34:40.435Z</time></trkpt><trkpt lat="45.8399317" lon="14.2542981"><ele>459.0</ele><time>2026-04-26T13:34:41.435Z</time></trkpt><trkpt lat="45.8397315" lon="14.2543369"><ele>460.0</ele><time>2026-04-26T13:34:42.435Z</time></trkpt><trkpt lat="45.8395316" lon="14.2543862"><ele>461.0</ele><time>2026-04-26T13:34:43.435Z</time></trkpt><trkpt lat="45.8393329" lon="14.2544291"><ele>460.3333333333333</ele><time>2026-04-26T13:34:44.435Z</time></trkpt><trkpt lat="45.8391345" lon="14.2544728"><ele>459.66666666666663</ele><time>2026-04-26T13:34:45.435Z</time></trkpt><trkpt lat="45.838939" lon="14.2545126"><ele>459.0</ele><time>2026-04-26T13:34:46.435Z</time></trkpt><trkpt lat="45.838753" lon="14.2545525"><ele>459.0</ele><time>2026-04-26T13:34:47.435Z</time></trkpt><trkpt lat="45.8385942" lon="14.254588"><ele>459.0</ele><time>2026-04-26T13:34:48.435Z</time></trkpt><trkpt lat="45.8384558" lon="14.2546324"><ele>459.0</ele><time>2026-04-26T13:34:49.435Z</time></trkpt><trkpt lat="45.8383291" lon="14.2546733"><ele>459.0</ele><time>2026-04-26T13:34:50.435Z</time></trkpt><trkpt lat="45.8382071" lon="14.2547095"><ele>459.33333333333337</ele><time>2026-04-26T13:34:51.435Z</time></trkpt><trkpt lat="45.8380697" lon="14.2547323"><ele>459.6666666666667</ele><time>2026-04-26T13:34:52.435Z</time></trkpt><trkpt lat="45.8379227" lon="14.254761"><ele>460.0</ele><time>2026-04-26T13:34:53.435Z</time></trkpt><trkpt lat="45.83776" lon="14.2548027"><ele>460.6666666666667</ele><time>2026-04-26T13:34:54.435Z</time></trkpt><trkpt lat="45.8375967" lon="14.2548498"><ele>461.33333333333337</ele><time>2026-04-26T13:34:55.435Z</time></trkpt><trkpt lat="45.8374163" lon="14.2548927"><ele>462.0</ele><time>2026-04-26T13:34:56.435Z</time></trkpt><trkpt lat="45.8372448" lon="14.2549304"><ele>462.0</ele><time>2026-04-26T13:34:57.435Z</time></trkpt><trkpt lat="45.8370817" lon="14.25496"><ele>462.0</ele><time>2026-04-26T13:34:58.435Z</time></trkpt><trkpt lat="45.8369246" lon="14.2549852"><ele>462.0</ele><time>2026-04-26T13:34:59.435Z</time></trkpt><trkpt lat="45.836783" lon="14.255008"><ele>462.5</ele><time>2026-04-26T13:35:00.435Z</time></trkpt><trkpt lat="45.8366461" lon="14.2550341"><ele>463.0</ele><time>2026-04-26T13:35:01.435Z</time></trkpt><trkpt lat="45.8365192" lon="14.2550648"><ele>463.5</ele><time>2026-04-26T13:35:02.435Z</time></trkpt><trkpt lat="45.8363985" lon="14.2551022"><ele>464.0</ele><time>2026-04-26T13:35:03.435Z</time></trkpt><trkpt lat="45.8362771" lon="14.2551439"><ele>464.0</ele><time>2026-04-26T13:35:04.435Z</time></trkpt><trkpt lat="45.8361521" lon="14.255207"><ele>464.0</ele><time>2026-04-26T13:35:05.435Z</time></trkpt><trkpt lat="45.8360275" lon="14.255301"><ele>464.0</ele><time>2026-04-26T13:35:06.435Z</time></trkpt><trkpt lat="45.835899" lon="14.2554226"><ele>464.0</ele><time>2026-04-26T13:35:07.435Z</time></trkpt><trkpt lat="45.8357677" lon="14.2555362"><ele>462.3333333333333</ele><time>2026-04-26T13:35:08.435Z</time></trkpt><trkpt lat="45.8356335" lon="14.2556514"><ele>460.66666666666663</ele><time>2026-04-26T13:35:09.435Z</time></trkpt><trkpt lat="45.8355027" lon="14.2557706"><ele>459.0</ele><time>2026-04-26T13:35:10.435Z</time></trkpt><trkpt lat="45.8353676" lon="14.2558962"><ele>459.0</ele><time>2026-04-26T13:35:11.435Z</time></trkpt><trkpt lat="45.8352311" lon="14.2560146"><ele>459.0</ele><time>2026-04-26T13:35:12.435Z</time></trkpt><trkpt lat="45.8350993" lon="14.2561267"><ele>459.0</ele><time>2026-04-26T13:35:13.435Z</time></trkpt><trkpt lat="45.8349671" lon="14.2562476"><ele>459.5</ele><time>2026-04-26T13:35:14.435Z</time></trkpt><trkpt lat="45.8348422" lon="14.2563625"><ele>460.0</ele><time>2026-04-26T13:35:15.435Z</time></trkpt><trkpt lat="45.8347223" lon="14.2564593"><ele>460.5</ele><time>2026-04-26T13:35:16.435Z</time></trkpt><trkpt lat="45.8346089" lon="14.2565437"><ele>461.0</ele><time>2026-04-26T13:35:17.436Z</time></trkpt><trkpt lat="45.8344892" lon="14.2566164"><ele>459.75</ele><time>2026-04-26T13:35:18.435Z</time></trkpt><trkpt lat="45.8343616" lon="14.2566467"><ele>458.5</ele><time>2026-04-26T13:35:19.435Z</time></trkpt><trkpt lat="45.8342204" lon="14.2566371"><ele>457.25</ele><time>2026-04-26T13:35:20.435Z</time></trkpt><trkpt lat="45.8340816" lon="14.256576"><ele>456.0</ele><time>2026-04-26T13:35:21.435Z</time></trkpt><trkpt lat="45.8339382" lon="14.2564866"><ele>458.66666666666663</ele><time>2026-04-26T13:35:22.436Z</time></trkpt><trkpt lat="45.8338179" lon="14.2563493"><ele>461.3333333333333</ele><time>2026-04-26T13:35:23.435Z</time></trkpt><trkpt lat="45.8337089" lon="14.2561447"><ele>464.0</ele><time>2026-04-26T13:35:24.435Z</time></trkpt><trkpt lat="45.8335983" lon="14.2559257"><ele>464.0</ele><time>2026-04-26T13:35:25.435Z</time></trkpt><trkpt lat="45.8334875" lon="14.2557031"><ele>464.0</ele><time>2026-04-26T13:35:26.435Z</time></trkpt><trkpt lat="45.8333742" lon="14.2554775"><ele>464.0</ele><time>2026-04-26T13:35:27.435Z</time></trkpt><trkpt lat="45.8332501" lon="14.2552613"><ele>465.3333333333333</ele><time>2026-04-26T13:35:28.435Z</time></trkpt><trkpt lat="45.8331084" lon="14.2550733"><ele>466.66666666666663</ele><time>2026-04-26T13:35:29.435Z</time></trkpt><trkpt lat="45.8329389" lon="14.2549134"><ele>468.0</ele><time>2026-04-26T13:35:30.435Z</time></trkpt><trkpt lat="45.8327456" lon="14.2547752"><ele>471.0</ele><time>2026-04-26T13:35:31.435Z</time></trkpt><trkpt lat="45.8325366" lon="14.2546316"><ele>474.0</ele><time>2026-04-26T13:35:32.436Z</time></trkpt><trkpt lat="45.8323263" lon="14.2544826"><ele>474.0</ele><time>2026-04-26T13:35:33.435Z</time></trkpt><trkpt lat="45.8321334" lon="14.2543162"><ele>474.0</ele><time>2026-04-26T13:35:34.435Z</time></trkpt><trkpt lat="45.8319592" lon="14.254147"><ele>474.0</ele><time>2026-04-26T13:35:35.435Z</time></trkpt><trkpt lat="45.8317987" lon="14.2539828"><ele>474.0</ele><time>2026-04-26T13:35:36.435Z</time></trkpt><trkpt lat="45.8316405" lon="14.2538104"><ele>474.0</ele><time>2026-04-26T13:35:37.435Z</time></trkpt><trkpt lat="45.8314923" lon="14.2536232"><ele>474.0</ele><time>2026-04-26T13:35:38.435Z</time></trkpt><trkpt lat="45.8313527" lon="14.2534255"><ele>474.0</ele><time>2026-04-26T13:35:39.435Z</time></trkpt><trkpt lat="45.831212" lon="14.2532231"><ele>474.0</ele><time>2026-04-26T13:35:40.435Z</time></trkpt><trkpt lat="45.8310709" lon="14.2530258"><ele>474.0</ele><time>2026-04-26T13:35:41.435Z</time></trkpt><trkpt lat="45.8309399" lon="14.2528246"><ele>474.33333333333337</ele><time>2026-04-26T13:35:42.435Z</time></trkpt><trkpt lat="45.8308211" lon="14.2526083"><ele>474.6666666666667</ele><time>2026-04-26T13:35:43.435Z</time></trkpt><trkpt lat="45.8307116" lon="14.2523805"><ele>475.0</ele><time>2026-04-26T13:35:44.435Z</time></trkpt><trkpt lat="45.8306218" lon="14.2521499"><ele>475.0</ele><time>2026-04-26T13:35:45.435Z</time></trkpt><trkpt lat="45.8305454" lon="14.2519331"><ele>475.0</ele><time>2026-04-26T13:35:46.435Z</time></trkpt><trkpt lat="45.8304747" lon="14.2517259"><ele>475.0</ele><time>2026-04-26T13:35:47.435Z</time></trkpt><trkpt lat="45.8304138" lon="14.2515245"><ele>476.25</ele><time>2026-04-26T13:35:48.435Z</time></trkpt><trkpt lat="45.8303523" lon="14.25134"><ele>477.5</ele><time>2026-04-26T13:35:49.435Z</time></trkpt><trkpt lat="45.8302959" lon="14.2511678"><ele>478.75</ele><time>2026-04-26T13:35:50.435Z</time></trkpt><trkpt lat="45.830234" lon="14.2510103"><ele>480.0</ele><time>2026-04-26T13:35:51.435Z</time></trkpt><trkpt lat="45.830171" lon="14.2508626"><ele>475.75</ele><time>2026-04-26T13:35:52.435Z</time></trkpt><trkpt lat="45.8301037" lon="14.2507212"><ele>471.5</ele><time>2026-04-26T13:35:53.435Z</time></trkpt><trkpt lat="45.8300245" lon="14.2505884"><ele>467.25</ele><time>2026-04-26T13:35:54.435Z</time></trkpt><trkpt lat="45.8299288" lon="14.2504831"><ele>463.0</ele><time>2026-04-26T13:35:55.435Z</time></trkpt><trkpt lat="45.8298126" lon="14.2503994"><ele>463.0</ele><time>2026-04-26T13:35:56.435Z</time></trkpt><trkpt lat="45.8296847" lon="14.2503485"><ele>463.0</ele><time>2026-04-26T13:35:57.435Z</time></trkpt><trkpt lat="45.8295517" lon="14.2503223"><ele>463.0</ele><time>2026-04-26T13:35:58.435Z</time></trkpt><trkpt lat="45.8294016" lon="14.2503011"><ele>463.0</ele><time>2026-04-26T13:35:59.435Z</time></trkpt><trkpt lat="45.8292553" lon="14.2502702"><ele>463.0</ele><time>2026-04-26T13:36:00.435Z</time></trkpt><trkpt lat="45.8291034" lon="14.2502432"><ele>463.0</ele><time>2026-04-26T13:36:01.435Z</time></trkpt><trkpt lat="45.828947" lon="14.2502095"><ele>463.0</ele><time>2026-04-26T13:36:02.436Z</time></trkpt><trkpt lat="45.8287859" lon="14.2501882"><ele>463.0</ele><time>2026-04-26T13:36:03.435Z</time></trkpt><trkpt lat="45.828618" lon="14.2501644"><ele>463.0</ele><time>2026-04-26T13:36:04.435Z</time></trkpt><trkpt lat="45.8284484" lon="14.2501385"><ele>463.0</ele><time>2026-04-26T13:36:05.436Z</time></trkpt><trkpt lat="45.8282762" lon="14.250109"><ele>464.33333333333337</ele><time>2026-04-26T13:36:06.436Z</time></trkpt><trkpt lat="45.828104" lon="14.2500886"><ele>465.66666666666663</ele><time>2026-04-26T13:36:07.435Z</time></trkpt><trkpt lat="45.8279312" lon="14.2500592"><ele>467.0</ele><time>2026-04-26T13:36:08.436Z</time></trkpt><trkpt lat="45.8277602" lon="14.2500346"><ele>465.3333333333333</ele><time>2026-04-26T13:36:09.435Z</time></trkpt><trkpt lat="45.8275889" lon="14.2500001"><ele>463.66666666666663</ele><time>2026-04-26T13:36:10.436Z</time></trkpt><trkpt lat="45.8274234" lon="14.2499551"><ele>462.0</ele><time>2026-04-26T13:36:11.436Z</time></trkpt><trkpt lat="45.8272706" lon="14.2498836"><ele>467.0</ele><time>2026-04-26T13:36:12.435Z</time></trkpt><trkpt lat="45.8271183" lon="14.2497583"><ele>472.0</ele><time>2026-04-26T13:36:13.435Z</time></trkpt><trkpt lat="45.8269738" lon="14.2496181"><ele>477.0</ele><time>2026-04-26T13:36:14.435Z</time></trkpt><trkpt lat="45.8268353" lon="14.2494734"><ele>473.33333333333337</ele><time>2026-04-26T13:36:15.435Z</time></trkpt><trkpt lat="45.8267024" lon="14.2493288"><ele>469.6666666666667</ele><time>2026-04-26T13:36:16.436Z</time></trkpt><trkpt lat="45.8265755" lon="14.2491846"><ele>466.0</ele><time>2026-04-26T13:36:17.435Z</time></trkpt><trkpt lat="45.8264621" lon="14.249031"><ele>468.75</ele><time>2026-04-26T13:36:18.435Z</time></trkpt><trkpt lat="45.8263678" lon="14.2488588"><ele>471.5</ele><time>2026-04-26T13:36:19.435Z</time></trkpt><trkpt lat="45.8262783" lon="14.2486879"><ele>474.25</ele><time>2026-04-26T13:36:20.436Z</time></trkpt><trkpt lat="45.8262053" lon="14.2485143"><ele>477.0</ele><time>2026-04-26T13:36:21.435Z</time></trkpt><trkpt lat="45.8261375" lon="14.248355"><ele>477.0</ele><time>2026-04-26T13:36:22.435Z</time></trkpt><trkpt lat="45.8260675" lon="14.2481961"><ele>477.0</ele><time>2026-04-26T13:36:23.435Z</time></trkpt><trkpt lat="45.825999" lon="14.2480439"><ele>477.0</ele><time>2026-04-26T13:36:24.436Z</time></trkpt><trkpt lat="45.8259412" lon="14.2478883"><ele>477.0</ele><time>2026-04-26T13:36:25.435Z</time></trkpt><trkpt lat="45.8258921" lon="14.2477387"><ele>475.25</ele><time>2026-04-26T13:36:26.435Z</time></trkpt><trkpt lat="45.8258589" lon="14.247586"><ele>473.5</ele><time>2026-04-26T13:36:27.435Z</time></trkpt><trkpt lat="45.825853" lon="14.2474314"><ele>471.75</ele><time>2026-04-26T13:36:28.435Z</time></trkpt><trkpt lat="45.8258626" lon="14.2472593"><ele>470.0</ele><time>2026-04-26T13:36:29.435Z</time></trkpt><trkpt lat="45.825882" lon="14.2470894"><ele>470.0</ele><time>2026-04-26T13:36:30.435Z</time></trkpt><trkpt lat="45.825905" lon="14.246945"><ele>470.0</ele><time>2026-04-26T13:36:31.435Z</time></trkpt><trkpt lat="45.825914" lon="14.2468051"><ele>470.0</ele><time>2026-04-26T13:36:32.435Z</time></trkpt><trkpt lat="45.8259206" lon="14.2466741"><ele>470.0</ele><time>2026-04-26T13:36:33.435Z</time></trkpt><trkpt lat="45.8259323" lon="14.2465419"><ele>470.0</ele><time>2026-04-26T13:36:34.436Z</time></trkpt><trkpt lat="45.8259229" lon="14.2464163"><ele>470.4</ele><time>2026-04-26T13:36:35.435Z</time></trkpt><trkpt lat="45.8259048" lon="14.2462932"><ele>470.8</ele><time>2026-04-26T13:36:36.435Z</time></trkpt><trkpt lat="45.8258716" lon="14.246168"><ele>471.20000000000005</ele><time>2026-04-26T13:36:37.435Z</time></trkpt><trkpt lat="45.8258176" lon="14.2460612"><ele>471.6</ele><time>2026-04-26T13:36:38.435Z</time></trkpt><trkpt lat="45.8257291" lon="14.245979"><ele>472.0</ele><time>2026-04-26T13:36:39.435Z</time></trkpt><trkpt lat="45.8256255" lon="14.2459177"><ele>472.0</ele><time>2026-04-26T13:36:40.435Z</time></trkpt><trkpt lat="45.8255112" lon="14.2458725"><ele>472.00000000000006</ele><time>2026-04-26T13:36:41.435Z</time></trkpt><trkpt lat="45.8253992" lon="14.2458378"><ele>472.00000000000006</ele><time>2026-04-26T13:36:42.435Z</time></trkpt><trkpt lat="45.8252974" lon="14.2457896"><ele>472.0</ele><time>2026-04-26T13:36:43.435Z</time></trkpt><trkpt lat="45.8252099" lon="14.2457302"><ele>472.0</ele><time>2026-04-26T13:36:44.435Z</time></trkpt><trkpt lat="45.8251299" lon="14.245637"><ele>471.25</ele><time>2026-04-26T13:36:45.435Z</time></trkpt><trkpt lat="45.825045" lon="14.2455324"><ele>470.5</ele><time>2026-04-26T13:36:46.435Z</time></trkpt><trkpt lat="45.8249555" lon="14.2454271"><ele>469.75</ele><time>2026-04-26T13:36:47.435Z</time></trkpt><trkpt lat="45.8248551" lon="14.2453592"><ele>469.0</ele><time>2026-04-26T13:36:48.435Z</time></trkpt><trkpt lat="45.8247219" lon="14.2453497"><ele>469.0</ele><time>2026-04-26T13:36:49.435Z</time></trkpt><trkpt lat="45.8245863" lon="14.2453845"><ele>469.0</ele><time>2026-04-26T13:36:50.435Z</time></trkpt><trkpt lat="45.8244512" lon="14.2454431"><ele>469.0</ele><time>2026-04-26T13:36:51.435Z</time></trkpt><trkpt lat="45.8243078" lon="14.2454905"><ele>469.0</ele><time>2026-04-26T13:36:52.435Z</time></trkpt><trkpt lat="45.8241713" lon="14.2455057"><ele>471.0</ele><time>2026-04-26T13:36:53.435Z</time></trkpt><trkpt lat="45.8240509" lon="14.2454988"><ele>473.0</ele><time>2026-04-26T13:36:54.435Z</time></trkpt><trkpt lat="45.8239335" lon="14.2454437"><ele>475.0</ele><time>2026-04-26T13:36:55.435Z</time></trkpt><trkpt lat="45.8238116" lon="14.2453707"><ele>477.0</ele><time>2026-04-26T13:36:56.435Z</time></trkpt><trkpt lat="45.8236835" lon="14.2452963"><ele>477.0</ele><time>2026-04-26T13:36:57.435Z</time></trkpt><trkpt lat="45.8235576" lon="14.2452359"><ele>477.0</ele><time>2026-04-26T13:36:58.435Z</time></trkpt><trkpt lat="45.8234372" lon="14.2451825"><ele>477.0</ele><time>2026-04-26T13:36:59.436Z</time></trkpt><trkpt lat="45.8233134" lon="14.2451219"><ele>477.0</ele><time>2026-04-26T13:37:00.435Z</time></trkpt><trkpt lat="45.8231858" lon="14.2450637"><ele>477.75</ele><time>2026-04-26T13:37:01.435Z</time></trkpt><trkpt lat="45.8230567" lon="14.2450022"><ele>478.5</ele><time>2026-04-26T13:37:02.436Z</time></trkpt><trkpt lat="45.8229259" lon="14.2449404"><ele>479.25</ele><time>2026-04-26T13:37:03.435Z</time></trkpt><trkpt lat="45.8227975" lon="14.2448722"><ele>480.0</ele><time>2026-04-26T13:37:04.435Z</time></trkpt><trkpt lat="45.8226715" lon="14.2447883"><ele>481.75</ele><time>2026-04-26T13:37:05.435Z</time></trkpt><trkpt lat="45.822569" lon="14.2446833"><ele>483.5</ele><time>2026-04-26T13:37:06.435Z</time></trkpt><trkpt lat="45.8224748" lon="14.2445606"><ele>485.25</ele><time>2026-04-26T13:37:07.435Z</time></trkpt><trkpt lat="45.8223929" lon="14.2444238"><ele>487.0</ele><time>2026-04-26T13:37:08.436Z</time></trkpt><trkpt lat="45.8223221" lon="14.2442551"><ele>487.0</ele><time>2026-04-26T13:37:09.435Z</time></trkpt><trkpt lat="45.8222671" lon="14.2440607"><ele>487.0</ele><time>2026-04-26T13:37:10.435Z</time></trkpt><trkpt lat="45.8222116" lon="14.2438633"><ele>487.0</ele><time>2026-04-26T13:37:11.435Z</time></trkpt><trkpt lat="45.8221228" lon="14.2436791"><ele>487.33333333333337</ele><time>2026-04-26T13:37:12.435Z</time></trkpt><trkpt lat="45.8219929" lon="14.2435152"><ele>487.66666666666663</ele><time>2026-04-26T13:37:13.435Z</time></trkpt><trkpt lat="45.8218423" lon="14.2433472"><ele>488.0</ele><time>2026-04-26T13:37:14.435Z</time></trkpt><trkpt lat="45.8216902" lon="14.2431983"><ele>488.66666666666663</ele><time>2026-04-26T13:37:15.435Z</time></trkpt><trkpt lat="45.8215365" lon="14.243047"><ele>489.33333333333337</ele><time>2026-04-26T13:37:16.435Z</time></trkpt><trkpt lat="45.8213919" lon="14.2429063"><ele>490.0</ele><time>2026-04-26T13:37:17.435Z</time></trkpt><trkpt lat="45.8212467" lon="14.2428165"><ele>490.0</ele><time>2026-04-26T13:37:18.435Z</time></trkpt><trkpt lat="45.8210961" lon="14.242774"><ele>490.0</ele><time>2026-04-26T13:37:19.435Z</time></trkpt><trkpt lat="45.8209582" lon="14.2427774"><ele>490.0</ele><time>2026-04-26T13:37:20.435Z</time></trkpt><trkpt lat="45.8208212" lon="14.2428076"><ele>490.0</ele><time>2026-04-26T13:37:21.435Z</time></trkpt><trkpt lat="45.8207347" lon="14.2428118"><ele>493.0</ele><time>2026-04-26T13:37:22.436Z</time></trkpt><trkpt lat="45.8206556" lon="14.242737"><ele>496.0</ele><time>2026-04-26T13:37:23.436Z</time></trkpt><trkpt lat="45.8205986" lon="14.2426256"><ele>499.0</ele><time>2026-04-26T13:37:24.435Z</time></trkpt><trkpt lat="45.8206029" lon="14.2424365"><ele>502.0</ele><time>2026-04-26T13:37:25.435Z</time></trkpt><trkpt lat="45.8206614" lon="14.2422362"><ele>502.33333333333337</ele><time>2026-04-26T13:37:26.435Z</time></trkpt><trkpt lat="45.8207677" lon="14.2419918"><ele>502.66666666666663</ele><time>2026-04-26T13:37:27.435Z</time></trkpt><trkpt lat="45.8208902" lon="14.2417106"><ele>503.0</ele><time>2026-04-26T13:37:28.435Z</time></trkpt><trkpt lat="45.8210464" lon="14.2414414"><ele>499.0</ele><time>2026-04-26T13:37:29.435Z</time></trkpt><trkpt lat="45.8211844" lon="14.2411872"><ele>495.0</ele><time>2026-04-26T13:37:30.436Z</time></trkpt><trkpt lat="45.8212739" lon="14.2409524"><ele>491.0</ele><time>2026-04-26T13:37:31.435Z</time></trkpt><trkpt lat="45.8213383" lon="14.2407225"><ele>492.66666666666663</ele><time>2026-04-26T13:37:32.436Z</time></trkpt><trkpt lat="45.8213496" lon="14.240516"><ele>494.33333333333337</ele><time>2026-04-26T13:37:33.435Z</time></trkpt><trkpt lat="45.8212933" lon="14.2403077"><ele>496.0</ele><time>2026-04-26T13:37:34.435Z</time></trkpt><trkpt lat="45.8211933" lon="14.2400775"><ele>496.0</ele><time>2026-04-26T13:37:35.435Z</time></trkpt><trkpt lat="45.8210606" lon="14.2399019"><ele>496.0</ele><time>2026-04-26T13:37:36.435Z</time></trkpt><trkpt lat="45.8209225" lon="14.2397666"><ele>496.0</ele><time>2026-04-26T13:37:37.435Z</time></trkpt><trkpt lat="45.8207656" lon="14.2396573"><ele>498.5</ele><time>2026-04-26T13:37:38.435Z</time></trkpt><trkpt lat="45.8206211" lon="14.2395747"><ele>501.0</ele><time>2026-04-26T13:37:39.435Z</time></trkpt><trkpt lat="45.820523" lon="14.2394875"><ele>503.5</ele><time>2026-04-26T13:37:40.435Z</time></trkpt><trkpt lat="45.8204706" lon="14.2393818"><ele>506.0</ele><time>2026-04-26T13:37:41.436Z</time></trkpt><trkpt lat="45.8204616" lon="14.239224"><ele>506.0</ele><time>2026-04-26T13:37:42.435Z</time></trkpt><trkpt lat="45.820493" lon="14.2390888"><ele>506.0</ele><time>2026-04-26T13:37:43.436Z</time></trkpt><trkpt lat="45.8205476" lon="14.2389509"><ele>506.0</ele><time>2026-04-26T13:37:44.435Z</time></trkpt><trkpt lat="45.8205811" lon="14.2387998"><ele>506.0</ele><time>2026-04-26T13:37:45.435Z</time></trkpt><trkpt lat="45.8205322" lon="14.238649"><ele>506.0</ele><time>2026-04-26T13:37:46.435Z</time></trkpt><trkpt lat="45.8204362" lon="14.2384614"><ele>506.75</ele><time>2026-04-26T13:37:47.435Z</time></trkpt><trkpt lat="45.8203122" lon="14.2382962"><ele>507.5</ele><time>2026-04-26T13:37:48.435Z</time></trkpt><trkpt lat="45.8202038" lon="14.238158"><ele>508.25</ele><time>2026-04-26T13:37:49.436Z</time></trkpt><trkpt lat="45.8201383" lon="14.2380246"><ele>509.0</ele><time>2026-04-26T13:37:50.435Z</time></trkpt><trkpt lat="45.8201167" lon="14.2378684"><ele>510.25</ele><time>2026-04-26T13:37:51.435Z</time></trkpt><trkpt lat="45.8201614" lon="14.2377394"><ele>511.5</ele><time>2026-04-26T13:37:52.435Z</time></trkpt><trkpt lat="45.8202464" lon="14.2376331"><ele>512.75</ele><time>2026-04-26T13:37:53.436Z</time></trkpt><trkpt lat="45.8203808" lon="14.2375242"><ele>514.0</ele><time>2026-04-26T13:37:54.435Z</time></trkpt><trkpt lat="45.8205552" lon="14.2374122"><ele>517.6666666666667</ele><time>2026-04-26T13:37:55.435Z</time></trkpt><trkpt lat="45.8207416" lon="14.2372998"><ele>521.3333333333334</ele><time>2026-04-26T13:37:56.436Z</time></trkpt><trkpt lat="45.820958" lon="14.2371388"><ele>525.0</ele><time>2026-04-26T13:37:57.436Z</time></trkpt><trkpt lat="45.8211509" lon="14.2369608"><ele>525.3333333333334</ele><time>2026-04-26T13:37:58.436Z</time></trkpt><trkpt lat="45.8212884" lon="14.2367856"><ele>525.6666666666667</ele><time>2026-04-26T13:37:59.435Z</time></trkpt><trkpt lat="45.8213914" lon="14.2366313"><ele>526.0</ele><time>2026-04-26T13:38:00.435Z</time></trkpt><trkpt lat="45.8214507" lon="14.2364746"><ele>527.5</ele><time>2026-04-26T13:38:01.436Z</time></trkpt><trkpt lat="45.8214471" lon="14.2363261"><ele>529.0</ele><time>2026-04-26T13:38:02.435Z</time></trkpt><trkpt lat="45.8213818" lon="14.2361854"><ele>530.5</ele><time>2026-04-26T13:38:03.435Z</time></trkpt><trkpt lat="45.8212797" lon="14.2361013"><ele>532.0</ele><time>2026-04-26T13:38:04.435Z</time></trkpt><trkpt lat="45.8211497" lon="14.2360948"><ele>532.0</ele><time>2026-04-26T13:38:05.435Z</time></trkpt><trkpt lat="45.820996" lon="14.2361471"><ele>532.0</ele><time>2026-04-26T13:38:06.435Z</time></trkpt><trkpt lat="45.8208019" lon="14.2362196"><ele>532.0</ele><time>2026-04-26T13:38:07.435Z</time></trkpt><trkpt lat="45.8205712" lon="14.2362676"><ele>536.5</ele><time>2026-04-26T13:38:08.435Z</time></trkpt><trkpt lat="45.8203093" lon="14.2362982"><ele>541.0</ele><time>2026-04-26T13:38:09.435Z</time></trkpt><trkpt lat="45.8200383" lon="14.2363372"><ele>544.0</ele><time>2026-04-26T13:38:10.435Z</time></trkpt><trkpt lat="45.8197867" lon="14.2364002"><ele>547.0</ele><time>2026-04-26T13:38:11.435Z</time></trkpt><trkpt lat="45.819584" lon="14.2364378"><ele>543.6666666666667</ele><time>2026-04-26T13:38:12.436Z</time></trkpt><trkpt lat="45.8194247" lon="14.2365359"><ele>540.3333333333334</ele><time>2026-04-26T13:38:13.435Z</time></trkpt><trkpt lat="45.8193077" lon="14.2366759"><ele>537.0</ele><time>2026-04-26T13:38:14.435Z</time></trkpt><trkpt lat="45.8192076" lon="14.2368399"><ele>537.0</ele><time>2026-04-26T13:38:15.435Z</time></trkpt><trkpt lat="45.8191106" lon="14.2369669"><ele>537.0</ele><time>2026-04-26T13:38:16.436Z</time></trkpt><trkpt lat="45.8190132" lon="14.2369845"><ele>537.0</ele><time>2026-04-26T13:38:17.435Z</time></trkpt><trkpt lat="45.8189007" lon="14.2368948"><ele>537.0</ele><time>2026-04-26T13:38:18.435Z</time></trkpt><trkpt lat="45.8188544" lon="14.2367334"><ele>537.0</ele><time>2026-04-26T13:38:19.435Z</time></trkpt><trkpt lat="45.8188801" lon="14.236565"><ele>537.0</ele><time>2026-04-26T13:38:20.435Z</time></trkpt><trkpt lat="45.8189588" lon="14.236414"><ele>537.0</ele><time>2026-04-26T13:38:21.435Z</time></trkpt><trkpt lat="45.819101" lon="14.2363048"><ele>537.0</ele><time>2026-04-26T13:38:22.436Z</time></trkpt><trkpt lat="45.8192893" lon="14.2362517"><ele>542.0</ele><time>2026-04-26T13:38:23.435Z</time></trkpt><trkpt lat="45.819513" lon="14.2362052"><ele>547.0</ele><time>2026-04-26T13:38:24.436Z</time></trkpt><trkpt lat="45.8197555" lon="14.2361382"><ele>547.0</ele><time>2026-04-26T13:38:25.435Z</time></trkpt><trkpt lat="45.8200244" lon="14.2360512"><ele>547.0</ele><time>2026-04-26T13:38:26.435Z</time></trkpt><trkpt lat="45.820311" lon="14.235948"><ele>544.0</ele><time>2026-04-26T13:38:27.435Z</time></trkpt><trkpt lat="45.8205534" lon="14.2358636"><ele>541.0</ele><time>2026-04-26T13:38:28.435Z</time></trkpt><trkpt lat="45.8207549" lon="14.2358073"><ele>541.0</ele><time>2026-04-26T13:38:29.435Z</time></trkpt><trkpt lat="45.8209049" lon="14.235765"><ele>541.0</ele><time>2026-04-26T13:38:30.435Z</time></trkpt><trkpt lat="45.8210312" lon="14.2356772"><ele>541.0</ele><time>2026-04-26T13:38:31.435Z</time></trkpt><trkpt lat="45.8211246" lon="14.2355098"><ele>541.0</ele><time>2026-04-26T13:38:32.435Z</time></trkpt><trkpt lat="45.8211763" lon="14.2353136"><ele>540.3333333333334</ele><time>2026-04-26T13:38:33.435Z</time></trkpt><trkpt lat="45.8211684" lon="14.2350475"><ele>539.6666666666666</ele><time>2026-04-26T13:38:34.435Z</time></trkpt><trkpt lat="45.8211077" lon="14.2348375"><ele>539.0</ele><time>2026-04-26T13:38:35.436Z</time></trkpt><trkpt lat="45.8209833" lon="14.234712"><ele>543.0</ele><time>2026-04-26T13:38:36.435Z</time></trkpt><trkpt lat="45.8208519" lon="14.2346758"><ele>547.0</ele><time>2026-04-26T13:38:37.435Z</time></trkpt><trkpt lat="45.8207359" lon="14.23475"><ele>551.0</ele><time>2026-04-26T13:38:38.435Z</time></trkpt><trkpt lat="45.8206259" lon="14.2348676"><ele>555.0</ele><time>2026-04-26T13:38:39.435Z</time></trkpt><trkpt lat="45.8205363" lon="14.2350494"><ele>555.0</ele><time>2026-04-26T13:38:40.435Z</time></trkpt><trkpt lat="45.82043" lon="14.2352056"><ele>555.0</ele><time>2026-04-26T13:38:41.435Z</time></trkpt><trkpt lat="45.8203253" lon="14.2353084"><ele>555.0</ele><time>2026-04-26T13:38:42.435Z</time></trkpt><trkpt lat="45.820205" lon="14.2353727"><ele>555.0</ele><time>2026-04-26T13:38:43.436Z</time></trkpt><trkpt lat="45.8200933" lon="14.235393"><ele>558.25</ele><time>2026-04-26T13:38:44.435Z</time></trkpt><trkpt lat="45.8199685" lon="14.2354002"><ele>561.5</ele><time>2026-04-26T13:38:45.435Z</time></trkpt><trkpt lat="45.8198396" lon="14.2353633"><ele>564.75</ele><time>2026-04-26T13:38:46.435Z</time></trkpt><trkpt lat="45.8196938" lon="14.2353146"><ele>568.0</ele><time>2026-04-26T13:38:47.435Z</time></trkpt><trkpt lat="45.819533" lon="14.2352407"><ele>568.0</ele><time>2026-04-26T13:38:48.435Z</time></trkpt><trkpt lat="45.8193621" lon="14.2351515"><ele>568.0</ele><time>2026-04-26T13:38:49.435Z</time></trkpt><trkpt lat="45.819184" lon="14.2350558"><ele>568.0</ele><time>2026-04-26T13:38:50.435Z</time></trkpt><trkpt lat="45.8189962" lon="14.2349478"><ele>567.3333333333334</ele><time>2026-04-26T13:38:51.435Z</time></trkpt><trkpt lat="45.8187992" lon="14.234827"><ele>566.6666666666666</ele><time>2026-04-26T13:38:52.436Z</time></trkpt><trkpt lat="45.8185839" lon="14.2347033"><ele>566.0</ele><time>2026-04-26T13:38:53.435Z</time></trkpt><trkpt lat="45.8183682" lon="14.2345899"><ele>574.0</ele><time>2026-04-26T13:38:54.435Z</time></trkpt><trkpt lat="45.8181538" lon="14.2344799"><ele>582.0</ele><time>2026-04-26T13:38:55.435Z</time></trkpt><trkpt lat="45.8179356" lon="14.2343798"><ele>582.0</ele><time>2026-04-26T13:38:56.435Z</time></trkpt><trkpt lat="45.8176998" lon="14.234309"><ele>582.0</ele><time>2026-04-26T13:38:57.435Z</time></trkpt><trkpt lat="45.8174523" lon="14.2342669"><ele>579.5</ele><time>2026-04-26T13:38:58.436Z</time></trkpt><trkpt lat="45.8171856" lon="14.2342361"><ele>577.0</ele><time>2026-04-26T13:38:59.435Z</time></trkpt><trkpt lat="45.8169351" lon="14.2342156"><ele>577.0</ele><time>2026-04-26T13:39:00.436Z</time></trkpt><trkpt lat="45.8167185" lon="14.2341997"><ele>577.0</ele><time>2026-04-26T13:39:01.436Z</time></trkpt><trkpt lat="45.8165361" lon="14.2341983"><ele>577.0</ele><time>2026-04-26T13:39:02.435Z</time></trkpt><trkpt lat="45.8163799" lon="14.2342218"><ele>577.0</ele><time>2026-04-26T13:39:03.435Z</time></trkpt><trkpt lat="45.8162405" lon="14.234302"><ele>577.0</ele><time>2026-04-26T13:39:04.435Z</time></trkpt><trkpt lat="45.8161656" lon="14.2345487"><ele>577.0</ele><time>2026-04-26T13:39:05.435Z</time></trkpt><trkpt lat="45.8161556" lon="14.2347963"><ele>576.2</ele><time>2026-04-26T13:39:06.435Z</time></trkpt><trkpt lat="45.8161596" lon="14.2349935"><ele>575.4000000000001</ele><time>2026-04-26T13:39:07.435Z</time></trkpt><trkpt lat="45.8161384" lon="14.2351052"><ele>574.5999999999999</ele><time>2026-04-26T13:39:08.435Z</time></trkpt><trkpt lat="45.8160664" lon="14.2351355"><ele>573.8</ele><time>2026-04-26T13:39:09.435Z</time></trkpt><trkpt lat="45.8159904" lon="14.2351034"><ele>573.0</ele><time>2026-04-26T13:39:10.435Z</time></trkpt><trkpt lat="45.8159423" lon="14.2349916"><ele>577.75</ele><time>2026-04-26T13:39:11.435Z</time></trkpt><trkpt lat="45.8159201" lon="14.2348037"><ele>582.5</ele><time>2026-04-26T13:39:12.435Z</time></trkpt><trkpt lat="45.8159114" lon="14.2345811"><ele>587.25</ele><time>2026-04-26T13:39:13.436Z</time></trkpt><trkpt lat="45.8159039" lon="14.234353"><ele>592.0</ele><time>2026-04-26T13:39:14.435Z</time></trkpt><trkpt lat="45.8159422" lon="14.2341766"><ele>595.25</ele><time>2026-04-26T13:39:15.435Z</time></trkpt><trkpt lat="45.8160561" lon="14.2340564"><ele>598.5</ele><time>2026-04-26T13:39:16.435Z</time></trkpt><trkpt lat="45.8161912" lon="14.2339929"><ele>601.75</ele><time>2026-04-26T13:39:17.435Z</time></trkpt><trkpt lat="45.816343" lon="14.2339807"><ele>605.0</ele><time>2026-04-26T13:39:18.435Z</time></trkpt><trkpt lat="45.8164617" lon="14.233957"><ele>605.0</ele><time>2026-04-26T13:39:19.435Z</time></trkpt><trkpt lat="45.8165354" lon="14.2338862"><ele>605.0</ele><time>2026-04-26T13:39:20.435Z</time></trkpt><trkpt lat="45.8165479" lon="14.2337777"><ele>605.0</ele><time>2026-04-26T13:39:21.435Z</time></trkpt><trkpt lat="45.8165079" lon="14.2336813"><ele>605.0</ele><time>2026-04-26T13:39:22.435Z</time></trkpt><trkpt lat="45.8164094" lon="14.233628"><ele>605.0</ele><time>2026-04-26T13:39:23.435Z</time></trkpt><trkpt lat="45.8162881" lon="14.2336363"><ele>605.0</ele><time>2026-04-26T13:39:24.435Z</time></trkpt><trkpt lat="45.8161253" lon="14.2337183"><ele>605.0</ele><time>2026-04-26T13:39:25.436Z</time></trkpt><trkpt lat="45.8159225" lon="14.2338001"><ele>605.0</ele><time>2026-04-26T13:39:26.436Z</time></trkpt><trkpt lat="45.815694" lon="14.2338597"><ele>607.5</ele><time>2026-04-26T13:39:27.435Z</time></trkpt><trkpt lat="45.815449" lon="14.2339039"><ele>610.0</ele><time>2026-04-26T13:39:28.435Z</time></trkpt><trkpt lat="45.8152218" lon="14.2339244"><ele>611.0</ele><time>2026-04-26T13:39:29.435Z</time></trkpt><trkpt lat="45.8150228" lon="14.2339039"><ele>612.0</ele><time>2026-04-26T13:39:30.436Z</time></trkpt><trkpt lat="45.814848" lon="14.2338429"><ele>613.0</ele><time>2026-04-26T13:39:31.435Z</time></trkpt><trkpt lat="45.8146845" lon="14.2337581"><ele>613.0</ele><time>2026-04-26T13:39:32.435Z</time></trkpt><trkpt lat="45.8145169" lon="14.2336661"><ele>613.0</ele><time>2026-04-26T13:39:33.435Z</time></trkpt><trkpt lat="45.8143511" lon="14.2335442"><ele>613.0</ele><time>2026-04-26T13:39:34.435Z</time></trkpt><trkpt lat="45.8141852" lon="14.2333967"><ele>614.0</ele><time>2026-04-26T13:39:35.435Z</time></trkpt><trkpt lat="45.8140032" lon="14.2333017"><ele>615.0</ele><time>2026-04-26T13:39:36.435Z</time></trkpt><trkpt lat="45.8138078" lon="14.2332493"><ele>616.0</ele><time>2026-04-26T13:39:37.435Z</time></trkpt><trkpt lat="45.8136141" lon="14.233217"><ele>615.3333333333334</ele><time>2026-04-26T13:39:38.435Z</time></trkpt><trkpt lat="45.8134181" lon="14.2331987"><ele>614.6666666666666</ele><time>2026-04-26T13:39:39.435Z</time></trkpt><trkpt lat="45.8132312" lon="14.233199"><ele>614.0</ele><time>2026-04-26T13:39:40.435Z</time></trkpt><trkpt lat="45.8130582" lon="14.2332359"><ele>614.0</ele><time>2026-04-26T13:39:41.435Z</time></trkpt><trkpt lat="45.8129008" lon="14.2333161"><ele>614.0</ele><time>2026-04-26T13:39:42.435Z</time></trkpt><trkpt lat="45.812743" lon="14.2334633"><ele>614.0</ele><time>2026-04-26T13:39:43.435Z</time></trkpt><trkpt lat="45.8125961" lon="14.2336516"><ele>616.3333333333333</ele><time>2026-04-26T13:39:44.435Z</time></trkpt><trkpt lat="45.8124704" lon="14.2338311"><ele>618.6666666666666</ele><time>2026-04-26T13:39:45.435Z</time></trkpt><trkpt lat="45.8123432" lon="14.233944"><ele>621.0</ele><time>2026-04-26T13:39:46.435Z</time></trkpt><trkpt lat="45.8121614" lon="14.2339904"><ele>621.0</ele><time>2026-04-26T13:39:47.435Z</time></trkpt><trkpt lat="45.811947" lon="14.234014"><ele>621.0</ele><time>2026-04-26T13:39:48.435Z</time></trkpt><trkpt lat="45.8117213" lon="14.2340413"><ele>621.0</ele><time>2026-04-26T13:39:49.435Z</time></trkpt><trkpt lat="45.8115217" lon="14.2340556"><ele>621.6666666666666</ele><time>2026-04-26T13:39:50.435Z</time></trkpt><trkpt lat="45.8113402" lon="14.234009"><ele>622.3333333333333</ele><time>2026-04-26T13:39:51.435Z</time></trkpt><trkpt lat="45.8111871" lon="14.2339072"><ele>623.0</ele><time>2026-04-26T13:39:52.436Z</time></trkpt><trkpt lat="45.8110614" lon="14.2337665"><ele>622.6666666666666</ele><time>2026-04-26T13:39:53.435Z</time></trkpt><trkpt lat="45.8109622" lon="14.2335906"><ele>622.3333333333334</ele><time>2026-04-26T13:39:54.435Z</time></trkpt><trkpt lat="45.8108628" lon="14.2334145"><ele>622.0</ele><time>2026-04-26T13:39:55.435Z</time></trkpt><trkpt lat="45.8107594" lon="14.2332742"><ele>622.0</ele><time>2026-04-26T13:39:56.435Z</time></trkpt><trkpt lat="45.8106214" lon="14.2332043"><ele>622.0</ele><time>2026-04-26T13:39:57.435Z</time></trkpt><trkpt lat="45.8104861" lon="14.2331679"><ele>622.0</ele><time>2026-04-26T13:39:58.436Z</time></trkpt><trkpt lat="45.8103367" lon="14.2331886"><ele>622.0</ele><time>2026-04-26T13:39:59.435Z</time></trkpt><trkpt lat="45.8101596" lon="14.2332358"><ele>622.6666666666667</ele><time>2026-04-26T13:40:00.435Z</time></trkpt><trkpt lat="45.8099632" lon="14.2332605"><ele>623.3333333333334</ele><time>2026-04-26T13:40:01.435Z</time></trkpt><trkpt lat="45.809767" lon="14.2332384"><ele>624.0</ele><time>2026-04-26T13:40:02.435Z</time></trkpt><trkpt lat="45.8095793" lon="14.2332274"><ele>624.0</ele><time>2026-04-26T13:40:03.435Z</time></trkpt><trkpt lat="45.8093973" lon="14.2332678"><ele>624.0</ele><time>2026-04-26T13:40:04.435Z</time></trkpt><trkpt lat="45.8091934" lon="14.2333638"><ele>624.0</ele><time>2026-04-26T13:40:05.436Z</time></trkpt><trkpt lat="45.8090029" lon="14.2334705"><ele>625.6666666666666</ele><time>2026-04-26T13:40:06.436Z</time></trkpt><trkpt lat="45.8088192" lon="14.2335548"><ele>627.3333333333333</ele><time>2026-04-26T13:40:07.435Z</time></trkpt><trkpt lat="45.8086433" lon="14.233609"><ele>629.0</ele><time>2026-04-26T13:40:08.435Z</time></trkpt><trkpt lat="45.8084825" lon="14.2336366"><ele>629.0</ele><time>2026-04-26T13:40:09.435Z</time></trkpt><trkpt lat="45.8083272" lon="14.2336435"><ele>629.0</ele><time>2026-04-26T13:40:10.435Z</time></trkpt><trkpt lat="45.8081742" lon="14.2336456"><ele>629.0</ele><time>2026-04-26T13:40:11.435Z</time></trkpt><trkpt lat="45.8080292" lon="14.233643"><ele>629.0</ele><time>2026-04-26T13:40:12.435Z</time></trkpt><trkpt lat="45.807899" lon="14.2336541"><ele>629.0</ele><time>2026-04-26T13:40:13.435Z</time></trkpt><trkpt lat="45.8077985" lon="14.233655"><ele>629.0</ele><time>2026-04-26T13:40:14.436Z</time></trkpt><trkpt lat="45.8077258" lon="14.2336479"><ele>629.0</ele><time>2026-04-26T13:40:15.436Z</time></trkpt><trkpt lat="45.8076217" lon="14.2335948"><ele>629.0</ele><time>2026-04-26T13:40:17.435Z</time></trkpt><trkpt lat="45.8075312" lon="14.2335773"><ele>629.0</ele><time>2026-04-26T13:40:19.435Z</time></trkpt><trkpt lat="45.8074569" lon="14.2336"><ele>629.0</ele><time>2026-04-26T13:40:22.435Z</time></trkpt><trkpt lat="45.8074798" lon="14.2336973"><ele>629.0</ele><time>2026-04-26T13:41:55.435Z</time></trkpt><trkpt lat="45.8075566" lon="14.2337553"><ele>629.0</ele><time>2026-04-26T13:41:57.435Z</time></trkpt><trkpt lat="45.8076849" lon="14.2337379"><ele>629.0</ele><time>2026-04-26T13:41:59.435Z</time></trkpt><trkpt lat="45.807763" lon="14.2337311"><ele>629.0</ele><time>2026-04-26T13:42:00.436Z</time></trkpt><trkpt lat="45.8078422" lon="14.2337337"><ele>629.0</ele><time>2026-04-26T13:42:01.435Z</time></trkpt><trkpt lat="45.8079249" lon="14.2337321"><ele>629.0</ele><time>2026-04-26T13:42:02.435Z</time></trkpt><trkpt lat="45.8080294" lon="14.2337233"><ele>629.0</ele><time>2026-04-26T13:42:03.435Z</time></trkpt><trkpt lat="45.8081551" lon="14.2337201"><ele>629.0</ele><time>2026-04-26T13:42:04.435Z</time></trkpt><trkpt lat="45.8082957" lon="14.2337193"><ele>629.0</ele><time>2026-04-26T13:42:05.435Z</time></trkpt><trkpt lat="45.808439" lon="14.2337113"><ele>629.0</ele><time>2026-04-26T13:42:06.435Z</time></trkpt><trkpt lat="45.8085883" lon="14.2336851"><ele>629.0</ele><time>2026-04-26T13:42:07.435Z</time></trkpt><trkpt lat="45.808749" lon="14.2336413"><ele>629.0</ele><time>2026-04-26T13:42:08.435Z</time></trkpt><trkpt lat="45.808909" lon="14.2335741"><ele>629.0</ele><time>2026-04-26T13:42:09.436Z</time></trkpt><trkpt lat="45.8090745" lon="14.2334937"><ele>629.0</ele><time>2026-04-26T13:42:10.435Z</time></trkpt><trkpt lat="45.8092465" lon="14.2334054"><ele>627.3333333333333</ele><time>2026-04-26T13:42:11.435Z</time></trkpt><trkpt lat="45.8094246" lon="14.2333299"><ele>625.6666666666666</ele><time>2026-04-26T13:42:12.435Z</time></trkpt><trkpt lat="45.8096066" lon="14.2332851"><ele>624.0</ele><time>2026-04-26T13:42:13.436Z</time></trkpt><trkpt lat="45.8097958" lon="14.2332809"><ele>624.0</ele><time>2026-04-26T13:42:14.435Z</time></trkpt><trkpt lat="45.8099829" lon="14.2333009"><ele>624.0</ele><time>2026-04-26T13:42:15.435Z</time></trkpt><trkpt lat="45.8101511" lon="14.2332995"><ele>624.0</ele><time>2026-04-26T13:42:16.436Z</time></trkpt><trkpt lat="45.81031" lon="14.2332643"><ele>623.3333333333334</ele><time>2026-04-26T13:42:17.435Z</time></trkpt><trkpt lat="45.8104628" lon="14.2332301"><ele>622.6666666666667</ele><time>2026-04-26T13:42:18.435Z</time></trkpt><trkpt lat="45.8106128" lon="14.2332498"><ele>622.0</ele><time>2026-04-26T13:42:19.436Z</time></trkpt><trkpt lat="45.8107446" lon="14.2333496"><ele>622.0</ele><time>2026-04-26T13:42:20.436Z</time></trkpt><trkpt lat="45.8108639" lon="14.2335219"><ele>622.0</ele><time>2026-04-26T13:42:21.435Z</time></trkpt><trkpt lat="45.810984" lon="14.233745"><ele>622.0</ele><time>2026-04-26T13:42:22.435Z</time></trkpt><trkpt lat="45.8111147" lon="14.2339361"><ele>622.3333333333334</ele><time>2026-04-26T13:42:23.435Z</time></trkpt><trkpt lat="45.8112729" lon="14.2340558"><ele>622.6666666666666</ele><time>2026-04-26T13:42:24.435Z</time></trkpt><trkpt lat="45.8114719" lon="14.234113"><ele>623.0</ele><time>2026-04-26T13:42:25.435Z</time></trkpt><trkpt lat="45.8116981" lon="14.2341144"><ele>622.0</ele><time>2026-04-26T13:42:26.435Z</time></trkpt><trkpt lat="45.8119381" lon="14.2340993"><ele>621.0</ele><time>2026-04-26T13:42:27.436Z</time></trkpt><trkpt lat="45.8121494" lon="14.2340613"><ele>621.0</ele><time>2026-04-26T13:42:28.435Z</time></trkpt><trkpt lat="45.8123101" lon="14.2340193"><ele>621.0</ele><time>2026-04-26T13:42:29.435Z</time></trkpt><trkpt lat="45.8124459" lon="14.2339369"><ele>621.0</ele><time>2026-04-26T13:42:30.435Z</time></trkpt><trkpt lat="45.8125678" lon="14.2337792"><ele>618.6666666666666</ele><time>2026-04-26T13:42:31.435Z</time></trkpt><trkpt lat="45.8126779" lon="14.2335824"><ele>616.3333333333333</ele><time>2026-04-26T13:42:32.435Z</time></trkpt><trkpt lat="45.8128121" lon="14.2334019"><ele>614.0</ele><time>2026-04-26T13:42:33.435Z</time></trkpt><trkpt lat="45.8130162" lon="14.2332828"><ele>614.0</ele><time>2026-04-26T13:42:34.435Z</time></trkpt><trkpt lat="45.8132345" lon="14.2332547"><ele>614.0</ele><time>2026-04-26T13:42:35.435Z</time></trkpt><trkpt lat="45.8134666" lon="14.2332775"><ele>615.0</ele><time>2026-04-26T13:42:36.435Z</time></trkpt><trkpt lat="45.8137145" lon="14.2333053"><ele>616.0</ele><time>2026-04-26T13:42:37.435Z</time></trkpt><trkpt lat="45.813937" lon="14.2333306"><ele>616.0</ele><time>2026-04-26T13:42:38.435Z</time></trkpt><trkpt lat="45.8141375" lon="14.2334101"><ele>616.0</ele><time>2026-04-26T13:42:39.435Z</time></trkpt><trkpt lat="45.81433" lon="14.2335318"><ele>616.0</ele><time>2026-04-26T13:42:40.435Z</time></trkpt><trkpt lat="45.8145225" lon="14.2336844"><ele>614.5</ele><time>2026-04-26T13:42:41.435Z</time></trkpt><trkpt lat="45.8147216" lon="14.2338217"><ele>613.0</ele><time>2026-04-26T13:42:42.436Z</time></trkpt><trkpt lat="45.8149438" lon="14.2339088"><ele>611.5</ele><time>2026-04-26T13:42:43.435Z</time></trkpt><trkpt lat="45.8151875" lon="14.2339621"><ele>610.0</ele><time>2026-04-26T13:42:44.435Z</time></trkpt><trkpt lat="45.8154427" lon="14.2339884"><ele>610.0</ele><time>2026-04-26T13:42:45.435Z</time></trkpt><trkpt lat="45.8156772" lon="14.2339704"><ele>610.0</ele><time>2026-04-26T13:42:46.435Z</time></trkpt><trkpt lat="45.8158903" lon="14.2339054"><ele>608.3333333333334</ele><time>2026-04-26T13:42:47.435Z</time></trkpt><trkpt lat="45.8160655" lon="14.2338324"><ele>606.6666666666666</ele><time>2026-04-26T13:42:48.435Z</time></trkpt><trkpt lat="45.8162165" lon="14.233763"><ele>605.0</ele><time>2026-04-26T13:42:49.435Z</time></trkpt><trkpt lat="45.8163255" lon="14.2337268"><ele>605.0</ele><time>2026-04-26T13:42:50.435Z</time></trkpt><trkpt lat="45.816412" lon="14.2337211"><ele>605.0</ele><time>2026-04-26T13:42:51.435Z</time></trkpt><trkpt lat="45.8164337" lon="14.2338748"><ele>605.0</ele><time>2026-04-26T13:42:53.435Z</time></trkpt><trkpt lat="45.8163483" lon="14.2339013"><ele>605.0</ele><time>2026-04-26T13:42:54.435Z</time></trkpt><trkpt lat="45.8162246" lon="14.2339355"><ele>605.0</ele><time>2026-04-26T13:42:55.435Z</time></trkpt><trkpt lat="45.8160818" lon="14.2339657"><ele>601.75</ele><time>2026-04-26T13:42:56.435Z</time></trkpt><trkpt lat="45.8159647" lon="14.2340522"><ele>598.5</ele><time>2026-04-26T13:42:57.435Z</time></trkpt><trkpt lat="45.8159002" lon="14.2342586"><ele>595.25</ele><time>2026-04-26T13:42:58.435Z</time></trkpt><trkpt lat="45.8158779" lon="14.2344786"><ele>592.0</ele><time>2026-04-26T13:42:59.435Z</time></trkpt><trkpt lat="45.8158902" lon="14.2347287"><ele>593.75</ele><time>2026-04-26T13:43:00.435Z</time></trkpt><trkpt lat="45.8159024" lon="14.2349597"><ele>595.5</ele><time>2026-04-26T13:43:01.436Z</time></trkpt><trkpt lat="45.8159276" lon="14.2351258"><ele>597.25</ele><time>2026-04-26T13:43:02.435Z</time></trkpt><trkpt lat="45.8159893" lon="14.2352336"><ele>599.0</ele><time>2026-04-26T13:43:03.435Z</time></trkpt><trkpt lat="45.8160722" lon="14.2352642"><ele>593.5</ele><time>2026-04-26T13:43:04.435Z</time></trkpt><trkpt lat="45.8161483" lon="14.235191"><ele>588.0</ele><time>2026-04-26T13:43:05.435Z</time></trkpt><trkpt lat="45.8161888" lon="14.2350211"><ele>582.5</ele><time>2026-04-26T13:43:06.435Z</time></trkpt><trkpt lat="45.816192" lon="14.2348244"><ele>577.0</ele><time>2026-04-26T13:43:07.435Z</time></trkpt><trkpt lat="45.8161993" lon="14.2346034"><ele>577.0</ele><time>2026-04-26T13:43:08.435Z</time></trkpt><trkpt lat="45.8162622" lon="14.2344233"><ele>577.0</ele><time>2026-04-26T13:43:09.435Z</time></trkpt><trkpt lat="45.8163863" lon="14.2342913"><ele>577.0</ele><time>2026-04-26T13:43:10.435Z</time></trkpt><trkpt lat="45.8165346" lon="14.2342358"><ele>577.0</ele><time>2026-04-26T13:43:11.435Z</time></trkpt><trkpt lat="45.8167578" lon="14.23427"><ele>577.0</ele><time>2026-04-26T13:43:12.434Z</time></trkpt><trkpt lat="45.8170005" lon="14.2343116"><ele>577.0</ele><time>2026-04-26T13:43:13.434Z</time></trkpt><trkpt lat="45.8172726" lon="14.2343406"><ele>577.0</ele><time>2026-04-26T13:43:14.434Z</time></trkpt><trkpt lat="45.8175236" lon="14.2343548"><ele>577.0</ele><time>2026-04-26T13:43:15.434Z</time></trkpt><trkpt lat="45.8177678" lon="14.2344049"><ele>579.5</ele><time>2026-04-26T13:43:16.434Z</time></trkpt><trkpt lat="45.8180248" lon="14.234506"><ele>582.0</ele><time>2026-04-26T13:43:17.434Z</time></trkpt><trkpt lat="45.8183081" lon="14.2346455"><ele>574.0</ele><time>2026-04-26T13:43:18.434Z</time></trkpt><trkpt lat="45.8186151" lon="14.2348161"><ele>566.0</ele><time>2026-04-26T13:43:19.435Z</time></trkpt><trkpt lat="45.8189295" lon="14.2349786"><ele>566.0</ele><time>2026-04-26T13:43:20.434Z</time></trkpt><trkpt lat="45.8192126" lon="14.2351168"><ele>566.0</ele><time>2026-04-26T13:43:21.434Z</time></trkpt><trkpt lat="45.8194421" lon="14.2352452"><ele>566.6666666666666</ele><time>2026-04-26T13:43:22.435Z</time></trkpt><trkpt lat="45.8196508" lon="14.235351"><ele>567.3333333333334</ele><time>2026-04-26T13:43:23.434Z</time></trkpt><trkpt lat="45.819829" lon="14.235433"><ele>568.0</ele><time>2026-04-26T13:43:24.434Z</time></trkpt><trkpt lat="45.8199946" lon="14.2354791"><ele>563.6666666666667</ele><time>2026-04-26T13:43:25.435Z</time></trkpt><trkpt lat="45.8201835" lon="14.2354542"><ele>559.3333333333334</ele><time>2026-04-26T13:43:26.434Z</time></trkpt><trkpt lat="45.8203696" lon="14.2353348"><ele>555.0</ele><time>2026-04-26T13:43:27.434Z</time></trkpt><trkpt lat="45.8205396" lon="14.235161"><ele>555.0</ele><time>2026-04-26T13:43:28.434Z</time></trkpt><trkpt lat="45.8206398" lon="14.2349685"><ele>555.0</ele><time>2026-04-26T13:43:29.434Z</time></trkpt><trkpt lat="45.8207354" lon="14.2347961"><ele>555.0</ele><time>2026-04-26T13:43:30.434Z</time></trkpt><trkpt lat="45.8208246" lon="14.2347248"><ele>555.0</ele><time>2026-04-26T13:43:31.435Z</time></trkpt><trkpt lat="45.8209276" lon="14.2347445"><ele>551.0</ele><time>2026-04-26T13:43:32.434Z</time></trkpt><trkpt lat="45.8210129" lon="14.2348287"><ele>547.0</ele><time>2026-04-26T13:43:33.435Z</time></trkpt><trkpt lat="45.8210765" lon="14.2349678"><ele>543.0</ele><time>2026-04-26T13:43:34.434Z</time></trkpt><trkpt lat="45.8211106" lon="14.2351843"><ele>539.0</ele><time>2026-04-26T13:43:35.434Z</time></trkpt><trkpt lat="45.8210961" lon="14.2353811"><ele>539.0</ele><time>2026-04-26T13:43:36.434Z</time></trkpt><trkpt lat="45.8210318" lon="14.2355749"><ele>539.0</ele><time>2026-04-26T13:43:37.434Z</time></trkpt><trkpt lat="45.8209218" lon="14.2356742"><ele>539.0</ele><time>2026-04-26T13:43:38.434Z</time></trkpt><trkpt lat="45.8207688" lon="14.2357054"><ele>539.0</ele><time>2026-04-26T13:43:39.434Z</time></trkpt><trkpt lat="45.820584" lon="14.2357434"><ele>540.0</ele><time>2026-04-26T13:43:40.434Z</time></trkpt><trkpt lat="45.8203747" lon="14.2358179"><ele>541.0</ele><time>2026-04-26T13:43:41.434Z</time></trkpt><trkpt lat="45.8201381" lon="14.235927"><ele>544.0</ele><time>2026-04-26T13:43:42.434Z</time></trkpt><trkpt lat="45.8198997" lon="14.2360196"><ele>547.0</ele><time>2026-04-26T13:43:43.435Z</time></trkpt><trkpt lat="45.8196726" lon="14.236089"><ele>547.0</ele><time>2026-04-26T13:43:44.434Z</time></trkpt><trkpt lat="45.8194674" lon="14.2361649"><ele>547.0</ele><time>2026-04-26T13:43:45.434Z</time></trkpt><trkpt lat="45.8192675" lon="14.2362205"><ele>547.0</ele><time>2026-04-26T13:43:46.434Z</time></trkpt><trkpt lat="45.8191019" lon="14.2362675"><ele>546.75</ele><time>2026-04-26T13:43:47.434Z</time></trkpt><trkpt lat="45.8189751" lon="14.2363305"><ele>546.5</ele><time>2026-04-26T13:43:48.435Z</time></trkpt><trkpt lat="45.8188799" lon="14.2364305"><ele>546.25</ele><time>2026-04-26T13:43:49.434Z</time></trkpt><trkpt lat="45.8188235" lon="14.2365648"><ele>546.0</ele><time>2026-04-26T13:43:50.434Z</time></trkpt><trkpt lat="45.8188066" lon="14.2367184"><ele>543.75</ele><time>2026-04-26T13:43:51.434Z</time></trkpt><trkpt lat="45.8188546" lon="14.2368787"><ele>541.5</ele><time>2026-04-26T13:43:52.435Z</time></trkpt><trkpt lat="45.818951" lon="14.2370037"><ele>539.25</ele><time>2026-04-26T13:43:53.434Z</time></trkpt><trkpt lat="45.8190723" lon="14.237034"><ele>537.0</ele><time>2026-04-26T13:43:54.434Z</time></trkpt><trkpt lat="45.8191825" lon="14.2369485"><ele>537.0</ele><time>2026-04-26T13:43:55.435Z</time></trkpt><trkpt lat="45.8192739" lon="14.2368337"><ele>537.0</ele><time>2026-04-26T13:43:56.434Z</time></trkpt><trkpt lat="45.8193368" lon="14.2367042"><ele>537.0</ele><time>2026-04-26T13:43:57.434Z</time></trkpt><trkpt lat="45.819424" lon="14.2365894"><ele>537.0</ele><time>2026-04-26T13:43:58.434Z</time></trkpt><trkpt lat="45.8195463" lon="14.2365024"><ele>538.3333333333334</ele><time>2026-04-26T13:43:59.434Z</time></trkpt><trkpt lat="45.8197202" lon="14.2364348"><ele>539.6666666666667</ele><time>2026-04-26T13:44:00.434Z</time></trkpt><trkpt lat="45.819946" lon="14.2363869"><ele>541.0</ele><time>2026-04-26T13:44:01.434Z</time></trkpt><trkpt lat="45.8201943" lon="14.2363338"><ele>541.0</ele><time>2026-04-26T13:44:02.434Z</time></trkpt><trkpt lat="45.8204655" lon="14.2362672"><ele>541.0</ele><time>2026-04-26T13:44:03.434Z</time></trkpt><trkpt lat="45.8207306" lon="14.2362134"><ele>541.0</ele><time>2026-04-26T13:44:04.434Z</time></trkpt><trkpt lat="45.8209343" lon="14.2362053"><ele>541.0</ele><time>2026-04-26T13:44:05.434Z</time></trkpt><trkpt lat="45.8210801" lon="14.2361853"><ele>541.0</ele><time>2026-04-26T13:44:06.435Z</time></trkpt><trkpt lat="45.8212046" lon="14.2361785"><ele>538.75</ele><time>2026-04-26T13:44:07.434Z</time></trkpt><trkpt lat="45.8213127" lon="14.2362243"><ele>536.5</ele><time>2026-04-26T13:44:08.434Z</time></trkpt><trkpt lat="45.8213768" lon="14.236353"><ele>534.25</ele><time>2026-04-26T13:44:09.434Z</time></trkpt><trkpt lat="45.821376" lon="14.236495"><ele>532.0</ele><time>2026-04-26T13:44:10.434Z</time></trkpt><trkpt lat="45.8213044" lon="14.2366828"><ele>530.0</ele><time>2026-04-26T13:44:11.434Z</time></trkpt><trkpt lat="45.8211719" lon="14.2368726"><ele>528.0</ele><time>2026-04-26T13:44:12.434Z</time></trkpt><trkpt lat="45.8210011" lon="14.2370652"><ele>526.0</ele><time>2026-04-26T13:44:13.434Z</time></trkpt><trkpt lat="45.8208122" lon="14.2372667"><ele>522.0</ele><time>2026-04-26T13:44:14.434Z</time></trkpt><trkpt lat="45.8206145" lon="14.2374496"><ele>518.0</ele><time>2026-04-26T13:44:15.435Z</time></trkpt><trkpt lat="45.8204275" lon="14.2375911"><ele>514.0</ele><time>2026-04-26T13:44:16.434Z</time></trkpt><trkpt lat="45.8202776" lon="14.2376591"><ele>514.0</ele><time>2026-04-26T13:44:17.434Z</time></trkpt><trkpt lat="45.8201624" lon="14.2377186"><ele>514.0</ele><time>2026-04-26T13:44:18.434Z</time></trkpt><trkpt lat="45.8200925" lon="14.2378404"><ele>514.0</ele><time>2026-04-26T13:44:19.434Z</time></trkpt><trkpt lat="45.8200966" lon="14.2380146"><ele>514.0</ele><time>2026-04-26T13:44:20.434Z</time></trkpt><trkpt lat="45.820193" lon="14.2382132"><ele>512.3333333333334</ele><time>2026-04-26T13:44:21.434Z</time></trkpt><trkpt lat="45.8203395" lon="14.2384023"><ele>510.66666666666663</ele><time>2026-04-26T13:44:22.434Z</time></trkpt><trkpt lat="45.8204619" lon="14.2385804"><ele>509.0</ele><time>2026-04-26T13:44:23.435Z</time></trkpt><trkpt lat="45.8205242" lon="14.2387453"><ele>509.0</ele><time>2026-04-26T13:44:24.434Z</time></trkpt><trkpt lat="45.8205299" lon="14.2389203"><ele>509.0</ele><time>2026-04-26T13:44:25.434Z</time></trkpt><trkpt lat="45.8204659" lon="14.239088"><ele>509.0</ele><time>2026-04-26T13:44:26.435Z</time></trkpt><trkpt lat="45.8204038" lon="14.2392342"><ele>509.0</ele><time>2026-04-26T13:44:27.434Z</time></trkpt><trkpt lat="45.820406" lon="14.2393776"><ele>508.0</ele><time>2026-04-26T13:44:28.434Z</time></trkpt><trkpt lat="45.8204969" lon="14.2395283"><ele>507.0</ele><time>2026-04-26T13:44:29.434Z</time></trkpt><trkpt lat="45.8206598" lon="14.2396638"><ele>506.0</ele><time>2026-04-26T13:44:30.434Z</time></trkpt><trkpt lat="45.8208566" lon="14.2397837"><ele>502.66666666666663</ele><time>2026-04-26T13:44:31.434Z</time></trkpt><trkpt lat="45.8210326" lon="14.2399121"><ele>499.33333333333337</ele><time>2026-04-26T13:44:32.434Z</time></trkpt><trkpt lat="45.8211625" lon="14.2400553"><ele>496.0</ele><time>2026-04-26T13:44:33.434Z</time></trkpt><trkpt lat="45.8212493" lon="14.2402628"><ele>496.0</ele><time>2026-04-26T13:44:34.434Z</time></trkpt><trkpt lat="45.821311" lon="14.2404843"><ele>496.0</ele><time>2026-04-26T13:44:35.435Z</time></trkpt><trkpt lat="45.8213142" lon="14.2406952"><ele>496.0</ele><time>2026-04-26T13:44:36.434Z</time></trkpt><trkpt lat="45.8212707" lon="14.2409096"><ele>494.33333333333337</ele><time>2026-04-26T13:44:37.434Z</time></trkpt><trkpt lat="45.821187" lon="14.2411364"><ele>492.66666666666663</ele><time>2026-04-26T13:44:38.435Z</time></trkpt><trkpt lat="45.8210675" lon="14.2413802"><ele>491.0</ele><time>2026-04-26T13:44:39.434Z</time></trkpt><trkpt lat="45.820939" lon="14.2416238"><ele>494.66666666666663</ele><time>2026-04-26T13:44:40.434Z</time></trkpt><trkpt lat="45.8208102" lon="14.241872"><ele>498.33333333333337</ele><time>2026-04-26T13:44:41.434Z</time></trkpt><trkpt lat="45.8207086" lon="14.2421026"><ele>502.0</ele><time>2026-04-26T13:44:42.434Z</time></trkpt><trkpt lat="45.8206305" lon="14.2423084"><ele>502.0</ele><time>2026-04-26T13:44:43.434Z</time></trkpt><trkpt lat="45.8205805" lon="14.2424811"><ele>502.0</ele><time>2026-04-26T13:44:44.434Z</time></trkpt><trkpt lat="45.8205649" lon="14.2426389"><ele>502.0</ele><time>2026-04-26T13:44:45.434Z</time></trkpt><trkpt lat="45.8206156" lon="14.2427755"><ele>502.0</ele><time>2026-04-26T13:44:46.434Z</time></trkpt><trkpt lat="45.8207374" lon="14.2428663"><ele>502.0</ele><time>2026-04-26T13:44:47.434Z</time></trkpt><trkpt lat="45.8208897" lon="14.242877"><ele>502.0</ele><time>2026-04-26T13:44:48.434Z</time></trkpt><trkpt lat="45.8210663" lon="14.2428367"><ele>502.0</ele><time>2026-04-26T13:44:49.434Z</time></trkpt><trkpt lat="45.8212253" lon="14.2428407"><ele>499.0</ele><time>2026-04-26T13:44:50.434Z</time></trkpt><trkpt lat="45.8213591" lon="14.2429315"><ele>496.0</ele><time>2026-04-26T13:44:51.435Z</time></trkpt><trkpt lat="45.8214868" lon="14.243059"><ele>493.0</ele><time>2026-04-26T13:44:52.434Z</time></trkpt><trkpt lat="45.8216332" lon="14.2432172"><ele>493.0</ele><time>2026-04-26T13:44:53.435Z</time></trkpt><trkpt lat="45.8218001" lon="14.2433803"><ele>493.0</ele><time>2026-04-26T13:44:54.434Z</time></trkpt><trkpt lat="45.821946" lon="14.2435275"><ele>493.0</ele><time>2026-04-26T13:44:55.434Z</time></trkpt><trkpt lat="45.8220745" lon="14.2436685"><ele>491.75</ele><time>2026-04-26T13:44:56.435Z</time></trkpt><trkpt lat="45.8221695" lon="14.2438167"><ele>490.5</ele><time>2026-04-26T13:44:57.434Z</time></trkpt><trkpt lat="45.8222311" lon="14.2439909"><ele>489.25</ele><time>2026-04-26T13:44:58.434Z</time></trkpt><trkpt lat="45.8222719" lon="14.2441675"><ele>488.0</ele><time>2026-04-26T13:44:59.434Z</time></trkpt><trkpt lat="45.822313" lon="14.2443361"><ele>487.75</ele><time>2026-04-26T13:45:00.434Z</time></trkpt><trkpt lat="45.8223693" lon="14.2444845"><ele>487.5</ele><time>2026-04-26T13:45:01.434Z</time></trkpt><trkpt lat="45.8224482" lon="14.244627"><ele>487.25</ele><time>2026-04-26T13:45:02.434Z</time></trkpt><trkpt lat="45.8225514" lon="14.2447518"><ele>487.0</ele><time>2026-04-26T13:45:03.434Z</time></trkpt><trkpt lat="45.8226677" lon="14.2448594"><ele>485.25</ele><time>2026-04-26T13:45:04.434Z</time></trkpt><trkpt lat="45.822791" lon="14.2449381"><ele>483.5</ele><time>2026-04-26T13:45:05.434Z</time></trkpt><trkpt lat="45.8229063" lon="14.244999"><ele>481.75</ele><time>2026-04-26T13:45:06.434Z</time></trkpt><trkpt lat="45.8230148" lon="14.2450496"><ele>480.0</ele><time>2026-04-26T13:45:07.435Z</time></trkpt><trkpt lat="45.8231149" lon="14.2450989"><ele>480.0</ele><time>2026-04-26T13:45:08.434Z</time></trkpt><trkpt lat="45.8232058" lon="14.2451454"><ele>480.0</ele><time>2026-04-26T13:45:09.434Z</time></trkpt><trkpt lat="45.823284" lon="14.2451819"><ele>480.0</ele><time>2026-04-26T13:45:10.434Z</time></trkpt><trkpt lat="45.8233849" lon="14.2452116"><ele>480.0</ele><time>2026-04-26T13:45:12.434Z</time></trkpt><trkpt lat="45.8233617" lon="14.2451155"><ele>480.0</ele><time>2026-04-26T13:45:15.434Z</time></trkpt><trkpt lat="45.8232894" lon="14.245084"><ele>480.0</ele><time>2026-04-26T13:45:16.434Z</time></trkpt><trkpt lat="45.8231917" lon="14.2450623"><ele>480.0</ele><time>2026-04-26T13:45:17.434Z</time></trkpt><trkpt lat="45.8230665" lon="14.2450211"><ele>480.0</ele><time>2026-04-26T13:45:18.434Z</time></trkpt><trkpt lat="45.8229355" lon="14.2449603"><ele>480.0</ele><time>2026-04-26T13:45:19.434Z</time></trkpt><trkpt lat="45.8227778" lon="14.2448703"><ele>480.0</ele><time>2026-04-26T13:45:20.434Z</time></trkpt><trkpt lat="45.822604" lon="14.2447396"><ele>482.33333333333337</ele><time>2026-04-26T13:45:21.435Z</time></trkpt><trkpt lat="45.8224424" lon="14.2445629"><ele>484.6666666666667</ele><time>2026-04-26T13:45:22.434Z</time></trkpt><trkpt lat="45.8223222" lon="14.2443079"><ele>487.0</ele><time>2026-04-26T13:45:23.434Z</time></trkpt><trkpt lat="45.8222603" lon="14.2440475"><ele>487.33333333333337</ele><time>2026-04-26T13:45:24.434Z</time></trkpt><trkpt lat="45.8222139" lon="14.2438143"><ele>487.66666666666663</ele><time>2026-04-26T13:45:25.434Z</time></trkpt><trkpt lat="45.8221021" lon="14.243612"><ele>488.0</ele><time>2026-04-26T13:45:26.434Z</time></trkpt><trkpt lat="45.8219383" lon="14.2434262"><ele>488.66666666666663</ele><time>2026-04-26T13:45:27.434Z</time></trkpt><trkpt lat="45.8217621" lon="14.2432563"><ele>489.33333333333337</ele><time>2026-04-26T13:45:28.435Z</time></trkpt><trkpt lat="45.8216012" lon="14.2431171"><ele>490.0</ele><time>2026-04-26T13:45:29.434Z</time></trkpt><trkpt lat="45.8214645" lon="14.2429892"><ele>490.0</ele><time>2026-04-26T13:45:30.434Z</time></trkpt><trkpt lat="45.8213414" lon="14.2428774"><ele>490.0</ele><time>2026-04-26T13:45:31.434Z</time></trkpt><trkpt lat="45.8212084" lon="14.2428015"><ele>490.0</ele><time>2026-04-26T13:45:32.434Z</time></trkpt><trkpt lat="45.821061" lon="14.2427769"><ele>490.0</ele><time>2026-04-26T13:45:33.435Z</time></trkpt><trkpt lat="45.8209173" lon="14.2428035"><ele>493.0</ele><time>2026-04-26T13:45:34.434Z</time></trkpt><trkpt lat="45.8207903" lon="14.2428275"><ele>496.0</ele><time>2026-04-26T13:45:35.434Z</time></trkpt><trkpt lat="45.8206917" lon="14.242799"><ele>499.0</ele><time>2026-04-26T13:45:36.434Z</time></trkpt><trkpt lat="45.8206348" lon="14.2426817"><ele>502.0</ele><time>2026-04-26T13:45:37.434Z</time></trkpt><trkpt lat="45.8206235" lon="14.2424996"><ele>502.0</ele><time>2026-04-26T13:45:38.434Z</time></trkpt><trkpt lat="45.8206641" lon="14.2422991"><ele>502.0</ele><time>2026-04-26T13:45:39.435Z</time></trkpt><trkpt lat="45.8207535" lon="14.2420847"><ele>502.0</ele><time>2026-04-26T13:45:40.434Z</time></trkpt><trkpt lat="45.820862" lon="14.2418627"><ele>498.33333333333337</ele><time>2026-04-26T13:45:41.434Z</time></trkpt><trkpt lat="45.8209876" lon="14.2416279"><ele>494.66666666666663</ele><time>2026-04-26T13:45:42.435Z</time></trkpt><trkpt lat="45.8211181" lon="14.241406"><ele>491.0</ele><time>2026-04-26T13:45:43.434Z</time></trkpt><trkpt lat="45.8212209" lon="14.241184"><ele>491.0</ele><time>2026-04-26T13:45:44.434Z</time></trkpt><trkpt lat="45.821294" lon="14.2409599"><ele>491.0</ele><time>2026-04-26T13:45:45.435Z</time></trkpt><trkpt lat="45.8213487" lon="14.240752"><ele>491.0</ele><time>2026-04-26T13:45:46.434Z</time></trkpt><trkpt lat="45.8213467" lon="14.2405126"><ele>492.66666666666663</ele><time>2026-04-26T13:45:47.434Z</time></trkpt><trkpt lat="45.8212937" lon="14.2402787"><ele>494.33333333333337</ele><time>2026-04-26T13:45:48.434Z</time></trkpt><trkpt lat="45.8211796" lon="14.2400464"><ele>496.0</ele><time>2026-04-26T13:45:49.434Z</time></trkpt><trkpt lat="45.8210262" lon="14.2398562"><ele>499.33333333333337</ele><time>2026-04-26T13:45:50.434Z</time></trkpt><trkpt lat="45.8208629" lon="14.2397294"><ele>502.66666666666663</ele><time>2026-04-26T13:45:51.435Z</time></trkpt><trkpt lat="45.820718" lon="14.2396242"><ele>506.0</ele><time>2026-04-26T13:45:52.434Z</time></trkpt><trkpt lat="45.8205855" lon="14.239525"><ele>506.0</ele><time>2026-04-26T13:45:53.435Z</time></trkpt><trkpt lat="45.8204779" lon="14.2394026"><ele>506.0</ele><time>2026-04-26T13:45:54.434Z</time></trkpt><trkpt lat="45.8204452" lon="14.2392616"><ele>506.0</ele><time>2026-04-26T13:45:55.434Z</time></trkpt><trkpt lat="45.8204752" lon="14.239107"><ele>506.0</ele><time>2026-04-26T13:45:56.434Z</time></trkpt><trkpt lat="45.8205474" lon="14.2389485"><ele>506.75</ele><time>2026-04-26T13:45:57.434Z</time></trkpt><trkpt lat="45.8205679" lon="14.2387706"><ele>507.5</ele><time>2026-04-26T13:45:58.434Z</time></trkpt><trkpt lat="45.8205193" lon="14.2385902"><ele>508.25</ele><time>2026-04-26T13:45:59.434Z</time></trkpt><trkpt lat="45.8203949" lon="14.238392"><ele>509.0</ele><time>2026-04-26T13:46:00.434Z</time></trkpt><trkpt lat="45.8202593" lon="14.2382041"><ele>510.0</ele><time>2026-04-26T13:46:01.434Z</time></trkpt><trkpt lat="45.8201652" lon="14.2380476"><ele>511.0</ele><time>2026-04-26T13:46:02.434Z</time></trkpt><trkpt lat="45.8201308" lon="14.237904"><ele>512.0</ele><time>2026-04-26T13:46:03.434Z</time></trkpt><trkpt lat="45.8201439" lon="14.2377803"><ele>513.0</ele><time>2026-04-26T13:46:04.434Z</time></trkpt><trkpt lat="45.8202122" lon="14.2376769"><ele>514.0</ele><time>2026-04-26T13:46:05.434Z</time></trkpt><trkpt lat="45.820316" lon="14.2375577"><ele>514.0</ele><time>2026-04-26T13:46:06.435Z</time></trkpt><trkpt lat="45.8204635" lon="14.2374396"><ele>514.0</ele><time>2026-04-26T13:46:07.434Z</time></trkpt><trkpt lat="45.8206589" lon="14.237324"><ele>514.0</ele><time>2026-04-26T13:46:08.434Z</time></trkpt><trkpt lat="45.8208856" lon="14.2371965"><ele>520.0</ele><time>2026-04-26T13:46:09.434Z</time></trkpt><trkpt lat="45.8210984" lon="14.2370292"><ele>526.0</ele><time>2026-04-26T13:46:10.434Z</time></trkpt><trkpt lat="45.8212612" lon="14.2368396"><ele>526.0</ele><time>2026-04-26T13:46:11.434Z</time></trkpt><trkpt lat="45.8213767" lon="14.2366556"><ele>526.0</ele><time>2026-04-26T13:46:12.434Z</time></trkpt><trkpt lat="45.8214385" lon="14.2364952"><ele>526.0</ele><time>2026-04-26T13:46:13.434Z</time></trkpt><trkpt lat="45.8214565" lon="14.2363342"><ele>526.0</ele><time>2026-04-26T13:46:14.434Z</time></trkpt><trkpt lat="45.8213701" lon="14.2361766"><ele>528.0</ele><time>2026-04-26T13:46:15.434Z</time></trkpt><trkpt lat="45.8212354" lon="14.2361115"><ele>530.0</ele><time>2026-04-26T13:46:16.434Z</time></trkpt><trkpt lat="45.8210792" lon="14.2361042"><ele>532.0</ele><time>2026-04-26T13:46:17.434Z</time></trkpt><trkpt lat="45.8208981" lon="14.2361377"><ele>536.5</ele><time>2026-04-26T13:46:18.434Z</time></trkpt><trkpt lat="45.8206741" lon="14.236185"><ele>541.0</ele><time>2026-04-26T13:46:19.434Z</time></trkpt><trkpt lat="45.820415" lon="14.2362261"><ele>544.0</ele><time>2026-04-26T13:46:20.434Z</time></trkpt><trkpt lat="45.8201359" lon="14.2362851"><ele>547.0</ele><time>2026-04-26T13:46:21.434Z</time></trkpt><trkpt lat="45.8198564" lon="14.236361"><ele>547.0</ele><time>2026-04-26T13:46:22.434Z</time></trkpt><trkpt lat="45.8196266" lon="14.2364323"><ele>547.0</ele><time>2026-04-26T13:46:23.434Z</time></trkpt><trkpt lat="45.8194508" lon="14.2365077"><ele>547.0</ele><time>2026-04-26T13:46:24.434Z</time></trkpt><trkpt lat="45.8193169" lon="14.2366552"><ele>545.0</ele><time>2026-04-26T13:46:25.435Z</time></trkpt><trkpt lat="45.819229" lon="14.2368418"><ele>543.0</ele><time>2026-04-26T13:46:26.434Z</time></trkpt><trkpt lat="45.8191564" lon="14.2369365"><ele>541.0</ele><time>2026-04-26T13:46:27.434Z</time></trkpt><trkpt lat="45.8190751" lon="14.2369809"><ele>539.0</ele><time>2026-04-26T13:46:28.434Z</time></trkpt><trkpt lat="45.8189745" lon="14.2369454"><ele>537.0</ele><time>2026-04-26T13:46:29.434Z</time></trkpt><trkpt lat="45.8188944" lon="14.2368822"><ele>537.0</ele><time>2026-04-26T13:46:30.434Z</time></trkpt><trkpt lat="45.8188438" lon="14.2367453"><ele>537.0</ele><time>2026-04-26T13:46:31.434Z</time></trkpt><trkpt lat="45.8188486" lon="14.2365902"><ele>537.0</ele><time>2026-04-26T13:46:32.434Z</time></trkpt><trkpt lat="45.8188961" lon="14.2364661"><ele>537.0</ele><time>2026-04-26T13:46:33.434Z</time></trkpt><trkpt lat="45.8189806" lon="14.2363812"><ele>537.0</ele><time>2026-04-26T13:46:34.434Z</time></trkpt><trkpt lat="45.8190956" lon="14.2363323"><ele>540.0</ele><time>2026-04-26T13:46:35.434Z</time></trkpt><trkpt lat="45.8192489" lon="14.2362879"><ele>543.0</ele><time>2026-04-26T13:46:36.435Z</time></trkpt><trkpt lat="45.8194523" lon="14.2362164"><ele>546.0</ele><time>2026-04-26T13:46:37.434Z</time></trkpt><trkpt lat="45.819679" lon="14.2361336"><ele>546.5</ele><time>2026-04-26T13:46:38.434Z</time></trkpt><trkpt lat="45.8199272" lon="14.2360438"><ele>547.0</ele><time>2026-04-26T13:46:39.434Z</time></trkpt><trkpt lat="45.820201" lon="14.2359478"><ele>544.0</ele><time>2026-04-26T13:46:40.434Z</time></trkpt><trkpt lat="45.8204684" lon="14.2358605"><ele>541.0</ele><time>2026-04-26T13:46:41.434Z</time></trkpt><trkpt lat="45.8206888" lon="14.2358171"><ele>541.0</ele><time>2026-04-26T13:46:42.434Z</time></trkpt><trkpt lat="45.8208633" lon="14.2357907"><ele>541.0</ele><time>2026-04-26T13:46:43.434Z</time></trkpt><trkpt lat="45.8210016" lon="14.2357234"><ele>541.0</ele><time>2026-04-26T13:46:44.434Z</time></trkpt><trkpt lat="45.8210934" lon="14.2355878"><ele>540.3333333333334</ele><time>2026-04-26T13:46:45.434Z</time></trkpt><trkpt lat="45.8211634" lon="14.2353614"><ele>539.6666666666666</ele><time>2026-04-26T13:46:46.434Z</time></trkpt><trkpt lat="45.8211559" lon="14.235119"><ele>539.0</ele><time>2026-04-26T13:46:47.434Z</time></trkpt><trkpt lat="45.821088" lon="14.2348942"><ele>543.0</ele><time>2026-04-26T13:46:48.435Z</time></trkpt><trkpt lat="45.8209695" lon="14.2347354"><ele>547.0</ele><time>2026-04-26T13:46:49.434Z</time></trkpt><trkpt lat="45.8208386" lon="14.2347127"><ele>551.0</ele><time>2026-04-26T13:46:50.434Z</time></trkpt><trkpt lat="45.8207242" lon="14.2347515"><ele>555.0</ele><time>2026-04-26T13:46:51.434Z</time></trkpt><trkpt lat="45.8206202" lon="14.2349043"><ele>555.0</ele><time>2026-04-26T13:46:52.434Z</time></trkpt><trkpt lat="45.820532" lon="14.2351017"><ele>555.0</ele><time>2026-04-26T13:46:53.434Z</time></trkpt><trkpt lat="45.8204037" lon="14.235298"><ele>555.0</ele><time>2026-04-26T13:46:54.434Z</time></trkpt><trkpt lat="45.8202217" lon="14.2354011"><ele>561.5</ele><time>2026-04-26T13:46:55.434Z</time></trkpt><trkpt lat="45.8200047" lon="14.2354046"><ele>568.0</ele><time>2026-04-26T13:46:56.434Z</time></trkpt><trkpt lat="45.8197612" lon="14.2353368"><ele>568.0</ele><time>2026-04-26T13:46:57.434Z</time></trkpt><trkpt lat="45.8195237" lon="14.2352133"><ele>568.0</ele><time>2026-04-26T13:46:58.435Z</time></trkpt><trkpt lat="45.8192526" lon="14.2350757"><ele>567.0</ele><time>2026-04-26T13:46:59.434Z</time></trkpt><trkpt lat="45.8189682" lon="14.2349248"><ele>566.0</ele><time>2026-04-26T13:47:00.434Z</time></trkpt><trkpt lat="45.8186737" lon="14.2347663"><ele>574.0</ele><time>2026-04-26T13:47:01.434Z</time></trkpt><trkpt lat="45.8183764" lon="14.2346008"><ele>582.0</ele><time>2026-04-26T13:47:02.434Z</time></trkpt><trkpt lat="45.8181017" lon="14.2344506"><ele>582.0</ele><time>2026-04-26T13:47:03.434Z</time></trkpt><trkpt lat="45.8178385" lon="14.2343474"><ele>582.0</ele><time>2026-04-26T13:47:04.434Z</time></trkpt><trkpt lat="45.8175657" lon="14.2342849"><ele>579.5</ele><time>2026-04-26T13:47:05.434Z</time></trkpt><trkpt lat="45.8172746" lon="14.2342535"><ele>577.0</ele><time>2026-04-26T13:47:06.435Z</time></trkpt><trkpt lat="45.8170015" lon="14.2342286"><ele>577.0</ele><time>2026-04-26T13:47:07.434Z</time></trkpt><trkpt lat="45.8167566" lon="14.2342087"><ele>577.0</ele><time>2026-04-26T13:47:08.434Z</time></trkpt><trkpt lat="45.8165551" lon="14.2341998"><ele>577.0</ele><time>2026-04-26T13:47:09.434Z</time></trkpt><trkpt lat="45.816399" lon="14.2342428"><ele>577.0</ele><time>2026-04-26T13:47:10.434Z</time></trkpt><trkpt lat="45.8162671" lon="14.2344038"><ele>577.0</ele><time>2026-04-26T13:47:11.435Z</time></trkpt><trkpt lat="45.8161966" lon="14.2346145"><ele>577.0</ele><time>2026-04-26T13:47:12.434Z</time></trkpt><trkpt lat="45.816157" lon="14.2348344"><ele>576.3333333333334</ele><time>2026-04-26T13:47:13.435Z</time></trkpt><trkpt lat="45.8161478" lon="14.2350007"><ele>575.6666666666667</ele><time>2026-04-26T13:47:14.434Z</time></trkpt><trkpt lat="45.8161129" lon="14.2351231"><ele>575.0</ele><time>2026-04-26T13:47:15.434Z</time></trkpt><trkpt lat="45.8160458" lon="14.2351667"><ele>574.3333333333334</ele><time>2026-04-26T13:47:16.434Z</time></trkpt><trkpt lat="45.8159903" lon="14.235124"><ele>573.6666666666666</ele><time>2026-04-26T13:47:17.434Z</time></trkpt><trkpt lat="45.8159549" lon="14.2350057"><ele>573.0</ele><time>2026-04-26T13:47:18.434Z</time></trkpt><trkpt lat="45.8159371" lon="14.2348229"><ele>574.0</ele><time>2026-04-26T13:47:19.434Z</time></trkpt><trkpt lat="45.8159151" lon="14.2345977"><ele>575.0</ele><time>2026-04-26T13:47:20.434Z</time></trkpt><trkpt lat="45.8159107" lon="14.2343892"><ele>576.0</ele><time>2026-04-26T13:47:21.434Z</time></trkpt><trkpt lat="45.8159373" lon="14.2342123"><ele>577.0</ele><time>2026-04-26T13:47:22.435Z</time></trkpt><trkpt lat="45.8160135" lon="14.2340826"><ele>577.0</ele><time>2026-04-26T13:47:23.434Z</time></trkpt><trkpt lat="45.8161703" lon="14.2340018"><ele>577.0</ele><time>2026-04-26T13:47:24.434Z</time></trkpt><trkpt lat="45.8163255" lon="14.2339653"><ele>577.0</ele><time>2026-04-26T13:47:25.434Z</time></trkpt><trkpt lat="45.8164529" lon="14.2339463"><ele>582.6</ele><time>2026-04-26T13:47:26.434Z</time></trkpt><trkpt lat="45.8165342" lon="14.2338944"><ele>588.2</ele><time>2026-04-26T13:47:27.434Z</time></trkpt><trkpt lat="45.816558" lon="14.2337889"><ele>593.8</ele><time>2026-04-26T13:47:28.434Z</time></trkpt><trkpt lat="45.8165215" lon="14.2336815"><ele>599.4</ele><time>2026-04-26T13:47:29.434Z</time></trkpt><trkpt lat="45.8164275" lon="14.2336461"><ele>605.0</ele><time>2026-04-26T13:47:30.434Z</time></trkpt><trkpt lat="45.8162981" lon="14.2336501"><ele>605.0</ele><time>2026-04-26T13:47:31.435Z</time></trkpt><trkpt lat="45.8161381" lon="14.2337166"><ele>605.0</ele><time>2026-04-26T13:47:32.435Z</time></trkpt><trkpt lat="45.8159427" lon="14.2338025"><ele>605.0</ele><time>2026-04-26T13:47:33.434Z</time></trkpt><trkpt lat="45.8157197" lon="14.2338694"><ele>607.5</ele><time>2026-04-26T13:47:34.434Z</time></trkpt><trkpt lat="45.8154698" lon="14.2339113"><ele>610.0</ele><time>2026-04-26T13:47:35.434Z</time></trkpt><trkpt lat="45.8152087" lon="14.2338964"><ele>611.5</ele><time>2026-04-26T13:47:36.434Z</time></trkpt><trkpt lat="45.814942" lon="14.2338508"><ele>613.0</ele><time>2026-04-26T13:47:37.434Z</time></trkpt><trkpt lat="45.8147044" lon="14.2337824"><ele>613.0</ele><time>2026-04-26T13:47:38.434Z</time></trkpt><trkpt lat="45.8144809" lon="14.2336471"><ele>613.0</ele><time>2026-04-26T13:47:39.434Z</time></trkpt><trkpt lat="45.8142626" lon="14.233463"><ele>614.5</ele><time>2026-04-26T13:47:40.434Z</time></trkpt><trkpt lat="45.8140388" lon="14.2333292"><ele>616.0</ele><time>2026-04-26T13:47:41.434Z</time></trkpt><trkpt lat="45.8137831" lon="14.2332704"><ele>616.0</ele><time>2026-04-26T13:47:42.434Z</time></trkpt><trkpt lat="45.8135291" lon="14.2332301"><ele>616.0</ele><time>2026-04-26T13:47:43.434Z</time></trkpt><trkpt lat="45.8132904" lon="14.23319"><ele>615.3333333333334</ele><time>2026-04-26T13:47:44.434Z</time></trkpt><trkpt lat="45.8130794" lon="14.2332194"><ele>614.6666666666666</ele><time>2026-04-26T13:47:45.434Z</time></trkpt><trkpt lat="45.8128848" lon="14.2333177"><ele>614.0</ele><time>2026-04-26T13:47:46.434Z</time></trkpt><trkpt lat="45.8127067" lon="14.2334791"><ele>616.3333333333333</ele><time>2026-04-26T13:47:47.434Z</time></trkpt><trkpt lat="45.8125847" lon="14.2336949"><ele>618.6666666666666</ele><time>2026-04-26T13:47:48.434Z</time></trkpt><trkpt lat="45.812481" lon="14.2338861"><ele>621.0</ele><time>2026-04-26T13:47:49.434Z</time></trkpt><trkpt lat="45.8123615" lon="14.234001"><ele>621.0</ele><time>2026-04-26T13:47:50.434Z</time></trkpt><trkpt lat="45.8121747" lon="14.2340165"><ele>621.0</ele><time>2026-04-26T13:47:51.434Z</time></trkpt><trkpt lat="45.8119457" lon="14.2340501"><ele>621.0</ele><time>2026-04-26T13:47:52.434Z</time></trkpt><trkpt lat="45.8117306" lon="14.2340808"><ele>621.6666666666666</ele><time>2026-04-26T13:47:53.434Z</time></trkpt><trkpt lat="45.8115377" lon="14.2340888"><ele>622.3333333333333</ele><time>2026-04-26T13:47:54.434Z</time></trkpt><trkpt lat="45.8113467" lon="14.2340362"><ele>623.0</ele><time>2026-04-26T13:47:55.435Z</time></trkpt><trkpt lat="45.8111845" lon="14.2339158"><ele>622.6666666666666</ele><time>2026-04-26T13:47:56.435Z</time></trkpt><trkpt lat="45.8110514" lon="14.2337372"><ele>622.3333333333334</ele><time>2026-04-26T13:47:57.434Z</time></trkpt><trkpt lat="45.8109308" lon="14.2335312"><ele>622.0</ele><time>2026-04-26T13:47:58.434Z</time></trkpt><trkpt lat="45.8108141" lon="14.2333379"><ele>622.0</ele><time>2026-04-26T13:47:59.434Z</time></trkpt><trkpt lat="45.8106799" lon="14.2332298"><ele>622.0</ele><time>2026-04-26T13:48:00.434Z</time></trkpt><trkpt lat="45.8104998" lon="14.2331809"><ele>622.0</ele><time>2026-04-26T13:48:01.434Z</time></trkpt><trkpt lat="45.8102848" lon="14.2332267"><ele>623.0</ele><time>2026-04-26T13:48:02.434Z</time></trkpt><trkpt lat="45.8100529" lon="14.2332668"><ele>624.0</ele><time>2026-04-26T13:48:03.434Z</time></trkpt><trkpt lat="45.8098161" lon="14.233264"><ele>624.0</ele><time>2026-04-26T13:48:04.434Z</time></trkpt><trkpt lat="45.8095908" lon="14.2332208"><ele>624.0</ele><time>2026-04-26T13:48:05.434Z</time></trkpt><trkpt lat="45.8093611" lon="14.2332552"><ele>626.5</ele><time>2026-04-26T13:48:06.434Z</time></trkpt><trkpt lat="45.8091192" lon="14.233387"><ele>629.0</ele><time>2026-04-26T13:48:07.434Z</time></trkpt><trkpt lat="45.8088767" lon="14.2335219"><ele>629.0</ele><time>2026-04-26T13:48:08.434Z</time></trkpt><trkpt lat="45.8086486" lon="14.2336224"><ele>629.0</ele><time>2026-04-26T13:48:09.434Z</time></trkpt><trkpt lat="45.8084165" lon="14.2336612"><ele>629.0</ele><time>2026-04-26T13:48:10.434Z</time></trkpt><trkpt lat="45.8082025" lon="14.2336622"><ele>629.0</ele><time>2026-04-26T13:48:11.434Z</time></trkpt><trkpt lat="45.8079834" lon="14.2336632"><ele>629.0</ele><time>2026-04-26T13:48:12.434Z</time></trkpt><trkpt lat="45.8077525" lon="14.2336678"><ele>629.0</ele><time>2026-04-26T13:48:13.434Z</time></trkpt><trkpt lat="45.8075331" lon="14.2336963"><ele>629.0</ele><time>2026-04-26T13:48:14.434Z</time></trkpt><trkpt lat="45.8073371" lon="14.2337785"><ele>629.0</ele><time>2026-04-26T13:48:15.435Z</time></trkpt><trkpt lat="45.8071489" lon="14.2339608"><ele>628.5</ele><time>2026-04-26T13:48:16.434Z</time></trkpt><trkpt lat="45.8069977" lon="14.2342361"><ele>628.0</ele><time>2026-04-26T13:48:17.434Z</time></trkpt><trkpt lat="45.8068401" lon="14.2345602"><ele>624.5</ele><time>2026-04-26T13:48:18.434Z</time></trkpt><trkpt lat="45.80668" lon="14.2349225"><ele>621.0</ele><time>2026-04-26T13:48:19.434Z</time></trkpt><trkpt lat="45.8065074" lon="14.2352587"><ele>621.0</ele><time>2026-04-26T13:48:20.434Z</time></trkpt><trkpt lat="45.8063553" lon="14.2355416"><ele>621.0</ele><time>2026-04-26T13:48:21.435Z</time></trkpt><trkpt lat="45.8062245" lon="14.2357825"><ele>622.0</ele><time>2026-04-26T13:48:22.434Z</time></trkpt><trkpt lat="45.806072" lon="14.2359745"><ele>623.0</ele><time>2026-04-26T13:48:23.434Z</time></trkpt><trkpt lat="45.8058819" lon="14.2361289"><ele>624.0</ele><time>2026-04-26T13:48:24.434Z</time></trkpt><trkpt lat="45.80567" lon="14.236223"><ele>617.0</ele><time>2026-04-26T13:48:25.434Z</time></trkpt><trkpt lat="45.8054409" lon="14.2362905"><ele>610.0</ele><time>2026-04-26T13:48:26.434Z</time></trkpt><trkpt lat="45.8052028" lon="14.2363512"><ele>607.5</ele><time>2026-04-26T13:48:27.434Z</time></trkpt><trkpt lat="45.8049746" lon="14.2364185"><ele>605.0</ele><time>2026-04-26T13:48:28.434Z</time></trkpt><trkpt lat="45.8047485" lon="14.2364728"><ele>605.0</ele><time>2026-04-26T13:48:29.434Z</time></trkpt><trkpt lat="45.8045341" lon="14.2364904"><ele>605.0</ele><time>2026-04-26T13:48:30.435Z</time></trkpt><trkpt lat="45.8043239" lon="14.2364725"><ele>605.0</ele><time>2026-04-26T13:48:31.434Z</time></trkpt><trkpt lat="45.8041201" lon="14.2364384"><ele>600.0</ele><time>2026-04-26T13:48:32.434Z</time></trkpt><trkpt lat="45.8039245" lon="14.2363993"><ele>595.0</ele><time>2026-04-26T13:48:33.434Z</time></trkpt><trkpt lat="45.8037408" lon="14.2363826"><ele>590.0</ele><time>2026-04-26T13:48:34.434Z</time></trkpt><trkpt lat="45.8035652" lon="14.2364334"><ele>589.6666666666666</ele><time>2026-04-26T13:48:35.434Z</time></trkpt><trkpt lat="45.8033892" lon="14.2365404"><ele>589.3333333333334</ele><time>2026-04-26T13:48:36.434Z</time></trkpt><trkpt lat="45.8032033" lon="14.2366694"><ele>589.0</ele><time>2026-04-26T13:48:37.434Z</time></trkpt><trkpt lat="45.803013" lon="14.2367836"><ele>589.0</ele><time>2026-04-26T13:48:38.434Z</time></trkpt><trkpt lat="45.8028128" lon="14.2368588"><ele>589.0</ele><time>2026-04-26T13:48:39.434Z</time></trkpt><trkpt lat="45.8025889" lon="14.2368862"><ele>589.0</ele><time>2026-04-26T13:48:40.434Z</time></trkpt><trkpt lat="45.8023697" lon="14.2369085"><ele>588.5</ele><time>2026-04-26T13:48:41.434Z</time></trkpt><trkpt lat="45.8021455" lon="14.2369528"><ele>588.0</ele><time>2026-04-26T13:48:42.434Z</time></trkpt><trkpt lat="45.8019143" lon="14.2370491"><ele>594.0</ele><time>2026-04-26T13:48:43.434Z</time></trkpt><trkpt lat="45.8016922" lon="14.23721"><ele>600.0</ele><time>2026-04-26T13:48:44.434Z</time></trkpt><trkpt lat="45.8014803" lon="14.2373862"><ele>600.0</ele><time>2026-04-26T13:48:45.434Z</time></trkpt><trkpt lat="45.8012841" lon="14.2375807"><ele>600.0</ele><time>2026-04-26T13:48:46.434Z</time></trkpt><trkpt lat="45.8010987" lon="14.2377066"><ele>600.0</ele><time>2026-04-26T13:48:47.435Z</time></trkpt><trkpt lat="45.8009108" lon="14.2377948"><ele>602.0</ele><time>2026-04-26T13:48:48.435Z</time></trkpt><trkpt lat="45.8007184" lon="14.2378305"><ele>604.0</ele><time>2026-04-26T13:48:49.434Z</time></trkpt><trkpt lat="45.8005375" lon="14.2378522"><ele>606.0</ele><time>2026-04-26T13:48:50.435Z</time></trkpt><trkpt lat="45.8003879" lon="14.2378285"><ele>606.0</ele><time>2026-04-26T13:48:51.434Z</time></trkpt><trkpt lat="45.8002499" lon="14.237739"><ele>606.0</ele><time>2026-04-26T13:48:52.434Z</time></trkpt><trkpt lat="45.8001448" lon="14.2375808"><ele>606.0</ele><time>2026-04-26T13:48:53.434Z</time></trkpt><trkpt lat="45.8000452" lon="14.2373842"><ele>602.0</ele><time>2026-04-26T13:48:54.434Z</time></trkpt><trkpt lat="45.7999527" lon="14.2371535"><ele>598.0</ele><time>2026-04-26T13:48:55.434Z</time></trkpt><trkpt lat="45.7998458" lon="14.2369025"><ele>594.0</ele><time>2026-04-26T13:48:56.434Z</time></trkpt><trkpt lat="45.7997152" lon="14.2366661"><ele>595.5</ele><time>2026-04-26T13:48:57.435Z</time></trkpt><trkpt lat="45.7995596" lon="14.2364169"><ele>597.0</ele><time>2026-04-26T13:48:58.434Z</time></trkpt><trkpt lat="45.7993899" lon="14.2361654"><ele>597.6666666666666</ele><time>2026-04-26T13:48:59.434Z</time></trkpt><trkpt lat="45.7992305" lon="14.2359257"><ele>598.3333333333333</ele><time>2026-04-26T13:49:00.434Z</time></trkpt><trkpt lat="45.7990948" lon="14.2356918"><ele>599.0</ele><time>2026-04-26T13:49:01.434Z</time></trkpt><trkpt lat="45.7989625" lon="14.2354914"><ele>599.0</ele><time>2026-04-26T13:49:02.434Z</time></trkpt><trkpt lat="45.7987971" lon="14.2353313"><ele>599.0</ele><time>2026-04-26T13:49:03.434Z</time></trkpt><trkpt lat="45.7986049" lon="14.235259"><ele>599.0</ele><time>2026-04-26T13:49:04.434Z</time></trkpt><trkpt lat="45.7983774" lon="14.2352889"><ele>599.0</ele><time>2026-04-26T13:49:05.434Z</time></trkpt><trkpt lat="45.7981381" lon="14.2353919"><ele>599.0</ele><time>2026-04-26T13:49:06.434Z</time></trkpt><trkpt lat="45.7979053" lon="14.2355175"><ele>598.0</ele><time>2026-04-26T13:49:07.435Z</time></trkpt><trkpt lat="45.7976875" lon="14.2356446"><ele>597.0</ele><time>2026-04-26T13:49:08.434Z</time></trkpt><trkpt lat="45.7974803" lon="14.2357025"><ele>596.0</ele><time>2026-04-26T13:49:09.434Z</time></trkpt><trkpt lat="45.7972731" lon="14.2357208"><ele>596.0</ele><time>2026-04-26T13:49:10.434Z</time></trkpt><trkpt lat="45.79706" lon="14.2357091"><ele>596.0</ele><time>2026-04-26T13:49:11.434Z</time></trkpt><trkpt lat="45.7968594" lon="14.2356656"><ele>596.0</ele><time>2026-04-26T13:49:12.434Z</time></trkpt><trkpt lat="45.7966619" lon="14.2355834"><ele>599.3333333333333</ele><time>2026-04-26T13:49:13.434Z</time></trkpt><trkpt lat="45.7964853" lon="14.2354475"><ele>602.6666666666666</ele><time>2026-04-26T13:49:14.434Z</time></trkpt><trkpt lat="45.7963284" lon="14.2352638"><ele>606.0</ele><time>2026-04-26T13:49:15.434Z</time></trkpt><trkpt lat="45.7961933" lon="14.2350609"><ele>606.0</ele><time>2026-04-26T13:49:16.435Z</time></trkpt><trkpt lat="45.7960778" lon="14.2348544"><ele>606.0</ele><time>2026-04-26T13:49:17.434Z</time></trkpt><trkpt lat="45.7959774" lon="14.234629"><ele>606.0</ele><time>2026-04-26T13:49:18.434Z</time></trkpt><trkpt lat="45.795881" lon="14.2343941"><ele>605.6666666666666</ele><time>2026-04-26T13:49:19.434Z</time></trkpt><trkpt lat="45.7957852" lon="14.2341591"><ele>605.3333333333333</ele><time>2026-04-26T13:49:20.434Z</time></trkpt><trkpt lat="45.7956851" lon="14.2339217"><ele>605.0</ele><time>2026-04-26T13:49:21.435Z</time></trkpt><trkpt lat="45.7955846" lon="14.2336874"><ele>607.6666666666666</ele><time>2026-04-26T13:49:22.434Z</time></trkpt><trkpt lat="45.7954927" lon="14.2334475"><ele>610.3333333333334</ele><time>2026-04-26T13:49:23.434Z</time></trkpt><trkpt lat="45.795399" lon="14.2332107"><ele>613.0</ele><time>2026-04-26T13:49:24.434Z</time></trkpt><trkpt lat="45.7952987" lon="14.2329746"><ele>615.6666666666667</ele><time>2026-04-26T13:49:25.434Z</time></trkpt><trkpt lat="45.7952016" lon="14.2327377"><ele>618.3333333333334</ele><time>2026-04-26T13:49:26.434Z</time></trkpt><trkpt lat="45.7951013" lon="14.2324972"><ele>621.0</ele><time>2026-04-26T13:49:27.434Z</time></trkpt><trkpt lat="45.7950012" lon="14.2322595"><ele>614.3333333333334</ele><time>2026-04-26T13:49:28.434Z</time></trkpt><trkpt lat="45.7948989" lon="14.2320169"><ele>607.6666666666667</ele><time>2026-04-26T13:49:29.434Z</time></trkpt><trkpt lat="45.7947907" lon="14.2317761"><ele>601.0</ele><time>2026-04-26T13:49:30.434Z</time></trkpt><trkpt lat="45.7946897" lon="14.2315246"><ele>601.0</ele><time>2026-04-26T13:49:31.434Z</time></trkpt><trkpt lat="45.7945893" lon="14.2312699"><ele>601.0</ele><time>2026-04-26T13:49:32.434Z</time></trkpt><trkpt lat="45.7944828" lon="14.2310136"><ele>601.0</ele><time>2026-04-26T13:49:33.434Z</time></trkpt><trkpt lat="45.7943774" lon="14.2307581"><ele>599.6666666666667</ele><time>2026-04-26T13:49:34.434Z</time></trkpt><trkpt lat="45.7942661" lon="14.2305007"><ele>598.3333333333334</ele><time>2026-04-26T13:49:35.434Z</time></trkpt><trkpt lat="45.7941657" lon="14.2302457"><ele>597.0</ele><time>2026-04-26T13:49:36.434Z</time></trkpt><trkpt lat="45.7940642" lon="14.2300002"><ele>597.6666666666666</ele><time>2026-04-26T13:49:37.434Z</time></trkpt><trkpt lat="45.7939629" lon="14.229776"><ele>598.3333333333333</ele><time>2026-04-26T13:49:38.434Z</time></trkpt><trkpt lat="45.7938526" lon="14.2295759"><ele>599.0</ele><time>2026-04-26T13:49:39.434Z</time></trkpt><trkpt lat="45.7937296" lon="14.2293931"><ele>599.0</ele><time>2026-04-26T13:49:40.434Z</time></trkpt><trkpt lat="45.7935863" lon="14.2292263"><ele>599.0</ele><time>2026-04-26T13:49:41.434Z</time></trkpt><trkpt lat="45.7934288" lon="14.2291007"><ele>599.0</ele><time>2026-04-26T13:49:42.435Z</time></trkpt><trkpt lat="45.7932486" lon="14.2290044"><ele>596.6666666666666</ele><time>2026-04-26T13:49:43.434Z</time></trkpt><trkpt lat="45.7930512" lon="14.2289334"><ele>594.3333333333334</ele><time>2026-04-26T13:49:44.434Z</time></trkpt><trkpt lat="45.792846" lon="14.2288654"><ele>592.0</ele><time>2026-04-26T13:49:45.434Z</time></trkpt><trkpt lat="45.7926296" lon="14.2287872"><ele>589.5</ele><time>2026-04-26T13:49:46.434Z</time></trkpt><trkpt lat="45.7924096" lon="14.228703"><ele>587.0</ele><time>2026-04-26T13:49:47.434Z</time></trkpt><trkpt lat="45.7921926" lon="14.22863"><ele>587.0</ele><time>2026-04-26T13:49:48.434Z</time></trkpt><trkpt lat="45.7919797" lon="14.228562"><ele>587.0</ele><time>2026-04-26T13:49:49.434Z</time></trkpt><trkpt lat="45.7917655" lon="14.2284861"><ele>587.0</ele><time>2026-04-26T13:49:50.434Z</time></trkpt><trkpt lat="45.7915585" lon="14.2284159"><ele>588.0</ele><time>2026-04-26T13:49:51.434Z</time></trkpt><trkpt lat="45.7913559" lon="14.2283433"><ele>589.0</ele><time>2026-04-26T13:49:52.434Z</time></trkpt><trkpt lat="45.7911609" lon="14.2282703"><ele>590.0</ele><time>2026-04-26T13:49:53.434Z</time></trkpt><trkpt lat="45.7909767" lon="14.2281938"><ele>585.3333333333333</ele><time>2026-04-26T13:49:54.434Z</time></trkpt><trkpt lat="45.7907934" lon="14.2281199"><ele>580.6666666666666</ele><time>2026-04-26T13:49:55.434Z</time></trkpt><trkpt lat="45.7906367" lon="14.2280552"><ele>576.0</ele><time>2026-04-26T13:49:56.434Z</time></trkpt><trkpt lat="45.7904898" lon="14.227998"><ele>576.0</ele><time>2026-04-26T13:49:57.434Z</time></trkpt><trkpt lat="45.7903448" lon="14.2279203"><ele>576.0</ele><time>2026-04-26T13:49:58.434Z</time></trkpt><trkpt lat="45.7902018" lon="14.2278027"><ele>576.0</ele><time>2026-04-26T13:49:59.434Z</time></trkpt><trkpt lat="45.7900726" lon="14.2276491"><ele>578.0</ele><time>2026-04-26T13:50:00.435Z</time></trkpt><trkpt lat="45.7899664" lon="14.2274419"><ele>580.0</ele><time>2026-04-26T13:50:01.434Z</time></trkpt><trkpt lat="45.7898692" lon="14.2272191"><ele>582.0</ele><time>2026-04-26T13:50:02.434Z</time></trkpt><trkpt lat="45.7897751" lon="14.226979"><ele>582.0</ele><time>2026-04-26T13:50:03.434Z</time></trkpt><trkpt lat="45.7896746" lon="14.226739"><ele>582.0</ele><time>2026-04-26T13:50:04.434Z</time></trkpt><trkpt lat="45.789571" lon="14.2265002"><ele>582.0</ele><time>2026-04-26T13:50:05.434Z</time></trkpt><trkpt lat="45.7894644" lon="14.2262584"><ele>582.3333333333334</ele><time>2026-04-26T13:50:06.434Z</time></trkpt><trkpt lat="45.7893589" lon="14.2260078"><ele>582.6666666666667</ele><time>2026-04-26T13:50:07.434Z</time></trkpt><trkpt lat="45.7892495" lon="14.2257525"><ele>583.0</ele><time>2026-04-26T13:50:08.434Z</time></trkpt><trkpt lat="45.7891393" lon="14.2255027"><ele>584.3333333333334</ele><time>2026-04-26T13:50:09.434Z</time></trkpt><trkpt lat="45.7890299" lon="14.2252424"><ele>585.6666666666666</ele><time>2026-04-26T13:50:10.434Z</time></trkpt><trkpt lat="45.7889155" lon="14.2249792"><ele>587.0</ele><time>2026-04-26T13:50:11.435Z</time></trkpt><trkpt lat="45.7887965" lon="14.2247202"><ele>587.0</ele><time>2026-04-26T13:50:12.435Z</time></trkpt><trkpt lat="45.7886735" lon="14.2244732"><ele>587.0</ele><time>2026-04-26T13:50:13.434Z</time></trkpt><trkpt lat="45.7885519" lon="14.2242317"><ele>587.0</ele><time>2026-04-26T13:50:14.434Z</time></trkpt><trkpt lat="45.7884255" lon="14.2240042"><ele>588.0</ele><time>2026-04-26T13:50:15.434Z</time></trkpt><trkpt lat="45.7882848" lon="14.2237939"><ele>589.0</ele><time>2026-04-26T13:50:16.435Z</time></trkpt><trkpt lat="45.7881161" lon="14.2236155"><ele>590.0</ele><time>2026-04-26T13:50:17.434Z</time></trkpt><trkpt lat="45.787932" lon="14.2234489"><ele>590.0</ele><time>2026-04-26T13:50:18.434Z</time></trkpt><trkpt lat="45.7877433" lon="14.2232877"><ele>590.0</ele><time>2026-04-26T13:50:19.435Z</time></trkpt><trkpt lat="45.7875527" lon="14.223115"><ele>590.0</ele><time>2026-04-26T13:50:20.434Z</time></trkpt><trkpt lat="45.7873549" lon="14.2229229"><ele>588.0</ele><time>2026-04-26T13:50:21.434Z</time></trkpt><trkpt lat="45.787154" lon="14.2227327"><ele>586.0</ele><time>2026-04-26T13:50:22.434Z</time></trkpt><trkpt lat="45.7869585" lon="14.2225402"><ele>587.3333333333334</ele><time>2026-04-26T13:50:23.434Z</time></trkpt><trkpt lat="45.7867883" lon="14.2223453"><ele>588.6666666666666</ele><time>2026-04-26T13:50:24.434Z</time></trkpt><trkpt lat="45.7866321" lon="14.2221397"><ele>590.0</ele><time>2026-04-26T13:50:25.434Z</time></trkpt><trkpt lat="45.7864839" lon="14.221945"><ele>590.6666666666666</ele><time>2026-04-26T13:50:26.434Z</time></trkpt><trkpt lat="45.7863413" lon="14.2217686"><ele>591.3333333333334</ele><time>2026-04-26T13:50:27.434Z</time></trkpt><trkpt lat="45.7862022" lon="14.2215992"><ele>592.0</ele><time>2026-04-26T13:50:28.434Z</time></trkpt><trkpt lat="45.786059" lon="14.2214364"><ele>596.3333333333334</ele><time>2026-04-26T13:50:29.434Z</time></trkpt><trkpt lat="45.7859087" lon="14.2212983"><ele>600.6666666666666</ele><time>2026-04-26T13:50:30.435Z</time></trkpt><trkpt lat="45.7857339" lon="14.2212091"><ele>605.0</ele><time>2026-04-26T13:50:31.434Z</time></trkpt><trkpt lat="45.7855389" lon="14.2211568"><ele>605.0</ele><time>2026-04-26T13:50:32.434Z</time></trkpt><trkpt lat="45.7853509" lon="14.2211236"><ele>605.0</ele><time>2026-04-26T13:50:33.434Z</time></trkpt><trkpt lat="45.7851794" lon="14.2210895"><ele>605.0</ele><time>2026-04-26T13:50:34.434Z</time></trkpt><trkpt lat="45.7850155" lon="14.2210344"><ele>602.3333333333333</ele><time>2026-04-26T13:50:35.434Z</time></trkpt><trkpt lat="45.7848644" lon="14.2209489"><ele>599.6666666666666</ele><time>2026-04-26T13:50:36.434Z</time></trkpt><trkpt lat="45.784708" lon="14.220858"><ele>597.0</ele><time>2026-04-26T13:50:37.434Z</time></trkpt><trkpt lat="45.7845613" lon="14.2207398"><ele>595.0</ele><time>2026-04-26T13:50:38.434Z</time></trkpt><trkpt lat="45.7844222" lon="14.2206083"><ele>593.0</ele><time>2026-04-26T13:50:39.434Z</time></trkpt><trkpt lat="45.7843094" lon="14.2204379"><ele>591.0</ele><time>2026-04-26T13:50:40.434Z</time></trkpt><trkpt lat="45.784202" lon="14.220239"><ele>591.0</ele><time>2026-04-26T13:50:41.434Z</time></trkpt><trkpt lat="45.7840837" lon="14.2200426"><ele>591.0</ele><time>2026-04-26T13:50:42.434Z</time></trkpt><trkpt lat="45.7839615" lon="14.219864"><ele>591.0</ele><time>2026-04-26T13:50:43.435Z</time></trkpt><trkpt lat="45.7838383" lon="14.2196964"><ele>590.6666666666666</ele><time>2026-04-26T13:50:44.434Z</time></trkpt><trkpt lat="45.7837087" lon="14.219545"><ele>590.3333333333333</ele><time>2026-04-26T13:50:45.434Z</time></trkpt><trkpt lat="45.7835678" lon="14.2194045"><ele>590.0</ele><time>2026-04-26T13:50:46.434Z</time></trkpt><trkpt lat="45.7834288" lon="14.2192717"><ele>590.0</ele><time>2026-04-26T13:50:47.434Z</time></trkpt><trkpt lat="45.7832929" lon="14.2191352"><ele>590.0</ele><time>2026-04-26T13:50:48.434Z</time></trkpt><trkpt lat="45.783156" lon="14.2190035"><ele>590.0</ele><time>2026-04-26T13:50:49.434Z</time></trkpt><trkpt lat="45.7830217" lon="14.218875"><ele>590.3333333333333</ele><time>2026-04-26T13:50:50.434Z</time></trkpt><trkpt lat="45.782883" lon="14.2187535"><ele>590.6666666666666</ele><time>2026-04-26T13:50:51.434Z</time></trkpt><trkpt lat="45.7827405" lon="14.21864"><ele>591.0</ele><time>2026-04-26T13:50:52.434Z</time></trkpt><trkpt lat="45.7825994" lon="14.218542"><ele>591.0</ele><time>2026-04-26T13:50:53.434Z</time></trkpt><trkpt lat="45.7824738" lon="14.2184418"><ele>591.0</ele><time>2026-04-26T13:50:54.435Z</time></trkpt><trkpt lat="45.7823601" lon="14.2183351"><ele>591.0</ele><time>2026-04-26T13:50:55.434Z</time></trkpt><trkpt lat="45.7822666" lon="14.2182296"><ele>591.0</ele><time>2026-04-26T13:50:56.434Z</time></trkpt><trkpt lat="45.7821815" lon="14.2180962"><ele>591.0</ele><time>2026-04-26T13:50:57.434Z</time></trkpt><trkpt lat="45.7820993" lon="14.21795"><ele>591.0</ele><time>2026-04-26T13:50:58.434Z</time></trkpt><trkpt lat="45.7820272" lon="14.2177899"><ele>591.0</ele><time>2026-04-26T13:50:59.434Z</time></trkpt><trkpt lat="45.7819795" lon="14.2176035"><ele>591.0</ele><time>2026-04-26T13:51:00.434Z</time></trkpt><trkpt lat="45.7819375" lon="14.2174227"><ele>591.25</ele><time>2026-04-26T13:51:01.434Z</time></trkpt><trkpt lat="45.7818972" lon="14.2172407"><ele>591.5</ele><time>2026-04-26T13:51:02.435Z</time></trkpt><trkpt lat="45.7818548" lon="14.2170751"><ele>591.75</ele><time>2026-04-26T13:51:03.435Z</time></trkpt><trkpt lat="45.7817998" lon="14.216931"><ele>592.0</ele><time>2026-04-26T13:51:04.434Z</time></trkpt><trkpt lat="45.7817353" lon="14.2168002"><ele>589.75</ele><time>2026-04-26T13:51:05.434Z</time></trkpt><trkpt lat="45.7816455" lon="14.2166922"><ele>587.5</ele><time>2026-04-26T13:51:06.434Z</time></trkpt><trkpt lat="45.7815388" lon="14.2166051"><ele>585.25</ele><time>2026-04-26T13:51:07.434Z</time></trkpt><trkpt lat="45.7814172" lon="14.2165497"><ele>583.0</ele><time>2026-04-26T13:51:08.434Z</time></trkpt><trkpt lat="45.781286" lon="14.2165135"><ele>583.0</ele><time>2026-04-26T13:51:09.435Z</time></trkpt><trkpt lat="45.7811447" lon="14.2164913"><ele>583.0</ele><time>2026-04-26T13:51:10.434Z</time></trkpt><trkpt lat="45.7810021" lon="14.2164907"><ele>583.0</ele><time>2026-04-26T13:51:11.434Z</time></trkpt><trkpt lat="45.7808535" lon="14.216507"><ele>583.0</ele><time>2026-04-26T13:51:12.434Z</time></trkpt><trkpt lat="45.7807072" lon="14.2165278"><ele>581.75</ele><time>2026-04-26T13:51:13.435Z</time></trkpt><trkpt lat="45.7805638" lon="14.2165579"><ele>580.5</ele><time>2026-04-26T13:51:14.434Z</time></trkpt><trkpt lat="45.7804224" lon="14.2165896"><ele>579.25</ele><time>2026-04-26T13:51:15.435Z</time></trkpt><trkpt lat="45.780288" lon="14.2166284"><ele>578.0</ele><time>2026-04-26T13:51:16.434Z</time></trkpt><trkpt lat="45.7801557" lon="14.2166504"><ele>577.25</ele><time>2026-04-26T13:51:17.434Z</time></trkpt><trkpt lat="45.7800335" lon="14.2166688"><ele>576.5</ele><time>2026-04-26T13:51:18.434Z</time></trkpt><trkpt lat="45.7799151" lon="14.2166711"><ele>575.75</ele><time>2026-04-26T13:51:19.434Z</time></trkpt><trkpt lat="45.7797963" lon="14.2166546"><ele>575.0</ele><time>2026-04-26T13:51:20.434Z</time></trkpt><trkpt lat="45.7796737" lon="14.2166162"><ele>575.0</ele><time>2026-04-26T13:51:21.434Z</time></trkpt><trkpt lat="45.7795517" lon="14.2165617"><ele>575.0</ele><time>2026-04-26T13:51:22.434Z</time></trkpt><trkpt lat="45.7794354" lon="14.2164921"><ele>575.0</ele><time>2026-04-26T13:51:23.434Z</time></trkpt><trkpt lat="45.7793223" lon="14.2164171"><ele>575.0</ele><time>2026-04-26T13:51:24.434Z</time></trkpt><trkpt lat="45.7792012" lon="14.2163434"><ele>575.25</ele><time>2026-04-26T13:51:25.434Z</time></trkpt><trkpt lat="45.7790799" lon="14.2162763"><ele>575.5</ele><time>2026-04-26T13:51:26.434Z</time></trkpt><trkpt lat="45.7789463" lon="14.2162328"><ele>575.75</ele><time>2026-04-26T13:51:27.434Z</time></trkpt><trkpt lat="45.7788086" lon="14.216211"><ele>576.0</ele><time>2026-04-26T13:51:28.434Z</time></trkpt><trkpt lat="45.7786682" lon="14.2161957"><ele>576.0</ele><time>2026-04-26T13:51:29.434Z</time></trkpt><trkpt lat="45.7785261" lon="14.2161885"><ele>576.0</ele><time>2026-04-26T13:51:30.434Z</time></trkpt><trkpt lat="45.7783866" lon="14.2161814"><ele>576.0</ele><time>2026-04-26T13:51:31.434Z</time></trkpt><trkpt lat="45.7782587" lon="14.2161691"><ele>576.0</ele><time>2026-04-26T13:51:32.434Z</time></trkpt><trkpt lat="45.7781326" lon="14.2161498"><ele>575.5</ele><time>2026-04-26T13:51:33.434Z</time></trkpt><trkpt lat="45.7780079" lon="14.216118"><ele>575.0</ele><time>2026-04-26T13:51:34.434Z</time></trkpt><trkpt lat="45.7778846" lon="14.2160746"><ele>574.5</ele><time>2026-04-26T13:51:35.434Z</time></trkpt><trkpt lat="45.7777549" lon="14.2160247"><ele>574.0</ele><time>2026-04-26T13:51:36.435Z</time></trkpt><trkpt lat="45.7776272" lon="14.2159699"><ele>572.5</ele><time>2026-04-26T13:51:37.434Z</time></trkpt><trkpt lat="45.7774979" lon="14.2159139"><ele>571.0</ele><time>2026-04-26T13:51:38.434Z</time></trkpt><trkpt lat="45.7773593" lon="14.2158566"><ele>569.5</ele><time>2026-04-26T13:51:39.434Z</time></trkpt><trkpt lat="45.7772118" lon="14.2157897"><ele>568.0</ele><time>2026-04-26T13:51:40.434Z</time></trkpt><trkpt lat="45.7770664" lon="14.215701"><ele>565.3333333333334</ele><time>2026-04-26T13:51:41.434Z</time></trkpt><trkpt lat="45.7769188" lon="14.2156082"><ele>562.6666666666666</ele><time>2026-04-26T13:51:42.435Z</time></trkpt><trkpt lat="45.7767785" lon="14.2155157"><ele>560.0</ele><time>2026-04-26T13:51:43.434Z</time></trkpt><trkpt lat="45.7766428" lon="14.2154258"><ele>560.0</ele><time>2026-04-26T13:51:44.435Z</time></trkpt><trkpt lat="45.7765192" lon="14.2153225"><ele>560.0</ele><time>2026-04-26T13:51:45.434Z</time></trkpt><trkpt lat="45.7764044" lon="14.2152123"><ele>560.0</ele><time>2026-04-26T13:51:46.434Z</time></trkpt><trkpt lat="45.776296" lon="14.21508"><ele>560.0</ele><time>2026-04-26T13:51:47.434Z</time></trkpt><trkpt lat="45.7761913" lon="14.2149342"><ele>558.5</ele><time>2026-04-26T13:51:48.434Z</time></trkpt><trkpt lat="45.7760833" lon="14.2147892"><ele>557.0</ele><time>2026-04-26T13:51:49.434Z</time></trkpt><trkpt lat="45.7759903" lon="14.2146472"><ele>555.5</ele><time>2026-04-26T13:51:50.434Z</time></trkpt><trkpt lat="45.7758975" lon="14.2145101"><ele>554.0</ele><time>2026-04-26T13:51:51.434Z</time></trkpt><trkpt lat="45.7758059" lon="14.2143781"><ele>554.0</ele><time>2026-04-26T13:51:52.434Z</time></trkpt><trkpt lat="45.7757206" lon="14.2142506"><ele>554.0</ele><time>2026-04-26T13:51:53.434Z</time></trkpt><trkpt lat="45.7756354" lon="14.2141346"><ele>554.0</ele><time>2026-04-26T13:51:54.435Z</time></trkpt><trkpt lat="45.775556" lon="14.214026"><ele>554.0</ele><time>2026-04-26T13:51:55.434Z</time></trkpt><trkpt lat="45.7754797" lon="14.2139216"><ele>554.0</ele><time>2026-04-26T13:51:56.434Z</time></trkpt><trkpt lat="45.7754091" lon="14.2138197"><ele>554.0</ele><time>2026-04-26T13:51:57.434Z</time></trkpt><trkpt lat="45.7753372" lon="14.2137348"><ele>554.0</ele><time>2026-04-26T13:51:58.434Z</time></trkpt><trkpt lat="45.7752768" lon="14.2136502"><ele>554.0</ele><time>2026-04-26T13:51:59.434Z</time></trkpt><trkpt lat="45.7752152" lon="14.2135766"><ele>554.0</ele><time>2026-04-26T13:52:00.434Z</time></trkpt><trkpt lat="45.7751552" lon="14.2135023"><ele>554.0</ele><time>2026-04-26T13:52:01.434Z</time></trkpt><trkpt lat="45.7751001" lon="14.2134315"><ele>553.1666666666666</ele><time>2026-04-26T13:52:02.434Z</time></trkpt><trkpt lat="45.7750494" lon="14.2133712"><ele>552.3333333333333</ele><time>2026-04-26T13:52:03.434Z</time></trkpt><trkpt lat="45.7749926" lon="14.213309"><ele>551.5</ele><time>2026-04-26T13:52:04.434Z</time></trkpt><trkpt lat="45.7749267" lon="14.2132318"><ele>550.6666666666666</ele><time>2026-04-26T13:52:05.434Z</time></trkpt><trkpt lat="45.7748584" lon="14.2131464"><ele>549.8333333333334</ele><time>2026-04-26T13:52:06.434Z</time></trkpt><trkpt lat="45.7747862" lon="14.2130585"><ele>549.0</ele><time>2026-04-26T13:52:07.435Z</time></trkpt><trkpt lat="45.7747201" lon="14.2129774"><ele>549.0</ele><time>2026-04-26T13:52:08.434Z</time></trkpt><trkpt lat="45.774659" lon="14.2128915"><ele>549.0</ele><time>2026-04-26T13:52:09.434Z</time></trkpt><trkpt lat="45.7745947" lon="14.2128039"><ele>549.0</ele><time>2026-04-26T13:52:10.434Z</time></trkpt><trkpt lat="45.7745214" lon="14.2127075"><ele>549.0</ele><time>2026-04-26T13:52:11.434Z</time></trkpt><trkpt lat="45.7744362" lon="14.2126048"><ele>549.0</ele><time>2026-04-26T13:52:12.434Z</time></trkpt><trkpt lat="45.7743347" lon="14.212495"><ele>548.5</ele><time>2026-04-26T13:52:13.435Z</time></trkpt><trkpt lat="45.7742203" lon="14.2123798"><ele>548.0</ele><time>2026-04-26T13:52:14.434Z</time></trkpt><trkpt lat="45.7741075" lon="14.2122476"><ele>547.5</ele><time>2026-04-26T13:52:15.434Z</time></trkpt><trkpt lat="45.7739903" lon="14.2121127"><ele>547.0</ele><time>2026-04-26T13:52:16.435Z</time></trkpt><trkpt lat="45.7738701" lon="14.2119634"><ele>546.5</ele><time>2026-04-26T13:52:17.435Z</time></trkpt><trkpt lat="45.7737524" lon="14.21181"><ele>546.0</ele><time>2026-04-26T13:52:18.435Z</time></trkpt><trkpt lat="45.7736435" lon="14.2116716"><ele>545.5</ele><time>2026-04-26T13:52:19.434Z</time></trkpt><trkpt lat="45.773542" lon="14.2115323"><ele>545.0</ele><time>2026-04-26T13:52:20.434Z</time></trkpt><trkpt lat="45.773449" lon="14.211397"><ele>544.2</ele><time>2026-04-26T13:52:21.434Z</time></trkpt><trkpt lat="45.7733647" lon="14.2112685"><ele>543.4</ele><time>2026-04-26T13:52:22.434Z</time></trkpt><trkpt lat="45.7732856" lon="14.2111437"><ele>542.6</ele><time>2026-04-26T13:52:23.435Z</time></trkpt><trkpt lat="45.7732132" lon="14.211023"><ele>541.8</ele><time>2026-04-26T13:52:24.434Z</time></trkpt><trkpt lat="45.7731493" lon="14.2109196"><ele>541.0</ele><time>2026-04-26T13:52:25.434Z</time></trkpt><trkpt lat="45.7731071" lon="14.2108418"><ele>541.0</ele><time>2026-04-26T13:52:26.434Z</time></trkpt><trkpt lat="45.7730405" lon="14.2107026"><ele>541.0</ele><time>2026-04-26T13:52:28.434Z</time></trkpt><trkpt lat="45.7730135" lon="14.2106175"><ele>541.0</ele><time>2026-04-26T13:52:29.434Z</time></trkpt><trkpt lat="45.7729872" lon="14.2105154"><ele>541.0</ele><time>2026-04-26T13:52:30.434Z</time></trkpt><trkpt lat="45.7729491" lon="14.2104157"><ele>541.0</ele><time>2026-04-26T13:52:31.434Z</time></trkpt><trkpt lat="45.772882" lon="14.2103292"><ele>541.0</ele><time>2026-04-26T13:52:32.434Z</time></trkpt><trkpt lat="45.7728178" lon="14.2102298"><ele>541.2</ele><time>2026-04-26T13:52:33.434Z</time></trkpt><trkpt lat="45.7727617" lon="14.2101138"><ele>541.4000000000001</ele><time>2026-04-26T13:52:34.434Z</time></trkpt><trkpt lat="45.7727151" lon="14.2099869"><ele>541.6</ele><time>2026-04-26T13:52:35.434Z</time></trkpt><trkpt lat="45.7726707" lon="14.2098501"><ele>541.8000000000001</ele><time>2026-04-26T13:52:36.434Z</time></trkpt><trkpt lat="45.7726176" lon="14.2097"><ele>542.0</ele><time>2026-04-26T13:52:37.434Z</time></trkpt><trkpt lat="45.7725626" lon="14.2095463"><ele>540.75</ele><time>2026-04-26T13:52:38.434Z</time></trkpt><trkpt lat="45.7725073" lon="14.2093867"><ele>539.5</ele><time>2026-04-26T13:52:39.434Z</time></trkpt><trkpt lat="45.7724501" lon="14.2092063"><ele>538.25</ele><time>2026-04-26T13:52:40.434Z</time></trkpt><trkpt lat="45.7723914" lon="14.2090181"><ele>537.0</ele><time>2026-04-26T13:52:41.435Z</time></trkpt><trkpt lat="45.7723337" lon="14.208814"><ele>537.0</ele><time>2026-04-26T13:52:42.434Z</time></trkpt><trkpt lat="45.7722719" lon="14.2085874"><ele>537.0</ele><time>2026-04-26T13:52:43.435Z</time></trkpt><trkpt lat="45.772198" lon="14.2083234"><ele>537.0</ele><time>2026-04-26T13:52:44.434Z</time></trkpt><trkpt lat="45.7721236" lon="14.2080184"><ele>537.5</ele><time>2026-04-26T13:52:45.434Z</time></trkpt><trkpt lat="45.7720633" lon="14.2077002"><ele>538.0</ele><time>2026-04-26T13:52:46.434Z</time></trkpt><trkpt lat="45.7720081" lon="14.2073861"><ele>538.5</ele><time>2026-04-26T13:52:47.434Z</time></trkpt><trkpt lat="45.7719547" lon="14.2070672"><ele>539.0</ele><time>2026-04-26T13:52:48.434Z</time></trkpt><trkpt lat="45.7719069" lon="14.2067528"><ele>539.3333333333333</ele><time>2026-04-26T13:52:49.434Z</time></trkpt><trkpt lat="45.7718718" lon="14.20647"><ele>539.6666666666666</ele><time>2026-04-26T13:52:50.434Z</time></trkpt><trkpt lat="45.7718354" lon="14.2062118"><ele>540.0</ele><time>2026-04-26T13:52:51.434Z</time></trkpt><trkpt lat="45.7717969" lon="14.2060122"><ele>538.6</ele><time>2026-04-26T13:52:52.434Z</time></trkpt><trkpt lat="45.7717851" lon="14.2058644"><ele>537.2</ele><time>2026-04-26T13:52:53.434Z</time></trkpt><trkpt lat="45.7717744" lon="14.2057495"><ele>535.8</ele><time>2026-04-26T13:52:54.435Z</time></trkpt><trkpt lat="45.7717639" lon="14.2056337"><ele>534.4</ele><time>2026-04-26T13:52:55.434Z</time></trkpt><trkpt lat="45.7717375" lon="14.2055046"><ele>533.0</ele><time>2026-04-26T13:52:56.434Z</time></trkpt><trkpt lat="45.7716917" lon="14.2053661"><ele>533.0</ele><time>2026-04-26T13:52:57.435Z</time></trkpt><trkpt lat="45.7716496" lon="14.2052038"><ele>533.0</ele><time>2026-04-26T13:52:58.434Z</time></trkpt><trkpt lat="45.7716254" lon="14.2050325"><ele>533.0</ele><time>2026-04-26T13:52:59.434Z</time></trkpt><trkpt lat="45.771592" lon="14.2048594"><ele>533.0</ele><time>2026-04-26T13:53:00.434Z</time></trkpt><trkpt lat="45.7715629" lon="14.2046786"><ele>533.0</ele><time>2026-04-26T13:53:01.435Z</time></trkpt><trkpt lat="45.7715236" lon="14.2044951"><ele>533.0</ele><time>2026-04-26T13:53:02.434Z</time></trkpt><trkpt lat="45.7714869" lon="14.2042912"><ele>533.0</ele><time>2026-04-26T13:53:03.434Z</time></trkpt><trkpt lat="45.7714457" lon="14.2040801"><ele>533.0</ele><time>2026-04-26T13:53:04.434Z</time></trkpt><trkpt lat="45.7713992" lon="14.2038689"><ele>533.0</ele><time>2026-04-26T13:53:05.434Z</time></trkpt><trkpt lat="45.7713539" lon="14.2036546"><ele>533.0</ele><time>2026-04-26T13:53:06.434Z</time></trkpt><trkpt lat="45.7713085" lon="14.2034377"><ele>533.0</ele><time>2026-04-26T13:53:07.434Z</time></trkpt><trkpt lat="45.7712567" lon="14.203213"><ele>533.6666666666666</ele><time>2026-04-26T13:53:08.434Z</time></trkpt><trkpt lat="45.7712109" lon="14.202984"><ele>534.3333333333334</ele><time>2026-04-26T13:53:09.434Z</time></trkpt><trkpt lat="45.7711574" lon="14.2027631"><ele>535.0</ele><time>2026-04-26T13:53:10.434Z</time></trkpt><trkpt lat="45.7711062" lon="14.202545"><ele>535.0</ele><time>2026-04-26T13:53:11.434Z</time></trkpt><trkpt lat="45.7710561" lon="14.202336"><ele>535.0</ele><time>2026-04-26T13:53:12.434Z</time></trkpt><trkpt lat="45.7710042" lon="14.2021275"><ele>535.0</ele><time>2026-04-26T13:53:13.434Z</time></trkpt><trkpt lat="45.7709538" lon="14.2019253"><ele>534.0</ele><time>2026-04-26T13:53:14.434Z</time></trkpt><trkpt lat="45.7709013" lon="14.2017227"><ele>533.0</ele><time>2026-04-26T13:53:15.434Z</time></trkpt><trkpt lat="45.7708481" lon="14.2015196"><ele>532.0</ele><time>2026-04-26T13:53:16.434Z</time></trkpt><trkpt lat="45.7707894" lon="14.2013057"><ele>532.0</ele><time>2026-04-26T13:53:17.434Z</time></trkpt><trkpt lat="45.7707226" lon="14.2010516"><ele>532.0</ele><time>2026-04-26T13:53:18.434Z</time></trkpt><trkpt lat="45.7706462" lon="14.2007668"><ele>532.0</ele><time>2026-04-26T13:53:19.435Z</time></trkpt><trkpt lat="45.7705823" lon="14.2004872"><ele>531.6666666666667</ele><time>2026-04-26T13:53:20.434Z</time></trkpt><trkpt lat="45.7705317" lon="14.2002416"><ele>531.3333333333334</ele><time>2026-04-26T13:53:21.434Z</time></trkpt><trkpt lat="45.7704708" lon="14.2000091"><ele>531.0</ele><time>2026-04-26T13:53:22.434Z</time></trkpt><trkpt lat="45.7704191" lon="14.1997941"><ele>531.5</ele><time>2026-04-26T13:53:23.434Z</time></trkpt><trkpt lat="45.7703594" lon="14.1996001"><ele>532.0</ele><time>2026-04-26T13:53:24.435Z</time></trkpt><trkpt lat="45.7703056" lon="14.1994255"><ele>532.5</ele><time>2026-04-26T13:53:25.434Z</time></trkpt><trkpt lat="45.7702568" lon="14.1992662"><ele>533.0</ele><time>2026-04-26T13:53:26.435Z</time></trkpt><trkpt lat="45.770218" lon="14.1991225"><ele>533.4</ele><time>2026-04-26T13:53:27.434Z</time></trkpt><trkpt lat="45.7702034" lon="14.1989914"><ele>533.8</ele><time>2026-04-26T13:53:28.435Z</time></trkpt><trkpt lat="45.7702137" lon="14.1988674"><ele>534.2</ele><time>2026-04-26T13:53:29.434Z</time></trkpt><trkpt lat="45.7702507" lon="14.1987475"><ele>534.6</ele><time>2026-04-26T13:53:30.434Z</time></trkpt><trkpt lat="45.7702894" lon="14.1986126"><ele>535.0</ele><time>2026-04-26T13:53:31.434Z</time></trkpt><trkpt lat="45.770272" lon="14.1984629"><ele>535.0</ele><time>2026-04-26T13:53:32.434Z</time></trkpt><trkpt lat="45.7702118" lon="14.1983231"><ele>535.0</ele><time>2026-04-26T13:53:33.434Z</time></trkpt><trkpt lat="45.7701247" lon="14.1981956"><ele>535.0</ele><time>2026-04-26T13:53:34.434Z</time></trkpt><trkpt lat="45.7700484" lon="14.198033"><ele>535.0</ele><time>2026-04-26T13:53:35.434Z</time></trkpt><trkpt lat="45.770007" lon="14.1978273"><ele>534.6666666666667</ele><time>2026-04-26T13:53:36.434Z</time></trkpt><trkpt lat="45.769974" lon="14.1975776"><ele>534.3333333333334</ele><time>2026-04-26T13:53:37.434Z</time></trkpt><trkpt lat="45.7699407" lon="14.1973174"><ele>534.0</ele><time>2026-04-26T13:53:38.434Z</time></trkpt><trkpt lat="45.7699045" lon="14.1970511"><ele>533.6666666666666</ele><time>2026-04-26T13:53:39.434Z</time></trkpt><trkpt lat="45.7698792" lon="14.1968057"><ele>533.3333333333333</ele><time>2026-04-26T13:53:40.434Z</time></trkpt><trkpt lat="45.7698584" lon="14.1965798"><ele>533.0</ele><time>2026-04-26T13:53:41.434Z</time></trkpt><trkpt lat="45.7698368" lon="14.1963721"><ele>532.75</ele><time>2026-04-26T13:53:42.434Z</time></trkpt><trkpt lat="45.7698234" lon="14.1961753"><ele>532.5</ele><time>2026-04-26T13:53:43.434Z</time></trkpt><trkpt lat="45.7698068" lon="14.1959966"><ele>532.25</ele><time>2026-04-26T13:53:44.434Z</time></trkpt><trkpt lat="45.769797" lon="14.1958192"><ele>532.0</ele><time>2026-04-26T13:53:45.433Z</time></trkpt><trkpt lat="45.7697951" lon="14.1956567"><ele>532.0</ele><time>2026-04-26T13:53:46.433Z</time></trkpt><trkpt lat="45.7697908" lon="14.1955068"><ele>532.0</ele><time>2026-04-26T13:53:47.433Z</time></trkpt><trkpt lat="45.7697866" lon="14.1953564"><ele>532.0</ele><time>2026-04-26T13:53:48.433Z</time></trkpt><trkpt lat="45.7697845" lon="14.1952139"><ele>532.0</ele><time>2026-04-26T13:53:49.433Z</time></trkpt><trkpt lat="45.7697937" lon="14.1950816"><ele>532.0</ele><time>2026-04-26T13:53:50.433Z</time></trkpt><trkpt lat="45.7698153" lon="14.1949674"><ele>532.0</ele><time>2026-04-26T13:53:51.433Z</time></trkpt><trkpt lat="45.7698548" lon="14.1948652"><ele>532.0</ele><time>2026-04-26T13:53:52.434Z</time></trkpt><trkpt lat="45.7699067" lon="14.194784"><ele>532.0</ele><time>2026-04-26T13:53:53.433Z</time></trkpt><trkpt lat="45.7699649" lon="14.1947068"><ele>532.0</ele><time>2026-04-26T13:53:54.433Z</time></trkpt><trkpt lat="45.7699838" lon="14.194609"><ele>532.0</ele><time>2026-04-26T13:53:55.433Z</time></trkpt><trkpt lat="45.7699685" lon="14.1945031"><ele>532.0</ele><time>2026-04-26T13:53:56.433Z</time></trkpt><trkpt lat="45.7699214" lon="14.1944022"><ele>531.4</ele><time>2026-04-26T13:53:57.433Z</time></trkpt><trkpt lat="45.7698684" lon="14.1943032"><ele>530.8000000000001</ele><time>2026-04-26T13:53:58.433Z</time></trkpt><trkpt lat="45.7698275" lon="14.1941929"><ele>530.2</ele><time>2026-04-26T13:53:59.433Z</time></trkpt><trkpt lat="45.7698156" lon="14.1940624"><ele>529.6</ele><time>2026-04-26T13:54:00.433Z</time></trkpt><trkpt lat="45.7698116" lon="14.1939223"><ele>529.0</ele><time>2026-04-26T13:54:01.434Z</time></trkpt><trkpt lat="45.7698012" lon="14.1937809"><ele>529.0</ele><time>2026-04-26T13:54:02.433Z</time></trkpt><trkpt lat="45.7697917" lon="14.1936396"><ele>529.0</ele><time>2026-04-26T13:54:03.433Z</time></trkpt><trkpt lat="45.7697874" lon="14.1934952"><ele>529.0</ele><time>2026-04-26T13:54:04.433Z</time></trkpt><trkpt lat="45.7697834" lon="14.1933511"><ele>529.0</ele><time>2026-04-26T13:54:05.434Z</time></trkpt><trkpt lat="45.7697775" lon="14.1931994"><ele>529.0</ele><time>2026-04-26T13:54:06.433Z</time></trkpt><trkpt lat="45.7697712" lon="14.1930434"><ele>528.75</ele><time>2026-04-26T13:54:07.433Z</time></trkpt><trkpt lat="45.7697709" lon="14.1928754"><ele>528.5</ele><time>2026-04-26T13:54:08.433Z</time></trkpt><trkpt lat="45.7697705" lon="14.1926989"><ele>528.25</ele><time>2026-04-26T13:54:09.433Z</time></trkpt><trkpt lat="45.7697706" lon="14.1925273"><ele>528.0</ele><time>2026-04-26T13:54:10.433Z</time></trkpt><trkpt lat="45.7697711" lon="14.1923482"><ele>527.75</ele><time>2026-04-26T13:54:11.434Z</time></trkpt><trkpt lat="45.7697783" lon="14.1921601"><ele>527.5</ele><time>2026-04-26T13:54:12.433Z</time></trkpt><trkpt lat="45.7697829" lon="14.1919623"><ele>527.25</ele><time>2026-04-26T13:54:13.433Z</time></trkpt><trkpt lat="45.7697909" lon="14.1917342"><ele>527.0</ele><time>2026-04-26T13:54:14.433Z</time></trkpt><trkpt lat="45.7697937" lon="14.1914761"><ele>527.0</ele><time>2026-04-26T13:54:15.433Z</time></trkpt><trkpt lat="45.7698041" lon="14.1911813"><ele>527.0</ele><time>2026-04-26T13:54:16.433Z</time></trkpt><trkpt lat="45.7698243" lon="14.1908776"><ele>527.0</ele><time>2026-04-26T13:54:17.433Z</time></trkpt><trkpt lat="45.7698686" lon="14.1905824"><ele>526.0</ele><time>2026-04-26T13:54:18.433Z</time></trkpt><trkpt lat="45.7699206" lon="14.19027"><ele>525.0</ele><time>2026-04-26T13:54:19.434Z</time></trkpt><trkpt lat="45.7699802" lon="14.1899488"><ele>527.0</ele><time>2026-04-26T13:54:20.433Z</time></trkpt><trkpt lat="45.7700323" lon="14.1896164"><ele>529.0</ele><time>2026-04-26T13:54:21.433Z</time></trkpt><trkpt lat="45.7700686" lon="14.1892773"><ele>529.5</ele><time>2026-04-26T13:54:22.433Z</time></trkpt><trkpt lat="45.7700924" lon="14.1889355"><ele>530.0</ele><time>2026-04-26T13:54:23.433Z</time></trkpt><trkpt lat="45.7700957" lon="14.1885946"><ele>530.0</ele><time>2026-04-26T13:54:24.433Z</time></trkpt><trkpt lat="45.770095" lon="14.188253"><ele>530.0</ele><time>2026-04-26T13:54:25.434Z</time></trkpt><trkpt lat="45.77009" lon="14.1879149"><ele>530.0</ele><time>2026-04-26T13:54:26.433Z</time></trkpt><trkpt lat="45.7700837" lon="14.1875766"><ele>530.0</ele><time>2026-04-26T13:54:27.433Z</time></trkpt><trkpt lat="45.7700821" lon="14.1872479"><ele>528.0</ele><time>2026-04-26T13:54:28.433Z</time></trkpt><trkpt lat="45.770086" lon="14.1869244"><ele>526.0</ele><time>2026-04-26T13:54:29.434Z</time></trkpt><trkpt lat="45.7701029" lon="14.1865936"><ele>525.0</ele><time>2026-04-26T13:54:30.433Z</time></trkpt><trkpt lat="45.7701402" lon="14.1862656"><ele>524.0</ele><time>2026-04-26T13:54:31.433Z</time></trkpt><trkpt lat="45.7701913" lon="14.1859356"><ele>522.0</ele><time>2026-04-26T13:54:32.433Z</time></trkpt><trkpt lat="45.7702478" lon="14.1856225"><ele>520.0</ele><time>2026-04-26T13:54:33.434Z</time></trkpt><trkpt lat="45.7703063" lon="14.185307"><ele>520.0</ele><time>2026-04-26T13:54:34.433Z</time></trkpt><trkpt lat="45.7703684" lon="14.1849891"><ele>520.0</ele><time>2026-04-26T13:54:35.433Z</time></trkpt><trkpt lat="45.7704365" lon="14.1846739"><ele>519.5</ele><time>2026-04-26T13:54:36.433Z</time></trkpt><trkpt lat="45.7705039" lon="14.1843658"><ele>519.0</ele><time>2026-04-26T13:54:37.433Z</time></trkpt><trkpt lat="45.7705737" lon="14.18406"><ele>519.6666666666666</ele><time>2026-04-26T13:54:38.433Z</time></trkpt><trkpt lat="45.7706365" lon="14.1837651"><ele>520.3333333333333</ele><time>2026-04-26T13:54:39.433Z</time></trkpt><trkpt lat="45.7706966" lon="14.183468"><ele>521.0</ele><time>2026-04-26T13:54:40.433Z</time></trkpt><trkpt lat="45.7707568" lon="14.1831709"><ele>521.3333333333333</ele><time>2026-04-26T13:54:41.433Z</time></trkpt><trkpt lat="45.7708181" lon="14.1828653"><ele>521.6666666666666</ele><time>2026-04-26T13:54:42.433Z</time></trkpt><trkpt lat="45.7708672" lon="14.1825672"><ele>522.0</ele><time>2026-04-26T13:54:43.433Z</time></trkpt><trkpt lat="45.7709216" lon="14.1822566"><ele>523.0</ele><time>2026-04-26T13:54:44.433Z</time></trkpt><trkpt lat="45.7709848" lon="14.1819341"><ele>524.0</ele><time>2026-04-26T13:54:45.433Z</time></trkpt><trkpt lat="45.7710511" lon="14.1815872"><ele>524.5</ele><time>2026-04-26T13:54:46.433Z</time></trkpt><trkpt lat="45.7711192" lon="14.1812146"><ele>525.0</ele><time>2026-04-26T13:54:47.433Z</time></trkpt><trkpt lat="45.771188" lon="14.1808541"><ele>525.0</ele><time>2026-04-26T13:54:48.433Z</time></trkpt><trkpt lat="45.7712567" lon="14.1805077"><ele>525.0</ele><time>2026-04-26T13:54:49.433Z</time></trkpt><trkpt lat="45.7713345" lon="14.1801652"><ele>525.0</ele><time>2026-04-26T13:54:50.433Z</time></trkpt><trkpt lat="45.771411" lon="14.1798312"><ele>525.0</ele><time>2026-04-26T13:54:51.433Z</time></trkpt><trkpt lat="45.7714916" lon="14.1795054"><ele>525.0</ele><time>2026-04-26T13:54:52.434Z</time></trkpt><trkpt lat="45.7715777" lon="14.179187"><ele>525.0</ele><time>2026-04-26T13:54:53.433Z</time></trkpt><trkpt lat="45.771668" lon="14.1788698"><ele>525.0</ele><time>2026-04-26T13:54:54.433Z</time></trkpt><trkpt lat="45.7717567" lon="14.1785596"><ele>525.0</ele><time>2026-04-26T13:54:55.433Z</time></trkpt><trkpt lat="45.771838" lon="14.1782493"><ele>525.6666666666666</ele><time>2026-04-26T13:54:56.433Z</time></trkpt><trkpt lat="45.7719136" lon="14.1779466"><ele>526.3333333333333</ele><time>2026-04-26T13:54:57.433Z</time></trkpt><trkpt lat="45.77199" lon="14.1776437"><ele>527.0</ele><time>2026-04-26T13:54:58.433Z</time></trkpt><trkpt lat="45.7720665" lon="14.1773327"><ele>529.0</ele><time>2026-04-26T13:54:59.433Z</time></trkpt><trkpt lat="45.7721428" lon="14.1770198"><ele>531.0</ele><time>2026-04-26T13:55:00.433Z</time></trkpt><trkpt lat="45.7722091" lon="14.176707"><ele>532.5</ele><time>2026-04-26T13:55:01.433Z</time></trkpt><trkpt lat="45.772279" lon="14.1763817"><ele>534.0</ele><time>2026-04-26T13:55:02.433Z</time></trkpt><trkpt lat="45.7723487" lon="14.1760565"><ele>534.0</ele><time>2026-04-26T13:55:03.433Z</time></trkpt><trkpt lat="45.7724174" lon="14.1757254"><ele>534.0</ele><time>2026-04-26T13:55:04.433Z</time></trkpt><trkpt lat="45.7724855" lon="14.1753901"><ele>534.5</ele><time>2026-04-26T13:55:05.434Z</time></trkpt><trkpt lat="45.7725478" lon="14.1750633"><ele>535.0</ele><time>2026-04-26T13:55:06.433Z</time></trkpt><trkpt lat="45.7726071" lon="14.1747359"><ele>535.3333333333334</ele><time>2026-04-26T13:55:07.433Z</time></trkpt><trkpt lat="45.7726635" lon="14.1744328"><ele>535.6666666666666</ele><time>2026-04-26T13:55:08.433Z</time></trkpt><trkpt lat="45.7727173" lon="14.1741458"><ele>536.0</ele><time>2026-04-26T13:55:09.433Z</time></trkpt><trkpt lat="45.7727671" lon="14.1738813"><ele>537.6666666666666</ele><time>2026-04-26T13:55:10.433Z</time></trkpt><trkpt lat="45.7728219" lon="14.1736243"><ele>539.3333333333334</ele><time>2026-04-26T13:55:11.434Z</time></trkpt><trkpt lat="45.7728787" lon="14.1733588"><ele>541.0</ele><time>2026-04-26T13:55:12.434Z</time></trkpt><trkpt lat="45.7729369" lon="14.1730845"><ele>541.3333333333334</ele><time>2026-04-26T13:55:13.433Z</time></trkpt><trkpt lat="45.7729966" lon="14.1728017"><ele>541.6666666666666</ele><time>2026-04-26T13:55:14.434Z</time></trkpt><trkpt lat="45.7730593" lon="14.1725167"><ele>542.0</ele><time>2026-04-26T13:55:15.434Z</time></trkpt><trkpt lat="45.7731296" lon="14.1722403"><ele>542.0</ele><time>2026-04-26T13:55:16.433Z</time></trkpt><trkpt lat="45.7732067" lon="14.1719916"><ele>542.0</ele><time>2026-04-26T13:55:17.433Z</time></trkpt><trkpt lat="45.7732914" lon="14.1717585"><ele>542.0</ele><time>2026-04-26T13:55:18.433Z</time></trkpt><trkpt lat="45.7733883" lon="14.1715374"><ele>541.0</ele><time>2026-04-26T13:55:19.434Z</time></trkpt><trkpt lat="45.7734927" lon="14.1713158"><ele>540.0</ele><time>2026-04-26T13:55:20.433Z</time></trkpt><trkpt lat="45.7736002" lon="14.1710865"><ele>539.0</ele><time>2026-04-26T13:55:21.433Z</time></trkpt><trkpt lat="45.7737028" lon="14.1708492"><ele>540.3333333333333</ele><time>2026-04-26T13:55:22.433Z</time></trkpt><trkpt lat="45.773813" lon="14.1706092"><ele>541.6666666666666</ele><time>2026-04-26T13:55:23.433Z</time></trkpt><trkpt lat="45.7739227" lon="14.1703711"><ele>543.0</ele><time>2026-04-26T13:55:24.433Z</time></trkpt><trkpt lat="45.7740381" lon="14.1701396"><ele>543.0</ele><time>2026-04-26T13:55:25.433Z</time></trkpt><trkpt lat="45.7741706" lon="14.1699367"><ele>543.0</ele><time>2026-04-26T13:55:26.434Z</time></trkpt><trkpt lat="45.7743302" lon="14.169758"><ele>543.0</ele><time>2026-04-26T13:55:27.433Z</time></trkpt><trkpt lat="45.7745012" lon="14.1696027"><ele>542.3333333333334</ele><time>2026-04-26T13:55:28.433Z</time></trkpt><trkpt lat="45.7746807" lon="14.1694578"><ele>541.6666666666667</ele><time>2026-04-26T13:55:29.433Z</time></trkpt><trkpt lat="45.7748525" lon="14.1692955"><ele>541.0</ele><time>2026-04-26T13:55:30.434Z</time></trkpt><trkpt lat="45.7750208" lon="14.1691238"><ele>541.0</ele><time>2026-04-26T13:55:31.433Z</time></trkpt><trkpt lat="45.7751817" lon="14.1689177"><ele>541.0</ele><time>2026-04-26T13:55:32.433Z</time></trkpt><trkpt lat="45.7753284" lon="14.1686909"><ele>541.0</ele><time>2026-04-26T13:55:33.434Z</time></trkpt><trkpt lat="45.7754778" lon="14.1684568"><ele>541.0</ele><time>2026-04-26T13:55:34.433Z</time></trkpt><trkpt lat="45.7756234" lon="14.16821"><ele>541.0</ele><time>2026-04-26T13:55:35.433Z</time></trkpt><trkpt lat="45.7757543" lon="14.1679465"><ele>540.0</ele><time>2026-04-26T13:55:36.433Z</time></trkpt><trkpt lat="45.7758557" lon="14.1676586"><ele>539.0</ele><time>2026-04-26T13:55:37.433Z</time></trkpt><trkpt lat="45.7759302" lon="14.1673468"><ele>538.0</ele><time>2026-04-26T13:55:38.434Z</time></trkpt><trkpt lat="45.7759834" lon="14.1670153"><ele>537.0</ele><time>2026-04-26T13:55:39.434Z</time></trkpt><trkpt lat="45.7760184" lon="14.1666725"><ele>537.5</ele><time>2026-04-26T13:55:40.433Z</time></trkpt><trkpt lat="45.7760445" lon="14.1663315"><ele>538.0</ele><time>2026-04-26T13:55:41.433Z</time></trkpt><trkpt lat="45.7760728" lon="14.1659954"><ele>538.0</ele><time>2026-04-26T13:55:42.433Z</time></trkpt><trkpt lat="45.7760997" lon="14.1656674"><ele>538.0</ele><time>2026-04-26T13:55:43.433Z</time></trkpt><trkpt lat="45.7761313" lon="14.1653458"><ele>538.0</ele><time>2026-04-26T13:55:44.434Z</time></trkpt><trkpt lat="45.7761774" lon="14.1650308"><ele>538.0</ele><time>2026-04-26T13:55:45.433Z</time></trkpt><trkpt lat="45.7762372" lon="14.1647215"><ele>538.0</ele><time>2026-04-26T13:55:46.433Z</time></trkpt><trkpt lat="45.7762945" lon="14.1644261"><ele>538.6666666666667</ele><time>2026-04-26T13:55:47.433Z</time></trkpt><trkpt lat="45.7763464" lon="14.1641306"><ele>539.3333333333334</ele><time>2026-04-26T13:55:48.433Z</time></trkpt><trkpt lat="45.776387" lon="14.1638178"><ele>540.0</ele><time>2026-04-26T13:55:49.433Z</time></trkpt><trkpt lat="45.7764117" lon="14.1634822"><ele>541.0</ele><time>2026-04-26T13:55:50.434Z</time></trkpt><trkpt lat="45.7764196" lon="14.1631314"><ele>542.0</ele><time>2026-04-26T13:55:51.433Z</time></trkpt><trkpt lat="45.7764119" lon="14.1627778"><ele>542.0</ele><time>2026-04-26T13:55:52.433Z</time></trkpt><trkpt lat="45.7763924" lon="14.1624375"><ele>542.0</ele><time>2026-04-26T13:55:53.434Z</time></trkpt><trkpt lat="45.7763681" lon="14.1621124"><ele>542.3333333333333</ele><time>2026-04-26T13:55:54.433Z</time></trkpt><trkpt lat="45.7763426" lon="14.1617984"><ele>542.6666666666666</ele><time>2026-04-26T13:55:55.433Z</time></trkpt><trkpt lat="45.7763209" lon="14.1615038"><ele>543.0</ele><time>2026-04-26T13:55:56.433Z</time></trkpt><trkpt lat="45.776294" lon="14.1612184"><ele>543.6666666666666</ele><time>2026-04-26T13:55:57.433Z</time></trkpt><trkpt lat="45.7762674" lon="14.1609387"><ele>544.3333333333333</ele><time>2026-04-26T13:55:58.434Z</time></trkpt><trkpt lat="45.776239" lon="14.1606696"><ele>545.0</ele><time>2026-04-26T13:55:59.433Z</time></trkpt><trkpt lat="45.7762119" lon="14.1604117"><ele>545.0</ele><time>2026-04-26T13:56:00.433Z</time></trkpt><trkpt lat="45.7761875" lon="14.1601629"><ele>545.0</ele><time>2026-04-26T13:56:01.433Z</time></trkpt><trkpt lat="45.7761585" lon="14.1599181"><ele>545.0</ele><time>2026-04-26T13:56:02.433Z</time></trkpt><trkpt lat="45.7761329" lon="14.1596827"><ele>545.3333333333333</ele><time>2026-04-26T13:56:03.433Z</time></trkpt><trkpt lat="45.7761056" lon="14.1594422"><ele>545.6666666666666</ele><time>2026-04-26T13:56:04.433Z</time></trkpt><trkpt lat="45.7760814" lon="14.1592003"><ele>546.0</ele><time>2026-04-26T13:56:05.433Z</time></trkpt><trkpt lat="45.7760563" lon="14.1589678"><ele>546.3333333333334</ele><time>2026-04-26T13:56:06.433Z</time></trkpt><trkpt lat="45.7760285" lon="14.1587298"><ele>546.6666666666667</ele><time>2026-04-26T13:56:07.433Z</time></trkpt><trkpt lat="45.7760052" lon="14.1584919"><ele>547.0</ele><time>2026-04-26T13:56:08.433Z</time></trkpt><trkpt lat="45.7759773" lon="14.1582589"><ele>545.0</ele><time>2026-04-26T13:56:09.433Z</time></trkpt><trkpt lat="45.7759429" lon="14.1580191"><ele>543.0</ele><time>2026-04-26T13:56:10.433Z</time></trkpt><trkpt lat="45.7759115" lon="14.1577804"><ele>541.0</ele><time>2026-04-26T13:56:11.434Z</time></trkpt><trkpt lat="45.7758852" lon="14.157545"><ele>541.0</ele><time>2026-04-26T13:56:12.433Z</time></trkpt><trkpt lat="45.7758618" lon="14.1573072"><ele>541.0</ele><time>2026-04-26T13:56:13.433Z</time></trkpt><trkpt lat="45.775836" lon="14.1570723"><ele>541.0</ele><time>2026-04-26T13:56:14.433Z</time></trkpt><trkpt lat="45.7758137" lon="14.1568363"><ele>541.0</ele><time>2026-04-26T13:56:15.433Z</time></trkpt><trkpt lat="45.7757916" lon="14.156589"><ele>541.0</ele><time>2026-04-26T13:56:16.433Z</time></trkpt><trkpt lat="45.775763" lon="14.1563445"><ele>541.0</ele><time>2026-04-26T13:56:17.433Z</time></trkpt><trkpt lat="45.7757325" lon="14.1561016"><ele>540.3333333333334</ele><time>2026-04-26T13:56:18.433Z</time></trkpt><trkpt lat="45.7757046" lon="14.1558573"><ele>539.6666666666666</ele><time>2026-04-26T13:56:19.433Z</time></trkpt><trkpt lat="45.7756789" lon="14.1556128"><ele>539.0</ele><time>2026-04-26T13:56:20.434Z</time></trkpt><trkpt lat="45.7756514" lon="14.1553773"><ele>538.6666666666666</ele><time>2026-04-26T13:56:21.434Z</time></trkpt><trkpt lat="45.7756244" lon="14.1551427"><ele>538.3333333333334</ele><time>2026-04-26T13:56:22.433Z</time></trkpt><trkpt lat="45.7756008" lon="14.1549207"><ele>538.0</ele><time>2026-04-26T13:56:23.433Z</time></trkpt><trkpt lat="45.7755761" lon="14.1546926"><ele>538.0</ele><time>2026-04-26T13:56:24.433Z</time></trkpt><trkpt lat="45.7755546" lon="14.1544646"><ele>538.0</ele><time>2026-04-26T13:56:25.433Z</time></trkpt><trkpt lat="45.7755317" lon="14.1542338"><ele>538.0</ele><time>2026-04-26T13:56:26.433Z</time></trkpt><trkpt lat="45.7755038" lon="14.1540062"><ele>538.6666666666667</ele><time>2026-04-26T13:56:27.433Z</time></trkpt><trkpt lat="45.7754762" lon="14.1537634"><ele>539.3333333333334</ele><time>2026-04-26T13:56:28.433Z</time></trkpt><trkpt lat="45.7754462" lon="14.1535148"><ele>540.0</ele><time>2026-04-26T13:56:29.433Z</time></trkpt><trkpt lat="45.775417" lon="14.1532545"><ele>540.6666666666666</ele><time>2026-04-26T13:56:30.434Z</time></trkpt><trkpt lat="45.7753845" lon="14.1529885"><ele>541.3333333333333</ele><time>2026-04-26T13:56:31.433Z</time></trkpt><trkpt lat="45.7753519" lon="14.1526985"><ele>542.0</ele><time>2026-04-26T13:56:32.433Z</time></trkpt><trkpt lat="45.7753201" lon="14.1523998"><ele>544.0</ele><time>2026-04-26T13:56:33.433Z</time></trkpt><trkpt lat="45.7752887" lon="14.1520837"><ele>546.0</ele><time>2026-04-26T13:56:34.433Z</time></trkpt><trkpt lat="45.7752555" lon="14.1517589"><ele>547.0</ele><time>2026-04-26T13:56:35.434Z</time></trkpt><trkpt lat="45.775218" lon="14.151428"><ele>548.0</ele><time>2026-04-26T13:56:36.433Z</time></trkpt><trkpt lat="45.7751803" lon="14.1510934"><ele>548.0</ele><time>2026-04-26T13:56:37.433Z</time></trkpt><trkpt lat="45.7751379" lon="14.1507469"><ele>548.0</ele><time>2026-04-26T13:56:38.433Z</time></trkpt><trkpt lat="45.7750961" lon="14.1504065"><ele>549.0</ele><time>2026-04-26T13:56:39.433Z</time></trkpt><trkpt lat="45.7750586" lon="14.1500745"><ele>550.0</ele><time>2026-04-26T13:56:40.433Z</time></trkpt><trkpt lat="45.7750214" lon="14.1497605"><ele>550.3333333333334</ele><time>2026-04-26T13:56:41.433Z</time></trkpt><trkpt lat="45.7749795" lon="14.1494601"><ele>550.6666666666666</ele><time>2026-04-26T13:56:42.433Z</time></trkpt><trkpt lat="45.7749317" lon="14.1491755"><ele>551.0</ele><time>2026-04-26T13:56:43.433Z</time></trkpt><trkpt lat="45.7748664" lon="14.148906"><ele>551.0</ele><time>2026-04-26T13:56:44.433Z</time></trkpt><trkpt lat="45.7747934" lon="14.1486374"><ele>551.0</ele><time>2026-04-26T13:56:45.433Z</time></trkpt><trkpt lat="45.7747173" lon="14.1483721"><ele>551.0</ele><time>2026-04-26T13:56:46.433Z</time></trkpt><trkpt lat="45.774636" lon="14.1481134"><ele>550.3333333333333</ele><time>2026-04-26T13:56:47.433Z</time></trkpt><trkpt lat="45.7745617" lon="14.1478739"><ele>549.6666666666666</ele><time>2026-04-26T13:56:48.433Z</time></trkpt><trkpt lat="45.7744848" lon="14.1476341"><ele>549.0</ele><time>2026-04-26T13:56:49.433Z</time></trkpt><trkpt lat="45.7744051" lon="14.1473748"><ele>547.6666666666666</ele><time>2026-04-26T13:56:50.433Z</time></trkpt><trkpt lat="45.7743221" lon="14.1470967"><ele>546.3333333333333</ele><time>2026-04-26T13:56:51.434Z</time></trkpt><trkpt lat="45.7742377" lon="14.1468074"><ele>545.0</ele><time>2026-04-26T13:56:52.434Z</time></trkpt><trkpt lat="45.7741445" lon="14.1464922"><ele>544.0</ele><time>2026-04-26T13:56:53.433Z</time></trkpt><trkpt lat="45.7740429" lon="14.1461662"><ele>543.0</ele><time>2026-04-26T13:56:54.433Z</time></trkpt><trkpt lat="45.7739393" lon="14.1458379"><ele>542.5</ele><time>2026-04-26T13:56:55.433Z</time></trkpt><trkpt lat="45.7738372" lon="14.1455014"><ele>542.0</ele><time>2026-04-26T13:56:56.433Z</time></trkpt><trkpt lat="45.7737325" lon="14.1451581"><ele>541.5</ele><time>2026-04-26T13:56:57.433Z</time></trkpt><trkpt lat="45.773627" lon="14.1448065"><ele>541.0</ele><time>2026-04-26T13:56:58.433Z</time></trkpt><trkpt lat="45.7735268" lon="14.1444508"><ele>540.5</ele><time>2026-04-26T13:56:59.433Z</time></trkpt><trkpt lat="45.7734235" lon="14.1440993"><ele>540.0</ele><time>2026-04-26T13:57:00.433Z</time></trkpt><trkpt lat="45.7733167" lon="14.1437453"><ele>540.0</ele><time>2026-04-26T13:57:01.434Z</time></trkpt><trkpt lat="45.7732095" lon="14.1433992"><ele>540.0</ele><time>2026-04-26T13:57:02.433Z</time></trkpt><trkpt lat="45.7731032" lon="14.1430475"><ele>540.5</ele><time>2026-04-26T13:57:03.433Z</time></trkpt><trkpt lat="45.7729984" lon="14.1427032"><ele>541.0</ele><time>2026-04-26T13:57:04.433Z</time></trkpt><trkpt lat="45.7728929" lon="14.1423601"><ele>541.0</ele><time>2026-04-26T13:57:05.434Z</time></trkpt><trkpt lat="45.7727942" lon="14.1420237"><ele>541.0</ele><time>2026-04-26T13:57:06.433Z</time></trkpt><trkpt lat="45.7726924" lon="14.1416845"><ele>541.5</ele><time>2026-04-26T13:57:07.433Z</time></trkpt><trkpt lat="45.7725911" lon="14.141359"><ele>542.0</ele><time>2026-04-26T13:57:08.433Z</time></trkpt><trkpt lat="45.7724966" lon="14.1410427"><ele>542.0</ele><time>2026-04-26T13:57:09.433Z</time></trkpt><trkpt lat="45.7724005" lon="14.1407376"><ele>542.0</ele><time>2026-04-26T13:57:10.433Z</time></trkpt><trkpt lat="45.7722941" lon="14.140443"><ele>541.0</ele><time>2026-04-26T13:57:11.433Z</time></trkpt><trkpt lat="45.7721724" lon="14.1401549"><ele>540.0</ele><time>2026-04-26T13:57:12.433Z</time></trkpt><trkpt lat="45.7720446" lon="14.1398733"><ele>539.0</ele><time>2026-04-26T13:57:13.434Z</time></trkpt><trkpt lat="45.7719032" lon="14.1395926"><ele>538.0</ele><time>2026-04-26T13:57:14.433Z</time></trkpt><trkpt lat="45.7717619" lon="14.1393171"><ele>539.5</ele><time>2026-04-26T13:57:15.433Z</time></trkpt><trkpt lat="45.7716244" lon="14.1390431"><ele>541.0</ele><time>2026-04-26T13:57:16.433Z</time></trkpt><trkpt lat="45.7714939" lon="14.1387823"><ele>541.0</ele><time>2026-04-26T13:57:17.433Z</time></trkpt><trkpt lat="45.7713707" lon="14.1385273"><ele>541.0</ele><time>2026-04-26T13:57:18.433Z</time></trkpt><trkpt lat="45.7712507" lon="14.1382827"><ele>541.0</ele><time>2026-04-26T13:57:19.433Z</time></trkpt><trkpt lat="45.7711347" lon="14.1380401"><ele>542.0</ele><time>2026-04-26T13:57:20.433Z</time></trkpt><trkpt lat="45.7710136" lon="14.1377939"><ele>543.0</ele><time>2026-04-26T13:57:21.434Z</time></trkpt><trkpt lat="45.7708879" lon="14.1375319"><ele>544.0</ele><time>2026-04-26T13:57:22.434Z</time></trkpt><trkpt lat="45.7707559" lon="14.1372656"><ele>544.0</ele><time>2026-04-26T13:57:23.433Z</time></trkpt><trkpt lat="45.7706186" lon="14.1369913"><ele>544.0</ele><time>2026-04-26T13:57:24.433Z</time></trkpt><trkpt lat="45.7704755" lon="14.1367088"><ele>542.0</ele><time>2026-04-26T13:57:25.433Z</time></trkpt><trkpt lat="45.770332" lon="14.1364189"><ele>540.0</ele><time>2026-04-26T13:57:26.434Z</time></trkpt><trkpt lat="45.7701912" lon="14.1361166"><ele>539.5</ele><time>2026-04-26T13:57:27.433Z</time></trkpt><trkpt lat="45.7700454" lon="14.1358194"><ele>539.0</ele><time>2026-04-26T13:57:28.433Z</time></trkpt><trkpt lat="45.7698983" lon="14.1355101"><ele>538.5</ele><time>2026-04-26T13:57:29.433Z</time></trkpt><trkpt lat="45.7697463" lon="14.135204"><ele>538.0</ele><time>2026-04-26T13:57:30.433Z</time></trkpt><trkpt lat="45.7695893" lon="14.1348941"><ele>538.5</ele><time>2026-04-26T13:57:31.433Z</time></trkpt><trkpt lat="45.7694331" lon="14.1345768"><ele>539.0</ele><time>2026-04-26T13:57:32.433Z</time></trkpt><trkpt lat="45.7692731" lon="14.1342585"><ele>538.5</ele><time>2026-04-26T13:57:33.433Z</time></trkpt><trkpt lat="45.769107" lon="14.1339365"><ele>538.0</ele><time>2026-04-26T13:57:34.433Z</time></trkpt><trkpt lat="45.7689429" lon="14.1336156"><ele>538.0</ele><time>2026-04-26T13:57:35.434Z</time></trkpt><trkpt lat="45.7687818" lon="14.1332871"><ele>538.0</ele><time>2026-04-26T13:57:36.433Z</time></trkpt><trkpt lat="45.768624" lon="14.1329596"><ele>536.0</ele><time>2026-04-26T13:57:37.433Z</time></trkpt><trkpt lat="45.7684651" lon="14.1326354"><ele>534.0</ele><time>2026-04-26T13:57:38.434Z</time></trkpt><trkpt lat="45.7683087" lon="14.1323068"><ele>533.0</ele><time>2026-04-26T13:57:39.433Z</time></trkpt><trkpt lat="45.7681497" lon="14.1319819"><ele>532.0</ele><time>2026-04-26T13:57:40.433Z</time></trkpt><trkpt lat="45.767992" lon="14.1316529"><ele>531.5</ele><time>2026-04-26T13:57:41.433Z</time></trkpt><trkpt lat="45.767832" lon="14.1313217"><ele>531.0</ele><time>2026-04-26T13:57:42.433Z</time></trkpt><trkpt lat="45.767669" lon="14.1309885"><ele>530.5</ele><time>2026-04-26T13:57:43.433Z</time></trkpt><trkpt lat="45.7675061" lon="14.1306623"><ele>530.0</ele><time>2026-04-26T13:57:44.433Z</time></trkpt><trkpt lat="45.7673441" lon="14.1303356"><ele>530.0</ele><time>2026-04-26T13:57:45.433Z</time></trkpt><trkpt lat="45.7671821" lon="14.1300052"><ele>530.0</ele><time>2026-04-26T13:57:46.433Z</time></trkpt><trkpt lat="45.7670218" lon="14.1296779"><ele>529.5</ele><time>2026-04-26T13:57:47.433Z</time></trkpt><trkpt lat="45.7668627" lon="14.1293528"><ele>529.0</ele><time>2026-04-26T13:57:48.433Z</time></trkpt><trkpt lat="45.7667069" lon="14.1290352"><ele>533.5</ele><time>2026-04-26T13:57:49.433Z</time></trkpt><trkpt lat="45.7665524" lon="14.1287167"><ele>538.0</ele><time>2026-04-26T13:57:50.433Z</time></trkpt><trkpt lat="45.7663967" lon="14.1283874"><ele>539.0</ele><time>2026-04-26T13:57:51.433Z</time></trkpt><trkpt lat="45.7662428" lon="14.1280495"><ele>540.0</ele><time>2026-04-26T13:57:52.433Z</time></trkpt><trkpt lat="45.7660955" lon="14.1277069"><ele>539.5</ele><time>2026-04-26T13:57:53.433Z</time></trkpt><trkpt lat="45.7659531" lon="14.1273658"><ele>539.0</ele><time>2026-04-26T13:57:54.433Z</time></trkpt><trkpt lat="45.7658113" lon="14.1270231"><ele>539.0</ele><time>2026-04-26T13:57:55.433Z</time></trkpt><trkpt lat="45.7656669" lon="14.1266858"><ele>539.0</ele><time>2026-04-26T13:57:56.433Z</time></trkpt><trkpt lat="45.7655175" lon="14.1263458"><ele>539.0</ele><time>2026-04-26T13:57:57.433Z</time></trkpt><trkpt lat="45.7653673" lon="14.1260049"><ele>539.0</ele><time>2026-04-26T13:57:58.434Z</time></trkpt><trkpt lat="45.7652189" lon="14.1256651"><ele>540.5</ele><time>2026-04-26T13:57:59.434Z</time></trkpt><trkpt lat="45.7650565" lon="14.1253398"><ele>542.0</ele><time>2026-04-26T13:58:00.433Z</time></trkpt><trkpt lat="45.7648835" lon="14.1250172"><ele>540.5</ele><time>2026-04-26T13:58:01.433Z</time></trkpt><trkpt lat="45.7647195" lon="14.1247083"><ele>539.0</ele><time>2026-04-26T13:58:02.433Z</time></trkpt><trkpt lat="45.7645537" lon="14.1244144"><ele>539.0</ele><time>2026-04-26T13:58:03.433Z</time></trkpt><trkpt lat="45.7643821" lon="14.1241303"><ele>539.0</ele><time>2026-04-26T13:58:04.433Z</time></trkpt><trkpt lat="45.7642025" lon="14.1238499"><ele>544.5</ele><time>2026-04-26T13:58:05.434Z</time></trkpt><trkpt lat="45.7640286" lon="14.1235661"><ele>550.0</ele><time>2026-04-26T13:58:06.433Z</time></trkpt><trkpt lat="45.7638652" lon="14.123268"><ele>550.0</ele><time>2026-04-26T13:58:07.433Z</time></trkpt><trkpt lat="45.7637228" lon="14.1229628"><ele>550.0</ele><time>2026-04-26T13:58:08.433Z</time></trkpt><trkpt lat="45.7636021" lon="14.1226468"><ele>554.5</ele><time>2026-04-26T13:58:09.433Z</time></trkpt><trkpt lat="45.7635126" lon="14.1223272"><ele>559.0</ele><time>2026-04-26T13:58:10.434Z</time></trkpt><trkpt lat="45.7634418" lon="14.1220166"><ele>559.0</ele><time>2026-04-26T13:58:11.433Z</time></trkpt><trkpt lat="45.7633999" lon="14.1216988"><ele>559.0</ele><time>2026-04-26T13:58:12.433Z</time></trkpt><trkpt lat="45.7633565" lon="14.1213986"><ele>559.0</ele><time>2026-04-26T13:58:13.433Z</time></trkpt><trkpt lat="45.7633408" lon="14.1210938"><ele>559.0</ele><time>2026-04-26T13:58:14.433Z</time></trkpt><trkpt lat="45.7633386" lon="14.1207881"><ele>559.0</ele><time>2026-04-26T13:58:15.433Z</time></trkpt><trkpt lat="45.7633311" lon="14.1204988"><ele>559.0</ele><time>2026-04-26T13:58:16.433Z</time></trkpt><trkpt lat="45.7633177" lon="14.1202379"><ele>559.0</ele><time>2026-04-26T13:58:17.433Z</time></trkpt><trkpt lat="45.7633044" lon="14.119978"><ele>559.0</ele><time>2026-04-26T13:58:18.433Z</time></trkpt><trkpt lat="45.7632908" lon="14.1197175"><ele>559.0</ele><time>2026-04-26T13:58:19.433Z</time></trkpt><trkpt lat="45.7632752" lon="14.1194578"><ele>558.6666666666667</ele><time>2026-04-26T13:58:20.433Z</time></trkpt><trkpt lat="45.7632672" lon="14.1192047"><ele>558.3333333333334</ele><time>2026-04-26T13:58:21.433Z</time></trkpt><trkpt lat="45.763255" lon="14.118944"><ele>558.0</ele><time>2026-04-26T13:58:22.433Z</time></trkpt><trkpt lat="45.7632408" lon="14.1186607"><ele>557.0</ele><time>2026-04-26T13:58:23.433Z</time></trkpt><trkpt lat="45.7632145" lon="14.1183423"><ele>556.0</ele><time>2026-04-26T13:58:24.433Z</time></trkpt><trkpt lat="45.763183" lon="14.1179964"><ele>554.5</ele><time>2026-04-26T13:58:25.433Z</time></trkpt><trkpt lat="45.7631623" lon="14.117616"><ele>553.0</ele><time>2026-04-26T13:58:26.434Z</time></trkpt><trkpt lat="45.7631483" lon="14.1172104"><ele>550.5</ele><time>2026-04-26T13:58:27.433Z</time></trkpt><trkpt lat="45.7631279" lon="14.1168229"><ele>548.0</ele><time>2026-04-26T13:58:28.433Z</time></trkpt><trkpt lat="45.7631246" lon="14.1164834"><ele>547.0</ele><time>2026-04-26T13:58:29.433Z</time></trkpt><trkpt lat="45.7630834" lon="14.1161956"><ele>546.0</ele><time>2026-04-26T13:58:30.433Z</time></trkpt><trkpt lat="45.7629782" lon="14.1159087"><ele>545.0</ele><time>2026-04-26T13:58:31.433Z</time></trkpt><trkpt lat="45.7628154" lon="14.1156221"><ele>546.0</ele><time>2026-04-26T13:58:32.434Z</time></trkpt><trkpt lat="45.7626187" lon="14.1153041"><ele>547.0</ele><time>2026-04-26T13:58:33.434Z</time></trkpt><trkpt lat="45.7624309" lon="14.115001"><ele>543.5</ele><time>2026-04-26T13:58:34.433Z</time></trkpt><trkpt lat="45.7622684" lon="14.1147138"><ele>540.0</ele><time>2026-04-26T13:58:35.433Z</time></trkpt><trkpt lat="45.7621138" lon="14.1144665"><ele>540.0</ele><time>2026-04-26T13:58:36.433Z</time></trkpt><trkpt lat="45.7619709" lon="14.1142577"><ele>540.0</ele><time>2026-04-26T13:58:37.433Z</time></trkpt><trkpt lat="45.76186" lon="14.1140178"><ele>540.0</ele><time>2026-04-26T13:58:38.433Z</time></trkpt><trkpt lat="45.7618164" lon="14.1137198"><ele>540.0</ele><time>2026-04-26T13:58:39.433Z</time></trkpt><trkpt lat="45.7618058" lon="14.1133869"><ele>540.0</ele><time>2026-04-26T13:58:40.433Z</time></trkpt><trkpt lat="45.761844" lon="14.1130178"><ele>541.0</ele><time>2026-04-26T13:58:41.433Z</time></trkpt><trkpt lat="45.7618722" lon="14.1126533"><ele>542.0</ele><time>2026-04-26T13:58:42.433Z</time></trkpt><trkpt lat="45.7619011" lon="14.112351"><ele>542.0</ele><time>2026-04-26T13:58:43.433Z</time></trkpt><trkpt lat="45.7619414" lon="14.1120712"><ele>542.0</ele><time>2026-04-26T13:58:44.433Z</time></trkpt><trkpt lat="45.761988" lon="14.1118195"><ele>542.0</ele><time>2026-04-26T13:58:45.433Z</time></trkpt><trkpt lat="45.7620373" lon="14.1115907"><ele>542.6666666666666</ele><time>2026-04-26T13:58:46.433Z</time></trkpt><trkpt lat="45.7620929" lon="14.1113774"><ele>543.3333333333334</ele><time>2026-04-26T13:58:47.433Z</time></trkpt><trkpt lat="45.7621445" lon="14.1111612"><ele>544.0</ele><time>2026-04-26T13:58:48.433Z</time></trkpt><trkpt lat="45.7622019" lon="14.1109495"><ele>543.0</ele><time>2026-04-26T13:58:49.433Z</time></trkpt><trkpt lat="45.7622621" lon="14.1107354"><ele>542.0</ele><time>2026-04-26T13:58:50.433Z</time></trkpt><trkpt lat="45.762312" lon="14.1105193"><ele>541.0</ele><time>2026-04-26T13:58:51.433Z</time></trkpt><trkpt lat="45.7623447" lon="14.1103054"><ele>541.0</ele><time>2026-04-26T13:58:52.433Z</time></trkpt><trkpt lat="45.7623569" lon="14.1100688"><ele>541.0</ele><time>2026-04-26T13:58:53.433Z</time></trkpt><trkpt lat="45.7623354" lon="14.1098044"><ele>541.0</ele><time>2026-04-26T13:58:54.433Z</time></trkpt><trkpt lat="45.7622732" lon="14.1095229"><ele>541.6666666666667</ele><time>2026-04-26T13:58:55.433Z</time></trkpt><trkpt lat="45.7621989" lon="14.1092466"><ele>542.3333333333334</ele><time>2026-04-26T13:58:56.433Z</time></trkpt><trkpt lat="45.7621343" lon="14.1089787"><ele>543.0</ele><time>2026-04-26T13:58:57.433Z</time></trkpt><trkpt lat="45.7620955" lon="14.108671"><ele>543.5</ele><time>2026-04-26T13:58:58.433Z</time></trkpt><trkpt lat="45.7620606" lon="14.1083441"><ele>544.0</ele><time>2026-04-26T13:58:59.433Z</time></trkpt><trkpt lat="45.7619981" lon="14.1079947"><ele>541.5</ele><time>2026-04-26T13:59:00.434Z</time></trkpt><trkpt lat="45.7619046" lon="14.1076305"><ele>539.0</ele><time>2026-04-26T13:59:01.433Z</time></trkpt><trkpt lat="45.7618091" lon="14.1072978"><ele>537.3333333333333</ele><time>2026-04-26T13:59:02.433Z</time></trkpt><trkpt lat="45.7617155" lon="14.1070048"><ele>535.6666666666666</ele><time>2026-04-26T13:59:03.433Z</time></trkpt><trkpt lat="45.7616342" lon="14.1067271"><ele>534.0</ele><time>2026-04-26T13:59:04.433Z</time></trkpt><trkpt lat="45.7615588" lon="14.1064608"><ele>534.0</ele><time>2026-04-26T13:59:05.433Z</time></trkpt><trkpt lat="45.7614942" lon="14.1062056"><ele>534.0</ele><time>2026-04-26T13:59:06.433Z</time></trkpt><trkpt lat="45.7614315" lon="14.1059529"><ele>534.0</ele><time>2026-04-26T13:59:07.433Z</time></trkpt><trkpt lat="45.7613785" lon="14.1056764"><ele>534.3333333333334</ele><time>2026-04-26T13:59:08.433Z</time></trkpt><trkpt lat="45.7613452" lon="14.1054179"><ele>534.6666666666667</ele><time>2026-04-26T13:59:09.433Z</time></trkpt><trkpt lat="45.7613239" lon="14.10518"><ele>535.0</ele><time>2026-04-26T13:59:10.433Z</time></trkpt><trkpt lat="45.7613066" lon="14.1049481"><ele>534.3333333333334</ele><time>2026-04-26T13:59:11.433Z</time></trkpt><trkpt lat="45.7612841" lon="14.1047005"><ele>533.6666666666666</ele><time>2026-04-26T13:59:12.433Z</time></trkpt><trkpt lat="45.7612492" lon="14.1044305"><ele>533.0</ele><time>2026-04-26T13:59:13.434Z</time></trkpt><trkpt lat="45.7612034" lon="14.1041468"><ele>533.3333333333333</ele><time>2026-04-26T13:59:14.434Z</time></trkpt><trkpt lat="45.7611569" lon="14.1038463"><ele>533.6666666666666</ele><time>2026-04-26T13:59:15.433Z</time></trkpt><trkpt lat="45.7611097" lon="14.1035247"><ele>534.0</ele><time>2026-04-26T13:59:16.433Z</time></trkpt><trkpt lat="45.7610523" lon="14.1032065"><ele>535.0</ele><time>2026-04-26T13:59:17.433Z</time></trkpt><trkpt lat="45.7609786" lon="14.1028869"><ele>536.0</ele><time>2026-04-26T13:59:18.433Z</time></trkpt><trkpt lat="45.7609053" lon="14.1025545"><ele>535.5</ele><time>2026-04-26T13:59:19.434Z</time></trkpt><trkpt lat="45.7608278" lon="14.1022187"><ele>535.0</ele><time>2026-04-26T13:59:20.434Z</time></trkpt><trkpt lat="45.7607493" lon="14.1018786"><ele>535.5</ele><time>2026-04-26T13:59:21.434Z</time></trkpt><trkpt lat="45.7606755" lon="14.1015522"><ele>536.0</ele><time>2026-04-26T13:59:22.433Z</time></trkpt><trkpt lat="45.7605951" lon="14.1012564"><ele>536.0</ele><time>2026-04-26T13:59:23.434Z</time></trkpt><trkpt lat="45.7605243" lon="14.1009599"><ele>536.0</ele><time>2026-04-26T13:59:24.434Z</time></trkpt><trkpt lat="45.7604901" lon="14.1006509"><ele>536.0</ele><time>2026-04-26T13:59:25.433Z</time></trkpt><trkpt lat="45.7604959" lon="14.1003468"><ele>536.0</ele><time>2026-04-26T13:59:26.434Z</time></trkpt><trkpt lat="45.7605443" lon="14.1000494"><ele>536.0</ele><time>2026-04-26T13:59:27.433Z</time></trkpt><trkpt lat="45.7606465" lon="14.0997778"><ele>536.0</ele><time>2026-04-26T13:59:28.433Z</time></trkpt><trkpt lat="45.760779" lon="14.0995131"><ele>539.0</ele><time>2026-04-26T13:59:29.433Z</time></trkpt><trkpt lat="45.7609353" lon="14.0992657"><ele>542.0</ele><time>2026-04-26T13:59:30.433Z</time></trkpt><trkpt lat="45.7611012" lon="14.0990194"><ele>543.6666666666666</ele><time>2026-04-26T13:59:31.433Z</time></trkpt><trkpt lat="45.7612496" lon="14.0987674"><ele>545.3333333333334</ele><time>2026-04-26T13:59:32.433Z</time></trkpt><trkpt lat="45.7613593" lon="14.0984954"><ele>547.0</ele><time>2026-04-26T13:59:33.433Z</time></trkpt><trkpt lat="45.7614065" lon="14.0982062"><ele>547.0</ele><time>2026-04-26T13:59:34.433Z</time></trkpt><trkpt lat="45.7614126" lon="14.0978799"><ele>547.0</ele><time>2026-04-26T13:59:35.433Z</time></trkpt><trkpt lat="45.761364" lon="14.097569"><ele>549.5</ele><time>2026-04-26T13:59:36.433Z</time></trkpt><trkpt lat="45.7612733" lon="14.0972472"><ele>552.0</ele><time>2026-04-26T13:59:37.433Z</time></trkpt><trkpt lat="45.7611541" lon="14.0969438"><ele>551.0</ele><time>2026-04-26T13:59:38.433Z</time></trkpt><trkpt lat="45.7610298" lon="14.0966257"><ele>550.0</ele><time>2026-04-26T13:59:39.434Z</time></trkpt><trkpt lat="45.7609251" lon="14.0963014"><ele>550.0</ele><time>2026-04-26T13:59:40.434Z</time></trkpt><trkpt lat="45.7608425" lon="14.0959839"><ele>550.0</ele><time>2026-04-26T13:59:41.433Z</time></trkpt><trkpt lat="45.7607839" lon="14.0956723"><ele>551.3333333333334</ele><time>2026-04-26T13:59:42.433Z</time></trkpt><trkpt lat="45.7607652" lon="14.0953661"><ele>552.6666666666666</ele><time>2026-04-26T13:59:43.433Z</time></trkpt><trkpt lat="45.7607893" lon="14.0950588"><ele>554.0</ele><time>2026-04-26T13:59:44.433Z</time></trkpt><trkpt lat="45.7608411" lon="14.0947553"><ele>554.0</ele><time>2026-04-26T13:59:45.433Z</time></trkpt><trkpt lat="45.7609067" lon="14.0944496"><ele>554.0</ele><time>2026-04-26T13:59:46.433Z</time></trkpt><trkpt lat="45.7609596" lon="14.0941227"><ele>553.5</ele><time>2026-04-26T13:59:47.434Z</time></trkpt><trkpt lat="45.7609849" lon="14.0937748"><ele>553.0</ele><time>2026-04-26T13:59:48.433Z</time></trkpt><trkpt lat="45.760999" lon="14.0934142"><ele>554.0</ele><time>2026-04-26T13:59:49.433Z</time></trkpt><trkpt lat="45.7610064" lon="14.0930497"><ele>555.0</ele><time>2026-04-26T13:59:50.433Z</time></trkpt><trkpt lat="45.7610072" lon="14.0926829"><ele>556.5</ele><time>2026-04-26T13:59:51.433Z</time></trkpt><trkpt lat="45.7610092" lon="14.0923198"><ele>558.0</ele><time>2026-04-26T13:59:52.433Z</time></trkpt><trkpt lat="45.7610036" lon="14.0919574"><ele>558.0</ele><time>2026-04-26T13:59:53.433Z</time></trkpt><trkpt lat="45.7609791" lon="14.0915996"><ele>558.0</ele><time>2026-04-26T13:59:54.433Z</time></trkpt><trkpt lat="45.7609257" lon="14.0912388"><ele>560.0</ele><time>2026-04-26T13:59:55.433Z</time></trkpt><trkpt lat="45.7608479" lon="14.0908909"><ele>562.0</ele><time>2026-04-26T13:59:56.433Z</time></trkpt><trkpt lat="45.7607594" lon="14.0905342"><ele>563.5</ele><time>2026-04-26T13:59:57.433Z</time></trkpt><trkpt lat="45.7606756" lon="14.0901791"><ele>565.0</ele><time>2026-04-26T13:59:58.433Z</time></trkpt><trkpt lat="45.7605905" lon="14.0898229"><ele>566.0</ele><time>2026-04-26T13:59:59.433Z</time></trkpt><trkpt lat="45.7605101" lon="14.0894615"><ele>567.0</ele><time>2026-04-26T14:00:00.434Z</time></trkpt><trkpt lat="45.7604354" lon="14.0891101"><ele>564.0</ele><time>2026-04-26T14:00:01.434Z</time></trkpt><trkpt lat="45.7603561" lon="14.0887724"><ele>561.0</ele><time>2026-04-26T14:00:02.433Z</time></trkpt><trkpt lat="45.7602775" lon="14.0884572"><ele>561.0</ele><time>2026-04-26T14:00:03.433Z</time></trkpt><trkpt lat="45.760219" lon="14.0881549"><ele>561.0</ele><time>2026-04-26T14:00:04.433Z</time></trkpt><trkpt lat="45.7602035" lon="14.0878687"><ele>561.0</ele><time>2026-04-26T14:00:05.433Z</time></trkpt><trkpt lat="45.7602504" lon="14.0875704"><ele>561.6666666666666</ele><time>2026-04-26T14:00:06.433Z</time></trkpt><trkpt lat="45.7603291" lon="14.0873035"><ele>562.3333333333333</ele><time>2026-04-26T14:00:07.433Z</time></trkpt><trkpt lat="45.7604268" lon="14.0870392"><ele>563.0</ele><time>2026-04-26T14:00:08.434Z</time></trkpt><trkpt lat="45.7605136" lon="14.0868037"><ele>562.3333333333333</ele><time>2026-04-26T14:00:09.433Z</time></trkpt><trkpt lat="45.7605942" lon="14.0865776"><ele>561.6666666666666</ele><time>2026-04-26T14:00:10.433Z</time></trkpt><trkpt lat="45.7606621" lon="14.0863613"><ele>561.0</ele><time>2026-04-26T14:00:11.433Z</time></trkpt><trkpt lat="45.7607179" lon="14.0861348"><ele>561.0</ele><time>2026-04-26T14:00:12.434Z</time></trkpt><trkpt lat="45.7607608" lon="14.085888"><ele>561.0</ele><time>2026-04-26T14:00:13.433Z</time></trkpt><trkpt lat="45.7608003" lon="14.0856198"><ele>561.0</ele><time>2026-04-26T14:00:14.433Z</time></trkpt><trkpt lat="45.7608332" lon="14.0853347"><ele>558.5</ele><time>2026-04-26T14:00:15.433Z</time></trkpt><trkpt lat="45.7608544" lon="14.0850117"><ele>556.0</ele><time>2026-04-26T14:00:16.433Z</time></trkpt><trkpt lat="45.7608551" lon="14.0846453"><ele>556.0</ele><time>2026-04-26T14:00:17.433Z</time></trkpt><trkpt lat="45.7608618" lon="14.084295"><ele>556.0</ele><time>2026-04-26T14:00:18.433Z</time></trkpt><trkpt lat="45.760857" lon="14.0839752"><ele>555.3333333333334</ele><time>2026-04-26T14:00:19.433Z</time></trkpt><trkpt lat="45.7608473" lon="14.0836736"><ele>554.6666666666666</ele><time>2026-04-26T14:00:20.433Z</time></trkpt><trkpt lat="45.7608345" lon="14.0833957"><ele>554.0</ele><time>2026-04-26T14:00:21.434Z</time></trkpt><trkpt lat="45.7608257" lon="14.0831119"><ele>553.3333333333333</ele><time>2026-04-26T14:00:22.433Z</time></trkpt><trkpt lat="45.7608299" lon="14.0828166"><ele>552.6666666666666</ele><time>2026-04-26T14:00:23.433Z</time></trkpt><trkpt lat="45.7608475" lon="14.0825081"><ele>552.0</ele><time>2026-04-26T14:00:24.433Z</time></trkpt><trkpt lat="45.7608777" lon="14.082197"><ele>551.5</ele><time>2026-04-26T14:00:25.433Z</time></trkpt><trkpt lat="45.7609257" lon="14.0818742"><ele>551.0</ele><time>2026-04-26T14:00:26.433Z</time></trkpt><trkpt lat="45.7609874" lon="14.0815596"><ele>554.0</ele><time>2026-04-26T14:00:27.433Z</time></trkpt><trkpt lat="45.7610562" lon="14.0812471"><ele>557.0</ele><time>2026-04-26T14:00:28.434Z</time></trkpt><trkpt lat="45.7611275" lon="14.0809367"><ele>556.5</ele><time>2026-04-26T14:00:29.433Z</time></trkpt><trkpt lat="45.7611946" lon="14.0806187"><ele>556.0</ele><time>2026-04-26T14:00:30.434Z</time></trkpt><trkpt lat="45.7612535" lon="14.0802766"><ele>557.5</ele><time>2026-04-26T14:00:31.433Z</time></trkpt><trkpt lat="45.7612859" lon="14.0799322"><ele>559.0</ele><time>2026-04-26T14:00:32.433Z</time></trkpt><trkpt lat="45.7612805" lon="14.0795956"><ele>559.0</ele><time>2026-04-26T14:00:33.433Z</time></trkpt><trkpt lat="45.761258" lon="14.0792543"><ele>559.0</ele><time>2026-04-26T14:00:34.433Z</time></trkpt><trkpt lat="45.7612092" lon="14.0789271"><ele>559.5</ele><time>2026-04-26T14:00:35.433Z</time></trkpt><trkpt lat="45.7611618" lon="14.0785978"><ele>560.0</ele><time>2026-04-26T14:00:36.433Z</time></trkpt><trkpt lat="45.7611167" lon="14.0782778"><ele>560.3333333333333</ele><time>2026-04-26T14:00:37.433Z</time></trkpt><trkpt lat="45.7610772" lon="14.0779727"><ele>560.6666666666666</ele><time>2026-04-26T14:00:38.433Z</time></trkpt><trkpt lat="45.7610407" lon="14.0776851"><ele>561.0</ele><time>2026-04-26T14:00:39.433Z</time></trkpt><trkpt lat="45.7610045" lon="14.0774031"><ele>561.0</ele><time>2026-04-26T14:00:40.434Z</time></trkpt><trkpt lat="45.7609643" lon="14.0771366"><ele>561.0</ele><time>2026-04-26T14:00:41.433Z</time></trkpt><trkpt lat="45.7609268" lon="14.0768781"><ele>561.0</ele><time>2026-04-26T14:00:42.433Z</time></trkpt><trkpt lat="45.7608862" lon="14.0766474"><ele>562.0</ele><time>2026-04-26T14:00:43.433Z</time></trkpt><trkpt lat="45.7608456" lon="14.0764442"><ele>563.0</ele><time>2026-04-26T14:00:44.433Z</time></trkpt><trkpt lat="45.7607975" lon="14.076261"><ele>564.0</ele><time>2026-04-26T14:00:45.433Z</time></trkpt><trkpt lat="45.7607526" lon="14.0760859"><ele>565.0</ele><time>2026-04-26T14:00:46.433Z</time></trkpt><trkpt lat="45.7606957" lon="14.0759314"><ele>565.0</ele><time>2026-04-26T14:00:47.433Z</time></trkpt><trkpt lat="45.760634" lon="14.075767"><ele>565.0</ele><time>2026-04-26T14:00:48.433Z</time></trkpt><trkpt lat="45.7605591" lon="14.0756024"><ele>565.0</ele><time>2026-04-26T14:00:49.433Z</time></trkpt><trkpt lat="45.7604775" lon="14.0754263"><ele>565.0</ele><time>2026-04-26T14:00:50.433Z</time></trkpt><trkpt lat="45.7603753" lon="14.0752385"><ele>565.0</ele><time>2026-04-26T14:00:51.433Z</time></trkpt><trkpt lat="45.7602477" lon="14.075042"><ele>565.0</ele><time>2026-04-26T14:00:52.433Z</time></trkpt><trkpt lat="45.7600718" lon="14.0748316"><ele>565.0</ele><time>2026-04-26T14:00:53.433Z</time></trkpt><trkpt lat="45.7598656" lon="14.074607"><ele>564.0</ele><time>2026-04-26T14:00:54.433Z</time></trkpt><trkpt lat="45.7596588" lon="14.0743826"><ele>563.0</ele><time>2026-04-26T14:00:55.433Z</time></trkpt><trkpt lat="45.7594599" lon="14.0741484"><ele>562.0</ele><time>2026-04-26T14:00:56.433Z</time></trkpt><trkpt lat="45.7592863" lon="14.073927"><ele>561.0</ele><time>2026-04-26T14:00:57.433Z</time></trkpt><trkpt lat="45.7591369" lon="14.0737075"><ele>560.0</ele><time>2026-04-26T14:00:58.433Z</time></trkpt><trkpt lat="45.7589908" lon="14.0734694"><ele>560.5</ele><time>2026-04-26T14:00:59.433Z</time></trkpt><trkpt lat="45.7588625" lon="14.0731982"><ele>561.0</ele><time>2026-04-26T14:01:00.433Z</time></trkpt><trkpt lat="45.7587745" lon="14.0728785"><ele>561.0</ele><time>2026-04-26T14:01:01.433Z</time></trkpt><trkpt lat="45.7587314" lon="14.0725136"><ele>561.0</ele><time>2026-04-26T14:01:02.433Z</time></trkpt><trkpt lat="45.7587062" lon="14.0721506"><ele>561.0</ele><time>2026-04-26T14:01:03.433Z</time></trkpt><trkpt lat="45.7586882" lon="14.0717896"><ele>561.0</ele><time>2026-04-26T14:01:04.433Z</time></trkpt><trkpt lat="45.7586508" lon="14.0714339"><ele>562.0</ele><time>2026-04-26T14:01:05.433Z</time></trkpt><trkpt lat="45.7585832" lon="14.0710733"><ele>563.0</ele><time>2026-04-26T14:01:06.433Z</time></trkpt><trkpt lat="45.7584925" lon="14.0707268"><ele>563.5</ele><time>2026-04-26T14:01:07.434Z</time></trkpt><trkpt lat="45.7583808" lon="14.0704021"><ele>564.0</ele><time>2026-04-26T14:01:08.434Z</time></trkpt><trkpt lat="45.7582514" lon="14.0701005"><ele>565.5</ele><time>2026-04-26T14:01:09.433Z</time></trkpt><trkpt lat="45.7581066" lon="14.0698139"><ele>567.0</ele><time>2026-04-26T14:01:10.433Z</time></trkpt><trkpt lat="45.7579548" lon="14.0695251"><ele>567.0</ele><time>2026-04-26T14:01:11.433Z</time></trkpt><trkpt lat="45.7578028" lon="14.0692379"><ele>567.0</ele><time>2026-04-26T14:01:12.434Z</time></trkpt><trkpt lat="45.7576539" lon="14.0689433"><ele>564.5</ele><time>2026-04-26T14:01:13.433Z</time></trkpt><trkpt lat="45.7575075" lon="14.0686468"><ele>562.0</ele><time>2026-04-26T14:01:14.433Z</time></trkpt><trkpt lat="45.7573441" lon="14.0683642"><ele>562.5</ele><time>2026-04-26T14:01:15.433Z</time></trkpt><trkpt lat="45.7571458" lon="14.0681171"><ele>563.0</ele><time>2026-04-26T14:01:16.433Z</time></trkpt><trkpt lat="45.7569248" lon="14.0678998"><ele>562.0</ele><time>2026-04-26T14:01:17.433Z</time></trkpt><trkpt lat="45.7566903" lon="14.0676888"><ele>561.0</ele><time>2026-04-26T14:01:18.433Z</time></trkpt><trkpt lat="45.756452" lon="14.0674788"><ele>560.5</ele><time>2026-04-26T14:01:19.433Z</time></trkpt><trkpt lat="45.7562165" lon="14.0672667"><ele>560.0</ele><time>2026-04-26T14:01:20.433Z</time></trkpt><trkpt lat="45.7559846" lon="14.0670541"><ele>561.5</ele><time>2026-04-26T14:01:21.433Z</time></trkpt><trkpt lat="45.7557406" lon="14.0668409"><ele>563.0</ele><time>2026-04-26T14:01:22.434Z</time></trkpt><trkpt lat="45.7554977" lon="14.0666153"><ele>563.5</ele><time>2026-04-26T14:01:23.433Z</time></trkpt><trkpt lat="45.7552566" lon="14.0663889"><ele>564.0</ele><time>2026-04-26T14:01:24.433Z</time></trkpt><trkpt lat="45.7550122" lon="14.0661594"><ele>564.0</ele><time>2026-04-26T14:01:25.433Z</time></trkpt><trkpt lat="45.7547773" lon="14.0659295"><ele>564.0</ele><time>2026-04-26T14:01:26.434Z</time></trkpt><trkpt lat="45.7545655" lon="14.0656656"><ele>564.0</ele><time>2026-04-26T14:01:27.433Z</time></trkpt><trkpt lat="45.7543898" lon="14.0653503"><ele>564.0</ele><time>2026-04-26T14:01:28.433Z</time></trkpt><trkpt lat="45.7542335" lon="14.0650127"><ele>569.0</ele><time>2026-04-26T14:01:29.433Z</time></trkpt><trkpt lat="45.7540705" lon="14.0646586"><ele>574.0</ele><time>2026-04-26T14:01:30.433Z</time></trkpt><trkpt lat="45.753911" lon="14.0643138"><ele>573.0</ele><time>2026-04-26T14:01:31.433Z</time></trkpt><trkpt lat="45.7537404" lon="14.0639701"><ele>572.0</ele><time>2026-04-26T14:01:32.433Z</time></trkpt><trkpt lat="45.7535784" lon="14.0636343"><ele>579.5</ele><time>2026-04-26T14:01:33.434Z</time></trkpt><trkpt lat="45.7534318" lon="14.063319"><ele>587.0</ele><time>2026-04-26T14:01:34.434Z</time></trkpt><trkpt lat="45.7533007" lon="14.0630115"><ele>588.0</ele><time>2026-04-26T14:01:35.433Z</time></trkpt><trkpt lat="45.7531967" lon="14.0626874"><ele>589.0</ele><time>2026-04-26T14:01:36.433Z</time></trkpt><trkpt lat="45.7531181" lon="14.0623491"><ele>590.0</ele><time>2026-04-26T14:01:37.434Z</time></trkpt><trkpt lat="45.7530521" lon="14.0619935"><ele>591.0</ele><time>2026-04-26T14:01:38.433Z</time></trkpt><trkpt lat="45.7529914" lon="14.0616305"><ele>592.0</ele><time>2026-04-26T14:01:39.433Z</time></trkpt><trkpt lat="45.7529319" lon="14.0612614"><ele>593.0</ele><time>2026-04-26T14:01:40.433Z</time></trkpt><trkpt lat="45.7528722" lon="14.0608833"><ele>593.5</ele><time>2026-04-26T14:01:41.433Z</time></trkpt><trkpt lat="45.7528203" lon="14.0605144"><ele>594.0</ele><time>2026-04-26T14:01:42.433Z</time></trkpt><trkpt lat="45.7527824" lon="14.0601307"><ele>593.0</ele><time>2026-04-26T14:01:43.433Z</time></trkpt><trkpt lat="45.7527482" lon="14.0597307"><ele>592.0</ele><time>2026-04-26T14:01:44.433Z</time></trkpt><trkpt lat="45.7527085" lon="14.0593466"><ele>605.5</ele><time>2026-04-26T14:01:45.433Z</time></trkpt><trkpt lat="45.7526748" lon="14.0589704"><ele>619.0</ele><time>2026-04-26T14:01:46.433Z</time></trkpt><trkpt lat="45.7526613" lon="14.0586055"><ele>620.0</ele><time>2026-04-26T14:01:47.433Z</time></trkpt><trkpt lat="45.7526671" lon="14.058253"><ele>621.0</ele><time>2026-04-26T14:01:48.434Z</time></trkpt><trkpt lat="45.7527056" lon="14.0579253"><ele>617.3333333333334</ele><time>2026-04-26T14:01:49.433Z</time></trkpt><trkpt lat="45.7527936" lon="14.0576292"><ele>613.6666666666667</ele><time>2026-04-26T14:01:50.433Z</time></trkpt><trkpt lat="45.75289" lon="14.0573474"><ele>610.0</ele><time>2026-04-26T14:01:51.433Z</time></trkpt><trkpt lat="45.75298" lon="14.0570777"><ele>610.0</ele><time>2026-04-26T14:01:52.433Z</time></trkpt><trkpt lat="45.753064" lon="14.056797"><ele>610.0</ele><time>2026-04-26T14:01:53.433Z</time></trkpt><trkpt lat="45.753128" lon="14.0565235"><ele>610.0</ele><time>2026-04-26T14:01:54.433Z</time></trkpt><trkpt lat="45.7531628" lon="14.0562489"><ele>609.6666666666667</ele><time>2026-04-26T14:01:55.433Z</time></trkpt><trkpt lat="45.7531585" lon="14.0559675"><ele>609.3333333333334</ele><time>2026-04-26T14:01:56.433Z</time></trkpt><trkpt lat="45.7531194" lon="14.0556876"><ele>609.0</ele><time>2026-04-26T14:01:57.434Z</time></trkpt><trkpt lat="45.7530318" lon="14.055433"><ele>606.6666666666666</ele><time>2026-04-26T14:01:58.433Z</time></trkpt><trkpt lat="45.7529263" lon="14.0552153"><ele>604.3333333333333</ele><time>2026-04-26T14:01:59.433Z</time></trkpt><trkpt lat="45.752805" lon="14.0550473"><ele>602.0</ele><time>2026-04-26T14:02:00.433Z</time></trkpt><trkpt lat="45.7526812" lon="14.0548973"><ele>607.3333333333333</ele><time>2026-04-26T14:02:01.434Z</time></trkpt><trkpt lat="45.7525394" lon="14.0547801"><ele>612.6666666666666</ele><time>2026-04-26T14:02:02.433Z</time></trkpt><trkpt lat="45.7523822" lon="14.0546944"><ele>618.0</ele><time>2026-04-26T14:02:03.433Z</time></trkpt><trkpt lat="45.7522059" lon="14.0546272"><ele>618.0</ele><time>2026-04-26T14:02:04.433Z</time></trkpt><trkpt lat="45.7519961" lon="14.0545564"><ele>618.0</ele><time>2026-04-26T14:02:05.433Z</time></trkpt><trkpt lat="45.7517852" lon="14.0544886"><ele>618.0</ele><time>2026-04-26T14:02:06.433Z</time></trkpt><trkpt lat="45.7515841" lon="14.0544548"><ele>619.3333333333334</ele><time>2026-04-26T14:02:07.433Z</time></trkpt><trkpt lat="45.7513892" lon="14.0544913"><ele>620.6666666666667</ele><time>2026-04-26T14:02:08.433Z</time></trkpt><trkpt lat="45.7512058" lon="14.0545852"><ele>622.0</ele><time>2026-04-26T14:02:09.433Z</time></trkpt><trkpt lat="45.7510364" lon="14.0547184"><ele>625.6666666666667</ele><time>2026-04-26T14:02:10.433Z</time></trkpt><trkpt lat="45.7508779" lon="14.0548809"><ele>629.3333333333334</ele><time>2026-04-26T14:02:11.433Z</time></trkpt><trkpt lat="45.7507276" lon="14.0550562"><ele>633.0</ele><time>2026-04-26T14:02:12.433Z</time></trkpt><trkpt lat="45.7505916" lon="14.0552319"><ele>633.0</ele><time>2026-04-26T14:02:13.433Z</time></trkpt><trkpt lat="45.7504547" lon="14.0553963"><ele>633.0</ele><time>2026-04-26T14:02:14.433Z</time></trkpt><trkpt lat="45.7503242" lon="14.0555563"><ele>633.0</ele><time>2026-04-26T14:02:15.433Z</time></trkpt><trkpt lat="45.7501912" lon="14.0557128"><ele>636.6666666666666</ele><time>2026-04-26T14:02:16.433Z</time></trkpt><trkpt lat="45.7500565" lon="14.0558685"><ele>640.3333333333333</ele><time>2026-04-26T14:02:17.433Z</time></trkpt><trkpt lat="45.7499202" lon="14.0560371"><ele>644.0</ele><time>2026-04-26T14:02:18.433Z</time></trkpt><trkpt lat="45.7497828" lon="14.0562036"><ele>644.0</ele><time>2026-04-26T14:02:19.433Z</time></trkpt><trkpt lat="45.749654" lon="14.0563597"><ele>644.0</ele><time>2026-04-26T14:02:20.433Z</time></trkpt><trkpt lat="45.7495252" lon="14.056518"><ele>644.0</ele><time>2026-04-26T14:02:21.433Z</time></trkpt><trkpt lat="45.7494007" lon="14.0566901"><ele>644.3333333333333</ele><time>2026-04-26T14:02:22.433Z</time></trkpt><trkpt lat="45.7492748" lon="14.0568696"><ele>644.6666666666666</ele><time>2026-04-26T14:02:23.433Z</time></trkpt><trkpt lat="45.7491502" lon="14.0570587"><ele>645.0</ele><time>2026-04-26T14:02:24.433Z</time></trkpt><trkpt lat="45.7490247" lon="14.0572659"><ele>644.6666666666666</ele><time>2026-04-26T14:02:25.433Z</time></trkpt><trkpt lat="45.7488892" lon="14.0574973"><ele>644.3333333333333</ele><time>2026-04-26T14:02:26.433Z</time></trkpt><trkpt lat="45.7487432" lon="14.0577586"><ele>644.0</ele><time>2026-04-26T14:02:27.433Z</time></trkpt><trkpt lat="45.7485718" lon="14.0580309"><ele>650.5</ele><time>2026-04-26T14:02:28.433Z</time></trkpt><trkpt lat="45.7483786" lon="14.0583086"><ele>657.0</ele><time>2026-04-26T14:02:29.433Z</time></trkpt><trkpt lat="45.7481776" lon="14.0586038"><ele>657.0</ele><time>2026-04-26T14:02:30.433Z</time></trkpt><trkpt lat="45.7479763" lon="14.0589118"><ele>657.0</ele><time>2026-04-26T14:02:31.433Z</time></trkpt><trkpt lat="45.7477688" lon="14.0592463"><ele>662.5</ele><time>2026-04-26T14:02:32.433Z</time></trkpt><trkpt lat="45.7475586" lon="14.0595861"><ele>668.0</ele><time>2026-04-26T14:02:33.433Z</time></trkpt><trkpt lat="45.747342" lon="14.0599226"><ele>666.5</ele><time>2026-04-26T14:02:34.433Z</time></trkpt><trkpt lat="45.7471252" lon="14.0602667"><ele>665.0</ele><time>2026-04-26T14:02:35.433Z</time></trkpt><trkpt lat="45.746911" lon="14.06061"><ele>664.5</ele><time>2026-04-26T14:02:36.433Z</time></trkpt><trkpt lat="45.7467042" lon="14.0609323"><ele>664.0</ele><time>2026-04-26T14:02:37.432Z</time></trkpt><trkpt lat="45.7464985" lon="14.0612431"><ele>664.0</ele><time>2026-04-26T14:02:38.433Z</time></trkpt><trkpt lat="45.7462922" lon="14.06153"><ele>664.0</ele><time>2026-04-26T14:02:39.432Z</time></trkpt><trkpt lat="45.7460901" lon="14.0617989"><ele>658.5</ele><time>2026-04-26T14:02:40.432Z</time></trkpt><trkpt lat="45.7458841" lon="14.0620539"><ele>653.0</ele><time>2026-04-26T14:02:41.433Z</time></trkpt><trkpt lat="45.7456758" lon="14.0623008"><ele>654.5</ele><time>2026-04-26T14:02:42.432Z</time></trkpt><trkpt lat="45.7454652" lon="14.062535"><ele>656.0</ele><time>2026-04-26T14:02:43.432Z</time></trkpt><trkpt lat="45.7452558" lon="14.0627508"><ele>649.5</ele><time>2026-04-26T14:02:44.432Z</time></trkpt><trkpt lat="45.745046" lon="14.0629586"><ele>643.0</ele><time>2026-04-26T14:02:45.432Z</time></trkpt><trkpt lat="45.7448368" lon="14.0631531"><ele>646.0</ele><time>2026-04-26T14:02:46.432Z</time></trkpt><trkpt lat="45.7446334" lon="14.0633426"><ele>649.0</ele><time>2026-04-26T14:02:47.432Z</time></trkpt><trkpt lat="45.7444379" lon="14.0635204"><ele>646.0</ele><time>2026-04-26T14:02:48.432Z</time></trkpt><trkpt lat="45.7442542" lon="14.0636746"><ele>643.0</ele><time>2026-04-26T14:02:49.432Z</time></trkpt><trkpt lat="45.7440859" lon="14.0638083"><ele>640.0</ele><time>2026-04-26T14:02:50.432Z</time></trkpt><trkpt lat="45.7439205" lon="14.0638984"><ele>640.0</ele><time>2026-04-26T14:02:51.432Z</time></trkpt><trkpt lat="45.7437524" lon="14.0638949"><ele>640.0</ele><time>2026-04-26T14:02:52.432Z</time></trkpt><trkpt lat="45.7435934" lon="14.0638106"><ele>640.0</ele><time>2026-04-26T14:02:53.432Z</time></trkpt><trkpt lat="45.7434466" lon="14.0636606"><ele>638.3333333333334</ele><time>2026-04-26T14:02:54.432Z</time></trkpt><trkpt lat="45.7433248" lon="14.0634182"><ele>636.6666666666666</ele><time>2026-04-26T14:02:55.432Z</time></trkpt><trkpt lat="45.7432084" lon="14.0631431"><ele>635.0</ele><time>2026-04-26T14:02:56.432Z</time></trkpt><trkpt lat="45.7430761" lon="14.0628466"><ele>640.0</ele><time>2026-04-26T14:02:57.432Z</time></trkpt><trkpt lat="45.7429297" lon="14.062542"><ele>645.0</ele><time>2026-04-26T14:02:58.432Z</time></trkpt><trkpt lat="45.7427942" lon="14.0622526"><ele>644.0</ele><time>2026-04-26T14:02:59.432Z</time></trkpt><trkpt lat="45.7426739" lon="14.0619875"><ele>643.0</ele><time>2026-04-26T14:03:00.432Z</time></trkpt><trkpt lat="45.7425868" lon="14.0617015"><ele>642.0</ele><time>2026-04-26T14:03:01.432Z</time></trkpt><trkpt lat="45.7425414" lon="14.0613808"><ele>642.0</ele><time>2026-04-26T14:03:02.432Z</time></trkpt><trkpt lat="45.74251" lon="14.061023"><ele>642.0</ele><time>2026-04-26T14:03:03.432Z</time></trkpt><trkpt lat="45.7424611" lon="14.0606612"><ele>640.5</ele><time>2026-04-26T14:03:04.433Z</time></trkpt><trkpt lat="45.7424147" lon="14.060311"><ele>639.0</ele><time>2026-04-26T14:03:05.433Z</time></trkpt><trkpt lat="45.7423648" lon="14.0599568"><ele>638.0</ele><time>2026-04-26T14:03:06.433Z</time></trkpt><trkpt lat="45.7423171" lon="14.059624"><ele>637.0</ele><time>2026-04-26T14:03:07.432Z</time></trkpt><trkpt lat="45.7422715" lon="14.0593101"><ele>636.6666666666667</ele><time>2026-04-26T14:03:08.433Z</time></trkpt><trkpt lat="45.7422395" lon="14.0590119"><ele>636.3333333333334</ele><time>2026-04-26T14:03:09.432Z</time></trkpt><trkpt lat="45.7422524" lon="14.0587079"><ele>636.0</ele><time>2026-04-26T14:03:10.432Z</time></trkpt><trkpt lat="45.7423022" lon="14.0584112"><ele>634.6666666666666</ele><time>2026-04-26T14:03:11.432Z</time></trkpt><trkpt lat="45.7423623" lon="14.0581307"><ele>633.3333333333333</ele><time>2026-04-26T14:03:12.432Z</time></trkpt><trkpt lat="45.7424113" lon="14.057834"><ele>632.0</ele><time>2026-04-26T14:03:13.432Z</time></trkpt><trkpt lat="45.7424176" lon="14.0575248"><ele>633.0</ele><time>2026-04-26T14:03:14.432Z</time></trkpt><trkpt lat="45.7423889" lon="14.0571886"><ele>634.0</ele><time>2026-04-26T14:03:15.432Z</time></trkpt><trkpt lat="45.7423362" lon="14.0568275"><ele>632.0</ele><time>2026-04-26T14:03:16.432Z</time></trkpt><trkpt lat="45.7422668" lon="14.0564716"><ele>630.0</ele><time>2026-04-26T14:03:17.432Z</time></trkpt><trkpt lat="45.7421762" lon="14.0561383"><ele>630.0</ele><time>2026-04-26T14:03:18.432Z</time></trkpt><trkpt lat="45.7421021" lon="14.0558319"><ele>630.0</ele><time>2026-04-26T14:03:19.432Z</time></trkpt><trkpt lat="45.742024" lon="14.0555321"><ele>628.0</ele><time>2026-04-26T14:03:20.433Z</time></trkpt><trkpt lat="45.7419344" lon="14.0552526"><ele>626.0</ele><time>2026-04-26T14:03:21.432Z</time></trkpt><trkpt lat="45.7418246" lon="14.0549917"><ele>624.0</ele><time>2026-04-26T14:03:22.432Z</time></trkpt><trkpt lat="45.7416951" lon="14.0547506"><ele>622.0</ele><time>2026-04-26T14:03:23.432Z</time></trkpt><trkpt lat="45.7415456" lon="14.0545291"><ele>620.0</ele><time>2026-04-26T14:03:24.433Z</time></trkpt><trkpt lat="45.7413806" lon="14.0543293"><ele>618.0</ele><time>2026-04-26T14:03:25.432Z</time></trkpt><trkpt lat="45.7412032" lon="14.0541318"><ele>611.0</ele><time>2026-04-26T14:03:26.432Z</time></trkpt><trkpt lat="45.7410063" lon="14.0539411"><ele>604.0</ele><time>2026-04-26T14:03:27.432Z</time></trkpt><trkpt lat="45.7407989" lon="14.053764"><ele>604.0</ele><time>2026-04-26T14:03:28.432Z</time></trkpt><trkpt lat="45.7405906" lon="14.0536064"><ele>604.0</ele><time>2026-04-26T14:03:29.432Z</time></trkpt><trkpt lat="45.7403741" lon="14.0534747"><ele>603.0</ele><time>2026-04-26T14:03:30.432Z</time></trkpt><trkpt lat="45.7401514" lon="14.0533708"><ele>602.0</ele><time>2026-04-26T14:03:31.432Z</time></trkpt><trkpt lat="45.7399157" lon="14.0533077"><ele>604.0</ele><time>2026-04-26T14:03:32.433Z</time></trkpt><trkpt lat="45.7396927" lon="14.0532734"><ele>606.0</ele><time>2026-04-26T14:03:33.432Z</time></trkpt><trkpt lat="45.7394775" lon="14.0532596"><ele>608.0</ele><time>2026-04-26T14:03:34.433Z</time></trkpt><trkpt lat="45.7392783" lon="14.0532403"><ele>608.0</ele><time>2026-04-26T14:03:35.432Z</time></trkpt><trkpt lat="45.7390846" lon="14.053205"><ele>608.0</ele><time>2026-04-26T14:03:36.432Z</time></trkpt><trkpt lat="45.738891" lon="14.053148"><ele>608.0</ele><time>2026-04-26T14:03:37.432Z</time></trkpt><trkpt lat="45.7386925" lon="14.0530753"><ele>604.5</ele><time>2026-04-26T14:03:38.432Z</time></trkpt><trkpt lat="45.7384841" lon="14.0529891"><ele>601.0</ele><time>2026-04-26T14:03:39.432Z</time></trkpt><trkpt lat="45.7382594" lon="14.0528973"><ele>601.0</ele><time>2026-04-26T14:03:40.432Z</time></trkpt><trkpt lat="45.7380246" lon="14.0527902"><ele>601.0</ele><time>2026-04-26T14:03:41.432Z</time></trkpt><trkpt lat="45.7377824" lon="14.0526592"><ele>598.5</ele><time>2026-04-26T14:03:42.432Z</time></trkpt><trkpt lat="45.737538" lon="14.0525301"><ele>596.0</ele><time>2026-04-26T14:03:43.432Z</time></trkpt><trkpt lat="45.7372984" lon="14.0524118"><ele>597.0</ele><time>2026-04-26T14:03:44.432Z</time></trkpt><trkpt lat="45.7370756" lon="14.0522968"><ele>598.0</ele><time>2026-04-26T14:03:45.432Z</time></trkpt><trkpt lat="45.7368586" lon="14.0521952"><ele>598.0</ele><time>2026-04-26T14:03:46.432Z</time></trkpt><trkpt lat="45.7366445" lon="14.0520843"><ele>598.0</ele><time>2026-04-26T14:03:47.432Z</time></trkpt><trkpt lat="45.7364221" lon="14.0519937"><ele>598.0</ele><time>2026-04-26T14:03:48.432Z</time></trkpt><trkpt lat="45.7361716" lon="14.0519028"><ele>598.0</ele><time>2026-04-26T14:03:49.432Z</time></trkpt><trkpt lat="45.7359136" lon="14.0518232"><ele>596.0</ele><time>2026-04-26T14:03:50.432Z</time></trkpt><trkpt lat="45.7356412" lon="14.0517452"><ele>594.0</ele><time>2026-04-26T14:03:51.433Z</time></trkpt><trkpt lat="45.7353605" lon="14.0516735"><ele>599.0</ele><time>2026-04-26T14:03:52.433Z</time></trkpt><trkpt lat="45.7350784" lon="14.0516108"><ele>604.0</ele><time>2026-04-26T14:03:53.432Z</time></trkpt><trkpt lat="45.7348023" lon="14.0515401"><ele>604.0</ele><time>2026-04-26T14:03:54.433Z</time></trkpt><trkpt lat="45.7345213" lon="14.05147"><ele>604.0</ele><time>2026-04-26T14:03:55.432Z</time></trkpt><trkpt lat="45.7342357" lon="14.0513973"><ele>600.0</ele><time>2026-04-26T14:03:56.432Z</time></trkpt><trkpt lat="45.7339442" lon="14.0513263"><ele>596.0</ele><time>2026-04-26T14:03:57.432Z</time></trkpt><trkpt lat="45.7336496" lon="14.0512579"><ele>595.5</ele><time>2026-04-26T14:03:58.432Z</time></trkpt><trkpt lat="45.7333528" lon="14.0511909"><ele>595.0</ele><time>2026-04-26T14:03:59.432Z</time></trkpt><trkpt lat="45.7330561" lon="14.0511229"><ele>595.0</ele><time>2026-04-26T14:04:00.432Z</time></trkpt><trkpt lat="45.7327575" lon="14.0510518"><ele>595.0</ele><time>2026-04-26T14:04:01.433Z</time></trkpt><trkpt lat="45.7324596" lon="14.0509797"><ele>592.0</ele><time>2026-04-26T14:04:02.432Z</time></trkpt><trkpt lat="45.7321614" lon="14.0509071"><ele>589.0</ele><time>2026-04-26T14:04:03.433Z</time></trkpt><trkpt lat="45.7318664" lon="14.0508427"><ele>595.5</ele><time>2026-04-26T14:04:04.433Z</time></trkpt><trkpt lat="45.7315671" lon="14.0507785"><ele>602.0</ele><time>2026-04-26T14:04:05.432Z</time></trkpt><trkpt lat="45.7312687" lon="14.0507188"><ele>596.0</ele><time>2026-04-26T14:04:06.432Z</time></trkpt><trkpt lat="45.7309721" lon="14.0506583"><ele>590.0</ele><time>2026-04-26T14:04:07.433Z</time></trkpt><trkpt lat="45.7306704" lon="14.0506081"><ele>590.0</ele><time>2026-04-26T14:04:08.432Z</time></trkpt><trkpt lat="45.7303698" lon="14.050568"><ele>590.0</ele><time>2026-04-26T14:04:09.432Z</time></trkpt><trkpt lat="45.7300664" lon="14.0505422"><ele>591.5</ele><time>2026-04-26T14:04:10.433Z</time></trkpt><trkpt lat="45.7297828" lon="14.0505397"><ele>593.0</ele><time>2026-04-26T14:04:11.432Z</time></trkpt><trkpt lat="45.7295091" lon="14.0505461"><ele>598.5</ele><time>2026-04-26T14:04:12.432Z</time></trkpt><trkpt lat="45.7292532" lon="14.0505467"><ele>604.0</ele><time>2026-04-26T14:04:13.432Z</time></trkpt><trkpt lat="45.7290144" lon="14.0505446"><ele>604.0</ele><time>2026-04-26T14:04:14.432Z</time></trkpt><trkpt lat="45.7287792" lon="14.0505126"><ele>604.0</ele><time>2026-04-26T14:04:15.433Z</time></trkpt><trkpt lat="45.7285492" lon="14.0504418"><ele>600.5</ele><time>2026-04-26T14:04:16.433Z</time></trkpt><trkpt lat="45.7283224" lon="14.0503441"><ele>597.0</ele><time>2026-04-26T14:04:17.432Z</time></trkpt><trkpt lat="45.7280928" lon="14.0502311"><ele>597.0</ele><time>2026-04-26T14:04:18.433Z</time></trkpt><trkpt lat="45.7278638" lon="14.0501137"><ele>597.0</ele><time>2026-04-26T14:04:19.432Z</time></trkpt><trkpt lat="45.7276302" lon="14.0500102"><ele>601.5</ele><time>2026-04-26T14:04:20.433Z</time></trkpt><trkpt lat="45.7273927" lon="14.0499066"><ele>606.0</ele><time>2026-04-26T14:04:21.432Z</time></trkpt><trkpt lat="45.7271587" lon="14.0497924"><ele>606.0</ele><time>2026-04-26T14:04:22.433Z</time></trkpt><trkpt lat="45.726921" lon="14.0496572"><ele>606.0</ele><time>2026-04-26T14:04:23.432Z</time></trkpt><trkpt lat="45.7266809" lon="14.0495025"><ele>597.0</ele><time>2026-04-26T14:04:24.432Z</time></trkpt><trkpt lat="45.726443" lon="14.0493372"><ele>588.0</ele><time>2026-04-26T14:04:25.432Z</time></trkpt><trkpt lat="45.7262109" lon="14.0491731"><ele>583.0</ele><time>2026-04-26T14:04:26.432Z</time></trkpt><trkpt lat="45.7259962" lon="14.0490003"><ele>578.0</ele><time>2026-04-26T14:04:27.433Z</time></trkpt><trkpt lat="45.7257936" lon="14.0488299"><ele>578.0</ele><time>2026-04-26T14:04:28.432Z</time></trkpt><trkpt lat="45.7255979" lon="14.0486694"><ele>578.0</ele><time>2026-04-26T14:04:29.432Z</time></trkpt><trkpt lat="45.7254126" lon="14.048527"><ele>578.0</ele><time>2026-04-26T14:04:30.433Z</time></trkpt><trkpt lat="45.725236" lon="14.0483898"><ele>576.6666666666666</ele><time>2026-04-26T14:04:31.433Z</time></trkpt><trkpt lat="45.7250706" lon="14.048257"><ele>575.3333333333334</ele><time>2026-04-26T14:04:32.432Z</time></trkpt><trkpt lat="45.7249208" lon="14.0481167"><ele>574.0</ele><time>2026-04-26T14:04:33.432Z</time></trkpt><trkpt lat="45.7247767" lon="14.04799"><ele>574.0</ele><time>2026-04-26T14:04:34.433Z</time></trkpt><trkpt lat="45.7246406" lon="14.0478661"><ele>574.0</ele><time>2026-04-26T14:04:35.432Z</time></trkpt><trkpt lat="45.7245057" lon="14.0477412"><ele>574.0</ele><time>2026-04-26T14:04:36.432Z</time></trkpt><trkpt lat="45.7243831" lon="14.0476308"><ele>573.5</ele><time>2026-04-26T14:04:37.432Z</time></trkpt><trkpt lat="45.7242598" lon="14.0475278"><ele>573.0</ele><time>2026-04-26T14:04:38.432Z</time></trkpt><trkpt lat="45.7241457" lon="14.0474282"><ele>572.5</ele><time>2026-04-26T14:04:39.432Z</time></trkpt><trkpt lat="45.7240289" lon="14.0473241"><ele>572.0</ele><time>2026-04-26T14:04:40.433Z</time></trkpt><trkpt lat="45.7239208" lon="14.0472136"><ele>571.25</ele><time>2026-04-26T14:04:41.432Z</time></trkpt><trkpt lat="45.7238175" lon="14.0470915"><ele>570.5</ele><time>2026-04-26T14:04:42.432Z</time></trkpt><trkpt lat="45.7237275" lon="14.0469656"><ele>569.75</ele><time>2026-04-26T14:04:43.432Z</time></trkpt><trkpt lat="45.7236431" lon="14.0468364"><ele>569.0</ele><time>2026-04-26T14:04:44.432Z</time></trkpt><trkpt lat="45.723567" lon="14.046697"><ele>568.6</ele><time>2026-04-26T14:04:45.433Z</time></trkpt><trkpt lat="45.7234977" lon="14.0465657"><ele>568.2</ele><time>2026-04-26T14:04:46.433Z</time></trkpt><trkpt lat="45.7234372" lon="14.0464452"><ele>567.8000000000001</ele><time>2026-04-26T14:04:47.432Z</time></trkpt><trkpt lat="45.7233754" lon="14.0463278"><ele>567.4</ele><time>2026-04-26T14:04:48.432Z</time></trkpt><trkpt lat="45.7233068" lon="14.0462095"><ele>567.0</ele><time>2026-04-26T14:04:49.432Z</time></trkpt><trkpt lat="45.7232351" lon="14.0460848"><ele>567.0</ele><time>2026-04-26T14:04:50.432Z</time></trkpt><trkpt lat="45.7231609" lon="14.0459421"><ele>567.0</ele><time>2026-04-26T14:04:51.432Z</time></trkpt><trkpt lat="45.7230826" lon="14.0458081"><ele>567.0</ele><time>2026-04-26T14:04:52.432Z</time></trkpt><trkpt lat="45.7230067" lon="14.0456667"><ele>567.0</ele><time>2026-04-26T14:04:53.432Z</time></trkpt><trkpt lat="45.7229331" lon="14.0455175"><ele>566.75</ele><time>2026-04-26T14:04:54.432Z</time></trkpt><trkpt lat="45.7228635" lon="14.0453793"><ele>566.5</ele><time>2026-04-26T14:04:55.433Z</time></trkpt><trkpt lat="45.7227939" lon="14.0452439"><ele>566.25</ele><time>2026-04-26T14:04:56.432Z</time></trkpt><trkpt lat="45.7227266" lon="14.0451067"><ele>566.0</ele><time>2026-04-26T14:04:57.432Z</time></trkpt><trkpt lat="45.7226582" lon="14.0449656"><ele>566.0</ele><time>2026-04-26T14:04:58.432Z</time></trkpt><trkpt lat="45.7225928" lon="14.0448218"><ele>566.0</ele><time>2026-04-26T14:04:59.432Z</time></trkpt><trkpt lat="45.7225296" lon="14.0446732"><ele>566.0</ele><time>2026-04-26T14:05:00.432Z</time></trkpt><trkpt lat="45.7224655" lon="14.0445215"><ele>566.0</ele><time>2026-04-26T14:05:01.432Z</time></trkpt><trkpt lat="45.722408" lon="14.044364"><ele>566.0</ele><time>2026-04-26T14:05:02.432Z</time></trkpt><trkpt lat="45.7223516" lon="14.0442067"><ele>566.0</ele><time>2026-04-26T14:05:03.432Z</time></trkpt><trkpt lat="45.7222949" lon="14.0440481"><ele>566.0</ele><time>2026-04-26T14:05:04.432Z</time></trkpt><trkpt lat="45.7222415" lon="14.0438855"><ele>566.0</ele><time>2026-04-26T14:05:05.432Z</time></trkpt><trkpt lat="45.7221904" lon="14.0437275"><ele>566.0</ele><time>2026-04-26T14:05:06.432Z</time></trkpt><trkpt lat="45.7221434" lon="14.0435588"><ele>566.0</ele><time>2026-04-26T14:05:07.432Z</time></trkpt><trkpt lat="45.7220966" lon="14.0433914"><ele>566.0</ele><time>2026-04-26T14:05:08.432Z</time></trkpt><trkpt lat="45.7220564" lon="14.0432209"><ele>566.0</ele><time>2026-04-26T14:05:09.432Z</time></trkpt><trkpt lat="45.7220208" lon="14.0430485"><ele>566.0</ele><time>2026-04-26T14:05:10.432Z</time></trkpt><trkpt lat="45.7219828" lon="14.0428901"><ele>566.0</ele><time>2026-04-26T14:05:11.432Z</time></trkpt><trkpt lat="45.7219389" lon="14.0427361"><ele>566.0</ele><time>2026-04-26T14:05:12.432Z</time></trkpt><trkpt lat="45.7218991" lon="14.0425781"><ele>566.0</ele><time>2026-04-26T14:05:13.432Z</time></trkpt><trkpt lat="45.7218599" lon="14.0424174"><ele>566.5</ele><time>2026-04-26T14:05:14.432Z</time></trkpt><trkpt lat="45.7218204" lon="14.0422513"><ele>567.0</ele><time>2026-04-26T14:05:15.432Z</time></trkpt><trkpt lat="45.7217819" lon="14.0420873"><ele>567.5</ele><time>2026-04-26T14:05:16.432Z</time></trkpt><trkpt lat="45.7217406" lon="14.0419234"><ele>568.0</ele><time>2026-04-26T14:05:17.432Z</time></trkpt><trkpt lat="45.7216993" lon="14.0417604"><ele>567.25</ele><time>2026-04-26T14:05:18.432Z</time></trkpt><trkpt lat="45.7216567" lon="14.0415917"><ele>566.5</ele><time>2026-04-26T14:05:19.432Z</time></trkpt><trkpt lat="45.7216088" lon="14.0414293"><ele>565.75</ele><time>2026-04-26T14:05:20.432Z</time></trkpt><trkpt lat="45.7215712" lon="14.0412634"><ele>565.0</ele><time>2026-04-26T14:05:21.432Z</time></trkpt><trkpt lat="45.7215259" lon="14.041097"><ele>565.0</ele><time>2026-04-26T14:05:22.432Z</time></trkpt><trkpt lat="45.7214823" lon="14.0409293"><ele>565.0</ele><time>2026-04-26T14:05:23.433Z</time></trkpt><trkpt lat="45.7214353" lon="14.0407596"><ele>565.0</ele><time>2026-04-26T14:05:24.432Z</time></trkpt><trkpt lat="45.7213913" lon="14.0405921"><ele>565.0</ele><time>2026-04-26T14:05:25.432Z</time></trkpt><trkpt lat="45.7213397" lon="14.0404263"><ele>564.75</ele><time>2026-04-26T14:05:26.432Z</time></trkpt><trkpt lat="45.721295" lon="14.0402626"><ele>564.5</ele><time>2026-04-26T14:05:27.432Z</time></trkpt><trkpt lat="45.7212527" lon="14.0400968"><ele>564.25</ele><time>2026-04-26T14:05:28.432Z</time></trkpt><trkpt lat="45.7212038" lon="14.0399215"><ele>564.0</ele><time>2026-04-26T14:05:29.432Z</time></trkpt><trkpt lat="45.7211539" lon="14.0397578"><ele>564.0</ele><time>2026-04-26T14:05:30.432Z</time></trkpt><trkpt lat="45.721104" lon="14.0395937"><ele>564.0</ele><time>2026-04-26T14:05:31.432Z</time></trkpt><trkpt lat="45.7210584" lon="14.0394341"><ele>564.0</ele><time>2026-04-26T14:05:32.433Z</time></trkpt><trkpt lat="45.7210116" lon="14.0392724"><ele>564.0</ele><time>2026-04-26T14:05:33.433Z</time></trkpt><trkpt lat="45.7209628" lon="14.0391049"><ele>563.75</ele><time>2026-04-26T14:05:34.432Z</time></trkpt><trkpt lat="45.7209226" lon="14.0389312"><ele>563.5</ele><time>2026-04-26T14:05:35.433Z</time></trkpt><trkpt lat="45.7208814" lon="14.0387631"><ele>563.25</ele><time>2026-04-26T14:05:36.433Z</time></trkpt><trkpt lat="45.720845" lon="14.0385884"><ele>563.0</ele><time>2026-04-26T14:05:37.432Z</time></trkpt><trkpt lat="45.7208163" lon="14.0384094"><ele>562.25</ele><time>2026-04-26T14:05:38.432Z</time></trkpt><trkpt lat="45.7207902" lon="14.0382304"><ele>561.5</ele><time>2026-04-26T14:05:39.433Z</time></trkpt><trkpt lat="45.7207632" lon="14.0380415"><ele>560.75</ele><time>2026-04-26T14:05:40.433Z</time></trkpt><trkpt lat="45.7207348" lon="14.0378677"><ele>560.0</ele><time>2026-04-26T14:05:41.432Z</time></trkpt><trkpt lat="45.7207093" lon="14.0377067"><ele>560.0</ele><time>2026-04-26T14:05:42.433Z</time></trkpt><trkpt lat="45.7206777" lon="14.0375546"><ele>560.0</ele><time>2026-04-26T14:05:43.432Z</time></trkpt><trkpt lat="45.7206475" lon="14.0374037"><ele>560.0</ele><time>2026-04-26T14:05:44.432Z</time></trkpt><trkpt lat="45.7206209" lon="14.0372333"><ele>560.0</ele><time>2026-04-26T14:05:45.432Z</time></trkpt><trkpt lat="45.7205864" lon="14.0370217"><ele>559.6666666666666</ele><time>2026-04-26T14:05:46.432Z</time></trkpt><trkpt lat="45.7205261" lon="14.0367743"><ele>559.3333333333334</ele><time>2026-04-26T14:05:47.433Z</time></trkpt><trkpt lat="45.7204145" lon="14.036524"><ele>559.0</ele><time>2026-04-26T14:05:48.432Z</time></trkpt><trkpt lat="45.7202839" lon="14.0362587"><ele>560.0</ele><time>2026-04-26T14:05:49.432Z</time></trkpt><trkpt lat="45.7201139" lon="14.0360168"><ele>561.0</ele><time>2026-04-26T14:05:50.433Z</time></trkpt><trkpt lat="45.7199088" lon="14.0357793"><ele>561.0</ele><time>2026-04-26T14:05:51.432Z</time></trkpt><trkpt lat="45.7196737" lon="14.0355725"><ele>561.0</ele><time>2026-04-26T14:05:52.433Z</time></trkpt><trkpt lat="45.7194208" lon="14.0354061"><ele>563.5</ele><time>2026-04-26T14:05:53.432Z</time></trkpt><trkpt lat="45.7191532" lon="14.0352538"><ele>566.0</ele><time>2026-04-26T14:05:54.432Z</time></trkpt><trkpt lat="45.7188808" lon="14.0350959"><ele>566.5</ele><time>2026-04-26T14:05:55.432Z</time></trkpt><trkpt lat="45.7186134" lon="14.0349519"><ele>567.0</ele><time>2026-04-26T14:05:56.432Z</time></trkpt><trkpt lat="45.7183533" lon="14.0348064"><ele>568.0</ele><time>2026-04-26T14:05:57.432Z</time></trkpt><trkpt lat="45.7181019" lon="14.0346609"><ele>569.0</ele><time>2026-04-26T14:05:58.432Z</time></trkpt><trkpt lat="45.7178655" lon="14.0345277"><ele>567.0</ele><time>2026-04-26T14:05:59.432Z</time></trkpt><trkpt lat="45.7176419" lon="14.0343896"><ele>565.0</ele><time>2026-04-26T14:06:00.432Z</time></trkpt><trkpt lat="45.7174299" lon="14.0342428"><ele>564.5</ele><time>2026-04-26T14:06:01.432Z</time></trkpt><trkpt lat="45.7172248" lon="14.0340655"><ele>564.0</ele><time>2026-04-26T14:06:02.432Z</time></trkpt><trkpt lat="45.7170299" lon="14.0338396"><ele>564.5</ele><time>2026-04-26T14:06:03.432Z</time></trkpt><trkpt lat="45.7168557" lon="14.0335741"><ele>565.0</ele><time>2026-04-26T14:06:04.432Z</time></trkpt><trkpt lat="45.7167022" lon="14.0332988"><ele>563.0</ele><time>2026-04-26T14:06:05.433Z</time></trkpt><trkpt lat="45.7165662" lon="14.0329825"><ele>561.0</ele><time>2026-04-26T14:06:06.432Z</time></trkpt><trkpt lat="45.7164609" lon="14.0326425"><ele>560.5</ele><time>2026-04-26T14:06:07.432Z</time></trkpt><trkpt lat="45.7163853" lon="14.0322843"><ele>560.0</ele><time>2026-04-26T14:06:08.432Z</time></trkpt><trkpt lat="45.71632" lon="14.0319065"><ele>560.0</ele><time>2026-04-26T14:06:09.432Z</time></trkpt><trkpt lat="45.7162501" lon="14.0315315"><ele>560.0</ele><time>2026-04-26T14:06:10.432Z</time></trkpt><trkpt lat="45.7161603" lon="14.0311527"><ele>562.0</ele><time>2026-04-26T14:06:11.433Z</time></trkpt><trkpt lat="45.7160506" lon="14.0307772"><ele>564.0</ele><time>2026-04-26T14:06:12.432Z</time></trkpt><trkpt lat="45.715919" lon="14.0304167"><ele>564.0</ele><time>2026-04-26T14:06:13.432Z</time></trkpt><trkpt lat="45.7157639" lon="14.0300589"><ele>564.0</ele><time>2026-04-26T14:06:14.432Z</time></trkpt><trkpt lat="45.7156103" lon="14.0297156"><ele>562.5</ele><time>2026-04-26T14:06:15.432Z</time></trkpt><trkpt lat="45.715467" lon="14.029366"><ele>561.0</ele><time>2026-04-26T14:06:16.432Z</time></trkpt><trkpt lat="45.715338" lon="14.0290166"><ele>563.5</ele><time>2026-04-26T14:06:17.433Z</time></trkpt><trkpt lat="45.715233" lon="14.0286501"><ele>566.0</ele><time>2026-04-26T14:06:18.432Z</time></trkpt><trkpt lat="45.7151449" lon="14.028273"><ele>566.0</ele><time>2026-04-26T14:06:19.432Z</time></trkpt><trkpt lat="45.7150639" lon="14.0279014"><ele>566.0</ele><time>2026-04-26T14:06:20.432Z</time></trkpt><trkpt lat="45.7149819" lon="14.0275375"><ele>565.0</ele><time>2026-04-26T14:06:21.432Z</time></trkpt><trkpt lat="45.7149017" lon="14.0271933"><ele>564.0</ele><time>2026-04-26T14:06:22.432Z</time></trkpt><trkpt lat="45.7148211" lon="14.0268601"><ele>562.5</ele><time>2026-04-26T14:06:23.432Z</time></trkpt><trkpt lat="45.7147396" lon="14.026529"><ele>561.0</ele><time>2026-04-26T14:06:24.432Z</time></trkpt><trkpt lat="45.7146534" lon="14.0261993"><ele>561.0</ele><time>2026-04-26T14:06:25.433Z</time></trkpt><trkpt lat="45.7145656" lon="14.0258717"><ele>561.0</ele><time>2026-04-26T14:06:26.432Z</time></trkpt><trkpt lat="45.7144781" lon="14.0255659"><ele>565.0</ele><time>2026-04-26T14:06:27.432Z</time></trkpt><trkpt lat="45.714398" lon="14.0252652"><ele>569.0</ele><time>2026-04-26T14:06:28.432Z</time></trkpt><trkpt lat="45.7143312" lon="14.0249886"><ele>573.0</ele><time>2026-04-26T14:06:29.433Z</time></trkpt><trkpt lat="45.7142696" lon="14.0247451"><ele>573.0</ele><time>2026-04-26T14:06:30.432Z</time></trkpt><trkpt lat="45.7142059" lon="14.0245179"><ele>573.0</ele><time>2026-04-26T14:06:31.433Z</time></trkpt><trkpt lat="45.7141568" lon="14.0242963"><ele>573.0</ele><time>2026-04-26T14:06:32.432Z</time></trkpt><trkpt lat="45.7141124" lon="14.0240646"><ele>571.6666666666666</ele><time>2026-04-26T14:06:33.432Z</time></trkpt><trkpt lat="45.7140721" lon="14.0238168"><ele>570.3333333333333</ele><time>2026-04-26T14:06:34.432Z</time></trkpt><trkpt lat="45.7140369" lon="14.0235701"><ele>569.0</ele><time>2026-04-26T14:06:35.432Z</time></trkpt><trkpt lat="45.7140049" lon="14.0233199"><ele>569.0</ele><time>2026-04-26T14:06:36.432Z</time></trkpt><trkpt lat="45.7139788" lon="14.023068"><ele>569.0</ele><time>2026-04-26T14:06:37.432Z</time></trkpt><trkpt lat="45.7139571" lon="14.022819"><ele>569.0</ele><time>2026-04-26T14:06:38.432Z</time></trkpt><trkpt lat="45.7139361" lon="14.0225726"><ele>569.6666666666666</ele><time>2026-04-26T14:06:39.432Z</time></trkpt><trkpt lat="45.7139146" lon="14.0223256"><ele>570.3333333333334</ele><time>2026-04-26T14:06:40.432Z</time></trkpt><trkpt lat="45.7138833" lon="14.0220799"><ele>571.0</ele><time>2026-04-26T14:06:41.432Z</time></trkpt><trkpt lat="45.7138415" lon="14.0218394"><ele>570.3333333333334</ele><time>2026-04-26T14:06:42.432Z</time></trkpt><trkpt lat="45.7137906" lon="14.0216075"><ele>569.6666666666666</ele><time>2026-04-26T14:06:43.433Z</time></trkpt><trkpt lat="45.7137279" lon="14.0213748"><ele>569.0</ele><time>2026-04-26T14:06:44.432Z</time></trkpt><trkpt lat="45.7136509" lon="14.0211599"><ele>573.0</ele><time>2026-04-26T14:06:45.432Z</time></trkpt><trkpt lat="45.7135577" lon="14.0209542"><ele>577.0</ele><time>2026-04-26T14:06:46.432Z</time></trkpt><trkpt lat="45.7134477" lon="14.0207652"><ele>581.0</ele><time>2026-04-26T14:06:47.432Z</time></trkpt><trkpt lat="45.7133327" lon="14.0205907"><ele>581.0</ele><time>2026-04-26T14:06:48.432Z</time></trkpt><trkpt lat="45.7132175" lon="14.0204246"><ele>581.0</ele><time>2026-04-26T14:06:49.432Z</time></trkpt><trkpt lat="45.7131058" lon="14.0202658"><ele>581.0</ele><time>2026-04-26T14:06:50.432Z</time></trkpt><trkpt lat="45.7129952" lon="14.0201148"><ele>580.0</ele><time>2026-04-26T14:06:51.433Z</time></trkpt><trkpt lat="45.7128774" lon="14.0199549"><ele>579.0</ele><time>2026-04-26T14:06:52.432Z</time></trkpt><trkpt lat="45.7127534" lon="14.0197897"><ele>578.0</ele><time>2026-04-26T14:06:53.433Z</time></trkpt><trkpt lat="45.7126283" lon="14.0196112"><ele>581.0</ele><time>2026-04-26T14:06:54.433Z</time></trkpt><trkpt lat="45.7124943" lon="14.0194291"><ele>584.0</ele><time>2026-04-26T14:06:55.432Z</time></trkpt><trkpt lat="45.7123404" lon="14.0192314"><ele>587.0</ele><time>2026-04-26T14:06:56.432Z</time></trkpt><trkpt lat="45.7121683" lon="14.0190141"><ele>587.0</ele><time>2026-04-26T14:06:57.432Z</time></trkpt><trkpt lat="45.7119936" lon="14.0187839"><ele>587.0</ele><time>2026-04-26T14:06:58.432Z</time></trkpt><trkpt lat="45.7118253" lon="14.0185481"><ele>587.0</ele><time>2026-04-26T14:06:59.432Z</time></trkpt><trkpt lat="45.7116566" lon="14.0182989"><ele>587.0</ele><time>2026-04-26T14:07:00.432Z</time></trkpt><trkpt lat="45.7114968" lon="14.0180457"><ele>587.0</ele><time>2026-04-26T14:07:01.432Z</time></trkpt><trkpt lat="45.7113446" lon="14.0177982"><ele>587.0</ele><time>2026-04-26T14:07:02.432Z</time></trkpt><trkpt lat="45.7111992" lon="14.0175628"><ele>586.6666666666666</ele><time>2026-04-26T14:07:03.432Z</time></trkpt><trkpt lat="45.7110701" lon="14.0173182"><ele>586.3333333333334</ele><time>2026-04-26T14:07:04.432Z</time></trkpt><trkpt lat="45.7109607" lon="14.0170514"><ele>586.0</ele><time>2026-04-26T14:07:05.432Z</time></trkpt><trkpt lat="45.7108679" lon="14.0167707"><ele>586.6666666666667</ele><time>2026-04-26T14:07:06.432Z</time></trkpt><trkpt lat="45.7108087" lon="14.0164809"><ele>587.3333333333334</ele><time>2026-04-26T14:07:07.432Z</time></trkpt><trkpt lat="45.7107761" lon="14.0161941"><ele>588.0</ele><time>2026-04-26T14:07:08.432Z</time></trkpt><trkpt lat="45.7107626" lon="14.0158888"><ele>589.6666666666666</ele><time>2026-04-26T14:07:09.432Z</time></trkpt><trkpt lat="45.7107708" lon="14.0155875"><ele>591.3333333333333</ele><time>2026-04-26T14:07:10.432Z</time></trkpt><trkpt lat="45.710813" lon="14.0152786"><ele>593.0</ele><time>2026-04-26T14:07:11.432Z</time></trkpt><trkpt lat="45.7108848" lon="14.0149863"><ele>591.3333333333333</ele><time>2026-04-26T14:07:12.432Z</time></trkpt><trkpt lat="45.7109699" lon="14.0147002"><ele>589.6666666666666</ele><time>2026-04-26T14:07:13.432Z</time></trkpt><trkpt lat="45.7110728" lon="14.014428"><ele>588.0</ele><time>2026-04-26T14:07:14.432Z</time></trkpt><trkpt lat="45.711204" lon="14.0141698"><ele>591.3333333333334</ele><time>2026-04-26T14:07:15.432Z</time></trkpt><trkpt lat="45.7113342" lon="14.0139136"><ele>594.6666666666667</ele><time>2026-04-26T14:07:16.432Z</time></trkpt><trkpt lat="45.7114582" lon="14.0136645"><ele>598.0</ele><time>2026-04-26T14:07:17.432Z</time></trkpt><trkpt lat="45.7115784" lon="14.0134198"><ele>600.0</ele><time>2026-04-26T14:07:18.432Z</time></trkpt><trkpt lat="45.7117004" lon="14.013162"><ele>602.0</ele><time>2026-04-26T14:07:19.432Z</time></trkpt><trkpt lat="45.7118158" lon="14.0128996"><ele>604.0</ele><time>2026-04-26T14:07:20.432Z</time></trkpt><trkpt lat="45.7119312" lon="14.0126268"><ele>602.5</ele><time>2026-04-26T14:07:21.432Z</time></trkpt><trkpt lat="45.7120493" lon="14.0123518"><ele>601.0</ele><time>2026-04-26T14:07:22.433Z</time></trkpt><trkpt lat="45.7121607" lon="14.0120638"><ele>601.0</ele><time>2026-04-26T14:07:23.432Z</time></trkpt><trkpt lat="45.712268" lon="14.0117713"><ele>601.0</ele><time>2026-04-26T14:07:24.432Z</time></trkpt><trkpt lat="45.7123689" lon="14.0114745"><ele>605.5</ele><time>2026-04-26T14:07:25.433Z</time></trkpt><trkpt lat="45.7124652" lon="14.0111609"><ele>610.0</ele><time>2026-04-26T14:07:26.432Z</time></trkpt><trkpt lat="45.712556" lon="14.0108504"><ele>613.0</ele><time>2026-04-26T14:07:27.432Z</time></trkpt><trkpt lat="45.7126362" lon="14.010532"><ele>616.0</ele><time>2026-04-26T14:07:28.432Z</time></trkpt><trkpt lat="45.7127111" lon="14.0102061"><ele>617.0</ele><time>2026-04-26T14:07:29.432Z</time></trkpt><trkpt lat="45.7127852" lon="14.0098634"><ele>618.0</ele><time>2026-04-26T14:07:30.432Z</time></trkpt><trkpt lat="45.7128574" lon="14.0095246"><ele>618.0</ele><time>2026-04-26T14:07:31.432Z</time></trkpt><trkpt lat="45.7129317" lon="14.0091971"><ele>618.0</ele><time>2026-04-26T14:07:32.432Z</time></trkpt><trkpt lat="45.7130063" lon="14.0088814"><ele>620.5</ele><time>2026-04-26T14:07:33.432Z</time></trkpt><trkpt lat="45.7130959" lon="14.0085607"><ele>623.0</ele><time>2026-04-26T14:07:34.432Z</time></trkpt><trkpt lat="45.7131967" lon="14.0082538"><ele>623.0</ele><time>2026-04-26T14:07:35.432Z</time></trkpt><trkpt lat="45.713311" lon="14.0079533"><ele>623.0</ele><time>2026-04-26T14:07:36.432Z</time></trkpt><trkpt lat="45.7134324" lon="14.007657"><ele>624.5</ele><time>2026-04-26T14:07:37.432Z</time></trkpt><trkpt lat="45.7135535" lon="14.0073625"><ele>626.0</ele><time>2026-04-26T14:07:38.432Z</time></trkpt><trkpt lat="45.7136724" lon="14.007069"><ele>621.0</ele><time>2026-04-26T14:07:39.432Z</time></trkpt><trkpt lat="45.7137792" lon="14.0067714"><ele>616.0</ele><time>2026-04-26T14:07:40.432Z</time></trkpt><trkpt lat="45.7138682" lon="14.006465"><ele>614.0</ele><time>2026-04-26T14:07:41.432Z</time></trkpt><trkpt lat="45.713934" lon="14.0061424"><ele>612.0</ele><time>2026-04-26T14:07:42.432Z</time></trkpt><trkpt lat="45.7139659" lon="14.0057989"><ele>607.5</ele><time>2026-04-26T14:07:43.433Z</time></trkpt><trkpt lat="45.7139567" lon="14.0054513"><ele>603.0</ele><time>2026-04-26T14:07:44.432Z</time></trkpt><trkpt lat="45.7139082" lon="14.0050999"><ele>599.5</ele><time>2026-04-26T14:07:45.433Z</time></trkpt><trkpt lat="45.7138261" lon="14.00476"><ele>596.0</ele><time>2026-04-26T14:07:46.432Z</time></trkpt><trkpt lat="45.7137093" lon="14.0044253"><ele>593.5</ele><time>2026-04-26T14:07:47.432Z</time></trkpt><trkpt lat="45.7135562" lon="14.0041231"><ele>591.0</ele><time>2026-04-26T14:07:48.432Z</time></trkpt><trkpt lat="45.7133752" lon="14.0038765"><ele>591.0</ele><time>2026-04-26T14:07:49.432Z</time></trkpt><trkpt lat="45.7131858" lon="14.0036972"><ele>591.0</ele><time>2026-04-26T14:07:50.432Z</time></trkpt><trkpt lat="45.7129947" lon="14.0035486"><ele>591.0</ele><time>2026-04-26T14:07:51.432Z</time></trkpt><trkpt lat="45.7127919" lon="14.0034274"><ele>584.3333333333334</ele><time>2026-04-26T14:07:52.432Z</time></trkpt><trkpt lat="45.7125885" lon="14.003318"><ele>577.6666666666667</ele><time>2026-04-26T14:07:53.432Z</time></trkpt><trkpt lat="45.7123777" lon="14.0032353"><ele>571.0</ele><time>2026-04-26T14:07:54.433Z</time></trkpt><trkpt lat="45.7121723" lon="14.0031627"><ele>571.0</ele><time>2026-04-26T14:07:55.433Z</time></trkpt><trkpt lat="45.7119641" lon="14.0030876"><ele>571.0</ele><time>2026-04-26T14:07:56.432Z</time></trkpt><trkpt lat="45.7117567" lon="14.0030198"><ele>571.0</ele><time>2026-04-26T14:07:57.432Z</time></trkpt><trkpt lat="45.7115497" lon="14.0029632"><ele>570.6666666666667</ele><time>2026-04-26T14:07:58.432Z</time></trkpt><trkpt lat="45.7113373" lon="14.0029146"><ele>570.3333333333334</ele><time>2026-04-26T14:07:59.432Z</time></trkpt><trkpt lat="45.7111297" lon="14.0028696"><ele>570.0</ele><time>2026-04-26T14:08:00.432Z</time></trkpt><trkpt lat="45.710924" lon="14.0028359"><ele>571.0</ele><time>2026-04-26T14:08:01.433Z</time></trkpt><trkpt lat="45.7107168" lon="14.0027996"><ele>572.0</ele><time>2026-04-26T14:08:02.432Z</time></trkpt><trkpt lat="45.7105126" lon="14.0027641"><ele>573.0</ele><time>2026-04-26T14:08:03.432Z</time></trkpt><trkpt lat="45.7103076" lon="14.0027235"><ele>573.0</ele><time>2026-04-26T14:08:04.432Z</time></trkpt><trkpt lat="45.7101084" lon="14.0026932"><ele>573.0</ele><time>2026-04-26T14:08:05.433Z</time></trkpt><trkpt lat="45.709906" lon="14.0026648"><ele>573.0</ele><time>2026-04-26T14:08:06.432Z</time></trkpt><trkpt lat="45.7097002" lon="14.0026328"><ele>573.0</ele><time>2026-04-26T14:08:07.432Z</time></trkpt><trkpt lat="45.7094933" lon="14.0026086"><ele>573.0</ele><time>2026-04-26T14:08:08.432Z</time></trkpt><trkpt lat="45.7092892" lon="14.0025877"><ele>573.0</ele><time>2026-04-26T14:08:09.432Z</time></trkpt><trkpt lat="45.7090878" lon="14.0025857"><ele>572.6666666666666</ele><time>2026-04-26T14:08:10.432Z</time></trkpt><trkpt lat="45.7088849" lon="14.0025986"><ele>572.3333333333333</ele><time>2026-04-26T14:08:11.432Z</time></trkpt><trkpt lat="45.7086852" lon="14.0026182"><ele>572.0</ele><time>2026-04-26T14:08:12.432Z</time></trkpt><trkpt lat="45.7084835" lon="14.0026342"><ele>571.0</ele><time>2026-04-26T14:08:13.432Z</time></trkpt><trkpt lat="45.708286" lon="14.0026393"><ele>570.0</ele><time>2026-04-26T14:08:14.432Z</time></trkpt><trkpt lat="45.7080873" lon="14.0026348"><ele>569.0</ele><time>2026-04-26T14:08:15.432Z</time></trkpt><trkpt lat="45.7078898" lon="14.0026047"><ele>570.6666666666666</ele><time>2026-04-26T14:08:16.432Z</time></trkpt><trkpt lat="45.7076906" lon="14.0025631"><ele>572.3333333333334</ele><time>2026-04-26T14:08:17.432Z</time></trkpt><trkpt lat="45.7074925" lon="14.0025077"><ele>574.0</ele><time>2026-04-26T14:08:18.432Z</time></trkpt><trkpt lat="45.7072929" lon="14.0024282"><ele>571.0</ele><time>2026-04-26T14:08:19.432Z</time></trkpt><trkpt lat="45.7070915" lon="14.0023345"><ele>568.0</ele><time>2026-04-26T14:08:20.432Z</time></trkpt><trkpt lat="45.7068875" lon="14.0022313"><ele>565.0</ele><time>2026-04-26T14:08:21.433Z</time></trkpt><trkpt lat="45.7066894" lon="14.0021065"><ele>565.0</ele><time>2026-04-26T14:08:22.432Z</time></trkpt><trkpt lat="45.7064913" lon="14.0019735"><ele>565.0</ele><time>2026-04-26T14:08:23.432Z</time></trkpt><trkpt lat="45.7062919" lon="14.0018249"><ele>565.0</ele><time>2026-04-26T14:08:24.433Z</time></trkpt><trkpt lat="45.7060912" lon="14.0016778"><ele>564.0</ele><time>2026-04-26T14:08:25.433Z</time></trkpt><trkpt lat="45.7058903" lon="14.0015261"><ele>563.0</ele><time>2026-04-26T14:08:26.432Z</time></trkpt><trkpt lat="45.7056896" lon="14.0013684"><ele>563.0</ele><time>2026-04-26T14:08:27.432Z</time></trkpt><trkpt lat="45.7054903" lon="14.0012091"><ele>563.0</ele><time>2026-04-26T14:08:28.432Z</time></trkpt><trkpt lat="45.7052885" lon="14.0010498"><ele>564.0</ele><time>2026-04-26T14:08:29.432Z</time></trkpt><trkpt lat="45.7050942" lon="14.0008823"><ele>565.0</ele><time>2026-04-26T14:08:30.432Z</time></trkpt><trkpt lat="45.7049003" lon="14.0007113"><ele>560.0</ele><time>2026-04-26T14:08:31.432Z</time></trkpt><trkpt lat="45.7047109" lon="14.0005235"><ele>555.0</ele><time>2026-04-26T14:08:32.432Z</time></trkpt><trkpt lat="45.7045286" lon="14.0003201"><ele>553.0</ele><time>2026-04-26T14:08:33.432Z</time></trkpt><trkpt lat="45.704357" lon="14.0000921"><ele>551.0</ele><time>2026-04-26T14:08:34.432Z</time></trkpt><trkpt lat="45.7041982" lon="13.9998433"><ele>551.0</ele><time>2026-04-26T14:08:35.432Z</time></trkpt><trkpt lat="45.7040557" lon="13.9995828"><ele>551.0</ele><time>2026-04-26T14:08:36.432Z</time></trkpt><trkpt lat="45.7039049" lon="13.9993341"><ele>549.5</ele><time>2026-04-26T14:08:37.432Z</time></trkpt><trkpt lat="45.7037305" lon="13.9990979"><ele>548.0</ele><time>2026-04-26T14:08:38.432Z</time></trkpt><trkpt lat="45.7035349" lon="13.9988857"><ele>547.5</ele><time>2026-04-26T14:08:39.432Z</time></trkpt><trkpt lat="45.7033387" lon="13.9986757"><ele>547.0</ele><time>2026-04-26T14:08:40.432Z</time></trkpt><trkpt lat="45.7031339" lon="13.9984635"><ele>547.0</ele><time>2026-04-26T14:08:41.432Z</time></trkpt><trkpt lat="45.7029326" lon="13.9982624"><ele>547.0</ele><time>2026-04-26T14:08:42.432Z</time></trkpt><trkpt lat="45.7027378" lon="13.9980546"><ele>544.0</ele><time>2026-04-26T14:08:43.432Z</time></trkpt><trkpt lat="45.7025517" lon="13.9978423"><ele>541.0</ele><time>2026-04-26T14:08:44.432Z</time></trkpt><trkpt lat="45.70237" lon="13.9976126"><ele>540.5</ele><time>2026-04-26T14:08:45.432Z</time></trkpt><trkpt lat="45.7021968" lon="13.9973788"><ele>540.0</ele><time>2026-04-26T14:08:46.432Z</time></trkpt><trkpt lat="45.7020279" lon="13.9971417"><ele>538.5</ele><time>2026-04-26T14:08:47.432Z</time></trkpt><trkpt lat="45.7018627" lon="13.9968995"><ele>537.0</ele><time>2026-04-26T14:08:48.432Z</time></trkpt><trkpt lat="45.7017038" lon="13.9966484"><ele>537.0</ele><time>2026-04-26T14:08:49.432Z</time></trkpt><trkpt lat="45.7015539" lon="13.9963835"><ele>537.0</ele><time>2026-04-26T14:08:50.432Z</time></trkpt><trkpt lat="45.7014115" lon="13.9961154"><ele>537.0</ele><time>2026-04-26T14:08:51.432Z</time></trkpt><trkpt lat="45.7012752" lon="13.9958376"><ele>537.0</ele><time>2026-04-26T14:08:52.432Z</time></trkpt><trkpt lat="45.7011439" lon="13.9955515"><ele>533.0</ele><time>2026-04-26T14:08:53.433Z</time></trkpt><trkpt lat="45.7010175" lon="13.995262"><ele>529.0</ele><time>2026-04-26T14:08:54.432Z</time></trkpt><trkpt lat="45.7008994" lon="13.99496"><ele>529.0</ele><time>2026-04-26T14:08:55.432Z</time></trkpt><trkpt lat="45.7007923" lon="13.9946574"><ele>529.0</ele><time>2026-04-26T14:08:56.433Z</time></trkpt><trkpt lat="45.7006951" lon="13.9943474"><ele>528.5</ele><time>2026-04-26T14:08:57.432Z</time></trkpt><trkpt lat="45.7006101" lon="13.9940244"><ele>528.0</ele><time>2026-04-26T14:08:58.432Z</time></trkpt><trkpt lat="45.7005358" lon="13.9937147"><ele>528.0</ele><time>2026-04-26T14:08:59.432Z</time></trkpt><trkpt lat="45.7004697" lon="13.9933835"><ele>528.0</ele><time>2026-04-26T14:09:00.432Z</time></trkpt><trkpt lat="45.7004203" lon="13.993051"><ele>527.5</ele><time>2026-04-26T14:09:01.432Z</time></trkpt><trkpt lat="45.7003802" lon="13.9927161"><ele>527.0</ele><time>2026-04-26T14:09:02.432Z</time></trkpt><trkpt lat="45.7003532" lon="13.9923799"><ele>528.0</ele><time>2026-04-26T14:09:03.432Z</time></trkpt><trkpt lat="45.700333" lon="13.9920359"><ele>529.0</ele><time>2026-04-26T14:09:04.432Z</time></trkpt><trkpt lat="45.7003169" lon="13.9916974"><ele>528.0</ele><time>2026-04-26T14:09:05.432Z</time></trkpt><trkpt lat="45.7003018" lon="13.9913594"><ele>527.0</ele><time>2026-04-26T14:09:06.433Z</time></trkpt><trkpt lat="45.7002863" lon="13.9910229"><ele>525.0</ele><time>2026-04-26T14:09:07.432Z</time></trkpt><trkpt lat="45.7002674" lon="13.9906847"><ele>523.0</ele><time>2026-04-26T14:09:08.432Z</time></trkpt><trkpt lat="45.7002537" lon="13.990344"><ele>516.0</ele><time>2026-04-26T14:09:09.432Z</time></trkpt><trkpt lat="45.7002298" lon="13.9900089"><ele>509.0</ele><time>2026-04-26T14:09:10.432Z</time></trkpt><trkpt lat="45.7002109" lon="13.9896697"><ele>507.0</ele><time>2026-04-26T14:09:11.432Z</time></trkpt><trkpt lat="45.7001928" lon="13.9893322"><ele>505.0</ele><time>2026-04-26T14:09:12.433Z</time></trkpt><trkpt lat="45.7001702" lon="13.9889885"><ele>504.0</ele><time>2026-04-26T14:09:13.432Z</time></trkpt><trkpt lat="45.7001333" lon="13.9886492"><ele>503.0</ele><time>2026-04-26T14:09:14.432Z</time></trkpt><trkpt lat="45.700084" lon="13.9883094"><ele>503.0</ele><time>2026-04-26T14:09:15.432Z</time></trkpt><trkpt lat="45.7000222" lon="13.9879783"><ele>503.0</ele><time>2026-04-26T14:09:16.432Z</time></trkpt><trkpt lat="45.6999449" lon="13.9876603"><ele>505.0</ele><time>2026-04-26T14:09:17.432Z</time></trkpt><trkpt lat="45.6998354" lon="13.9873674"><ele>507.0</ele><time>2026-04-26T14:09:18.432Z</time></trkpt><trkpt lat="45.6997068" lon="13.9870834"><ele>507.0</ele><time>2026-04-26T14:09:19.432Z</time></trkpt><trkpt lat="45.6995595" lon="13.9868147"><ele>507.0</ele><time>2026-04-26T14:09:20.432Z</time></trkpt><trkpt lat="45.6993952" lon="13.9865839"><ele>499.5</ele><time>2026-04-26T14:09:21.432Z</time></trkpt><trkpt lat="45.6992176" lon="13.9863738"><ele>492.0</ele><time>2026-04-26T14:09:22.432Z</time></trkpt><trkpt lat="45.6990193" lon="13.9861905"><ele>492.0</ele><time>2026-04-26T14:09:23.432Z</time></trkpt><trkpt lat="45.6988092" lon="13.9860301"><ele>492.0</ele><time>2026-04-26T14:09:24.433Z</time></trkpt><trkpt lat="45.6985935" lon="13.9859004"><ele>492.0</ele><time>2026-04-26T14:09:25.432Z</time></trkpt><trkpt lat="45.6983674" lon="13.985805"><ele>492.0</ele><time>2026-04-26T14:09:26.432Z</time></trkpt><trkpt lat="45.6981342" lon="13.9857419"><ele>492.0</ele><time>2026-04-26T14:09:27.432Z</time></trkpt><trkpt lat="45.6978911" lon="13.9857229"><ele>492.0</ele><time>2026-04-26T14:09:28.432Z</time></trkpt><trkpt lat="45.6976537" lon="13.9857327"><ele>493.0</ele><time>2026-04-26T14:09:29.433Z</time></trkpt><trkpt lat="45.6974196" lon="13.9857786"><ele>494.0</ele><time>2026-04-26T14:09:30.432Z</time></trkpt><trkpt lat="45.6971829" lon="13.9858328"><ele>488.5</ele><time>2026-04-26T14:09:31.432Z</time></trkpt><trkpt lat="45.6969485" lon="13.9859042"><ele>483.0</ele><time>2026-04-26T14:09:32.432Z</time></trkpt><trkpt lat="45.6967145" lon="13.9859732"><ele>482.5</ele><time>2026-04-26T14:09:33.433Z</time></trkpt><trkpt lat="45.6964778" lon="13.9860328"><ele>482.0</ele><time>2026-04-26T14:09:34.432Z</time></trkpt><trkpt lat="45.6962419" lon="13.9860871"><ele>482.5</ele><time>2026-04-26T14:09:35.432Z</time></trkpt><trkpt lat="45.6960044" lon="13.9861202"><ele>483.0</ele><time>2026-04-26T14:09:36.432Z</time></trkpt><trkpt lat="45.6957656" lon="13.9861187"><ele>483.0</ele><time>2026-04-26T14:09:37.432Z</time></trkpt><trkpt lat="45.6955315" lon="13.9860929"><ele>483.0</ele><time>2026-04-26T14:09:38.432Z</time></trkpt><trkpt lat="45.6952985" lon="13.9860401"><ele>483.0</ele><time>2026-04-26T14:09:39.432Z</time></trkpt><trkpt lat="45.6950689" lon="13.985962"><ele>483.0</ele><time>2026-04-26T14:09:40.432Z</time></trkpt><trkpt lat="45.694849" lon="13.9858433"><ele>483.0</ele><time>2026-04-26T14:09:41.432Z</time></trkpt><trkpt lat="45.6946309" lon="13.9857027"><ele>483.0</ele><time>2026-04-26T14:09:42.432Z</time></trkpt><trkpt lat="45.694424" lon="13.9855285"><ele>478.0</ele><time>2026-04-26T14:09:43.432Z</time></trkpt><trkpt lat="45.694227" lon="13.9853372"><ele>473.0</ele><time>2026-04-26T14:09:44.432Z</time></trkpt><trkpt lat="45.6940485" lon="13.9851183"><ele>474.0</ele><time>2026-04-26T14:09:45.432Z</time></trkpt><trkpt lat="45.6938776" lon="13.9848828"><ele>475.0</ele><time>2026-04-26T14:09:46.432Z</time></trkpt><trkpt lat="45.6937118" lon="13.9846427"><ele>471.5</ele><time>2026-04-26T14:09:47.432Z</time></trkpt><trkpt lat="45.6935434" lon="13.9844035"><ele>468.0</ele><time>2026-04-26T14:09:48.433Z</time></trkpt><trkpt lat="45.6933713" lon="13.9841627"><ele>468.0</ele><time>2026-04-26T14:09:49.432Z</time></trkpt><trkpt lat="45.6932018" lon="13.9839269"><ele>468.0</ele><time>2026-04-26T14:09:50.432Z</time></trkpt><trkpt lat="45.6930284" lon="13.9836962"><ele>468.0</ele><time>2026-04-26T14:09:51.432Z</time></trkpt><trkpt lat="45.6928547" lon="13.9834598"><ele>468.0</ele><time>2026-04-26T14:09:52.432Z</time></trkpt><trkpt lat="45.6926769" lon="13.9832325"><ele>466.0</ele><time>2026-04-26T14:09:53.432Z</time></trkpt><trkpt lat="45.692498" lon="13.9830073"><ele>464.0</ele><time>2026-04-26T14:09:54.432Z</time></trkpt><trkpt lat="45.6923197" lon="13.9827853"><ele>464.0</ele><time>2026-04-26T14:09:55.432Z</time></trkpt><trkpt lat="45.6921385" lon="13.9825732"><ele>464.0</ele><time>2026-04-26T14:09:56.432Z</time></trkpt><trkpt lat="45.6919537" lon="13.98236"><ele>459.5</ele><time>2026-04-26T14:09:57.432Z</time></trkpt><trkpt lat="45.6917648" lon="13.9821612"><ele>455.0</ele><time>2026-04-26T14:09:58.433Z</time></trkpt><trkpt lat="45.6915688" lon="13.9819725"><ele>455.0</ele><time>2026-04-26T14:09:59.432Z</time></trkpt><trkpt lat="45.6913672" lon="13.9817855"><ele>455.0</ele><time>2026-04-26T14:10:00.433Z</time></trkpt><trkpt lat="45.6911641" lon="13.9816079"><ele>455.0</ele><time>2026-04-26T14:10:01.432Z</time></trkpt><trkpt lat="45.6909563" lon="13.9814376"><ele>455.0</ele><time>2026-04-26T14:10:02.432Z</time></trkpt><trkpt lat="45.6907481" lon="13.9812838"><ele>455.0</ele><time>2026-04-26T14:10:03.432Z</time></trkpt><trkpt lat="45.6905368" lon="13.9811329"><ele>455.0</ele><time>2026-04-26T14:10:04.432Z</time></trkpt><trkpt lat="45.6903199" lon="13.9809866"><ele>454.5</ele><time>2026-04-26T14:10:05.432Z</time></trkpt><trkpt lat="45.690106" lon="13.9808401"><ele>454.0</ele><time>2026-04-26T14:10:06.432Z</time></trkpt><trkpt lat="45.6898905" lon="13.9806992"><ele>454.0</ele><time>2026-04-26T14:10:07.433Z</time></trkpt><trkpt lat="45.6896753" lon="13.9805548"><ele>454.0</ele><time>2026-04-26T14:10:08.433Z</time></trkpt><trkpt lat="45.6894589" lon="13.9804066"><ele>458.0</ele><time>2026-04-26T14:10:09.432Z</time></trkpt><trkpt lat="45.6892473" lon="13.9802491"><ele>462.0</ele><time>2026-04-26T14:10:10.432Z</time></trkpt><trkpt lat="45.6890352" lon="13.9800878"><ele>463.0</ele><time>2026-04-26T14:10:11.432Z</time></trkpt><trkpt lat="45.6888293" lon="13.9799202"><ele>464.0</ele><time>2026-04-26T14:10:12.433Z</time></trkpt><trkpt lat="45.6886224" lon="13.9797559"><ele>466.5</ele><time>2026-04-26T14:10:13.432Z</time></trkpt><trkpt lat="45.6884137" lon="13.9795703"><ele>469.0</ele><time>2026-04-26T14:10:14.432Z</time></trkpt><trkpt lat="45.6882142" lon="13.9793885"><ele>469.0</ele><time>2026-04-26T14:10:15.432Z</time></trkpt><trkpt lat="45.6880152" lon="13.9792097"><ele>469.0</ele><time>2026-04-26T14:10:16.432Z</time></trkpt><trkpt lat="45.6878235" lon="13.9790161"><ele>468.0</ele><time>2026-04-26T14:10:17.432Z</time></trkpt><trkpt lat="45.6876349" lon="13.9788085"><ele>467.0</ele><time>2026-04-26T14:10:18.432Z</time></trkpt><trkpt lat="45.687449" lon="13.978594"><ele>467.0</ele><time>2026-04-26T14:10:19.432Z</time></trkpt><trkpt lat="45.6872647" lon="13.9783718"><ele>467.0</ele><time>2026-04-26T14:10:20.433Z</time></trkpt><trkpt lat="45.6870833" lon="13.9781467"><ele>465.5</ele><time>2026-04-26T14:10:21.433Z</time></trkpt><trkpt lat="45.6869087" lon="13.9779232"><ele>464.0</ele><time>2026-04-26T14:10:22.433Z</time></trkpt><trkpt lat="45.6867372" lon="13.9776921"><ele>459.0</ele><time>2026-04-26T14:10:23.432Z</time></trkpt><trkpt lat="45.6865733" lon="13.9774476"><ele>454.0</ele><time>2026-04-26T14:10:24.432Z</time></trkpt><trkpt lat="45.686417" lon="13.9771897"><ele>454.0</ele><time>2026-04-26T14:10:25.433Z</time></trkpt><trkpt lat="45.686266" lon="13.9769306"><ele>454.0</ele><time>2026-04-26T14:10:26.433Z</time></trkpt><trkpt lat="45.6861122" lon="13.9766665"><ele>455.0</ele><time>2026-04-26T14:10:27.432Z</time></trkpt><trkpt lat="45.6859654" lon="13.9763967"><ele>456.0</ele><time>2026-04-26T14:10:28.432Z</time></trkpt><trkpt lat="45.685826" lon="13.9761205"><ele>455.5</ele><time>2026-04-26T14:10:29.433Z</time></trkpt><trkpt lat="45.6856893" lon="13.9758437"><ele>455.0</ele><time>2026-04-26T14:10:30.432Z</time></trkpt><trkpt lat="45.685555" lon="13.9755579"><ele>455.0</ele><time>2026-04-26T14:10:31.432Z</time></trkpt><trkpt lat="45.6854239" lon="13.9752718"><ele>455.0</ele><time>2026-04-26T14:10:32.432Z</time></trkpt><trkpt lat="45.6852921" lon="13.9749865"><ele>447.5</ele><time>2026-04-26T14:10:33.432Z</time></trkpt><trkpt lat="45.68516" lon="13.9747069"><ele>440.0</ele><time>2026-04-26T14:10:34.432Z</time></trkpt><trkpt lat="45.6850249" lon="13.9744251"><ele>439.0</ele><time>2026-04-26T14:10:35.433Z</time></trkpt><trkpt lat="45.6848843" lon="13.9741552"><ele>438.0</ele><time>2026-04-26T14:10:36.433Z</time></trkpt><trkpt lat="45.6847329" lon="13.9738975"><ele>438.0</ele><time>2026-04-26T14:10:37.432Z</time></trkpt><trkpt lat="45.6845782" lon="13.973646"><ele>438.0</ele><time>2026-04-26T14:10:38.433Z</time></trkpt><trkpt lat="45.6844138" lon="13.9733991"><ele>437.5</ele><time>2026-04-26T14:10:39.432Z</time></trkpt><trkpt lat="45.6842435" lon="13.9731682"><ele>437.0</ele><time>2026-04-26T14:10:40.432Z</time></trkpt><trkpt lat="45.6840599" lon="13.9729653"><ele>437.0</ele><time>2026-04-26T14:10:41.432Z</time></trkpt><trkpt lat="45.6838744" lon="13.972783"><ele>437.0</ele><time>2026-04-26T14:10:42.432Z</time></trkpt><trkpt lat="45.6836984" lon="13.972626"><ele>437.0</ele><time>2026-04-26T14:10:43.432Z</time></trkpt><trkpt lat="45.6835233" lon="13.9725014"><ele>437.66666666666663</ele><time>2026-04-26T14:10:44.433Z</time></trkpt><trkpt lat="45.6833608" lon="13.9723845"><ele>438.33333333333337</ele><time>2026-04-26T14:10:45.432Z</time></trkpt><trkpt lat="45.6831942" lon="13.9722878"><ele>439.0</ele><time>2026-04-26T14:10:46.433Z</time></trkpt><trkpt lat="45.6830357" lon="13.9722127"><ele>439.0</ele><time>2026-04-26T14:10:47.432Z</time></trkpt><trkpt lat="45.6828743" lon="13.972143"><ele>439.0</ele><time>2026-04-26T14:10:48.432Z</time></trkpt><trkpt lat="45.6827101" lon="13.9720819"><ele>439.0</ele><time>2026-04-26T14:10:49.432Z</time></trkpt><trkpt lat="45.682544" lon="13.9720326"><ele>439.0</ele><time>2026-04-26T14:10:50.432Z</time></trkpt><trkpt lat="45.68238" lon="13.9719968"><ele>439.0</ele><time>2026-04-26T14:10:51.432Z</time></trkpt><trkpt lat="45.6822179" lon="13.9719666"><ele>439.0</ele><time>2026-04-26T14:10:52.432Z</time></trkpt><trkpt lat="45.6820465" lon="13.9719463"><ele>439.33333333333337</ele><time>2026-04-26T14:10:53.432Z</time></trkpt><trkpt lat="45.6818729" lon="13.9719397"><ele>439.66666666666663</ele><time>2026-04-26T14:10:54.432Z</time></trkpt><trkpt lat="45.6816922" lon="13.9719469"><ele>440.0</ele><time>2026-04-26T14:10:55.432Z</time></trkpt><trkpt lat="45.6815172" lon="13.9719631"><ele>440.0</ele><time>2026-04-26T14:10:56.432Z</time></trkpt><trkpt lat="45.6813368" lon="13.9719868"><ele>440.0</ele><time>2026-04-26T14:10:57.432Z</time></trkpt><trkpt lat="45.6811565" lon="13.9719994"><ele>440.0</ele><time>2026-04-26T14:10:58.432Z</time></trkpt><trkpt lat="45.680979" lon="13.972012"><ele>440.0</ele><time>2026-04-26T14:10:59.432Z</time></trkpt><trkpt lat="45.6808093" lon="13.9720226"><ele>440.0</ele><time>2026-04-26T14:11:00.432Z</time></trkpt><trkpt lat="45.680642" lon="13.9720297"><ele>440.0</ele><time>2026-04-26T14:11:01.432Z</time></trkpt><trkpt lat="45.6804868" lon="13.9720316"><ele>440.0</ele><time>2026-04-26T14:11:02.432Z</time></trkpt><trkpt lat="45.6803396" lon="13.9720228"><ele>440.0</ele><time>2026-04-26T14:11:03.432Z</time></trkpt><trkpt lat="45.6801924" lon="13.9720103"><ele>440.0</ele><time>2026-04-26T14:11:04.433Z</time></trkpt><trkpt lat="45.6800466" lon="13.9719824"><ele>440.0</ele><time>2026-04-26T14:11:05.432Z</time></trkpt><trkpt lat="45.6799014" lon="13.9719455"><ele>440.5</ele><time>2026-04-26T14:11:06.432Z</time></trkpt><trkpt lat="45.679776" lon="13.971906"><ele>441.0</ele><time>2026-04-26T14:11:07.432Z</time></trkpt><trkpt lat="45.6796553" lon="13.9718573"><ele>441.5</ele><time>2026-04-26T14:11:08.432Z</time></trkpt><trkpt lat="45.6795477" lon="13.9717909"><ele>442.0</ele><time>2026-04-26T14:11:09.432Z</time></trkpt><trkpt lat="45.6794554" lon="13.9717113"><ele>442.00000000000006</ele><time>2026-04-26T14:11:10.432Z</time></trkpt><trkpt lat="45.6793899" lon="13.971603"><ele>442.0</ele><time>2026-04-26T14:11:11.432Z</time></trkpt><trkpt lat="45.6793579" lon="13.971494"><ele>442.0</ele><time>2026-04-26T14:11:12.432Z</time></trkpt><trkpt lat="45.6793531" lon="13.9713704"><ele>442.0</ele><time>2026-04-26T14:11:13.432Z</time></trkpt><trkpt lat="45.6793763" lon="13.9712583"><ele>442.00000000000006</ele><time>2026-04-26T14:11:14.432Z</time></trkpt><trkpt lat="45.6794198" lon="13.9711341"><ele>442.0</ele><time>2026-04-26T14:11:15.432Z</time></trkpt><trkpt lat="45.6794668" lon="13.9710207"><ele>442.00000000000006</ele><time>2026-04-26T14:11:16.432Z</time></trkpt><trkpt lat="45.6795213" lon="13.9709197"><ele>442.0</ele><time>2026-04-26T14:11:17.433Z</time></trkpt><trkpt lat="45.6795919" lon="13.9708407"><ele>442.0</ele><time>2026-04-26T14:11:18.432Z</time></trkpt><trkpt lat="45.6796693" lon="13.9707835"><ele>442.0</ele><time>2026-04-26T14:11:19.432Z</time></trkpt><trkpt lat="45.6797421" lon="13.9707259"><ele>442.00000000000006</ele><time>2026-04-26T14:11:20.432Z</time></trkpt><trkpt lat="45.6797763" lon="13.9706294"><ele>442.0</ele><time>2026-04-26T14:11:21.432Z</time></trkpt><trkpt lat="45.6797813" lon="13.9705025"><ele>442.0</ele><time>2026-04-26T14:11:22.433Z</time></trkpt><trkpt lat="45.6797722" lon="13.9703584"><ele>442.0</ele><time>2026-04-26T14:11:23.432Z</time></trkpt><trkpt lat="45.6797569" lon="13.9702081"><ele>442.0</ele><time>2026-04-26T14:11:24.432Z</time></trkpt><trkpt lat="45.6797709" lon="13.9700389"><ele>442.0</ele><time>2026-04-26T14:11:25.432Z</time></trkpt><trkpt lat="45.6798064" lon="13.9698636"><ele>440.6666666666667</ele><time>2026-04-26T14:11:26.433Z</time></trkpt><trkpt lat="45.6798497" lon="13.9696624"><ele>439.33333333333337</ele><time>2026-04-26T14:11:27.432Z</time></trkpt><trkpt lat="45.67988" lon="13.9694405"><ele>438.0</ele><time>2026-04-26T14:11:28.433Z</time></trkpt><trkpt lat="45.6798829" lon="13.9692091"><ele>438.33333333333337</ele><time>2026-04-26T14:11:29.433Z</time></trkpt><trkpt lat="45.6798686" lon="13.9689867"><ele>438.6666666666667</ele><time>2026-04-26T14:11:30.432Z</time></trkpt><trkpt lat="45.6798319" lon="13.968768"><ele>439.0</ele><time>2026-04-26T14:11:31.432Z</time></trkpt><trkpt lat="45.6797624" lon="13.9685607"><ele>438.0</ele><time>2026-04-26T14:11:32.432Z</time></trkpt><trkpt lat="45.6796585" lon="13.9683504"><ele>437.0</ele><time>2026-04-26T14:11:33.432Z</time></trkpt><trkpt lat="45.6795356" lon="13.9681495"><ele>436.0</ele><time>2026-04-26T14:11:34.432Z</time></trkpt><trkpt lat="45.6794106" lon="13.9679483"><ele>436.0</ele><time>2026-04-26T14:11:35.432Z</time></trkpt><trkpt lat="45.6792825" lon="13.9677546"><ele>436.0</ele><time>2026-04-26T14:11:36.433Z</time></trkpt><trkpt lat="45.679156" lon="13.9675543"><ele>436.0</ele><time>2026-04-26T14:11:37.432Z</time></trkpt><trkpt lat="45.6790281" lon="13.9673444"><ele>435.33333333333337</ele><time>2026-04-26T14:11:38.432Z</time></trkpt><trkpt lat="45.6789041" lon="13.9671342"><ele>434.66666666666663</ele><time>2026-04-26T14:11:39.432Z</time></trkpt><trkpt lat="45.6787941" lon="13.9669185"><ele>434.0</ele><time>2026-04-26T14:11:40.432Z</time></trkpt><trkpt lat="45.678702" lon="13.9666783"><ele>432.66666666666663</ele><time>2026-04-26T14:11:41.432Z</time></trkpt><trkpt lat="45.6786269" lon="13.9664321"><ele>431.33333333333337</ele><time>2026-04-26T14:11:42.433Z</time></trkpt><trkpt lat="45.6785708" lon="13.9661688"><ele>430.0</ele><time>2026-04-26T14:11:43.432Z</time></trkpt><trkpt lat="45.6785224" lon="13.9659038"><ele>424.33333333333337</ele><time>2026-04-26T14:11:44.433Z</time></trkpt><trkpt lat="45.6784631" lon="13.965645"><ele>418.66666666666663</ele><time>2026-04-26T14:11:45.432Z</time></trkpt><trkpt lat="45.6784102" lon="13.9653809"><ele>413.0</ele><time>2026-04-26T14:11:46.432Z</time></trkpt><trkpt lat="45.6783574" lon="13.9651066"><ele>418.3333333333333</ele><time>2026-04-26T14:11:47.432Z</time></trkpt><trkpt lat="45.6783114" lon="13.9648374"><ele>423.66666666666663</ele><time>2026-04-26T14:11:48.432Z</time></trkpt><trkpt lat="45.6782641" lon="13.9645645"><ele>429.0</ele><time>2026-04-26T14:11:49.432Z</time></trkpt><trkpt lat="45.6782212" lon="13.9643018"><ele>431.0</ele><time>2026-04-26T14:11:50.432Z</time></trkpt><trkpt lat="45.6781766" lon="13.9640494"><ele>433.0</ele><time>2026-04-26T14:11:51.433Z</time></trkpt><trkpt lat="45.6781404" lon="13.9637984"><ele>435.0</ele><time>2026-04-26T14:11:52.432Z</time></trkpt><trkpt lat="45.6781113" lon="13.9635511"><ele>436.0</ele><time>2026-04-26T14:11:53.432Z</time></trkpt><trkpt lat="45.678099" lon="13.9633049"><ele>437.0</ele><time>2026-04-26T14:11:54.432Z</time></trkpt><trkpt lat="45.6781008" lon="13.9630525"><ele>438.0</ele><time>2026-04-26T14:11:55.433Z</time></trkpt><trkpt lat="45.6781164" lon="13.9628091"><ele>438.0</ele><time>2026-04-26T14:11:56.433Z</time></trkpt><trkpt lat="45.6781388" lon="13.9625603"><ele>438.0</ele><time>2026-04-26T14:11:57.432Z</time></trkpt><trkpt lat="45.6781712" lon="13.962313"><ele>438.0</ele><time>2026-04-26T14:11:58.433Z</time></trkpt><trkpt lat="45.678207" lon="13.9620762"><ele>438.33333333333337</ele><time>2026-04-26T14:11:59.432Z</time></trkpt><trkpt lat="45.6782511" lon="13.9618434"><ele>438.6666666666667</ele><time>2026-04-26T14:12:00.432Z</time></trkpt><trkpt lat="45.678294" lon="13.9616195"><ele>439.0</ele><time>2026-04-26T14:12:01.432Z</time></trkpt><trkpt lat="45.6783347" lon="13.9614001"><ele>439.0</ele><time>2026-04-26T14:12:02.432Z</time></trkpt><trkpt lat="45.6783755" lon="13.961177"><ele>439.0</ele><time>2026-04-26T14:12:03.432Z</time></trkpt><trkpt lat="45.6784178" lon="13.9609493"><ele>439.0</ele><time>2026-04-26T14:12:04.432Z</time></trkpt><trkpt lat="45.6784642" lon="13.9607288"><ele>439.33333333333337</ele><time>2026-04-26T14:12:05.432Z</time></trkpt><trkpt lat="45.6785045" lon="13.960504"><ele>439.66666666666663</ele><time>2026-04-26T14:12:06.432Z</time></trkpt><trkpt lat="45.678546" lon="13.9602782"><ele>440.0</ele><time>2026-04-26T14:12:07.432Z</time></trkpt><trkpt lat="45.6785899" lon="13.9600561"><ele>441.0</ele><time>2026-04-26T14:12:08.432Z</time></trkpt><trkpt lat="45.6786321" lon="13.959826"><ele>442.0</ele><time>2026-04-26T14:12:09.432Z</time></trkpt><trkpt lat="45.678676" lon="13.9595827"><ele>443.0</ele><time>2026-04-26T14:12:10.432Z</time></trkpt><trkpt lat="45.6787212" lon="13.9593038"><ele>443.5</ele><time>2026-04-26T14:12:11.432Z</time></trkpt><trkpt lat="45.6787705" lon="13.9589882"><ele>444.0</ele><time>2026-04-26T14:12:12.432Z</time></trkpt><trkpt lat="45.6788298" lon="13.9586568"><ele>444.0</ele><time>2026-04-26T14:12:13.432Z</time></trkpt><trkpt lat="45.6789047" lon="13.9583121"><ele>444.0</ele><time>2026-04-26T14:12:14.432Z</time></trkpt><trkpt lat="45.6789762" lon="13.9579622"><ele>444.0</ele><time>2026-04-26T14:12:15.432Z</time></trkpt><trkpt lat="45.6790456" lon="13.9576504"><ele>444.0</ele><time>2026-04-26T14:12:16.433Z</time></trkpt><trkpt lat="45.679106" lon="13.9573537"><ele>444.0</ele><time>2026-04-26T14:12:17.432Z</time></trkpt><trkpt lat="45.6791694" lon="13.9570653"><ele>443.33333333333337</ele><time>2026-04-26T14:12:18.432Z</time></trkpt><trkpt lat="45.6792168" lon="13.956782"><ele>442.6666666666667</ele><time>2026-04-26T14:12:19.432Z</time></trkpt><trkpt lat="45.6792484" lon="13.9564958"><ele>442.0</ele><time>2026-04-26T14:12:20.432Z</time></trkpt><trkpt lat="45.6792477" lon="13.9562123"><ele>441.0</ele><time>2026-04-26T14:12:21.432Z</time></trkpt><trkpt lat="45.6792115" lon="13.9559244"><ele>440.0</ele><time>2026-04-26T14:12:22.432Z</time></trkpt><trkpt lat="45.6791286" lon="13.9556599"><ele>439.0</ele><time>2026-04-26T14:12:23.432Z</time></trkpt><trkpt lat="45.679021" lon="13.95541"><ele>441.33333333333337</ele><time>2026-04-26T14:12:24.432Z</time></trkpt><trkpt lat="45.6788871" lon="13.9551921"><ele>443.66666666666663</ele><time>2026-04-26T14:12:25.433Z</time></trkpt><trkpt lat="45.6787164" lon="13.955008"><ele>446.0</ele><time>2026-04-26T14:12:26.432Z</time></trkpt><trkpt lat="45.678529" lon="13.9548592"><ele>447.5</ele><time>2026-04-26T14:12:27.432Z</time></trkpt><trkpt lat="45.6783258" lon="13.9547201"><ele>449.0</ele><time>2026-04-26T14:12:28.432Z</time></trkpt><trkpt lat="45.6781158" lon="13.9545904"><ele>449.0</ele><time>2026-04-26T14:12:29.432Z</time></trkpt><trkpt lat="45.6778985" lon="13.9544392"><ele>449.0</ele><time>2026-04-26T14:12:30.432Z</time></trkpt><trkpt lat="45.6776847" lon="13.9542948"><ele>449.0</ele><time>2026-04-26T14:12:31.432Z</time></trkpt><trkpt lat="45.6774675" lon="13.9541516"><ele>449.0</ele><time>2026-04-26T14:12:32.432Z</time></trkpt><trkpt lat="45.6772509" lon="13.9540072"><ele>449.0</ele><time>2026-04-26T14:12:33.433Z</time></trkpt><trkpt lat="45.677031" lon="13.9538673"><ele>449.0</ele><time>2026-04-26T14:12:34.432Z</time></trkpt><trkpt lat="45.6768098" lon="13.9537264"><ele>445.5</ele><time>2026-04-26T14:12:35.433Z</time></trkpt><trkpt lat="45.6765956" lon="13.9535836"><ele>442.0</ele><time>2026-04-26T14:12:36.432Z</time></trkpt><trkpt lat="45.6763835" lon="13.9534452"><ele>440.5</ele><time>2026-04-26T14:12:37.432Z</time></trkpt><trkpt lat="45.6761756" lon="13.9532974"><ele>439.0</ele><time>2026-04-26T14:12:38.432Z</time></trkpt><trkpt lat="45.6759661" lon="13.9531592"><ele>439.0</ele><time>2026-04-26T14:12:39.432Z</time></trkpt><trkpt lat="45.6757563" lon="13.953034"><ele>439.0</ele><time>2026-04-26T14:12:40.432Z</time></trkpt><trkpt lat="45.675554" lon="13.9528998"><ele>439.0</ele><time>2026-04-26T14:12:41.432Z</time></trkpt><trkpt lat="45.6753502" lon="13.9527676"><ele>439.0</ele><time>2026-04-26T14:12:42.433Z</time></trkpt><trkpt lat="45.6751465" lon="13.9526519"><ele>439.0</ele><time>2026-04-26T14:12:43.432Z</time></trkpt><trkpt lat="45.6749466" lon="13.9525644"><ele>439.33333333333337</ele><time>2026-04-26T14:12:44.433Z</time></trkpt><trkpt lat="45.674744" lon="13.9525007"><ele>439.66666666666663</ele><time>2026-04-26T14:12:45.433Z</time></trkpt><trkpt lat="45.6745513" lon="13.9524307"><ele>440.0</ele><time>2026-04-26T14:12:46.432Z</time></trkpt><trkpt lat="45.6743561" lon="13.9523454"><ele>440.0</ele><time>2026-04-26T14:12:47.432Z</time></trkpt><trkpt lat="45.6741628" lon="13.9522363"><ele>440.0</ele><time>2026-04-26T14:12:48.432Z</time></trkpt><trkpt lat="45.6739773" lon="13.9521072"><ele>440.0</ele><time>2026-04-26T14:12:49.432Z</time></trkpt><trkpt lat="45.6738077" lon="13.9519392"><ele>440.0</ele><time>2026-04-26T14:12:50.433Z</time></trkpt><trkpt lat="45.6736479" lon="13.9517671"><ele>440.0</ele><time>2026-04-26T14:12:51.432Z</time></trkpt><trkpt lat="45.6735123" lon="13.9515566"><ele>440.0</ele><time>2026-04-26T14:12:52.432Z</time></trkpt><trkpt lat="45.6733936" lon="13.9512978"><ele>440.0</ele><time>2026-04-26T14:12:53.432Z</time></trkpt><trkpt lat="45.6732898" lon="13.9510323"><ele>440.0</ele><time>2026-04-26T14:12:54.432Z</time></trkpt><trkpt lat="45.6732029" lon="13.9507526"><ele>440.0</ele><time>2026-04-26T14:12:55.432Z</time></trkpt><trkpt lat="45.6731219" lon="13.9504613"><ele>440.0</ele><time>2026-04-26T14:12:56.432Z</time></trkpt><trkpt lat="45.6730297" lon="13.9501734"><ele>440.0</ele><time>2026-04-26T14:12:57.431Z</time></trkpt><trkpt lat="45.6729345" lon="13.949888"><ele>440.0</ele><time>2026-04-26T14:12:58.431Z</time></trkpt><trkpt lat="45.6728245" lon="13.9496175"><ele>440.5</ele><time>2026-04-26T14:12:59.431Z</time></trkpt><trkpt lat="45.6726951" lon="13.9493684"><ele>441.0</ele><time>2026-04-26T14:13:00.431Z</time></trkpt><trkpt lat="45.672512" lon="13.9491555"><ele>441.0</ele><time>2026-04-26T14:13:01.431Z</time></trkpt><trkpt lat="45.6723153" lon="13.9489667"><ele>441.0</ele><time>2026-04-26T14:13:02.431Z</time></trkpt><trkpt lat="45.6720985" lon="13.9488004"><ele>442.0</ele><time>2026-04-26T14:13:03.431Z</time></trkpt><trkpt lat="45.6718791" lon="13.9486439"><ele>443.0</ele><time>2026-04-26T14:13:04.431Z</time></trkpt><trkpt lat="45.6716525" lon="13.9484914"><ele>446.0</ele><time>2026-04-26T14:13:05.431Z</time></trkpt><trkpt lat="45.6714228" lon="13.9483314"><ele>449.0</ele><time>2026-04-26T14:13:06.431Z</time></trkpt><trkpt lat="45.6711928" lon="13.9481688"><ele>450.0</ele><time>2026-04-26T14:13:07.431Z</time></trkpt><trkpt lat="45.6709628" lon="13.9480072"><ele>451.0</ele><time>2026-04-26T14:13:08.431Z</time></trkpt><trkpt lat="45.6707374" lon="13.9478509"><ele>451.0</ele><time>2026-04-26T14:13:09.431Z</time></trkpt><trkpt lat="45.6705104" lon="13.9476864"><ele>451.0</ele><time>2026-04-26T14:13:10.431Z</time></trkpt><trkpt lat="45.6702868" lon="13.9475336"><ele>452.0</ele><time>2026-04-26T14:13:11.431Z</time></trkpt><trkpt lat="45.6700654" lon="13.9473749"><ele>453.0</ele><time>2026-04-26T14:13:12.431Z</time></trkpt><trkpt lat="45.6698445" lon="13.9472113"><ele>453.0</ele><time>2026-04-26T14:13:13.431Z</time></trkpt><trkpt lat="45.6696238" lon="13.9470556"><ele>453.0</ele><time>2026-04-26T14:13:14.432Z</time></trkpt><trkpt lat="45.6693969" lon="13.9469001"><ele>455.0</ele><time>2026-04-26T14:13:15.431Z</time></trkpt><trkpt lat="45.6691721" lon="13.9467452"><ele>457.0</ele><time>2026-04-26T14:13:16.432Z</time></trkpt><trkpt lat="45.668953" lon="13.9466019"><ele>457.0</ele><time>2026-04-26T14:13:17.431Z</time></trkpt><trkpt lat="45.6687338" lon="13.9464506"><ele>457.0</ele><time>2026-04-26T14:13:18.431Z</time></trkpt><trkpt lat="45.668517" lon="13.9462933"><ele>455.0</ele><time>2026-04-26T14:13:19.431Z</time></trkpt><trkpt lat="45.6683055" lon="13.9461455"><ele>453.0</ele><time>2026-04-26T14:13:20.431Z</time></trkpt><trkpt lat="45.6680989" lon="13.9459925"><ele>452.0</ele><time>2026-04-26T14:13:21.431Z</time></trkpt><trkpt lat="45.6678982" lon="13.9458326"><ele>451.0</ele><time>2026-04-26T14:13:22.431Z</time></trkpt><trkpt lat="45.667701" lon="13.9456638"><ele>451.0</ele><time>2026-04-26T14:13:23.431Z</time></trkpt><trkpt lat="45.667508" lon="13.9454919"><ele>451.0</ele><time>2026-04-26T14:13:24.431Z</time></trkpt><trkpt lat="45.6673141" lon="13.9453101"><ele>451.0</ele><time>2026-04-26T14:13:25.431Z</time></trkpt><trkpt lat="45.667121" lon="13.9451257"><ele>451.0</ele><time>2026-04-26T14:13:26.431Z</time></trkpt><trkpt lat="45.6669287" lon="13.9449519"><ele>449.5</ele><time>2026-04-26T14:13:27.431Z</time></trkpt><trkpt lat="45.6667359" lon="13.9447758"><ele>448.0</ele><time>2026-04-26T14:13:28.431Z</time></trkpt><trkpt lat="45.6665418" lon="13.9446003"><ele>448.0</ele><time>2026-04-26T14:13:29.432Z</time></trkpt><trkpt lat="45.6663572" lon="13.944402"><ele>448.0</ele><time>2026-04-26T14:13:30.431Z</time></trkpt><trkpt lat="45.6661904" lon="13.9441881"><ele>448.0</ele><time>2026-04-26T14:13:31.431Z</time></trkpt><trkpt lat="45.6660437" lon="13.9439459"><ele>448.0</ele><time>2026-04-26T14:13:32.431Z</time></trkpt><trkpt lat="45.6659094" lon="13.9436974"><ele>448.0</ele><time>2026-04-26T14:13:33.431Z</time></trkpt><trkpt lat="45.6657765" lon="13.9434493"><ele>449.6666666666667</ele><time>2026-04-26T14:13:34.431Z</time></trkpt><trkpt lat="45.6656415" lon="13.9431984"><ele>451.33333333333337</ele><time>2026-04-26T14:13:35.431Z</time></trkpt><trkpt lat="45.665499" lon="13.9429531"><ele>453.0</ele><time>2026-04-26T14:13:36.431Z</time></trkpt><trkpt lat="45.6653528" lon="13.9426989"><ele>451.0</ele><time>2026-04-26T14:13:37.431Z</time></trkpt><trkpt lat="45.6652074" lon="13.9424445"><ele>449.0</ele><time>2026-04-26T14:13:38.431Z</time></trkpt><trkpt lat="45.6650645" lon="13.9421868"><ele>449.0</ele><time>2026-04-26T14:13:39.431Z</time></trkpt><trkpt lat="45.6649235" lon="13.941933"><ele>449.0</ele><time>2026-04-26T14:13:40.431Z</time></trkpt><trkpt lat="45.664786" lon="13.9416827"><ele>449.0</ele><time>2026-04-26T14:13:41.431Z</time></trkpt><trkpt lat="45.6646395" lon="13.941441"><ele>449.3333333333333</ele><time>2026-04-26T14:13:42.431Z</time></trkpt><trkpt lat="45.6644917" lon="13.9412094"><ele>449.66666666666663</ele><time>2026-04-26T14:13:43.431Z</time></trkpt><trkpt lat="45.6643311" lon="13.9409809"><ele>450.0</ele><time>2026-04-26T14:13:44.431Z</time></trkpt><trkpt lat="45.6641645" lon="13.9407664"><ele>450.0</ele><time>2026-04-26T14:13:45.432Z</time></trkpt><trkpt lat="45.6639918" lon="13.9405613"><ele>450.0</ele><time>2026-04-26T14:13:46.431Z</time></trkpt><trkpt lat="45.6638202" lon="13.9403728"><ele>450.0</ele><time>2026-04-26T14:13:47.431Z</time></trkpt><trkpt lat="45.6636395" lon="13.9401984"><ele>453.66666666666663</ele><time>2026-04-26T14:13:48.431Z</time></trkpt><trkpt lat="45.6634549" lon="13.9400333"><ele>457.3333333333333</ele><time>2026-04-26T14:13:49.431Z</time></trkpt><trkpt lat="45.6632698" lon="13.9398661"><ele>461.0</ele><time>2026-04-26T14:13:50.431Z</time></trkpt><trkpt lat="45.6630931" lon="13.9396945"><ele>461.0</ele><time>2026-04-26T14:13:51.431Z</time></trkpt><trkpt lat="45.6629195" lon="13.9394975"><ele>461.0</ele><time>2026-04-26T14:13:52.432Z</time></trkpt><trkpt lat="45.6627512" lon="13.9392799"><ele>461.0</ele><time>2026-04-26T14:13:53.431Z</time></trkpt><trkpt lat="45.6625822" lon="13.9390554"><ele>459.5</ele><time>2026-04-26T14:13:54.432Z</time></trkpt><trkpt lat="45.6624129" lon="13.9388145"><ele>458.0</ele><time>2026-04-26T14:13:55.431Z</time></trkpt><trkpt lat="45.6622474" lon="13.9385796"><ele>457.0</ele><time>2026-04-26T14:13:56.431Z</time></trkpt><trkpt lat="45.6620868" lon="13.9383598"><ele>456.0</ele><time>2026-04-26T14:13:57.432Z</time></trkpt><trkpt lat="45.6619495" lon="13.9381433"><ele>455.0</ele><time>2026-04-26T14:13:58.431Z</time></trkpt><trkpt lat="45.6618285" lon="13.937915"><ele>455.0</ele><time>2026-04-26T14:13:59.431Z</time></trkpt><trkpt lat="45.6617293" lon="13.9376765"><ele>455.0</ele><time>2026-04-26T14:14:00.431Z</time></trkpt><trkpt lat="45.6616453" lon="13.9374252"><ele>455.0</ele><time>2026-04-26T14:14:01.431Z</time></trkpt><trkpt lat="45.6615689" lon="13.9371687"><ele>457.0</ele><time>2026-04-26T14:14:02.431Z</time></trkpt><trkpt lat="45.6615144" lon="13.9368919"><ele>459.0</ele><time>2026-04-26T14:14:03.431Z</time></trkpt><trkpt lat="45.6614702" lon="13.9366098"><ele>461.0</ele><time>2026-04-26T14:14:04.431Z</time></trkpt><trkpt lat="45.6614401" lon="13.9363201"><ele>461.0</ele><time>2026-04-26T14:14:05.431Z</time></trkpt><trkpt lat="45.6614066" lon="13.9360315"><ele>461.0</ele><time>2026-04-26T14:14:06.431Z</time></trkpt><trkpt lat="45.6613714" lon="13.9357339"><ele>461.0</ele><time>2026-04-26T14:14:07.431Z</time></trkpt><trkpt lat="45.6613356" lon="13.9354352"><ele>460.66666666666663</ele><time>2026-04-26T14:14:08.431Z</time></trkpt><trkpt lat="45.6612971" lon="13.9351331"><ele>460.33333333333337</ele><time>2026-04-26T14:14:09.431Z</time></trkpt><trkpt lat="45.6612656" lon="13.9348315"><ele>460.0</ele><time>2026-04-26T14:14:10.431Z</time></trkpt><trkpt lat="45.661228" lon="13.9345449"><ele>458.0</ele><time>2026-04-26T14:14:11.431Z</time></trkpt><trkpt lat="45.6611992" lon="13.9342715"><ele>456.0</ele><time>2026-04-26T14:14:12.431Z</time></trkpt><trkpt lat="45.6611637" lon="13.9340034"><ele>454.0</ele><time>2026-04-26T14:14:13.431Z</time></trkpt><trkpt lat="45.6611195" lon="13.9337649"><ele>454.0</ele><time>2026-04-26T14:14:14.431Z</time></trkpt><trkpt lat="45.6610615" lon="13.9335437"><ele>454.0</ele><time>2026-04-26T14:14:15.431Z</time></trkpt><trkpt lat="45.661004" lon="13.9333435"><ele>454.0</ele><time>2026-04-26T14:14:16.431Z</time></trkpt><trkpt lat="45.6609582" lon="13.9331485"><ele>454.0</ele><time>2026-04-26T14:14:17.431Z</time></trkpt><trkpt lat="45.6609284" lon="13.9329756"><ele>454.0</ele><time>2026-04-26T14:14:18.431Z</time></trkpt><trkpt lat="45.6609207" lon="13.9327958"><ele>454.0</ele><time>2026-04-26T14:14:19.431Z</time></trkpt><trkpt lat="45.6609296" lon="13.932624"><ele>454.0</ele><time>2026-04-26T14:14:20.432Z</time></trkpt><trkpt lat="45.6609333" lon="13.9324478"><ele>454.25</ele><time>2026-04-26T14:14:21.431Z</time></trkpt><trkpt lat="45.6609193" lon="13.9322624"><ele>454.5</ele><time>2026-04-26T14:14:22.432Z</time></trkpt><trkpt lat="45.6608891" lon="13.9320731"><ele>454.75</ele><time>2026-04-26T14:14:23.432Z</time></trkpt><trkpt lat="45.6608505" lon="13.9318851"><ele>455.0</ele><time>2026-04-26T14:14:24.431Z</time></trkpt><trkpt lat="45.6608088" lon="13.9317015"><ele>455.0</ele><time>2026-04-26T14:14:25.431Z</time></trkpt><trkpt lat="45.6607744" lon="13.9315134"><ele>455.0</ele><time>2026-04-26T14:14:26.432Z</time></trkpt><trkpt lat="45.6607539" lon="13.9313158"><ele>455.0</ele><time>2026-04-26T14:14:27.431Z</time></trkpt><trkpt lat="45.6607568" lon="13.9311185"><ele>455.0</ele><time>2026-04-26T14:14:28.431Z</time></trkpt><trkpt lat="45.6607798" lon="13.9309203"><ele>454.75</ele><time>2026-04-26T14:14:29.431Z</time></trkpt><trkpt lat="45.6608118" lon="13.9307308"><ele>454.5</ele><time>2026-04-26T14:14:30.431Z</time></trkpt><trkpt lat="45.6608404" lon="13.9305336"><ele>454.25</ele><time>2026-04-26T14:14:31.431Z</time></trkpt><trkpt lat="45.6608738" lon="13.9303391"><ele>454.0</ele><time>2026-04-26T14:14:32.432Z</time></trkpt><trkpt lat="45.6609126" lon="13.930134"><ele>454.0</ele><time>2026-04-26T14:14:33.431Z</time></trkpt><trkpt lat="45.6609422" lon="13.929926"><ele>454.0</ele><time>2026-04-26T14:14:34.431Z</time></trkpt><trkpt lat="45.6609564" lon="13.929708"><ele>454.0</ele><time>2026-04-26T14:14:35.431Z</time></trkpt><trkpt lat="45.6609564" lon="13.9294966"><ele>454.0</ele><time>2026-04-26T14:14:36.431Z</time></trkpt><trkpt lat="45.6609486" lon="13.9292883"><ele>453.75</ele><time>2026-04-26T14:14:37.431Z</time></trkpt><trkpt lat="45.660937" lon="13.9290779"><ele>453.5</ele><time>2026-04-26T14:14:38.431Z</time></trkpt><trkpt lat="45.6609284" lon="13.9288672"><ele>453.25</ele><time>2026-04-26T14:14:39.431Z</time></trkpt><trkpt lat="45.6609246" lon="13.9286574"><ele>453.0</ele><time>2026-04-26T14:14:40.431Z</time></trkpt><trkpt lat="45.6609175" lon="13.9284624"><ele>453.0</ele><time>2026-04-26T14:14:41.431Z</time></trkpt><trkpt lat="45.660916" lon="13.928276"><ele>453.0</ele><time>2026-04-26T14:14:42.431Z</time></trkpt><trkpt lat="45.6609252" lon="13.9281093"><ele>453.0</ele><time>2026-04-26T14:14:43.431Z</time></trkpt><trkpt lat="45.6609561" lon="13.9279641"><ele>453.0</ele><time>2026-04-26T14:14:44.431Z</time></trkpt><trkpt lat="45.6610198" lon="13.9278348"><ele>453.0</ele><time>2026-04-26T14:14:45.431Z</time></trkpt><trkpt lat="45.6610891" lon="13.9277149"><ele>452.99999999999994</ele><time>2026-04-26T14:14:46.431Z</time></trkpt><trkpt lat="45.6611642" lon="13.9275963"><ele>452.99999999999994</ele><time>2026-04-26T14:14:47.431Z</time></trkpt><trkpt lat="45.661224" lon="13.9274846"><ele>453.0</ele><time>2026-04-26T14:14:48.431Z</time></trkpt><trkpt lat="45.6612769" lon="13.9273708"><ele>453.0</ele><time>2026-04-26T14:14:49.431Z</time></trkpt><trkpt lat="45.6612954" lon="13.9272394"><ele>452.59999999999997</ele><time>2026-04-26T14:14:50.431Z</time></trkpt><trkpt lat="45.6612617" lon="13.9271033"><ele>452.19999999999993</ele><time>2026-04-26T14:14:51.431Z</time></trkpt><trkpt lat="45.661201" lon="13.9269713"><ele>451.8</ele><time>2026-04-26T14:14:52.431Z</time></trkpt><trkpt lat="45.6611377" lon="13.9268349"><ele>451.4</ele><time>2026-04-26T14:14:53.431Z</time></trkpt><trkpt lat="45.6610806" lon="13.9266851"><ele>451.0</ele><time>2026-04-26T14:14:54.431Z</time></trkpt><trkpt lat="45.6610306" lon="13.9265439"><ele>450.6</ele><time>2026-04-26T14:14:55.431Z</time></trkpt><trkpt lat="45.6609814" lon="13.9264013"><ele>450.20000000000005</ele><time>2026-04-26T14:14:56.432Z</time></trkpt><trkpt lat="45.6609373" lon="13.9262693"><ele>449.79999999999995</ele><time>2026-04-26T14:14:57.431Z</time></trkpt><trkpt lat="45.6608978" lon="13.9261471"><ele>449.4</ele><time>2026-04-26T14:14:58.431Z</time></trkpt><trkpt lat="45.6608608" lon="13.9260181"><ele>449.0</ele><time>2026-04-26T14:14:59.431Z</time></trkpt><trkpt lat="45.6608336" lon="13.9258847"><ele>447.6</ele><time>2026-04-26T14:15:00.431Z</time></trkpt><trkpt lat="45.660824" lon="13.9257428"><ele>446.2</ele><time>2026-04-26T14:15:01.431Z</time></trkpt><trkpt lat="45.660834" lon="13.9255983"><ele>444.80000000000007</ele><time>2026-04-26T14:15:02.431Z</time></trkpt><trkpt lat="45.6608488" lon="13.925445"><ele>443.40000000000003</ele><time>2026-04-26T14:15:03.431Z</time></trkpt><trkpt lat="45.6608783" lon="13.9253099"><ele>442.0</ele><time>2026-04-26T14:15:04.432Z</time></trkpt><trkpt lat="45.6609123" lon="13.9251823"><ele>442.0</ele><time>2026-04-26T14:15:05.431Z</time></trkpt><trkpt lat="45.6609431" lon="13.9250489"><ele>442.00000000000006</ele><time>2026-04-26T14:15:06.431Z</time></trkpt><trkpt lat="45.6609732" lon="13.9249184"><ele>442.00000000000006</ele><time>2026-04-26T14:15:07.431Z</time></trkpt><trkpt lat="45.6610092" lon="13.9247876"><ele>442.0</ele><time>2026-04-26T14:15:08.431Z</time></trkpt><trkpt lat="45.661048" lon="13.9246535"><ele>442.0</ele><time>2026-04-26T14:15:09.431Z</time></trkpt><trkpt lat="45.6610891" lon="13.9245176"><ele>441.6666666666667</ele><time>2026-04-26T14:15:10.431Z</time></trkpt><trkpt lat="45.66113" lon="13.9243815"><ele>441.33333333333337</ele><time>2026-04-26T14:15:11.431Z</time></trkpt><trkpt lat="45.6611732" lon="13.9242498"><ele>441.0</ele><time>2026-04-26T14:15:12.431Z</time></trkpt><trkpt lat="45.6612136" lon="13.9241362"><ele>440.66666666666663</ele><time>2026-04-26T14:15:13.432Z</time></trkpt><trkpt lat="45.6612545" lon="13.9240316"><ele>440.3333333333333</ele><time>2026-04-26T14:15:14.431Z</time></trkpt><trkpt lat="45.6612852" lon="13.9239406"><ele>440.0</ele><time>2026-04-26T14:15:15.431Z</time></trkpt><trkpt lat="45.6613157" lon="13.9238541"><ele>439.99999999999994</ele><time>2026-04-26T14:15:16.431Z</time></trkpt><trkpt lat="45.6613915" lon="13.9237116"><ele>440.0</ele><time>2026-04-26T14:15:18.431Z</time></trkpt><trkpt lat="45.6614262" lon="13.9236329"><ele>440.0</ele><time>2026-04-26T14:15:19.431Z</time></trkpt><trkpt lat="45.6614271" lon="13.9235335"><ele>440.0</ele><time>2026-04-26T14:15:20.431Z</time></trkpt><trkpt lat="45.6613996" lon="13.9234307"><ele>439.99999999999994</ele><time>2026-04-26T14:15:21.431Z</time></trkpt><trkpt lat="45.6613606" lon="13.9233129"><ele>440.0</ele><time>2026-04-26T14:15:22.431Z</time></trkpt><trkpt lat="45.6613346" lon="13.9231981"><ele>440.5</ele><time>2026-04-26T14:15:23.431Z</time></trkpt><trkpt lat="45.6613069" lon="13.9230688"><ele>441.0</ele><time>2026-04-26T14:15:24.431Z</time></trkpt><trkpt lat="45.661266" lon="13.9228979"><ele>441.5</ele><time>2026-04-26T14:15:25.431Z</time></trkpt><trkpt lat="45.6612351" lon="13.9226837"><ele>442.0</ele><time>2026-04-26T14:15:26.431Z</time></trkpt><trkpt lat="45.6611953" lon="13.9224435"><ele>442.33333333333337</ele><time>2026-04-26T14:15:27.431Z</time></trkpt><trkpt lat="45.6611655" lon="13.9221472"><ele>442.66666666666663</ele><time>2026-04-26T14:15:28.431Z</time></trkpt><trkpt lat="45.6611452" lon="13.9218512"><ele>443.0</ele><time>2026-04-26T14:15:29.431Z</time></trkpt><trkpt lat="45.6611288" lon="13.9215699"><ele>443.0</ele><time>2026-04-26T14:15:30.431Z</time></trkpt><trkpt lat="45.6611161" lon="13.9213089"><ele>443.0</ele><time>2026-04-26T14:15:31.431Z</time></trkpt><trkpt lat="45.6611017" lon="13.9210729"><ele>443.0</ele><time>2026-04-26T14:15:32.431Z</time></trkpt><trkpt lat="45.6611009" lon="13.9208354"><ele>443.3333333333333</ele><time>2026-04-26T14:15:33.431Z</time></trkpt><trkpt lat="45.6611118" lon="13.920605"><ele>443.66666666666663</ele><time>2026-04-26T14:15:34.431Z</time></trkpt><trkpt lat="45.661126" lon="13.9203653"><ele>444.0</ele><time>2026-04-26T14:15:35.431Z</time></trkpt><trkpt lat="45.6611351" lon="13.9201145"><ele>444.33333333333337</ele><time>2026-04-26T14:15:36.432Z</time></trkpt><trkpt lat="45.661145" lon="13.9198581"><ele>444.6666666666667</ele><time>2026-04-26T14:15:37.431Z</time></trkpt><trkpt lat="45.6611574" lon="13.9196105"><ele>445.0</ele><time>2026-04-26T14:15:38.431Z</time></trkpt><trkpt lat="45.6611668" lon="13.9193762"><ele>445.6666666666667</ele><time>2026-04-26T14:15:39.431Z</time></trkpt><trkpt lat="45.6611675" lon="13.9191576"><ele>446.33333333333337</ele><time>2026-04-26T14:15:40.432Z</time></trkpt><trkpt lat="45.6611462" lon="13.918943"><ele>447.0</ele><time>2026-04-26T14:15:41.431Z</time></trkpt><trkpt lat="45.6611125" lon="13.9187265"><ele>447.0</ele><time>2026-04-26T14:15:42.431Z</time></trkpt><trkpt lat="45.6610678" lon="13.918525"><ele>447.0</ele><time>2026-04-26T14:15:43.431Z</time></trkpt><trkpt lat="45.6610165" lon="13.9183234"><ele>447.0</ele><time>2026-04-26T14:15:44.431Z</time></trkpt><trkpt lat="45.6609625" lon="13.918136"><ele>447.0</ele><time>2026-04-26T14:15:45.431Z</time></trkpt><trkpt lat="45.6609118" lon="13.917962"><ele>447.25</ele><time>2026-04-26T14:15:46.431Z</time></trkpt><trkpt lat="45.660868" lon="13.9177911"><ele>447.5</ele><time>2026-04-26T14:15:47.432Z</time></trkpt><trkpt lat="45.6608176" lon="13.9176103"><ele>447.75</ele><time>2026-04-26T14:15:48.431Z</time></trkpt><trkpt lat="45.6607686" lon="13.9174221"><ele>448.0</ele><time>2026-04-26T14:15:49.431Z</time></trkpt><trkpt lat="45.6607242" lon="13.917225"><ele>447.25</ele><time>2026-04-26T14:15:50.431Z</time></trkpt><trkpt lat="45.6606907" lon="13.9170192"><ele>446.5</ele><time>2026-04-26T14:15:51.431Z</time></trkpt><trkpt lat="45.6606699" lon="13.9168104"><ele>445.75</ele><time>2026-04-26T14:15:52.431Z</time></trkpt><trkpt lat="45.6606644" lon="13.9165975"><ele>445.0</ele><time>2026-04-26T14:15:53.431Z</time></trkpt><trkpt lat="45.6606743" lon="13.9163887"><ele>444.75</ele><time>2026-04-26T14:15:54.431Z</time></trkpt><trkpt lat="45.6606856" lon="13.9162025"><ele>444.5</ele><time>2026-04-26T14:15:55.431Z</time></trkpt><trkpt lat="45.6606924" lon="13.9160115"><ele>444.25</ele><time>2026-04-26T14:15:56.431Z</time></trkpt><trkpt lat="45.6607041" lon="13.9158123"><ele>444.0</ele><time>2026-04-26T14:15:57.432Z</time></trkpt><trkpt lat="45.6607186" lon="13.9156007"><ele>443.25</ele><time>2026-04-26T14:15:58.431Z</time></trkpt><trkpt lat="45.6607254" lon="13.9153939"><ele>442.5</ele><time>2026-04-26T14:15:59.432Z</time></trkpt><trkpt lat="45.6607305" lon="13.915187"><ele>441.75</ele><time>2026-04-26T14:16:00.431Z</time></trkpt><trkpt lat="45.6607409" lon="13.9149754"><ele>441.0</ele><time>2026-04-26T14:16:01.431Z</time></trkpt><trkpt lat="45.6607507" lon="13.9147674"><ele>440.75</ele><time>2026-04-26T14:16:02.431Z</time></trkpt><trkpt lat="45.6607627" lon="13.9145633"><ele>440.5</ele><time>2026-04-26T14:16:03.432Z</time></trkpt><trkpt lat="45.6607681" lon="13.9143691"><ele>440.25</ele><time>2026-04-26T14:16:04.431Z</time></trkpt><trkpt lat="45.6607624" lon="13.9141639"><ele>440.0</ele><time>2026-04-26T14:16:05.431Z</time></trkpt><trkpt lat="45.6607386" lon="13.9139534"><ele>440.0</ele><time>2026-04-26T14:16:06.431Z</time></trkpt><trkpt lat="45.6607101" lon="13.9137589"><ele>440.0</ele><time>2026-04-26T14:16:07.431Z</time></trkpt><trkpt lat="45.6606792" lon="13.9135623"><ele>440.0</ele><time>2026-04-26T14:16:08.431Z</time></trkpt><trkpt lat="45.6606521" lon="13.9133643"><ele>440.0</ele><time>2026-04-26T14:16:09.431Z</time></trkpt><trkpt lat="45.6606234" lon="13.9131732"><ele>440.3333333333333</ele><time>2026-04-26T14:16:10.431Z</time></trkpt><trkpt lat="45.6605984" lon="13.9129746"><ele>440.66666666666663</ele><time>2026-04-26T14:16:11.431Z</time></trkpt><trkpt lat="45.6605583" lon="13.9127399"><ele>441.0</ele><time>2026-04-26T14:16:12.431Z</time></trkpt><trkpt lat="45.6605304" lon="13.9124255"><ele>440.0</ele><time>2026-04-26T14:16:13.431Z</time></trkpt><trkpt lat="45.6605264" lon="13.912085"><ele>439.0</ele><time>2026-04-26T14:16:14.431Z</time></trkpt><trkpt lat="45.6605751" lon="13.9117198"><ele>438.0</ele><time>2026-04-26T14:16:15.431Z</time></trkpt><trkpt lat="45.6606496" lon="13.9113288"><ele>437.0</ele><time>2026-04-26T14:16:16.431Z</time></trkpt><trkpt lat="45.6607106" lon="13.9109165"><ele>437.5</ele><time>2026-04-26T14:16:17.431Z</time></trkpt><trkpt lat="45.6607669" lon="13.9104907"><ele>438.0</ele><time>2026-04-26T14:16:18.432Z</time></trkpt><trkpt lat="45.6608239" lon="13.910085"><ele>438.0</ele><time>2026-04-26T14:16:19.431Z</time></trkpt><trkpt lat="45.6608745" lon="13.9096972"><ele>438.0</ele><time>2026-04-26T14:16:20.432Z</time></trkpt><trkpt lat="45.6609221" lon="13.9093335"><ele>437.5</ele><time>2026-04-26T14:16:21.431Z</time></trkpt><trkpt lat="45.6609686" lon="13.9089958"><ele>437.0</ele><time>2026-04-26T14:16:22.431Z</time></trkpt><trkpt lat="45.6610079" lon="13.9086744"><ele>436.0</ele><time>2026-04-26T14:16:23.431Z</time></trkpt><trkpt lat="45.6610307" lon="13.9083599"><ele>435.0</ele><time>2026-04-26T14:16:24.431Z</time></trkpt><trkpt lat="45.661054" lon="13.9080553"><ele>434.0</ele><time>2026-04-26T14:16:25.432Z</time></trkpt><trkpt lat="45.6610789" lon="13.9077639"><ele>433.3333333333333</ele><time>2026-04-26T14:16:26.431Z</time></trkpt><trkpt lat="45.6611097" lon="13.9074673"><ele>432.66666666666663</ele><time>2026-04-26T14:16:27.431Z</time></trkpt><trkpt lat="45.6611474" lon="13.9071808"><ele>432.0</ele><time>2026-04-26T14:16:28.431Z</time></trkpt><trkpt lat="45.6611823" lon="13.9068964"><ele>430.33333333333337</ele><time>2026-04-26T14:16:29.431Z</time></trkpt><trkpt lat="45.6612086" lon="13.9066144"><ele>428.6666666666667</ele><time>2026-04-26T14:16:30.431Z</time></trkpt><trkpt lat="45.6612055" lon="13.9063325"><ele>427.0</ele><time>2026-04-26T14:16:31.431Z</time></trkpt><trkpt lat="45.6611618" lon="13.9060522"><ele>427.6666666666667</ele><time>2026-04-26T14:16:32.431Z</time></trkpt><trkpt lat="45.6610797" lon="13.9057883"><ele>428.33333333333337</ele><time>2026-04-26T14:16:33.432Z</time></trkpt><trkpt lat="45.6609639" lon="13.905579"><ele>429.0</ele><time>2026-04-26T14:16:34.431Z</time></trkpt><trkpt lat="45.6607977" lon="13.9053718"><ele>429.0</ele><time>2026-04-26T14:16:35.431Z</time></trkpt><trkpt lat="45.6606182" lon="13.9051796"><ele>429.0</ele><time>2026-04-26T14:16:36.431Z</time></trkpt><trkpt lat="45.6604274" lon="13.9049743"><ele>429.0</ele><time>2026-04-26T14:16:37.431Z</time></trkpt><trkpt lat="45.6602501" lon="13.9047641"><ele>429.0</ele><time>2026-04-26T14:16:38.431Z</time></trkpt><trkpt lat="45.6600753" lon="13.904586"><ele>429.0</ele><time>2026-04-26T14:16:39.431Z</time></trkpt><trkpt lat="45.6599069" lon="13.9044241"><ele>429.0</ele><time>2026-04-26T14:16:40.431Z</time></trkpt><trkpt lat="45.6597576" lon="13.9042473"><ele>429.0</ele><time>2026-04-26T14:16:41.431Z</time></trkpt><trkpt lat="45.6596258" lon="13.9040268"><ele>429.0</ele><time>2026-04-26T14:16:42.431Z</time></trkpt><trkpt lat="45.6595175" lon="13.9037819"><ele>430.0</ele><time>2026-04-26T14:16:43.431Z</time></trkpt><trkpt lat="45.6594287" lon="13.9035148"><ele>431.0</ele><time>2026-04-26T14:16:44.431Z</time></trkpt><trkpt lat="45.6593479" lon="13.9032306"><ele>432.0</ele><time>2026-04-26T14:16:45.432Z</time></trkpt><trkpt lat="45.6592634" lon="13.9029393"><ele>432.0</ele><time>2026-04-26T14:16:46.431Z</time></trkpt><trkpt lat="45.6591695" lon="13.90264"><ele>432.0</ele><time>2026-04-26T14:16:47.432Z</time></trkpt><trkpt lat="45.6590736" lon="13.9023237"><ele>432.0</ele><time>2026-04-26T14:16:48.432Z</time></trkpt><trkpt lat="45.6589766" lon="13.9020049"><ele>432.0</ele><time>2026-04-26T14:16:49.431Z</time></trkpt><trkpt lat="45.6588836" lon="13.9016926"><ele>431.5</ele><time>2026-04-26T14:16:50.431Z</time></trkpt><trkpt lat="45.6587979" lon="13.9013753"><ele>431.0</ele><time>2026-04-26T14:16:51.431Z</time></trkpt><trkpt lat="45.6587262" lon="13.9010609"><ele>430.0</ele><time>2026-04-26T14:16:52.431Z</time></trkpt><trkpt lat="45.6586564" lon="13.900753"><ele>429.0</ele><time>2026-04-26T14:16:53.431Z</time></trkpt><trkpt lat="45.6585954" lon="13.9004504"><ele>428.0</ele><time>2026-04-26T14:16:54.431Z</time></trkpt><trkpt lat="45.6585418" lon="13.9001418"><ele>427.3333333333333</ele><time>2026-04-26T14:16:55.432Z</time></trkpt><trkpt lat="45.6584927" lon="13.8998409"><ele>426.66666666666663</ele><time>2026-04-26T14:16:56.431Z</time></trkpt><trkpt lat="45.6584409" lon="13.8995382"><ele>426.0</ele><time>2026-04-26T14:16:57.431Z</time></trkpt><trkpt lat="45.6583855" lon="13.8992411"><ele>426.0</ele><time>2026-04-26T14:16:58.431Z</time></trkpt><trkpt lat="45.6583245" lon="13.8989329"><ele>426.0</ele><time>2026-04-26T14:16:59.431Z</time></trkpt><trkpt lat="45.6582642" lon="13.8986392"><ele>426.0</ele><time>2026-04-26T14:17:00.431Z</time></trkpt><trkpt lat="45.6581966" lon="13.8983488"><ele>425.33333333333337</ele><time>2026-04-26T14:17:01.431Z</time></trkpt><trkpt lat="45.6581258" lon="13.8980501"><ele>424.6666666666667</ele><time>2026-04-26T14:17:02.431Z</time></trkpt><trkpt lat="45.6580571" lon="13.8977477"><ele>424.0</ele><time>2026-04-26T14:17:03.432Z</time></trkpt><trkpt lat="45.6579885" lon="13.897447"><ele>423.33333333333337</ele><time>2026-04-26T14:17:04.431Z</time></trkpt><trkpt lat="45.6579217" lon="13.8971546"><ele>422.66666666666663</ele><time>2026-04-26T14:17:05.431Z</time></trkpt><trkpt lat="45.6578547" lon="13.8968645"><ele>422.0</ele><time>2026-04-26T14:17:06.431Z</time></trkpt><trkpt lat="45.6577804" lon="13.8965712"><ele>422.0</ele><time>2026-04-26T14:17:07.431Z</time></trkpt><trkpt lat="45.6577209" lon="13.8962768"><ele>422.0</ele><time>2026-04-26T14:17:08.431Z</time></trkpt><trkpt lat="45.6576735" lon="13.8959818"><ele>422.0</ele><time>2026-04-26T14:17:09.431Z</time></trkpt><trkpt lat="45.657627" lon="13.8956824"><ele>421.66666666666663</ele><time>2026-04-26T14:17:10.431Z</time></trkpt><trkpt lat="45.6575901" lon="13.8953947"><ele>421.33333333333337</ele><time>2026-04-26T14:17:11.431Z</time></trkpt><trkpt lat="45.657554" lon="13.8951163"><ele>421.0</ele><time>2026-04-26T14:17:12.431Z</time></trkpt><trkpt lat="45.6575297" lon="13.8948545"><ele>420.6666666666667</ele><time>2026-04-26T14:17:13.431Z</time></trkpt><trkpt lat="45.657524" lon="13.8945967"><ele>420.33333333333337</ele><time>2026-04-26T14:17:14.431Z</time></trkpt><trkpt lat="45.6575386" lon="13.8943517"><ele>420.0</ele><time>2026-04-26T14:17:15.431Z</time></trkpt><trkpt lat="45.6575681" lon="13.8941026"><ele>419.33333333333337</ele><time>2026-04-26T14:17:16.432Z</time></trkpt><trkpt lat="45.657591" lon="13.8938473"><ele>418.6666666666667</ele><time>2026-04-26T14:17:17.431Z</time></trkpt><trkpt lat="45.6576091" lon="13.8935741"><ele>418.0</ele><time>2026-04-26T14:17:18.431Z</time></trkpt><trkpt lat="45.6576224" lon="13.8933019"><ele>417.0</ele><time>2026-04-26T14:17:19.431Z</time></trkpt><trkpt lat="45.6576315" lon="13.8930298"><ele>416.0</ele><time>2026-04-26T14:17:20.432Z</time></trkpt><trkpt lat="45.6576331" lon="13.892757"><ele>415.0</ele><time>2026-04-26T14:17:21.431Z</time></trkpt><trkpt lat="45.6576387" lon="13.8924288"><ele>414.5</ele><time>2026-04-26T14:17:22.431Z</time></trkpt><trkpt lat="45.6576396" lon="13.8920625"><ele>414.0</ele><time>2026-04-26T14:17:23.431Z</time></trkpt><trkpt lat="45.6576469" lon="13.8916708"><ele>413.5</ele><time>2026-04-26T14:17:24.431Z</time></trkpt><trkpt lat="45.6576462" lon="13.8912561"><ele>413.0</ele><time>2026-04-26T14:17:25.431Z</time></trkpt><trkpt lat="45.6576391" lon="13.8908463"><ele>413.0</ele><time>2026-04-26T14:17:26.431Z</time></trkpt><trkpt lat="45.6576011" lon="13.8904779"><ele>413.0</ele><time>2026-04-26T14:17:27.432Z</time></trkpt><trkpt lat="45.6575388" lon="13.8901263"><ele>412.5</ele><time>2026-04-26T14:17:28.431Z</time></trkpt><trkpt lat="45.6574389" lon="13.8897634"><ele>412.0</ele><time>2026-04-26T14:17:29.431Z</time></trkpt><trkpt lat="45.6573411" lon="13.8893927"><ele>412.0</ele><time>2026-04-26T14:17:30.431Z</time></trkpt><trkpt lat="45.6572391" lon="13.8890091"><ele>412.0</ele><time>2026-04-26T14:17:31.431Z</time></trkpt><trkpt lat="45.6571362" lon="13.8886187"><ele>411.5</ele><time>2026-04-26T14:17:32.431Z</time></trkpt><trkpt lat="45.6570336" lon="13.8882268"><ele>411.0</ele><time>2026-04-26T14:17:33.432Z</time></trkpt><trkpt lat="45.656932" lon="13.8878334"><ele>412.5</ele><time>2026-04-26T14:17:34.431Z</time></trkpt><trkpt lat="45.6568331" lon="13.8874428"><ele>414.0</ele><time>2026-04-26T14:17:35.431Z</time></trkpt><trkpt lat="45.6567369" lon="13.8870627"><ele>415.5</ele><time>2026-04-26T14:17:36.431Z</time></trkpt><trkpt lat="45.6566422" lon="13.8866937"><ele>417.0</ele><time>2026-04-26T14:17:37.431Z</time></trkpt><trkpt lat="45.6565483" lon="13.8863349"><ele>417.0</ele><time>2026-04-26T14:17:38.431Z</time></trkpt><trkpt lat="45.6564561" lon="13.8859819"><ele>417.0</ele><time>2026-04-26T14:17:39.431Z</time></trkpt><trkpt lat="45.656368" lon="13.8856375"><ele>417.0</ele><time>2026-04-26T14:17:40.431Z</time></trkpt><trkpt lat="45.6562859" lon="13.8853036"><ele>417.0</ele><time>2026-04-26T14:17:41.431Z</time></trkpt><trkpt lat="45.656205" lon="13.8849697"><ele>416.5</ele><time>2026-04-26T14:17:42.431Z</time></trkpt><trkpt lat="45.6561262" lon="13.8846476"><ele>416.0</ele><time>2026-04-26T14:17:43.431Z</time></trkpt><trkpt lat="45.656048" lon="13.8843299"><ele>415.0</ele><time>2026-04-26T14:17:44.431Z</time></trkpt><trkpt lat="45.6559687" lon="13.8840246"><ele>414.0</ele><time>2026-04-26T14:17:45.431Z</time></trkpt><trkpt lat="45.6558936" lon="13.8837256"><ele>414.0</ele><time>2026-04-26T14:17:46.431Z</time></trkpt><trkpt lat="45.6558221" lon="13.8834361"><ele>414.0</ele><time>2026-04-26T14:17:47.431Z</time></trkpt><trkpt lat="45.6557505" lon="13.8831561"><ele>414.0</ele><time>2026-04-26T14:17:48.431Z</time></trkpt><trkpt lat="45.6556807" lon="13.8828907"><ele>413.33333333333337</ele><time>2026-04-26T14:17:49.431Z</time></trkpt><trkpt lat="45.655619" lon="13.8826399"><ele>412.6666666666667</ele><time>2026-04-26T14:17:50.431Z</time></trkpt><trkpt lat="45.6555649" lon="13.8824196"><ele>412.0</ele><time>2026-04-26T14:17:51.432Z</time></trkpt><trkpt lat="45.655515" lon="13.8822364"><ele>412.0</ele><time>2026-04-26T14:17:52.431Z</time></trkpt><trkpt lat="45.6554668" lon="13.8820976"><ele>412.0</ele><time>2026-04-26T14:17:53.431Z</time></trkpt><trkpt lat="45.6554483" lon="13.8819984"><ele>412.0</ele><time>2026-04-26T14:17:54.431Z</time></trkpt><trkpt lat="45.6554862" lon="13.8818469"><ele>412.0</ele><time>2026-04-26T14:17:56.431Z</time></trkpt><trkpt lat="45.6555375" lon="13.8817712"><ele>412.0</ele><time>2026-04-26T14:17:57.432Z</time></trkpt><trkpt lat="45.6555915" lon="13.8816389"><ele>411.57142857142856</ele><time>2026-04-26T14:17:59.431Z</time></trkpt><trkpt lat="45.6555834" lon="13.881546"><ele>411.1428571428571</ele><time>2026-04-26T14:18:01.431Z</time></trkpt><trkpt lat="45.6555888" lon="13.88145"><ele>410.71428571428567</ele><time>2026-04-26T14:18:06.431Z</time></trkpt><trkpt lat="45.6556792" lon="13.881432"><ele>410.2857142857143</ele><time>2026-04-26T14:20:18.432Z</time></trkpt><trkpt lat="45.6556148" lon="13.8814092"><ele>409.8571428571429</ele><time>2026-04-26T14:21:36.431Z</time></trkpt><trkpt lat="45.6555651" lon="13.8813224"><ele>409.4285714285714</ele><time>2026-04-26T14:21:59.431Z</time></trkpt><trkpt lat="45.6555419" lon="13.8812317"><ele>409.0</ele><time>2026-04-26T14:22:10.431Z</time></trkpt><trkpt lat="45.6556106" lon="13.8811481"><ele>409.0</ele><time>2026-04-26T14:22:54.431Z</time></trkpt><trkpt lat="45.6555661" lon="13.8813524"><ele>409.0</ele><time>2026-04-26T14:23:15.431Z</time></trkpt><trkpt lat="45.6556166" lon="13.8812791"><ele>409.0</ele><time>2026-04-26T14:23:35.471Z</time></trkpt><trkpt lat="45.6556378" lon="13.8811451"><ele>409.0</ele><time>2026-04-26T14:23:57.432Z</time></trkpt><trkpt lat="45.6556142" lon="13.8810226"><ele>409.0</ele><time>2026-04-26T14:23:59.432Z</time></trkpt><trkpt lat="45.655539" lon="13.8809343"><ele>409.0</ele><time>2026-04-26T14:24:01.431Z</time></trkpt><trkpt lat="45.6554483" lon="13.8809617"><ele>409.0</ele><time>2026-04-26T14:24:03.431Z</time></trkpt><trkpt lat="45.6554004" lon="13.8810809"><ele>409.0</ele><time>2026-04-26T14:24:05.431Z</time></trkpt><trkpt lat="45.6554176" lon="13.8812002"><ele>409.0</ele><time>2026-04-26T14:24:07.431Z</time></trkpt><trkpt lat="45.6554222" lon="13.8812953"><ele>409.0</ele><time>2026-04-26T14:24:11.431Z</time></trkpt></trkseg></trk></gpx>